<?xml version='1.0' encoding='UTF-8'?><gpx version="1.1" creator="JPX - https://github.com/jenetics/jpx" xmlns="http://www.topografix.com/GPX/1/1"><trk><trkseg><trkpt lat="41.06150105125938" lon="14.572245142698016"><ele>256.0</ele><time>2026-05-04T11:26:55.999Z</time></trkpt><trkpt lat="41.06154661589505" lon="14.572154884254731"><ele>256.0</ele><time>2026-05-04T11:26:56.999Z</time></trkpt><trkpt lat="41.06159251456656" lon="14.57206076314156"><ele>256.0</ele><time>2026-05-04T11:26:57.999Z</time></trkpt><trkpt lat="41.061639319585886" lon="14.5719508281582"><ele>256.0</ele><time>2026-05-04T11:26:58.999Z</time></trkpt><trkpt lat="41.06169977343893" lon="14.571849865569868"><ele>256.0</ele><time>2026-05-04T11:26:59.999Z</time></trkpt><trkpt lat="41.06176026124548" lon="14.571729971282288"><ele>255.0</ele><time>2026-05-04T11:27:00.999Z</time></trkpt><trkpt lat="41.06182169297501" lon="14.571601886444267"><ele>254.0</ele><time>2026-05-04T11:27:01.999Z</time></trkpt><trkpt lat="41.061881101306675" lon="14.571460407501565"><ele>253.0</ele><time>2026-05-04T11:27:02.999Z</time></trkpt><trkpt lat="41.06193750483745" lon="14.571313039596498"><ele>252.0</ele><time>2026-05-04T11:27:03.999Z</time></trkpt><trkpt lat="41.06197716562657" lon="14.571172579363333"><ele>251.66666666666666</ele><time>2026-05-04T11:27:04.999Z</time></trkpt><trkpt lat="41.06200038513161" lon="14.571039743562642"><ele>251.33333333333331</ele><time>2026-05-04T11:27:05.999Z</time></trkpt><trkpt lat="41.06202173541242" lon="14.570920165820018"><ele>251.0</ele><time>2026-05-04T11:27:06.999Z</time></trkpt><trkpt lat="41.06204286345814" lon="14.570813271261777"><ele>250.66666666666666</ele><time>2026-05-04T11:27:07.999Z</time></trkpt><trkpt lat="41.06206268866334" lon="14.570733774621731"><ele>250.33333333333331</ele><time>2026-05-04T11:27:08.999Z</time></trkpt><trkpt lat="41.06215385935392" lon="14.570780810680333"><ele>250.0</ele><time>2026-05-04T11:27:11.998Z</time></trkpt><trkpt lat="41.0621764518796" lon="14.570878526812994"><ele>250.0</ele><time>2026-05-04T11:27:12.998Z</time></trkpt><trkpt lat="41.062219172023525" lon="14.570999250627853"><ele>250.0</ele><time>2026-05-04T11:27:13.998Z</time></trkpt><trkpt lat="41.06225701686025" lon="14.571108559083603"><ele>250.0</ele><time>2026-05-04T11:27:14.998Z</time></trkpt><trkpt lat="41.06230762716454" lon="14.571257888906747"><ele>250.0</ele><time>2026-05-04T11:27:15.998Z</time></trkpt><trkpt lat="41.06236236559468" lon="14.571420373771877"><ele>250.0</ele><time>2026-05-04T11:27:16.998Z</time></trkpt><trkpt lat="41.06241674569807" lon="14.571591356915528"><ele>250.0</ele><time>2026-05-04T11:27:17.998Z</time></trkpt><trkpt lat="41.06248179731785" lon="14.57176526948472"><ele>250.0</ele><time>2026-05-04T11:27:18.998Z</time></trkpt><trkpt lat="41.06252874718328" lon="14.571958765082599"><ele>250.0</ele><time>2026-05-04T11:27:19.998Z</time></trkpt><trkpt lat="41.06256924208985" lon="14.572140585758568"><ele>250.0</ele><time>2026-05-04T11:27:20.998Z</time></trkpt><trkpt lat="41.06260928369788" lon="14.572331146027166"><ele>250.0</ele><time>2026-05-04T11:27:21.998Z</time></trkpt><trkpt lat="41.06265362037777" lon="14.572530250933427"><ele>250.0</ele><time>2026-05-04T11:27:22.998Z</time></trkpt><trkpt lat="41.062692587391794" lon="14.572734182792793"><ele>250.0</ele><time>2026-05-04T11:27:23.998Z</time></trkpt><trkpt lat="41.06273742385559" lon="14.572940436859538"><ele>251.0</ele><time>2026-05-04T11:27:24.998Z</time></trkpt><trkpt lat="41.06278375101151" lon="14.573152146344084"><ele>252.0</ele><time>2026-05-04T11:27:25.998Z</time></trkpt><trkpt lat="41.062828981613265" lon="14.573353653382139"><ele>253.0</ele><time>2026-05-04T11:27:26.998Z</time></trkpt><trkpt lat="41.06287663415264" lon="14.573562537268941"><ele>253.0</ele><time>2026-05-04T11:27:27.998Z</time></trkpt><trkpt lat="41.06291728221515" lon="14.573768343273303"><ele>253.0</ele><time>2026-05-04T11:27:28.998Z</time></trkpt><trkpt lat="41.0629812133167" lon="14.57397122425962"><ele>253.0</ele><time>2026-05-04T11:27:29.998Z</time></trkpt><trkpt lat="41.06304178458084" lon="14.574172409966579"><ele>253.0</ele><time>2026-05-04T11:27:30.998Z</time></trkpt><trkpt lat="41.06308596124633" lon="14.574379948153537"><ele>253.0</ele><time>2026-05-04T11:27:31.998Z</time></trkpt><trkpt lat="41.0631265871039" lon="14.574587952501004"><ele>253.0</ele><time>2026-05-04T11:27:32.998Z</time></trkpt><trkpt lat="41.06318323137215" lon="14.574797120384499"><ele>252.66666666666666</ele><time>2026-05-04T11:27:33.998Z</time></trkpt><trkpt lat="41.06325418124951" lon="14.575003896762786"><ele>252.33333333333331</ele><time>2026-05-04T11:27:34.998Z</time></trkpt><trkpt lat="41.063322859311604" lon="14.575195267256877"><ele>252.0</ele><time>2026-05-04T11:27:35.998Z</time></trkpt><trkpt lat="41.06339487153785" lon="14.575362265378482"><ele>252.0</ele><time>2026-05-04T11:27:36.998Z</time></trkpt><trkpt lat="41.06347999183186" lon="14.575544304446506"><ele>252.0</ele><time>2026-05-04T11:27:37.998Z</time></trkpt><trkpt lat="41.063575266537185" lon="14.57571338358964"><ele>252.0</ele><time>2026-05-04T11:27:38.998Z</time></trkpt><trkpt lat="41.063674172805825" lon="14.57587382973095"><ele>252.0</ele><time>2026-05-04T11:27:39.998Z</time></trkpt><trkpt lat="41.063782236143" lon="14.576033388552794"><ele>252.0</ele><time>2026-05-04T11:27:40.998Z</time></trkpt><trkpt lat="41.06389149867967" lon="14.576178476106023"><ele>252.0</ele><time>2026-05-04T11:27:41.998Z</time></trkpt><trkpt lat="41.06398222572765" lon="14.576319227309424"><ele>252.39999999999998</ele><time>2026-05-04T11:27:42.998Z</time></trkpt><trkpt lat="41.064056178772354" lon="14.576450829078727"><ele>252.79999999999998</ele><time>2026-05-04T11:27:43.998Z</time></trkpt><trkpt lat="41.06412708761659" lon="14.576564717342876"><ele>253.2</ele><time>2026-05-04T11:27:44.998Z</time></trkpt><trkpt lat="41.064173383483194" lon="14.576655339808717"><ele>253.6</ele><time>2026-05-04T11:27:45.998Z</time></trkpt><trkpt lat="41.06418898869179" lon="14.576766041004685"><ele>254.0</ele><time>2026-05-04T11:27:46.997Z</time></trkpt><trkpt lat="41.06418735645634" lon="14.576910946375932"><ele>254.5</ele><time>2026-05-04T11:27:47.997Z</time></trkpt><trkpt lat="41.06418091683821" lon="14.577063102940944"><ele>255.0</ele><time>2026-05-04T11:27:48.997Z</time></trkpt><trkpt lat="41.064164093445875" lon="14.57723127850921"><ele>255.5</ele><time>2026-05-04T11:27:49.997Z</time></trkpt><trkpt lat="41.06413820264875" lon="14.577414680272458"><ele>256.0</ele><time>2026-05-04T11:27:50.997Z</time></trkpt><trkpt lat="41.06410788803877" lon="14.577613067709093"><ele>256.0</ele><time>2026-05-04T11:27:51.997Z</time></trkpt><trkpt lat="41.06407073505322" lon="14.577815220851832"><ele>256.0</ele><time>2026-05-04T11:27:52.997Z</time></trkpt><trkpt lat="41.064028097605316" lon="14.577999655761198"><ele>256.0</ele><time>2026-05-04T11:27:53.997Z</time></trkpt><trkpt lat="41.063998544514064" lon="14.578193936084368"><ele>255.33333333333331</ele><time>2026-05-04T11:27:54.997Z</time></trkpt><trkpt lat="41.06398839673263" lon="14.578404318379922"><ele>254.66666666666669</ele><time>2026-05-04T11:27:55.997Z</time></trkpt><trkpt lat="41.06398068342713" lon="14.57861516060285"><ele>254.0</ele><time>2026-05-04T11:27:56.997Z</time></trkpt><trkpt lat="41.06399402897681" lon="14.578793995958035"><ele>253.0</ele><time>2026-05-04T11:27:57.997Z</time></trkpt><trkpt lat="41.06402715897268" lon="14.578967732149259"><ele>252.0</ele><time>2026-05-04T11:27:58.997Z</time></trkpt><trkpt lat="41.064088623839396" lon="14.579110769819701"><ele>251.0</ele><time>2026-05-04T11:27:59.997Z</time></trkpt><trkpt lat="41.06416176749175" lon="14.57924457662805"><ele>250.0</ele><time>2026-05-04T11:28:00.997Z</time></trkpt><trkpt lat="41.064230631181026" lon="14.579382933724657"><ele>248.66666666666666</ele><time>2026-05-04T11:28:01.997Z</time></trkpt><trkpt lat="41.064297252176765" lon="14.579540058093734"><ele>247.33333333333331</ele><time>2026-05-04T11:28:02.997Z</time></trkpt><trkpt lat="41.064335278810205" lon="14.579757457034333"><ele>246.0</ele><time>2026-05-04T11:28:03.997Z</time></trkpt><trkpt lat="41.06441826791684" lon="14.579986471105771"><ele>246.0</ele><time>2026-05-04T11:28:04.997Z</time></trkpt><trkpt lat="41.064488362673565" lon="14.580230530215516"><ele>246.0</ele><time>2026-05-04T11:28:05.997Z</time></trkpt><trkpt lat="41.06457262172683" lon="14.580459168729249"><ele>246.0</ele><time>2026-05-04T11:28:06.997Z</time></trkpt><trkpt lat="41.0646757809733" lon="14.580699302535455"><ele>246.33333333333331</ele><time>2026-05-04T11:28:07.999Z</time></trkpt><trkpt lat="41.06478471510712" lon="14.580940374298033"><ele>246.66666666666666</ele><time>2026-05-04T11:28:08.999Z</time></trkpt><trkpt lat="41.06488146921143" lon="14.581187639675433"><ele>247.0</ele><time>2026-05-04T11:28:09.999Z</time></trkpt><trkpt lat="41.06496987547121" lon="14.5814251192136"><ele>247.66666666666666</ele><time>2026-05-04T11:28:10.999Z</time></trkpt><trkpt lat="41.0650413053245" lon="14.581636008038952"><ele>248.33333333333331</ele><time>2026-05-04T11:28:11.999Z</time></trkpt><trkpt lat="41.06511241567779" lon="14.581829917316055"><ele>249.0</ele><time>2026-05-04T11:28:12.999Z</time></trkpt><trkpt lat="41.06517897040795" lon="14.582004677430534"><ele>249.6</ele><time>2026-05-04T11:28:13.999Z</time></trkpt><trkpt lat="41.065231336081766" lon="14.582159699933886"><ele>250.2</ele><time>2026-05-04T11:28:14.999Z</time></trkpt><trkpt lat="41.06525960333703" lon="14.582294002009034"><ele>250.79999999999998</ele><time>2026-05-04T11:28:15.999Z</time></trkpt><trkpt lat="41.06525243346938" lon="14.582419069725137"><ele>251.39999999999998</ele><time>2026-05-04T11:28:16.999Z</time></trkpt><trkpt lat="41.065215909151725" lon="14.582539120218769"><ele>252.0</ele><time>2026-05-04T11:28:17.999Z</time></trkpt><trkpt lat="41.065104341853974" lon="14.582601924263756"><ele>252.0</ele><time>2026-05-04T11:28:18.999Z</time></trkpt><trkpt lat="41.06500789128751" lon="14.582697567696568"><ele>252.0</ele><time>2026-05-04T11:28:19.999Z</time></trkpt><trkpt lat="41.06490608718177" lon="14.58282496728407"><ele>252.0</ele><time>2026-05-04T11:28:20.999Z</time></trkpt><trkpt lat="41.06482791031479" lon="14.582949053100444"><ele>252.0</ele><time>2026-05-04T11:28:21.999Z</time></trkpt><trkpt lat="41.06480822179916" lon="14.583116685611676"><ele>251.66666666666669</ele><time>2026-05-04T11:28:22.999Z</time></trkpt><trkpt lat="41.06480397627913" lon="14.583298993789334"><ele>251.33333333333334</ele><time>2026-05-04T11:28:23.999Z</time></trkpt><trkpt lat="41.06482244827448" lon="14.583526208733979"><ele>251.0</ele><time>2026-05-04T11:28:24.999Z</time></trkpt><trkpt lat="41.06483704080715" lon="14.583759243388306"><ele>251.0</ele><time>2026-05-04T11:28:25.999Z</time></trkpt><trkpt lat="41.06485104976136" lon="14.584003363925008"><ele>251.0</ele><time>2026-05-04T11:28:26.999Z</time></trkpt><trkpt lat="41.06486305285373" lon="14.584232696136485"><ele>251.0</ele><time>2026-05-04T11:28:27.999Z</time></trkpt><trkpt lat="41.06488828906534" lon="14.584441859189415"><ele>251.66666666666669</ele><time>2026-05-04T11:28:28.999Z</time></trkpt><trkpt lat="41.06493358870837" lon="14.584650492788573"><ele>252.33333333333331</ele><time>2026-05-04T11:28:29.999Z</time></trkpt><trkpt lat="41.06499542136631" lon="14.584845000234976"><ele>253.0</ele><time>2026-05-04T11:28:30.999Z</time></trkpt><trkpt lat="41.0650623508077" lon="14.584998966663402"><ele>254.0</ele><time>2026-05-04T11:28:31.999Z</time></trkpt><trkpt lat="41.065136091075" lon="14.585149111296177"><ele>255.0</ele><time>2026-05-04T11:28:32.999Z</time></trkpt><trkpt lat="41.06522022829443" lon="14.585299900699361"><ele>256.0</ele><time>2026-05-04T11:28:33.999Z</time></trkpt><trkpt lat="41.06531432343994" lon="14.585442885652053"><ele>257.0</ele><time>2026-05-04T11:28:34.999Z</time></trkpt><trkpt lat="41.065413859456434" lon="14.585577506363917"><ele>257.0</ele><time>2026-05-04T11:28:35.999Z</time></trkpt><trkpt lat="41.065522270305344" lon="14.585695418616499"><ele>257.0</ele><time>2026-05-04T11:28:36.999Z</time></trkpt><trkpt lat="41.06561167073892" lon="14.585832691408834"><ele>257.0</ele><time>2026-05-04T11:28:37.999Z</time></trkpt><trkpt lat="41.06572507166194" lon="14.585955127511001"><ele>257.0</ele><time>2026-05-04T11:28:38.999Z</time></trkpt><trkpt lat="41.06581335123807" lon="14.586109046257425"><ele>258.0</ele><time>2026-05-04T11:28:39.999Z</time></trkpt><trkpt lat="41.06590647388253" lon="14.586267293311566"><ele>259.0</ele><time>2026-05-04T11:28:40.999Z</time></trkpt><trkpt lat="41.06599801098971" lon="14.586431077807479"><ele>260.0</ele><time>2026-05-04T11:28:41.999Z</time></trkpt><trkpt lat="41.06608239908825" lon="14.586595096509065"><ele>260.0</ele><time>2026-05-04T11:28:42.999Z</time></trkpt><trkpt lat="41.06616222827567" lon="14.586739495438602"><ele>260.0</ele><time>2026-05-04T11:28:43.999Z</time></trkpt><trkpt lat="41.06623546212316" lon="14.58687529612039"><ele>260.0</ele><time>2026-05-04T11:28:44.999Z</time></trkpt><trkpt lat="41.066292699565025" lon="14.587017191109178"><ele>260.0</ele><time>2026-05-04T11:28:45.999Z</time></trkpt><trkpt lat="41.06635090556586" lon="14.587127247544997"><ele>260.0</ele><time>2026-05-04T11:28:46.999Z</time></trkpt><trkpt lat="41.06640169837417" lon="14.587234653218287"><ele>260.0</ele><time>2026-05-04T11:28:47.999Z</time></trkpt><trkpt lat="41.06645251594082" lon="14.58734666787465"><ele>260.0</ele><time>2026-05-04T11:28:48.999Z</time></trkpt><trkpt lat="41.06648892377522" lon="14.587502398835293"><ele>260.0</ele><time>2026-05-04T11:28:49.999Z</time></trkpt><trkpt lat="41.06653495376019" lon="14.587665090346473"><ele>260.0</ele><time>2026-05-04T11:28:50.999Z</time></trkpt><trkpt lat="41.066583647502505" lon="14.58783423840783"><ele>259.75</ele><time>2026-05-04T11:28:51.999Z</time></trkpt><trkpt lat="41.066623031321015" lon="14.588015433060871"><ele>259.5</ele><time>2026-05-04T11:28:52.999Z</time></trkpt><trkpt lat="41.06666108891691" lon="14.58820783406974"><ele>259.25</ele><time>2026-05-04T11:28:53.999Z</time></trkpt><trkpt lat="41.066677284662184" lon="14.588409824479307"><ele>259.0</ele><time>2026-05-04T11:28:54.999Z</time></trkpt><trkpt lat="41.06671418585346" lon="14.588622386433983"><ele>259.3333333333333</ele><time>2026-05-04T11:28:55.999Z</time></trkpt><trkpt lat="41.06674760422514" lon="14.588851158294785"><ele>259.6666666666667</ele><time>2026-05-04T11:28:56.999Z</time></trkpt><trkpt lat="41.06678993922548" lon="14.589075636949346"><ele>260.0</ele><time>2026-05-04T11:28:57.999Z</time></trkpt><trkpt lat="41.06683293255498" lon="14.589318961630383"><ele>259.6666666666667</ele><time>2026-05-04T11:28:58.999Z</time></trkpt><trkpt lat="41.06686663743318" lon="14.589561617443955"><ele>259.3333333333333</ele><time>2026-05-04T11:28:59.999Z</time></trkpt><trkpt lat="41.06690537134307" lon="14.589811802422334"><ele>259.0</ele><time>2026-05-04T11:29:00.999Z</time></trkpt><trkpt lat="41.06695786984538" lon="14.590071237175536"><ele>259.0</ele><time>2026-05-04T11:29:01.999Z</time></trkpt><trkpt lat="41.06700984423642" lon="14.590333722870685"><ele>259.0</ele><time>2026-05-04T11:29:02.999Z</time></trkpt><trkpt lat="41.06705921258738" lon="14.590592034005608"><ele>259.0</ele><time>2026-05-04T11:29:03.999Z</time></trkpt><trkpt lat="41.06710812640208" lon="14.590862035854638"><ele>259.0</ele><time>2026-05-04T11:29:04.999Z</time></trkpt><trkpt lat="41.067153603777165" lon="14.591141768073474"><ele>259.0</ele><time>2026-05-04T11:29:05.999Z</time></trkpt><trkpt lat="41.06720708154516" lon="14.591405197327612"><ele>259.0</ele><time>2026-05-04T11:29:06.999Z</time></trkpt><trkpt lat="41.06726687163731" lon="14.591644895005057"><ele>258.66666666666663</ele><time>2026-05-04T11:29:07.999Z</time></trkpt><trkpt lat="41.067323503856564" lon="14.591867191283404"><ele>258.3333333333333</ele><time>2026-05-04T11:29:08.999Z</time></trkpt><trkpt lat="41.067379167872595" lon="14.592080593397212"><ele>258.0</ele><time>2026-05-04T11:29:09.999Z</time></trkpt><trkpt lat="41.06744784209467" lon="14.592293234569738"><ele>258.0</ele><time>2026-05-04T11:29:10.999Z</time></trkpt><trkpt lat="41.0675227413475" lon="14.592498851701137"><ele>258.0</ele><time>2026-05-04T11:29:11.999Z</time></trkpt><trkpt lat="41.06759414625658" lon="14.592692760698124"><ele>258.0</ele><time>2026-05-04T11:29:12.999Z</time></trkpt><trkpt lat="41.06765616107578" lon="14.592853864634087"><ele>258.5</ele><time>2026-05-04T11:29:13.999Z</time></trkpt><trkpt lat="41.067715022437156" lon="14.593004212738117"><ele>259.0</ele><time>2026-05-04T11:29:14.999Z</time></trkpt><trkpt lat="41.067770422005836" lon="14.593159241721173"><ele>259.5</ele><time>2026-05-04T11:29:15.999Z</time></trkpt><trkpt lat="41.06783154481658" lon="14.593301619973035"><ele>260.0</ele><time>2026-05-04T11:29:16.999Z</time></trkpt><trkpt lat="41.06788979008159" lon="14.593431826316484"><ele>260.0</ele><time>2026-05-04T11:29:17.999Z</time></trkpt><trkpt lat="41.06793780103763" lon="14.593546324730003"><ele>260.0</ele><time>2026-05-04T11:29:18.999Z</time></trkpt><trkpt lat="41.06797223024444" lon="14.59364206385009"><ele>260.0</ele><time>2026-05-04T11:29:19.999Z</time></trkpt><trkpt lat="41.068011789752106" lon="14.593747878682144"><ele>260.0</ele><time>2026-05-04T11:29:20.999Z</time></trkpt><trkpt lat="41.06805682661536" lon="14.59387728801614"><ele>260.0</ele><time>2026-05-04T11:29:21.999Z</time></trkpt><trkpt lat="41.06810122308332" lon="14.59401350475237"><ele>260.0</ele><time>2026-05-04T11:29:22.999Z</time></trkpt><trkpt lat="41.06815262274383" lon="14.594153134927016"><ele>260.0</ele><time>2026-05-04T11:29:23.999Z</time></trkpt><trkpt lat="41.068199410429386" lon="14.594317217078736"><ele>260.0</ele><time>2026-05-04T11:29:24.999Z</time></trkpt><trkpt lat="41.06825358208139" lon="14.594497983600757"><ele>260.0</ele><time>2026-05-04T11:29:25.999Z</time></trkpt><trkpt lat="41.068298907974274" lon="14.59466804063752"><ele>260.33333333333337</ele><time>2026-05-04T11:29:26.999Z</time></trkpt><trkpt lat="41.06835040866755" lon="14.594866114609601"><ele>260.6666666666667</ele><time>2026-05-04T11:29:27.999Z</time></trkpt><trkpt lat="41.0684028791021" lon="14.595070845448097"><ele>261.0</ele><time>2026-05-04T11:29:28.999Z</time></trkpt><trkpt lat="41.06844995047821" lon="14.595283941029379"><ele>260.6666666666667</ele><time>2026-05-04T11:29:29.999Z</time></trkpt><trkpt lat="41.0684933810642" lon="14.595503481179556"><ele>260.33333333333337</ele><time>2026-05-04T11:29:30.999Z</time></trkpt><trkpt lat="41.06852986366133" lon="14.595729510338465"><ele>260.0</ele><time>2026-05-04T11:29:31.998Z</time></trkpt><trkpt lat="41.06856498774554" lon="14.595965942515937"><ele>260.33333333333337</ele><time>2026-05-04T11:29:32.998Z</time></trkpt><trkpt lat="41.068614549929706" lon="14.59622224907381"><ele>260.6666666666667</ele><time>2026-05-04T11:29:33.998Z</time></trkpt><trkpt lat="41.0686718663956" lon="14.596502321950386"><ele>261.0</ele><time>2026-05-04T11:29:34.998Z</time></trkpt><trkpt lat="41.06872359649358" lon="14.596754539337656"><ele>261.0</ele><time>2026-05-04T11:29:35.998Z</time></trkpt><trkpt lat="41.06876935341163" lon="14.596977501087075"><ele>261.0</ele><time>2026-05-04T11:29:36.998Z</time></trkpt><trkpt lat="41.068821693263" lon="14.59717604768136"><ele>261.0</ele><time>2026-05-04T11:29:37.998Z</time></trkpt><trkpt lat="41.06885053606825" lon="14.597373083325113"><ele>261.25</ele><time>2026-05-04T11:29:38.998Z</time></trkpt><trkpt lat="41.06888502134285" lon="14.597541121379372"><ele>261.5</ele><time>2026-05-04T11:29:39.998Z</time></trkpt><trkpt lat="41.068916456341675" lon="14.597694497761001"><ele>261.75</ele><time>2026-05-04T11:29:40.998Z</time></trkpt><trkpt lat="41.0689426291701" lon="14.59783245547944"><ele>262.0</ele><time>2026-05-04T11:29:41.998Z</time></trkpt><trkpt lat="41.06896783288025" lon="14.597960246065181"><ele>262.25</ele><time>2026-05-04T11:29:42.998Z</time></trkpt><trkpt lat="41.06900747202339" lon="14.598085224535605"><ele>262.5</ele><time>2026-05-04T11:29:43.998Z</time></trkpt><trkpt lat="41.06904691735213" lon="14.59821063112801"><ele>262.75</ele><time>2026-05-04T11:29:44.998Z</time></trkpt><trkpt lat="41.06910891951705" lon="14.598304371829652"><ele>263.0</ele><time>2026-05-04T11:29:45.998Z</time></trkpt><trkpt lat="41.06896205363604" lon="14.598523091790298"><ele>263.0</ele><time>2026-05-04T11:29:46.998Z</time></trkpt><trkpt lat="41.06891202989904" lon="14.59871991648446"><ele>263.0</ele><time>2026-05-04T11:29:47.998Z</time></trkpt><trkpt lat="41.068857359593984" lon="14.598935873510072"><ele>263.0</ele><time>2026-05-04T11:29:48.998Z</time></trkpt><trkpt lat="41.068800327524414" lon="14.59916245773798"><ele>263.0</ele><time>2026-05-04T11:29:49.998Z</time></trkpt><trkpt lat="41.068737376378" lon="14.59940662582752"><ele>263.0</ele><time>2026-05-04T11:29:50.998Z</time></trkpt><trkpt lat="41.068669524510646" lon="14.599660195035764"><ele>263.0</ele><time>2026-05-04T11:29:51.998Z</time></trkpt><trkpt lat="41.068602296241394" lon="14.59990915979546"><ele>263.33333333333337</ele><time>2026-05-04T11:29:52.998Z</time></trkpt><trkpt lat="41.06853189748774" lon="14.60016986604236"><ele>263.6666666666667</ele><time>2026-05-04T11:29:53.998Z</time></trkpt><trkpt lat="41.068455654941026" lon="14.600452212630467"><ele>264.0</ele><time>2026-05-04T11:29:54.998Z</time></trkpt><trkpt lat="41.06837601526217" lon="14.600747140829519"><ele>264.0</ele><time>2026-05-04T11:29:55.998Z</time></trkpt><trkpt lat="41.06829528625227" lon="14.601043830807985"><ele>264.0</ele><time>2026-05-04T11:29:56.998Z</time></trkpt><trkpt lat="41.06821444860637" lon="14.601340150627236"><ele>263.5</ele><time>2026-05-04T11:29:57.998Z</time></trkpt><trkpt lat="41.068132548487874" lon="14.601645615513895"><ele>263.0</ele><time>2026-05-04T11:29:58.998Z</time></trkpt><trkpt lat="41.06806391412563" lon="14.601970348718215"><ele>263.5</ele><time>2026-05-04T11:29:59.998Z</time></trkpt><trkpt lat="41.06797967165046" lon="14.602283020024553"><ele>264.0</ele><time>2026-05-04T11:30:00.998Z</time></trkpt><trkpt lat="41.06789460412917" lon="14.602605908951585"><ele>264.5</ele><time>2026-05-04T11:30:01.998Z</time></trkpt><trkpt lat="41.06781395130224" lon="14.602932014952778"><ele>265.0</ele><time>2026-05-04T11:30:02.998Z</time></trkpt><trkpt lat="41.06774847218637" lon="14.603264068805407"><ele>265.0</ele><time>2026-05-04T11:30:03.998Z</time></trkpt><trkpt lat="41.06770700647604" lon="14.603594446329717"><ele>265.0</ele><time>2026-05-04T11:30:04.998Z</time></trkpt><trkpt lat="41.067697891219545" lon="14.603936445020542"><ele>266.0</ele><time>2026-05-04T11:30:05.998Z</time></trkpt><trkpt lat="41.06770879373821" lon="14.60428722502606"><ele>267.0</ele><time>2026-05-04T11:30:06.998Z</time></trkpt><trkpt lat="41.0677027097962" lon="14.60464971075972"><ele>267.5</ele><time>2026-05-04T11:30:07.998Z</time></trkpt><trkpt lat="41.06770267469846" lon="14.605006199620282"><ele>268.0</ele><time>2026-05-04T11:30:08.998Z</time></trkpt><trkpt lat="41.06770526484593" lon="14.605372425902148"><ele>268.0</ele><time>2026-05-04T11:30:09.998Z</time></trkpt><trkpt lat="41.06764649915046" lon="14.605724736877907"><ele>268.0</ele><time>2026-05-04T11:30:10.998Z</time></trkpt><trkpt lat="41.06761124274424" lon="14.606060123881123"><ele>268.0</ele><time>2026-05-04T11:30:11.998Z</time></trkpt><trkpt lat="41.06756844627339" lon="14.606376670230091"><ele>268.0</ele><time>2026-05-04T11:30:12.998Z</time></trkpt><trkpt lat="41.067553980302634" lon="14.606682606429123"><ele>268.0</ele><time>2026-05-04T11:30:13.999Z</time></trkpt><trkpt lat="41.06757202437807" lon="14.606968965980771"><ele>268.0</ele><time>2026-05-04T11:30:14.999Z</time></trkpt><trkpt lat="41.06760148618065" lon="14.607212792965093"><ele>268.0</ele><time>2026-05-04T11:30:15.999Z</time></trkpt><trkpt lat="41.067630903855814" lon="14.607429524912021"><ele>268.0</ele><time>2026-05-04T11:30:16.999Z</time></trkpt><trkpt lat="41.0676693223009" lon="14.607614189596411"><ele>268.0</ele><time>2026-05-04T11:30:17.999Z</time></trkpt><trkpt lat="41.067730106115924" lon="14.607774307434969"><ele>268.0</ele><time>2026-05-04T11:30:18.999Z</time></trkpt><trkpt lat="41.06781158579737" lon="14.607897165288296"><ele>268.0</ele><time>2026-05-04T11:30:19.999Z</time></trkpt><trkpt lat="41.067876908429625" lon="14.608005931895653"><ele>268.0</ele><time>2026-05-04T11:30:20.999Z</time></trkpt><trkpt lat="41.06789994704211" lon="14.608116769663566"><ele>268.0</ele><time>2026-05-04T11:30:21.999Z</time></trkpt><trkpt lat="41.06800142709589" lon="14.60809091865284"><ele>268.0</ele><time>2026-05-04T11:30:23.999Z</time></trkpt><trkpt lat="41.06806785114588" lon="14.608127266781844"><ele>268.0</ele><time>2026-05-04T11:30:24.999Z</time></trkpt><trkpt lat="41.06816461918984" lon="14.608095992468959"><ele>268.0</ele><time>2026-05-04T11:30:25.999Z</time></trkpt><trkpt lat="41.06827343334256" lon="14.608158806813183"><ele>268.66666666666663</ele><time>2026-05-04T11:30:26.999Z</time></trkpt><trkpt lat="41.06841917436369" lon="14.608201653781856"><ele>269.3333333333333</ele><time>2026-05-04T11:30:27.999Z</time></trkpt><trkpt lat="41.06858487487623" lon="14.608280013115982"><ele>270.0</ele><time>2026-05-04T11:30:28.999Z</time></trkpt><trkpt lat="41.06873834875515" lon="14.608351565328322"><ele>270.0</ele><time>2026-05-04T11:30:29.999Z</time></trkpt><trkpt lat="41.06891343771495" lon="14.608435609919544"><ele>270.0</ele><time>2026-05-04T11:30:30.999Z</time></trkpt><trkpt lat="41.06909481343659" lon="14.608511723244472"><ele>270.0</ele><time>2026-05-04T11:30:31.999Z</time></trkpt><trkpt lat="41.06927188523764" lon="14.608581182943741"><ele>270.6666666666667</ele><time>2026-05-04T11:30:32.999Z</time></trkpt><trkpt lat="41.0694538528875" lon="14.608658660048386"><ele>271.33333333333337</ele><time>2026-05-04T11:30:33.999Z</time></trkpt><trkpt lat="41.06964069884357" lon="14.608766150588107"><ele>272.0</ele><time>2026-05-04T11:30:34.999Z</time></trkpt><trkpt lat="41.06980502002414" lon="14.60888666416716"><ele>273.6666666666667</ele><time>2026-05-04T11:30:35.999Z</time></trkpt><trkpt lat="41.06996353209929" lon="14.609013229581747"><ele>275.3333333333333</ele><time>2026-05-04T11:30:36.999Z</time></trkpt><trkpt lat="41.07009354978715" lon="14.609149308194946"><ele>277.0</ele><time>2026-05-04T11:30:37.999Z</time></trkpt><trkpt lat="41.0702074277846" lon="14.609305083027971"><ele>277.0</ele><time>2026-05-04T11:30:38.999Z</time></trkpt><trkpt lat="41.07031686936218" lon="14.609486219935096"><ele>277.0</ele><time>2026-05-04T11:30:39.999Z</time></trkpt><trkpt lat="41.070413761279276" lon="14.60969275395559"><ele>277.0</ele><time>2026-05-04T11:30:40.999Z</time></trkpt><trkpt lat="41.07051086768423" lon="14.609899650679425"><ele>277.66666666666663</ele><time>2026-05-04T11:30:41.999Z</time></trkpt><trkpt lat="41.07061853012412" lon="14.610090506308575"><ele>278.3333333333333</ele><time>2026-05-04T11:30:42.999Z</time></trkpt><trkpt lat="41.07074828013576" lon="14.61024955082129"><ele>279.0</ele><time>2026-05-04T11:30:43.999Z</time></trkpt><trkpt lat="41.070890842810215" lon="14.610379666257886"><ele>281.6666666666667</ele><time>2026-05-04T11:30:44.999Z</time></trkpt><trkpt lat="41.071047624842635" lon="14.610472927876238"><ele>284.33333333333337</ele><time>2026-05-04T11:30:45.999Z</time></trkpt><trkpt lat="41.071193378765386" lon="14.610567737445542"><ele>287.0</ele><time>2026-05-04T11:30:46.999Z</time></trkpt><trkpt lat="41.07128777120885" lon="14.610687519179804"><ele>287.0</ele><time>2026-05-04T11:30:47.999Z</time></trkpt><trkpt lat="41.071332025356504" lon="14.610795077241251"><ele>287.0</ele><time>2026-05-04T11:30:48.999Z</time></trkpt><trkpt lat="41.07138207280769" lon="14.61086626187072"><ele>287.0</ele><time>2026-05-04T11:30:49.999Z</time></trkpt><trkpt lat="41.07146195375502" lon="14.610905018943576"><ele>287.0</ele><time>2026-05-04T11:30:50.999Z</time></trkpt><trkpt lat="41.07157863544731" lon="14.61091727201174"><ele>287.0</ele><time>2026-05-04T11:30:51.999Z</time></trkpt><trkpt lat="41.07170211276187" lon="14.610909748824936"><ele>290.0</ele><time>2026-05-04T11:30:52.999Z</time></trkpt><trkpt lat="41.071851809337765" lon="14.610909579057708"><ele>293.0</ele><time>2026-05-04T11:30:53.999Z</time></trkpt><trkpt lat="41.07201035841522" lon="14.61092011832581"><ele>296.0</ele><time>2026-05-04T11:30:54.999Z</time></trkpt><trkpt lat="41.072152665172794" lon="14.6109351468729"><ele>296.0</ele><time>2026-05-04T11:30:55.999Z</time></trkpt><trkpt lat="41.072259175222406" lon="14.610983061271888"><ele>296.0</ele><time>2026-05-04T11:30:56.999Z</time></trkpt><trkpt lat="41.07234621324486" lon="14.611085947127755"><ele>296.0</ele><time>2026-05-04T11:30:57.999Z</time></trkpt><trkpt lat="41.07241990737066" lon="14.61125237655934"><ele>296.0</ele><time>2026-05-04T11:30:58.999Z</time></trkpt><trkpt lat="41.07250180367974" lon="14.611445402281863"><ele>299.6666666666667</ele><time>2026-05-04T11:30:59.999Z</time></trkpt><trkpt lat="41.072599325776594" lon="14.611672582561342"><ele>303.3333333333333</ele><time>2026-05-04T11:31:00.999Z</time></trkpt><trkpt lat="41.07270615991222" lon="14.611907882416865"><ele>307.0</ele><time>2026-05-04T11:31:01.999Z</time></trkpt><trkpt lat="41.072793946090414" lon="14.612128149848818"><ele>307.0</ele><time>2026-05-04T11:31:02.999Z</time></trkpt><trkpt lat="41.072859798950915" lon="14.612374136882087"><ele>307.0</ele><time>2026-05-04T11:31:03.999Z</time></trkpt><trkpt lat="41.072901000871454" lon="14.612618553830963"><ele>307.0</ele><time>2026-05-04T11:31:04.999Z</time></trkpt><trkpt lat="41.07293304678546" lon="14.61283887917847"><ele>306.5</ele><time>2026-05-04T11:31:05.999Z</time></trkpt><trkpt lat="41.072957914521126" lon="14.613036099327825"><ele>306.0</ele><time>2026-05-04T11:31:06.999Z</time></trkpt><trkpt lat="41.07297815590048" lon="14.613223103491652"><ele>305.5</ele><time>2026-05-04T11:31:07.999Z</time></trkpt><trkpt lat="41.07299502423462" lon="14.613391232960838"><ele>305.0</ele><time>2026-05-04T11:31:08.999Z</time></trkpt><trkpt lat="41.073013057307634" lon="14.613565829093856"><ele>304.6666666666667</ele><time>2026-05-04T11:31:09.999Z</time></trkpt><trkpt lat="41.07304379603585" lon="14.613778271429519"><ele>304.3333333333333</ele><time>2026-05-04T11:31:10.999Z</time></trkpt><trkpt lat="41.07307168547922" lon="14.614001638849118"><ele>304.0</ele><time>2026-05-04T11:31:11.999Z</time></trkpt><trkpt lat="41.07309750031137" lon="14.614215654543788"><ele>304.0</ele><time>2026-05-04T11:31:12.999Z</time></trkpt><trkpt lat="41.07313917625009" lon="14.614404137431832"><ele>304.0</ele><time>2026-05-04T11:31:13.999Z</time></trkpt><trkpt lat="41.07318054877894" lon="14.614570046645015"><ele>304.0</ele><time>2026-05-04T11:31:14.999Z</time></trkpt><trkpt lat="41.07323191400072" lon="14.614740855844037"><ele>304.0</ele><time>2026-05-04T11:31:15.999Z</time></trkpt><trkpt lat="41.073290782987335" lon="14.614884046855309"><ele>305.8</ele><time>2026-05-04T11:31:16.999Z</time></trkpt><trkpt lat="41.07335779887087" lon="14.615007712335531"><ele>307.59999999999997</ele><time>2026-05-04T11:31:17.999Z</time></trkpt><trkpt lat="41.07341523686073" lon="14.615114612838417"><ele>309.4</ele><time>2026-05-04T11:31:18.999Z</time></trkpt><trkpt lat="41.07346845143979" lon="14.615209602722897"><ele>311.2</ele><time>2026-05-04T11:31:19.999Z</time></trkpt><trkpt lat="41.07351918308581" lon="14.615294940368896"><ele>313.0</ele><time>2026-05-04T11:31:20.999Z</time></trkpt><trkpt lat="41.07360910832899" lon="14.615383269686948"><ele>313.0</ele><time>2026-05-04T11:31:22.999Z</time></trkpt><trkpt lat="41.073662460615566" lon="14.615434904107211"><ele>313.0</ele><time>2026-05-04T11:31:24.999Z</time></trkpt><trkpt lat="41.0737104835157" lon="14.615499828812444"><ele>313.0</ele><time>2026-05-04T11:31:25.999Z</time></trkpt><trkpt lat="41.07376010778038" lon="14.615570010415558"><ele>313.0</ele><time>2026-05-04T11:31:26.999Z</time></trkpt><trkpt lat="41.073810843632394" lon="14.615658499944852"><ele>313.0</ele><time>2026-05-04T11:31:27.999Z</time></trkpt><trkpt lat="41.07385738737728" lon="14.61575359695976"><ele>313.0</ele><time>2026-05-04T11:31:28.999Z</time></trkpt><trkpt lat="41.0738960929208" lon="14.615861952010858"><ele>313.0</ele><time>2026-05-04T11:31:29.999Z</time></trkpt><trkpt lat="41.07394809879457" lon="14.615978155320771"><ele>313.0</ele><time>2026-05-04T11:31:30.999Z</time></trkpt><trkpt lat="41.07398327639463" lon="14.616096876127989"><ele>313.0</ele><time>2026-05-04T11:31:31.999Z</time></trkpt><trkpt lat="41.07401236909612" lon="14.616230028773767"><ele>313.0</ele><time>2026-05-04T11:31:32.999Z</time></trkpt><trkpt lat="41.07405556574314" lon="14.616370151087134"><ele>313.0</ele><time>2026-05-04T11:31:33.999Z</time></trkpt><trkpt lat="41.07412371906705" lon="14.616491561195401"><ele>315.2</ele><time>2026-05-04T11:31:34.999Z</time></trkpt><trkpt lat="41.07419864541082" lon="14.61658806534526"><ele>317.4</ele><time>2026-05-04T11:31:35.999Z</time></trkpt><trkpt lat="41.07427056258038" lon="14.616683625364477"><ele>319.59999999999997</ele><time>2026-05-04T11:31:36.999Z</time></trkpt><trkpt lat="41.074341852910344" lon="14.61676761495061"><ele>321.8</ele><time>2026-05-04T11:31:37.999Z</time></trkpt><trkpt lat="41.074416374586086" lon="14.61685392807423"><ele>324.0</ele><time>2026-05-04T11:31:38.999Z</time></trkpt><trkpt lat="41.07448727808344" lon="14.616929437192256"><ele>324.2</ele><time>2026-05-04T11:31:39.999Z</time></trkpt><trkpt lat="41.07456124091468" lon="14.617001860213856"><ele>324.4</ele><time>2026-05-04T11:31:40.999Z</time></trkpt><trkpt lat="41.07464293053529" lon="14.617082009520782"><ele>324.6</ele><time>2026-05-04T11:31:41.999Z</time></trkpt><trkpt lat="41.07470644169688" lon="14.617167237364024"><ele>324.8</ele><time>2026-05-04T11:31:42.999Z</time></trkpt><trkpt lat="41.07477369187928" lon="14.617256714141437"><ele>325.0</ele><time>2026-05-04T11:31:43.999Z</time></trkpt><trkpt lat="41.07483626357621" lon="14.617344640944587"><ele>325.0</ele><time>2026-05-04T11:31:44.999Z</time></trkpt><trkpt lat="41.07489791015979" lon="14.617431050401109"><ele>325.0</ele><time>2026-05-04T11:31:45.999Z</time></trkpt><trkpt lat="41.074969044107675" lon="14.617528914357685"><ele>325.0</ele><time>2026-05-04T11:31:46.999Z</time></trkpt><trkpt lat="41.07503636576982" lon="14.61766549343987"><ele>325.0</ele><time>2026-05-04T11:31:47.999Z</time></trkpt><trkpt lat="41.07509577964235" lon="14.617790354339894"><ele>325.0</ele><time>2026-05-04T11:31:48.998Z</time></trkpt><trkpt lat="41.0751041630197" lon="14.617892401807769"><ele>328.0</ele><time>2026-05-04T11:31:49.998Z</time></trkpt><trkpt lat="41.07516525652856" lon="14.617979365207384"><ele>331.0</ele><time>2026-05-04T11:31:50.998Z</time></trkpt><trkpt lat="41.0752160234047" lon="14.61807484712564"><ele>334.0</ele><time>2026-05-04T11:31:51.998Z</time></trkpt><trkpt lat="41.07527782989025" lon="14.618165530455634"><ele>337.0</ele><time>2026-05-04T11:31:52.998Z</time></trkpt><trkpt lat="41.07534209426021" lon="14.618264483240342"><ele>340.0</ele><time>2026-05-04T11:31:53.998Z</time></trkpt><trkpt lat="41.0754059977083" lon="14.618365982021926"><ele>340.0</ele><time>2026-05-04T11:31:54.998Z</time></trkpt><trkpt lat="41.075452747425494" lon="14.618444412975881"><ele>340.0</ele><time>2026-05-04T11:31:55.998Z</time></trkpt><trkpt lat="41.07550486153172" lon="14.61856077081081"><ele>340.0</ele><time>2026-05-04T11:31:57.998Z</time></trkpt><trkpt lat="41.07562875276124" lon="14.618636484848155"><ele>340.0</ele><time>2026-05-04T11:31:59.998Z</time></trkpt><trkpt lat="41.075709064386764" lon="14.618692252312032"><ele>340.0</ele><time>2026-05-04T11:32:00.998Z</time></trkpt><trkpt lat="41.07577947037774" lon="14.618750041455478"><ele>341.3333333333333</ele><time>2026-05-04T11:32:01.998Z</time></trkpt><trkpt lat="41.075834099841856" lon="14.618822273431576"><ele>342.66666666666663</ele><time>2026-05-04T11:32:02.998Z</time></trkpt><trkpt lat="41.07589838724879" lon="14.618885840527138"><ele>344.0</ele><time>2026-05-04T11:32:03.998Z</time></trkpt><trkpt lat="41.07596029041967" lon="14.618943864139032"><ele>345.3333333333333</ele><time>2026-05-04T11:32:04.998Z</time></trkpt><trkpt lat="41.07601215481688" lon="14.619043378913892"><ele>346.6666666666667</ele><time>2026-05-04T11:32:05.998Z</time></trkpt><trkpt lat="41.076102208780824" lon="14.619111914536585"><ele>348.0</ele><time>2026-05-04T11:32:06.998Z</time></trkpt><trkpt lat="41.07620877168473" lon="14.619187964160236"><ele>348.0</ele><time>2026-05-04T11:32:07.998Z</time></trkpt><trkpt lat="41.07629085054682" lon="14.619260436050014"><ele>348.0</ele><time>2026-05-04T11:32:08.998Z</time></trkpt><trkpt lat="41.0763614683959" lon="14.619334187150072"><ele>348.0</ele><time>2026-05-04T11:32:09.998Z</time></trkpt><trkpt lat="41.07639905384175" lon="14.61944247350405"><ele>348.0</ele><time>2026-05-04T11:32:10.998Z</time></trkpt><trkpt lat="41.07644950833466" lon="14.619557124806978"><ele>348.0</ele><time>2026-05-04T11:32:11.998Z</time></trkpt><trkpt lat="41.0765023314822" lon="14.619704275688248"><ele>347.59999999999997</ele><time>2026-05-04T11:32:12.998Z</time></trkpt><trkpt lat="41.07656936748697" lon="14.61984299360725"><ele>347.2</ele><time>2026-05-04T11:32:13.998Z</time></trkpt><trkpt lat="41.076593902888575" lon="14.619956866880342"><ele>346.8</ele><time>2026-05-04T11:32:14.998Z</time></trkpt><trkpt lat="41.076630563685754" lon="14.620049297049066"><ele>346.4</ele><time>2026-05-04T11:32:15.998Z</time></trkpt><trkpt lat="41.076673113115255" lon="14.620154355676194"><ele>346.0</ele><time>2026-05-04T11:32:16.998Z</time></trkpt><trkpt lat="41.0767488398625" lon="14.620248389864113"><ele>349.20000000000005</ele><time>2026-05-04T11:32:17.998Z</time></trkpt><trkpt lat="41.0768385728915" lon="14.620328404746177"><ele>352.40000000000003</ele><time>2026-05-04T11:32:18.998Z</time></trkpt><trkpt lat="41.07691411138615" lon="14.620409003783637"><ele>355.6</ele><time>2026-05-04T11:32:19.999Z</time></trkpt><trkpt lat="41.07696998069777" lon="14.620496754980538"><ele>358.8</ele><time>2026-05-04T11:32:20.999Z</time></trkpt><trkpt lat="41.077051388447416" lon="14.620605127202154"><ele>362.0</ele><time>2026-05-04T11:32:21.999Z</time></trkpt><trkpt lat="41.07717818015298" lon="14.620727486476127"><ele>362.0</ele><time>2026-05-04T11:32:22.999Z</time></trkpt><trkpt lat="41.07732312211618" lon="14.620848255995671"><ele>362.0</ele><time>2026-05-04T11:32:23.999Z</time></trkpt><trkpt lat="41.077481045125836" lon="14.62097667961744"><ele>362.0</ele><time>2026-05-04T11:32:24.999Z</time></trkpt><trkpt lat="41.077652121462606" lon="14.621128952046963"><ele>366.33333333333337</ele><time>2026-05-04T11:32:25.999Z</time></trkpt><trkpt lat="41.077811749168994" lon="14.621299586967334"><ele>370.6666666666667</ele><time>2026-05-04T11:32:26.999Z</time></trkpt><trkpt lat="41.07795462044007" lon="14.621476414275467"><ele>375.0</ele><time>2026-05-04T11:32:27.999Z</time></trkpt><trkpt lat="41.07806313579358" lon="14.621634925831557"><ele>375.0</ele><time>2026-05-04T11:32:28.999Z</time></trkpt><trkpt lat="41.07816801285032" lon="14.621781248830057"><ele>375.0</ele><time>2026-05-04T11:32:29.999Z</time></trkpt><trkpt lat="41.078249388148755" lon="14.621933720161104"><ele>375.0</ele><time>2026-05-04T11:32:30.999Z</time></trkpt><trkpt lat="41.07831934703972" lon="14.622087399086986"><ele>375.0</ele><time>2026-05-04T11:32:31.999Z</time></trkpt><trkpt lat="41.07840628884438" lon="14.622270841323301"><ele>381.33333333333337</ele><time>2026-05-04T11:32:32.999Z</time></trkpt><trkpt lat="41.07851105982778" lon="14.622454312016023"><ele>387.6666666666667</ele><time>2026-05-04T11:32:33.999Z</time></trkpt><trkpt lat="41.07862313097642" lon="14.622637445199201"><ele>394.0</ele><time>2026-05-04T11:32:34.999Z</time></trkpt><trkpt lat="41.078720152167314" lon="14.622812630269221"><ele>392.25</ele><time>2026-05-04T11:32:35.999Z</time></trkpt><trkpt lat="41.07879449484995" lon="14.622977789909054"><ele>390.5</ele><time>2026-05-04T11:32:36.999Z</time></trkpt><trkpt lat="41.078860322616684" lon="14.623145797259046"><ele>388.75</ele><time>2026-05-04T11:32:37.999Z</time></trkpt><trkpt lat="41.078905671656145" lon="14.623337718303079"><ele>387.0</ele><time>2026-05-04T11:32:38.999Z</time></trkpt><trkpt lat="41.078969353525096" lon="14.623550645304597"><ele>386.33333333333337</ele><time>2026-05-04T11:32:39.999Z</time></trkpt><trkpt lat="41.079008875032685" lon="14.623766869161557"><ele>385.6666666666667</ele><time>2026-05-04T11:32:40.999Z</time></trkpt><trkpt lat="41.07904287875208" lon="14.623976949751368"><ele>385.0</ele><time>2026-05-04T11:32:41.999Z</time></trkpt><trkpt lat="41.079058458617496" lon="14.624161150207309"><ele>385.0</ele><time>2026-05-04T11:32:42.999Z</time></trkpt><trkpt lat="41.07905710470195" lon="14.624332245593637"><ele>385.0</ele><time>2026-05-04T11:32:43.999Z</time></trkpt><trkpt lat="41.0790443305216" lon="14.624486529927438"><ele>385.0</ele><time>2026-05-04T11:32:44.999Z</time></trkpt><trkpt lat="41.07905379257889" lon="14.62461163535625"><ele>385.0</ele><time>2026-05-04T11:32:45.999Z</time></trkpt><trkpt lat="41.07909816202897" lon="14.624717885646481"><ele>385.0</ele><time>2026-05-04T11:32:46.999Z</time></trkpt><trkpt lat="41.079176528497875" lon="14.624799942596644"><ele>389.0</ele><time>2026-05-04T11:32:47.999Z</time></trkpt><trkpt lat="41.079266974745686" lon="14.624896439230275"><ele>393.0</ele><time>2026-05-04T11:32:48.999Z</time></trkpt><trkpt lat="41.07935284620684" lon="14.625021986631443"><ele>397.0</ele><time>2026-05-04T11:32:49.999Z</time></trkpt><trkpt lat="41.079424665270565" lon="14.625159733754597"><ele>401.0</ele><time>2026-05-04T11:32:50.999Z</time></trkpt><trkpt lat="41.079459507638305" lon="14.625344261879064"><ele>401.0</ele><time>2026-05-04T11:32:51.999Z</time></trkpt><trkpt lat="41.07951132147596" lon="14.625546894774818"><ele>401.0</ele><time>2026-05-04T11:32:52.999Z</time></trkpt><trkpt lat="41.079548609186496" lon="14.625772149941184"><ele>401.0</ele><time>2026-05-04T11:32:53.999Z</time></trkpt><trkpt lat="41.079591292472166" lon="14.626029736682483"><ele>403.0</ele><time>2026-05-04T11:32:54.999Z</time></trkpt><trkpt lat="41.07963267494077" lon="14.626251692285512"><ele>405.0</ele><time>2026-05-04T11:32:55.999Z</time></trkpt><trkpt lat="41.07967614603777" lon="14.626444985615166"><ele>407.0</ele><time>2026-05-04T11:32:56.999Z</time></trkpt><trkpt lat="41.07970615564601" lon="14.626662432458053"><ele>407.0</ele><time>2026-05-04T11:32:57.999Z</time></trkpt><trkpt lat="41.07976064269497" lon="14.62684117904491"><ele>407.0</ele><time>2026-05-04T11:32:58.999Z</time></trkpt><trkpt lat="41.07981480174036" lon="14.627016443673126"><ele>407.0</ele><time>2026-05-04T11:32:59.999Z</time></trkpt><trkpt lat="41.07986736724416" lon="14.627182257462248"><ele>407.0</ele><time>2026-05-04T11:33:00.999Z</time></trkpt><trkpt lat="41.079932735945434" lon="14.627324326574177"><ele>408.0</ele><time>2026-05-04T11:33:01.999Z</time></trkpt><trkpt lat="41.08000473350652" lon="14.627445107800485"><ele>409.0</ele><time>2026-05-04T11:33:02.999Z</time></trkpt><trkpt lat="41.08008566397866" lon="14.627560071728256"><ele>410.0</ele><time>2026-05-04T11:33:03.999Z</time></trkpt><trkpt lat="41.08016072175788" lon="14.627695946224026"><ele>411.0</ele><time>2026-05-04T11:33:04.999Z</time></trkpt><trkpt lat="41.080220329798415" lon="14.627855586197962"><ele>411.0</ele><time>2026-05-04T11:33:05.999Z</time></trkpt><trkpt lat="41.08028261402462" lon="14.627994239152411"><ele>411.0</ele><time>2026-05-04T11:33:06.999Z</time></trkpt><trkpt lat="41.080342054690675" lon="14.628121279217487"><ele>411.0</ele><time>2026-05-04T11:33:07.999Z</time></trkpt><trkpt lat="41.08039627109074" lon="14.62823367908721"><ele>411.0</ele><time>2026-05-04T11:33:08.999Z</time></trkpt><trkpt lat="41.08046078058719" lon="14.628331499392266"><ele>411.0</ele><time>2026-05-04T11:33:09.999Z</time></trkpt><trkpt lat="41.080544907764185" lon="14.628406986890171"><ele>411.0</ele><time>2026-05-04T11:33:10.999Z</time></trkpt><trkpt lat="41.080608561103595" lon="14.628472681303649"><ele>411.0</ele><time>2026-05-04T11:33:11.999Z</time></trkpt><trkpt lat="41.08061531519431" lon="14.62857363588814"><ele>411.0</ele><time>2026-05-04T11:33:12.999Z</time></trkpt><trkpt lat="41.08058684626868" lon="14.62865702877521"><ele>411.0</ele><time>2026-05-04T11:33:13.999Z</time></trkpt><trkpt lat="41.080542000826284" lon="14.628742257506508"><ele>411.0</ele><time>2026-05-04T11:33:14.999Z</time></trkpt><trkpt lat="41.080493135165895" lon="14.628886758169392"><ele>411.0</ele><time>2026-05-04T11:33:15.999Z</time></trkpt><trkpt lat="41.0804554034856" lon="14.629053417730352"><ele>411.8</ele><time>2026-05-04T11:33:16.999Z</time></trkpt><trkpt lat="41.080443374925224" lon="14.629198414850645"><ele>412.6</ele><time>2026-05-04T11:33:17.999Z</time></trkpt><trkpt lat="41.08047716756348" lon="14.629350914070846"><ele>413.4</ele><time>2026-05-04T11:33:18.999Z</time></trkpt><trkpt lat="41.080498890224554" lon="14.629491660836232"><ele>414.2</ele><time>2026-05-04T11:33:19.999Z</time></trkpt><trkpt lat="41.080554892533925" lon="14.629612396596093"><ele>415.0</ele><time>2026-05-04T11:33:20.999Z</time></trkpt><trkpt lat="41.080611715173156" lon="14.629697386909834"><ele>415.6</ele><time>2026-05-04T11:33:21.999Z</time></trkpt><trkpt lat="41.08065548985264" lon="14.629761606964895"><ele>416.2</ele><time>2026-05-04T11:33:22.999Z</time></trkpt><trkpt lat="41.080695369395926" lon="14.629901200868165"><ele>416.79999999999995</ele><time>2026-05-04T11:33:24.999Z</time></trkpt><trkpt lat="41.080662084860094" lon="14.630040090928425"><ele>417.4</ele><time>2026-05-04T11:33:26.999Z</time></trkpt><trkpt lat="41.08061304328208" lon="14.630168020957818"><ele>418.0</ele><time>2026-05-04T11:33:28.999Z</time></trkpt><trkpt lat="41.0805541286405" lon="14.630249342884055"><ele>418.00000000000006</ele><time>2026-05-04T11:33:29.999Z</time></trkpt><trkpt lat="41.08048353752833" lon="14.630332114695149"><ele>418.0</ele><time>2026-05-04T11:33:30.999Z</time></trkpt><trkpt lat="41.080409133849024" lon="14.630401523008828"><ele>418.0</ele><time>2026-05-04T11:33:31.999Z</time></trkpt><trkpt lat="41.08033649171476" lon="14.630467912220473"><ele>418.0</ele><time>2026-05-04T11:33:32.999Z</time></trkpt><trkpt lat="41.08028939135874" lon="14.630550752165533"><ele>418.00000000000006</ele><time>2026-05-04T11:33:33.999Z</time></trkpt><trkpt lat="41.08023974464949" lon="14.630608462942265"><ele>418.0</ele><time>2026-05-04T11:33:34.999Z</time></trkpt><trkpt lat="41.0801767488579" lon="14.630674029260467"><ele>418.0</ele><time>2026-05-04T11:33:35.999Z</time></trkpt><trkpt lat="41.08012919497238" lon="14.63074900927564"><ele>418.0</ele><time>2026-05-04T11:33:36.999Z</time></trkpt><trkpt lat="41.080078888021" lon="14.630825864629037"><ele>418.0</ele><time>2026-05-04T11:33:37.999Z</time></trkpt><trkpt lat="41.08002381553788" lon="14.630906678059803"><ele>418.0</ele><time>2026-05-04T11:33:38.999Z</time></trkpt><trkpt lat="41.080001100859924" lon="14.631003261019314"><ele>418.0</ele><time>2026-05-04T11:33:39.999Z</time></trkpt><trkpt lat="41.07997656718407" lon="14.631199420275864"><ele>415.0</ele><time>2026-05-04T11:33:41.999Z</time></trkpt><trkpt lat="41.08004226626032" lon="14.631554009082073"><ele>412.0</ele><time>2026-05-04T11:33:43.999Z</time></trkpt><trkpt lat="41.080085461313566" lon="14.631712397165336"><ele>409.0</ele><time>2026-05-04T11:33:44.999Z</time></trkpt><trkpt lat="41.08012751402238" lon="14.631854753779118"><ele>406.5</ele><time>2026-05-04T11:33:45.999Z</time></trkpt><trkpt lat="41.08018759721878" lon="14.631982143620627"><ele>404.0</ele><time>2026-05-04T11:33:46.999Z</time></trkpt><trkpt lat="41.08024800654419" lon="14.632110826044146"><ele>401.5</ele><time>2026-05-04T11:33:47.999Z</time></trkpt><trkpt lat="41.08029189989927" lon="14.632268143125897"><ele>399.0</ele><time>2026-05-04T11:33:48.999Z</time></trkpt><trkpt lat="41.08034310946213" lon="14.632425633593042"><ele>399.0</ele><time>2026-05-04T11:33:49.999Z</time></trkpt><trkpt lat="41.0804058716011" lon="14.632571130192492"><ele>399.0</ele><time>2026-05-04T11:33:50.999Z</time></trkpt><trkpt lat="41.08045283817124" lon="14.632709387683168"><ele>399.0</ele><time>2026-05-04T11:33:51.999Z</time></trkpt><trkpt lat="41.08050546237639" lon="14.6328326006985"><ele>399.0</ele><time>2026-05-04T11:33:52.999Z</time></trkpt><trkpt lat="41.08057422098165" lon="14.632993009474445"><ele>398.75</ele><time>2026-05-04T11:33:53.999Z</time></trkpt><trkpt lat="41.0806340720143" lon="14.633143094700126"><ele>398.5</ele><time>2026-05-04T11:33:54.999Z</time></trkpt><trkpt lat="41.08070835215611" lon="14.63329307802757"><ele>398.25</ele><time>2026-05-04T11:33:55.999Z</time></trkpt><trkpt lat="41.08078715802496" lon="14.633437935167347"><ele>398.0</ele><time>2026-05-04T11:33:56.999Z</time></trkpt><trkpt lat="41.08087080179404" lon="14.633578227821916"><ele>395.79999999999995</ele><time>2026-05-04T11:33:57.999Z</time></trkpt><trkpt lat="41.08092999464221" lon="14.633701066245106"><ele>393.6</ele><time>2026-05-04T11:33:58.999Z</time></trkpt><trkpt lat="41.08098888728363" lon="14.633812116587906"><ele>391.4</ele><time>2026-05-04T11:33:59.999Z</time></trkpt><trkpt lat="41.08104670887446" lon="14.633933924686819"><ele>389.20000000000005</ele><time>2026-05-04T11:34:00.999Z</time></trkpt><trkpt lat="41.08109621494015" lon="14.634057971852204"><ele>387.0</ele><time>2026-05-04T11:34:01.999Z</time></trkpt><trkpt lat="41.081131910514074" lon="14.634180522240584"><ele>387.0</ele><time>2026-05-04T11:34:02.999Z</time></trkpt><trkpt lat="41.08116251783604" lon="14.634312438984514"><ele>387.0</ele><time>2026-05-04T11:34:03.999Z</time></trkpt><trkpt lat="41.08119047227379" lon="14.634441771263752"><ele>387.0</ele><time>2026-05-04T11:34:04.999Z</time></trkpt><trkpt lat="41.0812014770639" lon="14.634563329535004"><ele>387.0</ele><time>2026-05-04T11:34:05.999Z</time></trkpt><trkpt lat="41.08120462180806" lon="14.634692679850307"><ele>387.0</ele><time>2026-05-04T11:34:06.999Z</time></trkpt><trkpt lat="41.081209734413235" lon="14.634830364418969"><ele>386.0</ele><time>2026-05-04T11:34:07.999Z</time></trkpt><trkpt lat="41.08121851762133" lon="14.634917653184269"><ele>385.0</ele><time>2026-05-04T11:34:08.999Z</time></trkpt><trkpt lat="41.0812359691439" lon="14.634998956421471"><ele>384.0</ele><time>2026-05-04T11:34:09.999Z</time></trkpt><trkpt lat="41.08129095014372" lon="14.635100370794824"><ele>383.0</ele><time>2026-05-04T11:34:11.999Z</time></trkpt><trkpt lat="41.08138162576485" lon="14.63515704575257"><ele>382.0</ele><time>2026-05-04T11:34:12.999Z</time></trkpt><trkpt lat="41.081417782204014" lon="14.635278825346562"><ele>381.0</ele><time>2026-05-04T11:34:14.999Z</time></trkpt><trkpt lat="41.081379346690326" lon="14.63537964221653"><ele>381.0</ele><time>2026-05-04T11:34:15.999Z</time></trkpt><trkpt lat="41.08130004486903" lon="14.635451897610887"><ele>381.0</ele><time>2026-05-04T11:34:16.999Z</time></trkpt><trkpt lat="41.081248565674784" lon="14.635552862604158"><ele>381.0</ele><time>2026-05-04T11:34:17.999Z</time></trkpt><trkpt lat="41.08122536838019" lon="14.635645212124984"><ele>381.0</ele><time>2026-05-04T11:34:18.999Z</time></trkpt><trkpt lat="41.08118324480355" lon="14.635727612939363"><ele>381.0</ele><time>2026-05-04T11:34:19.999Z</time></trkpt><trkpt lat="41.08113413682792" lon="14.635826548126342"><ele>381.0</ele><time>2026-05-04T11:34:21.999Z</time></trkpt><trkpt lat="41.08122905526813" lon="14.635879794632327"><ele>381.0</ele><time>2026-05-04T11:34:29.999Z</time></trkpt><trkpt lat="41.08131130813967" lon="14.635855301253073"><ele>381.0</ele><time>2026-05-04T11:34:30.999Z</time></trkpt><trkpt lat="41.08143149655498" lon="14.635787667154423"><ele>381.0</ele><time>2026-05-04T11:34:31.999Z</time></trkpt><trkpt lat="41.08154363987996" lon="14.635740058786077"><ele>381.0</ele><time>2026-05-04T11:34:32.999Z</time></trkpt><trkpt lat="41.08163819064609" lon="14.63575055072783"><ele>381.0</ele><time>2026-05-04T11:34:33.999Z</time></trkpt><trkpt lat="41.081723831767995" lon="14.63577056945565"><ele>382.75</ele><time>2026-05-04T11:34:34.999Z</time></trkpt><trkpt lat="41.08178066469033" lon="14.636002375865722"><ele>384.5</ele><time>2026-05-04T11:34:36.999Z</time></trkpt><trkpt lat="41.08182338426824" lon="14.636127330173238"><ele>386.25</ele><time>2026-05-04T11:34:37.999Z</time></trkpt><trkpt lat="41.08189401287891" lon="14.636270282013927"><ele>388.0</ele><time>2026-05-04T11:34:38.999Z</time></trkpt><trkpt lat="41.0819749122893" lon="14.636392073788981"><ele>389.5</ele><time>2026-05-04T11:34:39.999Z</time></trkpt><trkpt lat="41.082031957229724" lon="14.636534701400752"><ele>391.0</ele><time>2026-05-04T11:34:40.999Z</time></trkpt><trkpt lat="41.0821051746577" lon="14.636673840411865"><ele>392.5</ele><time>2026-05-04T11:34:41.999Z</time></trkpt><trkpt lat="41.082203894379916" lon="14.636784473019517"><ele>394.0</ele><time>2026-05-04T11:34:42.999Z</time></trkpt><trkpt lat="41.08230027196541" lon="14.63689319162953"><ele>394.75</ele><time>2026-05-04T11:34:43.999Z</time></trkpt><trkpt lat="41.08242168887893" lon="14.636990926878669"><ele>395.5</ele><time>2026-05-04T11:34:44.999Z</time></trkpt><trkpt lat="41.08253273228431" lon="14.637090276900892"><ele>396.25</ele><time>2026-05-04T11:34:45.999Z</time></trkpt><trkpt lat="41.08261960627962" lon="14.637189270742624"><ele>397.0</ele><time>2026-05-04T11:34:46.999Z</time></trkpt><trkpt lat="41.082650358879654" lon="14.63731179655187"><ele>399.0</ele><time>2026-05-04T11:34:47.999Z</time></trkpt><trkpt lat="41.08268897088031" lon="14.637458796466472"><ele>401.0</ele><time>2026-05-04T11:34:48.999Z</time></trkpt><trkpt lat="41.08275033468583" lon="14.637576998499265"><ele>403.0</ele><time>2026-05-04T11:34:49.999Z</time></trkpt><trkpt lat="41.08286313553277" lon="14.637657887013743"><ele>405.0</ele><time>2026-05-04T11:34:50.999Z</time></trkpt><trkpt lat="41.08300108576344" lon="14.637748340548592"><ele>405.66666666666663</ele><time>2026-05-04T11:34:51.999Z</time></trkpt><trkpt lat="41.08314317854409" lon="14.6379249618331"><ele>406.3333333333333</ele><time>2026-05-04T11:34:52.999Z</time></trkpt><trkpt lat="41.08329527266497" lon="14.63807320100909"><ele>407.0</ele><time>2026-05-04T11:34:53.999Z</time></trkpt><trkpt lat="41.083418676337196" lon="14.638203101740954"><ele>409.20000000000005</ele><time>2026-05-04T11:34:54.999Z</time></trkpt><trkpt lat="41.08346894721526" lon="14.638328483829083"><ele>411.4</ele><time>2026-05-04T11:34:55.999Z</time></trkpt><trkpt lat="41.08349364291273" lon="14.638407546483746"><ele>413.6</ele><time>2026-05-04T11:34:56.999Z</time></trkpt><trkpt lat="41.083597022725975" lon="14.638498104508653"><ele>415.79999999999995</ele><time>2026-05-04T11:34:58.999Z</time></trkpt><trkpt lat="41.08370378860424" lon="14.638573986377246"><ele>418.0</ele><time>2026-05-04T11:34:59.999Z</time></trkpt><trkpt lat="41.08382138307157" lon="14.638658870561533"><ele>418.0</ele><time>2026-05-04T11:35:00.999Z</time></trkpt><trkpt lat="41.08390066959435" lon="14.638739020813697"><ele>418.0</ele><time>2026-05-04T11:35:01.999Z</time></trkpt><trkpt lat="41.08399652082454" lon="14.63879830527638"><ele>418.0</ele><time>2026-05-04T11:35:02.999Z</time></trkpt><trkpt lat="41.08411658104106" lon="14.638747373692441"><ele>418.0</ele><time>2026-05-04T11:35:03.999Z</time></trkpt><trkpt lat="41.084253229207455" lon="14.638681185919292"><ele>423.0</ele><time>2026-05-04T11:35:04.999Z</time></trkpt><trkpt lat="41.08440866569922" lon="14.638683974204907"><ele>428.0</ele><time>2026-05-04T11:35:05.999Z</time></trkpt><trkpt lat="41.08459684252788" lon="14.638693601481446"><ele>433.0</ele><time>2026-05-04T11:35:06.999Z</time></trkpt><trkpt lat="41.08479832092756" lon="14.638700014990063"><ele>436.6666666666667</ele><time>2026-05-04T11:35:07.999Z</time></trkpt><trkpt lat="41.08499707917992" lon="14.638661726691756"><ele>440.33333333333337</ele><time>2026-05-04T11:35:08.999Z</time></trkpt><trkpt lat="41.085208230560596" lon="14.638610778128395"><ele>444.0</ele><time>2026-05-04T11:35:09.999Z</time></trkpt><trkpt lat="41.08540181244179" lon="14.638557887919434"><ele>444.0</ele><time>2026-05-04T11:35:10.999Z</time></trkpt><trkpt lat="41.08556524694529" lon="14.638537476741117"><ele>444.0</ele><time>2026-05-04T11:35:11.999Z</time></trkpt><trkpt lat="41.08569868404521" lon="14.638549219567457"><ele>444.0</ele><time>2026-05-04T11:35:12.999Z</time></trkpt><trkpt lat="41.08583074472213" lon="14.63864589259728"><ele>444.0</ele><time>2026-05-04T11:35:13.999Z</time></trkpt><trkpt lat="41.08599596904666" lon="14.638747350979726"><ele>447.66666666666663</ele><time>2026-05-04T11:35:14.999Z</time></trkpt><trkpt lat="41.08620226948687" lon="14.638831121234324"><ele>451.3333333333333</ele><time>2026-05-04T11:35:15.999Z</time></trkpt><trkpt lat="41.08641645320995" lon="14.638894592330116"><ele>455.0</ele><time>2026-05-04T11:35:16.999Z</time></trkpt><trkpt lat="41.08666234607406" lon="14.638948961333291"><ele>458.0</ele><time>2026-05-04T11:35:17.999Z</time></trkpt><trkpt lat="41.08687143705629" lon="14.639014020302724"><ele>461.0</ele><time>2026-05-04T11:35:18.999Z</time></trkpt><trkpt lat="41.08705226527882" lon="14.639051530360486"><ele>464.0</ele><time>2026-05-04T11:35:19.999Z</time></trkpt><trkpt lat="41.087248496844474" lon="14.639030340860188"><ele>467.66666666666663</ele><time>2026-05-04T11:35:20.999Z</time></trkpt><trkpt lat="41.08746795263502" lon="14.638991620345339"><ele>471.33333333333337</ele><time>2026-05-04T11:35:21.999Z</time></trkpt><trkpt lat="41.087676979381285" lon="14.638967540148085"><ele>475.0</ele><time>2026-05-04T11:35:22.999Z</time></trkpt><trkpt lat="41.08786200071012" lon="14.63900389544081"><ele>475.0</ele><time>2026-05-04T11:35:23.999Z</time></trkpt><trkpt lat="41.08805071832208" lon="14.639045968653662"><ele>475.0</ele><time>2026-05-04T11:35:24.999Z</time></trkpt><trkpt lat="41.088276063789024" lon="14.639080522402198"><ele>475.0</ele><time>2026-05-04T11:35:25.999Z</time></trkpt><trkpt lat="41.08847662408322" lon="14.639122741612038"><ele>476.6666666666667</ele><time>2026-05-04T11:35:26.999Z</time></trkpt><trkpt lat="41.08864963489613" lon="14.639221125984902"><ele>478.33333333333337</ele><time>2026-05-04T11:35:27.999Z</time></trkpt><trkpt lat="41.08878634516097" lon="14.639352959647239"><ele>480.0</ele><time>2026-05-04T11:35:28.999Z</time></trkpt><trkpt lat="41.08892660009256" lon="14.639487860416097"><ele>480.0</ele><time>2026-05-04T11:35:29.999Z</time></trkpt><trkpt lat="41.08906754622824" lon="14.639586173037792"><ele>480.0</ele><time>2026-05-04T11:35:30.999Z</time></trkpt><trkpt lat="41.08920286065634" lon="14.63962413717754"><ele>480.0</ele><time>2026-05-04T11:35:31.999Z</time></trkpt><trkpt lat="41.08936552524878" lon="14.639596274360112"><ele>483.66666666666663</ele><time>2026-05-04T11:35:32.999Z</time></trkpt><trkpt lat="41.089511171490926" lon="14.639522998199647"><ele>487.3333333333333</ele><time>2026-05-04T11:35:33.999Z</time></trkpt><trkpt lat="41.089685263632056" lon="14.639538037831803"><ele>491.0</ele><time>2026-05-04T11:35:34.999Z</time></trkpt><trkpt lat="41.08988410989643" lon="14.63959862479263"><ele>495.0</ele><time>2026-05-04T11:35:35.999Z</time></trkpt><trkpt lat="41.090126863793564" lon="14.639681918071084"><ele>499.0</ele><time>2026-05-04T11:35:36.999Z</time></trkpt><trkpt lat="41.09037923861673" lon="14.639740500043848"><ele>499.0</ele><time>2026-05-04T11:35:37.999Z</time></trkpt><trkpt lat="41.09063958639643" lon="14.63977649739745"><ele>499.0</ele><time>2026-05-04T11:35:38.999Z</time></trkpt><trkpt lat="41.09084734123777" lon="14.639809717695288"><ele>500.5</ele><time>2026-05-04T11:35:39.999Z</time></trkpt><trkpt lat="41.09101288687126" lon="14.639897203343068"><ele>502.0</ele><time>2026-05-04T11:35:40.999Z</time></trkpt><trkpt lat="41.09115189089481" lon="14.639961085959838"><ele>503.5</ele><time>2026-05-04T11:35:41.999Z</time></trkpt><trkpt lat="41.09126135217838" lon="14.640007338498899"><ele>505.0</ele><time>2026-05-04T11:35:42.999Z</time></trkpt><trkpt lat="41.091402064684196" lon="14.63997509463332"><ele>505.0</ele><time>2026-05-04T11:35:43.999Z</time></trkpt><trkpt lat="41.09157613232424" lon="14.63989773518611"><ele>505.0</ele><time>2026-05-04T11:35:44.999Z</time></trkpt><trkpt lat="41.091744997666645" lon="14.639864322924545"><ele>505.0</ele><time>2026-05-04T11:35:45.999Z</time></trkpt><trkpt lat="41.091905787645075" lon="14.639874278326083"><ele>506.33333333333337</ele><time>2026-05-04T11:35:46.999Z</time></trkpt><trkpt lat="41.0920653359388" lon="14.639928517843419"><ele>507.66666666666663</ele><time>2026-05-04T11:35:47.999Z</time></trkpt><trkpt lat="41.092276650398034" lon="14.639926093955694"><ele>509.0</ele><time>2026-05-04T11:35:48.999Z</time></trkpt><trkpt lat="41.09248888984852" lon="14.63990648702029"><ele>510.5</ele><time>2026-05-04T11:35:49.999Z</time></trkpt><trkpt lat="41.09275138073091" lon="14.639881177804227"><ele>512.0</ele><time>2026-05-04T11:35:50.999Z</time></trkpt><trkpt lat="41.093026967649244" lon="14.639860941262835"><ele>515.0</ele><time>2026-05-04T11:35:51.999Z</time></trkpt><trkpt lat="41.09328376516462" lon="14.639847957563676"><ele>518.0</ele><time>2026-05-04T11:35:52.999Z</time></trkpt><trkpt lat="41.093486964863764" lon="14.639807014939251"><ele>518.0</ele><time>2026-05-04T11:35:53.999Z</time></trkpt><trkpt lat="41.09365563640106" lon="14.63981673521048"><ele>518.0</ele><time>2026-05-04T11:35:54.999Z</time></trkpt><trkpt lat="41.09377404845111" lon="14.63980723887881"><ele>518.0</ele><time>2026-05-04T11:35:55.999Z</time></trkpt><trkpt lat="41.0938749898967" lon="14.639861731107775"><ele>518.0</ele><time>2026-05-04T11:35:56.999Z</time></trkpt><trkpt lat="41.09391846447472" lon="14.640008930911042"><ele>518.0</ele><time>2026-05-04T11:35:57.999Z</time></trkpt><trkpt lat="41.09396002772933" lon="14.640196958027495"><ele>518.0</ele><time>2026-05-04T11:35:58.999Z</time></trkpt><trkpt lat="41.09401712431898" lon="14.640424353301116"><ele>518.0</ele><time>2026-05-04T11:35:59.999Z</time></trkpt><trkpt lat="41.094072639318384" lon="14.640657627219815"><ele>520.5</ele><time>2026-05-04T11:36:00.999Z</time></trkpt><trkpt lat="41.09411037973586" lon="14.64084497216492"><ele>523.0</ele><time>2026-05-04T11:36:01.999Z</time></trkpt><trkpt lat="41.09415835576843" lon="14.640998269312934"><ele>525.5</ele><time>2026-05-04T11:36:02.999Z</time></trkpt><trkpt lat="41.094194809047806" lon="14.641113960607413"><ele>528.0</ele><time>2026-05-04T11:36:03.999Z</time></trkpt><trkpt lat="41.094281463893466" lon="14.64115093638121"><ele>528.75</ele><time>2026-05-04T11:36:04.999Z</time></trkpt><trkpt lat="41.09439170736797" lon="14.641127908038303"><ele>529.5</ele><time>2026-05-04T11:36:05.999Z</time></trkpt><trkpt lat="41.094506863790095" lon="14.640996920415452"><ele>530.25</ele><time>2026-05-04T11:36:06.999Z</time></trkpt><trkpt lat="41.094615538616615" lon="14.640827012817748"><ele>531.0</ele><time>2026-05-04T11:36:07.999Z</time></trkpt><trkpt lat="41.09477091254089" lon="14.640704783396792"><ele>538.0</ele><time>2026-05-04T11:36:08.999Z</time></trkpt><trkpt lat="41.09496082648875" lon="14.640576546403011"><ele>545.0</ele><time>2026-05-04T11:36:09.999Z</time></trkpt><trkpt lat="41.09518067805367" lon="14.640444195210641"><ele>542.5</ele><time>2026-05-04T11:36:10.999Z</time></trkpt><trkpt lat="41.09541239214505" lon="14.640280752855332"><ele>540.0</ele><time>2026-05-04T11:36:11.999Z</time></trkpt><trkpt lat="41.095645681492144" lon="14.640128416821481"><ele>545.5</ele><time>2026-05-04T11:36:12.999Z</time></trkpt><trkpt lat="41.09591233403513" lon="14.639994360130425"><ele>551.0</ele><time>2026-05-04T11:36:13.999Z</time></trkpt><trkpt lat="41.096401670342516" lon="14.639763613789206"><ele>551.0</ele><time>2026-05-04T11:36:15.999Z</time></trkpt><trkpt lat="41.096584247396834" lon="14.639683887524177"><ele>551.0</ele><time>2026-05-04T11:36:16.999Z</time></trkpt><trkpt lat="41.09672642745301" lon="14.639592869711885"><ele>551.0</ele><time>2026-05-04T11:36:17.999Z</time></trkpt><trkpt lat="41.09684230713512" lon="14.639588137040159"><ele>553.0</ele><time>2026-05-04T11:36:18.999Z</time></trkpt><trkpt lat="41.09691856270718" lon="14.639590617884528"><ele>555.0</ele><time>2026-05-04T11:36:19.999Z</time></trkpt><trkpt lat="41.096954476703004" lon="14.639672431082378"><ele>557.0</ele><time>2026-05-04T11:36:20.999Z</time></trkpt><trkpt lat="41.096974318140795" lon="14.63977172287819"><ele>559.0</ele><time>2026-05-04T11:36:21.999Z</time></trkpt><trkpt lat="41.0969609214908" lon="14.639877927141855"><ele>561.0</ele><time>2026-05-04T11:36:22.999Z</time></trkpt><trkpt lat="41.096962743175624" lon="14.639987637397837"><ele>563.0</ele><time>2026-05-04T11:36:23.999Z</time></trkpt><trkpt lat="41.09695671402153" lon="14.640090628876788"><ele>563.0</ele><time>2026-05-04T11:36:24.999Z</time></trkpt><trkpt lat="41.09693709324979" lon="14.640194677936034"><ele>563.0</ele><time>2026-05-04T11:36:25.999Z</time></trkpt><trkpt lat="41.0968928169664" lon="14.640280834108113"><ele>563.0</ele><time>2026-05-04T11:36:26.999Z</time></trkpt><trkpt lat="41.09682596222663" lon="14.640345323126288"><ele>563.0</ele><time>2026-05-04T11:36:27.999Z</time></trkpt><trkpt lat="41.096759076428086" lon="14.64041026260094"><ele>563.0</ele><time>2026-05-04T11:36:28.999Z</time></trkpt><trkpt lat="41.096714637080076" lon="14.640480222701417"><ele>563.0</ele><time>2026-05-04T11:36:29.999Z</time></trkpt><trkpt lat="41.09669735764223" lon="14.640564362663815"><ele>564.4</ele><time>2026-05-04T11:36:30.999Z</time></trkpt><trkpt lat="41.096707513972355" lon="14.640661664963107"><ele>565.8</ele><time>2026-05-04T11:36:31.999Z</time></trkpt><trkpt lat="41.096755724798555" lon="14.64074175584631"><ele>567.2</ele><time>2026-05-04T11:36:32.999Z</time></trkpt><trkpt lat="41.09684032067586" lon="14.640773491443491"><ele>568.6</ele><time>2026-05-04T11:36:33.999Z</time></trkpt><trkpt lat="41.09695509862384" lon="14.640812186416438"><ele>570.0</ele><time>2026-05-04T11:36:34.999Z</time></trkpt><trkpt lat="41.097056596291175" lon="14.640825951296966"><ele>570.0</ele><time>2026-05-04T11:36:35.999Z</time></trkpt><trkpt lat="41.09713663103338" lon="14.64081913022908"><ele>570.0</ele><time>2026-05-04T11:36:36.999Z</time></trkpt><trkpt lat="41.09720225466142" lon="14.640840172533755"><ele>570.0</ele><time>2026-05-04T11:36:37.999Z</time></trkpt><trkpt lat="41.09728855383992" lon="14.640870603050958"><ele>570.0</ele><time>2026-05-04T11:36:39.999Z</time></trkpt><trkpt lat="41.09737285701857" lon="14.640903824507166"><ele>570.0</ele><time>2026-05-04T11:36:41.999Z</time></trkpt><trkpt lat="41.09743825714355" lon="14.640928626581347"><ele>570.0</ele><time>2026-05-04T11:36:42.999Z</time></trkpt><trkpt lat="41.0975243680634" lon="14.640965566993046"><ele>571.75</ele><time>2026-05-04T11:36:43.999Z</time></trkpt><trkpt lat="41.09763396368528" lon="14.64089630698526"><ele>573.5</ele><time>2026-05-04T11:36:44.999Z</time></trkpt><trkpt lat="41.09773873432886" lon="14.640879027596924"><ele>575.25</ele><time>2026-05-04T11:36:45.999Z</time></trkpt><trkpt lat="41.097861132772444" lon="14.640855072599802"><ele>577.0</ele><time>2026-05-04T11:36:46.999Z</time></trkpt><trkpt lat="41.0980179191231" lon="14.640836465292672"><ele>577.0</ele><time>2026-05-04T11:36:47.999Z</time></trkpt><trkpt lat="41.09817782006463" lon="14.640809116619968"><ele>577.0</ele><time>2026-05-04T11:36:48.999Z</time></trkpt><trkpt lat="41.09834939997797" lon="14.64077738887386"><ele>577.0</ele><time>2026-05-04T11:36:49.999Z</time></trkpt><trkpt lat="41.098532197321674" lon="14.640740138946894"><ele>577.3333333333334</ele><time>2026-05-04T11:36:50.999Z</time></trkpt><trkpt lat="41.098698229840835" lon="14.640705961850285"><ele>577.6666666666666</ele><time>2026-05-04T11:36:51.999Z</time></trkpt><trkpt lat="41.09884412947623" lon="14.640667495298535"><ele>578.0</ele><time>2026-05-04T11:36:52.999Z</time></trkpt><trkpt lat="41.098985998768164" lon="14.640606110926749"><ele>577.0</ele><time>2026-05-04T11:36:53.999Z</time></trkpt><trkpt lat="41.09912873069153" lon="14.640483297979333"><ele>576.0</ele><time>2026-05-04T11:36:54.999Z</time></trkpt><trkpt lat="41.09928873431492" lon="14.640289276867922"><ele>575.0</ele><time>2026-05-04T11:36:55.999Z</time></trkpt><trkpt lat="41.09947587517774" lon="14.640039012775967"><ele>580.0</ele><time>2026-05-04T11:36:56.999Z</time></trkpt><trkpt lat="41.09966844844515" lon="14.639780919165426"><ele>585.0</ele><time>2026-05-04T11:36:58Z</time></trkpt><trkpt lat="41.09985391159129" lon="14.639535421059358"><ele>586.0</ele><time>2026-05-04T11:36:59Z</time></trkpt><trkpt lat="41.09997948303772" lon="14.63936532475721"><ele>587.0</ele><time>2026-05-04T11:37:00Z</time></trkpt><trkpt lat="41.1001276069432" lon="14.639269642546758"><ele>588.0</ele><time>2026-05-04T11:37:01Z</time></trkpt><trkpt lat="41.10028250145473" lon="14.639199379589359"><ele>588.0</ele><time>2026-05-04T11:37:02Z</time></trkpt><trkpt lat="41.100441849280365" lon="14.639185830409321"><ele>588.0</ele><time>2026-05-04T11:37:03Z</time></trkpt><trkpt lat="41.10059579264336" lon="14.63923191785534"><ele>588.0</ele><time>2026-05-04T11:37:04Z</time></trkpt><trkpt lat="41.100756828190285" lon="14.639321771513286"><ele>588.6666666666666</ele><time>2026-05-04T11:37:05Z</time></trkpt><trkpt lat="41.100879044674926" lon="14.639459279922333"><ele>589.3333333333333</ele><time>2026-05-04T11:37:06Z</time></trkpt><trkpt lat="41.10095211063652" lon="14.639631287610051"><ele>590.0</ele><time>2026-05-04T11:37:07Z</time></trkpt><trkpt lat="41.10101318849081" lon="14.639829482567517"><ele>588.3333333333333</ele><time>2026-05-04T11:37:08Z</time></trkpt><trkpt lat="41.10104742983175" lon="14.640064302049216"><ele>586.6666666666666</ele><time>2026-05-04T11:37:09Z</time></trkpt><trkpt lat="41.10105760032434" lon="14.64030000733688"><ele>585.0</ele><time>2026-05-04T11:37:10Z</time></trkpt><trkpt lat="41.10095418653952" lon="14.640547930416504"><ele>585.0</ele><time>2026-05-04T11:37:11Z</time></trkpt><trkpt lat="41.100855997453394" lon="14.640779609162466"><ele>585.0</ele><time>2026-05-04T11:37:12Z</time></trkpt><trkpt lat="41.10078407699745" lon="14.640975405373407"><ele>585.0</ele><time>2026-05-04T11:37:13Z</time></trkpt><trkpt lat="41.10075963729711" lon="14.641148624026329"><ele>583.25</ele><time>2026-05-04T11:37:14Z</time></trkpt><trkpt lat="41.1007786473295" lon="14.641315370346865"><ele>581.5</ele><time>2026-05-04T11:37:15Z</time></trkpt><trkpt lat="41.10085626549224" lon="14.641450152663973"><ele>579.75</ele><time>2026-05-04T11:37:16Z</time></trkpt><trkpt lat="41.10098248159249" lon="14.641534648851055"><ele>578.0</ele><time>2026-05-04T11:37:17Z</time></trkpt><trkpt lat="41.101124665106944" lon="14.641546074867"><ele>578.0</ele><time>2026-05-04T11:37:18Z</time></trkpt><trkpt lat="41.10129233107367" lon="14.641491535840103"><ele>578.0</ele><time>2026-05-04T11:37:19Z</time></trkpt><trkpt lat="41.101478192681725" lon="14.64140328587194"><ele>578.0</ele><time>2026-05-04T11:37:20Z</time></trkpt><trkpt lat="41.10169410463736" lon="14.64133606719452"><ele>580.0</ele><time>2026-05-04T11:37:21Z</time></trkpt><trkpt lat="41.10186577692243" lon="14.641251487840616"><ele>582.0</ele><time>2026-05-04T11:37:22Z</time></trkpt><trkpt lat="41.102019752303804" lon="14.641238195615758"><ele>584.0</ele><time>2026-05-04T11:37:23Z</time></trkpt><trkpt lat="41.102160677560065" lon="14.641267266218202"><ele>584.0</ele><time>2026-05-04T11:37:24Z</time></trkpt><trkpt lat="41.102275960329884" lon="14.641349916335283"><ele>584.0</ele><time>2026-05-04T11:37:24.999Z</time></trkpt><trkpt lat="41.102343722861946" lon="14.641526831454314"><ele>584.0</ele><time>2026-05-04T11:37:25.999Z</time></trkpt><trkpt lat="41.10245529773168" lon="14.64174052080824"><ele>582.6666666666666</ele><time>2026-05-04T11:37:26.999Z</time></trkpt><trkpt lat="41.102560211198295" lon="14.641994218551563"><ele>581.3333333333334</ele><time>2026-05-04T11:37:27.999Z</time></trkpt><trkpt lat="41.10267745125642" lon="14.642186419500142"><ele>580.0</ele><time>2026-05-04T11:37:28.999Z</time></trkpt><trkpt lat="41.10281259131334" lon="14.6423311120442"><ele>580.0</ele><time>2026-05-04T11:37:29.999Z</time></trkpt><trkpt lat="41.10293750403085" lon="14.642437050194017"><ele>580.0</ele><time>2026-05-04T11:37:30.999Z</time></trkpt><trkpt lat="41.103061387853515" lon="14.64249010711625"><ele>580.0</ele><time>2026-05-04T11:37:31.999Z</time></trkpt><trkpt lat="41.10319133355569" lon="14.64246408468001"><ele>580.0</ele><time>2026-05-04T11:37:32.999Z</time></trkpt><trkpt lat="41.10333999859167" lon="14.642367212907372"><ele>583.6666666666667</ele><time>2026-05-04T11:37:33.999Z</time></trkpt><trkpt lat="41.10351612741729" lon="14.642256878678657"><ele>587.3333333333334</ele><time>2026-05-04T11:37:34.999Z</time></trkpt><trkpt lat="41.10371467021373" lon="14.642268230881038"><ele>591.0</ele><time>2026-05-04T11:37:35.999Z</time></trkpt><trkpt lat="41.10390416798241" lon="14.642302236055205"><ele>593.0</ele><time>2026-05-04T11:37:36.999Z</time></trkpt><trkpt lat="41.10411890438268" lon="14.642367025588563"><ele>595.0</ele><time>2026-05-04T11:37:37.999Z</time></trkpt><trkpt lat="41.104345602150005" lon="14.642516233638283"><ele>595.0</ele><time>2026-05-04T11:37:38.999Z</time></trkpt><trkpt lat="41.10456872803316" lon="14.64264921699865"><ele>595.0</ele><time>2026-05-04T11:37:39.999Z</time></trkpt><trkpt lat="41.1047957925771" lon="14.642782755417786"><ele>589.0</ele><time>2026-05-04T11:37:40.999Z</time></trkpt><trkpt lat="41.10503897745182" lon="14.642939212909376"><ele>583.0</ele><time>2026-05-04T11:37:41.999Z</time></trkpt><trkpt lat="41.10525002993057" lon="14.643069869904625"><ele>583.0</ele><time>2026-05-04T11:37:42.999Z</time></trkpt><trkpt lat="41.105456892249165" lon="14.643189883957874"><ele>583.0</ele><time>2026-05-04T11:37:43.999Z</time></trkpt><trkpt lat="41.10565138467827" lon="14.64329555572311"><ele>583.0</ele><time>2026-05-04T11:37:44.999Z</time></trkpt><trkpt lat="41.105806949350175" lon="14.643409509045089"><ele>580.6666666666667</ele><time>2026-05-04T11:37:45.999Z</time></trkpt><trkpt lat="41.10594478160711" lon="14.64351045068564"><ele>578.3333333333334</ele><time>2026-05-04T11:37:46.999Z</time></trkpt><trkpt lat="41.10604177588335" lon="14.643645954027173"><ele>576.0</ele><time>2026-05-04T11:37:47.999Z</time></trkpt><trkpt lat="41.10611365636837" lon="14.643837224857268"><ele>576.0</ele><time>2026-05-04T11:37:48.999Z</time></trkpt><trkpt lat="41.10616498846662" lon="14.644072260045435"><ele>576.0</ele><time>2026-05-04T11:37:49.999Z</time></trkpt><trkpt lat="41.10621541362217" lon="14.644280822287763"><ele>576.0</ele><time>2026-05-04T11:37:50.999Z</time></trkpt><trkpt lat="41.106262889937426" lon="14.644452410292939"><ele>577.0</ele><time>2026-05-04T11:37:51.999Z</time></trkpt><trkpt lat="41.106395183367056" lon="14.644593337429974"><ele>578.0</ele><time>2026-05-04T11:37:52.999Z</time></trkpt><trkpt lat="41.10653144899515" lon="14.64472828392037"><ele>579.0</ele><time>2026-05-04T11:37:53.999Z</time></trkpt><trkpt lat="41.10669123898574" lon="14.644830215859082"><ele>579.0</ele><time>2026-05-04T11:37:54.999Z</time></trkpt><trkpt lat="41.106859951500795" lon="14.644892926537029"><ele>579.0</ele><time>2026-05-04T11:37:55.999Z</time></trkpt><trkpt lat="41.107027292113074" lon="14.64489945024468"><ele>579.0</ele><time>2026-05-04T11:37:56.999Z</time></trkpt><trkpt lat="41.10720063669699" lon="14.644846023566291"><ele>579.0</ele><time>2026-05-04T11:37:57.999Z</time></trkpt><trkpt lat="41.10736614503943" lon="14.644768541090828"><ele>579.0</ele><time>2026-05-04T11:37:58.999Z</time></trkpt><trkpt lat="41.10751636063507" lon="14.644733272384988"><ele>579.0</ele><time>2026-05-04T11:37:59.999Z</time></trkpt><trkpt lat="41.10766048608927" lon="14.64480022406307"><ele>578.6666666666666</ele><time>2026-05-04T11:38:00.999Z</time></trkpt><trkpt lat="41.10779974881115" lon="14.64492374592684"><ele>578.3333333333333</ele><time>2026-05-04T11:38:01.999Z</time></trkpt><trkpt lat="41.10789457831293" lon="14.645105916705962"><ele>578.0</ele><time>2026-05-04T11:38:02.999Z</time></trkpt><trkpt lat="41.10798829745282" lon="14.645294379589007"><ele>573.75</ele><time>2026-05-04T11:38:03.999Z</time></trkpt><trkpt lat="41.10803308798563" lon="14.645469340050452"><ele>569.5</ele><time>2026-05-04T11:38:04.999Z</time></trkpt><trkpt lat="41.10811042802563" lon="14.645550068221477"><ele>565.25</ele><time>2026-05-04T11:38:05.999Z</time></trkpt><trkpt lat="41.10821148222624" lon="14.645567715939912"><ele>561.0</ele><time>2026-05-04T11:38:06.999Z</time></trkpt><trkpt lat="41.10832334580654" lon="14.64551716149485"><ele>561.0</ele><time>2026-05-04T11:38:07.999Z</time></trkpt><trkpt lat="41.1084287378728" lon="14.645402193849835"><ele>561.0</ele><time>2026-05-04T11:38:08.999Z</time></trkpt><trkpt lat="41.10855891112952" lon="14.645220774006155"><ele>561.0</ele><time>2026-05-04T11:38:09.999Z</time></trkpt><trkpt lat="41.108714998825995" lon="14.645017131632347"><ele>560.5</ele><time>2026-05-04T11:38:10.999Z</time></trkpt><trkpt lat="41.108880245663954" lon="14.644836476512213"><ele>560.0</ele><time>2026-05-04T11:38:11.999Z</time></trkpt><trkpt lat="41.10908805534219" lon="14.644642574122296"><ele>560.0</ele><time>2026-05-04T11:38:12.999Z</time></trkpt><trkpt lat="41.10929018436663" lon="14.644519398991243"><ele>560.0</ele><time>2026-05-04T11:38:13.999Z</time></trkpt><trkpt lat="41.109432036792825" lon="14.644423390061885"><ele>560.0</ele><time>2026-05-04T11:38:14.999Z</time></trkpt><trkpt lat="41.109591835839474" lon="14.644271916446252"><ele>561.6666666666666</ele><time>2026-05-04T11:38:15.999Z</time></trkpt><trkpt lat="41.109747474531034" lon="14.644137533630651"><ele>563.3333333333334</ele><time>2026-05-04T11:38:16.999Z</time></trkpt><trkpt lat="41.109887617204436" lon="14.644048684713981"><ele>565.0</ele><time>2026-05-04T11:38:17.999Z</time></trkpt><trkpt lat="41.11003631356869" lon="14.64403323663516"><ele>565.0</ele><time>2026-05-04T11:38:18.999Z</time></trkpt><trkpt lat="41.110162919391556" lon="14.644065054709829"><ele>565.0</ele><time>2026-05-04T11:38:19.999Z</time></trkpt><trkpt lat="41.11029416064962" lon="14.644106701717487"><ele>565.0</ele><time>2026-05-04T11:38:20.999Z</time></trkpt><trkpt lat="41.110418062408705" lon="14.644155566123343"><ele>565.0</ele><time>2026-05-04T11:38:21.999Z</time></trkpt><trkpt lat="41.11053105871795" lon="14.644204721663797"><ele>565.0</ele><time>2026-05-04T11:38:22.999Z</time></trkpt><trkpt lat="41.11063366298202" lon="14.644254554998676"><ele>565.0</ele><time>2026-05-04T11:38:23.999Z</time></trkpt><trkpt lat="41.11074585610608" lon="14.644309410456554"><ele>565.0</ele><time>2026-05-04T11:38:24.999Z</time></trkpt><trkpt lat="41.11086532725786" lon="14.64437301442319"><ele>565.0</ele><time>2026-05-04T11:38:25.999Z</time></trkpt><trkpt lat="41.11098814997323" lon="14.644443838192979"><ele>561.5</ele><time>2026-05-04T11:38:26.999Z</time></trkpt><trkpt lat="41.11111471210807" lon="14.644523151652665"><ele>558.0</ele><time>2026-05-04T11:38:27.999Z</time></trkpt><trkpt lat="41.11124671192446" lon="14.644626441162963"><ele>554.5</ele><time>2026-05-04T11:38:28.999Z</time></trkpt><trkpt lat="41.11136124720032" lon="14.644765155110392"><ele>551.0</ele><time>2026-05-04T11:38:29.999Z</time></trkpt><trkpt lat="41.11145666074332" lon="14.64492951846191"><ele>551.0</ele><time>2026-05-04T11:38:30.999Z</time></trkpt><trkpt lat="41.1115606365456" lon="14.64511868310347"><ele>551.0</ele><time>2026-05-04T11:38:31.999Z</time></trkpt><trkpt lat="41.11165527584784" lon="14.645291349649494"><ele>551.0</ele><time>2026-05-04T11:38:32.999Z</time></trkpt><trkpt lat="41.111748811404986" lon="14.645449826567543"><ele>549.75</ele><time>2026-05-04T11:38:33.999Z</time></trkpt><trkpt lat="41.1118586526701" lon="14.645572398417029"><ele>548.5</ele><time>2026-05-04T11:38:34.999Z</time></trkpt><trkpt lat="41.11195488614612" lon="14.64569009590512"><ele>547.25</ele><time>2026-05-04T11:38:35.999Z</time></trkpt><trkpt lat="41.1120651638579" lon="14.64575949328688"><ele>546.0</ele><time>2026-05-04T11:38:36.999Z</time></trkpt><trkpt lat="41.11218540707495" lon="14.645738743872732"><ele>546.0</ele><time>2026-05-04T11:38:37.999Z</time></trkpt><trkpt lat="41.11232228788663" lon="14.645667132185048"><ele>546.0</ele><time>2026-05-04T11:38:38.999Z</time></trkpt><trkpt lat="41.11246451705493" lon="14.645545866736459"><ele>546.0</ele><time>2026-05-04T11:38:39.999Z</time></trkpt><trkpt lat="41.1126076082814" lon="14.645392367665353"><ele>551.0</ele><time>2026-05-04T11:38:40.999Z</time></trkpt><trkpt lat="41.11276176947008" lon="14.645234296765212"><ele>556.0</ele><time>2026-05-04T11:38:41.999Z</time></trkpt><trkpt lat="41.11292868500276" lon="14.645076385327734"><ele>561.0</ele><time>2026-05-04T11:38:42.999Z</time></trkpt><trkpt lat="41.11308827448723" lon="14.644943446490162"><ele>557.0</ele><time>2026-05-04T11:38:43.999Z</time></trkpt><trkpt lat="41.11325192724283" lon="14.644884017611723"><ele>553.0</ele><time>2026-05-04T11:38:44.999Z</time></trkpt><trkpt lat="41.11340989646812" lon="14.644840117422381"><ele>549.0</ele><time>2026-05-04T11:38:46Z</time></trkpt><trkpt lat="41.11356045915878" lon="14.644831158087847"><ele>549.0</ele><time>2026-05-04T11:38:47Z</time></trkpt><trkpt lat="41.11371725235846" lon="14.644954385557542"><ele>549.0</ele><time>2026-05-04T11:38:48Z</time></trkpt><trkpt lat="41.113902055525045" lon="14.645055513660017"><ele>549.0</ele><time>2026-05-04T11:38:49Z</time></trkpt><trkpt lat="41.1140457437641" lon="14.645191979617515"><ele>546.3333333333334</ele><time>2026-05-04T11:38:50Z</time></trkpt><trkpt lat="41.11415782820281" lon="14.645348083125013"><ele>543.6666666666667</ele><time>2026-05-04T11:38:51Z</time></trkpt><trkpt lat="41.114202970874" lon="14.64558359439854"><ele>541.0</ele><time>2026-05-04T11:38:52Z</time></trkpt><trkpt lat="41.11426222613748" lon="14.645820638458284"><ele>541.0</ele><time>2026-05-04T11:38:53Z</time></trkpt><trkpt lat="41.11429109785454" lon="14.646055200522094"><ele>541.0</ele><time>2026-05-04T11:38:54Z</time></trkpt><trkpt lat="41.114317176094865" lon="14.646210598997238"><ele>541.0</ele><time>2026-05-04T11:38:55Z</time></trkpt><trkpt lat="41.114390426364324" lon="14.64630953493372"><ele>541.0</ele><time>2026-05-04T11:38:56Z</time></trkpt><trkpt lat="41.11450336848282" lon="14.646373364476387"><ele>538.6666666666667</ele><time>2026-05-04T11:38:57Z</time></trkpt><trkpt lat="41.11463512109373" lon="14.646384180767354"><ele>536.3333333333334</ele><time>2026-05-04T11:38:58Z</time></trkpt><trkpt lat="41.11480434856038" lon="14.646302162555784"><ele>534.0</ele><time>2026-05-04T11:38:59Z</time></trkpt><trkpt lat="41.11498535421033" lon="14.646277069281178"><ele>534.0</ele><time>2026-05-04T11:39:00Z</time></trkpt><trkpt lat="41.115134419079254" lon="14.646369964502151"><ele>534.0</ele><time>2026-05-04T11:39:01Z</time></trkpt><trkpt lat="41.11528267320759" lon="14.64648932271624"><ele>534.0</ele><time>2026-05-04T11:39:02Z</time></trkpt><trkpt lat="41.115428950570596" lon="14.646671410730342"><ele>534.0</ele><time>2026-05-04T11:39:03Z</time></trkpt><trkpt lat="41.11554059340417" lon="14.646880604397186"><ele>534.0</ele><time>2026-05-04T11:39:04Z</time></trkpt><trkpt lat="41.115629482592524" lon="14.64705544768601"><ele>534.0</ele><time>2026-05-04T11:39:05Z</time></trkpt><trkpt lat="41.11570463300074" lon="14.647206366694034"><ele>532.0</ele><time>2026-05-04T11:39:06Z</time></trkpt><trkpt lat="41.11583839818339" lon="14.647330585440022"><ele>530.0</ele><time>2026-05-04T11:39:07Z</time></trkpt><trkpt lat="41.11605107633611" lon="14.647447667052777"><ele>528.0</ele><time>2026-05-04T11:39:08Z</time></trkpt><trkpt lat="41.116224543741495" lon="14.647587498202338"><ele>528.0</ele><time>2026-05-04T11:39:09Z</time></trkpt><trkpt lat="41.11635644684098" lon="14.6476723645219"><ele>528.0</ele><time>2026-05-04T11:39:10Z</time></trkpt><trkpt lat="41.116475570205345" lon="14.647742289147173"><ele>528.0</ele><time>2026-05-04T11:39:11Z</time></trkpt><trkpt lat="41.116629285298515" lon="14.647718186916201"><ele>528.0</ele><time>2026-05-04T11:39:12Z</time></trkpt><trkpt lat="41.116806795677086" lon="14.647637365372596"><ele>531.5</ele><time>2026-05-04T11:39:13Z</time></trkpt><trkpt lat="41.11703836262443" lon="14.64750600483825"><ele>535.0</ele><time>2026-05-04T11:39:14Z</time></trkpt><trkpt lat="41.11726549694284" lon="14.647464188977313"><ele>530.3333333333334</ele><time>2026-05-04T11:39:15Z</time></trkpt><trkpt lat="41.117458704391375" lon="14.647382449419611"><ele>525.6666666666666</ele><time>2026-05-04T11:39:16Z</time></trkpt><trkpt lat="41.1176527859114" lon="14.647318149901476"><ele>521.0</ele><time>2026-05-04T11:39:17Z</time></trkpt><trkpt lat="41.11784380233096" lon="14.64734521460658"><ele>521.0</ele><time>2026-05-04T11:39:18Z</time></trkpt><trkpt lat="41.11804228898916" lon="14.647381429326952"><ele>521.0</ele><time>2026-05-04T11:39:19Z</time></trkpt><trkpt lat="41.11822600224086" lon="14.64740714445786"><ele>521.0</ele><time>2026-05-04T11:39:20Z</time></trkpt><trkpt lat="41.11840464468005" lon="14.647376107542526"><ele>519.6666666666666</ele><time>2026-05-04T11:39:21Z</time></trkpt><trkpt lat="41.11858818788501" lon="14.647283255043762"><ele>518.3333333333334</ele><time>2026-05-04T11:39:22Z</time></trkpt><trkpt lat="41.11874416059852" lon="14.647137024888888"><ele>517.0</ele><time>2026-05-04T11:39:23Z</time></trkpt><trkpt lat="41.11888200334508" lon="14.64694468284568"><ele>518.6666666666667</ele><time>2026-05-04T11:39:24Z</time></trkpt><trkpt lat="41.11897612706816" lon="14.646720318124514"><ele>520.3333333333334</ele><time>2026-05-04T11:39:25Z</time></trkpt><trkpt lat="41.11909573355551" lon="14.646578197610976"><ele>522.0</ele><time>2026-05-04T11:39:26Z</time></trkpt><trkpt lat="41.11924695079139" lon="14.646485419857067"><ele>522.0</ele><time>2026-05-04T11:39:27Z</time></trkpt><trkpt lat="41.11942295532283" lon="14.646473498488087"><ele>522.0</ele><time>2026-05-04T11:39:28Z</time></trkpt><trkpt lat="41.119659667721685" lon="14.646456273761487"><ele>522.0</ele><time>2026-05-04T11:39:29Z</time></trkpt><trkpt lat="41.119925565610245" lon="14.646443302828994"><ele>516.0</ele><time>2026-05-04T11:39:30Z</time></trkpt><trkpt lat="41.1201790366793" lon="14.646413046866375"><ele>510.0</ele><time>2026-05-04T11:39:31Z</time></trkpt><trkpt lat="41.12040047911278" lon="14.646404815162883"><ele>510.0</ele><time>2026-05-04T11:39:32Z</time></trkpt><trkpt lat="41.1206174118029" lon="14.646395101275278"><ele>510.0</ele><time>2026-05-04T11:39:33Z</time></trkpt><trkpt lat="41.12084440218058" lon="14.64641581965577"><ele>510.0</ele><time>2026-05-04T11:39:34Z</time></trkpt><trkpt lat="41.12107604695491" lon="14.646460545946539"><ele>509.0</ele><time>2026-05-04T11:39:35Z</time></trkpt><trkpt lat="41.12130518008258" lon="14.646510454595242"><ele>508.0</ele><time>2026-05-04T11:39:36Z</time></trkpt><trkpt lat="41.12154452974638" lon="14.646548960554114"><ele>507.33333333333337</ele><time>2026-05-04T11:39:37Z</time></trkpt><trkpt lat="41.121778857310616" lon="14.64659868683248"><ele>506.66666666666663</ele><time>2026-05-04T11:39:38Z</time></trkpt><trkpt lat="41.121984814699125" lon="14.646649949192696"><ele>506.0</ele><time>2026-05-04T11:39:39Z</time></trkpt><trkpt lat="41.12216399953052" lon="14.64675621617792"><ele>506.0</ele><time>2026-05-04T11:39:40Z</time></trkpt><trkpt lat="41.122331574308035" lon="14.646826363484323"><ele>506.0</ele><time>2026-05-04T11:39:41Z</time></trkpt><trkpt lat="41.122475536397666" lon="14.646893214410131"><ele>506.0</ele><time>2026-05-04T11:39:42Z</time></trkpt><trkpt lat="41.12261660231882" lon="14.646896554382012"><ele>506.0</ele><time>2026-05-04T11:39:43Z</time></trkpt><trkpt lat="41.12275967905554" lon="14.646788024131174"><ele>506.0</ele><time>2026-05-04T11:39:44Z</time></trkpt><trkpt lat="41.122890898112686" lon="14.646604953851531"><ele>506.0</ele><time>2026-05-04T11:39:45Z</time></trkpt><trkpt lat="41.12302748778808" lon="14.64638371384623"><ele>506.0</ele><time>2026-05-04T11:39:46Z</time></trkpt><trkpt lat="41.12314439450844" lon="14.646222915580843"><ele>506.0</ele><time>2026-05-04T11:39:47Z</time></trkpt><trkpt lat="41.12331021263194" lon="14.646095908034244"><ele>506.0</ele><time>2026-05-04T11:39:48Z</time></trkpt><trkpt lat="41.12357175374334" lon="14.645971513725483"><ele>506.66666666666663</ele><time>2026-05-04T11:39:49Z</time></trkpt><trkpt lat="41.12376573349496" lon="14.64582255047853"><ele>507.33333333333337</ele><time>2026-05-04T11:39:50Z</time></trkpt><trkpt lat="41.123949708455704" lon="14.64569160117062"><ele>508.0</ele><time>2026-05-04T11:39:51Z</time></trkpt><trkpt lat="41.12412299957472" lon="14.645647457316137"><ele>503.33333333333337</ele><time>2026-05-04T11:39:52Z</time></trkpt><trkpt lat="41.12434488827024" lon="14.64562589411853"><ele>498.66666666666663</ele><time>2026-05-04T11:39:53Z</time></trkpt><trkpt lat="41.12453816022386" lon="14.64567298133543"><ele>494.0</ele><time>2026-05-04T11:39:54Z</time></trkpt><trkpt lat="41.12473069482701" lon="14.645787915896138"><ele>493.66666666666663</ele><time>2026-05-04T11:39:55Z</time></trkpt><trkpt lat="41.12491651720628" lon="14.645917767673083"><ele>493.33333333333337</ele><time>2026-05-04T11:39:56Z</time></trkpt><trkpt lat="41.12507478608729" lon="14.646038566743055"><ele>493.0</ele><time>2026-05-04T11:39:57Z</time></trkpt><trkpt lat="41.12524342473183" lon="14.64610743622631"><ele>493.0</ele><time>2026-05-04T11:39:58Z</time></trkpt><trkpt lat="41.125440599546536" lon="14.646129718759504"><ele>493.0</ele><time>2026-05-04T11:39:59Z</time></trkpt><trkpt lat="41.12561419068547" lon="14.646108957583492"><ele>493.0</ele><time>2026-05-04T11:40:00Z</time></trkpt><trkpt lat="41.12574585080841" lon="14.646022754999498"><ele>491.0</ele><time>2026-05-04T11:40:01Z</time></trkpt><trkpt lat="41.12585864987167" lon="14.645876059102097"><ele>489.0</ele><time>2026-05-04T11:40:02Z</time></trkpt><trkpt lat="41.12599438097243" lon="14.645672766393536"><ele>487.0</ele><time>2026-05-04T11:40:03Z</time></trkpt><trkpt lat="41.12612264481087" lon="14.645536008653997"><ele>487.0</ele><time>2026-05-04T11:40:04Z</time></trkpt><trkpt lat="41.126252659973815" lon="14.645557516664237"><ele>487.0</ele><time>2026-05-04T11:40:05Z</time></trkpt><trkpt lat="41.12642319347727" lon="14.645559708949934"><ele>487.0</ele><time>2026-05-04T11:40:06Z</time></trkpt><trkpt lat="41.12664303594143" lon="14.645599174281791"><ele>484.6666666666667</ele><time>2026-05-04T11:40:07Z</time></trkpt><trkpt lat="41.12686232222121" lon="14.645637382891818"><ele>482.33333333333337</ele><time>2026-05-04T11:40:08Z</time></trkpt><trkpt lat="41.127042895020196" lon="14.645700057415588"><ele>480.0</ele><time>2026-05-04T11:40:09Z</time></trkpt><trkpt lat="41.12722636179317" lon="14.645770817324358"><ele>480.0</ele><time>2026-05-04T11:40:10Z</time></trkpt><trkpt lat="41.12736623826871" lon="14.6458159920899"><ele>480.0</ele><time>2026-05-04T11:40:11Z</time></trkpt><trkpt lat="41.127500845869385" lon="14.645848805600338"><ele>480.0</ele><time>2026-05-04T11:40:12Z</time></trkpt><trkpt lat="41.12760833119343" lon="14.645856790851273"><ele>480.0</ele><time>2026-05-04T11:40:13Z</time></trkpt><trkpt lat="41.12773243556273" lon="14.645837653656095"><ele>480.0</ele><time>2026-05-04T11:40:14Z</time></trkpt><trkpt lat="41.1278753027023" lon="14.645802088514559"><ele>480.0</ele><time>2026-05-04T11:40:15Z</time></trkpt><trkpt lat="41.128033793592415" lon="14.645771420277121"><ele>480.0</ele><time>2026-05-04T11:40:16Z</time></trkpt><trkpt lat="41.12819784055282" lon="14.645741758116523"><ele>477.66666666666663</ele><time>2026-05-04T11:40:17Z</time></trkpt><trkpt lat="41.1283566752383" lon="14.645690115485682"><ele>475.3333333333333</ele><time>2026-05-04T11:40:18Z</time></trkpt><trkpt lat="41.12851946584322" lon="14.645596015828703"><ele>473.0</ele><time>2026-05-04T11:40:19Z</time></trkpt><trkpt lat="41.12867680161724" lon="14.64550740251024"><ele>473.0</ele><time>2026-05-04T11:40:20Z</time></trkpt><trkpt lat="41.12883872742099" lon="14.645452300709497"><ele>473.0</ele><time>2026-05-04T11:40:21Z</time></trkpt><trkpt lat="41.1289992206439" lon="14.645424927719175"><ele>473.0</ele><time>2026-05-04T11:40:22Z</time></trkpt><trkpt lat="41.129169469362765" lon="14.64541855133388"><ele>470.66666666666663</ele><time>2026-05-04T11:40:23Z</time></trkpt><trkpt lat="41.12934658429237" lon="14.645450272141785"><ele>468.33333333333337</ele><time>2026-05-04T11:40:24Z</time></trkpt><trkpt lat="41.12950517165363" lon="14.64548091031336"><ele>466.0</ele><time>2026-05-04T11:40:25Z</time></trkpt><trkpt lat="41.12966259402521" lon="14.64549059770802"><ele>466.0</ele><time>2026-05-04T11:40:26Z</time></trkpt><trkpt lat="41.129796487337664" lon="14.645444141644468"><ele>466.0</ele><time>2026-05-04T11:40:27Z</time></trkpt><trkpt lat="41.12992327199398" lon="14.645352645027625"><ele>466.0</ele><time>2026-05-04T11:40:28Z</time></trkpt><trkpt lat="41.13007743665155" lon="14.645301410262165"><ele>466.0</ele><time>2026-05-04T11:40:29Z</time></trkpt><trkpt lat="41.1302479852055" lon="14.645313438885477"><ele>463.75</ele><time>2026-05-04T11:40:30Z</time></trkpt><trkpt lat="41.13040720558667" lon="14.64530719090458"><ele>461.5</ele><time>2026-05-04T11:40:31Z</time></trkpt><trkpt lat="41.13055974871607" lon="14.645312610372185"><ele>459.25</ele><time>2026-05-04T11:40:32Z</time></trkpt><trkpt lat="41.13068327975691" lon="14.645297803522675"><ele>457.0</ele><time>2026-05-04T11:40:33Z</time></trkpt><trkpt lat="41.13077405685771" lon="14.645238108763394"><ele>456.75</ele><time>2026-05-04T11:40:34Z</time></trkpt><trkpt lat="41.13083285647103" lon="14.645117100107479"><ele>456.5</ele><time>2026-05-04T11:40:35Z</time></trkpt><trkpt lat="41.13084141769272" lon="14.644964521593877"><ele>456.25</ele><time>2026-05-04T11:40:36Z</time></trkpt><trkpt lat="41.130820678521886" lon="14.644800987010708"><ele>456.0</ele><time>2026-05-04T11:40:37Z</time></trkpt><trkpt lat="41.13078917416311" lon="14.644628931401954"><ele>457.25</ele><time>2026-05-04T11:40:38Z</time></trkpt><trkpt lat="41.13079086632826" lon="14.644451472642327"><ele>458.5</ele><time>2026-05-04T11:40:39Z</time></trkpt><trkpt lat="41.130829750152685" lon="14.644284328944407"><ele>459.75</ele><time>2026-05-04T11:40:39.999Z</time></trkpt><trkpt lat="41.13088424180703" lon="14.644145702228954"><ele>461.0</ele><time>2026-05-04T11:40:40.999Z</time></trkpt><trkpt lat="41.1309723305344" lon="14.644056655266638"><ele>461.0</ele><time>2026-05-04T11:40:41.999Z</time></trkpt><trkpt lat="41.13107771022434" lon="14.644020836632826"><ele>461.0</ele><time>2026-05-04T11:40:42.999Z</time></trkpt><trkpt lat="41.1312026955325" lon="14.64409069151053"><ele>461.0</ele><time>2026-05-04T11:40:44Z</time></trkpt><trkpt lat="41.13133389303151" lon="14.644132680718137"><ele>461.0</ele><time>2026-05-04T11:40:45Z</time></trkpt><trkpt lat="41.13150671888988" lon="14.644164383318323"><ele>458.0</ele><time>2026-05-04T11:40:46Z</time></trkpt><trkpt lat="41.131672426755586" lon="14.644226961436008"><ele>455.0</ele><time>2026-05-04T11:40:47Z</time></trkpt><trkpt lat="41.13182603808576" lon="14.644271924230335"><ele>452.0</ele><time>2026-05-04T11:40:48Z</time></trkpt><trkpt lat="41.13196527178665" lon="14.644316909604866"><ele>452.0</ele><time>2026-05-04T11:40:49Z</time></trkpt><trkpt lat="41.13209961722104" lon="14.644346863747804"><ele>452.0</ele><time>2026-05-04T11:40:50Z</time></trkpt><trkpt lat="41.13222941743732" lon="14.644366844330552"><ele>452.0</ele><time>2026-05-04T11:40:51Z</time></trkpt><trkpt lat="41.132366227259176" lon="14.644351627775588"><ele>452.0</ele><time>2026-05-04T11:40:52Z</time></trkpt><trkpt lat="41.132522076074544" lon="14.644324517030958"><ele>451.3333333333333</ele><time>2026-05-04T11:40:53Z</time></trkpt><trkpt lat="41.13268144671549" lon="14.644323686258131"><ele>450.66666666666663</ele><time>2026-05-04T11:40:54Z</time></trkpt><trkpt lat="41.13285096338583" lon="14.644340647688896"><ele>450.0</ele><time>2026-05-04T11:40:55Z</time></trkpt><trkpt lat="41.132999410107374" lon="14.644386406739997"><ele>450.0</ele><time>2026-05-04T11:40:56Z</time></trkpt><trkpt lat="41.133156183851874" lon="14.644462940078911"><ele>450.0</ele><time>2026-05-04T11:40:57Z</time></trkpt><trkpt lat="41.133295599001684" lon="14.644558124128082"><ele>450.0</ele><time>2026-05-04T11:40:58Z</time></trkpt><trkpt lat="41.133433948536236" lon="14.644667165592026"><ele>445.0</ele><time>2026-05-04T11:40:59Z</time></trkpt><trkpt lat="41.133588371472584" lon="14.644783590477786"><ele>440.0</ele><time>2026-05-04T11:41:00Z</time></trkpt><trkpt lat="41.133741783054" lon="14.644882626208604"><ele>435.0</ele><time>2026-05-04T11:41:01Z</time></trkpt><trkpt lat="41.133876974717495" lon="14.644997336967899"><ele>435.0</ele><time>2026-05-04T11:41:02Z</time></trkpt><trkpt lat="41.13400999678571" lon="14.645116111128369"><ele>435.0</ele><time>2026-05-04T11:41:03Z</time></trkpt><trkpt lat="41.134123809382054" lon="14.645263952578212"><ele>435.0</ele><time>2026-05-04T11:41:04Z</time></trkpt><trkpt lat="41.13425593762376" lon="14.645435058255087"><ele>433.0</ele><time>2026-05-04T11:41:05Z</time></trkpt><trkpt lat="41.13438273077564" lon="14.645601693287803"><ele>431.0</ele><time>2026-05-04T11:41:06Z</time></trkpt><trkpt lat="41.13449363716691" lon="14.645743815699438"><ele>429.0</ele><time>2026-05-04T11:41:07Z</time></trkpt><trkpt lat="41.1346028027546" lon="14.645881364978345"><ele>429.0</ele><time>2026-05-04T11:41:08Z</time></trkpt><trkpt lat="41.13472392027931" lon="14.645985094680256"><ele>429.0</ele><time>2026-05-04T11:41:09Z</time></trkpt><trkpt lat="41.134832637847445" lon="14.646062140641167"><ele>429.0</ele><time>2026-05-04T11:41:10Z</time></trkpt><trkpt lat="41.1349478045672" lon="14.646061504159098"><ele>429.0</ele><time>2026-05-04T11:41:11Z</time></trkpt><trkpt lat="41.13505069096537" lon="14.645980147244037"><ele>429.5</ele><time>2026-05-04T11:41:12Z</time></trkpt><trkpt lat="41.135117339648545" lon="14.64585070098014"><ele>430.0</ele><time>2026-05-04T11:41:13Z</time></trkpt><trkpt lat="41.13518020272716" lon="14.645681780043274"><ele>430.5</ele><time>2026-05-04T11:41:14Z</time></trkpt><trkpt lat="41.13524162149546" lon="14.645509942754233"><ele>431.0</ele><time>2026-05-04T11:41:15Z</time></trkpt><trkpt lat="41.13535599622755" lon="14.645399494372429"><ele>431.0</ele><time>2026-05-04T11:41:16Z</time></trkpt><trkpt lat="41.13549633258199" lon="14.64533718214264"><ele>431.0</ele><time>2026-05-04T11:41:17Z</time></trkpt><trkpt lat="41.13562398988588" lon="14.645319209937501"><ele>431.0</ele><time>2026-05-04T11:41:18Z</time></trkpt><trkpt lat="41.135717581011555" lon="14.645381728023173"><ele>431.0</ele><time>2026-05-04T11:41:19Z</time></trkpt><trkpt lat="41.13582827506038" lon="14.645498934963921"><ele>427.0</ele><time>2026-05-04T11:41:20Z</time></trkpt><trkpt lat="41.13594894898585" lon="14.645626195268452"><ele>423.0</ele><time>2026-05-04T11:41:21Z</time></trkpt><trkpt lat="41.13606080136658" lon="14.645717114624503"><ele>419.0</ele><time>2026-05-04T11:41:22Z</time></trkpt><trkpt lat="41.13615316804558" lon="14.645802825008944"><ele>415.0</ele><time>2026-05-04T11:41:23Z</time></trkpt><trkpt lat="41.13624667257701" lon="14.645835605349237"><ele>415.0</ele><time>2026-05-04T11:41:24Z</time></trkpt><trkpt lat="41.13633789869223" lon="14.645815047997253"><ele>415.0</ele><time>2026-05-04T11:41:25Z</time></trkpt><trkpt lat="41.136405475540826" lon="14.645735407904905"><ele>415.0</ele><time>2026-05-04T11:41:26Z</time></trkpt><trkpt lat="41.136413562868505" lon="14.645595640642792"><ele>415.0</ele><time>2026-05-04T11:41:27Z</time></trkpt><trkpt lat="41.13637112074768" lon="14.645448138706167"><ele>415.0</ele><time>2026-05-04T11:41:28Z</time></trkpt><trkpt lat="41.136295038257096" lon="14.645322742206712"><ele>418.5</ele><time>2026-05-04T11:41:29Z</time></trkpt><trkpt lat="41.13623557197204" lon="14.645156824872352"><ele>422.0</ele><time>2026-05-04T11:41:30Z</time></trkpt><trkpt lat="41.13620550942152" lon="14.644989359862345"><ele>425.5</ele><time>2026-05-04T11:41:31Z</time></trkpt><trkpt lat="41.13618583035348" lon="14.644798884650594"><ele>429.0</ele><time>2026-05-04T11:41:32Z</time></trkpt><trkpt lat="41.13617345641757" lon="14.644608640038038"><ele>428.66666666666663</ele><time>2026-05-04T11:41:33Z</time></trkpt><trkpt lat="41.13615011161695" lon="14.6444062713024"><ele>428.3333333333333</ele><time>2026-05-04T11:41:34Z</time></trkpt><trkpt lat="41.136125057920346" lon="14.64420138630915"><ele>428.0</ele><time>2026-05-04T11:41:35Z</time></trkpt><trkpt lat="41.13610710224717" lon="14.643997389878091"><ele>428.0</ele><time>2026-05-04T11:41:36Z</time></trkpt><trkpt lat="41.1360909257538" lon="14.64381113039086"><ele>428.0</ele><time>2026-05-04T11:41:37Z</time></trkpt><trkpt lat="41.13607981326817" lon="14.643635828180306"><ele>428.0</ele><time>2026-05-04T11:41:38Z</time></trkpt><trkpt lat="41.136069186452374" lon="14.643476544087662"><ele>428.0</ele><time>2026-05-04T11:41:39Z</time></trkpt><trkpt lat="41.136062677504725" lon="14.643328242522326"><ele>425.79999999999995</ele><time>2026-05-04T11:41:40Z</time></trkpt><trkpt lat="41.136081600265605" lon="14.64318358030864"><ele>423.59999999999997</ele><time>2026-05-04T11:41:41Z</time></trkpt><trkpt lat="41.13608119963678" lon="14.643044586498426"><ele>421.4</ele><time>2026-05-04T11:41:42Z</time></trkpt><trkpt lat="41.13610181999153" lon="14.642907204265008"><ele>419.20000000000005</ele><time>2026-05-04T11:41:43Z</time></trkpt><trkpt lat="41.13611096405495" lon="14.642774614173577"><ele>417.0</ele><time>2026-05-04T11:41:44Z</time></trkpt><trkpt lat="41.136082355213105" lon="14.642656367777892"><ele>415.6</ele><time>2026-05-04T11:41:45Z</time></trkpt><trkpt lat="41.13600746795824" lon="14.642564025725013"><ele>414.20000000000005</ele><time>2026-05-04T11:41:46Z</time></trkpt><trkpt lat="41.1359081273093" lon="14.642530057038238"><ele>412.8</ele><time>2026-05-04T11:41:47Z</time></trkpt><trkpt lat="41.1358102027857" lon="14.642518008566935"><ele>411.4</ele><time>2026-05-04T11:41:48Z</time></trkpt><trkpt lat="41.135723270855394" lon="14.6424566981223"><ele>410.0</ele><time>2026-05-04T11:41:49Z</time></trkpt><trkpt lat="41.13567738326176" lon="14.642335726207726"><ele>410.0</ele><time>2026-05-04T11:41:50Z</time></trkpt><trkpt lat="41.13568640379829" lon="14.642239581078544"><ele>410.0</ele><time>2026-05-04T11:41:51Z</time></trkpt><trkpt lat="41.13577598014621" lon="14.64214521341626"><ele>410.0</ele><time>2026-05-04T11:41:53Z</time></trkpt><trkpt lat="41.135894058333804" lon="14.642171562696364"><ele>410.0</ele><time>2026-05-04T11:41:54Z</time></trkpt><trkpt lat="41.13600964162993" lon="14.642192724382161"><ele>410.0</ele><time>2026-05-04T11:41:55Z</time></trkpt><trkpt lat="41.136137460904614" lon="14.6422211991691"><ele>410.0</ele><time>2026-05-04T11:41:56Z</time></trkpt><trkpt lat="41.13627994645114" lon="14.642229067580462"><ele>410.0</ele><time>2026-05-04T11:41:57Z</time></trkpt><trkpt lat="41.136421691240734" lon="14.64220316331143"><ele>410.0</ele><time>2026-05-04T11:41:58Z</time></trkpt><trkpt lat="41.136555755618325" lon="14.642176118346667"><ele>410.0</ele><time>2026-05-04T11:41:59Z</time></trkpt><trkpt lat="41.13669046442839" lon="14.642175288054892"><ele>407.0</ele><time>2026-05-04T11:42:00Z</time></trkpt><trkpt lat="41.13681903971399" lon="14.642204054492197"><ele>404.0</ele><time>2026-05-04T11:42:01Z</time></trkpt><trkpt lat="41.136934029633665" lon="14.64227106786459"><ele>401.0</ele><time>2026-05-04T11:42:02Z</time></trkpt><trkpt lat="41.13705775762148" lon="14.642324490319169"><ele>398.0</ele><time>2026-05-04T11:42:03Z</time></trkpt><trkpt lat="41.13718359172381" lon="14.642429067087768"><ele>398.0</ele><time>2026-05-04T11:42:04Z</time></trkpt><trkpt lat="41.13729682221185" lon="14.642524964801929"><ele>398.0</ele><time>2026-05-04T11:42:05Z</time></trkpt><trkpt lat="41.13741044753798" lon="14.642609378786027"><ele>398.0</ele><time>2026-05-04T11:42:06Z</time></trkpt><trkpt lat="41.13751613231863" lon="14.642688991471863"><ele>398.0</ele><time>2026-05-04T11:42:07Z</time></trkpt><trkpt lat="41.13762973896546" lon="14.642762300801033"><ele>393.5</ele><time>2026-05-04T11:42:08Z</time></trkpt><trkpt lat="41.13773835674835" lon="14.642849906282189"><ele>389.0</ele><time>2026-05-04T11:42:09Z</time></trkpt><trkpt lat="41.13784200617792" lon="14.64293705200427"><ele>384.5</ele><time>2026-05-04T11:42:10Z</time></trkpt><trkpt lat="41.137952292130926" lon="14.642993600976295"><ele>380.0</ele><time>2026-05-04T11:42:11Z</time></trkpt><trkpt lat="41.13806341492702" lon="14.643002406422713"><ele>380.0</ele><time>2026-05-04T11:42:12Z</time></trkpt><trkpt lat="41.13816730350928" lon="14.64295113007768"><ele>380.0</ele><time>2026-05-04T11:42:13Z</time></trkpt><trkpt lat="41.13826163570558" lon="14.64288422209344"><ele>380.0</ele><time>2026-05-04T11:42:14Z</time></trkpt><trkpt lat="41.13835754005914" lon="14.642820015096516"><ele>380.0</ele><time>2026-05-04T11:42:15Z</time></trkpt><trkpt lat="41.138446603842134" lon="14.642767725083155"><ele>380.0</ele><time>2026-05-04T11:42:16Z</time></trkpt><trkpt lat="41.13853156447001" lon="14.642722810352522"><ele>377.8</ele><time>2026-05-04T11:42:17Z</time></trkpt><trkpt lat="41.138618950809445" lon="14.642693142776666"><ele>375.6</ele><time>2026-05-04T11:42:18Z</time></trkpt><trkpt lat="41.13872062886925" lon="14.642682127216757"><ele>373.4</ele><time>2026-05-04T11:42:19Z</time></trkpt><trkpt lat="41.13882785209983" lon="14.642712648874427"><ele>371.2</ele><time>2026-05-04T11:42:20Z</time></trkpt><trkpt lat="41.13896610420683" lon="14.642775486016841"><ele>369.0</ele><time>2026-05-04T11:42:21Z</time></trkpt><trkpt lat="41.139088497657895" lon="14.642822374791967"><ele>366.75</ele><time>2026-05-04T11:42:22Z</time></trkpt><trkpt lat="41.13923271625502" lon="14.642856223677015"><ele>364.5</ele><time>2026-05-04T11:42:23Z</time></trkpt><trkpt lat="41.1393720987454" lon="14.642880429380773"><ele>362.25</ele><time>2026-05-04T11:42:24Z</time></trkpt><trkpt lat="41.13951039560432" lon="14.64289048606078"><ele>360.0</ele><time>2026-05-04T11:42:25Z</time></trkpt><trkpt lat="41.139643476541856" lon="14.642899309420464"><ele>360.0</ele><time>2026-05-04T11:42:26Z</time></trkpt><trkpt lat="41.13977741324372" lon="14.642918123185037"><ele>360.0</ele><time>2026-05-04T11:42:27Z</time></trkpt><trkpt lat="41.13991762714858" lon="14.642933057301077"><ele>360.0</ele><time>2026-05-04T11:42:28Z</time></trkpt><trkpt lat="41.140057041353295" lon="14.64294449558301"><ele>360.0</ele><time>2026-05-04T11:42:29Z</time></trkpt><trkpt lat="41.14018433728234" lon="14.64295927485383"><ele>356.0</ele><time>2026-05-04T11:42:30Z</time></trkpt><trkpt lat="41.14031654542484" lon="14.642973842375632"><ele>352.0</ele><time>2026-05-04T11:42:31Z</time></trkpt><trkpt lat="41.14046150650951" lon="14.643013671124818"><ele>348.0</ele><time>2026-05-04T11:42:32Z</time></trkpt><trkpt lat="41.14062603315192" lon="14.643023059945355"><ele>344.0</ele><time>2026-05-04T11:42:33Z</time></trkpt><trkpt lat="41.140772190823256" lon="14.643049165401289"><ele>342.0</ele><time>2026-05-04T11:42:34Z</time></trkpt><trkpt lat="41.14090582395161" lon="14.643082251575317"><ele>340.0</ele><time>2026-05-04T11:42:35Z</time></trkpt><trkpt lat="41.14104096857716" lon="14.643079185174475"><ele>338.0</ele><time>2026-05-04T11:42:36Z</time></trkpt><trkpt lat="41.14116337896187" lon="14.643049625208851"><ele>336.0</ele><time>2026-05-04T11:42:37Z</time></trkpt><trkpt lat="41.14128798832378" lon="14.642994103426863"><ele>336.0</ele><time>2026-05-04T11:42:38Z</time></trkpt><trkpt lat="41.141416266480874" lon="14.642913714002901"><ele>336.0</ele><time>2026-05-04T11:42:39Z</time></trkpt><trkpt lat="41.14154846829511" lon="14.64284980941392"><ele>336.0</ele><time>2026-05-04T11:42:40Z</time></trkpt><trkpt lat="41.14167839538596" lon="14.64276992182239"><ele>336.0</ele><time>2026-05-04T11:42:41Z</time></trkpt><trkpt lat="41.14180775836567" lon="14.642668548565576"><ele>333.0</ele><time>2026-05-04T11:42:42Z</time></trkpt><trkpt lat="41.14194805049558" lon="14.642592939948543"><ele>330.0</ele><time>2026-05-04T11:42:43Z</time></trkpt><trkpt lat="41.14209727349083" lon="14.642533960814262"><ele>327.0</ele><time>2026-05-04T11:42:44Z</time></trkpt><trkpt lat="41.1422603572742" lon="14.642501688231926"><ele>320.0</ele><time>2026-05-04T11:42:45Z</time></trkpt><trkpt lat="41.142426791425706" lon="14.642500210066208"><ele>313.0</ele><time>2026-05-04T11:42:46Z</time></trkpt><trkpt lat="41.14258758038847" lon="14.642514300466068"><ele>306.0</ele><time>2026-05-04T11:42:47Z</time></trkpt><trkpt lat="41.14274007197401" lon="14.642522895324232"><ele>306.0</ele><time>2026-05-04T11:42:48Z</time></trkpt><trkpt lat="41.14289793345236" lon="14.642520285004933"><ele>306.0</ele><time>2026-05-04T11:42:49Z</time></trkpt><trkpt lat="41.14303051820271" lon="14.642509497007714"><ele>306.0</ele><time>2026-05-04T11:42:50Z</time></trkpt><trkpt lat="41.14315348520809" lon="14.642471446814485"><ele>306.0</ele><time>2026-05-04T11:42:51Z</time></trkpt><trkpt lat="41.14326258827604" lon="14.642393258380968"><ele>303.2</ele><time>2026-05-04T11:42:52Z</time></trkpt><trkpt lat="41.143353438818515" lon="14.642303121379676"><ele>300.40000000000003</ele><time>2026-05-04T11:42:53Z</time></trkpt><trkpt lat="41.143439192613414" lon="14.642221249624965"><ele>297.6</ele><time>2026-05-04T11:42:54Z</time></trkpt><trkpt lat="41.14351890836493" lon="14.642149131929743"><ele>294.8</ele><time>2026-05-04T11:42:55Z</time></trkpt><trkpt lat="41.14358298432109" lon="14.642101307239335"><ele>292.0</ele><time>2026-05-04T11:42:56Z</time></trkpt><trkpt lat="41.143649795146516" lon="14.642044700725751"><ele>292.0</ele><time>2026-05-04T11:43:00Z</time></trkpt><trkpt lat="41.14380653082218" lon="14.642043802609289"><ele>292.0</ele><time>2026-05-04T11:43:02Z</time></trkpt><trkpt lat="41.14388035368036" lon="14.64211797705221"><ele>292.0</ele><time>2026-05-04T11:43:03Z</time></trkpt><trkpt lat="41.143974077748325" lon="14.642196987680654"><ele>292.0</ele><time>2026-05-04T11:43:04Z</time></trkpt><trkpt lat="41.1440813320409" lon="14.642267499100729"><ele>293.75</ele><time>2026-05-04T11:43:05Z</time></trkpt><trkpt lat="41.144188576574045" lon="14.642336785817132"><ele>295.5</ele><time>2026-05-04T11:43:06Z</time></trkpt><trkpt lat="41.14430350103587" lon="14.642379891036313"><ele>297.25</ele><time>2026-05-04T11:43:07Z</time></trkpt><trkpt lat="41.14441666823903" lon="14.642400800851087"><ele>299.0</ele><time>2026-05-04T11:43:08Z</time></trkpt><trkpt lat="41.1445269368532" lon="14.64242203490395"><ele>299.0</ele><time>2026-05-04T11:43:09Z</time></trkpt><trkpt lat="41.144638476846744" lon="14.64241327903752"><ele>299.0</ele><time>2026-05-04T11:43:10Z</time></trkpt><trkpt lat="41.14474790303552" lon="14.64242682850697"><ele>299.0</ele><time>2026-05-04T11:43:11Z</time></trkpt><trkpt lat="41.144867034853135" lon="14.642454746452179"><ele>299.0</ele><time>2026-05-04T11:43:12Z</time></trkpt><trkpt lat="41.144992358634674" lon="14.642487132266726"><ele>302.5</ele><time>2026-05-04T11:43:13Z</time></trkpt><trkpt lat="41.14513576141549" lon="14.642517644381687"><ele>306.0</ele><time>2026-05-04T11:43:14Z</time></trkpt><trkpt lat="41.1452836796875" lon="14.642534862848862"><ele>309.5</ele><time>2026-05-04T11:43:15Z</time></trkpt><trkpt lat="41.14542089026379" lon="14.642543969689457"><ele>313.0</ele><time>2026-05-04T11:43:16Z</time></trkpt><trkpt lat="41.14553326873599" lon="14.642543185986625"><ele>313.0</ele><time>2026-05-04T11:43:17Z</time></trkpt><trkpt lat="41.145635638940725" lon="14.642541044895642"><ele>313.0</ele><time>2026-05-04T11:43:18Z</time></trkpt><trkpt lat="41.145741648709866" lon="14.642540799308811"><ele>313.0</ele><time>2026-05-04T11:43:19Z</time></trkpt><trkpt lat="41.14584638492821" lon="14.642578901756934"><ele>313.0</ele><time>2026-05-04T11:43:20Z</time></trkpt><trkpt lat="41.14594974770935" lon="14.642607906210323"><ele>313.0</ele><time>2026-05-04T11:43:21Z</time></trkpt><trkpt lat="41.146078599688565" lon="14.642638316169693"><ele>312.5</ele><time>2026-05-04T11:43:22Z</time></trkpt><trkpt lat="41.14619134304412" lon="14.642693983337802"><ele>312.0</ele><time>2026-05-04T11:43:23Z</time></trkpt><trkpt lat="41.1462757181679" lon="14.642737895262341"><ele>311.5</ele><time>2026-05-04T11:43:24Z</time></trkpt><trkpt lat="41.14634609335325" lon="14.642772219331658"><ele>311.0</ele><time>2026-05-04T11:43:25Z</time></trkpt><trkpt lat="41.14640790876863" lon="14.64282541066701"><ele>310.5</ele><time>2026-05-04T11:43:26Z</time></trkpt><trkpt lat="41.14647955575332" lon="14.642852260376422"><ele>310.0</ele><time>2026-05-04T11:43:27Z</time></trkpt><trkpt lat="41.14653767439452" lon="14.642909192355209"><ele>312.2</ele><time>2026-05-04T11:43:28Z</time></trkpt><trkpt lat="41.146601526526105" lon="14.642961688749065"><ele>314.4</ele><time>2026-05-04T11:43:29Z</time></trkpt><trkpt lat="41.14665677114484" lon="14.643007533722285"><ele>316.6</ele><time>2026-05-04T11:43:30Z</time></trkpt><trkpt lat="41.14672901948533" lon="14.643071413440973"><ele>318.8</ele><time>2026-05-04T11:43:32Z</time></trkpt><trkpt lat="41.146835051447695" lon="14.643090830900109"><ele>321.0</ele><time>2026-05-04T11:43:41Z</time></trkpt><trkpt lat="41.14695506441341" lon="14.64299442796818"><ele>321.0</ele><time>2026-05-04T11:43:43Z</time></trkpt><trkpt lat="41.14703732717797" lon="14.642957054963254"><ele>321.0</ele><time>2026-05-04T11:43:44Z</time></trkpt><trkpt lat="41.14712974786288" lon="14.642940267021702"><ele>321.0</ele><time>2026-05-04T11:43:45Z</time></trkpt><trkpt lat="41.14724047589424" lon="14.64292687185101"><ele>321.0</ele><time>2026-05-04T11:43:46Z</time></trkpt><trkpt lat="41.1473436509684" lon="14.642928259185442"><ele>321.0</ele><time>2026-05-04T11:43:47Z</time></trkpt><trkpt lat="41.14744344827519" lon="14.642917596124834"><ele>321.75</ele><time>2026-05-04T11:43:48Z</time></trkpt><trkpt lat="41.14755138653935" lon="14.642909265261626"><ele>322.5</ele><time>2026-05-04T11:43:49Z</time></trkpt><trkpt lat="41.14766785339703" lon="14.642892669955899"><ele>323.25</ele><time>2026-05-04T11:43:50Z</time></trkpt><trkpt lat="41.14778010098828" lon="14.64286177689281"><ele>324.0</ele><time>2026-05-04T11:43:51Z</time></trkpt><trkpt lat="41.14789070845582" lon="14.642800388390988"><ele>325.0</ele><time>2026-05-04T11:43:52Z</time></trkpt><trkpt lat="41.147980686214645" lon="14.642717639287662"><ele>326.0</ele><time>2026-05-04T11:43:53Z</time></trkpt><trkpt lat="41.14807129213079" lon="14.642644795941255"><ele>327.0</ele><time>2026-05-04T11:43:54Z</time></trkpt><trkpt lat="41.148145805186395" lon="14.642550587020562"><ele>328.0</ele><time>2026-05-04T11:43:55Z</time></trkpt><trkpt lat="41.14823872234364" lon="14.642555774261584"><ele>329.0</ele><time>2026-05-04T11:43:56Z</time></trkpt><trkpt lat="41.14833491266323" lon="14.642505285774158"><ele>329.0</ele><time>2026-05-04T11:43:57Z</time></trkpt><trkpt lat="41.148438935410105" lon="14.642454122428889"><ele>329.0</ele><time>2026-05-04T11:43:58Z</time></trkpt><trkpt lat="41.148562985036286" lon="14.642461572589465"><ele>329.0</ele><time>2026-05-04T11:43:59Z</time></trkpt><trkpt lat="41.14868519432886" lon="14.642455876801003"><ele>329.0</ele><time>2026-05-04T11:44:00Z</time></trkpt><trkpt lat="41.14879317698487" lon="14.642423275772376"><ele>329.0</ele><time>2026-05-04T11:44:01Z</time></trkpt><trkpt lat="41.148868419413525" lon="14.642332921707267"><ele>329.0</ele><time>2026-05-04T11:44:02Z</time></trkpt><trkpt lat="41.14895909149186" lon="14.64230376726429"><ele>329.0</ele><time>2026-05-04T11:44:04Z</time></trkpt><trkpt lat="41.1490210591513" lon="14.642524256980483"><ele>329.0</ele><time>2026-05-04T11:44:08Z</time></trkpt><trkpt lat="41.14904536398272" lon="14.642644543714107"><ele>328.33333333333337</ele><time>2026-05-04T11:44:09Z</time></trkpt><trkpt lat="41.14909054462196" lon="14.642728322484775"><ele>327.6666666666667</ele><time>2026-05-04T11:44:10Z</time></trkpt><trkpt lat="41.1491652225016" lon="14.64277007111365"><ele>327.0</ele><time>2026-05-04T11:44:11Z</time></trkpt><trkpt lat="41.14926563743727" lon="14.642763373488267"><ele>326.3333333333333</ele><time>2026-05-04T11:44:12Z</time></trkpt><trkpt lat="41.14936102720259" lon="14.642714577687364"><ele>325.66666666666663</ele><time>2026-05-04T11:44:13Z</time></trkpt><trkpt lat="41.149440558773634" lon="14.642683795471859"><ele>325.0</ele><time>2026-05-04T11:44:14Z</time></trkpt><trkpt lat="41.149516118467616" lon="14.64266243257995"><ele>325.0</ele><time>2026-05-04T11:44:15Z</time></trkpt><trkpt lat="41.14958309280709" lon="14.642658033688258"><ele>325.0</ele><time>2026-05-04T11:44:16Z</time></trkpt><trkpt lat="41.14965464369412" lon="14.6428216720484"><ele>325.0</ele><time>2026-05-04T11:44:18Z</time></trkpt><trkpt lat="41.14966255951622" lon="14.642939826209268"><ele>325.0</ele><time>2026-05-04T11:44:19Z</time></trkpt><trkpt lat="41.14967131011124" lon="14.64303701739269"><ele>325.0</ele><time>2026-05-04T11:44:20Z</time></trkpt><trkpt lat="41.14969832358102" lon="14.643163889456371"><ele>322.6</ele><time>2026-05-04T11:44:22Z</time></trkpt><trkpt lat="41.149753844682245" lon="14.643215310709817"><ele>320.2</ele><time>2026-05-04T11:44:23Z</time></trkpt><trkpt lat="41.149860242429504" lon="14.643307924117837"><ele>317.8</ele><time>2026-05-04T11:44:24Z</time></trkpt><trkpt lat="41.14994965667416" lon="14.643399300420015"><ele>315.4</ele><time>2026-05-04T11:44:25Z</time></trkpt><trkpt lat="41.15000259193011" lon="14.643452512482163"><ele>313.0</ele><time>2026-05-04T11:44:26Z</time></trkpt><trkpt lat="41.150051450686675" lon="14.643536537519376"><ele>312.4</ele><time>2026-05-04T11:44:28Z</time></trkpt><trkpt lat="41.15010383122149" lon="14.643593154246092"><ele>311.8</ele><time>2026-05-04T11:44:29Z</time></trkpt><trkpt lat="41.150173898921366" lon="14.643686888310341"><ele>311.2</ele><time>2026-05-04T11:44:30Z</time></trkpt><trkpt lat="41.150269384356726" lon="14.643805385274943"><ele>310.6</ele><time>2026-05-04T11:44:31Z</time></trkpt><trkpt lat="41.150375141713724" lon="14.643937013105097"><ele>310.0</ele><time>2026-05-04T11:44:32Z</time></trkpt><trkpt lat="41.15047644503671" lon="14.644062561520052"><ele>309.0</ele><time>2026-05-04T11:44:33Z</time></trkpt><trkpt lat="41.1505500375104" lon="14.644194393564792"><ele>308.0</ele><time>2026-05-04T11:44:34Z</time></trkpt><trkpt lat="41.150613438630316" lon="14.64435397990948"><ele>307.0</ele><time>2026-05-04T11:44:35Z</time></trkpt><trkpt lat="41.1506549722716" lon="14.644545681656364"><ele>306.0</ele><time>2026-05-04T11:44:36Z</time></trkpt><trkpt lat="41.15072560767389" lon="14.644733759429956"><ele>305.3333333333333</ele><time>2026-05-04T11:44:37Z</time></trkpt><trkpt lat="41.1507795006212" lon="14.644933166035461"><ele>304.66666666666663</ele><time>2026-05-04T11:44:38Z</time></trkpt><trkpt lat="41.15083874328469" lon="14.645129344571485"><ele>304.0</ele><time>2026-05-04T11:44:39Z</time></trkpt><trkpt lat="41.15088298018997" lon="14.645311570637533"><ele>302.25</ele><time>2026-05-04T11:44:40Z</time></trkpt><trkpt lat="41.15091503268681" lon="14.645488745031786"><ele>300.5</ele><time>2026-05-04T11:44:41Z</time></trkpt><trkpt lat="41.150931105465496" lon="14.645660401163019"><ele>298.75</ele><time>2026-05-04T11:44:42Z</time></trkpt><trkpt lat="41.15092166563973" lon="14.645837654062818"><ele>297.0</ele><time>2026-05-04T11:44:43Z</time></trkpt><trkpt lat="41.150922378544365" lon="14.645997194364556"><ele>296.0</ele><time>2026-05-04T11:44:44Z</time></trkpt><trkpt lat="41.15091116880147" lon="14.646180929698472"><ele>295.0</ele><time>2026-05-04T11:44:45Z</time></trkpt><trkpt lat="41.15090389652755" lon="14.646352418168348"><ele>294.0</ele><time>2026-05-04T11:44:46Z</time></trkpt><trkpt lat="41.150898937550835" lon="14.646510939978347"><ele>293.0</ele><time>2026-05-04T11:44:47Z</time></trkpt><trkpt lat="41.15090079054423" lon="14.646690859737094"><ele>293.0</ele><time>2026-05-04T11:44:48Z</time></trkpt><trkpt lat="41.1509298834196" lon="14.64684172762705"><ele>293.0</ele><time>2026-05-04T11:44:49Z</time></trkpt><trkpt lat="41.15095157693601" lon="14.646980182252314"><ele>293.0</ele><time>2026-05-04T11:44:50Z</time></trkpt><trkpt lat="41.15098783458743" lon="14.647106042694567"><ele>293.0</ele><time>2026-05-04T11:44:51Z</time></trkpt><trkpt lat="41.15102061087576" lon="14.647222168837416"><ele>293.0</ele><time>2026-05-04T11:44:52Z</time></trkpt><trkpt lat="41.15104993797036" lon="14.647331195108466"><ele>292.33333333333337</ele><time>2026-05-04T11:44:53Z</time></trkpt><trkpt lat="41.151064572323584" lon="14.647446843405776"><ele>291.6666666666667</ele><time>2026-05-04T11:44:54Z</time></trkpt><trkpt lat="41.15108972620963" lon="14.647544489068707"><ele>291.0</ele><time>2026-05-04T11:44:55Z</time></trkpt><trkpt lat="41.1511117277142" lon="14.647626349251865"><ele>290.3333333333333</ele><time>2026-05-04T11:44:56Z</time></trkpt><trkpt lat="41.15113982534761" lon="14.64773231348364"><ele>289.66666666666663</ele><time>2026-05-04T11:44:57Z</time></trkpt><trkpt lat="41.15117761483353" lon="14.647874828491664"><ele>289.0</ele><time>2026-05-04T11:44:58Z</time></trkpt><trkpt lat="41.15123832734982" lon="14.648037197515732"><ele>289.0</ele><time>2026-05-04T11:44:59Z</time></trkpt><trkpt lat="41.15128242338859" lon="14.648220341396918"><ele>289.0</ele><time>2026-05-04T11:45:00Z</time></trkpt><trkpt lat="41.15130801597869" lon="14.64843596383048"><ele>289.0</ele><time>2026-05-04T11:45:01Z</time></trkpt><trkpt lat="41.151344481307504" lon="14.648675353762076"><ele>289.0</ele><time>2026-05-04T11:45:02Z</time></trkpt><trkpt lat="41.151409815773874" lon="14.64888896785537"><ele>289.0</ele><time>2026-05-04T11:45:03Z</time></trkpt><trkpt lat="41.15147555958555" lon="14.649070057006652"><ele>289.0</ele><time>2026-05-04T11:45:04Z</time></trkpt><trkpt lat="41.15156113339777" lon="14.649239279644979"><ele>288.8</ele><time>2026-05-04T11:45:05Z</time></trkpt><trkpt lat="41.15161631237546" lon="14.649387500610228"><ele>288.59999999999997</ele><time>2026-05-04T11:45:06Z</time></trkpt><trkpt lat="41.15166766176329" lon="14.649513965229445"><ele>288.4</ele><time>2026-05-04T11:45:07Z</time></trkpt><trkpt lat="41.15170662490916" lon="14.649631271012078"><ele>288.2</ele><time>2026-05-04T11:45:08Z</time></trkpt><trkpt lat="41.151740602437826" lon="14.64973738250847"><ele>288.0</ele><time>2026-05-04T11:45:09Z</time></trkpt><trkpt lat="41.151785152280844" lon="14.649853590825495"><ele>288.0</ele><time>2026-05-04T11:45:10Z</time></trkpt><trkpt lat="41.15184649668656" lon="14.649980712733505"><ele>288.0</ele><time>2026-05-04T11:45:11Z</time></trkpt><trkpt lat="41.1519432914703" lon="14.650133500975032"><ele>288.0</ele><time>2026-05-04T11:45:12Z</time></trkpt><trkpt lat="41.152076887040465" lon="14.650337107052415"><ele>287.6666666666667</ele><time>2026-05-04T11:45:13Z</time></trkpt><trkpt lat="41.15219765034409" lon="14.650548897307145"><ele>287.33333333333337</ele><time>2026-05-04T11:45:14Z</time></trkpt><trkpt lat="41.15229582403983" lon="14.650753080426504"><ele>287.0</ele><time>2026-05-04T11:45:15Z</time></trkpt><trkpt lat="41.15238564804398" lon="14.650942464405583"><ele>286.33333333333337</ele><time>2026-05-04T11:45:16Z</time></trkpt><trkpt lat="41.15249710427809" lon="14.651089266900426"><ele>285.6666666666667</ele><time>2026-05-04T11:45:17Z</time></trkpt><trkpt lat="41.1526394011419" lon="14.651212201717035"><ele>285.0</ele><time>2026-05-04T11:45:18Z</time></trkpt><trkpt lat="41.152799116456066" lon="14.651311312262372"><ele>283.3333333333333</ele><time>2026-05-04T11:45:19Z</time></trkpt><trkpt lat="41.15294779087685" lon="14.65139886160208"><ele>281.66666666666663</ele><time>2026-05-04T11:45:20Z</time></trkpt><trkpt lat="41.15305865401502" lon="14.65152913049426"><ele>280.0</ele><time>2026-05-04T11:45:21Z</time></trkpt><trkpt lat="41.153148750882934" lon="14.651690651486815"><ele>280.0</ele><time>2026-05-04T11:45:22Z</time></trkpt><trkpt lat="41.1531752449491" lon="14.651905508958135"><ele>280.0</ele><time>2026-05-04T11:45:23Z</time></trkpt><trkpt lat="41.15324052801056" lon="14.652121707033407"><ele>280.0</ele><time>2026-05-04T11:45:24Z</time></trkpt><trkpt lat="41.1532885685017" lon="14.652335582087455"><ele>279.3333333333333</ele><time>2026-05-04T11:45:25Z</time></trkpt><trkpt lat="41.15338082119826" lon="14.652528231860376"><ele>278.6666666666667</ele><time>2026-05-04T11:45:26Z</time></trkpt><trkpt lat="41.153515613686785" lon="14.652725643729346"><ele>278.0</ele><time>2026-05-04T11:45:27Z</time></trkpt><trkpt lat="41.15367574028583" lon="14.652944056464493"><ele>277.0</ele><time>2026-05-04T11:45:28Z</time></trkpt><trkpt lat="41.153794542406764" lon="14.653150874834413"><ele>276.0</ele><time>2026-05-04T11:45:29Z</time></trkpt><trkpt lat="41.1539130488703" lon="14.653304735102491"><ele>275.0</ele><time>2026-05-04T11:45:30Z</time></trkpt><trkpt lat="41.15406955450341" lon="14.65343757004447"><ele>275.0</ele><time>2026-05-04T11:45:31Z</time></trkpt><trkpt lat="41.15422834835598" lon="14.653527298053596"><ele>275.0</ele><time>2026-05-04T11:45:32Z</time></trkpt><trkpt lat="41.15437302482459" lon="14.653597294046572"><ele>275.0</ele><time>2026-05-04T11:45:33Z</time></trkpt><trkpt lat="41.15448799503432" lon="14.65368545606449"><ele>274.4</ele><time>2026-05-04T11:45:34Z</time></trkpt><trkpt lat="41.15457613963264" lon="14.653741763482397"><ele>273.8</ele><time>2026-05-04T11:45:35Z</time></trkpt><trkpt lat="41.15465158882607" lon="14.653797845263188"><ele>273.2</ele><time>2026-05-04T11:45:36Z</time></trkpt><trkpt lat="41.15473778424817" lon="14.65384301664071"><ele>272.6</ele><time>2026-05-04T11:45:37Z</time></trkpt><trkpt lat="41.15483283590263" lon="14.653927333724354"><ele>272.0</ele><time>2026-05-04T11:45:38Z</time></trkpt><trkpt lat="41.15493145961195" lon="14.654046303357735"><ele>272.0</ele><time>2026-05-04T11:45:39Z</time></trkpt><trkpt lat="41.155041269900714" lon="14.654153453670784"><ele>272.0</ele><time>2026-05-04T11:45:40Z</time></trkpt><trkpt lat="41.15514970230882" lon="14.654278730808059"><ele>272.0</ele><time>2026-05-04T11:45:41Z</time></trkpt><trkpt lat="41.15525457244679" lon="14.654410600732907"><ele>272.0</ele><time>2026-05-04T11:45:42Z</time></trkpt><trkpt lat="41.155322380641444" lon="14.654557816787948"><ele>271.0</ele><time>2026-05-04T11:45:43Z</time></trkpt><trkpt lat="41.15536735076381" lon="14.654686455747422"><ele>270.0</ele><time>2026-05-04T11:45:44Z</time></trkpt><trkpt lat="41.155418655956375" lon="14.654810014489618"><ele>269.0</ele><time>2026-05-04T11:45:45Z</time></trkpt><trkpt lat="41.1554850147951" lon="14.654942571550738"><ele>268.0</ele><time>2026-05-04T11:45:46Z</time></trkpt><trkpt lat="41.15556235126044" lon="14.655085522633698"><ele>268.0</ele><time>2026-05-04T11:45:47Z</time></trkpt><trkpt lat="41.155665976603935" lon="14.655227258301336"><ele>268.0</ele><time>2026-05-04T11:45:48Z</time></trkpt><trkpt lat="41.155778073461136" lon="14.655373972045883"><ele>268.0</ele><time>2026-05-04T11:45:49Z</time></trkpt><trkpt lat="41.15588050797077" lon="14.655503901637822"><ele>268.0</ele><time>2026-05-04T11:45:50Z</time></trkpt><trkpt lat="41.15596868190818" lon="14.655628097289739"><ele>268.0</ele><time>2026-05-04T11:45:51Z</time></trkpt><trkpt lat="41.15606057870039" lon="14.655749680291521"><ele>268.0</ele><time>2026-05-04T11:45:52Z</time></trkpt><trkpt lat="41.156162793409685" lon="14.655855626825339"><ele>268.0</ele><time>2026-05-04T11:45:53Z</time></trkpt><trkpt lat="41.156279799872046" lon="14.655941258277542"><ele>268.0</ele><time>2026-05-04T11:45:54Z</time></trkpt><trkpt lat="41.15643041088927" lon="14.656009134101794"><ele>268.0</ele><time>2026-05-04T11:45:55Z</time></trkpt><trkpt lat="41.15661490106766" lon="14.656106141059848"><ele>268.0</ele><time>2026-05-04T11:45:56Z</time></trkpt><trkpt lat="41.15684318697871" lon="14.656207141469844"><ele>268.0</ele><time>2026-05-04T11:45:57Z</time></trkpt><trkpt lat="41.15710473638304" lon="14.656303883921833"><ele>266.0</ele><time>2026-05-04T11:45:58Z</time></trkpt><trkpt lat="41.15735987188975" lon="14.656449976400568"><ele>264.0</ele><time>2026-05-04T11:45:59Z</time></trkpt><trkpt lat="41.157654645830206" lon="14.656609607119085"><ele>263.0</ele><time>2026-05-04T11:46:00Z</time></trkpt><trkpt lat="41.157954877149386" lon="14.656757318606699"><ele>262.0</ele><time>2026-05-04T11:46:01Z</time></trkpt><trkpt lat="41.15818164351715" lon="14.65691336819687"><ele>259.0</ele><time>2026-05-04T11:46:02Z</time></trkpt><trkpt lat="41.15838664470933" lon="14.657042330868626"><ele>256.0</ele><time>2026-05-04T11:46:03Z</time></trkpt><trkpt lat="41.15857390635272" lon="14.657187895623963"><ele>253.0</ele><time>2026-05-04T11:46:04Z</time></trkpt><trkpt lat="41.15873006895888" lon="14.6573318104023"><ele>253.0</ele><time>2026-05-04T11:46:05Z</time></trkpt><trkpt lat="41.158862559117175" lon="14.657453367117347"><ele>253.0</ele><time>2026-05-04T11:46:06Z</time></trkpt><trkpt lat="41.15894750636682" lon="14.65759372942189"><ele>253.0</ele><time>2026-05-04T11:46:07Z</time></trkpt><trkpt lat="41.1589916468607" lon="14.65775735880864"><ele>253.0</ele><time>2026-05-04T11:46:08Z</time></trkpt><trkpt lat="41.159014524832415" lon="14.6579364596279"><ele>253.60000000000002</ele><time>2026-05-04T11:46:09Z</time></trkpt><trkpt lat="41.15903609181548" lon="14.65811115354877"><ele>254.20000000000002</ele><time>2026-05-04T11:46:10Z</time></trkpt><trkpt lat="41.159075524023514" lon="14.65824689901295"><ele>254.8</ele><time>2026-05-04T11:46:11Z</time></trkpt><trkpt lat="41.15910898735518" lon="14.658324910549501"><ele>255.4</ele><time>2026-05-04T11:46:12Z</time></trkpt><trkpt lat="41.159169907021045" lon="14.658454345912212"><ele>256.0</ele><time>2026-05-04T11:46:14Z</time></trkpt><trkpt lat="41.159241925889404" lon="14.658513630704737"><ele>257.5</ele><time>2026-05-04T11:46:15Z</time></trkpt><trkpt lat="41.1593591240467" lon="14.65861934198979"><ele>259.0</ele><time>2026-05-04T11:46:17Z</time></trkpt><trkpt lat="41.15942776211908" lon="14.658752703847146"><ele>260.5</ele><time>2026-05-04T11:46:18Z</time></trkpt><trkpt lat="41.15950488730637" lon="14.658893265136035"><ele>262.0</ele><time>2026-05-04T11:46:19Z</time></trkpt><trkpt lat="41.15956794471834" lon="14.659000008951509"><ele>262.0</ele><time>2026-05-04T11:46:20Z</time></trkpt><trkpt lat="41.15962070353189" lon="14.659079775999134"><ele>262.0</ele><time>2026-05-04T11:46:21Z</time></trkpt><trkpt lat="41.15966444621201" lon="14.659145681721972"><ele>262.0</ele><time>2026-05-04T11:46:22Z</time></trkpt><trkpt lat="41.15970845400446" lon="14.659222070252191"><ele>262.0</ele><time>2026-05-04T11:46:23Z</time></trkpt><trkpt lat="41.159780709083975" lon="14.659331504276281"><ele>262.0</ele><time>2026-05-04T11:46:24Z</time></trkpt><trkpt lat="41.15983055671146" lon="14.65947795498321"><ele>262.0</ele><time>2026-05-04T11:46:25Z</time></trkpt><trkpt lat="41.1599455578816" lon="14.659670804548599"><ele>260.75</ele><time>2026-05-04T11:46:27Z</time></trkpt><trkpt lat="41.16002681246561" lon="14.659796928787864"><ele>259.5</ele><time>2026-05-04T11:46:28Z</time></trkpt><trkpt lat="41.16012560276401" lon="14.659909915092813"><ele>258.25</ele><time>2026-05-04T11:46:29Z</time></trkpt><trkpt lat="41.1602532223474" lon="14.659993581975149"><ele>257.0</ele><time>2026-05-04T11:46:30Z</time></trkpt><trkpt lat="41.16041210987824" lon="14.660039752436672"><ele>257.0</ele><time>2026-05-04T11:46:31Z</time></trkpt><trkpt lat="41.16059112037427" lon="14.660068414905453"><ele>257.0</ele><time>2026-05-04T11:46:32Z</time></trkpt><trkpt lat="41.16073942006882" lon="14.660122852957983"><ele>257.0</ele><time>2026-05-04T11:46:33Z</time></trkpt><trkpt lat="41.160851610299694" lon="14.660212016745502"><ele>257.0</ele><time>2026-05-04T11:46:34Z</time></trkpt><trkpt lat="41.16091486628125" lon="14.660355221585258"><ele>257.0</ele><time>2026-05-04T11:46:35Z</time></trkpt><trkpt lat="41.16094190268671" lon="14.66052340562536"><ele>257.0</ele><time>2026-05-04T11:46:36Z</time></trkpt><trkpt lat="41.16095087484358" lon="14.660719259088367"><ele>257.0</ele><time>2026-05-04T11:46:37Z</time></trkpt><trkpt lat="41.160967585696575" lon="14.660937806099366"><ele>258.6666666666667</ele><time>2026-05-04T11:46:38Z</time></trkpt><trkpt lat="41.16103365015704" lon="14.661126970995156"><ele>260.3333333333333</ele><time>2026-05-04T11:46:39Z</time></trkpt><trkpt lat="41.16113674943813" lon="14.661324376316351"><ele>262.0</ele><time>2026-05-04T11:46:40Z</time></trkpt><trkpt lat="41.161250256832915" lon="14.661533205534791"><ele>262.0</ele><time>2026-05-04T11:46:41Z</time></trkpt><trkpt lat="41.1613653209719" lon="14.66173907835983"><ele>262.0</ele><time>2026-05-04T11:46:42Z</time></trkpt><trkpt lat="41.161469384256456" lon="14.66192426604811"><ele>262.0</ele><time>2026-05-04T11:46:43Z</time></trkpt><trkpt lat="41.16154138163168" lon="14.66207434395798"><ele>264.5</ele><time>2026-05-04T11:46:44Z</time></trkpt><trkpt lat="41.161580696485544" lon="14.662208713826146"><ele>267.0</ele><time>2026-05-04T11:46:45Z</time></trkpt><trkpt lat="41.161610205013496" lon="14.662336328020745"><ele>269.5</ele><time>2026-05-04T11:46:46Z</time></trkpt><trkpt lat="41.161623452635574" lon="14.662481394544988"><ele>272.0</ele><time>2026-05-04T11:46:47Z</time></trkpt><trkpt lat="41.16166463857346" lon="14.662649179614057"><ele>272.0</ele><time>2026-05-04T11:46:48Z</time></trkpt><trkpt lat="41.161728660714" lon="14.662816969832765"><ele>272.0</ele><time>2026-05-04T11:46:49Z</time></trkpt><trkpt lat="41.16180985698503" lon="14.662980186269357"><ele>272.0</ele><time>2026-05-04T11:46:50Z</time></trkpt><trkpt lat="41.161896984254284" lon="14.663142312999046"><ele>272.0</ele><time>2026-05-04T11:46:51Z</time></trkpt><trkpt lat="41.16198316369428" lon="14.663305706157361"><ele>272.0</ele><time>2026-05-04T11:46:52Z</time></trkpt><trkpt lat="41.16206433084114" lon="14.663480735206853"><ele>272.0</ele><time>2026-05-04T11:46:53Z</time></trkpt><trkpt lat="41.1621305387297" lon="14.663643758752674"><ele>272.0</ele><time>2026-05-04T11:46:54Z</time></trkpt><trkpt lat="41.162181090530574" lon="14.66378962823231"><ele>272.0</ele><time>2026-05-04T11:46:55Z</time></trkpt><trkpt lat="41.16218462777296" lon="14.663940773905441"><ele>271.5</ele><time>2026-05-04T11:46:56Z</time></trkpt><trkpt lat="41.16216906181615" lon="14.664097204024893"><ele>271.0</ele><time>2026-05-04T11:46:57Z</time></trkpt><trkpt lat="41.1621526469795" lon="14.66428594453768"><ele>270.5</ele><time>2026-05-04T11:46:58Z</time></trkpt><trkpt lat="41.16208270528983" lon="14.66445939393049"><ele>270.0</ele><time>2026-05-04T11:46:59Z</time></trkpt><trkpt lat="41.16201884693557" lon="14.664658332747033"><ele>271.0</ele><time>2026-05-04T11:47:00Z</time></trkpt><trkpt lat="41.16195814553572" lon="14.664817710912697"><ele>272.0</ele><time>2026-05-04T11:47:01Z</time></trkpt><trkpt lat="41.161907605384044" lon="14.664982118926384"><ele>273.0</ele><time>2026-05-04T11:47:02Z</time></trkpt><trkpt lat="41.16188027094341" lon="14.665156053045418"><ele>274.0</ele><time>2026-05-04T11:47:03Z</time></trkpt><trkpt lat="41.161869939582544" lon="14.665335989273764"><ele>276.25</ele><time>2026-05-04T11:47:04Z</time></trkpt><trkpt lat="41.16187546804948" lon="14.665512478160299"><ele>278.5</ele><time>2026-05-04T11:47:05Z</time></trkpt><trkpt lat="41.16187034048072" lon="14.665687422344938"><ele>280.75</ele><time>2026-05-04T11:47:06Z</time></trkpt><trkpt lat="41.16184166572905" lon="14.665846375099289"><ele>283.0</ele><time>2026-05-04T11:47:07Z</time></trkpt><trkpt lat="41.16177215302319" lon="14.66597089978392"><ele>283.0</ele><time>2026-05-04T11:47:08Z</time></trkpt><trkpt lat="41.16173101212397" lon="14.666097010836712"><ele>283.0</ele><time>2026-05-04T11:47:09Z</time></trkpt><trkpt lat="41.1617010981031" lon="14.66622764686659"><ele>283.0</ele><time>2026-05-04T11:47:10Z</time></trkpt><trkpt lat="41.161683506501696" lon="14.666367298302916"><ele>283.0</ele><time>2026-05-04T11:47:11Z</time></trkpt><trkpt lat="41.161685981122474" lon="14.666516035535313"><ele>283.0</ele><time>2026-05-04T11:47:12Z</time></trkpt><trkpt lat="41.161656963194616" lon="14.666653451935902"><ele>284.25</ele><time>2026-05-04T11:47:13Z</time></trkpt><trkpt lat="41.161644769982026" lon="14.66681549399193"><ele>285.5</ele><time>2026-05-04T11:47:14Z</time></trkpt><trkpt lat="41.16163159763444" lon="14.66701547805609"><ele>286.75</ele><time>2026-05-04T11:47:15Z</time></trkpt><trkpt lat="41.16161279160082" lon="14.667197105073203"><ele>288.0</ele><time>2026-05-04T11:47:16Z</time></trkpt><trkpt lat="41.16158755609439" lon="14.66739034080944"><ele>289.5</ele><time>2026-05-04T11:47:17Z</time></trkpt><trkpt lat="41.16156772400495" lon="14.667580234510515"><ele>291.0</ele><time>2026-05-04T11:47:18Z</time></trkpt><trkpt lat="41.16154859967475" lon="14.667763351399032"><ele>292.5</ele><time>2026-05-04T11:47:19Z</time></trkpt><trkpt lat="41.16154118270821" lon="14.667964236905721"><ele>294.0</ele><time>2026-05-04T11:47:20Z</time></trkpt><trkpt lat="41.16151181899749" lon="14.668175856512942"><ele>294.25</ele><time>2026-05-04T11:47:21Z</time></trkpt><trkpt lat="41.16149911022039" lon="14.668384965434122"><ele>294.5</ele><time>2026-05-04T11:47:22Z</time></trkpt><trkpt lat="41.16147860356595" lon="14.668551194546733"><ele>294.75</ele><time>2026-05-04T11:47:23Z</time></trkpt><trkpt lat="41.161479218227704" lon="14.668703711325264"><ele>295.0</ele><time>2026-05-04T11:47:24Z</time></trkpt><trkpt lat="41.16147697654227" lon="14.668867108049392"><ele>297.5</ele><time>2026-05-04T11:47:25Z</time></trkpt><trkpt lat="41.161478654681446" lon="14.669038963055225"><ele>300.0</ele><time>2026-05-04T11:47:26Z</time></trkpt><trkpt lat="41.16146276029791" lon="14.66921536611145"><ele>302.5</ele><time>2026-05-04T11:47:27Z</time></trkpt><trkpt lat="41.161444220358334" lon="14.669385203483541"><ele>305.0</ele><time>2026-05-04T11:47:28Z</time></trkpt><trkpt lat="41.161424341482586" lon="14.669561485309403"><ele>306.8</ele><time>2026-05-04T11:47:29Z</time></trkpt><trkpt lat="41.16142305124844" lon="14.669734702807695"><ele>308.6</ele><time>2026-05-04T11:47:30Z</time></trkpt><trkpt lat="41.16141651138784" lon="14.669881221864296"><ele>310.4</ele><time>2026-05-04T11:47:31Z</time></trkpt><trkpt lat="41.1614067985385" lon="14.66999007686239"><ele>312.2</ele><time>2026-05-04T11:47:32Z</time></trkpt><trkpt lat="41.16138927546781" lon="14.670106208215367"><ele>314.0</ele><time>2026-05-04T11:47:34Z</time></trkpt><trkpt lat="41.161438662681356" lon="14.67016688191202"><ele>315.5</ele><time>2026-05-04T11:47:36Z</time></trkpt><trkpt lat="41.16153526509097" lon="14.670136104827412"><ele>317.0</ele><time>2026-05-04T11:47:39Z</time></trkpt><trkpt lat="41.161633496326075" lon="14.670098777824908"><ele>318.5</ele><time>2026-05-04T11:47:41Z</time></trkpt><trkpt lat="41.16154885702768" lon="14.670252478224505"><ele>320.0</ele><time>2026-05-04T11:47:45Z</time></trkpt><trkpt lat="41.16146244948992" lon="14.67035376381922"><ele>320.0</ele><time>2026-05-04T11:47:46Z</time></trkpt><trkpt lat="41.16140206329799" lon="14.670449039467268"><ele>320.0</ele><time>2026-05-04T11:47:47Z</time></trkpt><trkpt lat="41.161371283952136" lon="14.670546464793128"><ele>320.0</ele><time>2026-05-04T11:47:48Z</time></trkpt><trkpt lat="41.16134165980776" lon="14.670640338742523"><ele>320.0</ele><time>2026-05-04T11:47:49Z</time></trkpt><trkpt lat="41.16131771006059" lon="14.670721688641208"><ele>320.0</ele><time>2026-05-04T11:47:50Z</time></trkpt><trkpt lat="41.16140191173184" lon="14.670796564038488"><ele>320.0</ele><time>2026-05-04T11:47:55Z</time></trkpt><trkpt lat="41.16148135734476" lon="14.670824507952624"><ele>320.0</ele><time>2026-05-04T11:47:57Z</time></trkpt><trkpt lat="41.16141861459933" lon="14.670799862682674"><ele>320.0</ele><time>2026-05-04T11:48:10Z</time></trkpt><trkpt lat="41.16135462425391" lon="14.670776007776"><ele>320.0</ele><time>2026-05-04T11:48:12Z</time></trkpt><trkpt lat="41.1612774245838" lon="14.670854514531024"><ele>320.0</ele><time>2026-05-04T11:48:14Z</time></trkpt><trkpt lat="41.161218830362515" lon="14.67093591851159"><ele>320.0</ele><time>2026-05-04T11:48:15Z</time></trkpt><trkpt lat="41.1611634772391" lon="14.671015137053558"><ele>320.0</ele><time>2026-05-04T11:48:16Z</time></trkpt><trkpt lat="41.161083558745865" lon="14.671086890586032"><ele>320.75</ele><time>2026-05-04T11:48:17Z</time></trkpt><trkpt lat="41.1609949701184" lon="14.671154018449531"><ele>321.5</ele><time>2026-05-04T11:48:18Z</time></trkpt><trkpt lat="41.16088897189272" lon="14.671209980897506"><ele>322.25</ele><time>2026-05-04T11:48:19Z</time></trkpt><trkpt lat="41.160764976030414" lon="14.671240164720842"><ele>323.0</ele><time>2026-05-04T11:48:20Z</time></trkpt><trkpt lat="41.1606568749855" lon="14.671252123387967"><ele>323.2</ele><time>2026-05-04T11:48:21Z</time></trkpt><trkpt lat="41.16056030996752" lon="14.67123219681747"><ele>323.4</ele><time>2026-05-04T11:48:22Z</time></trkpt><trkpt lat="41.16045567743222" lon="14.671205282223902"><ele>323.59999999999997</ele><time>2026-05-04T11:48:23Z</time></trkpt><trkpt lat="41.160359771046096" lon="14.671122378190741"><ele>323.79999999999995</ele><time>2026-05-04T11:48:24Z</time></trkpt><trkpt lat="41.160246183083174" lon="14.67105750063439"><ele>324.0</ele><time>2026-05-04T11:48:25Z</time></trkpt><trkpt lat="41.160119688863425" lon="14.670961579162874"><ele>324.0</ele><time>2026-05-04T11:48:26Z</time></trkpt><trkpt lat="41.159986937937546" lon="14.670865901708623"><ele>324.0</ele><time>2026-05-04T11:48:27Z</time></trkpt><trkpt lat="41.15988665606789" lon="14.670793620653892"><ele>324.0</ele><time>2026-05-04T11:48:28Z</time></trkpt><trkpt lat="41.159812892201835" lon="14.670751620843296"><ele>324.0</ele><time>2026-05-04T11:48:29Z</time></trkpt><trkpt lat="41.159734568752604" lon="14.670725805261595"><ele>324.0</ele><time>2026-05-04T11:48:30Z</time></trkpt><trkpt lat="41.15967023370761" lon="14.670728498124225"><ele>324.0</ele><time>2026-05-04T11:48:31Z</time></trkpt><trkpt lat="41.15963215486117" lon="14.670828879889697"><ele>324.0</ele><time>2026-05-04T11:48:33Z</time></trkpt><trkpt lat="41.159701274824926" lon="14.670975447013484"><ele>324.0</ele><time>2026-05-04T11:48:35Z</time></trkpt><trkpt lat="41.159775016342195" lon="14.671045478459321"><ele>324.0</ele><time>2026-05-04T11:48:36Z</time></trkpt><trkpt lat="41.15988118791268" lon="14.671106028974805"><ele>324.0</ele><time>2026-05-04T11:48:37Z</time></trkpt><trkpt lat="41.16000093405473" lon="14.671174936602906"><ele>324.79999999999995</ele><time>2026-05-04T11:48:38Z</time></trkpt><trkpt lat="41.16008226032331" lon="14.671245688692613"><ele>325.59999999999997</ele><time>2026-05-04T11:48:39Z</time></trkpt><trkpt lat="41.16014053911128" lon="14.671343337338687"><ele>326.4</ele><time>2026-05-04T11:48:40Z</time></trkpt><trkpt lat="41.16013939713787" lon="14.671484844338034"><ele>327.2</ele><time>2026-05-04T11:48:41Z</time></trkpt><trkpt lat="41.16016470475489" lon="14.671648651471326"><ele>328.0</ele><time>2026-05-04T11:48:42Z</time></trkpt><trkpt lat="41.16019831908215" lon="14.671838607700376"><ele>329.0</ele><time>2026-05-04T11:48:43Z</time></trkpt><trkpt lat="41.160239016756876" lon="14.672014029535296"><ele>330.0</ele><time>2026-05-04T11:48:44Z</time></trkpt><trkpt lat="41.1602734276761" lon="14.672199115807707"><ele>331.0</ele><time>2026-05-04T11:48:45Z</time></trkpt><trkpt lat="41.16032921866126" lon="14.672391785214273"><ele>332.0</ele><time>2026-05-04T11:48:46Z</time></trkpt><trkpt lat="41.160392413517265" lon="14.672588880706202"><ele>333.0</ele><time>2026-05-04T11:48:47Z</time></trkpt><trkpt lat="41.16043830670822" lon="14.672778454602303"><ele>334.0</ele><time>2026-05-04T11:48:48Z</time></trkpt><trkpt lat="41.1604799926308" lon="14.67296358347335"><ele>335.0</ele><time>2026-05-04T11:48:49Z</time></trkpt><trkpt lat="41.160515463885886" lon="14.67315327077218"><ele>336.0</ele><time>2026-05-04T11:48:50Z</time></trkpt><trkpt lat="41.16053016687052" lon="14.673361675968755"><ele>336.0</ele><time>2026-05-04T11:48:51Z</time></trkpt><trkpt lat="41.16053094642787" lon="14.673572679174109"><ele>336.0</ele><time>2026-05-04T11:48:52Z</time></trkpt><trkpt lat="41.16053162495402" lon="14.673787127484179"><ele>336.0</ele><time>2026-05-04T11:48:53Z</time></trkpt><trkpt lat="41.1605441193545" lon="14.673992379507547"><ele>336.6666666666667</ele><time>2026-05-04T11:48:54Z</time></trkpt><trkpt lat="41.16055267719031" lon="14.6741983874776"><ele>337.33333333333337</ele><time>2026-05-04T11:48:55Z</time></trkpt><trkpt lat="41.16055526861903" lon="14.674397935533383"><ele>338.0</ele><time>2026-05-04T11:48:56Z</time></trkpt><trkpt lat="41.16055178054361" lon="14.674615447349781"><ele>339.5</ele><time>2026-05-04T11:48:57Z</time></trkpt><trkpt lat="41.16054046501337" lon="14.674799413101542"><ele>341.0</ele><time>2026-05-04T11:48:58Z</time></trkpt><trkpt lat="41.160521048611976" lon="14.674954636747826"><ele>342.5</ele><time>2026-05-04T11:48:59Z</time></trkpt><trkpt lat="41.160515158978946" lon="14.675091145616642"><ele>344.0</ele><time>2026-05-04T11:49:00Z</time></trkpt><trkpt lat="41.160509125258734" lon="14.675215859138248"><ele>344.2</ele><time>2026-05-04T11:49:01Z</time></trkpt><trkpt lat="41.16051144330997" lon="14.675313358866578"><ele>344.4</ele><time>2026-05-04T11:49:02Z</time></trkpt><trkpt lat="41.160511825978254" lon="14.67541587414028"><ele>344.6</ele><time>2026-05-04T11:49:03Z</time></trkpt><trkpt lat="41.160527660745856" lon="14.675550701755988"><ele>344.8</ele><time>2026-05-04T11:49:04.999Z</time></trkpt><trkpt lat="41.160648215139" lon="14.67563046170219"><ele>345.0</ele><time>2026-05-04T11:49:08Z</time></trkpt><trkpt lat="41.160768017214366" lon="14.675648608339088"><ele>345.25</ele><time>2026-05-04T11:49:09Z</time></trkpt><trkpt lat="41.16087395745119" lon="14.675657404261338"><ele>345.5</ele><time>2026-05-04T11:49:10Z</time></trkpt><trkpt lat="41.16099269845674" lon="14.67564924945466"><ele>345.75</ele><time>2026-05-04T11:49:11Z</time></trkpt><trkpt lat="41.161107608525576" lon="14.675623234835923"><ele>346.0</ele><time>2026-05-04T11:49:12Z</time></trkpt><trkpt lat="41.161228109322266" lon="14.675564490506407"><ele>346.0</ele><time>2026-05-04T11:49:13Z</time></trkpt><trkpt lat="41.16132758821286" lon="14.675502470400097"><ele>346.0</ele><time>2026-05-04T11:49:14Z</time></trkpt><trkpt lat="41.161411316931" lon="14.67545015952073"><ele>346.0</ele><time>2026-05-04T11:49:15Z</time></trkpt><trkpt lat="41.16148049126288" lon="14.675407243241418"><ele>346.0</ele><time>2026-05-04T11:49:16Z</time></trkpt><trkpt lat="41.16160562845463" lon="14.675346914217"><ele>346.0</ele><time>2026-05-04T11:49:18Z</time></trkpt><trkpt lat="41.16170875345394" lon="14.675397884887786"><ele>347.0</ele><time>2026-05-04T11:49:19Z</time></trkpt><trkpt lat="41.16182263583631" lon="14.675474572909135"><ele>348.0</ele><time>2026-05-04T11:49:20Z</time></trkpt><trkpt lat="41.16196134406995" lon="14.675535695930247"><ele>349.0</ele><time>2026-05-04T11:49:21Z</time></trkpt><trkpt lat="41.162101562146006" lon="14.675596827747318"><ele>350.0</ele><time>2026-05-04T11:49:22Z</time></trkpt><trkpt lat="41.16225431423984" lon="14.675662443103226"><ele>351.75</ele><time>2026-05-04T11:49:23Z</time></trkpt><trkpt lat="41.16240640119565" lon="14.675718179895972"><ele>353.5</ele><time>2026-05-04T11:49:24Z</time></trkpt><trkpt lat="41.162526832099985" lon="14.675770386856643"><ele>355.25</ele><time>2026-05-04T11:49:25Z</time></trkpt><trkpt lat="41.16260752725328" lon="14.675820173772847"><ele>357.0</ele><time>2026-05-04T11:49:26Z</time></trkpt><trkpt lat="41.16269556849431" lon="14.675885694018424"><ele>357.0</ele><time>2026-05-04T11:49:28Z</time></trkpt><trkpt lat="41.16278551040204" lon="14.675936148439918"><ele>357.0</ele><time>2026-05-04T11:49:30Z</time></trkpt><trkpt lat="41.16281919680286" lon="14.676118595253508"><ele>357.0</ele><time>2026-05-04T11:49:32Z</time></trkpt><trkpt lat="41.16284962030479" lon="14.676241009922668"><ele>357.0</ele><time>2026-05-04T11:49:33Z</time></trkpt><trkpt lat="41.16288506958619" lon="14.676352476786064"><ele>357.0</ele><time>2026-05-04T11:49:34Z</time></trkpt><trkpt lat="41.162937847240116" lon="14.676464224115458"><ele>357.40000000000003</ele><time>2026-05-04T11:49:35Z</time></trkpt><trkpt lat="41.1630166902275" lon="14.676574110228652"><ele>357.8</ele><time>2026-05-04T11:49:36Z</time></trkpt><trkpt lat="41.16309500699282" lon="14.676679732757966"><ele>358.2</ele><time>2026-05-04T11:49:37Z</time></trkpt><trkpt lat="41.16317004226019" lon="14.676781323212088"><ele>358.6</ele><time>2026-05-04T11:49:38Z</time></trkpt><trkpt lat="41.163242285896665" lon="14.67688156900048"><ele>359.0</ele><time>2026-05-04T11:49:39Z</time></trkpt><trkpt lat="41.16331797012349" lon="14.67700124730429"><ele>361.79999999999995</ele><time>2026-05-04T11:49:40Z</time></trkpt><trkpt lat="41.163378286316316" lon="14.677104196266141"><ele>364.59999999999997</ele><time>2026-05-04T11:49:41Z</time></trkpt><trkpt lat="41.163438951171955" lon="14.677223623185867"><ele>367.4</ele><time>2026-05-04T11:49:42Z</time></trkpt><trkpt lat="41.163484078495564" lon="14.677358802492423"><ele>370.2</ele><time>2026-05-04T11:49:43Z</time></trkpt><trkpt lat="41.163520934757095" lon="14.677514307705248"><ele>373.0</ele><time>2026-05-04T11:49:44Z</time></trkpt><trkpt lat="41.1635513867881" lon="14.677702484474036"><ele>372.3333333333333</ele><time>2026-05-04T11:49:45Z</time></trkpt><trkpt lat="41.163607076382284" lon="14.6779073348081"><ele>371.6666666666667</ele><time>2026-05-04T11:49:46Z</time></trkpt><trkpt lat="41.16365897902575" lon="14.678104391738236"><ele>371.0</ele><time>2026-05-04T11:49:47Z</time></trkpt><trkpt lat="41.163702654635756" lon="14.678295481728359"><ele>371.0</ele><time>2026-05-04T11:49:48Z</time></trkpt><trkpt lat="41.163756969478996" lon="14.678456887649652"><ele>371.0</ele><time>2026-05-04T11:49:49Z</time></trkpt><trkpt lat="41.16379039891376" lon="14.678622106454856"><ele>371.0</ele><time>2026-05-04T11:49:50Z</time></trkpt><trkpt lat="41.16384852514576" lon="14.67878709730533"><ele>371.0</ele><time>2026-05-04T11:49:51Z</time></trkpt><trkpt lat="41.16391741366899" lon="14.67896535330299"><ele>370.25</ele><time>2026-05-04T11:49:52Z</time></trkpt><trkpt lat="41.163996577957775" lon="14.679136880548452"><ele>369.5</ele><time>2026-05-04T11:49:53Z</time></trkpt><trkpt lat="41.16407980032531" lon="14.67930317350687"><ele>368.75</ele><time>2026-05-04T11:49:54Z</time></trkpt><trkpt lat="41.16414607211277" lon="14.679456770167867"><ele>368.0</ele><time>2026-05-04T11:49:55Z</time></trkpt><trkpt lat="41.164199439979676" lon="14.67960829029111"><ele>370.25</ele><time>2026-05-04T11:49:56Z</time></trkpt><trkpt lat="41.16423345336987" lon="14.67976233427936"><ele>372.5</ele><time>2026-05-04T11:49:57Z</time></trkpt><trkpt lat="41.164264187497615" lon="14.679934797444893"><ele>374.75</ele><time>2026-05-04T11:49:58Z</time></trkpt><trkpt lat="41.16427949293905" lon="14.68010913831894"><ele>377.0</ele><time>2026-05-04T11:49:59Z</time></trkpt><trkpt lat="41.16430870640629" lon="14.680283109092281"><ele>377.0</ele><time>2026-05-04T11:50:00Z</time></trkpt><trkpt lat="41.1643399403013" lon="14.680471660236691"><ele>377.0</ele><time>2026-05-04T11:50:01Z</time></trkpt><trkpt lat="41.16437655379467" lon="14.680628186340883"><ele>377.0</ele><time>2026-05-04T11:50:02Z</time></trkpt><trkpt lat="41.16439316748404" lon="14.680752839724818"><ele>377.0</ele><time>2026-05-04T11:50:03Z</time></trkpt><trkpt lat="41.16441204599964" lon="14.680860322728204"><ele>377.0</ele><time>2026-05-04T11:50:04Z</time></trkpt><trkpt lat="41.164434084211514" lon="14.680975857122453"><ele>377.25</ele><time>2026-05-04T11:50:05Z</time></trkpt><trkpt lat="41.16446910222524" lon="14.681131737430356"><ele>377.5</ele><time>2026-05-04T11:50:06Z</time></trkpt><trkpt lat="41.164489726066414" lon="14.681331669944784"><ele>377.75</ele><time>2026-05-04T11:50:07Z</time></trkpt><trkpt lat="41.1645356649223" lon="14.681534607432079"><ele>378.0</ele><time>2026-05-04T11:50:08Z</time></trkpt><trkpt lat="41.164598783909284" lon="14.681758987215137"><ele>378.3333333333333</ele><time>2026-05-04T11:50:09Z</time></trkpt><trkpt lat="41.16465758723162" lon="14.681994640423678"><ele>378.66666666666663</ele><time>2026-05-04T11:50:10Z</time></trkpt><trkpt lat="41.164702726235134" lon="14.682225325546469"><ele>379.0</ele><time>2026-05-04T11:50:11Z</time></trkpt><trkpt lat="41.16475188116189" lon="14.68242519944113"><ele>379.0</ele><time>2026-05-04T11:50:12Z</time></trkpt><trkpt lat="41.164791014587976" lon="14.682597944080772"><ele>379.0</ele><time>2026-05-04T11:50:13Z</time></trkpt><trkpt lat="41.164850887656705" lon="14.682772908831408"><ele>379.0</ele><time>2026-05-04T11:50:14Z</time></trkpt><trkpt lat="41.16492917147477" lon="14.682944777586778"><ele>379.0</ele><time>2026-05-04T11:50:15Z</time></trkpt><trkpt lat="41.16502250747222" lon="14.683134708945563"><ele>380.0</ele><time>2026-05-04T11:50:16Z</time></trkpt><trkpt lat="41.16510442629701" lon="14.68331442809439"><ele>381.0</ele><time>2026-05-04T11:50:17Z</time></trkpt><trkpt lat="41.16518004815186" lon="14.683462366730017"><ele>382.0</ele><time>2026-05-04T11:50:18Z</time></trkpt><trkpt lat="41.1652540314143" lon="14.683586796010044"><ele>383.0</ele><time>2026-05-04T11:50:19Z</time></trkpt><trkpt lat="41.16534755573813" lon="14.68368796864141"><ele>383.0</ele><time>2026-05-04T11:50:20Z</time></trkpt><trkpt lat="41.16544344094975" lon="14.683771831598294"><ele>383.0</ele><time>2026-05-04T11:50:21Z</time></trkpt><trkpt lat="41.16553785409068" lon="14.68382333541066"><ele>383.0</ele><time>2026-05-04T11:50:22Z</time></trkpt><trkpt lat="41.165613935692114" lon="14.683884752544317"><ele>383.0</ele><time>2026-05-04T11:50:23Z</time></trkpt><trkpt lat="41.16566852198838" lon="14.683955662674686"><ele>383.0</ele><time>2026-05-04T11:50:24Z</time></trkpt><trkpt lat="41.165718132031216" lon="14.684035303893689"><ele>384.57142857142856</ele><time>2026-05-04T11:50:25Z</time></trkpt><trkpt lat="41.1657688579744" lon="14.68412290723653"><ele>386.1428571428571</ele><time>2026-05-04T11:50:26Z</time></trkpt><trkpt lat="41.1658356617504" lon="14.684199657911714"><ele>387.7142857142857</ele><time>2026-05-04T11:50:27Z</time></trkpt><trkpt lat="41.165908371732364" lon="14.684249779297613"><ele>389.2857142857143</ele><time>2026-05-04T11:50:28Z</time></trkpt><trkpt lat="41.1659661100856" lon="14.684287598409062"><ele>390.8571428571429</ele><time>2026-05-04T11:50:29Z</time></trkpt><trkpt lat="41.16602864095203" lon="14.684311278383037"><ele>392.42857142857144</ele><time>2026-05-04T11:50:31Z</time></trkpt><trkpt lat="41.16607562841238" lon="14.68437246978127"><ele>394.0</ele><time>2026-05-04T11:50:33Z</time></trkpt><trkpt lat="41.16614887928196" lon="14.68438456142631"><ele>394.00000000000006</ele><time>2026-05-04T11:50:34Z</time></trkpt><trkpt lat="41.16621202437382" lon="14.684415694245368"><ele>394.0</ele><time>2026-05-04T11:50:35Z</time></trkpt><trkpt lat="41.16629379068597" lon="14.684456610866716"><ele>394.0</ele><time>2026-05-04T11:50:36Z</time></trkpt><trkpt lat="41.166362845538636" lon="14.684499067007623"><ele>394.0</ele><time>2026-05-04T11:50:37Z</time></trkpt><trkpt lat="41.166437268275224" lon="14.684531386371495"><ele>394.00000000000006</ele><time>2026-05-04T11:50:38Z</time></trkpt><trkpt lat="41.166506228542055" lon="14.684490252601272"><ele>394.0</ele><time>2026-05-04T11:50:40Z</time></trkpt><trkpt lat="41.16658524682472" lon="14.684360583297984"><ele>397.33333333333337</ele><time>2026-05-04T11:50:42Z</time></trkpt><trkpt lat="41.166618752068885" lon="14.684286252689578"><ele>400.6666666666667</ele><time>2026-05-04T11:50:44Z</time></trkpt><trkpt lat="41.16666410955633" lon="14.684184403706709"><ele>404.0</ele><time>2026-05-04T11:50:53Z</time></trkpt><trkpt lat="41.16670738947937" lon="14.684101164796976"><ele>407.33333333333337</ele><time>2026-05-04T11:50:54Z</time></trkpt><trkpt lat="41.166753333214885" lon="14.684013024073055"><ele>410.6666666666667</ele><time>2026-05-04T11:50:55Z</time></trkpt><trkpt lat="41.16680447667097" lon="14.683914908172579"><ele>414.0</ele><time>2026-05-04T11:50:56Z</time></trkpt><trkpt lat="41.16686687254124" lon="14.68380610010736"><ele>414.0</ele><time>2026-05-04T11:50:57Z</time></trkpt><trkpt lat="41.16697273349585" lon="14.683656805758542"><ele>414.0</ele><time>2026-05-04T11:50:58Z</time></trkpt><trkpt lat="41.167059652642095" lon="14.683537041366696"><ele>414.0</ele><time>2026-05-04T11:50:59Z</time></trkpt><trkpt lat="41.1671427853308" lon="14.683440039110293"><ele>414.0</ele><time>2026-05-04T11:51:00Z</time></trkpt><trkpt lat="41.167222044581926" lon="14.68336834675475"><ele>414.0</ele><time>2026-05-04T11:51:01Z</time></trkpt><trkpt lat="41.16730156061895" lon="14.683301313476141"><ele>414.0</ele><time>2026-05-04T11:51:02Z</time></trkpt><trkpt lat="41.16737497091137" lon="14.683241241750382"><ele>414.0</ele><time>2026-05-04T11:51:03Z</time></trkpt><trkpt lat="41.167486236457655" lon="14.683149630408437"><ele>414.0</ele><time>2026-05-04T11:51:04Z</time></trkpt><trkpt lat="41.16761938984222" lon="14.683025173963044"><ele>418.6</ele><time>2026-05-04T11:51:05Z</time></trkpt><trkpt lat="41.16772518810909" lon="14.68289410268669"><ele>423.2</ele><time>2026-05-04T11:51:06Z</time></trkpt><trkpt lat="41.16782150647907" lon="14.682831847362245"><ele>427.80000000000007</ele><time>2026-05-04T11:51:06.999Z</time></trkpt><trkpt lat="41.167908549354145" lon="14.682753435365592"><ele>432.40000000000003</ele><time>2026-05-04T11:51:07.999Z</time></trkpt><trkpt lat="41.16797566389701" lon="14.682683781854292"><ele>437.0</ele><time>2026-05-04T11:51:08.999Z</time></trkpt><trkpt lat="41.16801635000735" lon="14.68260571984179"><ele>437.0</ele><time>2026-05-04T11:51:09.999Z</time></trkpt><trkpt lat="41.16805892896" lon="14.682490171607562"><ele>437.00000000000006</ele><time>2026-05-04T11:51:10.999Z</time></trkpt><trkpt lat="41.16814338131001" lon="14.682362443495274"><ele>437.00000000000006</ele><time>2026-05-04T11:51:11.999Z</time></trkpt><trkpt lat="41.16821225611552" lon="14.682249323823465"><ele>437.0</ele><time>2026-05-04T11:51:12.999Z</time></trkpt><trkpt lat="41.168259577114405" lon="14.682138185493583"><ele>437.0</ele><time>2026-05-04T11:51:14Z</time></trkpt><trkpt lat="41.168336440794036" lon="14.68204681091476"><ele>439.99999999999994</ele><time>2026-05-04T11:51:15Z</time></trkpt><trkpt lat="41.16836953857207" lon="14.681943243470984"><ele>443.0</ele><time>2026-05-04T11:51:16Z</time></trkpt><trkpt lat="41.16842124778817" lon="14.681854142541127"><ele>446.0</ele><time>2026-05-04T11:51:17Z</time></trkpt><trkpt lat="41.16845272094784" lon="14.681745485419361"><ele>449.0</ele><time>2026-05-04T11:51:18Z</time></trkpt><trkpt lat="41.16850569489984" lon="14.681674028187157"><ele>451.99999999999994</ele><time>2026-05-04T11:51:19Z</time></trkpt><trkpt lat="41.16857799974117" lon="14.681632696077404"><ele>455.0</ele><time>2026-05-04T11:51:20Z</time></trkpt><trkpt lat="41.168639321268834" lon="14.681579114687782"><ele>455.0</ele><time>2026-05-04T11:51:21Z</time></trkpt><trkpt lat="41.16870146994002" lon="14.681510548194032"><ele>455.0</ele><time>2026-05-04T11:51:22Z</time></trkpt><trkpt lat="41.16878233576347" lon="14.681449949923755"><ele>455.0</ele><time>2026-05-04T11:51:23Z</time></trkpt><trkpt lat="41.16887479128936" lon="14.681425270400137"><ele>455.0</ele><time>2026-05-04T11:51:24Z</time></trkpt><trkpt lat="41.1689676773478" lon="14.681375715871345"><ele>455.0</ele><time>2026-05-04T11:51:25Z</time></trkpt><trkpt lat="41.16909797761265" lon="14.68133803574662"><ele>459.49999999999994</ele><time>2026-05-04T11:51:26Z</time></trkpt><trkpt lat="41.169209482057894" lon="14.681312875889722"><ele>464.0</ele><time>2026-05-04T11:51:27Z</time></trkpt><trkpt lat="41.16928185352874" lon="14.681281858719801"><ele>468.5</ele><time>2026-05-04T11:51:28Z</time></trkpt><trkpt lat="41.16934361938619" lon="14.681238523620726"><ele>473.0</ele><time>2026-05-04T11:51:29Z</time></trkpt><trkpt lat="41.16938579223142" lon="14.681146783502744"><ele>477.49999999999994</ele><time>2026-05-04T11:51:30Z</time></trkpt><trkpt lat="41.16940273719497" lon="14.681030392546504"><ele>482.0</ele><time>2026-05-04T11:51:31Z</time></trkpt><trkpt lat="41.169441576900695" lon="14.680949418776956"><ele>482.0</ele><time>2026-05-04T11:51:32Z</time></trkpt><trkpt lat="41.16957296785923" lon="14.680865751490465"><ele>482.0</ele><time>2026-05-04T11:51:34Z</time></trkpt><trkpt lat="41.16963136828217" lon="14.68077041100178"><ele>482.0</ele><time>2026-05-04T11:51:35Z</time></trkpt><trkpt lat="41.16972385948984" lon="14.680648208585586"><ele>482.0</ele><time>2026-05-04T11:51:36Z</time></trkpt><trkpt lat="41.169831551078545" lon="14.680557576885308"><ele>485.40000000000003</ele><time>2026-05-04T11:51:37Z</time></trkpt><trkpt lat="41.16991198972296" lon="14.680510661001438"><ele>488.80000000000007</ele><time>2026-05-04T11:51:38Z</time></trkpt><trkpt lat="41.169991852627994" lon="14.680490149078267"><ele>492.2</ele><time>2026-05-04T11:51:39Z</time></trkpt><trkpt lat="41.17007860284885" lon="14.680483573757082"><ele>495.6</ele><time>2026-05-04T11:51:40Z</time></trkpt><trkpt lat="41.17017281344892" lon="14.680527524665314"><ele>499.0</ele><time>2026-05-04T11:51:41Z</time></trkpt><trkpt lat="41.17027793357834" lon="14.680612438458978"><ele>499.0</ele><time>2026-05-04T11:51:42Z</time></trkpt><trkpt lat="41.17039739898563" lon="14.680682653902426"><ele>499.0</ele><time>2026-05-04T11:51:43Z</time></trkpt><trkpt lat="41.17048174956985" lon="14.680745380646936"><ele>499.0</ele><time>2026-05-04T11:51:44Z</time></trkpt><trkpt lat="41.17055971452894" lon="14.680780826899113"><ele>499.0</ele><time>2026-05-04T11:51:45Z</time></trkpt><trkpt lat="41.170655683688295" lon="14.680736267722235"><ele>499.0</ele><time>2026-05-04T11:51:46Z</time></trkpt><trkpt lat="41.17074992402786" lon="14.680634434072875"><ele>504.6666666666667</ele><time>2026-05-04T11:51:47Z</time></trkpt><trkpt lat="41.1708304263635" lon="14.680472241206113"><ele>510.33333333333337</ele><time>2026-05-04T11:51:48Z</time></trkpt><trkpt lat="41.17093116363841" lon="14.68031461800411"><ele>516.0</ele><time>2026-05-04T11:51:49Z</time></trkpt><trkpt lat="41.171047237303746" lon="14.680170570608137"><ele>517.0</ele><time>2026-05-04T11:51:50Z</time></trkpt><trkpt lat="41.17116405357705" lon="14.67998954397452"><ele>518.0</ele><time>2026-05-04T11:51:51Z</time></trkpt><trkpt lat="41.17128744801389" lon="14.679800107896476"><ele>519.0</ele><time>2026-05-04T11:51:52Z</time></trkpt><trkpt lat="41.17138144379697" lon="14.679658889660546"><ele>519.0</ele><time>2026-05-04T11:51:53Z</time></trkpt><trkpt lat="41.1714630432606" lon="14.679562888504936"><ele>519.0</ele><time>2026-05-04T11:51:54Z</time></trkpt><trkpt lat="41.17155691948232" lon="14.67951246620873"><ele>519.0</ele><time>2026-05-04T11:51:55Z</time></trkpt><trkpt lat="41.171691622882484" lon="14.67949005001912"><ele>519.0</ele><time>2026-05-04T11:51:56Z</time></trkpt><trkpt lat="41.17186505898217" lon="14.679464485104827"><ele>522.25</ele><time>2026-05-04T11:51:57Z</time></trkpt><trkpt lat="41.17201788801074" lon="14.679442645529628"><ele>525.5</ele><time>2026-05-04T11:51:58Z</time></trkpt><trkpt lat="41.17212228219555" lon="14.6794318567828"><ele>528.75</ele><time>2026-05-04T11:51:59Z</time></trkpt><trkpt lat="41.17220334036241" lon="14.679406753595618"><ele>532.0</ele><time>2026-05-04T11:52:00Z</time></trkpt><trkpt lat="41.17232602733006" lon="14.679414332370243"><ele>534.5</ele><time>2026-05-04T11:52:02Z</time></trkpt><trkpt lat="41.172419344767064" lon="14.679383648186366"><ele>537.0</ele><time>2026-05-04T11:52:03Z</time></trkpt><trkpt lat="41.172574695407924" lon="14.679301577652188"><ele>539.5</ele><time>2026-05-04T11:52:04Z</time></trkpt><trkpt lat="41.17269628964835" lon="14.679224501658934"><ele>542.0</ele><time>2026-05-04T11:52:05Z</time></trkpt><trkpt lat="41.17281773462901" lon="14.679143166398681"><ele>542.0</ele><time>2026-05-04T11:52:06Z</time></trkpt><trkpt lat="41.172937042795695" lon="14.679066876674103"><ele>542.0</ele><time>2026-05-04T11:52:07Z</time></trkpt><trkpt lat="41.17306210271954" lon="14.679005855158952"><ele>542.0</ele><time>2026-05-04T11:52:08Z</time></trkpt><trkpt lat="41.17320043083648" lon="14.678952114439829"><ele>542.0</ele><time>2026-05-04T11:52:09Z</time></trkpt><trkpt lat="41.173352647068036" lon="14.678900019831085"><ele>538.6666666666666</ele><time>2026-05-04T11:52:10Z</time></trkpt><trkpt lat="41.173524720964025" lon="14.678842508791547"><ele>535.3333333333334</ele><time>2026-05-04T11:52:11Z</time></trkpt><trkpt lat="41.17366936497124" lon="14.678790928392923"><ele>532.0</ele><time>2026-05-04T11:52:12Z</time></trkpt><trkpt lat="41.173799229207404" lon="14.67875260319676"><ele>532.0</ele><time>2026-05-04T11:52:13Z</time></trkpt><trkpt lat="41.173918567213086" lon="14.678731235107511"><ele>532.0</ele><time>2026-05-04T11:52:14Z</time></trkpt><trkpt lat="41.17402802143958" lon="14.678722427149985"><ele>532.0</ele><time>2026-05-04T11:52:15Z</time></trkpt><trkpt lat="41.17412693254652" lon="14.67871686296272"><ele>532.0</ele><time>2026-05-04T11:52:16Z</time></trkpt><trkpt lat="41.174224445735305" lon="14.678707874113421"><ele>532.0</ele><time>2026-05-04T11:52:17Z</time></trkpt><trkpt lat="41.17432625529562" lon="14.678686891175108"><ele>530.0</ele><time>2026-05-04T11:52:18Z</time></trkpt><trkpt lat="41.174418788164466" lon="14.678677843810421"><ele>528.0</ele><time>2026-05-04T11:52:19Z</time></trkpt><trkpt lat="41.17449454695166" lon="14.678729039579995"><ele>526.0</ele><time>2026-05-04T11:52:20Z</time></trkpt><trkpt lat="41.174613802217905" lon="14.678817344101565"><ele>524.0</ele><time>2026-05-04T11:52:21Z</time></trkpt><trkpt lat="41.17474782195683" lon="14.678968611692543"><ele>524.25</ele><time>2026-05-04T11:52:22Z</time></trkpt><trkpt lat="41.17486326052816" lon="14.679086373355196"><ele>524.5</ele><time>2026-05-04T11:52:23Z</time></trkpt><trkpt lat="41.17498878957142" lon="14.679189328933104"><ele>524.75</ele><time>2026-05-04T11:52:24Z</time></trkpt><trkpt lat="41.17510747031427" lon="14.679269986275335"><ele>525.0</ele><time>2026-05-04T11:52:25Z</time></trkpt><trkpt lat="41.17522938000119" lon="14.679328250637122"><ele>525.0</ele><time>2026-05-04T11:52:26Z</time></trkpt><trkpt lat="41.17535971618608" lon="14.67936672997218"><ele>525.0</ele><time>2026-05-04T11:52:27Z</time></trkpt><trkpt lat="41.175503511966866" lon="14.679399190839666"><ele>525.0</ele><time>2026-05-04T11:52:28Z</time></trkpt><trkpt lat="41.175645866995225" lon="14.679414037301083"><ele>525.0</ele><time>2026-05-04T11:52:29Z</time></trkpt><trkpt lat="41.17576938723991" lon="14.679428201858425"><ele>524.75</ele><time>2026-05-04T11:52:30Z</time></trkpt><trkpt lat="41.17588746816618" lon="14.679439459640115"><ele>524.5</ele><time>2026-05-04T11:52:31Z</time></trkpt><trkpt lat="41.1760266302732" lon="14.67943145805086"><ele>524.25</ele><time>2026-05-04T11:52:32Z</time></trkpt><trkpt lat="41.17615759783377" lon="14.67940591919329"><ele>524.0</ele><time>2026-05-04T11:52:33Z</time></trkpt><trkpt lat="41.17629426937304" lon="14.679370432187335"><ele>524.0</ele><time>2026-05-04T11:52:34Z</time></trkpt><trkpt lat="41.17641962748125" lon="14.67933087997698"><ele>524.0</ele><time>2026-05-04T11:52:35Z</time></trkpt><trkpt lat="41.17654978448401" lon="14.679286700239187"><ele>524.0</ele><time>2026-05-04T11:52:36Z</time></trkpt><trkpt lat="41.17667565767532" lon="14.67927055007495"><ele>524.0</ele><time>2026-05-04T11:52:37Z</time></trkpt><trkpt lat="41.17677669055767" lon="14.679264556773028"><ele>522.6</ele><time>2026-05-04T11:52:38Z</time></trkpt><trkpt lat="41.17686015044472" lon="14.679251867198081"><ele>521.2</ele><time>2026-05-04T11:52:39Z</time></trkpt><trkpt lat="41.17697216439699" lon="14.679165891531367"><ele>519.8000000000001</ele><time>2026-05-04T11:52:40Z</time></trkpt><trkpt lat="41.177055037512865" lon="14.679043378745867"><ele>518.4</ele><time>2026-05-04T11:52:41Z</time></trkpt><trkpt lat="41.177117358764534" lon="14.678960853609022"><ele>517.0</ele><time>2026-05-04T11:52:42Z</time></trkpt><trkpt lat="41.17722354669399" lon="14.678952380101144"><ele>517.0</ele><time>2026-05-04T11:52:44Z</time></trkpt><trkpt lat="41.17732364217587" lon="14.679036763174658"><ele>517.0</ele><time>2026-05-04T11:52:45Z</time></trkpt><trkpt lat="41.17741709346613" lon="14.679093196883054"><ele>517.0</ele><time>2026-05-04T11:52:46Z</time></trkpt><trkpt lat="41.177511703409" lon="14.679085922930845"><ele>517.0</ele><time>2026-05-04T11:52:47Z</time></trkpt><trkpt lat="41.17761623780426" lon="14.679051139023013"><ele>517.0</ele><time>2026-05-04T11:52:48Z</time></trkpt><trkpt lat="41.17770011533685" lon="14.679022196395957"><ele>516.6</ele><time>2026-05-04T11:52:49Z</time></trkpt><trkpt lat="41.17777478364127" lon="14.678994451928874"><ele>516.2</ele><time>2026-05-04T11:52:50Z</time></trkpt><trkpt lat="41.177858826655374" lon="14.67895822863587"><ele>515.8</ele><time>2026-05-04T11:52:51Z</time></trkpt><trkpt lat="41.17796747774632" lon="14.67894217704069"><ele>515.4</ele><time>2026-05-04T11:52:52Z</time></trkpt><trkpt lat="41.17808111060271" lon="14.678924084784034"><ele>515.0</ele><time>2026-05-04T11:52:53Z</time></trkpt><trkpt lat="41.178185492356704" lon="14.67889759948734"><ele>515.0</ele><time>2026-05-04T11:52:54Z</time></trkpt><trkpt lat="41.178272552184005" lon="14.678917347534558"><ele>515.0</ele><time>2026-05-04T11:52:55Z</time></trkpt><trkpt lat="41.178344120966244" lon="14.678980007925917"><ele>515.0</ele><time>2026-05-04T11:52:56Z</time></trkpt><trkpt lat="41.17841506865505" lon="14.679072882997575"><ele>515.0</ele><time>2026-05-04T11:52:57Z</time></trkpt><trkpt lat="41.17848218613039" lon="14.679203720498453"><ele>515.0</ele><time>2026-05-04T11:52:58Z</time></trkpt><trkpt lat="41.17853688963499" lon="14.67935217778656"><ele>514.0</ele><time>2026-05-04T11:52:59Z</time></trkpt><trkpt lat="41.17857006787684" lon="14.679486770703038"><ele>513.0</ele><time>2026-05-04T11:53:00Z</time></trkpt><trkpt lat="41.178626788945486" lon="14.67960962972264"><ele>512.0</ele><time>2026-05-04T11:53:01Z</time></trkpt><trkpt lat="41.178716434085366" lon="14.679721869689784"><ele>511.0</ele><time>2026-05-04T11:53:02Z</time></trkpt><trkpt lat="41.17878191412666" lon="14.679803542737819"><ele>510.0</ele><time>2026-05-04T11:53:03Z</time></trkpt><trkpt lat="41.17884659743" lon="14.679870667227041"><ele>510.0</ele><time>2026-05-04T11:53:05Z</time></trkpt><trkpt lat="41.178911175057095" lon="14.679934448688373"><ele>510.0</ele><time>2026-05-04T11:53:07Z</time></trkpt><trkpt lat="41.17896743069878" lon="14.679978924097869"><ele>510.0</ele><time>2026-05-04T11:53:08Z</time></trkpt><trkpt lat="41.17903180523294" lon="14.680029818271247"><ele>510.0</ele><time>2026-05-04T11:53:09Z</time></trkpt><trkpt lat="41.17910800271219" lon="14.680091629207777"><ele>510.0</ele><time>2026-05-04T11:53:10Z</time></trkpt><trkpt lat="41.17920071792707" lon="14.680143231526849"><ele>510.0</ele><time>2026-05-04T11:53:11Z</time></trkpt><trkpt lat="41.17928784706734" lon="14.680228759321825"><ele>509.5</ele><time>2026-05-04T11:53:12Z</time></trkpt><trkpt lat="41.1793809454079" lon="14.680324984120006"><ele>509.0</ele><time>2026-05-04T11:53:13Z</time></trkpt><trkpt lat="41.17947634827619" lon="14.680416457513621"><ele>508.5</ele><time>2026-05-04T11:53:14Z</time></trkpt><trkpt lat="41.179574286722875" lon="14.680513770660045"><ele>508.0</ele><time>2026-05-04T11:53:15Z</time></trkpt><trkpt lat="41.179674902809005" lon="14.68061152687979"><ele>508.0</ele><time>2026-05-04T11:53:16Z</time></trkpt><trkpt lat="41.1797607767005" lon="14.680697370824749"><ele>508.0</ele><time>2026-05-04T11:53:17Z</time></trkpt><trkpt lat="41.179862230855775" lon="14.68076614734577"><ele>508.0</ele><time>2026-05-04T11:53:18Z</time></trkpt><trkpt lat="41.17999265495031" lon="14.680831042252521"><ele>508.0</ele><time>2026-05-04T11:53:19Z</time></trkpt><trkpt lat="41.180149304699206" lon="14.680900858304962"><ele>507.33333333333337</ele><time>2026-05-04T11:53:20Z</time></trkpt><trkpt lat="41.18032978282697" lon="14.680988915870586"><ele>506.66666666666663</ele><time>2026-05-04T11:53:21Z</time></trkpt><trkpt lat="41.180470939820296" lon="14.681060675134379"><ele>506.0</ele><time>2026-05-04T11:53:22Z</time></trkpt><trkpt lat="41.180612030328454" lon="14.681126723249127"><ele>507.6</ele><time>2026-05-04T11:53:23Z</time></trkpt><trkpt lat="41.18073237687204" lon="14.681149196620082"><ele>509.20000000000005</ele><time>2026-05-04T11:53:24Z</time></trkpt><trkpt lat="41.18082733809886" lon="14.681100423508777"><ele>510.79999999999995</ele><time>2026-05-04T11:53:25Z</time></trkpt><trkpt lat="41.18090688130754" lon="14.681023576904165"><ele>512.4</ele><time>2026-05-04T11:53:26Z</time></trkpt><trkpt lat="41.18097636835398" lon="14.681005236597807"><ele>514.0</ele><time>2026-05-04T11:53:27Z</time></trkpt><trkpt lat="41.1810386363852" lon="14.68096253558537"><ele>514.8</ele><time>2026-05-04T11:53:28Z</time></trkpt><trkpt lat="41.18109959242585" lon="14.680918762497505"><ele>515.5999999999999</ele><time>2026-05-04T11:53:35Z</time></trkpt><trkpt lat="41.18117411503356" lon="14.680870444768907"><ele>516.4</ele><time>2026-05-04T11:53:37Z</time></trkpt><trkpt lat="41.181284082132294" lon="14.680699414705026"><ele>517.1999999999999</ele><time>2026-05-04T11:53:39Z</time></trkpt><trkpt lat="41.181342071599474" lon="14.680595045543837"><ele>518.0</ele><time>2026-05-04T11:53:40Z</time></trkpt><trkpt lat="41.18140894018145" lon="14.680477986516781"><ele>518.0</ele><time>2026-05-04T11:53:41Z</time></trkpt><trkpt lat="41.18147849442515" lon="14.680356471495081"><ele>518.0</ele><time>2026-05-04T11:53:42Z</time></trkpt><trkpt lat="41.18154631224861" lon="14.680243252127353"><ele>518.0</ele><time>2026-05-04T11:53:43Z</time></trkpt><trkpt lat="41.181615036897625" lon="14.680139185972065"><ele>518.0</ele><time>2026-05-04T11:53:44Z</time></trkpt><trkpt lat="41.18168641731976" lon="14.68003572364169"><ele>518.0</ele><time>2026-05-04T11:53:45Z</time></trkpt><trkpt lat="41.18175279502338" lon="14.679944615093557"><ele>518.8333333333333</ele><time>2026-05-04T11:53:46Z</time></trkpt><trkpt lat="41.18180809058797" lon="14.679869072637667"><ele>519.6666666666666</ele><time>2026-05-04T11:53:47Z</time></trkpt><trkpt lat="41.18185906069881" lon="14.679799439434925"><ele>520.5</ele><time>2026-05-04T11:53:48Z</time></trkpt><trkpt lat="41.1819167292342" lon="14.679702192048222"><ele>521.3333333333334</ele><time>2026-05-04T11:53:49Z</time></trkpt><trkpt lat="41.18199123305458" lon="14.679652688567018"><ele>522.1666666666667</ele><time>2026-05-04T11:53:50Z</time></trkpt><trkpt lat="41.18205775978852" lon="14.67954667818868"><ele>523.0</ele><time>2026-05-04T11:53:52Z</time></trkpt><trkpt lat="41.18215326276354" lon="14.67939151829093"><ele>523.1428571428571</ele><time>2026-05-04T11:53:54Z</time></trkpt><trkpt lat="41.18222284497304" lon="14.679323713172858"><ele>523.2857142857142</ele><time>2026-05-04T11:53:55Z</time></trkpt><trkpt lat="41.18228087726994" lon="14.679264238372129"><ele>523.4285714285714</ele><time>2026-05-04T11:53:56Z</time></trkpt><trkpt lat="41.182328989516705" lon="14.679205466453222"><ele>523.5714285714286</ele><time>2026-05-04T11:53:57Z</time></trkpt><trkpt lat="41.18236205954691" lon="14.679128860947568"><ele>523.7142857142858</ele><time>2026-05-04T11:53:58Z</time></trkpt><trkpt lat="41.18241027852606" lon="14.679062557212445"><ele>523.8571428571429</ele><time>2026-05-04T11:53:59Z</time></trkpt><trkpt lat="41.182428271932466" lon="14.678968985013274"><ele>524.0</ele><time>2026-05-04T11:54:00Z</time></trkpt><trkpt lat="41.18248292919764" lon="14.678898442206943"><ele>524.0</ele><time>2026-05-04T11:54:01Z</time></trkpt><trkpt lat="41.18254397986661" lon="14.67887358034342"><ele>524.0</ele><time>2026-05-04T11:54:02Z</time></trkpt><trkpt lat="41.18263725563124" lon="14.678869367836691"><ele>524.0</ele><time>2026-05-04T11:54:03Z</time></trkpt><trkpt lat="41.18270264094546" lon="14.678875702976782"><ele>524.0</ele><time>2026-05-04T11:54:04Z</time></trkpt><trkpt lat="41.1828049593782" lon="14.67893054489406"><ele>524.0</ele><time>2026-05-04T11:54:06Z</time></trkpt><trkpt lat="41.182885238720296" lon="14.679018951474108"><ele>524.0</ele><time>2026-05-04T11:54:08Z</time></trkpt><trkpt lat="41.18300999040665" lon="14.678993936768205"><ele>524.0</ele><time>2026-05-04T11:54:10Z</time></trkpt><trkpt lat="41.18312071551857" lon="14.678972544777265"><ele>524.0</ele><time>2026-05-04T11:54:12Z</time></trkpt><trkpt lat="41.183184632852246" lon="14.678980479889884"><ele>524.0</ele><time>2026-05-04T11:54:13Z</time></trkpt><trkpt lat="41.18328911635079" lon="14.678975795246837"><ele>524.0</ele><time>2026-05-04T11:54:15Z</time></trkpt><trkpt lat="41.18340002761042" lon="14.679041347015318"><ele>524.0</ele><time>2026-05-04T11:54:17Z</time></trkpt><trkpt lat="41.18346264785238" lon="14.679006885326842"><ele>522.8</ele><time>2026-05-04T11:54:18Z</time></trkpt><trkpt lat="41.18350464956449" lon="14.678850021785546"><ele>521.5999999999999</ele><time>2026-05-04T11:54:19Z</time></trkpt><trkpt lat="41.18358290719266" lon="14.678787874073267"><ele>520.4</ele><time>2026-05-04T11:54:20Z</time></trkpt><trkpt lat="41.183651592777906" lon="14.678743621832917"><ele>519.1999999999999</ele><time>2026-05-04T11:54:21Z</time></trkpt><trkpt lat="41.183739303120866" lon="14.678718921179826"><ele>518.0</ele><time>2026-05-04T11:54:22Z</time></trkpt><trkpt lat="41.183842277684356" lon="14.678670151597471"><ele>518.0</ele><time>2026-05-04T11:54:23Z</time></trkpt><trkpt lat="41.18396911583859" lon="14.678685378632544"><ele>518.0</ele><time>2026-05-04T11:54:24Z</time></trkpt><trkpt lat="41.18410412296574" lon="14.678671349386306"><ele>518.0</ele><time>2026-05-04T11:54:25Z</time></trkpt><trkpt lat="41.184245752768945" lon="14.678656774292318"><ele>518.0</ele><time>2026-05-04T11:54:26Z</time></trkpt><trkpt lat="41.18439400604701" lon="14.678638320735443"><ele>516.0</ele><time>2026-05-04T11:54:27Z</time></trkpt><trkpt lat="41.184534124985305" lon="14.678613930466556"><ele>514.0</ele><time>2026-05-04T11:54:28Z</time></trkpt><trkpt lat="41.184676131406526" lon="14.678595846668538"><ele>512.0</ele><time>2026-05-04T11:54:29Z</time></trkpt><trkpt lat="41.1848441444985" lon="14.678579304109695"><ele>512.25</ele><time>2026-05-04T11:54:30Z</time></trkpt><trkpt lat="41.18497681152128" lon="14.678548549268097"><ele>512.5</ele><time>2026-05-04T11:54:31Z</time></trkpt><trkpt lat="41.18509284143061" lon="14.678525365088806"><ele>512.75</ele><time>2026-05-04T11:54:32Z</time></trkpt><trkpt lat="41.185207373961966" lon="14.678505361726664"><ele>513.0</ele><time>2026-05-04T11:54:33Z</time></trkpt><trkpt lat="41.18532727735775" lon="14.678477197533706"><ele>513.0</ele><time>2026-05-04T11:54:34Z</time></trkpt><trkpt lat="41.18543629536323" lon="14.678433349941209"><ele>513.0</ele><time>2026-05-04T11:54:35Z</time></trkpt><trkpt lat="41.18554561108518" lon="14.67840993785114"><ele>513.0</ele><time>2026-05-04T11:54:36Z</time></trkpt><trkpt lat="41.185648673759744" lon="14.678413144881121"><ele>513.0</ele><time>2026-05-04T11:54:37Z</time></trkpt><trkpt lat="41.18573808189262" lon="14.678372920700996"><ele>513.0</ele><time>2026-05-04T11:54:38Z</time></trkpt><trkpt lat="41.185832533716116" lon="14.678365091582883"><ele>511.59999999999997</ele><time>2026-05-04T11:54:39Z</time></trkpt><trkpt lat="41.18592568374646" lon="14.678317523769694"><ele>510.19999999999993</ele><time>2026-05-04T11:54:40Z</time></trkpt><trkpt lat="41.18601559005741" lon="14.678284527813547"><ele>508.8</ele><time>2026-05-04T11:54:41Z</time></trkpt><trkpt lat="41.186105442397356" lon="14.6782645868969"><ele>507.4</ele><time>2026-05-04T11:54:43Z</time></trkpt><trkpt lat="41.18620289566278" lon="14.678320694406386"><ele>506.0</ele><time>2026-05-04T11:54:44Z</time></trkpt><trkpt lat="41.18636464876026" lon="14.678363599751451"><ele>501.0</ele><time>2026-05-04T11:54:45Z</time></trkpt><trkpt lat="41.1865456598875" lon="14.678448149392741"><ele>496.0</ele><time>2026-05-04T11:54:46Z</time></trkpt><trkpt lat="41.18670770741697" lon="14.678496016513847"><ele>491.0</ele><time>2026-05-04T11:54:47Z</time></trkpt><trkpt lat="41.18684119571148" lon="14.678532399932582"><ele>491.0</ele><time>2026-05-04T11:54:48Z</time></trkpt><trkpt lat="41.186967336174945" lon="14.67854969238382"><ele>491.0</ele><time>2026-05-04T11:54:49Z</time></trkpt><trkpt lat="41.18708781048353" lon="14.678557649186473"><ele>491.0</ele><time>2026-05-04T11:54:50Z</time></trkpt><trkpt lat="41.18722218723432" lon="14.678573682749827"><ele>491.0</ele><time>2026-05-04T11:54:51Z</time></trkpt><trkpt lat="41.187352759205865" lon="14.678496343424397"><ele>487.5</ele><time>2026-05-04T11:54:52Z</time></trkpt><trkpt lat="41.18746657345764" lon="14.678413865889642"><ele>484.0</ele><time>2026-05-04T11:54:53Z</time></trkpt><trkpt lat="41.18754206684033" lon="14.678255900211884"><ele>480.5</ele><time>2026-05-04T11:54:54Z</time></trkpt><trkpt lat="41.18762235912433" lon="14.678170456010404"><ele>477.0</ele><time>2026-05-04T11:54:55Z</time></trkpt><trkpt lat="41.187684315958535" lon="14.678069486764443"><ele>477.0</ele><time>2026-05-04T11:54:56Z</time></trkpt><trkpt lat="41.18771012728608" lon="14.6779216002796"><ele>477.0</ele><time>2026-05-04T11:54:57Z</time></trkpt><trkpt lat="41.187710006683524" lon="14.677735860132119"><ele>477.0</ele><time>2026-05-04T11:54:58Z</time></trkpt><trkpt lat="41.18768134396333" lon="14.677509690269012"><ele>477.0</ele><time>2026-05-04T11:54:59Z</time></trkpt><trkpt lat="41.187624401144106" lon="14.677308162487215"><ele>476.25</ele><time>2026-05-04T11:55:00Z</time></trkpt><trkpt lat="41.18755548967202" lon="14.677158733945983"><ele>475.5</ele><time>2026-05-04T11:55:01Z</time></trkpt><trkpt lat="41.18745963038891" lon="14.677036445760939"><ele>474.75</ele><time>2026-05-04T11:55:02Z</time></trkpt><trkpt lat="41.18734277410491" lon="14.676955962450377"><ele>474.0</ele><time>2026-05-04T11:55:03Z</time></trkpt><trkpt lat="41.187192455083995" lon="14.676904120440907"><ele>470.5</ele><time>2026-05-04T11:55:03.999Z</time></trkpt><trkpt lat="41.187080496602974" lon="14.676827707891775"><ele>467.0</ele><time>2026-05-04T11:55:04.999Z</time></trkpt><trkpt lat="41.18698618434107" lon="14.67674451286405"><ele>463.5</ele><time>2026-05-04T11:55:05.999Z</time></trkpt><trkpt lat="41.18692182654178" lon="14.67660406128574"><ele>460.0</ele><time>2026-05-04T11:55:06.999Z</time></trkpt><trkpt lat="41.18683860619796" lon="14.67650820490001"><ele>460.0</ele><time>2026-05-04T11:55:07.999Z</time></trkpt><trkpt lat="41.18678979723787" lon="14.676422756527678"><ele>460.0</ele><time>2026-05-04T11:55:08.999Z</time></trkpt><trkpt lat="41.18687200467895" lon="14.676316062836394"><ele>460.0</ele><time>2026-05-04T11:55:09.999Z</time></trkpt><trkpt lat="41.18691308536336" lon="14.676179290435474"><ele>460.0</ele><time>2026-05-04T11:55:10.999Z</time></trkpt><trkpt lat="41.18697055099623" lon="14.675998436514394"><ele>458.0</ele><time>2026-05-04T11:55:11.999Z</time></trkpt><trkpt lat="41.18702627798639" lon="14.675828753961309"><ele>456.0</ele><time>2026-05-04T11:55:12.999Z</time></trkpt><trkpt lat="41.18708728729153" lon="14.675693114179994"><ele>454.0</ele><time>2026-05-04T11:55:13.999Z</time></trkpt><trkpt lat="41.187171523593825" lon="14.675603188186622"><ele>452.0</ele><time>2026-05-04T11:55:14.999Z</time></trkpt><trkpt lat="41.187269256980066" lon="14.675559967141194"><ele>450.0</ele><time>2026-05-04T11:55:15.999Z</time></trkpt><trkpt lat="41.18736957801239" lon="14.675525591918197"><ele>448.00000000000006</ele><time>2026-05-04T11:55:16.999Z</time></trkpt><trkpt lat="41.18744034604817" lon="14.675495314022376"><ele>446.00000000000006</ele><time>2026-05-04T11:55:17.999Z</time></trkpt><trkpt lat="41.18747310691907" lon="14.675344603323484"><ele>444.0</ele><time>2026-05-04T11:55:20.999Z</time></trkpt><trkpt lat="41.187454362657526" lon="14.675146087968155"><ele>442.0</ele><time>2026-05-04T11:55:21.999Z</time></trkpt><trkpt lat="41.18742446224442" lon="14.674894095117905"><ele>439.33333333333337</ele><time>2026-05-04T11:55:22.999Z</time></trkpt><trkpt lat="41.18739797067702" lon="14.674653808105658"><ele>436.66666666666663</ele><time>2026-05-04T11:55:23.999Z</time></trkpt><trkpt lat="41.18737328050336" lon="14.67442989014532"><ele>434.0</ele><time>2026-05-04T11:55:24.999Z</time></trkpt><trkpt lat="41.187346220914776" lon="14.674252734909835"><ele>432.75</ele><time>2026-05-04T11:55:25.999Z</time></trkpt><trkpt lat="41.18733985691111" lon="14.67410240962969"><ele>431.5</ele><time>2026-05-04T11:55:26.999Z</time></trkpt><trkpt lat="41.18737569582626" lon="14.67396506415347"><ele>430.25</ele><time>2026-05-04T11:55:27.999Z</time></trkpt><trkpt lat="41.187442623197185" lon="14.673849739251759"><ele>429.0</ele><time>2026-05-04T11:55:28.999Z</time></trkpt><trkpt lat="41.18755307378091" lon="14.67376703257117"><ele>429.0</ele><time>2026-05-04T11:55:29.999Z</time></trkpt><trkpt lat="41.18771352887153" lon="14.673657829939373"><ele>429.0</ele><time>2026-05-04T11:55:30.999Z</time></trkpt><trkpt lat="41.187882411593655" lon="14.67351956939878"><ele>429.0</ele><time>2026-05-04T11:55:31.999Z</time></trkpt><trkpt lat="41.188044900311425" lon="14.673401414694903"><ele>428.25</ele><time>2026-05-04T11:55:32.999Z</time></trkpt><trkpt lat="41.1881556865346" lon="14.67326752493111"><ele>427.5</ele><time>2026-05-04T11:55:33.999Z</time></trkpt><trkpt lat="41.18824269925942" lon="14.67312560001491"><ele>426.75</ele><time>2026-05-04T11:55:34.999Z</time></trkpt><trkpt lat="41.188288194233394" lon="14.672939858447403"><ele>426.0</ele><time>2026-05-04T11:55:35.999Z</time></trkpt><trkpt lat="41.188327433068885" lon="14.672687470197943"><ele>426.0</ele><time>2026-05-04T11:55:36.999Z</time></trkpt><trkpt lat="41.18837823544619" lon="14.672390329203317"><ele>426.0</ele><time>2026-05-04T11:55:37.999Z</time></trkpt><trkpt lat="41.18844435409136" lon="14.672093088946598"><ele>427.33333333333337</ele><time>2026-05-04T11:55:39Z</time></trkpt><trkpt lat="41.18850875655568" lon="14.671822414818932"><ele>428.6666666666667</ele><time>2026-05-04T11:55:40Z</time></trkpt><trkpt lat="41.18856503226918" lon="14.671580580767088"><ele>430.0</ele><time>2026-05-04T11:55:41Z</time></trkpt><trkpt lat="41.188613821099466" lon="14.671322445030764"><ele>430.6666666666667</ele><time>2026-05-04T11:55:42Z</time></trkpt><trkpt lat="41.18866350320639" lon="14.671054087926153"><ele>431.33333333333337</ele><time>2026-05-04T11:55:43Z</time></trkpt><trkpt lat="41.188719108040985" lon="14.670782435619243"><ele>432.0</ele><time>2026-05-04T11:55:44Z</time></trkpt><trkpt lat="41.188791830707295" lon="14.670516734084279"><ele>434.0</ele><time>2026-05-04T11:55:45Z</time></trkpt><trkpt lat="41.18885004026232" lon="14.670247983155003"><ele>436.0</ele><time>2026-05-04T11:55:46Z</time></trkpt><trkpt lat="41.188892376132486" lon="14.669997967029895"><ele>438.0</ele><time>2026-05-04T11:55:47Z</time></trkpt><trkpt lat="41.18894760978366" lon="14.669768290928143"><ele>438.0</ele><time>2026-05-04T11:55:48Z</time></trkpt><trkpt lat="41.18899732252894" lon="14.669551829003177"><ele>438.0</ele><time>2026-05-04T11:55:49Z</time></trkpt><trkpt lat="41.18904937905994" lon="14.669343274793953"><ele>438.0</ele><time>2026-05-04T11:55:50Z</time></trkpt><trkpt lat="41.18911207591277" lon="14.669173662477728"><ele>434.0</ele><time>2026-05-04T11:55:51Z</time></trkpt><trkpt lat="41.189224760519004" lon="14.669082440729866"><ele>430.0</ele><time>2026-05-04T11:55:52Z</time></trkpt><trkpt lat="41.18934836544406" lon="14.668999029496948"><ele>426.0</ele><time>2026-05-04T11:55:53Z</time></trkpt><trkpt lat="41.189514925082264" lon="14.66891661748"><ele>422.0</ele><time>2026-05-04T11:55:54Z</time></trkpt><trkpt lat="41.18968061173716" lon="14.668812273253696"><ele>420.0</ele><time>2026-05-04T11:55:55Z</time></trkpt><trkpt lat="41.189851143173115" lon="14.668707841839831"><ele>418.0</ele><time>2026-05-04T11:55:56Z</time></trkpt><trkpt lat="41.19001870487122" lon="14.668581617152999"><ele>416.0</ele><time>2026-05-04T11:55:57Z</time></trkpt><trkpt lat="41.19019642657798" lon="14.668443197599489"><ele>416.0</ele><time>2026-05-04T11:55:58Z</time></trkpt><trkpt lat="41.190361240768695" lon="14.668310697798427"><ele>416.0</ele><time>2026-05-04T11:55:59Z</time></trkpt><trkpt lat="41.19052144094731" lon="14.668206279560858"><ele>416.0</ele><time>2026-05-04T11:56:00Z</time></trkpt><trkpt lat="41.1906828275198" lon="14.66817671827882"><ele>411.66666666666663</ele><time>2026-05-04T11:56:01Z</time></trkpt><trkpt lat="41.190853358155366" lon="14.668179806138424"><ele>407.33333333333337</ele><time>2026-05-04T11:56:02Z</time></trkpt><trkpt lat="41.191039882631905" lon="14.668176426292328"><ele>403.0</ele><time>2026-05-04T11:56:03Z</time></trkpt><trkpt lat="41.19122213679623" lon="14.668171277334313"><ele>403.0</ele><time>2026-05-04T11:56:04Z</time></trkpt><trkpt lat="41.1913863076274" lon="14.668128639308245"><ele>403.0</ele><time>2026-05-04T11:56:05Z</time></trkpt><trkpt lat="41.19153575104703" lon="14.668051281341295"><ele>403.0</ele><time>2026-05-04T11:56:06Z</time></trkpt><trkpt lat="41.19168133420409" lon="14.667938100174174"><ele>403.0</ele><time>2026-05-04T11:56:07Z</time></trkpt><trkpt lat="41.191854754124236" lon="14.667827402355599"><ele>403.0</ele><time>2026-05-04T11:56:08Z</time></trkpt><trkpt lat="41.19202920734285" lon="14.667688101375035"><ele>403.0</ele><time>2026-05-04T11:56:09Z</time></trkpt><trkpt lat="41.19220837415359" lon="14.667541971518343"><ele>397.6666666666667</ele><time>2026-05-04T11:56:10Z</time></trkpt><trkpt lat="41.19237188540328" lon="14.667414660553847"><ele>392.33333333333337</ele><time>2026-05-04T11:56:11Z</time></trkpt><trkpt lat="41.192528297195366" lon="14.667293851975746"><ele>387.0</ele><time>2026-05-04T11:56:12Z</time></trkpt><trkpt lat="41.19266646377362" lon="14.667159352681669"><ele>387.0</ele><time>2026-05-04T11:56:13Z</time></trkpt><trkpt lat="41.19279168114907" lon="14.667038805694819"><ele>387.0</ele><time>2026-05-04T11:56:14Z</time></trkpt><trkpt lat="41.19287933963526" lon="14.666885332936939"><ele>387.0</ele><time>2026-05-04T11:56:15Z</time></trkpt><trkpt lat="41.19291745097849" lon="14.666707645226172"><ele>387.0</ele><time>2026-05-04T11:56:16Z</time></trkpt><trkpt lat="41.192968206961545" lon="14.666539794937984"><ele>386.25</ele><time>2026-05-04T11:56:17Z</time></trkpt><trkpt lat="41.19302347163485" lon="14.66639286947615"><ele>385.5</ele><time>2026-05-04T11:56:18Z</time></trkpt><trkpt lat="41.193063917464066" lon="14.666249380009798"><ele>384.75</ele><time>2026-05-04T11:56:19Z</time></trkpt><trkpt lat="41.1931531825999" lon="14.666133919465667"><ele>384.0</ele><time>2026-05-04T11:56:20Z</time></trkpt><trkpt lat="41.19332510449021" lon="14.666074060608517"><ele>384.0</ele><time>2026-05-04T11:56:21Z</time></trkpt><trkpt lat="41.19348116801496" lon="14.665961927652903"><ele>384.0</ele><time>2026-05-04T11:56:22Z</time></trkpt><trkpt lat="41.19365910185731" lon="14.665825148648226"><ele>384.0</ele><time>2026-05-04T11:56:23Z</time></trkpt><trkpt lat="41.19382338324923" lon="14.665698836858848"><ele>384.0</ele><time>2026-05-04T11:56:24Z</time></trkpt><trkpt lat="41.193962045298676" lon="14.665603729705039"><ele>384.0</ele><time>2026-05-04T11:56:25Z</time></trkpt><trkpt lat="41.19407938036609" lon="14.665519331063834"><ele>384.0</ele><time>2026-05-04T11:56:26Z</time></trkpt><trkpt lat="41.19416773846062" lon="14.665427849907456"><ele>384.0</ele><time>2026-05-04T11:56:27Z</time></trkpt><trkpt lat="41.194216030328434" lon="14.665307954217942"><ele>380.3333333333333</ele><time>2026-05-04T11:56:28Z</time></trkpt><trkpt lat="41.19423815271104" lon="14.665154172333962"><ele>376.66666666666663</ele><time>2026-05-04T11:56:29Z</time></trkpt><trkpt lat="41.19423830197914" lon="14.664941411929393"><ele>373.0</ele><time>2026-05-04T11:56:30Z</time></trkpt><trkpt lat="41.19426627668069" lon="14.664699576106518"><ele>373.0</ele><time>2026-05-04T11:56:31Z</time></trkpt><trkpt lat="41.19428763677682" lon="14.664511143050285"><ele>373.0</ele><time>2026-05-04T11:56:32Z</time></trkpt><trkpt lat="41.1943241392758" lon="14.664366854982784"><ele>373.0</ele><time>2026-05-04T11:56:33Z</time></trkpt><trkpt lat="41.1943939830517" lon="14.664242189301655"><ele>373.0</ele><time>2026-05-04T11:56:34Z</time></trkpt><trkpt lat="41.19449043560831" lon="14.664147742023431"><ele>374.25</ele><time>2026-05-04T11:56:35Z</time></trkpt><trkpt lat="41.19458164914757" lon="14.664056037253982"><ele>375.5</ele><time>2026-05-04T11:56:36Z</time></trkpt><trkpt lat="41.194673365667654" lon="14.663967451499612"><ele>376.75</ele><time>2026-05-04T11:56:37Z</time></trkpt><trkpt lat="41.1947782580226" lon="14.663866023081537"><ele>378.0</ele><time>2026-05-04T11:56:38Z</time></trkpt><trkpt lat="41.19486686340879" lon="14.663747757103058"><ele>374.3333333333333</ele><time>2026-05-04T11:56:39Z</time></trkpt><trkpt lat="41.19494437929852" lon="14.663682324901156"><ele>370.6666666666667</ele><time>2026-05-04T11:56:40Z</time></trkpt><trkpt lat="41.19500782179591" lon="14.663670536998541"><ele>367.0</ele><time>2026-05-04T11:56:41Z</time></trkpt><trkpt lat="41.195081415716544" lon="14.663841884536335"><ele>363.33333333333337</ele><time>2026-05-04T11:56:44Z</time></trkpt><trkpt lat="41.19514174045292" lon="14.663876965317076"><ele>359.6666666666667</ele><time>2026-05-04T11:56:47Z</time></trkpt><trkpt lat="41.195207138513005" lon="14.66384548460274"><ele>356.0</ele><time>2026-05-04T11:56:48Z</time></trkpt><trkpt lat="41.19530710659593" lon="14.663788109495492"><ele>356.0</ele><time>2026-05-04T11:56:49Z</time></trkpt><trkpt lat="41.19537979446082" lon="14.6637694099035"><ele>356.0</ele><time>2026-05-04T11:56:50Z</time></trkpt><trkpt lat="41.195470942242395" lon="14.663752459406139"><ele>356.0</ele><time>2026-05-04T11:56:52Z</time></trkpt><trkpt lat="41.19556715878136" lon="14.663775157358975"><ele>356.0</ele><time>2026-05-04T11:56:54Z</time></trkpt><trkpt lat="41.19562932239193" lon="14.66379031792821"><ele>356.0</ele><time>2026-05-04T11:56:55Z</time></trkpt><trkpt lat="41.19572240539199" lon="14.663781713975068"><ele>356.0</ele><time>2026-05-04T11:56:56Z</time></trkpt><trkpt lat="41.195830426882914" lon="14.663775133547976"><ele>353.83333333333337</ele><time>2026-05-04T11:56:57Z</time></trkpt><trkpt lat="41.195923657035074" lon="14.663756444549792"><ele>351.6666666666667</ele><time>2026-05-04T11:56:58Z</time></trkpt><trkpt lat="41.195993811959184" lon="14.663745554595101"><ele>349.5</ele><time>2026-05-04T11:56:59Z</time></trkpt><trkpt lat="41.19605929212379" lon="14.663737377991966"><ele>347.3333333333333</ele><time>2026-05-04T11:57:00Z</time></trkpt><trkpt lat="41.19612680685086" lon="14.663738852548676"><ele>345.16666666666663</ele><time>2026-05-04T11:57:01Z</time></trkpt><trkpt lat="41.19619974369331" lon="14.663762305189508"><ele>343.0</ele><time>2026-05-04T11:57:02Z</time></trkpt><trkpt lat="41.19627335604875" lon="14.663791533190357"><ele>343.0</ele><time>2026-05-04T11:57:03Z</time></trkpt><trkpt lat="41.196343674005384" lon="14.66381099695623"><ele>343.0</ele><time>2026-05-04T11:57:04Z</time></trkpt><trkpt lat="41.19645232262445" lon="14.663824676968083"><ele>343.0</ele><time>2026-05-04T11:57:06Z</time></trkpt><trkpt lat="41.19637589511813" lon="14.663849875564607"><ele>343.0</ele><time>2026-05-04T11:57:12Z</time></trkpt><trkpt lat="41.19627184901358" lon="14.663956729032302"><ele>343.0</ele><time>2026-05-04T11:57:14Z</time></trkpt><trkpt lat="41.19622809599023" lon="14.664046040316542"><ele>343.0</ele><time>2026-05-04T11:57:15Z</time></trkpt><trkpt lat="41.1961866060872" lon="14.664130184684046"><ele>343.0</ele><time>2026-05-04T11:57:16Z</time></trkpt><trkpt lat="41.19615926103665" lon="14.664206139527522"><ele>343.0</ele><time>2026-05-04T11:57:17Z</time></trkpt><trkpt lat="41.19608156832731" lon="14.664332791681263"><ele>343.0</ele><time>2026-05-04T11:57:19Z</time></trkpt><trkpt lat="41.1960237326698" lon="14.664399625286457"><ele>343.0</ele><time>2026-05-04T11:57:20Z</time></trkpt><trkpt lat="41.195969564849605" lon="14.664468854239828"><ele>343.0</ele><time>2026-05-04T11:57:21Z</time></trkpt><trkpt lat="41.1959103020486" lon="14.66451887155851"><ele>343.66666666666663</ele><time>2026-05-04T11:57:22Z</time></trkpt><trkpt lat="41.19586578737029" lon="14.664586386601757"><ele>344.3333333333333</ele><time>2026-05-04T11:57:23Z</time></trkpt><trkpt lat="41.19580303214006" lon="14.664628473146108"><ele>345.0</ele><time>2026-05-04T11:57:24Z</time></trkpt><trkpt lat="41.195739573704856" lon="14.664684017972014"><ele>345.6666666666667</ele><time>2026-05-04T11:57:25Z</time></trkpt><trkpt lat="41.19569418055539" lon="14.6647491549266"><ele>346.33333333333337</ele><time>2026-05-04T11:57:26Z</time></trkpt><trkpt lat="41.19561582373947" lon="14.664781636251744"><ele>347.0</ele><time>2026-05-04T11:57:28Z</time></trkpt><trkpt lat="41.19583250257336" lon="14.66503700002375"><ele>343.8</ele><time>2026-05-04T11:57:31.999Z</time></trkpt><trkpt lat="41.195872856149016" lon="14.66510553313306"><ele>340.6</ele><time>2026-05-04T11:57:32.999Z</time></trkpt><trkpt lat="41.195893498342755" lon="14.665291215712115"><ele>337.40000000000003</ele><time>2026-05-04T11:57:34.999Z</time></trkpt><trkpt lat="41.19590194123133" lon="14.6653935092932"><ele>334.20000000000005</ele><time>2026-05-04T11:57:35.999Z</time></trkpt><trkpt lat="41.19588956174811" lon="14.665558867602703"><ele>331.0</ele><time>2026-05-04T11:57:37.999Z</time></trkpt><trkpt lat="41.19591624441087" lon="14.665694557408619"><ele>328.40000000000003</ele><time>2026-05-04T11:57:40Z</time></trkpt><trkpt lat="41.19604057473782" lon="14.665726672181508"><ele>325.8</ele><time>2026-05-04T11:57:44Z</time></trkpt><trkpt lat="41.19613744732065" lon="14.665686603610725"><ele>323.20000000000005</ele><time>2026-05-04T11:57:45Z</time></trkpt><trkpt lat="41.19624061001049" lon="14.665635128769084"><ele>320.6</ele><time>2026-05-04T11:57:46Z</time></trkpt><trkpt lat="41.19633491069199" lon="14.66556769004338"><ele>318.0</ele><time>2026-05-04T11:57:47Z</time></trkpt><trkpt lat="41.196440505936614" lon="14.665502075716324"><ele>318.6666666666667</ele><time>2026-05-04T11:57:48Z</time></trkpt><trkpt lat="41.196604505023586" lon="14.665430797789853"><ele>319.33333333333337</ele><time>2026-05-04T11:57:49Z</time></trkpt><trkpt lat="41.19674370640033" lon="14.665345513389777"><ele>320.0</ele><time>2026-05-04T11:57:50Z</time></trkpt><trkpt lat="41.19687482508735" lon="14.66524290292716"><ele>320.0</ele><time>2026-05-04T11:57:51Z</time></trkpt><trkpt lat="41.19699456196313" lon="14.665133299411583"><ele>320.0</ele><time>2026-05-04T11:57:52Z</time></trkpt><trkpt lat="41.197092910457044" lon="14.665014689084927"><ele>320.0</ele><time>2026-05-04T11:57:53Z</time></trkpt><trkpt lat="41.19718807842754" lon="14.664882959852093"><ele>320.0</ele><time>2026-05-04T11:57:54Z</time></trkpt><trkpt lat="41.19728150081639" lon="14.664745032494487"><ele>318.75</ele><time>2026-05-04T11:57:55Z</time></trkpt><trkpt lat="41.19736983834404" lon="14.66462035323855"><ele>317.5</ele><time>2026-05-04T11:57:56Z</time></trkpt><trkpt lat="41.197464900079815" lon="14.664509903147527"><ele>316.25</ele><time>2026-05-04T11:57:57Z</time></trkpt><trkpt lat="41.197571248365364" lon="14.664406533491588"><ele>315.0</ele><time>2026-05-04T11:57:58Z</time></trkpt><trkpt lat="41.19767478964725" lon="14.664329612751489"><ele>315.0</ele><time>2026-05-04T11:57:59Z</time></trkpt><trkpt lat="41.197795601053556" lon="14.664280100351338"><ele>315.0</ele><time>2026-05-04T11:58:00Z</time></trkpt><trkpt lat="41.19794055639585" lon="14.664261688419238"><ele>315.0</ele><time>2026-05-04T11:58:01Z</time></trkpt><trkpt lat="41.19807895576935" lon="14.664247992178842"><ele>315.0</ele><time>2026-05-04T11:58:02Z</time></trkpt><trkpt lat="41.19819865104588" lon="14.664223591625447"><ele>311.0</ele><time>2026-05-04T11:58:03Z</time></trkpt><trkpt lat="41.198299922161496" lon="14.664168993318501"><ele>307.0</ele><time>2026-05-04T11:58:04Z</time></trkpt><trkpt lat="41.19838603465402" lon="14.664057186589988"><ele>303.0</ele><time>2026-05-04T11:58:05Z</time></trkpt><trkpt lat="41.198450285732726" lon="14.663909097075626"><ele>299.0</ele><time>2026-05-04T11:58:06Z</time></trkpt><trkpt lat="41.198491742939616" lon="14.663718668913244"><ele>301.0</ele><time>2026-05-04T11:58:07Z</time></trkpt><trkpt lat="41.198542629026626" lon="14.663518134927157"><ele>303.0</ele><time>2026-05-04T11:58:08Z</time></trkpt><trkpt lat="41.19861473690971" lon="14.66330575819668"><ele>305.0</ele><time>2026-05-04T11:58:09Z</time></trkpt><trkpt lat="41.19872630587761" lon="14.663104669646032"><ele>305.0</ele><time>2026-05-04T11:58:10Z</time></trkpt><trkpt lat="41.198836037383586" lon="14.662861473518083"><ele>305.0</ele><time>2026-05-04T11:58:11Z</time></trkpt><trkpt lat="41.19895754150183" lon="14.662612514473423"><ele>305.0</ele><time>2026-05-04T11:58:12Z</time></trkpt><trkpt lat="41.19906365021661" lon="14.662361681897849"><ele>298.0</ele><time>2026-05-04T11:58:13Z</time></trkpt><trkpt lat="41.199182772393186" lon="14.662119476826387"><ele>291.0</ele><time>2026-05-04T11:58:14Z</time></trkpt><trkpt lat="41.199313047961766" lon="14.661851856721757"><ele>291.0</ele><time>2026-05-04T11:58:15Z</time></trkpt><trkpt lat="41.199448492609584" lon="14.661613855662308"><ele>291.0</ele><time>2026-05-04T11:58:16Z</time></trkpt><trkpt lat="41.19956102026093" lon="14.661367431668493"><ele>291.0</ele><time>2026-05-04T11:58:17Z</time></trkpt><trkpt lat="41.19964430184442" lon="14.661090017924248"><ele>292.5</ele><time>2026-05-04T11:58:18Z</time></trkpt><trkpt lat="41.199750656049694" lon="14.660778095074983"><ele>294.0</ele><time>2026-05-04T11:58:19Z</time></trkpt><trkpt lat="41.199853614895694" lon="14.660409528477045"><ele>282.5</ele><time>2026-05-04T11:58:20Z</time></trkpt><trkpt lat="41.19995820368024" lon="14.660025423717208"><ele>271.0</ele><time>2026-05-04T11:58:21Z</time></trkpt><trkpt lat="41.20005346024132" lon="14.659678470316239"><ele>271.0</ele><time>2026-05-04T11:58:22Z</time></trkpt><trkpt lat="41.20013824507373" lon="14.659398455292807"><ele>271.0</ele><time>2026-05-04T11:58:23Z</time></trkpt><trkpt lat="41.20020288069725" lon="14.659169979872564"><ele>271.0</ele><time>2026-05-04T11:58:24Z</time></trkpt><trkpt lat="41.20023568897171" lon="14.658971718065667"><ele>271.0</ele><time>2026-05-04T11:58:25Z</time></trkpt><trkpt lat="41.20026053720601" lon="14.65877170935319"><ele>271.0</ele><time>2026-05-04T11:58:26Z</time></trkpt><trkpt lat="41.2002250509864" lon="14.658544227994312"><ele>271.0</ele><time>2026-05-04T11:58:27Z</time></trkpt><trkpt lat="41.20015521712191" lon="14.658282648790454"><ele>269.3333333333333</ele><time>2026-05-04T11:58:28Z</time></trkpt><trkpt lat="41.20004461312301" lon="14.65801196925579"><ele>267.6666666666667</ele><time>2026-05-04T11:58:29Z</time></trkpt><trkpt lat="41.199971031427985" lon="14.657757770886361"><ele>266.0</ele><time>2026-05-04T11:58:30Z</time></trkpt><trkpt lat="41.19993259897141" lon="14.657536163137781"><ele>264.33333333333337</ele><time>2026-05-04T11:58:31Z</time></trkpt><trkpt lat="41.19994156655899" lon="14.657321484873812"><ele>262.6666666666667</ele><time>2026-05-04T11:58:32Z</time></trkpt><trkpt lat="41.19999888448876" lon="14.65709620500571"><ele>261.0</ele><time>2026-05-04T11:58:33Z</time></trkpt><trkpt lat="41.200103169560876" lon="14.656873592726926"><ele>261.0</ele><time>2026-05-04T11:58:34Z</time></trkpt><trkpt lat="41.20026178895534" lon="14.656635330117812"><ele>261.0</ele><time>2026-05-04T11:58:35Z</time></trkpt><trkpt lat="41.20044537427573" lon="14.656387476752966"><ele>261.0</ele><time>2026-05-04T11:58:36Z</time></trkpt><trkpt lat="41.200638833798656" lon="14.656128356933742"><ele>261.0</ele><time>2026-05-04T11:58:37Z</time></trkpt><trkpt lat="41.200845604185474" lon="14.655842548495375"><ele>253.0</ele><time>2026-05-04T11:58:38Z</time></trkpt><trkpt lat="41.201038778180326" lon="14.655569233933068"><ele>245.0</ele><time>2026-05-04T11:58:39Z</time></trkpt><trkpt lat="41.20120854710115" lon="14.655334697605918"><ele>248.5</ele><time>2026-05-04T11:58:40Z</time></trkpt><trkpt lat="41.201381623429285" lon="14.65511138521081"><ele>252.0</ele><time>2026-05-04T11:58:41Z</time></trkpt><trkpt lat="41.201569164037444" lon="14.654920851805029"><ele>242.5</ele><time>2026-05-04T11:58:42Z</time></trkpt><trkpt lat="41.20176099215681" lon="14.654723515178077"><ele>233.0</ele><time>2026-05-04T11:58:43Z</time></trkpt><trkpt lat="41.201955561436286" lon="14.654520735452122"><ele>237.0</ele><time>2026-05-04T11:58:44Z</time></trkpt><trkpt lat="41.20214976026646" lon="14.654312523725759"><ele>241.0</ele><time>2026-05-04T11:58:45Z</time></trkpt><trkpt lat="41.20234245600353" lon="14.6541050675815"><ele>232.5</ele><time>2026-05-04T11:58:46Z</time></trkpt><trkpt lat="41.20252693573039" lon="14.65391264731194"><ele>224.0</ele><time>2026-05-04T11:58:47Z</time></trkpt><trkpt lat="41.20271182401282" lon="14.653715210071462"><ele>227.0</ele><time>2026-05-04T11:58:48Z</time></trkpt><trkpt lat="41.20288488488691" lon="14.65353621661497"><ele>230.0</ele><time>2026-05-04T11:58:49Z</time></trkpt><trkpt lat="41.20305324165749" lon="14.6533599683085"><ele>233.0</ele><time>2026-05-04T11:58:50Z</time></trkpt><trkpt lat="41.2032077217641" lon="14.653173893457453"><ele>228.33333333333334</ele><time>2026-05-04T11:58:51Z</time></trkpt><trkpt lat="41.20333255472425" lon="14.652948168820428"><ele>223.66666666666669</ele><time>2026-05-04T11:58:52Z</time></trkpt><trkpt lat="41.203444000019886" lon="14.65270823550172"><ele>219.0</ele><time>2026-05-04T11:58:53Z</time></trkpt><trkpt lat="41.20355977465386" lon="14.652495138595768"><ele>219.0</ele><time>2026-05-04T11:58:54Z</time></trkpt><trkpt lat="41.20366415201194" lon="14.652282764955427"><ele>219.0</ele><time>2026-05-04T11:58:55Z</time></trkpt><trkpt lat="41.203778590054476" lon="14.652094230508384"><ele>219.0</ele><time>2026-05-04T11:58:56Z</time></trkpt><trkpt lat="41.20393327314736" lon="14.65191809823578"><ele>213.0</ele><time>2026-05-04T11:58:57Z</time></trkpt><trkpt lat="41.20411726269136" lon="14.651714690203724"><ele>207.0</ele><time>2026-05-04T11:58:58Z</time></trkpt><trkpt lat="41.204324317408684" lon="14.651490874503395"><ele>207.0</ele><time>2026-05-04T11:58:59Z</time></trkpt><trkpt lat="41.20452446589533" lon="14.651275292082921"><ele>207.0</ele><time>2026-05-04T11:59:00Z</time></trkpt><trkpt lat="41.20470139881453" lon="14.651088582439664"><ele>205.66666666666669</ele><time>2026-05-04T11:59:01Z</time></trkpt><trkpt lat="41.20488084925603" lon="14.65093748753774"><ele>204.33333333333334</ele><time>2026-05-04T11:59:02Z</time></trkpt><trkpt lat="41.20505422401186" lon="14.650803305305146"><ele>203.0</ele><time>2026-05-04T11:59:03Z</time></trkpt><trkpt lat="41.20521537757417" lon="14.650672127846887"><ele>203.0</ele><time>2026-05-04T11:59:04Z</time></trkpt><trkpt lat="41.20537082221063" lon="14.65053578943576"><ele>203.0</ele><time>2026-05-04T11:59:05Z</time></trkpt><trkpt lat="41.20550367149877" lon="14.650338706057958"><ele>203.0</ele><time>2026-05-04T11:59:06Z</time></trkpt><trkpt lat="41.2056381509779" lon="14.650113608476595"><ele>198.5</ele><time>2026-05-04T11:59:07Z</time></trkpt><trkpt lat="41.205780954575175" lon="14.649852316994549"><ele>194.0</ele><time>2026-05-04T11:59:08Z</time></trkpt><trkpt lat="41.20591531656361" lon="14.649566356964687"><ele>196.5</ele><time>2026-05-04T11:59:09Z</time></trkpt><trkpt lat="41.20605779978497" lon="14.649270680703781"><ele>199.0</ele><time>2026-05-04T11:59:10Z</time></trkpt><trkpt lat="41.206200351245975" lon="14.648976148425753"><ele>199.0</ele><time>2026-05-04T11:59:11Z</time></trkpt><trkpt lat="41.20634705623051" lon="14.648670099196494"><ele>199.0</ele><time>2026-05-04T11:59:12Z</time></trkpt><trkpt lat="41.20649247392378" lon="14.648378182546242"><ele>191.5</ele><time>2026-05-04T11:59:13Z</time></trkpt><trkpt lat="41.20662453156726" lon="14.648098066978763"><ele>184.0</ele><time>2026-05-04T11:59:14Z</time></trkpt><trkpt lat="41.2067473540307" lon="14.647839772554585"><ele>185.0</ele><time>2026-05-04T11:59:15Z</time></trkpt><trkpt lat="41.20686184690509" lon="14.64760327036454"><ele>186.0</ele><time>2026-05-04T11:59:16Z</time></trkpt><trkpt lat="41.20696873609131" lon="14.647388276282777"><ele>187.0</ele><time>2026-05-04T11:59:17Z</time></trkpt><trkpt lat="41.20706506180032" lon="14.647168970578111"><ele>187.33333333333334</ele><time>2026-05-04T11:59:18Z</time></trkpt><trkpt lat="41.207137860983146" lon="14.646935453386682"><ele>187.66666666666666</ele><time>2026-05-04T11:59:19Z</time></trkpt><trkpt lat="41.20716476482877" lon="14.646654482913194"><ele>188.0</ele><time>2026-05-04T11:59:20Z</time></trkpt><trkpt lat="41.20719150373145" lon="14.646354944081931"><ele>187.5</ele><time>2026-05-04T11:59:21Z</time></trkpt><trkpt lat="41.207229324234206" lon="14.646005890671981"><ele>187.0</ele><time>2026-05-04T11:59:22Z</time></trkpt><trkpt lat="41.207247914389484" lon="14.64568569170822"><ele>187.0</ele><time>2026-05-04T11:59:23Z</time></trkpt><trkpt lat="41.20726559983985" lon="14.645403836223467"><ele>187.0</ele><time>2026-05-04T11:59:24Z</time></trkpt><trkpt lat="41.207296477422204" lon="14.645144737648913"><ele>187.0</ele><time>2026-05-04T11:59:25Z</time></trkpt><trkpt lat="41.20736953863257" lon="14.644909679506162"><ele>177.0</ele><time>2026-05-04T11:59:26Z</time></trkpt><trkpt lat="41.20747515796844" lon="14.644631039398917"><ele>167.0</ele><time>2026-05-04T11:59:27Z</time></trkpt><trkpt lat="41.20758153292501" lon="14.644350404612046"><ele>167.0</ele><time>2026-05-04T11:59:28Z</time></trkpt><trkpt lat="41.207676996229615" lon="14.644098556586934"><ele>167.0</ele><time>2026-05-04T11:59:29Z</time></trkpt><trkpt lat="41.20775692623277" lon="14.64387421286342"><ele>167.0</ele><time>2026-05-04T11:59:30Z</time></trkpt><trkpt lat="41.20769856778418" lon="14.643599702545655"><ele>166.66666666666666</ele><time>2026-05-04T11:59:31Z</time></trkpt><trkpt lat="41.207711933583965" lon="14.643376982485814"><ele>166.33333333333334</ele><time>2026-05-04T11:59:32Z</time></trkpt><trkpt lat="41.20771910943307" lon="14.643164006737033"><ele>166.0</ele><time>2026-05-04T11:59:33Z</time></trkpt><trkpt lat="41.207717760144575" lon="14.642961239475488"><ele>164.5</ele><time>2026-05-04T11:59:34Z</time></trkpt><trkpt lat="41.20768905889381" lon="14.64277296617712"><ele>163.0</ele><time>2026-05-04T11:59:35Z</time></trkpt><trkpt lat="41.207637639184284" lon="14.642591773574038"><ele>161.5</ele><time>2026-05-04T11:59:36Z</time></trkpt><trkpt lat="41.20758809158464" lon="14.642420996803681"><ele>160.0</ele><time>2026-05-04T11:59:37Z</time></trkpt><trkpt lat="41.207549682611855" lon="14.642277132771712"><ele>160.0</ele><time>2026-05-04T11:59:38Z</time></trkpt><trkpt lat="41.20751701576957" lon="14.642187740293652"><ele>160.0</ele><time>2026-05-04T11:59:39Z</time></trkpt><trkpt lat="41.20754329506417" lon="14.642082628197798"><ele>160.0</ele><time>2026-05-04T11:59:40Z</time></trkpt><trkpt lat="41.20761890665092" lon="14.641934544105888"><ele>160.0</ele><time>2026-05-04T11:59:42Z</time></trkpt><trkpt lat="41.207713613324486" lon="14.641875599146914"><ele>160.0</ele><time>2026-05-04T11:59:43Z</time></trkpt><trkpt lat="41.20779442084786" lon="14.641826978212768"><ele>158.66666666666669</ele><time>2026-05-04T11:59:44Z</time></trkpt><trkpt lat="41.20784070384805" lon="14.641741213588045"><ele>157.33333333333334</ele><time>2026-05-04T11:59:45Z</time></trkpt><trkpt lat="41.20784298208726" lon="14.64163543753305"><ele>156.0</ele><time>2026-05-04T11:59:46Z</time></trkpt><trkpt lat="41.20781762064189" lon="14.641532498098243"><ele>154.66666666666666</ele><time>2026-05-04T11:59:47Z</time></trkpt><trkpt lat="41.20776914512589" lon="14.641437235083368"><ele>153.33333333333331</ele><time>2026-05-04T11:59:48Z</time></trkpt><trkpt lat="41.20771635015683" lon="14.641339273943752"><ele>152.0</ele><time>2026-05-04T11:59:49Z</time></trkpt><trkpt lat="41.207713422533686" lon="14.641228332985724"><ele>152.0</ele><time>2026-05-04T11:59:50Z</time></trkpt><trkpt lat="41.20776108875812" lon="14.641133268496782"><ele>152.0</ele><time>2026-05-04T11:59:51Z</time></trkpt><trkpt lat="41.20785417619534" lon="14.641064682272951"><ele>152.0</ele><time>2026-05-04T11:59:52Z</time></trkpt><trkpt lat="41.207963587608056" lon="14.641029476076916"><ele>152.0</ele><time>2026-05-04T11:59:53Z</time></trkpt><trkpt lat="41.208102436882896" lon="14.641022089586102"><ele>152.0</ele><time>2026-05-04T11:59:54Z</time></trkpt><trkpt lat="41.20825026647519" lon="14.641028486322494"><ele>145.75</ele><time>2026-05-04T11:59:55Z</time></trkpt><trkpt lat="41.2083930167336" lon="14.64103056558525"><ele>139.5</ele><time>2026-05-04T11:59:56Z</time></trkpt><trkpt lat="41.208535073894474" lon="14.641020627365183"><ele>133.25</ele><time>2026-05-04T11:59:57Z</time></trkpt><trkpt lat="41.20867330658459" lon="14.641001006867066"><ele>127.0</ele><time>2026-05-04T11:59:58Z</time></trkpt><trkpt lat="41.20881584267134" lon="14.640993982708931"><ele>127.0</ele><time>2026-05-04T11:59:59Z</time></trkpt><trkpt lat="41.20896249496911" lon="14.640996792103053"><ele>127.0</ele><time>2026-05-04T12:00:00Z</time></trkpt><trkpt lat="41.20910951833566" lon="14.640980845972086"><ele>127.0</ele><time>2026-05-04T12:00:01Z</time></trkpt><trkpt lat="41.209255568841336" lon="14.640949311807136"><ele>127.0</ele><time>2026-05-04T12:00:02Z</time></trkpt><trkpt lat="41.20938985026616" lon="14.64091448841139"><ele>123.6</ele><time>2026-05-04T12:00:03Z</time></trkpt><trkpt lat="41.209521844756665" lon="14.640892557965282"><ele>120.19999999999999</ele><time>2026-05-04T12:00:04Z</time></trkpt><trkpt lat="41.20964444426975" lon="14.640876018625066"><ele>116.8</ele><time>2026-05-04T12:00:05Z</time></trkpt><trkpt lat="41.20974380259861" lon="14.640861795088602"><ele>113.4</ele><time>2026-05-04T12:00:06Z</time></trkpt><trkpt lat="41.20981911819264" lon="14.640842473170956"><ele>110.0</ele><time>2026-05-04T12:00:07Z</time></trkpt><trkpt lat="41.20992714821898" lon="14.640733841406798"><ele>106.75</ele><time>2026-05-04T12:00:09Z</time></trkpt><trkpt lat="41.20999450566458" lon="14.640625070384118"><ele>103.5</ele><time>2026-05-04T12:00:10Z</time></trkpt><trkpt lat="41.21007932252528" lon="14.64047859533445"><ele>100.25</ele><time>2026-05-04T12:00:11Z</time></trkpt><trkpt lat="41.21016095892182" lon="14.640351498421976"><ele>97.0</ele><time>2026-05-04T12:00:12Z</time></trkpt><trkpt lat="41.210235876060565" lon="14.640236825778684"><ele>97.0</ele><time>2026-05-04T12:00:13Z</time></trkpt><trkpt lat="41.21031258746742" lon="14.640123882448387"><ele>97.0</ele><time>2026-05-04T12:00:14Z</time></trkpt><trkpt lat="41.21038482446385" lon="14.640023388846101"><ele>97.0</ele><time>2026-05-04T12:00:15Z</time></trkpt><trkpt lat="41.21045247100618" lon="14.639928446581042"><ele>97.0</ele><time>2026-05-04T12:00:16Z</time></trkpt><trkpt lat="41.21051980200341" lon="14.63981221133004"><ele>97.0</ele><time>2026-05-04T12:00:17Z</time></trkpt><trkpt lat="41.21056232117552" lon="14.63968113843605"><ele>97.0</ele><time>2026-05-04T12:00:18Z</time></trkpt><trkpt lat="41.210584654830214" lon="14.639548629241805"><ele>97.0</ele><time>2026-05-04T12:00:19Z</time></trkpt><trkpt lat="41.21057189473364" lon="14.639436661333987"><ele>97.0</ele><time>2026-05-04T12:00:20Z</time></trkpt><trkpt lat="41.210569380621806" lon="14.639342211747376"><ele>97.0</ele><time>2026-05-04T12:00:21Z</time></trkpt><trkpt lat="41.21066863296392" lon="14.639233624462543"><ele>97.0</ele><time>2026-05-04T12:00:23Z</time></trkpt><trkpt lat="41.210750847508066" lon="14.639215455279977"><ele>94.83333333333334</ele><time>2026-05-04T12:00:24Z</time></trkpt><trkpt lat="41.21083686161264" lon="14.639206293310036"><ele>92.66666666666667</ele><time>2026-05-04T12:00:25Z</time></trkpt><trkpt lat="41.21091816235846" lon="14.63920279529352"><ele>90.5</ele><time>2026-05-04T12:00:26Z</time></trkpt><trkpt lat="41.210998351818226" lon="14.63918440310993"><ele>88.33333333333334</ele><time>2026-05-04T12:00:27Z</time></trkpt><trkpt lat="41.21107553322531" lon="14.63913456128514"><ele>86.16666666666667</ele><time>2026-05-04T12:00:28Z</time></trkpt><trkpt lat="41.21114076285676" lon="14.639060138744565"><ele>84.0</ele><time>2026-05-04T12:00:29Z</time></trkpt><trkpt lat="41.21117984062653" lon="14.638976395421798"><ele>84.0</ele><time>2026-05-04T12:00:30Z</time></trkpt><trkpt lat="41.21126316988914" lon="14.638881407649192"><ele>84.0</ele><time>2026-05-04T12:00:32Z</time></trkpt><trkpt lat="41.21139952152635" lon="14.63884629777067"><ele>84.0</ele><time>2026-05-04T12:00:34Z</time></trkpt><trkpt lat="41.21150869488291" lon="14.638822469855485"><ele>84.0</ele><time>2026-05-04T12:00:35Z</time></trkpt><trkpt lat="41.21163424765393" lon="14.638796620323314"><ele>82.5</ele><time>2026-05-04T12:00:36Z</time></trkpt><trkpt lat="41.21175503949496" lon="14.63877012041512"><ele>81.0</ele><time>2026-05-04T12:00:37Z</time></trkpt><trkpt lat="41.211869466294665" lon="14.638748931545212"><ele>79.5</ele><time>2026-05-04T12:00:38Z</time></trkpt><trkpt lat="41.21199130842777" lon="14.63872481972784"><ele>78.0</ele><time>2026-05-04T12:00:39Z</time></trkpt><trkpt lat="41.21213018500863" lon="14.638689120231207"><ele>78.0</ele><time>2026-05-04T12:00:40Z</time></trkpt><trkpt lat="41.212280014123806" lon="14.638659901191819"><ele>78.0</ele><time>2026-05-04T12:00:41Z</time></trkpt><trkpt lat="41.21241780531583" lon="14.638625322054965"><ele>78.0</ele><time>2026-05-04T12:00:42Z</time></trkpt><trkpt lat="41.21256321000444" lon="14.638618954111864"><ele>78.0</ele><time>2026-05-04T12:00:43Z</time></trkpt><trkpt lat="41.21270905876245" lon="14.6385864777407"><ele>76.66666666666667</ele><time>2026-05-04T12:00:44Z</time></trkpt><trkpt lat="41.21286468793493" lon="14.638552227711129"><ele>75.33333333333334</ele><time>2026-05-04T12:00:45Z</time></trkpt><trkpt lat="41.21302675693921" lon="14.638516109982216"><ele>74.0</ele><time>2026-05-04T12:00:46Z</time></trkpt><trkpt lat="41.21318749724179" lon="14.638463752098962"><ele>73.33333333333334</ele><time>2026-05-04T12:00:47Z</time></trkpt><trkpt lat="41.21334001191797" lon="14.638427416189474"><ele>72.66666666666667</ele><time>2026-05-04T12:00:48Z</time></trkpt><trkpt lat="41.213512109653216" lon="14.638379015427827"><ele>72.0</ele><time>2026-05-04T12:00:49Z</time></trkpt><trkpt lat="41.21372405034852" lon="14.638353016807338"><ele>72.0</ele><time>2026-05-04T12:00:50Z</time></trkpt><trkpt lat="41.21393556863361" lon="14.638244512408884"><ele>72.0</ele><time>2026-05-04T12:00:51Z</time></trkpt><trkpt lat="41.21418763311905" lon="14.638216696123102"><ele>70.0</ele><time>2026-05-04T12:00:52Z</time></trkpt><trkpt lat="41.214463734286596" lon="14.638177547702728"><ele>68.0</ele><time>2026-05-04T12:00:53Z</time></trkpt><trkpt lat="41.214718357808835" lon="14.638106572951697"><ele>68.0</ele><time>2026-05-04T12:00:54Z</time></trkpt><trkpt lat="41.21496533060129" lon="14.638017304669502"><ele>68.0</ele><time>2026-05-04T12:00:55Z</time></trkpt><trkpt lat="41.21521123924073" lon="14.637872904655445"><ele>68.0</ele><time>2026-05-04T12:00:56Z</time></trkpt><trkpt lat="41.21544202957771" lon="14.63769157208123"><ele>68.0</ele><time>2026-05-04T12:00:57Z</time></trkpt><trkpt lat="41.21565487457177" lon="14.637483484254865"><ele>68.0</ele><time>2026-05-04T12:00:58Z</time></trkpt><trkpt lat="41.21584473672145" lon="14.637233327528515"><ele>68.0</ele><time>2026-05-04T12:00:59Z</time></trkpt><trkpt lat="41.21601755108626" lon="14.636940554969037"><ele>67.0</ele><time>2026-05-04T12:01:00Z</time></trkpt><trkpt lat="41.21620159030326" lon="14.636646391334907"><ele>66.0</ele><time>2026-05-04T12:01:01Z</time></trkpt><trkpt lat="41.21638774235202" lon="14.636307354703936"><ele>67.0</ele><time>2026-05-04T12:01:02Z</time></trkpt><trkpt lat="41.21657580401729" lon="14.63595849000297"><ele>68.0</ele><time>2026-05-04T12:01:03Z</time></trkpt><trkpt lat="41.21675711626233" lon="14.635633627823958"><ele>68.0</ele><time>2026-05-04T12:01:04Z</time></trkpt><trkpt lat="41.21691716601374" lon="14.635349368688537"><ele>68.0</ele><time>2026-05-04T12:01:05Z</time></trkpt><trkpt lat="41.217058639665744" lon="14.635086121392293"><ele>67.66666666666667</ele><time>2026-05-04T12:01:06Z</time></trkpt><trkpt lat="41.21719712728172" lon="14.634844428634793"><ele>67.33333333333333</ele><time>2026-05-04T12:01:07Z</time></trkpt><trkpt lat="41.21733924311477" lon="14.634638428611058"><ele>67.0</ele><time>2026-05-04T12:01:08Z</time></trkpt><trkpt lat="41.21749063069295" lon="14.634470678746286"><ele>67.0</ele><time>2026-05-04T12:01:09Z</time></trkpt><trkpt lat="41.21765150432738" lon="14.634334635159309"><ele>67.0</ele><time>2026-05-04T12:01:10Z</time></trkpt><trkpt lat="41.217824315160584" lon="14.63423454550629"><ele>67.0</ele><time>2026-05-04T12:01:11Z</time></trkpt><trkpt lat="41.21800675269064" lon="14.634158969130425"><ele>68.33333333333333</ele><time>2026-05-04T12:01:12Z</time></trkpt><trkpt lat="41.218179982703596" lon="14.634111152013988"><ele>69.66666666666667</ele><time>2026-05-04T12:01:13Z</time></trkpt><trkpt lat="41.21833147117526" lon="14.634052812426983"><ele>71.0</ele><time>2026-05-04T12:01:14Z</time></trkpt><trkpt lat="41.218472327655974" lon="14.634024131201928"><ele>71.0</ele><time>2026-05-04T12:01:15Z</time></trkpt><trkpt lat="41.218592943557304" lon="14.634015048007964"><ele>71.0</ele><time>2026-05-04T12:01:16Z</time></trkpt><trkpt lat="41.21866307953155" lon="14.633978745460299"><ele>71.0</ele><time>2026-05-04T12:01:17Z</time></trkpt><trkpt lat="41.21877452307189" lon="14.633971156168876"><ele>71.0</ele><time>2026-05-04T12:01:19Z</time></trkpt><trkpt lat="41.21880590254608" lon="14.63376553655391"><ele>71.0</ele><time>2026-05-04T12:01:22Z</time></trkpt><trkpt lat="41.21876676938968" lon="14.633599942484615"><ele>71.0</ele><time>2026-05-04T12:01:23Z</time></trkpt><trkpt lat="41.218722457086116" lon="14.633400928546708"><ele>71.0</ele><time>2026-05-04T12:01:24Z</time></trkpt><trkpt lat="41.21870594793334" lon="14.633250205826073"><ele>71.0</ele><time>2026-05-04T12:01:25Z</time></trkpt><trkpt lat="41.21870547607379" lon="14.633147458019945"><ele>71.0</ele><time>2026-05-04T12:01:26Z</time></trkpt><trkpt lat="41.2187246168406" lon="14.63305566010999"><ele>71.0</ele><time>2026-05-04T12:01:28Z</time></trkpt><trkpt lat="41.21887202995109" lon="14.633033100821194"><ele>71.0</ele><time>2026-05-04T12:01:29Z</time></trkpt><trkpt lat="41.21892403320421" lon="14.632928289687529"><ele>71.0</ele><time>2026-05-04T12:01:30Z</time></trkpt><trkpt lat="41.219002717151966" lon="14.632772557895956"><ele>73.25</ele><time>2026-05-04T12:01:31Z</time></trkpt><trkpt lat="41.219082774319695" lon="14.63262018985553"><ele>75.5</ele><time>2026-05-04T12:01:32Z</time></trkpt><trkpt lat="41.21916129770198" lon="14.632458532866481"><ele>77.75</ele><time>2026-05-04T12:01:33Z</time></trkpt><trkpt lat="41.21928577287648" lon="14.63234337485262"><ele>80.0</ele><time>2026-05-04T12:01:34Z</time></trkpt><trkpt lat="41.219403698011746" lon="14.632189550185611"><ele>80.0</ele><time>2026-05-04T12:01:35Z</time></trkpt><trkpt lat="41.21951726576554" lon="14.632024211552306"><ele>80.0</ele><time>2026-05-04T12:01:36Z</time></trkpt><trkpt lat="41.21962230366217" lon="14.631837055350731"><ele>80.0</ele><time>2026-05-04T12:01:37Z</time></trkpt><trkpt lat="41.21969718682937" lon="14.631624922317267"><ele>79.25</ele><time>2026-05-04T12:01:38Z</time></trkpt><trkpt lat="41.21974827468963" lon="14.631428542246649"><ele>78.5</ele><time>2026-05-04T12:01:39Z</time></trkpt><trkpt lat="41.2197964746669" lon="14.631247051830925"><ele>77.75</ele><time>2026-05-04T12:01:40Z</time></trkpt><trkpt lat="41.21984161951008" lon="14.631085022857649"><ele>77.0</ele><time>2026-05-04T12:01:41Z</time></trkpt><trkpt lat="41.21988232078862" lon="14.630950007816004"><ele>77.75</ele><time>2026-05-04T12:01:42Z</time></trkpt><trkpt lat="41.21991671415423" lon="14.630793190948213"><ele>78.5</ele><time>2026-05-04T12:01:43Z</time></trkpt><trkpt lat="41.21999486805721" lon="14.630615119505794"><ele>79.25</ele><time>2026-05-04T12:01:44.001Z</time></trkpt><trkpt lat="41.22005729428696" lon="14.630441615410453"><ele>80.0</ele><time>2026-05-04T12:01:45.001Z</time></trkpt><trkpt lat="41.22012999193932" lon="14.630289525444828"><ele>80.0</ele><time>2026-05-04T12:01:46.001Z</time></trkpt><trkpt lat="41.22019461088013" lon="14.630130538301099"><ele>80.0</ele><time>2026-05-04T12:01:47.001Z</time></trkpt><trkpt lat="41.220256043058654" lon="14.62996560931554"><ele>80.0</ele><time>2026-05-04T12:01:48.001Z</time></trkpt><trkpt lat="41.22030281198788" lon="14.629785779668888"><ele>80.0</ele><time>2026-05-04T12:01:49.001Z</time></trkpt><trkpt lat="41.2203545704118" lon="14.629617736296733"><ele>79.5</ele><time>2026-05-04T12:01:50.001Z</time></trkpt><trkpt lat="41.22040005776454" lon="14.6294505503297"><ele>79.0</ele><time>2026-05-04T12:01:51.001Z</time></trkpt><trkpt lat="41.22045289252984" lon="14.629257747460693"><ele>78.5</ele><time>2026-05-04T12:01:52.001Z</time></trkpt><trkpt lat="41.22050296784519" lon="14.629060693191697"><ele>78.0</ele><time>2026-05-04T12:01:53.001Z</time></trkpt><trkpt lat="41.22056286506632" lon="14.62881087995481"><ele>77.33333333333333</ele><time>2026-05-04T12:01:54Z</time></trkpt><trkpt lat="41.22062256008679" lon="14.62854455860988"><ele>76.66666666666666</ele><time>2026-05-04T12:01:55Z</time></trkpt><trkpt lat="41.22068209210971" lon="14.628269899515209"><ele>76.0</ele><time>2026-05-04T12:01:56Z</time></trkpt><trkpt lat="41.22073443081029" lon="14.628019852078022"><ele>78.66666666666666</ele><time>2026-05-04T12:01:57Z</time></trkpt><trkpt lat="41.22077851361042" lon="14.627801484204582"><ele>81.33333333333333</ele><time>2026-05-04T12:01:58Z</time></trkpt><trkpt lat="41.22081642179422" lon="14.627602940260589"><ele>84.0</ele><time>2026-05-04T12:01:59Z</time></trkpt><trkpt lat="41.22084618731343" lon="14.62739447159908"><ele>84.0</ele><time>2026-05-04T12:02:00Z</time></trkpt><trkpt lat="41.22086475479623" lon="14.627166074941606"><ele>84.0</ele><time>2026-05-04T12:02:01Z</time></trkpt><trkpt lat="41.2208790150716" lon="14.6268970545069"><ele>84.0</ele><time>2026-05-04T12:02:02Z</time></trkpt><trkpt lat="41.22088811615547" lon="14.62664144327026"><ele>83.75</ele><time>2026-05-04T12:02:03Z</time></trkpt><trkpt lat="41.22089646911901" lon="14.626447278634263"><ele>83.5</ele><time>2026-05-04T12:02:04Z</time></trkpt><trkpt lat="41.220908193098154" lon="14.626264648613821"><ele>83.25</ele><time>2026-05-04T12:02:05Z</time></trkpt><trkpt lat="41.22092673303084" lon="14.626103216279505"><ele>83.0</ele><time>2026-05-04T12:02:06Z</time></trkpt><trkpt lat="41.220953675012" lon="14.625955826357163"><ele>82.75</ele><time>2026-05-04T12:02:07Z</time></trkpt><trkpt lat="41.2209899969347" lon="14.625814961942428"><ele>82.5</ele><time>2026-05-04T12:02:08Z</time></trkpt><trkpt lat="41.22104081285266" lon="14.625663950665166"><ele>82.25</ele><time>2026-05-04T12:02:09Z</time></trkpt><trkpt lat="41.22110713839277" lon="14.62549567271412"><ele>82.0</ele><time>2026-05-04T12:02:10Z</time></trkpt><trkpt lat="41.22117557778904" lon="14.625343717289011"><ele>81.0</ele><time>2026-05-04T12:02:11Z</time></trkpt><trkpt lat="41.221253379419416" lon="14.62518649575723"><ele>80.0</ele><time>2026-05-04T12:02:12Z</time></trkpt><trkpt lat="41.221326798750376" lon="14.62503055942108"><ele>79.0</ele><time>2026-05-04T12:02:13Z</time></trkpt><trkpt lat="41.22139661032292" lon="14.624877011379327"><ele>78.0</ele><time>2026-05-04T12:02:14Z</time></trkpt><trkpt lat="41.22146003659755" lon="14.62472910709375"><ele>78.75</ele><time>2026-05-04T12:02:15Z</time></trkpt><trkpt lat="41.22151162588647" lon="14.624587870438516"><ele>79.5</ele><time>2026-05-04T12:02:16Z</time></trkpt><trkpt lat="41.22155309369792" lon="14.624435641378579"><ele>80.25</ele><time>2026-05-04T12:02:17Z</time></trkpt><trkpt lat="41.22158359658892" lon="14.624266925358615"><ele>81.0</ele><time>2026-05-04T12:02:18Z</time></trkpt><trkpt lat="41.221602925097216" lon="14.62412428427082"><ele>81.0</ele><time>2026-05-04T12:02:19Z</time></trkpt><trkpt lat="41.221633058808635" lon="14.623901874233596"><ele>81.0</ele><time>2026-05-04T12:02:20Z</time></trkpt><trkpt lat="41.221659989705415" lon="14.62370715245253"><ele>81.0</ele><time>2026-05-04T12:02:21Z</time></trkpt><trkpt lat="41.22168799880134" lon="14.623526602767516"><ele>80.5</ele><time>2026-05-04T12:02:22Z</time></trkpt><trkpt lat="41.221712762599715" lon="14.623369761016207"><ele>80.0</ele><time>2026-05-04T12:02:23Z</time></trkpt><trkpt lat="41.22174637436662" lon="14.62323216085995"><ele>79.5</ele><time>2026-05-04T12:02:24Z</time></trkpt><trkpt lat="41.221784996453906" lon="14.623117915043927"><ele>79.0</ele><time>2026-05-04T12:02:25Z</time></trkpt><trkpt lat="41.22184299929511" lon="14.622966742105083"><ele>77.66666666666666</ele><time>2026-05-04T12:02:26Z</time></trkpt><trkpt lat="41.22192171022225" lon="14.622791984237413"><ele>76.33333333333333</ele><time>2026-05-04T12:02:27Z</time></trkpt><trkpt lat="41.22200802496359" lon="14.622598139655631"><ele>75.0</ele><time>2026-05-04T12:02:28Z</time></trkpt><trkpt lat="41.22205630358623" lon="14.622431366512966"><ele>75.0</ele><time>2026-05-04T12:02:29Z</time></trkpt><trkpt lat="41.222117943834135" lon="14.622284434439875"><ele>75.0</ele><time>2026-05-04T12:02:30Z</time></trkpt><trkpt lat="41.22216502145216" lon="14.622152801233202"><ele>75.0</ele><time>2026-05-04T12:02:31Z</time></trkpt><trkpt lat="41.222212742467406" lon="14.621998780978366"><ele>75.0</ele><time>2026-05-04T12:02:32Z</time></trkpt><trkpt lat="41.22225274631179" lon="14.621832083386716"><ele>74.66666666666667</ele><time>2026-05-04T12:02:33Z</time></trkpt><trkpt lat="41.222268949960984" lon="14.621618973168818"><ele>74.33333333333334</ele><time>2026-05-04T12:02:34Z</time></trkpt><trkpt lat="41.222291758218944" lon="14.621391455832136"><ele>74.0</ele><time>2026-05-04T12:02:35Z</time></trkpt><trkpt lat="41.222301162828764" lon="14.621206008307187"><ele>74.4</ele><time>2026-05-04T12:02:36Z</time></trkpt><trkpt lat="41.222300764522" lon="14.62105526033053"><ele>74.80000000000001</ele><time>2026-05-04T12:02:37Z</time></trkpt><trkpt lat="41.222332541926164" lon="14.620933820065837"><ele>75.19999999999999</ele><time>2026-05-04T12:02:38Z</time></trkpt><trkpt lat="41.222396705649686" lon="14.620850133567494"><ele>75.6</ele><time>2026-05-04T12:02:39Z</time></trkpt><trkpt lat="41.222453099623806" lon="14.620796640445834"><ele>76.0</ele><time>2026-05-04T12:02:40Z</time></trkpt><trkpt lat="41.22252761634562" lon="14.620723454218256"><ele>76.8</ele><time>2026-05-04T12:02:41Z</time></trkpt><trkpt lat="41.22260700237423" lon="14.620635307320294"><ele>77.6</ele><time>2026-05-04T12:02:42Z</time></trkpt><trkpt lat="41.22268180644851" lon="14.620530324389918"><ele>78.4</ele><time>2026-05-04T12:02:44Z</time></trkpt><trkpt lat="41.22273346528613" lon="14.620479683252494"><ele>79.2</ele><time>2026-05-04T12:02:46Z</time></trkpt><trkpt lat="41.222698642416105" lon="14.62029533030212"><ele>80.0</ele><time>2026-05-04T12:02:47Z</time></trkpt><trkpt lat="41.22270230651138" lon="14.620134232270756"><ele>80.0</ele><time>2026-05-04T12:02:48Z</time></trkpt><trkpt lat="41.22270807274027" lon="14.619916032178303"><ele>80.0</ele><time>2026-05-04T12:02:49Z</time></trkpt><trkpt lat="41.22271281356571" lon="14.619736634531327"><ele>80.0</ele><time>2026-05-04T12:02:50Z</time></trkpt><trkpt lat="41.22271605398881" lon="14.619575823328628"><ele>80.0</ele><time>2026-05-04T12:02:51Z</time></trkpt><trkpt lat="41.22270472107716" lon="14.619418555347613"><ele>78.8</ele><time>2026-05-04T12:02:52Z</time></trkpt><trkpt lat="41.222710707053366" lon="14.619276781597799"><ele>77.6</ele><time>2026-05-04T12:02:53Z</time></trkpt><trkpt lat="41.22270531746813" lon="14.619137812696758"><ele>76.4</ele><time>2026-05-04T12:02:54Z</time></trkpt><trkpt lat="41.222710742088694" lon="14.61902066392897"><ele>75.2</ele><time>2026-05-04T12:02:55Z</time></trkpt><trkpt lat="41.222691958910346" lon="14.618896863983155"><ele>74.0</ele><time>2026-05-04T12:02:56Z</time></trkpt><trkpt lat="41.22264740357246" lon="14.618798732889292"><ele>74.0</ele><time>2026-05-04T12:02:57Z</time></trkpt><trkpt lat="41.222610575241895" lon="14.618696198895297"><ele>74.0</ele><time>2026-05-04T12:02:58Z</time></trkpt><trkpt lat="41.22256972498696" lon="14.618601794912188"><ele>74.0</ele><time>2026-05-04T12:02:59Z</time></trkpt><trkpt lat="41.22254113663749" lon="14.618518283148182"><ele>74.0</ele><time>2026-05-04T12:03:00Z</time></trkpt><trkpt lat="41.22261775988525" lon="14.618373466881147"><ele>74.0</ele><time>2026-05-04T12:03:02Z</time></trkpt><trkpt lat="41.22267178635983" lon="14.618270964344632"><ele>72.0</ele><time>2026-05-04T12:03:04Z</time></trkpt><trkpt lat="41.22283839101508" lon="14.618325917124038"><ele>70.0</ele><time>2026-05-04T12:03:05Z</time></trkpt><trkpt lat="41.22297480265137" lon="14.618279523349228"><ele>68.0</ele><time>2026-05-04T12:03:06Z</time></trkpt><trkpt lat="41.22311992642795" lon="14.61826651050806"><ele>70.66666666666667</ele><time>2026-05-04T12:03:07Z</time></trkpt><trkpt lat="41.22327393999535" lon="14.61821757727479"><ele>73.33333333333333</ele><time>2026-05-04T12:03:08Z</time></trkpt><trkpt lat="41.22344145410725" lon="14.618166840820523"><ele>76.0</ele><time>2026-05-04T12:03:09Z</time></trkpt><trkpt lat="41.22360511451165" lon="14.618125244809171"><ele>76.0</ele><time>2026-05-04T12:03:10Z</time></trkpt><trkpt lat="41.22374578576378" lon="14.618106162709415"><ele>76.0</ele><time>2026-05-04T12:03:11Z</time></trkpt><trkpt lat="41.22386956162692" lon="14.618079843362288"><ele>76.0</ele><time>2026-05-04T12:03:12Z</time></trkpt><trkpt lat="41.22397923288972" lon="14.618055837732879"><ele>76.0</ele><time>2026-05-04T12:03:13Z</time></trkpt><trkpt lat="41.22406890265939" lon="14.618038635825245"><ele>76.6</ele><time>2026-05-04T12:03:14Z</time></trkpt><trkpt lat="41.224146484745404" lon="14.618016787073607"><ele>77.19999999999999</ele><time>2026-05-04T12:03:15Z</time></trkpt><trkpt lat="41.224229896478825" lon="14.617953992685775"><ele>77.80000000000001</ele><time>2026-05-04T12:03:17Z</time></trkpt><trkpt lat="41.22433730759021" lon="14.618039168883376"><ele>78.4</ele><time>2026-05-04T12:03:19Z</time></trkpt><trkpt lat="41.22441080658711" lon="14.618063195139511"><ele>79.0</ele><time>2026-05-04T12:03:20Z</time></trkpt><trkpt lat="41.224495337831065" lon="14.61809773775306"><ele>79.0</ele><time>2026-05-04T12:03:21Z</time></trkpt><trkpt lat="41.22457111694048" lon="14.618129889941255"><ele>79.0</ele><time>2026-05-04T12:03:22Z</time></trkpt><trkpt lat="41.22464127406275" lon="14.61817286855304"><ele>79.0</ele><time>2026-05-04T12:03:23Z</time></trkpt><trkpt lat="41.22470553264181" lon="14.618215898988412"><ele>79.0</ele><time>2026-05-04T12:03:24Z</time></trkpt><trkpt lat="41.224763847539066" lon="14.618262532672476"><ele>79.0</ele><time>2026-05-04T12:03:25Z</time></trkpt><trkpt lat="41.224835371454546" lon="14.618328434339274"><ele>79.0</ele><time>2026-05-04T12:03:27Z</time></trkpt><trkpt lat="41.224659959287024" lon="14.618165063766504"><ele>79.0</ele><time>2026-05-04T12:03:34Z</time></trkpt><trkpt lat="41.22454432050158" lon="14.618099290170095"><ele>79.0</ele><time>2026-05-04T12:03:35Z</time></trkpt><trkpt lat="41.2244457029764" lon="14.61807739489026"><ele>79.0</ele><time>2026-05-04T12:03:36Z</time></trkpt><trkpt lat="41.224372234437965" lon="14.618039366072324"><ele>79.0</ele><time>2026-05-04T12:03:37Z</time></trkpt><trkpt lat="41.224305208786774" lon="14.618035503456532"><ele>79.0</ele><time>2026-05-04T12:03:38Z</time></trkpt><trkpt lat="41.2242422124341" lon="14.618019304020763"><ele>79.0</ele><time>2026-05-04T12:03:39Z</time></trkpt><trkpt lat="41.224179909566516" lon="14.617993190434154"><ele>79.0</ele><time>2026-05-04T12:03:41Z</time></trkpt><trkpt lat="41.22425101594379" lon="14.617896880835593"><ele>79.0</ele><time>2026-05-04T12:04:18Z</time></trkpt><trkpt lat="41.22430012449295" lon="14.617841018331704"><ele>79.0</ele><time>2026-05-04T12:04:19Z</time></trkpt><trkpt lat="41.22437751459115" lon="14.617752984302186"><ele>79.0</ele><time>2026-05-04T12:04:20Z</time></trkpt><trkpt lat="41.224462993599" lon="14.617655461688031"><ele>79.0</ele><time>2026-05-04T12:04:21Z</time></trkpt><trkpt lat="41.22455866121819" lon="14.617544949964428"><ele>76.25</ele><time>2026-05-04T12:04:22Z</time></trkpt><trkpt lat="41.22464803265007" lon="14.617413521107352"><ele>73.5</ele><time>2026-05-04T12:04:23Z</time></trkpt><trkpt lat="41.22475289022502" lon="14.61729766364857"><ele>70.75</ele><time>2026-05-04T12:04:24Z</time></trkpt><trkpt lat="41.224877829334126" lon="14.61717380382083"><ele>68.0</ele><time>2026-05-04T12:04:25Z</time></trkpt><trkpt lat="41.22499657953868" lon="14.617030795038419"><ele>67.5</ele><time>2026-05-04T12:04:26Z</time></trkpt><trkpt lat="41.22509978796172" lon="14.616900590181036"><ele>67.0</ele><time>2026-05-04T12:04:27Z</time></trkpt><trkpt lat="41.22518121817194" lon="14.616773821320301"><ele>66.5</ele><time>2026-05-04T12:04:28Z</time></trkpt><trkpt lat="41.22524780660447" lon="14.61661022691305"><ele>66.0</ele><time>2026-05-04T12:04:29Z</time></trkpt><trkpt lat="41.22530279892237" lon="14.61640884079969"><ele>66.0</ele><time>2026-05-04T12:04:30Z</time></trkpt><trkpt lat="41.22538046838546" lon="14.616156043828385"><ele>66.0</ele><time>2026-05-04T12:04:31Z</time></trkpt><trkpt lat="41.225455464238124" lon="14.615857545138432"><ele>66.0</ele><time>2026-05-04T12:04:32Z</time></trkpt><trkpt lat="41.22553051519688" lon="14.615555806033258"><ele>64.0</ele><time>2026-05-04T12:04:33Z</time></trkpt><trkpt lat="41.225609045001335" lon="14.615234737053513"><ele>62.0</ele><time>2026-05-04T12:04:34Z</time></trkpt><trkpt lat="41.22569283551482" lon="14.61489894496468"><ele>63.5</ele><time>2026-05-04T12:04:35Z</time></trkpt><trkpt lat="41.22577202248964" lon="14.614580793018108"><ele>65.0</ele><time>2026-05-04T12:04:36Z</time></trkpt><trkpt lat="41.2258414712848" lon="14.614305406202913"><ele>65.0</ele><time>2026-05-04T12:04:37Z</time></trkpt><trkpt lat="41.225905137541794" lon="14.614052948098976"><ele>65.0</ele><time>2026-05-04T12:04:38Z</time></trkpt><trkpt lat="41.22596740629496" lon="14.613814385102692"><ele>65.0</ele><time>2026-05-04T12:04:39Z</time></trkpt><trkpt lat="41.22603161050174" lon="14.613579375142969"><ele>63.66666666666667</ele><time>2026-05-04T12:04:40Z</time></trkpt><trkpt lat="41.22609857688714" lon="14.61336116576327"><ele>62.33333333333333</ele><time>2026-05-04T12:04:41Z</time></trkpt><trkpt lat="41.226181698743034" lon="14.613175746744242"><ele>61.0</ele><time>2026-05-04T12:04:42Z</time></trkpt><trkpt lat="41.22629173756259" lon="14.61301281060778"><ele>61.0</ele><time>2026-05-04T12:04:43Z</time></trkpt><trkpt lat="41.226413432554374" lon="14.612861253601974"><ele>61.0</ele><time>2026-05-04T12:04:44Z</time></trkpt><trkpt lat="41.226562720842125" lon="14.612687500509708"><ele>61.0</ele><time>2026-05-04T12:04:45Z</time></trkpt><trkpt lat="41.22671137571182" lon="14.612505213286557"><ele>61.666666666666664</ele><time>2026-05-04T12:04:46Z</time></trkpt><trkpt lat="41.22682436525364" lon="14.612303780696212"><ele>62.33333333333333</ele><time>2026-05-04T12:04:47Z</time></trkpt><trkpt lat="41.22689954446603" lon="14.612136584045478"><ele>63.0</ele><time>2026-05-04T12:04:48Z</time></trkpt><trkpt lat="41.22693540811573" lon="14.611935551706855"><ele>63.0</ele><time>2026-05-04T12:04:49Z</time></trkpt><trkpt lat="41.22700238590977" lon="14.611795675380392"><ele>63.0</ele><time>2026-05-04T12:04:50Z</time></trkpt><trkpt lat="41.227075882961124" lon="14.611698822201848"><ele>63.0</ele><time>2026-05-04T12:04:51Z</time></trkpt><trkpt lat="41.22718081864924" lon="14.611632249732294"><ele>63.0</ele><time>2026-05-04T12:04:52Z</time></trkpt><trkpt lat="41.22729921684643" lon="14.611531956221345"><ele>65.66666666666667</ele><time>2026-05-04T12:04:53Z</time></trkpt><trkpt lat="41.22740483479036" lon="14.611372164601924"><ele>68.33333333333334</ele><time>2026-05-04T12:04:54Z</time></trkpt><trkpt lat="41.22747713743758" lon="14.611167486203156"><ele>71.0</ele><time>2026-05-04T12:04:55Z</time></trkpt><trkpt lat="41.22756193002415" lon="14.610980753692463"><ele>71.0</ele><time>2026-05-04T12:04:56Z</time></trkpt><trkpt lat="41.22761457690887" lon="14.610811458207039"><ele>71.0</ele><time>2026-05-04T12:04:57Z</time></trkpt><trkpt lat="41.22763400751807" lon="14.610637213927056"><ele>71.0</ele><time>2026-05-04T12:04:58Z</time></trkpt><trkpt lat="41.22761723729387" lon="14.61043763569654"><ele>71.0</ele><time>2026-05-04T12:04:59Z</time></trkpt><trkpt lat="41.22756478458503" lon="14.610216819336209"><ele>71.66666666666667</ele><time>2026-05-04T12:05:00Z</time></trkpt><trkpt lat="41.22750859179823" lon="14.609956511283608"><ele>72.33333333333333</ele><time>2026-05-04T12:05:01Z</time></trkpt><trkpt lat="41.22746406480809" lon="14.609681238958396"><ele>73.0</ele><time>2026-05-04T12:05:02Z</time></trkpt><trkpt lat="41.227445170839964" lon="14.609441010001213"><ele>75.66666666666666</ele><time>2026-05-04T12:05:03Z</time></trkpt><trkpt lat="41.22744236663719" lon="14.609194184001854"><ele>78.33333333333333</ele><time>2026-05-04T12:05:04Z</time></trkpt><trkpt lat="41.22743268282696" lon="14.608944005801094"><ele>81.0</ele><time>2026-05-04T12:05:05Z</time></trkpt><trkpt lat="41.227410025425336" lon="14.608724709275297"><ele>83.0</ele><time>2026-05-04T12:05:06Z</time></trkpt><trkpt lat="41.22734916522776" lon="14.608503620767305"><ele>85.0</ele><time>2026-05-04T12:05:07Z</time></trkpt><trkpt lat="41.22726660766865" lon="14.608274324152326"><ele>87.0</ele><time>2026-05-04T12:05:08Z</time></trkpt><trkpt lat="41.22713691175916" lon="14.608046440377457"><ele>84.5</ele><time>2026-05-04T12:05:09Z</time></trkpt><trkpt lat="41.22697159348716" lon="14.607815542392053"><ele>82.0</ele><time>2026-05-04T12:05:10Z</time></trkpt><trkpt lat="41.22679025840332" lon="14.60759871679992"><ele>82.0</ele><time>2026-05-04T12:05:11Z</time></trkpt><trkpt lat="41.22661469329045" lon="14.607387101985843"><ele>82.0</ele><time>2026-05-04T12:05:12Z</time></trkpt><trkpt lat="41.226464981306165" lon="14.607206243610982"><ele>82.0</ele><time>2026-05-04T12:05:13Z</time></trkpt><trkpt lat="41.22632089244082" lon="14.60705749692447"><ele>84.66666666666666</ele><time>2026-05-04T12:05:14Z</time></trkpt><trkpt lat="41.226158956460985" lon="14.606956522621207"><ele>87.33333333333333</ele><time>2026-05-04T12:05:15Z</time></trkpt><trkpt lat="41.22597100997924" lon="14.606914840503293"><ele>90.0</ele><time>2026-05-04T12:05:16Z</time></trkpt><trkpt lat="41.22576502269318" lon="14.606900772289528"><ele>86.66666666666667</ele><time>2026-05-04T12:05:17Z</time></trkpt><trkpt lat="41.2255699464683" lon="14.606893279218674"><ele>83.33333333333334</ele><time>2026-05-04T12:05:18Z</time></trkpt><trkpt lat="41.225428712924064" lon="14.60680523271474"><ele>80.0</ele><time>2026-05-04T12:05:19Z</time></trkpt><trkpt lat="41.225315664497224" lon="14.606705954810057"><ele>80.0</ele><time>2026-05-04T12:05:20Z</time></trkpt><trkpt lat="41.2252023448042" lon="14.606639402693549"><ele>80.0</ele><time>2026-05-04T12:05:21Z</time></trkpt><trkpt lat="41.225077907080035" lon="14.606659609477314"><ele>80.0</ele><time>2026-05-04T12:05:22Z</time></trkpt><trkpt lat="41.224930733951474" lon="14.606708384314757"><ele>80.0</ele><time>2026-05-04T12:05:23Z</time></trkpt><trkpt lat="41.22478195820874" lon="14.606674217754229"><ele>76.0</ele><time>2026-05-04T12:05:24Z</time></trkpt><trkpt lat="41.22462230221883" lon="14.606596343400762"><ele>72.0</ele><time>2026-05-04T12:05:25Z</time></trkpt><trkpt lat="41.22451414392009" lon="14.606474118520708"><ele>68.0</ele><time>2026-05-04T12:05:26Z</time></trkpt><trkpt lat="41.22442775710899" lon="14.606311496914092"><ele>73.33333333333334</ele><time>2026-05-04T12:05:27Z</time></trkpt><trkpt lat="41.22432153763058" lon="14.606119143136647"><ele>78.66666666666667</ele><time>2026-05-04T12:05:28Z</time></trkpt><trkpt lat="41.22417543712306" lon="14.60592389933309"><ele>84.0</ele><time>2026-05-04T12:05:29Z</time></trkpt><trkpt lat="41.22403044128666" lon="14.605729951918512"><ele>83.33333333333333</ele><time>2026-05-04T12:05:30Z</time></trkpt><trkpt lat="41.22386225096863" lon="14.605528983717008"><ele>82.66666666666666</ele><time>2026-05-04T12:05:31Z</time></trkpt><trkpt lat="41.22371620325791" lon="14.605348236208334"><ele>82.0</ele><time>2026-05-04T12:05:32Z</time></trkpt><trkpt lat="41.22360700015025" lon="14.605157491504086"><ele>82.0</ele><time>2026-05-04T12:05:33Z</time></trkpt><trkpt lat="41.22353623745042" lon="14.6050088811174"><ele>82.0</ele><time>2026-05-04T12:05:34Z</time></trkpt><trkpt lat="41.2235371494189" lon="14.604856760314847"><ele>82.0</ele><time>2026-05-04T12:05:35Z</time></trkpt><trkpt lat="41.223568323497645" lon="14.604678989212069"><ele>82.0</ele><time>2026-05-04T12:05:36Z</time></trkpt><trkpt lat="41.22355061310369" lon="14.604525541739333"><ele>81.0</ele><time>2026-05-04T12:05:37Z</time></trkpt><trkpt lat="41.22350040274432" lon="14.604372683189506"><ele>80.0</ele><time>2026-05-04T12:05:38Z</time></trkpt><trkpt lat="41.22339035828041" lon="14.604228853089705"><ele>79.0</ele><time>2026-05-04T12:05:39Z</time></trkpt><trkpt lat="41.223272634085454" lon="14.604116836904053"><ele>78.0</ele><time>2026-05-04T12:05:40Z</time></trkpt><trkpt lat="41.223215364783314" lon="14.603992859212038"><ele>78.0</ele><time>2026-05-04T12:05:41Z</time></trkpt><trkpt lat="41.223191334382285" lon="14.603902296137091"><ele>78.0</ele><time>2026-05-04T12:05:42Z</time></trkpt><trkpt lat="41.223236436601375" lon="14.603839211710024"><ele>78.0</ele><time>2026-05-04T12:05:45Z</time></trkpt><trkpt lat="41.22335284160536" lon="14.603924517652084"><ele>78.0</ele><time>2026-05-04T12:05:47Z</time></trkpt><trkpt lat="41.22348028030542" lon="14.603953289694276"><ele>78.0</ele><time>2026-05-04T12:05:48Z</time></trkpt><trkpt lat="41.22361468286723" lon="14.60401300505123"><ele>78.0</ele><time>2026-05-04T12:05:49Z</time></trkpt><trkpt lat="41.22375949875135" lon="14.604066320306433"><ele>78.0</ele><time>2026-05-04T12:05:50Z</time></trkpt><trkpt lat="41.22390035737186" lon="14.604126963383024"><ele>78.0</ele><time>2026-05-04T12:05:51Z</time></trkpt><trkpt lat="41.22404290868676" lon="14.604186269261081"><ele>78.0</ele><time>2026-05-04T12:05:52Z</time></trkpt><trkpt lat="41.224188527266776" lon="14.604257151551588"><ele>79.66666666666667</ele><time>2026-05-04T12:05:53Z</time></trkpt><trkpt lat="41.224330549498035" lon="14.604325172366456"><ele>81.33333333333334</ele><time>2026-05-04T12:05:54Z</time></trkpt><trkpt lat="41.224473369524596" lon="14.604390725483444"><ele>83.0</ele><time>2026-05-04T12:05:55Z</time></trkpt><trkpt lat="41.224614035139" lon="14.604453187986774"><ele>84.0</ele><time>2026-05-04T12:05:56Z</time></trkpt><trkpt lat="41.224751670032184" lon="14.604508689291483"><ele>85.0</ele><time>2026-05-04T12:05:57Z</time></trkpt><trkpt lat="41.2249011475169" lon="14.60457034999125"><ele>86.0</ele><time>2026-05-04T12:05:58Z</time></trkpt><trkpt lat="41.22505512537911" lon="14.604634725716371"><ele>87.0</ele><time>2026-05-04T12:05:59Z</time></trkpt><trkpt lat="41.22518586654374" lon="14.604690924078248"><ele>88.0</ele><time>2026-05-04T12:06:00Z</time></trkpt><trkpt lat="41.22528694174052" lon="14.60473094529536"><ele>89.0</ele><time>2026-05-04T12:06:01Z</time></trkpt><trkpt lat="41.22538002154124" lon="14.60477355008974"><ele>90.0</ele><time>2026-05-04T12:06:02Z</time></trkpt><trkpt lat="41.22545114329753" lon="14.60481828142143"><ele>91.0</ele><time>2026-05-04T12:06:03Z</time></trkpt><trkpt lat="41.22551214095357" lon="14.604855927913459"><ele>91.0</ele><time>2026-05-04T12:06:05Z</time></trkpt><trkpt lat="41.225593471410626" lon="14.604787990255748"><ele>91.0</ele><time>2026-05-04T12:06:06Z</time></trkpt><trkpt lat="41.225656459749985" lon="14.604672718359062"><ele>91.0</ele><time>2026-05-04T12:06:07Z</time></trkpt><trkpt lat="41.22571407399667" lon="14.60454752047341"><ele>91.0</ele><time>2026-05-04T12:06:08Z</time></trkpt><trkpt lat="41.225756250195644" lon="14.60444408941392"><ele>91.0</ele><time>2026-05-04T12:06:09Z</time></trkpt><trkpt lat="41.225799088792705" lon="14.60430058745943"><ele>90.19999999999999</ele><time>2026-05-04T12:06:10Z</time></trkpt><trkpt lat="41.22582077534462" lon="14.60416104362561"><ele>89.39999999999999</ele><time>2026-05-04T12:06:11Z</time></trkpt><trkpt lat="41.225833656771606" lon="14.604036583810469"><ele>88.6</ele><time>2026-05-04T12:06:12Z</time></trkpt><trkpt lat="41.22584519130074" lon="14.603916646154985"><ele>87.8</ele><time>2026-05-04T12:06:13Z</time></trkpt><trkpt lat="41.225856619299314" lon="14.603794566462673"><ele>87.0</ele><time>2026-05-04T12:06:14Z</time></trkpt><trkpt lat="41.2258644981951" lon="14.603688851046504"><ele>85.5</ele><time>2026-05-04T12:06:15Z</time></trkpt><trkpt lat="41.22585269801273" lon="14.60360101834911"><ele>84.0</ele><time>2026-05-04T12:06:16Z</time></trkpt><trkpt lat="41.22585931736328" lon="14.603477460611002"><ele>82.5</ele><time>2026-05-04T12:06:18Z</time></trkpt><trkpt lat="41.22586093903047" lon="14.603326846784142"><ele>81.0</ele><time>2026-05-04T12:06:21Z</time></trkpt><trkpt lat="41.225854805795386" lon="14.603209260885636"><ele>79.5</ele><time>2026-05-04T12:06:23Z</time></trkpt><trkpt lat="41.22583012176385" lon="14.603101312266014"><ele>78.0</ele><time>2026-05-04T12:06:25Z</time></trkpt><trkpt lat="41.22582499436021" lon="14.603009071931963"><ele>78.0</ele><time>2026-05-04T12:06:27Z</time></trkpt><trkpt lat="41.225819875190176" lon="14.602907017266782"><ele>78.0</ele><time>2026-05-04T12:06:29Z</time></trkpt><trkpt lat="41.22581282949873" lon="14.602811815270577"><ele>78.0</ele><time>2026-05-04T12:06:31Z</time></trkpt><trkpt lat="41.22581011386352" lon="14.602715855346057"><ele>78.0</ele><time>2026-05-04T12:06:33Z</time></trkpt><trkpt lat="41.22578345816988" lon="14.60262388517578"><ele>78.0</ele><time>2026-05-04T12:06:37Z</time></trkpt><trkpt lat="41.22578060431948" lon="14.60252518238414"><ele>78.0</ele><time>2026-05-04T12:06:39Z</time></trkpt><trkpt lat="41.22574767375848" lon="14.602418226901486"><ele>78.0</ele><time>2026-05-04T12:06:41Z</time></trkpt><trkpt lat="41.225717738218684" lon="14.602343960138445"><ele>78.0</ele><time>2026-05-04T12:06:44Z</time></trkpt><trkpt lat="41.225672478130015" lon="14.602231680529044"><ele>78.0</ele><time>2026-05-04T12:06:47Z</time></trkpt><trkpt lat="41.22561871771853" lon="14.602108541085896"><ele>78.0</ele><time>2026-05-04T12:06:50Z</time></trkpt><trkpt lat="41.22558010088003" lon="14.601999082217445"><ele>78.0</ele><time>2026-05-04T12:06:52Z</time></trkpt><trkpt lat="41.225524777747786" lon="14.60194887450143"><ele>78.0</ele><time>2026-05-04T12:06:55Z</time></trkpt><trkpt lat="41.22548409254977" lon="14.601830353682066"><ele>79.0</ele><time>2026-05-04T12:06:59Z</time></trkpt><trkpt lat="41.22544550399226" lon="14.601727798140136"><ele>80.0</ele><time>2026-05-04T12:07:01Z</time></trkpt><trkpt lat="41.22540936685401" lon="14.601599882706"><ele>81.0</ele><time>2026-05-04T12:07:03Z</time></trkpt><trkpt lat="41.22539559279462" lon="14.601517571541404"><ele>82.0</ele><time>2026-05-04T12:07:04Z</time></trkpt><trkpt lat="41.225385862801964" lon="14.601434430365746"><ele>83.0</ele><time>2026-05-04T12:07:05Z</time></trkpt><trkpt lat="41.225377023045375" lon="14.601295259349241"><ele>84.0</ele><time>2026-05-04T12:07:07Z</time></trkpt><trkpt lat="41.22537344927993" lon="14.6011436011692"><ele>84.6</ele><time>2026-05-04T12:07:09Z</time></trkpt><trkpt lat="41.22538724933426" lon="14.601002225302864"><ele>85.2</ele><time>2026-05-04T12:07:11Z</time></trkpt><trkpt lat="41.225453064880796" lon="14.600875985920608"><ele>85.8</ele><time>2026-05-04T12:07:13Z</time></trkpt><trkpt lat="41.225495778049535" lon="14.600811679379165"><ele>86.39999999999999</ele><time>2026-05-04T12:07:14Z</time></trkpt><trkpt lat="41.225569034548045" lon="14.600709073451261"><ele>87.0</ele><time>2026-05-04T12:07:16Z</time></trkpt><trkpt lat="41.22564990980892" lon="14.600595796379535"><ele>87.16666666666667</ele><time>2026-05-04T12:07:18Z</time></trkpt><trkpt lat="41.225698849362" lon="14.600525609730186"><ele>87.33333333333333</ele><time>2026-05-04T12:07:19Z</time></trkpt><trkpt lat="41.22574393883022" lon="14.600438362186571"><ele>87.5</ele><time>2026-05-04T12:07:20Z</time></trkpt><trkpt lat="41.225785771331566" lon="14.600373890206765"><ele>87.66666666666666</ele><time>2026-05-04T12:07:21Z</time></trkpt><trkpt lat="41.22585726995969" lon="14.600267040277226"><ele>87.83333333333333</ele><time>2026-05-04T12:07:23Z</time></trkpt><trkpt lat="41.22593164540853" lon="14.600185663179731"><ele>88.0</ele><time>2026-05-04T12:07:25Z</time></trkpt><trkpt lat="41.226005413004344" lon="14.600073717575397"><ele>87.66666666666666</ele><time>2026-05-04T12:07:27Z</time></trkpt><trkpt lat="41.22608356722849" lon="14.599951528900394"><ele>87.33333333333333</ele><time>2026-05-04T12:07:29Z</time></trkpt><trkpt lat="41.22612752192167" lon="14.599881145180337"><ele>87.0</ele><time>2026-05-04T12:07:30Z</time></trkpt><trkpt lat="41.22617364531473" lon="14.599800727492072"><ele>86.66666666666667</ele><time>2026-05-04T12:07:31Z</time></trkpt><trkpt lat="41.22621211704141" lon="14.599703546378079"><ele>86.33333333333334</ele><time>2026-05-04T12:07:32Z</time></trkpt><trkpt lat="41.22626179726845" lon="14.59961927867829"><ele>86.0</ele><time>2026-05-04T12:07:33Z</time></trkpt><trkpt lat="41.22631596745841" lon="14.599529856498599"><ele>85.83333333333334</ele><time>2026-05-04T12:07:34Z</time></trkpt><trkpt lat="41.22635854154462" lon="14.599456812393193"><ele>85.66666666666667</ele><time>2026-05-04T12:07:35Z</time></trkpt><trkpt lat="41.226446833280264" lon="14.599322458971741"><ele>85.5</ele><time>2026-05-04T12:07:37Z</time></trkpt><trkpt lat="41.22649434444878" lon="14.599239958224972"><ele>85.33333333333333</ele><time>2026-05-04T12:07:38Z</time></trkpt><trkpt lat="41.226536923617026" lon="14.59916988058287"><ele>85.16666666666666</ele><time>2026-05-04T12:07:39Z</time></trkpt><trkpt lat="41.2265834043551" lon="14.599105981863802"><ele>85.0</ele><time>2026-05-04T12:07:40Z</time></trkpt><trkpt lat="41.226666501619356" lon="14.599008693549898"><ele>85.2</ele><time>2026-05-04T12:07:42Z</time></trkpt><trkpt lat="41.226753097556454" lon="14.598903939030407"><ele>85.4</ele><time>2026-05-04T12:07:44Z</time></trkpt><trkpt lat="41.226825845859274" lon="14.59881347977729"><ele>85.6</ele><time>2026-05-04T12:07:46Z</time></trkpt><trkpt lat="41.22687118757905" lon="14.598752112512315"><ele>85.8</ele><time>2026-05-04T12:07:47Z</time></trkpt><trkpt lat="41.22691716643047" lon="14.59868328906503"><ele>86.0</ele><time>2026-05-04T12:07:48Z</time></trkpt><trkpt lat="41.22701901800295" lon="14.598581180159858"><ele>86.0</ele><time>2026-05-04T12:07:50Z</time></trkpt><trkpt lat="41.22707510501437" lon="14.598511638296621"><ele>86.0</ele><time>2026-05-04T12:07:51Z</time></trkpt><trkpt lat="41.22715285505122" lon="14.59840961076015"><ele>86.0</ele><time>2026-05-04T12:07:53Z</time></trkpt><trkpt lat="41.22721173954429" lon="14.598314825483106"><ele>86.0</ele><time>2026-05-04T12:07:55Z</time></trkpt><trkpt lat="41.22726624053267" lon="14.598224534969445"><ele>86.0</ele><time>2026-05-04T12:07:57Z</time></trkpt><trkpt lat="41.227297359555855" lon="14.598128466845472"><ele>86.0</ele><time>2026-05-04T12:07:59Z</time></trkpt><trkpt lat="41.22730233698314" lon="14.598021318480694"><ele>86.4</ele><time>2026-05-04T12:08:01Z</time></trkpt><trkpt lat="41.227340049296" lon="14.597906634925382"><ele>86.8</ele><time>2026-05-04T12:08:03Z</time></trkpt><trkpt lat="41.22736425015728" lon="14.597748923264689"><ele>87.2</ele><time>2026-05-04T12:08:05Z</time></trkpt><trkpt lat="41.22737299815808" lon="14.59762263049842"><ele>87.60000000000001</ele><time>2026-05-04T12:08:07Z</time></trkpt><trkpt lat="41.22741551182758" lon="14.597518935180974"><ele>88.0</ele><time>2026-05-04T12:08:09Z</time></trkpt><trkpt lat="41.22748375393034" lon="14.597479831557461"><ele>88.0</ele><time>2026-05-04T12:08:12Z</time></trkpt><trkpt lat="41.22757472506221" lon="14.597437009106855"><ele>88.0</ele><time>2026-05-04T12:08:17Z</time></trkpt><trkpt lat="41.22765589339918" lon="14.597401751099879"><ele>88.0</ele><time>2026-05-04T12:08:20Z</time></trkpt><trkpt lat="41.22772887382669" lon="14.597353459829236"><ele>88.0</ele><time>2026-05-04T12:08:34Z</time></trkpt><trkpt lat="41.22781901263635" lon="14.597272951585376"><ele>88.0</ele><time>2026-05-04T12:08:36Z</time></trkpt><trkpt lat="41.22784768080785" lon="14.597185669171692"><ele>88.0</ele><time>2026-05-04T12:08:37Z</time></trkpt><trkpt lat="41.227861800305114" lon="14.597084769695355"><ele>88.0</ele><time>2026-05-04T12:08:38Z</time></trkpt><trkpt lat="41.22786807142803" lon="14.596980900819746"><ele>88.0</ele><time>2026-05-04T12:08:39Z</time></trkpt><trkpt lat="41.22787141673188" lon="14.596896842640122"><ele>88.0</ele><time>2026-05-04T12:08:40Z</time></trkpt><trkpt lat="41.22787412894564" lon="14.59680652588573"><ele>88.0</ele><time>2026-05-04T12:08:43Z</time></trkpt><trkpt lat="41.22787009852336" lon="14.596940738711663"><ele>88.0</ele><time>2026-05-04T12:08:52Z</time></trkpt><trkpt lat="41.22786585651957" lon="14.597026687577333"><ele>88.0</ele><time>2026-05-04T12:08:53Z</time></trkpt><trkpt lat="41.22783454259028" lon="14.597241027987042"><ele>88.0</ele><time>2026-05-04T12:08:55Z</time></trkpt><trkpt lat="41.227766576307594" lon="14.59732944226373"><ele>88.0</ele><time>2026-05-04T12:08:57Z</time></trkpt><trkpt lat="41.227814713188934" lon="14.597436414685264"><ele>88.0</ele><time>2026-05-04T12:09:00Z</time></trkpt><trkpt lat="41.22794206823996" lon="14.5974822903851"><ele>88.0</ele><time>2026-05-04T12:09:02Z</time></trkpt><trkpt lat="41.2280281369192" lon="14.597506280068888"><ele>88.0</ele><time>2026-05-04T12:09:03Z</time></trkpt><trkpt lat="41.228118401359104" lon="14.597535127599793"><ele>89.0</ele><time>2026-05-04T12:09:04Z</time></trkpt><trkpt lat="41.22821966650771" lon="14.5975555878901"><ele>90.0</ele><time>2026-05-04T12:09:05Z</time></trkpt><trkpt lat="41.22831827119904" lon="14.597560102307417"><ele>91.0</ele><time>2026-05-04T12:09:06Z</time></trkpt><trkpt lat="41.228390542131514" lon="14.59754343255995"><ele>92.0</ele><time>2026-05-04T12:09:07Z</time></trkpt><trkpt lat="41.22845455877856" lon="14.597542551611502"><ele>93.0</ele><time>2026-05-04T12:09:08Z</time></trkpt><trkpt lat="41.22855626685267" lon="14.597564961679298"><ele>94.0</ele><time>2026-05-04T12:09:10Z</time></trkpt><trkpt lat="41.22867318327316" lon="14.597603796299104"><ele>94.0</ele><time>2026-05-04T12:09:12Z</time></trkpt><trkpt lat="41.22874846594937" lon="14.597626513476273"><ele>94.0</ele><time>2026-05-04T12:09:13Z</time></trkpt><trkpt lat="41.22883152756195" lon="14.59765038635878"><ele>94.0</ele><time>2026-05-04T12:09:14Z</time></trkpt><trkpt lat="41.2289159192811" lon="14.597656344412899"><ele>94.0</ele><time>2026-05-04T12:09:15Z</time></trkpt><trkpt lat="41.22901177981476" lon="14.597668357118241"><ele>94.0</ele><time>2026-05-04T12:09:16Z</time></trkpt><trkpt lat="41.22912667678334" lon="14.597707242653511"><ele>95.2</ele><time>2026-05-04T12:09:17Z</time></trkpt><trkpt lat="41.229241971410914" lon="14.597749336831106"><ele>96.4</ele><time>2026-05-04T12:09:18Z</time></trkpt><trkpt lat="41.22934908626916" lon="14.597767888011578"><ele>97.6</ele><time>2026-05-04T12:09:19Z</time></trkpt><trkpt lat="41.22945527674724" lon="14.597764669136625"><ele>98.8</ele><time>2026-05-04T12:09:20Z</time></trkpt><trkpt lat="41.229555132665695" lon="14.597756929896029"><ele>100.0</ele><time>2026-05-04T12:09:21Z</time></trkpt><trkpt lat="41.22968009436503" lon="14.597782244353834"><ele>100.0</ele><time>2026-05-04T12:09:22Z</time></trkpt><trkpt lat="41.22978348902265" lon="14.597801477931181"><ele>100.0</ele><time>2026-05-04T12:09:23Z</time></trkpt><trkpt lat="41.229884316203005" lon="14.597806142220662"><ele>100.0</ele><time>2026-05-04T12:09:24Z</time></trkpt><trkpt lat="41.22999080404685" lon="14.597805379886356"><ele>100.0</ele><time>2026-05-04T12:09:25Z</time></trkpt><trkpt lat="41.23008324851843" lon="14.5977797533718"><ele>100.0</ele><time>2026-05-04T12:09:26Z</time></trkpt><trkpt lat="41.23016808959596" lon="14.597718576886669"><ele>102.4</ele><time>2026-05-04T12:09:27Z</time></trkpt><trkpt lat="41.23024275000467" lon="14.597642966065646"><ele>104.8</ele><time>2026-05-04T12:09:28Z</time></trkpt><trkpt lat="41.23030513432754" lon="14.59762674435512"><ele>107.19999999999999</ele><time>2026-05-04T12:09:29Z</time></trkpt><trkpt lat="41.23040060730038" lon="14.597621280307918"><ele>109.6</ele><time>2026-05-04T12:09:30Z</time></trkpt><trkpt lat="41.23047619491712" lon="14.597724370889676"><ele>112.0</ele><time>2026-05-04T12:09:31Z</time></trkpt><trkpt lat="41.23058585198209" lon="14.597844064213662"><ele>113.75</ele><time>2026-05-04T12:09:32Z</time></trkpt><trkpt lat="41.23070328716396" lon="14.597936945031627"><ele>115.5</ele><time>2026-05-04T12:09:33Z</time></trkpt><trkpt lat="41.23078035130225" lon="14.597989855642643"><ele>117.25</ele><time>2026-05-04T12:09:34Z</time></trkpt><trkpt lat="41.230905038448384" lon="14.598046914632175"><ele>119.0</ele><time>2026-05-04T12:09:35Z</time></trkpt><trkpt lat="41.23102081743901" lon="14.598108853096411"><ele>119.0</ele><time>2026-05-04T12:09:36Z</time></trkpt><trkpt lat="41.231129928297214" lon="14.598172108919462"><ele>119.0</ele><time>2026-05-04T12:09:37Z</time></trkpt><trkpt lat="41.231243442079" lon="14.598250285488353"><ele>119.0</ele><time>2026-05-04T12:09:38Z</time></trkpt><trkpt lat="41.2313580845599" lon="14.598307436825426"><ele>119.0</ele><time>2026-05-04T12:09:39Z</time></trkpt><trkpt lat="41.23145460166848" lon="14.598350843332742"><ele>122.25</ele><time>2026-05-04T12:09:40Z</time></trkpt><trkpt lat="41.231550545584334" lon="14.598375800020616"><ele>125.5</ele><time>2026-05-04T12:09:41Z</time></trkpt><trkpt lat="41.23167111626139" lon="14.598390572828412"><ele>128.75</ele><time>2026-05-04T12:09:42Z</time></trkpt><trkpt lat="41.23179605188969" lon="14.598395523154949"><ele>132.0</ele><time>2026-05-04T12:09:43Z</time></trkpt><trkpt lat="41.231907556175635" lon="14.598397336761108"><ele>132.0</ele><time>2026-05-04T12:09:44Z</time></trkpt><trkpt lat="41.23202902588446" lon="14.598394217316882"><ele>132.0</ele><time>2026-05-04T12:09:45Z</time></trkpt><trkpt lat="41.23214910606948" lon="14.598384808444479"><ele>132.0</ele><time>2026-05-04T12:09:46Z</time></trkpt><trkpt lat="41.23227843694281" lon="14.598362886649157"><ele>132.0</ele><time>2026-05-04T12:09:47Z</time></trkpt><trkpt lat="41.232432563639016" lon="14.598340095616594"><ele>134.33333333333334</ele><time>2026-05-04T12:09:48Z</time></trkpt><trkpt lat="41.23259314930424" lon="14.598345674526602"><ele>136.66666666666669</ele><time>2026-05-04T12:09:49Z</time></trkpt><trkpt lat="41.23274066574974" lon="14.598360137162848"><ele>139.0</ele><time>2026-05-04T12:09:50Z</time></trkpt><trkpt lat="41.232888997585974" lon="14.598367295922142"><ele>139.0</ele><time>2026-05-04T12:09:51Z</time></trkpt><trkpt lat="41.23305645103247" lon="14.598385495469117"><ele>139.0</ele><time>2026-05-04T12:09:52Z</time></trkpt><trkpt lat="41.23323803266357" lon="14.598368028484712"><ele>139.0</ele><time>2026-05-04T12:09:53Z</time></trkpt><trkpt lat="41.23337812631838" lon="14.598377417863299"><ele>140.66666666666669</ele><time>2026-05-04T12:09:54Z</time></trkpt><trkpt lat="41.233520561970046" lon="14.59837752444956"><ele>142.33333333333334</ele><time>2026-05-04T12:09:55Z</time></trkpt><trkpt lat="41.233688737673674" lon="14.598382879733922"><ele>144.0</ele><time>2026-05-04T12:09:56Z</time></trkpt><trkpt lat="41.233829237792065" lon="14.598382841814809"><ele>144.0</ele><time>2026-05-04T12:09:57Z</time></trkpt><trkpt lat="41.23393748960994" lon="14.598331805602086"><ele>144.0</ele><time>2026-05-04T12:09:58Z</time></trkpt><trkpt lat="41.23407003623833" lon="14.59828131779179"><ele>144.0</ele><time>2026-05-04T12:09:59Z</time></trkpt><trkpt lat="41.23421638235024" lon="14.598234726607659"><ele>144.0</ele><time>2026-05-04T12:10:00Z</time></trkpt><trkpt lat="41.23436979096777" lon="14.598195836450284"><ele>145.2</ele><time>2026-05-04T12:10:01Z</time></trkpt><trkpt lat="41.23450964002838" lon="14.598161087955654"><ele>146.4</ele><time>2026-05-04T12:10:02Z</time></trkpt><trkpt lat="41.234626828361975" lon="14.598139408804787"><ele>147.6</ele><time>2026-05-04T12:10:03Z</time></trkpt><trkpt lat="41.23472635790833" lon="14.598124825068572"><ele>148.8</ele><time>2026-05-04T12:10:04Z</time></trkpt><trkpt lat="41.2348055919593" lon="14.598118007902217"><ele>150.0</ele><time>2026-05-04T12:10:05Z</time></trkpt><trkpt lat="41.23488087457052" lon="14.598109836155484"><ele>150.66666666666666</ele><time>2026-05-04T12:10:06Z</time></trkpt><trkpt lat="41.234945618540905" lon="14.598099787186772"><ele>151.33333333333334</ele><time>2026-05-04T12:10:07Z</time></trkpt><trkpt lat="41.235009110785626" lon="14.598095441345256"><ele>152.0</ele><time>2026-05-04T12:10:08.001Z</time></trkpt><trkpt lat="41.23507554945634" lon="14.598096361937538"><ele>152.66666666666669</ele><time>2026-05-04T12:10:09.001Z</time></trkpt><trkpt lat="41.23516278952133" lon="14.598094644236687"><ele>153.33333333333334</ele><time>2026-05-04T12:10:10.001Z</time></trkpt><trkpt lat="41.23531358385036" lon="14.598112320524862"><ele>154.0</ele><time>2026-05-04T12:10:11.001Z</time></trkpt><trkpt lat="41.23548449098109" lon="14.59812409466069"><ele>154.0</ele><time>2026-05-04T12:10:12.001Z</time></trkpt><trkpt lat="41.235633707837934" lon="14.598141352108488"><ele>154.0</ele><time>2026-05-04T12:10:13Z</time></trkpt><trkpt lat="41.23575094970462" lon="14.59810346836768"><ele>154.0</ele><time>2026-05-04T12:10:14Z</time></trkpt><trkpt lat="41.23585102587546" lon="14.598045840531753"><ele>154.0</ele><time>2026-05-04T12:10:15Z</time></trkpt><trkpt lat="41.2360030424346" lon="14.597978200076444"><ele>154.0</ele><time>2026-05-04T12:10:16Z</time></trkpt><trkpt lat="41.23617476770129" lon="14.597882112797858"><ele>154.0</ele><time>2026-05-04T12:10:17Z</time></trkpt><trkpt lat="41.2363177462762" lon="14.597802110499218"><ele>154.0</ele><time>2026-05-04T12:10:18Z</time></trkpt><trkpt lat="41.236405447539454" lon="14.597755412003355"><ele>154.0</ele><time>2026-05-04T12:10:19Z</time></trkpt><trkpt lat="41.236560835824285" lon="14.597690872374745"><ele>155.5</ele><time>2026-05-04T12:10:21Z</time></trkpt><trkpt lat="41.236684956631876" lon="14.597640494117718"><ele>157.0</ele><time>2026-05-04T12:10:22Z</time></trkpt><trkpt lat="41.23680089225538" lon="14.597550344645907"><ele>158.5</ele><time>2026-05-04T12:10:23Z</time></trkpt><trkpt lat="41.23691504413336" lon="14.597479545046042"><ele>160.0</ele><time>2026-05-04T12:10:24Z</time></trkpt><trkpt lat="41.23700612052295" lon="14.59742850238171"><ele>160.0</ele><time>2026-05-04T12:10:25Z</time></trkpt><trkpt lat="41.23708115708068" lon="14.597396513732798"><ele>160.0</ele><time>2026-05-04T12:10:26Z</time></trkpt><trkpt lat="41.23717960373388" lon="14.597344348459458"><ele>160.0</ele><time>2026-05-04T12:10:28Z</time></trkpt><trkpt lat="41.23726344072599" lon="14.597321652348123"><ele>160.0</ele><time>2026-05-04T12:10:30Z</time></trkpt><trkpt lat="41.23736062438764" lon="14.597321713022103"><ele>160.0</ele><time>2026-05-04T12:10:31Z</time></trkpt><trkpt lat="41.23749673218838" lon="14.59729509079744"><ele>162.0</ele><time>2026-05-04T12:10:32Z</time></trkpt><trkpt lat="41.23765095020013" lon="14.597320961985732"><ele>164.0</ele><time>2026-05-04T12:10:33Z</time></trkpt><trkpt lat="41.23776955383782" lon="14.597313561262364"><ele>166.0</ele><time>2026-05-04T12:10:34Z</time></trkpt><trkpt lat="41.23787086148109" lon="14.597332936278391"><ele>168.0</ele><time>2026-05-04T12:10:35Z</time></trkpt><trkpt lat="41.237955472054836" lon="14.59735725757489"><ele>168.0</ele><time>2026-05-04T12:10:36Z</time></trkpt><trkpt lat="41.238092432280226" lon="14.597367260868161"><ele>168.0</ele><time>2026-05-04T12:10:38Z</time></trkpt><trkpt lat="41.23815921061093" lon="14.597378698922284"><ele>168.0</ele><time>2026-05-04T12:10:39Z</time></trkpt><trkpt lat="41.238260147714975" lon="14.597385648418705"><ele>168.0</ele><time>2026-05-04T12:10:40Z</time></trkpt><trkpt lat="41.238406628241755" lon="14.59739994505227"><ele>169.5</ele><time>2026-05-04T12:10:41Z</time></trkpt><trkpt lat="41.238538951353696" lon="14.597423100324258"><ele>171.0</ele><time>2026-05-04T12:10:42Z</time></trkpt><trkpt lat="41.23863261048187" lon="14.597461427259105"><ele>172.5</ele><time>2026-05-04T12:10:43Z</time></trkpt><trkpt lat="41.238703898844484" lon="14.59749518515245"><ele>174.0</ele><time>2026-05-04T12:10:44Z</time></trkpt><trkpt lat="41.23876795520681" lon="14.597512293076777"><ele>175.5</ele><time>2026-05-04T12:10:45Z</time></trkpt><trkpt lat="41.23882519883704" lon="14.59757275787259"><ele>177.0</ele><time>2026-05-04T12:10:47Z</time></trkpt><trkpt lat="41.23887908755182" lon="14.59763806659934"><ele>177.0</ele><time>2026-05-04T12:10:49Z</time></trkpt><trkpt lat="41.238950619155496" lon="14.597646655383063"><ele>177.0</ele><time>2026-05-04T12:10:50Z</time></trkpt><trkpt lat="41.23904207919032" lon="14.597648319673828"><ele>177.0</ele><time>2026-05-04T12:10:51Z</time></trkpt><trkpt lat="41.239155266766595" lon="14.59759228933976"><ele>177.0</ele><time>2026-05-04T12:10:52Z</time></trkpt><trkpt lat="41.23925865217143" lon="14.597543144475488"><ele>177.0</ele><time>2026-05-04T12:10:53Z</time></trkpt><trkpt lat="41.23937788811524" lon="14.597508432583245"><ele>180.0</ele><time>2026-05-04T12:10:54Z</time></trkpt><trkpt lat="41.23952274179697" lon="14.597451489647371"><ele>183.0</ele><time>2026-05-04T12:10:55Z</time></trkpt><trkpt lat="41.23967171509677" lon="14.597389351156183"><ele>186.0</ele><time>2026-05-04T12:10:56Z</time></trkpt><trkpt lat="41.23982265126971" lon="14.59735639496538"><ele>187.25</ele><time>2026-05-04T12:10:57Z</time></trkpt><trkpt lat="41.23995045199492" lon="14.597338511234412"><ele>188.5</ele><time>2026-05-04T12:10:58Z</time></trkpt><trkpt lat="41.240073939715835" lon="14.59729050227195"><ele>189.75</ele><time>2026-05-04T12:10:59Z</time></trkpt><trkpt lat="41.240206552366246" lon="14.597202454946048"><ele>191.0</ele><time>2026-05-04T12:11:00Z</time></trkpt><trkpt lat="41.240341917417" lon="14.597100993684327"><ele>191.0</ele><time>2026-05-04T12:11:01Z</time></trkpt><trkpt lat="41.240482547017955" lon="14.59702318815721"><ele>191.0</ele><time>2026-05-04T12:11:02Z</time></trkpt><trkpt lat="41.24061373801401" lon="14.596939435013777"><ele>191.0</ele><time>2026-05-04T12:11:03Z</time></trkpt><trkpt lat="41.240752603216926" lon="14.596880921464544"><ele>191.0</ele><time>2026-05-04T12:11:04Z</time></trkpt><trkpt lat="41.2409085004757" lon="14.596839924274269"><ele>194.33333333333331</ele><time>2026-05-04T12:11:05Z</time></trkpt><trkpt lat="41.24105708002393" lon="14.596813009233278"><ele>197.66666666666666</ele><time>2026-05-04T12:11:06Z</time></trkpt><trkpt lat="41.24120431849315" lon="14.596764407108243"><ele>201.0</ele><time>2026-05-04T12:11:07Z</time></trkpt><trkpt lat="41.24139258717601" lon="14.596737047415953"><ele>203.66666666666669</ele><time>2026-05-04T12:11:08Z</time></trkpt><trkpt lat="41.24156699065863" lon="14.596692837377251"><ele>206.33333333333334</ele><time>2026-05-04T12:11:09Z</time></trkpt><trkpt lat="41.2417253593875" lon="14.596660163960655"><ele>209.0</ele><time>2026-05-04T12:11:10Z</time></trkpt><trkpt lat="41.24189893935226" lon="14.59668097436562"><ele>209.0</ele><time>2026-05-04T12:11:11Z</time></trkpt><trkpt lat="41.24209803152784" lon="14.596732691586631"><ele>209.0</ele><time>2026-05-04T12:11:12Z</time></trkpt><trkpt lat="41.24231106153046" lon="14.596798274479843"><ele>209.0</ele><time>2026-05-04T12:11:13Z</time></trkpt><trkpt lat="41.242534924257875" lon="14.59685941733829"><ele>212.33333333333334</ele><time>2026-05-04T12:11:14Z</time></trkpt><trkpt lat="41.24274866167656" lon="14.596919923088535"><ele>215.66666666666669</ele><time>2026-05-04T12:11:15Z</time></trkpt><trkpt lat="41.24297097128757" lon="14.59697442990185"><ele>219.0</ele><time>2026-05-04T12:11:16Z</time></trkpt><trkpt lat="41.24322654227705" lon="14.597009288049458"><ele>221.5</ele><time>2026-05-04T12:11:17Z</time></trkpt><trkpt lat="41.24348435474991" lon="14.597046171011364"><ele>224.0</ele><time>2026-05-04T12:11:18Z</time></trkpt><trkpt lat="41.24370121532948" lon="14.597095095684914"><ele>224.0</ele><time>2026-05-04T12:11:19Z</time></trkpt><trkpt lat="41.2438679140272" lon="14.597147354060274"><ele>224.0</ele><time>2026-05-04T12:11:20Z</time></trkpt><trkpt lat="41.244000404363376" lon="14.597138731668505"><ele>224.0</ele><time>2026-05-04T12:11:21Z</time></trkpt><trkpt lat="41.24413633000636" lon="14.59709685083262"><ele>224.0</ele><time>2026-05-04T12:11:22Z</time></trkpt><trkpt lat="41.2442682807489" lon="14.597023223843486"><ele>228.0</ele><time>2026-05-04T12:11:23Z</time></trkpt><trkpt lat="41.24442258056577" lon="14.596980469122595"><ele>232.0</ele><time>2026-05-04T12:11:24Z</time></trkpt><trkpt lat="41.24456840279774" lon="14.59691734335525"><ele>236.0</ele><time>2026-05-04T12:11:25Z</time></trkpt><trkpt lat="41.24466768104281" lon="14.596877274742388"><ele>240.0</ele><time>2026-05-04T12:11:26Z</time></trkpt><trkpt lat="41.244744100217964" lon="14.596848376074982"><ele>240.0</ele><time>2026-05-04T12:11:27Z</time></trkpt><trkpt lat="41.24480682901125" lon="14.59682502425936"><ele>240.0</ele><time>2026-05-04T12:11:28Z</time></trkpt><trkpt lat="41.244887097336836" lon="14.596796890610586"><ele>240.0</ele><time>2026-05-04T12:11:30Z</time></trkpt><trkpt lat="41.24481824358811" lon="14.596821024852924"><ele>240.0</ele><time>2026-05-04T12:11:41Z</time></trkpt><trkpt lat="41.244711936126734" lon="14.596847542409689"><ele>240.0</ele><time>2026-05-04T12:11:43Z</time></trkpt><trkpt lat="41.244754364558865" lon="14.597229836472218"><ele>240.75</ele><time>2026-05-04T12:11:46Z</time></trkpt><trkpt lat="41.244786002423595" lon="14.597388453518512"><ele>241.5</ele><time>2026-05-04T12:11:47Z</time></trkpt><trkpt lat="41.244809416117874" lon="14.59757027691679"><ele>242.25</ele><time>2026-05-04T12:11:48Z</time></trkpt><trkpt lat="41.24484935527502" lon="14.597712488989355"><ele>243.0</ele><time>2026-05-04T12:11:49Z</time></trkpt><trkpt lat="41.24490008035126" lon="14.597831793034903"><ele>242.0</ele><time>2026-05-04T12:11:50Z</time></trkpt><trkpt lat="41.244970538235705" lon="14.597933967766453"><ele>241.0</ele><time>2026-05-04T12:11:51Z</time></trkpt><trkpt lat="41.245056188225945" lon="14.598011004074774"><ele>240.0</ele><time>2026-05-04T12:11:52Z</time></trkpt><trkpt lat="41.245160561568206" lon="14.598048711216693"><ele>239.0</ele><time>2026-05-04T12:11:53Z</time></trkpt><trkpt lat="41.24526992495107" lon="14.598068979136967"><ele>238.0</ele><time>2026-05-04T12:11:54Z</time></trkpt><trkpt lat="41.24536012660859" lon="14.598070119609432"><ele>238.0</ele><time>2026-05-04T12:11:55Z</time></trkpt><trkpt lat="41.24543171445413" lon="14.598069514058361"><ele>238.0</ele><time>2026-05-04T12:11:56Z</time></trkpt><trkpt lat="41.245511126860215" lon="14.598023234330439"><ele>238.0</ele><time>2026-05-04T12:12:00Z</time></trkpt><trkpt lat="41.24554024504959" lon="14.597823714519986"><ele>238.0</ele><time>2026-05-04T12:12:01Z</time></trkpt><trkpt lat="41.245548581021104" lon="14.597653477992411"><ele>238.0</ele><time>2026-05-04T12:12:02Z</time></trkpt><trkpt lat="41.24555008966513" lon="14.597461795036164"><ele>239.66666666666666</ele><time>2026-05-04T12:12:03Z</time></trkpt><trkpt lat="41.24555023017526" lon="14.597250696985737"><ele>241.33333333333331</ele><time>2026-05-04T12:12:04Z</time></trkpt><trkpt lat="41.2455580230556" lon="14.597010334499112"><ele>243.0</ele><time>2026-05-04T12:12:05Z</time></trkpt><trkpt lat="41.24556578809358" lon="14.596734591513238"><ele>250.5</ele><time>2026-05-04T12:12:06Z</time></trkpt><trkpt lat="41.24562473813785" lon="14.596169465314468"><ele>258.0</ele><time>2026-05-04T12:12:08Z</time></trkpt><trkpt lat="41.245658629571125" lon="14.595896509730874"><ele>260.6666666666667</ele><time>2026-05-04T12:12:09Z</time></trkpt><trkpt lat="41.245701103782196" lon="14.595626325746483"><ele>263.33333333333337</ele><time>2026-05-04T12:12:10Z</time></trkpt><trkpt lat="41.245751875788855" lon="14.595356628162918"><ele>266.0</ele><time>2026-05-04T12:12:11.02Z</time></trkpt><trkpt lat="41.245809331120384" lon="14.595098151810614"><ele>266.0</ele><time>2026-05-04T12:12:12.019Z</time></trkpt><trkpt lat="41.24587542899086" lon="14.594824947555297"><ele>266.0</ele><time>2026-05-04T12:12:13.018Z</time></trkpt><trkpt lat="41.24595219304119" lon="14.594567741763022"><ele>266.0</ele><time>2026-05-04T12:12:14.017Z</time></trkpt><trkpt lat="41.246096002488535" lon="14.594121192074521"><ele>240.0</ele><time>2026-05-04T12:12:15Z</time></trkpt><trkpt lat="41.24629084674939" lon="14.593543506011942"><ele>240.0</ele><time>2026-05-04T12:12:16Z</time></trkpt><trkpt lat="41.24640421537305" lon="14.593155833193437"><ele>240.0</ele><time>2026-05-04T12:12:17Z</time></trkpt><trkpt lat="41.246538238416804" lon="14.592766240430699"><ele>239.0</ele><time>2026-05-04T12:12:18Z</time></trkpt><trkpt lat="41.246684583039794" lon="14.592365742051996"><ele>238.0</ele><time>2026-05-04T12:12:19Z</time></trkpt><trkpt lat="41.24681892010971" lon="14.591962272989207"><ele>238.0</ele><time>2026-05-04T12:12:20Z</time></trkpt><trkpt lat="41.246932515466874" lon="14.591619577622154"><ele>238.0</ele><time>2026-05-04T12:12:21Z</time></trkpt><trkpt lat="41.24705034488082" lon="14.591263949129564"><ele>242.0</ele><time>2026-05-04T12:12:22Z</time></trkpt><trkpt lat="41.24715617359062" lon="14.590947519800801"><ele>246.0</ele><time>2026-05-04T12:12:23Z</time></trkpt><trkpt lat="41.24726448968144" lon="14.590625580313905"><ele>251.5</ele><time>2026-05-04T12:12:24Z</time></trkpt><trkpt lat="41.24737346626289" lon="14.590295069468528"><ele>257.0</ele><time>2026-05-04T12:12:25Z</time></trkpt><trkpt lat="41.247478364967954" lon="14.589981503503498"><ele>257.0</ele><time>2026-05-04T12:12:26Z</time></trkpt><trkpt lat="41.24756525375834" lon="14.58971088138664"><ele>257.0</ele><time>2026-05-04T12:12:27Z</time></trkpt><trkpt lat="41.247663342598635" lon="14.589444291392587"><ele>257.0</ele><time>2026-05-04T12:12:28Z</time></trkpt><trkpt lat="41.247751383057356" lon="14.58914400037308"><ele>252.0</ele><time>2026-05-04T12:12:29Z</time></trkpt><trkpt lat="41.24784576294314" lon="14.588847008479133"><ele>247.0</ele><time>2026-05-04T12:12:30Z</time></trkpt><trkpt lat="41.24793848408513" lon="14.58854931066624"><ele>247.0</ele><time>2026-05-04T12:12:31Z</time></trkpt><trkpt lat="41.24804499218393" lon="14.58826878650621"><ele>247.0</ele><time>2026-05-04T12:12:32Z</time></trkpt><trkpt lat="41.248152660509135" lon="14.587941866401387"><ele>243.5</ele><time>2026-05-04T12:12:33Z</time></trkpt><trkpt lat="41.24826594054736" lon="14.587598295701495"><ele>240.0</ele><time>2026-05-04T12:12:34Z</time></trkpt><trkpt lat="41.24838836318272" lon="14.587232765951317"><ele>237.5</ele><time>2026-05-04T12:12:35Z</time></trkpt><trkpt lat="41.24850181459602" lon="14.586846769836091"><ele>235.0</ele><time>2026-05-04T12:12:36Z</time></trkpt><trkpt lat="41.24862446093257" lon="14.586480290638729"><ele>231.5</ele><time>2026-05-04T12:12:37Z</time></trkpt><trkpt lat="41.24876155394833" lon="14.58612195550082"><ele>228.0</ele><time>2026-05-04T12:12:38Z</time></trkpt><trkpt lat="41.248852743794224" lon="14.585801594468556"><ele>231.0</ele><time>2026-05-04T12:12:39Z</time></trkpt><trkpt lat="41.24896553472774" lon="14.585486504726802"><ele>234.0</ele><time>2026-05-04T12:12:40Z</time></trkpt><trkpt lat="41.24906355981326" lon="14.585160272258005"><ele>227.5</ele><time>2026-05-04T12:12:41Z</time></trkpt><trkpt lat="41.249146872933316" lon="14.584849771765823"><ele>221.0</ele><time>2026-05-04T12:12:42Z</time></trkpt><trkpt lat="41.24920986288381" lon="14.584524408227212"><ele>216.0</ele><time>2026-05-04T12:12:43Z</time></trkpt><trkpt lat="41.24925569409868" lon="14.584167752182296"><ele>211.0</ele><time>2026-05-04T12:12:44Z</time></trkpt><trkpt lat="41.249261803779234" lon="14.583812888576523"><ele>209.0</ele><time>2026-05-04T12:12:45Z</time></trkpt><trkpt lat="41.24924284443486" lon="14.583446774006273"><ele>207.0</ele><time>2026-05-04T12:12:46Z</time></trkpt><trkpt lat="41.24918126083892" lon="14.58308563715814"><ele>206.5</ele><time>2026-05-04T12:12:47Z</time></trkpt><trkpt lat="41.24907904735898" lon="14.582736989727003"><ele>206.0</ele><time>2026-05-04T12:12:48Z</time></trkpt><trkpt lat="41.2489467346308" lon="14.582405570988398"><ele>206.0</ele><time>2026-05-04T12:12:49Z</time></trkpt><trkpt lat="41.2488011241518" lon="14.582118417127958"><ele>206.0</ele><time>2026-05-04T12:12:50Z</time></trkpt><trkpt lat="41.24868629261388" lon="14.581838747053306"><ele>208.66666666666669</ele><time>2026-05-04T12:12:51Z</time></trkpt><trkpt lat="41.24857592565301" lon="14.58159224410124"><ele>211.33333333333331</ele><time>2026-05-04T12:12:52Z</time></trkpt><trkpt lat="41.248448286802024" lon="14.581386453911344"><ele>214.0</ele><time>2026-05-04T12:12:53Z</time></trkpt><trkpt lat="41.24839331591601" lon="14.581140746617448"><ele>216.0</ele><time>2026-05-04T12:12:54Z</time></trkpt><trkpt lat="41.248378539886296" lon="14.580899942579162"><ele>218.0</ele><time>2026-05-04T12:12:55Z</time></trkpt><trkpt lat="41.24838262675982" lon="14.58066680675238"><ele>220.0</ele><time>2026-05-04T12:12:56Z</time></trkpt><trkpt lat="41.248389203076606" lon="14.580454589660294"><ele>220.33333333333331</ele><time>2026-05-04T12:12:57Z</time></trkpt><trkpt lat="41.24841485183896" lon="14.580250520777764"><ele>220.66666666666669</ele><time>2026-05-04T12:12:58Z</time></trkpt><trkpt lat="41.24844273045261" lon="14.580032357393643"><ele>221.0</ele><time>2026-05-04T12:12:59Z</time></trkpt><trkpt lat="41.24848302862371" lon="14.57977925076924"><ele>221.0</ele><time>2026-05-04T12:13:00Z</time></trkpt><trkpt lat="41.2485653742265" lon="14.579526930274703"><ele>221.0</ele><time>2026-05-04T12:13:01Z</time></trkpt><trkpt lat="41.24862989969427" lon="14.579242250475946"><ele>221.0</ele><time>2026-05-04T12:13:02Z</time></trkpt><trkpt lat="41.248695893787485" lon="14.578995696278225"><ele>218.66666666666669</ele><time>2026-05-04T12:13:03Z</time></trkpt><trkpt lat="41.24874986671771" lon="14.57876516196358"><ele>216.33333333333331</ele><time>2026-05-04T12:13:04Z</time></trkpt><trkpt lat="41.24878940742348" lon="14.578559602408635"><ele>214.0</ele><time>2026-05-04T12:13:05Z</time></trkpt><trkpt lat="41.24882370662825" lon="14.578364797980798"><ele>212.0</ele><time>2026-05-04T12:13:06Z</time></trkpt><trkpt lat="41.24885948387755" lon="14.578168194114536"><ele>210.0</ele><time>2026-05-04T12:13:07Z</time></trkpt><trkpt lat="41.248886607695404" lon="14.577960454489714"><ele>208.0</ele><time>2026-05-04T12:13:08Z</time></trkpt><trkpt lat="41.248896127066594" lon="14.577770148146374"><ele>208.0</ele><time>2026-05-04T12:13:09Z</time></trkpt><trkpt lat="41.248899905107784" lon="14.577597225589757"><ele>208.0</ele><time>2026-05-04T12:13:10Z</time></trkpt><trkpt lat="41.248899527037274" lon="14.577433062159159"><ele>208.0</ele><time>2026-05-04T12:13:11Z</time></trkpt><trkpt lat="41.248897863660204" lon="14.577283040395326"><ele>208.0</ele><time>2026-05-04T12:13:12Z</time></trkpt><trkpt lat="41.248895191715135" lon="14.577137750127866"><ele>207.60000000000002</ele><time>2026-05-04T12:13:13Z</time></trkpt><trkpt lat="41.24889211898416" lon="14.577003044897051"><ele>207.20000000000002</ele><time>2026-05-04T12:13:14Z</time></trkpt><trkpt lat="41.24888192169405" lon="14.576896538482895"><ele>206.8</ele><time>2026-05-04T12:13:15Z</time></trkpt><trkpt lat="41.24887551206301" lon="14.576784036233546"><ele>206.4</ele><time>2026-05-04T12:13:16Z</time></trkpt><trkpt lat="41.24884878619109" lon="14.576611326096584"><ele>206.0</ele><time>2026-05-04T12:13:17Z</time></trkpt><trkpt lat="41.248813695829085" lon="14.57641868939296"><ele>206.0</ele><time>2026-05-04T12:13:18Z</time></trkpt><trkpt lat="41.24878802647411" lon="14.57621879777004"><ele>206.0</ele><time>2026-05-04T12:13:19Z</time></trkpt><trkpt lat="41.24876323975337" lon="14.575953088808715"><ele>206.0</ele><time>2026-05-04T12:13:20Z</time></trkpt><trkpt lat="41.248744263589145" lon="14.575673697488574"><ele>206.0</ele><time>2026-05-04T12:13:21Z</time></trkpt><trkpt lat="41.24872554224221" lon="14.57539902060794"><ele>206.0</ele><time>2026-05-04T12:13:22Z</time></trkpt><trkpt lat="41.248694520011284" lon="14.575131316282109"><ele>206.0</ele><time>2026-05-04T12:13:23Z</time></trkpt><trkpt lat="41.248669105108306" lon="14.574801327778228"><ele>206.5</ele><time>2026-05-04T12:13:24Z</time></trkpt><trkpt lat="41.248686879091444" lon="14.574477412009049"><ele>207.0</ele><time>2026-05-04T12:13:25Z</time></trkpt><trkpt lat="41.248746132715134" lon="14.574141687169622"><ele>207.0</ele><time>2026-05-04T12:13:26Z</time></trkpt><trkpt lat="41.24883074463722" lon="14.57378480030821"><ele>207.0</ele><time>2026-05-04T12:13:27Z</time></trkpt><trkpt lat="41.248898766824" lon="14.573432861524084"><ele>206.66666666666669</ele><time>2026-05-04T12:13:28Z</time></trkpt><trkpt lat="41.24895710882538" lon="14.573131269435338"><ele>206.33333333333334</ele><time>2026-05-04T12:13:29Z</time></trkpt><trkpt lat="41.249007297463805" lon="14.572874251751013"><ele>206.0</ele><time>2026-05-04T12:13:30Z</time></trkpt><trkpt lat="41.24906304610147" lon="14.572660259113155"><ele>207.83333333333334</ele><time>2026-05-04T12:13:31Z</time></trkpt><trkpt lat="41.249100232116234" lon="14.572500315584206"><ele>209.66666666666669</ele><time>2026-05-04T12:13:32Z</time></trkpt><trkpt lat="41.249141130613026" lon="14.572387781670095"><ele>211.5</ele><time>2026-05-04T12:13:33Z</time></trkpt><trkpt lat="41.2491948937663" lon="14.572320689452026"><ele>213.33333333333331</ele><time>2026-05-04T12:13:34Z</time></trkpt><trkpt lat="41.249261329707835" lon="14.57227539376275"><ele>215.16666666666666</ele><time>2026-05-04T12:13:35Z</time></trkpt><trkpt lat="41.249312767401626" lon="14.572212229161648"><ele>217.0</ele><time>2026-05-04T12:13:36Z</time></trkpt><trkpt lat="41.249329069270246" lon="14.572126011919904"><ele>216.6</ele><time>2026-05-04T12:13:37Z</time></trkpt><trkpt lat="41.24931781227568" lon="14.572007145324118"><ele>216.2</ele><time>2026-05-04T12:13:38Z</time></trkpt><trkpt lat="41.24930003758319" lon="14.571874505158311"><ele>215.8</ele><time>2026-05-04T12:13:39Z</time></trkpt><trkpt lat="41.24933190585395" lon="14.571741898248854"><ele>215.4</ele><time>2026-05-04T12:13:40Z</time></trkpt><trkpt lat="41.249405820918206" lon="14.571602603187364"><ele>215.0</ele><time>2026-05-04T12:13:41Z</time></trkpt><trkpt lat="41.24952442098533" lon="14.571460206456926"><ele>215.0</ele><time>2026-05-04T12:13:42Z</time></trkpt><trkpt lat="41.249658004904816" lon="14.571297562073852"><ele>215.0</ele><time>2026-05-04T12:13:43Z</time></trkpt><trkpt lat="41.24981924187134" lon="14.571119629981489"><ele>215.0</ele><time>2026-05-04T12:13:44Z</time></trkpt><trkpt lat="41.25003393510799" lon="14.570914050504562"><ele>214.66666666666669</ele><time>2026-05-04T12:13:45Z</time></trkpt><trkpt lat="41.250196737270315" lon="14.570712553143993"><ele>214.33333333333331</ele><time>2026-05-04T12:13:46Z</time></trkpt><trkpt lat="41.25036771585702" lon="14.570518363098534"><ele>214.0</ele><time>2026-05-04T12:13:47Z</time></trkpt><trkpt lat="41.250542080158844" lon="14.570321666214804"><ele>213.0</ele><time>2026-05-04T12:13:48Z</time></trkpt><trkpt lat="41.250728062026155" lon="14.570124348533437"><ele>212.0</ele><time>2026-05-04T12:13:49Z</time></trkpt><trkpt lat="41.25093679622608" lon="14.569952065330805"><ele>212.0</ele><time>2026-05-04T12:13:50Z</time></trkpt><trkpt lat="41.25117022753944" lon="14.569812286455925"><ele>212.0</ele><time>2026-05-04T12:13:51Z</time></trkpt><trkpt lat="41.25141244670969" lon="14.569712173905202"><ele>214.0</ele><time>2026-05-04T12:13:52Z</time></trkpt><trkpt lat="41.25166764047664" lon="14.569650690563705"><ele>216.0</ele><time>2026-05-04T12:13:53Z</time></trkpt><trkpt lat="41.25191035933087" lon="14.569660419223071"><ele>216.0</ele><time>2026-05-04T12:13:54Z</time></trkpt><trkpt lat="41.252146651745406" lon="14.569711565620324"><ele>216.0</ele><time>2026-05-04T12:13:55Z</time></trkpt><trkpt lat="41.25238374193837" lon="14.569810781942495"><ele>214.0</ele><time>2026-05-04T12:13:56Z</time></trkpt><trkpt lat="41.25262319939188" lon="14.569929919795756"><ele>212.0</ele><time>2026-05-04T12:13:57Z</time></trkpt><trkpt lat="41.25284556980716" lon="14.570062953973059"><ele>212.0</ele><time>2026-05-04T12:13:58Z</time></trkpt><trkpt lat="41.25307102162458" lon="14.570204867974201"><ele>212.0</ele><time>2026-05-04T12:13:59Z</time></trkpt><trkpt lat="41.25329896030883" lon="14.570345816043769"><ele>211.5</ele><time>2026-05-04T12:14:00Z</time></trkpt><trkpt lat="41.25353192810019" lon="14.570484466902526"><ele>211.0</ele><time>2026-05-04T12:14:01Z</time></trkpt><trkpt lat="41.25376411636702" lon="14.570626117445768"><ele>208.0</ele><time>2026-05-04T12:14:02Z</time></trkpt><trkpt lat="41.25399152229768" lon="14.570758718883079"><ele>205.0</ele><time>2026-05-04T12:14:03Z</time></trkpt><trkpt lat="41.25422943349609" lon="14.57084237292279"><ele>205.0</ele><time>2026-05-04T12:14:04Z</time></trkpt><trkpt lat="41.254471185691145" lon="14.57091408432857"><ele>205.0</ele><time>2026-05-04T12:14:05Z</time></trkpt><trkpt lat="41.254722269828775" lon="14.570940935270823"><ele>204.5</ele><time>2026-05-04T12:14:06Z</time></trkpt><trkpt lat="41.25495897397898" lon="14.57093541255498"><ele>204.0</ele><time>2026-05-04T12:14:07Z</time></trkpt><trkpt lat="41.25521405615394" lon="14.57088942132572"><ele>204.0</ele><time>2026-05-04T12:14:08Z</time></trkpt><trkpt lat="41.25546566457046" lon="14.570809886761307"><ele>204.0</ele><time>2026-05-04T12:14:09Z</time></trkpt><trkpt lat="41.25570543807815" lon="14.570690326444716"><ele>207.5</ele><time>2026-05-04T12:14:10Z</time></trkpt><trkpt lat="41.255922392264274" lon="14.57054542779439"><ele>211.0</ele><time>2026-05-04T12:14:11Z</time></trkpt><trkpt lat="41.256108337693334" lon="14.57037777281495"><ele>212.0</ele><time>2026-05-04T12:14:12Z</time></trkpt><trkpt lat="41.256291168495245" lon="14.570187577358034"><ele>213.0</ele><time>2026-05-04T12:14:13Z</time></trkpt><trkpt lat="41.25646792377445" lon="14.56995825320565"><ele>219.0</ele><time>2026-05-04T12:14:14Z</time></trkpt><trkpt lat="41.25666101490816" lon="14.569722853046713"><ele>225.0</ele><time>2026-05-04T12:14:15Z</time></trkpt><trkpt lat="41.256854114301184" lon="14.56946165476694"><ele>225.0</ele><time>2026-05-04T12:14:16Z</time></trkpt><trkpt lat="41.25705442156599" lon="14.569189011941987"><ele>225.0</ele><time>2026-05-04T12:14:17Z</time></trkpt><trkpt lat="41.257243183384254" lon="14.568900742928808"><ele>229.0</ele><time>2026-05-04T12:14:18Z</time></trkpt><trkpt lat="41.257451290850604" lon="14.5686204824856"><ele>233.0</ele><time>2026-05-04T12:14:19Z</time></trkpt><trkpt lat="41.25766789450068" lon="14.568360950199333"><ele>233.0</ele><time>2026-05-04T12:14:20Z</time></trkpt><trkpt lat="41.25784084288511" lon="14.568095139235847"><ele>233.0</ele><time>2026-05-04T12:14:21Z</time></trkpt><trkpt lat="41.25801992519968" lon="14.567857340960305"><ele>242.5</ele><time>2026-05-04T12:14:22Z</time></trkpt><trkpt lat="41.25819512654274" lon="14.567612244567961"><ele>252.0</ele><time>2026-05-04T12:14:23Z</time></trkpt><trkpt lat="41.25836177744558" lon="14.56738515958735"><ele>252.0</ele><time>2026-05-04T12:14:24Z</time></trkpt><trkpt lat="41.258535849513954" lon="14.56714922633702"><ele>252.0</ele><time>2026-05-04T12:14:25Z</time></trkpt><trkpt lat="41.2587118850317" lon="14.56691166510305"><ele>253.5</ele><time>2026-05-04T12:14:26Z</time></trkpt><trkpt lat="41.25888795743201" lon="14.566673764573617"><ele>255.0</ele><time>2026-05-04T12:14:27.021Z</time></trkpt><trkpt lat="41.25905727917496" lon="14.56644380562591"><ele>255.0</ele><time>2026-05-04T12:14:28.026Z</time></trkpt><trkpt lat="41.25923049582173" lon="14.566255005561265"><ele>255.0</ele><time>2026-05-04T12:14:29Z</time></trkpt><trkpt lat="41.25941458087253" lon="14.566041088189623"><ele>253.0</ele><time>2026-05-04T12:14:30Z</time></trkpt><trkpt lat="41.259599635540404" lon="14.565849441267522"><ele>251.0</ele><time>2026-05-04T12:14:31Z</time></trkpt><trkpt lat="41.259791076071394" lon="14.565717378377505"><ele>251.0</ele><time>2026-05-04T12:14:32Z</time></trkpt><trkpt lat="41.25999401847021" lon="14.565587980829328"><ele>251.0</ele><time>2026-05-04T12:14:33Z</time></trkpt><trkpt lat="41.2602213214321" lon="14.565479455268022"><ele>251.0</ele><time>2026-05-04T12:14:34Z</time></trkpt><trkpt lat="41.26045981368024" lon="14.565391014420674"><ele>251.0</ele><time>2026-05-04T12:14:35Z</time></trkpt><trkpt lat="41.26070522934083" lon="14.565329457294604"><ele>249.5</ele><time>2026-05-04T12:14:36Z</time></trkpt><trkpt lat="41.26096400878344" lon="14.565293278187994"><ele>248.0</ele><time>2026-05-04T12:14:37Z</time></trkpt><trkpt lat="41.261228693397136" lon="14.565281085612423"><ele>254.5</ele><time>2026-05-04T12:14:38Z</time></trkpt><trkpt lat="41.26150683805397" lon="14.565279074198626"><ele>261.0</ele><time>2026-05-04T12:14:39Z</time></trkpt><trkpt lat="41.26180023370559" lon="14.565263703711938"><ele>261.0</ele><time>2026-05-04T12:14:40Z</time></trkpt><trkpt lat="41.26209593187862" lon="14.56526434908099"><ele>261.0</ele><time>2026-05-04T12:14:41Z</time></trkpt><trkpt lat="41.26239659459316" lon="14.565261962795875"><ele>263.0</ele><time>2026-05-04T12:14:42Z</time></trkpt><trkpt lat="41.26271185025993" lon="14.565259099288772"><ele>265.0</ele><time>2026-05-04T12:14:43Z</time></trkpt><trkpt lat="41.26301274126227" lon="14.565241167178627"><ele>263.5</ele><time>2026-05-04T12:14:44Z</time></trkpt><trkpt lat="41.26329732511823" lon="14.56519346883883"><ele>262.0</ele><time>2026-05-04T12:14:45Z</time></trkpt><trkpt lat="41.26358225718247" lon="14.565113401182556"><ele>262.0</ele><time>2026-05-04T12:14:46Z</time></trkpt><trkpt lat="41.26386368529603" lon="14.565010744139098"><ele>262.0</ele><time>2026-05-04T12:14:47Z</time></trkpt><trkpt lat="41.264139719339276" lon="14.564884813293927"><ele>266.0</ele><time>2026-05-04T12:14:48Z</time></trkpt><trkpt lat="41.264411584887945" lon="14.56470914617547"><ele>270.0</ele><time>2026-05-04T12:14:49Z</time></trkpt><trkpt lat="41.26468136768256" lon="14.564538520595862"><ele>273.0</ele><time>2026-05-04T12:14:50Z</time></trkpt><trkpt lat="41.264951757514545" lon="14.56435451467098"><ele>276.0</ele><time>2026-05-04T12:14:51Z</time></trkpt><trkpt lat="41.265222697907255" lon="14.564168920441343"><ele>276.0</ele><time>2026-05-04T12:14:52Z</time></trkpt><trkpt lat="41.26549334386582" lon="14.56397543440399"><ele>276.0</ele><time>2026-05-04T12:14:53Z</time></trkpt><trkpt lat="41.26576277461628" lon="14.56379977540801"><ele>279.0</ele><time>2026-05-04T12:14:54Z</time></trkpt><trkpt lat="41.266018145928854" lon="14.563651170757131"><ele>282.0</ele><time>2026-05-04T12:14:55Z</time></trkpt><trkpt lat="41.266260612659785" lon="14.563523128623908"><ele>288.5</ele><time>2026-05-04T12:14:56Z</time></trkpt><trkpt lat="41.26652891645388" lon="14.5634202830755"><ele>295.0</ele><time>2026-05-04T12:14:57Z</time></trkpt><trkpt lat="41.26680340027177" lon="14.56333141764618"><ele>295.0</ele><time>2026-05-04T12:14:58Z</time></trkpt><trkpt lat="41.2670847096518" lon="14.563267090004643"><ele>295.0</ele><time>2026-05-04T12:14:59Z</time></trkpt><trkpt lat="41.267367442162964" lon="14.56322614256242"><ele>299.5</ele><time>2026-05-04T12:15:00Z</time></trkpt><trkpt lat="41.26765785275868" lon="14.563209414791068"><ele>304.0</ele><time>2026-05-04T12:15:01Z</time></trkpt><trkpt lat="41.26794495103442" lon="14.56321272122868"><ele>305.0</ele><time>2026-05-04T12:15:02Z</time></trkpt><trkpt lat="41.268235465377664" lon="14.563242573791841"><ele>306.0</ele><time>2026-05-04T12:15:03Z</time></trkpt><trkpt lat="41.268529120370054" lon="14.563296256986122"><ele>306.0</ele><time>2026-05-04T12:15:04Z</time></trkpt><trkpt lat="41.268790336284475" lon="14.563351056913392"><ele>306.0</ele><time>2026-05-04T12:15:05Z</time></trkpt><trkpt lat="41.26901598276555" lon="14.56346572000627"><ele>307.0</ele><time>2026-05-04T12:15:06Z</time></trkpt><trkpt lat="41.269215832646196" lon="14.563560362558531"><ele>308.0</ele><time>2026-05-04T12:15:07Z</time></trkpt><trkpt lat="41.26938371317851" lon="14.563621014467433"><ele>309.0</ele><time>2026-05-04T12:15:08Z</time></trkpt><trkpt lat="41.2694868288127" lon="14.563723060428172"><ele>310.4</ele><time>2026-05-04T12:15:09Z</time></trkpt><trkpt lat="41.26957109021342" lon="14.563757669860097"><ele>311.79999999999995</ele><time>2026-05-04T12:15:10Z</time></trkpt><trkpt lat="41.26959603455671" lon="14.563876392594372"><ele>313.20000000000005</ele><time>2026-05-04T12:15:11Z</time></trkpt><trkpt lat="41.26956135519752" lon="14.563995615973145"><ele>314.6</ele><time>2026-05-04T12:15:12Z</time></trkpt><trkpt lat="41.26951286029485" lon="14.564117215402813"><ele>316.0</ele><time>2026-05-04T12:15:13Z</time></trkpt><trkpt lat="41.269434886466314" lon="14.564236130718296"><ele>316.0</ele><time>2026-05-04T12:15:14Z</time></trkpt><trkpt lat="41.2693551162963" lon="14.564326219375964"><ele>316.0</ele><time>2026-05-04T12:15:15Z</time></trkpt><trkpt lat="41.26927533364687" lon="14.564340775528368"><ele>316.0</ele><time>2026-05-04T12:15:16Z</time></trkpt><trkpt lat="41.269191965840044" lon="14.564313748042439"><ele>316.0</ele><time>2026-05-04T12:15:17Z</time></trkpt><trkpt lat="41.26913034435216" lon="14.564228797761407"><ele>316.0</ele><time>2026-05-04T12:15:18Z</time></trkpt><trkpt lat="41.26911456823781" lon="14.564141449815398"><ele>316.0</ele><time>2026-05-04T12:15:19Z</time></trkpt><trkpt lat="41.26918390565639" lon="14.563968895904285"><ele>316.0</ele><time>2026-05-04T12:15:21Z</time></trkpt><trkpt lat="41.26926307181862" lon="14.563895897700297"><ele>316.0</ele><time>2026-05-04T12:15:22Z</time></trkpt><trkpt lat="41.269365999836616" lon="14.563800989501821"><ele>316.0</ele><time>2026-05-04T12:15:23Z</time></trkpt><trkpt lat="41.269474809542174" lon="14.563676889654266"><ele>316.0</ele><time>2026-05-04T12:15:24Z</time></trkpt><trkpt lat="41.269620386881975" lon="14.563563110510872"><ele>314.3333333333333</ele><time>2026-05-04T12:15:25Z</time></trkpt><trkpt lat="41.26975336143216" lon="14.563488892605514"><ele>312.6666666666667</ele><time>2026-05-04T12:15:26Z</time></trkpt><trkpt lat="41.26992473743405" lon="14.563381675129"><ele>311.0</ele><time>2026-05-04T12:15:27Z</time></trkpt><trkpt lat="41.270131818786226" lon="14.563361835616112"><ele>311.0</ele><time>2026-05-04T12:15:28Z</time></trkpt><trkpt lat="41.2703338975248" lon="14.563382968929782"><ele>311.0</ele><time>2026-05-04T12:15:29Z</time></trkpt><trkpt lat="41.27052792293479" lon="14.563403614736247"><ele>311.0</ele><time>2026-05-04T12:15:30Z</time></trkpt><trkpt lat="41.270710215856475" lon="14.563413088710066"><ele>312.0</ele><time>2026-05-04T12:15:31Z</time></trkpt><trkpt lat="41.27090252450597" lon="14.563385482829919"><ele>313.0</ele><time>2026-05-04T12:15:32Z</time></trkpt><trkpt lat="41.271057872158586" lon="14.563359280974101"><ele>314.0</ele><time>2026-05-04T12:15:33Z</time></trkpt><trkpt lat="41.27119920417577" lon="14.563359807590103"><ele>314.0</ele><time>2026-05-04T12:15:34Z</time></trkpt><trkpt lat="41.27131300242457" lon="14.563425985563324"><ele>314.0</ele><time>2026-05-04T12:15:35Z</time></trkpt><trkpt lat="41.27141586534095" lon="14.563553606096713"><ele>314.0</ele><time>2026-05-04T12:15:36Z</time></trkpt><trkpt lat="41.27149725402942" lon="14.56371490820782"><ele>314.0</ele><time>2026-05-04T12:15:37Z</time></trkpt><trkpt lat="41.271567144845164" lon="14.5638507245211"><ele>313.75</ele><time>2026-05-04T12:15:38Z</time></trkpt><trkpt lat="41.27166647235035" lon="14.56390954285164"><ele>313.5</ele><time>2026-05-04T12:15:39Z</time></trkpt><trkpt lat="41.271775700942854" lon="14.56389023209137"><ele>313.25</ele><time>2026-05-04T12:15:40Z</time></trkpt><trkpt lat="41.27187997470799" lon="14.563802032606729"><ele>313.0</ele><time>2026-05-04T12:15:41Z</time></trkpt><trkpt lat="41.27199656123686" lon="14.56367415963915"><ele>313.0</ele><time>2026-05-04T12:15:42Z</time></trkpt><trkpt lat="41.27212298239119" lon="14.563560202783133"><ele>313.0</ele><time>2026-05-04T12:15:43Z</time></trkpt><trkpt lat="41.27227320599074" lon="14.563499640727022"><ele>313.0</ele><time>2026-05-04T12:15:44Z</time></trkpt><trkpt lat="41.272435776329395" lon="14.563477121776922"><ele>313.5</ele><time>2026-05-04T12:15:45Z</time></trkpt><trkpt lat="41.2725822920921" lon="14.563489685475348"><ele>314.0</ele><time>2026-05-04T12:15:46Z</time></trkpt><trkpt lat="41.27271684776953" lon="14.563545175853726"><ele>314.5</ele><time>2026-05-04T12:15:47Z</time></trkpt><trkpt lat="41.272831215044114" lon="14.563669421987125"><ele>315.0</ele><time>2026-05-04T12:15:48Z</time></trkpt><trkpt lat="41.27292416068833" lon="14.563836059507961"><ele>317.0</ele><time>2026-05-04T12:15:49Z</time></trkpt><trkpt lat="41.272991001686115" lon="14.563984718576755"><ele>319.0</ele><time>2026-05-04T12:15:50Z</time></trkpt><trkpt lat="41.273088715920956" lon="14.564076700553505"><ele>321.0</ele><time>2026-05-04T12:15:51Z</time></trkpt><trkpt lat="41.273219696005064" lon="14.564092587806632"><ele>323.0</ele><time>2026-05-04T12:15:52Z</time></trkpt><trkpt lat="41.27334637854162" lon="14.564034954810836"><ele>323.0</ele><time>2026-05-04T12:15:53Z</time></trkpt><trkpt lat="41.2734651271932" lon="14.563935839306497"><ele>323.0</ele><time>2026-05-04T12:15:54Z</time></trkpt><trkpt lat="41.27357336193856" lon="14.563855538372763"><ele>323.0</ele><time>2026-05-04T12:15:55Z</time></trkpt><trkpt lat="41.27369329908543" lon="14.563842551242187"><ele>323.0</ele><time>2026-05-04T12:15:56Z</time></trkpt><trkpt lat="41.27380919869599" lon="14.563887690304291"><ele>322.0</ele><time>2026-05-04T12:15:57Z</time></trkpt><trkpt lat="41.27394176863037" lon="14.56401496250404"><ele>321.0</ele><time>2026-05-04T12:15:58Z</time></trkpt><trkpt lat="41.27409055672951" lon="14.564146088794473"><ele>320.0</ele><time>2026-05-04T12:15:59Z</time></trkpt><trkpt lat="41.27420751255741" lon="14.564238149257832"><ele>320.0</ele><time>2026-05-04T12:16:00Z</time></trkpt><trkpt lat="41.27433979233438" lon="14.564254472851404"><ele>320.0</ele><time>2026-05-04T12:16:01Z</time></trkpt><trkpt lat="41.274478139049926" lon="14.564214439876855"><ele>320.0</ele><time>2026-05-04T12:16:02Z</time></trkpt><trkpt lat="41.274610658029054" lon="14.564101559680717"><ele>320.0</ele><time>2026-05-04T12:16:03Z</time></trkpt><trkpt lat="41.27472534765933" lon="14.563939807931996"><ele>320.0</ele><time>2026-05-04T12:16:04Z</time></trkpt><trkpt lat="41.274825721679505" lon="14.563821588513349"><ele>320.0</ele><time>2026-05-04T12:16:05Z</time></trkpt><trkpt lat="41.27493304219512" lon="14.563772058939856"><ele>320.0</ele><time>2026-05-04T12:16:06Z</time></trkpt><trkpt lat="41.27506301523137" lon="14.563788150029017"><ele>320.0</ele><time>2026-05-04T12:16:07Z</time></trkpt><trkpt lat="41.2752295583583" lon="14.563870131533799"><ele>320.0</ele><time>2026-05-04T12:16:08Z</time></trkpt><trkpt lat="41.2754156747106" lon="14.563965323265892"><ele>320.0</ele><time>2026-05-04T12:16:09Z</time></trkpt><trkpt lat="41.275592454724" lon="14.564054302816757"><ele>320.0</ele><time>2026-05-04T12:16:10Z</time></trkpt><trkpt lat="41.27576958956423" lon="14.564158035710197"><ele>319.33333333333337</ele><time>2026-05-04T12:16:11Z</time></trkpt><trkpt lat="41.27591728501933" lon="14.564278419251309"><ele>318.6666666666667</ele><time>2026-05-04T12:16:12Z</time></trkpt><trkpt lat="41.276033906215254" lon="14.56441743114218"><ele>318.0</ele><time>2026-05-04T12:16:13Z</time></trkpt><trkpt lat="41.27613671584382" lon="14.56455059315001"><ele>318.25</ele><time>2026-05-04T12:16:14Z</time></trkpt><trkpt lat="41.276236768484345" lon="14.56462799741339"><ele>318.5</ele><time>2026-05-04T12:16:15Z</time></trkpt><trkpt lat="41.27634453081613" lon="14.564642295555105"><ele>318.75</ele><time>2026-05-04T12:16:16Z</time></trkpt><trkpt lat="41.27646547436996" lon="14.564586252941465"><ele>319.0</ele><time>2026-05-04T12:16:17Z</time></trkpt><trkpt lat="41.27659722628787" lon="14.564473587856005"><ele>317.0</ele><time>2026-05-04T12:16:18Z</time></trkpt><trkpt lat="41.276706535368604" lon="14.564328211373299"><ele>315.0</ele><time>2026-05-04T12:16:19Z</time></trkpt><trkpt lat="41.27678175251622" lon="14.564150445634823"><ele>313.0</ele><time>2026-05-04T12:16:20Z</time></trkpt><trkpt lat="41.27683282938557" lon="14.563937572550126"><ele>313.0</ele><time>2026-05-04T12:16:21Z</time></trkpt><trkpt lat="41.27688137859791" lon="14.56373281384667"><ele>313.0</ele><time>2026-05-04T12:16:22Z</time></trkpt><trkpt lat="41.276930050448584" lon="14.563579929269997"><ele>313.0</ele><time>2026-05-04T12:16:23Z</time></trkpt><trkpt lat="41.277001499852055" lon="14.563441637681388"><ele>313.0</ele><time>2026-05-04T12:16:24Z</time></trkpt><trkpt lat="41.27710968300667" lon="14.563340066257739"><ele>312.75</ele><time>2026-05-04T12:16:25Z</time></trkpt><trkpt lat="41.27721742924602" lon="14.56326054372041"><ele>312.5</ele><time>2026-05-04T12:16:26Z</time></trkpt><trkpt lat="41.27731878468011" lon="14.563228904635347"><ele>312.25</ele><time>2026-05-04T12:16:27Z</time></trkpt><trkpt lat="41.27743778383361" lon="14.563327634231722"><ele>312.0</ele><time>2026-05-04T12:16:28Z</time></trkpt><trkpt lat="41.27753383614602" lon="14.563451027280184"><ele>312.0</ele><time>2026-05-04T12:16:29Z</time></trkpt><trkpt lat="41.27765976507087" lon="14.563504657078349"><ele>312.0</ele><time>2026-05-04T12:16:30Z</time></trkpt><trkpt lat="41.27777257460709" lon="14.563487587942603"><ele>312.0</ele><time>2026-05-04T12:16:31Z</time></trkpt><trkpt lat="41.27787796050089" lon="14.563395448971923"><ele>312.0</ele><time>2026-05-04T12:16:32Z</time></trkpt><trkpt lat="41.27796445331647" lon="14.563253176523553"><ele>312.0</ele><time>2026-05-04T12:16:33Z</time></trkpt><trkpt lat="41.27803271651858" lon="14.563068733613312"><ele>312.0</ele><time>2026-05-04T12:16:34Z</time></trkpt><trkpt lat="41.27810254713572" lon="14.562902007538144"><ele>312.0</ele><time>2026-05-04T12:16:35Z</time></trkpt><trkpt lat="41.27820926064338" lon="14.562811814209297"><ele>312.0</ele><time>2026-05-04T12:16:36Z</time></trkpt><trkpt lat="41.2783307459746" lon="14.5627447992328"><ele>311.6666666666667</ele><time>2026-05-04T12:16:37Z</time></trkpt><trkpt lat="41.278484163011264" lon="14.562699599324077"><ele>311.33333333333337</ele><time>2026-05-04T12:16:38Z</time></trkpt><trkpt lat="41.27865839294447" lon="14.562655294761749"><ele>311.0</ele><time>2026-05-04T12:16:39Z</time></trkpt><trkpt lat="41.27885593620155" lon="14.562586892726078"><ele>310.5</ele><time>2026-05-04T12:16:40Z</time></trkpt><trkpt lat="41.279022707130935" lon="14.562551142654597"><ele>310.0</ele><time>2026-05-04T12:16:41Z</time></trkpt><trkpt lat="41.27917160559831" lon="14.562515542204633"><ele>309.5</ele><time>2026-05-04T12:16:42Z</time></trkpt><trkpt lat="41.27929135850037" lon="14.562461109376828"><ele>309.0</ele><time>2026-05-04T12:16:43Z</time></trkpt><trkpt lat="41.279375963647475" lon="14.562373602518154"><ele>309.0</ele><time>2026-05-04T12:16:44Z</time></trkpt><trkpt lat="41.27942715865126" lon="14.562241628501406"><ele>309.0</ele><time>2026-05-04T12:16:45Z</time></trkpt><trkpt lat="41.27943071732163" lon="14.562088262121893"><ele>309.0</ele><time>2026-05-04T12:16:46Z</time></trkpt><trkpt lat="41.27940898206528" lon="14.561906474480669"><ele>309.0</ele><time>2026-05-04T12:16:47Z</time></trkpt><trkpt lat="41.279407048052306" lon="14.56172535117202"><ele>307.75</ele><time>2026-05-04T12:16:48Z</time></trkpt><trkpt lat="41.2794145971188" lon="14.56157458989368"><ele>306.5</ele><time>2026-05-04T12:16:49Z</time></trkpt><trkpt lat="41.279449741570424" lon="14.561452429452066"><ele>305.25</ele><time>2026-05-04T12:16:50Z</time></trkpt><trkpt lat="41.27952953937524" lon="14.561353021199992"><ele>304.0</ele><time>2026-05-04T12:16:51Z</time></trkpt><trkpt lat="41.27965353897174" lon="14.561302590596634"><ele>304.66666666666663</ele><time>2026-05-04T12:16:52Z</time></trkpt><trkpt lat="41.279785090819146" lon="14.56129204719652"><ele>305.3333333333333</ele><time>2026-05-04T12:16:53Z</time></trkpt><trkpt lat="41.27995706571801" lon="14.561304575818966"><ele>306.0</ele><time>2026-05-04T12:16:54Z</time></trkpt><trkpt lat="41.28010038635781" lon="14.561421753028075"><ele>306.0</ele><time>2026-05-04T12:16:55Z</time></trkpt><trkpt lat="41.28025558614873" lon="14.561500079034841"><ele>306.0</ele><time>2026-05-04T12:16:56Z</time></trkpt><trkpt lat="41.28038291782157" lon="14.561591411495659"><ele>306.0</ele><time>2026-05-04T12:16:57Z</time></trkpt><trkpt lat="41.280500633899976" lon="14.56162927465476"><ele>306.0</ele><time>2026-05-04T12:16:58Z</time></trkpt><trkpt lat="41.28064901132391" lon="14.561593978551857"><ele>305.0</ele><time>2026-05-04T12:16:59Z</time></trkpt><trkpt lat="41.280791746469156" lon="14.561519972585346"><ele>304.0</ele><time>2026-05-04T12:17:00Z</time></trkpt><trkpt lat="41.28092457561722" lon="14.561461597257566"><ele>303.0</ele><time>2026-05-04T12:17:01Z</time></trkpt><trkpt lat="41.28105675379799" lon="14.561458286041637"><ele>302.0</ele><time>2026-05-04T12:17:02Z</time></trkpt><trkpt lat="41.28120223895864" lon="14.561511317431458"><ele>302.0</ele><time>2026-05-04T12:17:03Z</time></trkpt><trkpt lat="41.281360392657746" lon="14.561612967079713"><ele>302.0</ele><time>2026-05-04T12:17:04Z</time></trkpt><trkpt lat="41.2815319203239" lon="14.561726657041289"><ele>302.0</ele><time>2026-05-04T12:17:05Z</time></trkpt><trkpt lat="41.28171073948524" lon="14.561818613188779"><ele>303.33333333333337</ele><time>2026-05-04T12:17:06Z</time></trkpt><trkpt lat="41.281900026200574" lon="14.56192289065489"><ele>304.6666666666667</ele><time>2026-05-04T12:17:07Z</time></trkpt><trkpt lat="41.282075981561015" lon="14.5620307366965"><ele>306.0</ele><time>2026-05-04T12:17:08Z</time></trkpt><trkpt lat="41.282232017936046" lon="14.562146744078806"><ele>303.0</ele><time>2026-05-04T12:17:09Z</time></trkpt><trkpt lat="41.28236963111447" lon="14.56226480624197"><ele>300.0</ele><time>2026-05-04T12:17:10Z</time></trkpt><trkpt lat="41.28249769975866" lon="14.562381451864123"><ele>297.0</ele><time>2026-05-04T12:17:11Z</time></trkpt><trkpt lat="41.28261261359294" lon="14.5624746532258"><ele>297.0</ele><time>2026-05-04T12:17:12Z</time></trkpt><trkpt lat="41.282738282785104" lon="14.562520779700607"><ele>297.0</ele><time>2026-05-04T12:17:13Z</time></trkpt><trkpt lat="41.282900237968725" lon="14.562510298610684"><ele>297.0</ele><time>2026-05-04T12:17:14Z</time></trkpt><trkpt lat="41.283071477748855" lon="14.56247302880543"><ele>295.6666666666667</ele><time>2026-05-04T12:17:15Z</time></trkpt><trkpt lat="41.28324247524427" lon="14.562450417243031"><ele>294.33333333333337</ele><time>2026-05-04T12:17:16Z</time></trkpt><trkpt lat="41.283398970058975" lon="14.562439043129677"><ele>293.0</ele><time>2026-05-04T12:17:17Z</time></trkpt><trkpt lat="41.28354472540764" lon="14.56243664267096"><ele>293.0</ele><time>2026-05-04T12:17:18Z</time></trkpt><trkpt lat="41.28366027948402" lon="14.562430354735692"><ele>293.0</ele><time>2026-05-04T12:17:19Z</time></trkpt><trkpt lat="41.283778018856104" lon="14.562390216711576"><ele>293.0</ele><time>2026-05-04T12:17:20Z</time></trkpt><trkpt lat="41.283868784724675" lon="14.562303084866096"><ele>293.0</ele><time>2026-05-04T12:17:21Z</time></trkpt><trkpt lat="41.28394844211536" lon="14.562184807419651"><ele>291.5</ele><time>2026-05-04T12:17:22Z</time></trkpt><trkpt lat="41.28401862859695" lon="14.562034612062797"><ele>290.0</ele><time>2026-05-04T12:17:23Z</time></trkpt><trkpt lat="41.28409459812679" lon="14.561867320183184"><ele>288.5</ele><time>2026-05-04T12:17:24Z</time></trkpt><trkpt lat="41.284188557420784" lon="14.561732494997699"><ele>287.0</ele><time>2026-05-04T12:17:25Z</time></trkpt><trkpt lat="41.284277853727424" lon="14.561584534507311"><ele>286.0</ele><time>2026-05-04T12:17:26Z</time></trkpt><trkpt lat="41.2843585281326" lon="14.561450344005351"><ele>285.0</ele><time>2026-05-04T12:17:27Z</time></trkpt><trkpt lat="41.284434688216926" lon="14.561317244440039"><ele>284.0</ele><time>2026-05-04T12:17:28Z</time></trkpt><trkpt lat="41.28450309255801" lon="14.561190577522574"><ele>283.0</ele><time>2026-05-04T12:17:29Z</time></trkpt><trkpt lat="41.284554856909" lon="14.56106106335729"><ele>282.2</ele><time>2026-05-04T12:17:30Z</time></trkpt><trkpt lat="41.28463738351339" lon="14.56095635193022"><ele>281.4</ele><time>2026-05-04T12:17:31Z</time></trkpt><trkpt lat="41.284709940817315" lon="14.560864988828468"><ele>280.59999999999997</ele><time>2026-05-04T12:17:32Z</time></trkpt><trkpt lat="41.28479096136083" lon="14.56077933881503"><ele>279.8</ele><time>2026-05-04T12:17:33Z</time></trkpt><trkpt lat="41.28485564075716" lon="14.560721554258002"><ele>279.0</ele><time>2026-05-04T12:17:34Z</time></trkpt><trkpt lat="41.284909886351464" lon="14.560669230588143"><ele>280.6666666666667</ele><time>2026-05-04T12:17:35Z</time></trkpt><trkpt lat="41.28496937436691" lon="14.560600508310308"><ele>282.3333333333333</ele><time>2026-05-04T12:17:36Z</time></trkpt><trkpt lat="41.28502839188254" lon="14.560529514843287"><ele>284.0</ele><time>2026-05-04T12:17:37Z</time></trkpt><trkpt lat="41.285102903384946" lon="14.560437607857832"><ele>285.66666666666663</ele><time>2026-05-04T12:17:39Z</time></trkpt><trkpt lat="41.28516311815523" lon="14.560370070622364"><ele>287.3333333333333</ele><time>2026-05-04T12:17:41Z</time></trkpt><trkpt lat="41.28523163416823" lon="14.56029793560955"><ele>289.0</ele><time>2026-05-04T12:17:42Z</time></trkpt><trkpt lat="41.28530408741537" lon="14.56022112769727"><ele>289.0</ele><time>2026-05-04T12:17:43Z</time></trkpt><trkpt lat="41.28536109066739" lon="14.56016185532469"><ele>289.0</ele><time>2026-05-04T12:17:44Z</time></trkpt><trkpt lat="41.28541859316692" lon="14.560101347983705"><ele>289.0</ele><time>2026-05-04T12:17:46Z</time></trkpt><trkpt lat="41.285345800450266" lon="14.559897868208095"><ele>289.0</ele><time>2026-05-04T12:17:51Z</time></trkpt><trkpt lat="41.28528200051165" lon="14.559809017989945"><ele>289.0</ele><time>2026-05-04T12:17:52Z</time></trkpt><trkpt lat="41.28522320237864" lon="14.559688780178503"><ele>289.0</ele><time>2026-05-04T12:17:53Z</time></trkpt><trkpt lat="41.285148831302465" lon="14.559595707867137"><ele>289.0</ele><time>2026-05-04T12:17:54Z</time></trkpt><trkpt lat="41.285061753739946" lon="14.55948515289314"><ele>289.0</ele><time>2026-05-04T12:17:55Z</time></trkpt><trkpt lat="41.284992646234755" lon="14.559368212317882"><ele>289.0</ele><time>2026-05-04T12:17:56Z</time></trkpt><trkpt lat="41.284931607914544" lon="14.559256009438961"><ele>289.0</ele><time>2026-05-04T12:17:57Z</time></trkpt><trkpt lat="41.28487363256553" lon="14.55916434939796"><ele>287.8333333333333</ele><time>2026-05-04T12:17:58Z</time></trkpt><trkpt lat="41.28481341277758" lon="14.55907059664205"><ele>286.66666666666663</ele><time>2026-05-04T12:17:59Z</time></trkpt><trkpt lat="41.284750603856686" lon="14.559011676000074"><ele>285.5</ele><time>2026-05-04T12:18:00Z</time></trkpt><trkpt lat="41.28469787558362" lon="14.55893053849261"><ele>284.3333333333333</ele><time>2026-05-04T12:18:01Z</time></trkpt><trkpt lat="41.28464911410847" lon="14.558851245015092"><ele>283.1666666666667</ele><time>2026-05-04T12:18:02Z</time></trkpt><trkpt lat="41.284583777863155" lon="14.55877932880241"><ele>282.0</ele><time>2026-05-04T12:18:03Z</time></trkpt><trkpt lat="41.284540057478864" lon="14.558710616159296"><ele>280.8333333333333</ele><time>2026-05-04T12:18:04Z</time></trkpt><trkpt lat="41.28449566379786" lon="14.558607171376057"><ele>279.6666666666667</ele><time>2026-05-04T12:18:05Z</time></trkpt><trkpt lat="41.284446949110574" lon="14.55853900381463"><ele>278.5</ele><time>2026-05-04T12:18:06Z</time></trkpt><trkpt lat="41.284393975875055" lon="14.558458216634712"><ele>277.33333333333337</ele><time>2026-05-04T12:18:07Z</time></trkpt><trkpt lat="41.28435186999004" lon="14.558381164879666"><ele>276.1666666666667</ele><time>2026-05-04T12:18:08Z</time></trkpt><trkpt lat="41.28429512712578" lon="14.558308017254282"><ele>275.0</ele><time>2026-05-04T12:18:09Z</time></trkpt><trkpt lat="41.284248745504215" lon="14.558210669994276"><ele>275.0</ele><time>2026-05-04T12:18:10Z</time></trkpt><trkpt lat="41.28418935718563" lon="14.55811306530536"><ele>275.0</ele><time>2026-05-04T12:18:11Z</time></trkpt><trkpt lat="41.2841260483267" lon="14.558006995484622"><ele>275.0</ele><time>2026-05-04T12:18:12Z</time></trkpt><trkpt lat="41.28406259182003" lon="14.557914452311993"><ele>275.0</ele><time>2026-05-04T12:18:13Z</time></trkpt><trkpt lat="41.284006792173614" lon="14.557821677373957"><ele>275.0</ele><time>2026-05-04T12:18:14Z</time></trkpt><trkpt lat="41.28395495405255" lon="14.55773435531033"><ele>274.0</ele><time>2026-05-04T12:18:15Z</time></trkpt><trkpt lat="41.28390970875403" lon="14.557663561549793"><ele>273.0</ele><time>2026-05-04T12:18:16Z</time></trkpt><trkpt lat="41.28386506876645" lon="14.557584544638093"><ele>272.0</ele><time>2026-05-04T12:18:17Z</time></trkpt><trkpt lat="41.2838205594929" lon="14.557502038447048"><ele>271.0</ele><time>2026-05-04T12:18:18Z</time></trkpt><trkpt lat="41.28378007610518" lon="14.557434062997219"><ele>270.0</ele><time>2026-05-04T12:18:19Z</time></trkpt><trkpt lat="41.28358285126604" lon="14.557515431750861"><ele>270.0</ele><time>2026-05-04T12:18:24Z</time></trkpt><trkpt lat="41.283508946137104" lon="14.557600615211829"><ele>270.0</ele><time>2026-05-04T12:18:26Z</time></trkpt><trkpt lat="41.283459305906774" lon="14.557676257069652"><ele>270.0</ele><time>2026-05-04T12:18:29Z</time></trkpt><trkpt lat="41.28342700608624" lon="14.557760709494989"><ele>270.0</ele><time>2026-05-04T12:18:31Z</time></trkpt><trkpt lat="41.2833804291677" lon="14.557820826162502"><ele>270.0</ele><time>2026-05-04T12:18:33Z</time></trkpt><trkpt lat="41.28332041122272" lon="14.5578713590961"><ele>270.0</ele><time>2026-05-04T12:18:38Z</time></trkpt><trkpt lat="41.28324912514459" lon="14.557773189939018"><ele>270.0</ele><time>2026-05-04T12:18:42Z</time></trkpt><trkpt lat="41.283194315760625" lon="14.557723243313745"><ele>270.0</ele><time>2026-05-04T12:18:43Z</time></trkpt><trkpt lat="41.28314143221439" lon="14.55764982150493"><ele>270.0</ele><time>2026-05-04T12:18:44Z</time></trkpt><trkpt lat="41.28305224103361" lon="14.557514685830432"><ele>270.0</ele><time>2026-05-04T12:18:46Z</time></trkpt><trkpt lat="41.283006475018595" lon="14.55742577323538"><ele>270.0</ele><time>2026-05-04T12:18:47Z</time></trkpt><trkpt lat="41.282957944278394" lon="14.557355865418941"><ele>270.0</ele><time>2026-05-04T12:18:48Z</time></trkpt><trkpt lat="41.28291096616694" lon="14.55729447975753"><ele>267.75</ele><time>2026-05-04T12:18:49Z</time></trkpt><trkpt lat="41.282857857129116" lon="14.557246376661643"><ele>265.5</ele><time>2026-05-04T12:18:50Z</time></trkpt><trkpt lat="41.282788986693824" lon="14.557117637580312"><ele>263.25</ele><time>2026-05-04T12:18:52Z</time></trkpt><trkpt lat="41.28272682105213" lon="14.557048789544709"><ele>261.0</ele><time>2026-05-04T12:18:54Z</time></trkpt><trkpt lat="41.282555379405906" lon="14.557168084111916"><ele>261.0</ele><time>2026-05-04T12:18:59Z</time></trkpt><trkpt lat="41.28248373242755" lon="14.557083512093193"><ele>261.0</ele><time>2026-05-04T12:19:01Z</time></trkpt><trkpt lat="41.282439102427276" lon="14.557012633456132"><ele>261.0</ele><time>2026-05-04T12:19:02Z</time></trkpt><trkpt lat="41.282381060196926" lon="14.556938303789591"><ele>261.0</ele><time>2026-05-04T12:19:03Z</time></trkpt><trkpt lat="41.28231750866817" lon="14.556847445434643"><ele>261.0</ele><time>2026-05-04T12:19:04Z</time></trkpt><trkpt lat="41.28225474406397" lon="14.55674158204556"><ele>261.0</ele><time>2026-05-04T12:19:05Z</time></trkpt><trkpt lat="41.28219855154931" lon="14.556643925046911"><ele>261.0</ele><time>2026-05-04T12:19:06Z</time></trkpt><trkpt lat="41.28214313674497" lon="14.556552544557375"><ele>261.0</ele><time>2026-05-04T12:19:07Z</time></trkpt><trkpt lat="41.282094755750514" lon="14.556468935518753"><ele>261.0</ele><time>2026-05-04T12:19:08Z</time></trkpt><trkpt lat="41.28205135334193" lon="14.556348297967565"><ele>261.0</ele><time>2026-05-04T12:19:10Z</time></trkpt><trkpt lat="41.281976813961755" lon="14.556286461877852"><ele>261.0</ele><time>2026-05-04T12:19:18Z</time></trkpt><trkpt lat="41.28191726291252" lon="14.556166273525612"><ele>261.0</ele><time>2026-05-04T12:19:20Z</time></trkpt><trkpt lat="41.281865903776875" lon="14.556040632574415"><ele>261.0</ele><time>2026-05-04T12:19:22Z</time></trkpt><trkpt lat="41.28181524220847" lon="14.555965762910015"><ele>261.0</ele><time>2026-05-04T12:19:23Z</time></trkpt><trkpt lat="41.28176660739338" lon="14.555912190966703"><ele>261.0</ele><time>2026-05-04T12:19:24Z</time></trkpt><trkpt lat="41.28165627812908" lon="14.55589558375391"><ele>261.0</ele><time>2026-05-04T12:19:26Z</time></trkpt><trkpt lat="41.281589369148634" lon="14.555953239037237"><ele>261.0</ele><time>2026-05-04T12:19:27Z</time></trkpt><trkpt lat="41.281533375205214" lon="14.556030147433992"><ele>261.0</ele><time>2026-05-04T12:19:28Z</time></trkpt><trkpt lat="41.28148497042875" lon="14.556128262777456"><ele>261.0</ele><time>2026-05-04T12:19:29Z</time></trkpt><trkpt lat="41.281453867107615" lon="14.556255114980596"><ele>261.0</ele><time>2026-05-04T12:19:30Z</time></trkpt><trkpt lat="41.28142475409499" lon="14.556386822850685"><ele>261.0</ele><time>2026-05-04T12:19:31Z</time></trkpt><trkpt lat="41.281378963342235" lon="14.556503296049632"><ele>261.0</ele><time>2026-05-04T12:19:32Z</time></trkpt><trkpt lat="41.28131323479551" lon="14.556569922711228"><ele>256.75</ele><time>2026-05-04T12:19:33Z</time></trkpt><trkpt lat="41.28122179227692" lon="14.55659553346327"><ele>252.5</ele><time>2026-05-04T12:19:34Z</time></trkpt><trkpt lat="41.2811138727656" lon="14.556525442995618"><ele>248.25</ele><time>2026-05-04T12:19:35Z</time></trkpt><trkpt lat="41.28099281267584" lon="14.556470046960078"><ele>244.0</ele><time>2026-05-04T12:19:36Z</time></trkpt><trkpt lat="41.28086206225266" lon="14.5564192080205"><ele>244.0</ele><time>2026-05-04T12:19:37Z</time></trkpt><trkpt lat="41.28071232420054" lon="14.556318454689835"><ele>244.0</ele><time>2026-05-04T12:19:38Z</time></trkpt><trkpt lat="41.2805686785137" lon="14.556215772169887"><ele>244.0</ele><time>2026-05-04T12:19:39Z</time></trkpt><trkpt lat="41.28042538348841" lon="14.556089169239838"><ele>240.66666666666666</ele><time>2026-05-04T12:19:40Z</time></trkpt><trkpt lat="41.28030769694824" lon="14.555908858289083"><ele>237.33333333333331</ele><time>2026-05-04T12:19:41Z</time></trkpt><trkpt lat="41.28016581867456" lon="14.555728018887903"><ele>234.0</ele><time>2026-05-04T12:19:42Z</time></trkpt><trkpt lat="41.2800204077843" lon="14.555501236905645"><ele>236.0</ele><time>2026-05-04T12:19:43Z</time></trkpt><trkpt lat="41.27989563803451" lon="14.555273021539232"><ele>238.0</ele><time>2026-05-04T12:19:44Z</time></trkpt><trkpt lat="41.27978366536912" lon="14.555077050218861"><ele>240.0</ele><time>2026-05-04T12:19:45Z</time></trkpt><trkpt lat="41.27969996424878" lon="14.554898754741888"><ele>235.0</ele><time>2026-05-04T12:19:46Z</time></trkpt><trkpt lat="41.27964839096538" lon="14.554690796234445"><ele>230.0</ele><time>2026-05-04T12:19:47Z</time></trkpt><trkpt lat="41.27962488552538" lon="14.55446222453479"><ele>225.0</ele><time>2026-05-04T12:19:48Z</time></trkpt><trkpt lat="41.2796169801965" lon="14.55424091800428"><ele>224.25</ele><time>2026-05-04T12:19:49Z</time></trkpt><trkpt lat="41.27961425071364" lon="14.554049842714782"><ele>223.5</ele><time>2026-05-04T12:19:50Z</time></trkpt><trkpt lat="41.27961929467892" lon="14.553875714323079"><ele>222.75</ele><time>2026-05-04T12:19:51Z</time></trkpt><trkpt lat="41.279632242236396" lon="14.553739694901568"><ele>222.0</ele><time>2026-05-04T12:19:52Z</time></trkpt><trkpt lat="41.27966066594334" lon="14.553631472695384"><ele>221.0</ele><time>2026-05-04T12:19:54Z</time></trkpt><trkpt lat="41.279605161353956" lon="14.5535517283739"><ele>220.0</ele><time>2026-05-04T12:19:57Z</time></trkpt><trkpt lat="41.2794848854341" lon="14.55344358325385"><ele>219.0</ele><time>2026-05-04T12:19:59Z</time></trkpt><trkpt lat="41.279373758239764" lon="14.553352255890415"><ele>218.0</ele><time>2026-05-04T12:20:00Z</time></trkpt><trkpt lat="41.27926447923508" lon="14.55323769586851"><ele>218.0</ele><time>2026-05-04T12:20:01Z</time></trkpt><trkpt lat="41.27913259040554" lon="14.55313294514008"><ele>218.0</ele><time>2026-05-04T12:20:02Z</time></trkpt><trkpt lat="41.27899949187083" lon="14.55302628419571"><ele>218.0</ele><time>2026-05-04T12:20:03Z</time></trkpt><trkpt lat="41.27885370933886" lon="14.552900664044522"><ele>218.66666666666669</ele><time>2026-05-04T12:20:04Z</time></trkpt><trkpt lat="41.27870679354563" lon="14.552760673968132"><ele>219.33333333333331</ele><time>2026-05-04T12:20:05Z</time></trkpt><trkpt lat="41.278561717192815" lon="14.55262883717085"><ele>220.0</ele><time>2026-05-04T12:20:06Z</time></trkpt><trkpt lat="41.27841875221897" lon="14.552515753271681"><ele>220.0</ele><time>2026-05-04T12:20:07Z</time></trkpt><trkpt lat="41.27829634371704" lon="14.552415503796242"><ele>220.0</ele><time>2026-05-04T12:20:08Z</time></trkpt><trkpt lat="41.278165861782256" lon="14.552318799139087"><ele>220.0</ele><time>2026-05-04T12:20:09Z</time></trkpt><trkpt lat="41.27804187319705" lon="14.552229417055008"><ele>220.0</ele><time>2026-05-04T12:20:10Z</time></trkpt><trkpt lat="41.277896989360876" lon="14.552138109657692"><ele>219.33333333333331</ele><time>2026-05-04T12:20:11Z</time></trkpt><trkpt lat="41.27775802687892" lon="14.552038383281028"><ele>218.66666666666669</ele><time>2026-05-04T12:20:12Z</time></trkpt><trkpt lat="41.2776244769769" lon="14.551938188294047"><ele>218.0</ele><time>2026-05-04T12:20:13Z</time></trkpt><trkpt lat="41.27748729334539" lon="14.551859051759212"><ele>218.0</ele><time>2026-05-04T12:20:14Z</time></trkpt><trkpt lat="41.277329425948615" lon="14.551732017924369"><ele>218.0</ele><time>2026-05-04T12:20:15Z</time></trkpt><trkpt lat="41.27717754982519" lon="14.551640661252653"><ele>218.0</ele><time>2026-05-04T12:20:16Z</time></trkpt><trkpt lat="41.277050741713026" lon="14.551524359185088"><ele>218.33333333333334</ele><time>2026-05-04T12:20:17Z</time></trkpt><trkpt lat="41.27692786765955" lon="14.551411038119758"><ele>218.66666666666669</ele><time>2026-05-04T12:20:18Z</time></trkpt><trkpt lat="41.27681552484009" lon="14.551272296131993"><ele>219.0</ele><time>2026-05-04T12:20:19Z</time></trkpt><trkpt lat="41.276681824221704" lon="14.551148847951103"><ele>219.0</ele><time>2026-05-04T12:20:20Z</time></trkpt><trkpt lat="41.276559942429884" lon="14.550973184278606"><ele>219.0</ele><time>2026-05-04T12:20:21Z</time></trkpt><trkpt lat="41.27643643047835" lon="14.55081260147627"><ele>219.0</ele><time>2026-05-04T12:20:22Z</time></trkpt><trkpt lat="41.276322913053185" lon="14.550665011513125"><ele>220.66666666666669</ele><time>2026-05-04T12:20:23Z</time></trkpt><trkpt lat="41.27620749095651" lon="14.550509399230446"><ele>222.33333333333334</ele><time>2026-05-04T12:20:24Z</time></trkpt><trkpt lat="41.27609895266471" lon="14.550362292357688"><ele>224.0</ele><time>2026-05-04T12:20:25Z</time></trkpt><trkpt lat="41.27599914349975" lon="14.550222034238676"><ele>224.0</ele><time>2026-05-04T12:20:26Z</time></trkpt><trkpt lat="41.27590544558521" lon="14.550096646514966"><ele>223.99999999999997</ele><time>2026-05-04T12:20:27Z</time></trkpt><trkpt lat="41.27583147979494" lon="14.55000727929961"><ele>223.99999999999997</ele><time>2026-05-04T12:20:28Z</time></trkpt><trkpt lat="41.275742158083574" lon="14.549906460432197"><ele>224.0</ele><time>2026-05-04T12:20:29Z</time></trkpt><trkpt lat="41.27565963892264" lon="14.549838917654347"><ele>224.0</ele><time>2026-05-04T12:20:30Z</time></trkpt><trkpt lat="41.275601036764606" lon="14.54977228273024"><ele>224.33333333333334</ele><time>2026-05-04T12:20:31Z</time></trkpt><trkpt lat="41.275551092379935" lon="14.549711709488538"><ele>224.66666666666669</ele><time>2026-05-04T12:20:32Z</time></trkpt><trkpt lat="41.27550103040013" lon="14.549634884431043"><ele>225.0</ele><time>2026-05-04T12:20:33Z</time></trkpt><trkpt lat="41.27543690373741" lon="14.549559580661464"><ele>225.33333333333331</ele><time>2026-05-04T12:20:34Z</time></trkpt><trkpt lat="41.27535225396285" lon="14.549484289532813"><ele>225.66666666666666</ele><time>2026-05-04T12:20:35Z</time></trkpt><trkpt lat="41.27524694414854" lon="14.549423504588258"><ele>226.0</ele><time>2026-05-04T12:20:36Z</time></trkpt><trkpt lat="41.27512241438565" lon="14.54935676850487"><ele>225.75</ele><time>2026-05-04T12:20:37Z</time></trkpt><trkpt lat="41.275007037764496" lon="14.549308353065037"><ele>225.5</ele><time>2026-05-04T12:20:38Z</time></trkpt><trkpt lat="41.274897604188844" lon="14.54926562243906"><ele>225.25</ele><time>2026-05-04T12:20:39Z</time></trkpt><trkpt lat="41.274805769030316" lon="14.54919177842481"><ele>225.0</ele><time>2026-05-04T12:20:40Z</time></trkpt><trkpt lat="41.2747304602781" lon="14.549079457552565"><ele>225.0</ele><time>2026-05-04T12:20:41Z</time></trkpt><trkpt lat="41.27468548903423" lon="14.548958091333654"><ele>225.0</ele><time>2026-05-04T12:20:42Z</time></trkpt><trkpt lat="41.274643105353135" lon="14.5488243611292"><ele>225.0</ele><time>2026-05-04T12:20:43Z</time></trkpt><trkpt lat="41.274600739680174" lon="14.548677090558954"><ele>225.0</ele><time>2026-05-04T12:20:44Z</time></trkpt><trkpt lat="41.27454582781362" lon="14.548527611572458"><ele>224.25</ele><time>2026-05-04T12:20:45Z</time></trkpt><trkpt lat="41.2744872808263" lon="14.5483674603071"><ele>223.5</ele><time>2026-05-04T12:20:46Z</time></trkpt><trkpt lat="41.27441742620433" lon="14.54821270923247"><ele>222.75</ele><time>2026-05-04T12:20:47Z</time></trkpt><trkpt lat="41.27435970551779" lon="14.548067120181093"><ele>222.0</ele><time>2026-05-04T12:20:48Z</time></trkpt><trkpt lat="41.274286907013995" lon="14.547946854007519"><ele>222.25</ele><time>2026-05-04T12:20:49Z</time></trkpt><trkpt lat="41.27420408693299" lon="14.547814694391757"><ele>222.5</ele><time>2026-05-04T12:20:50Z</time></trkpt><trkpt lat="41.27411003996151" lon="14.547676794543396"><ele>222.75</ele><time>2026-05-04T12:20:51Z</time></trkpt><trkpt lat="41.274022294639245" lon="14.547559990568185"><ele>223.0</ele><time>2026-05-04T12:20:52Z</time></trkpt><trkpt lat="41.27392354466775" lon="14.547434406574762"><ele>223.0</ele><time>2026-05-04T12:20:53Z</time></trkpt><trkpt lat="41.27383536408221" lon="14.547303097316492"><ele>223.0</ele><time>2026-05-04T12:20:54Z</time></trkpt><trkpt lat="41.27374503399743" lon="14.54717973520248"><ele>223.0</ele><time>2026-05-04T12:20:55Z</time></trkpt><trkpt lat="41.27364518920186" lon="14.547046151672069"><ele>223.0</ele><time>2026-05-04T12:20:56Z</time></trkpt><trkpt lat="41.27353222344135" lon="14.546912420942103"><ele>220.33333333333331</ele><time>2026-05-04T12:20:57Z</time></trkpt><trkpt lat="41.2734097546746" lon="14.54676310774907"><ele>217.66666666666669</ele><time>2026-05-04T12:20:58Z</time></trkpt><trkpt lat="41.273270977369954" lon="14.546582047672253"><ele>215.0</ele><time>2026-05-04T12:20:59Z</time></trkpt><trkpt lat="41.27312103686945" lon="14.54633806184176"><ele>215.5</ele><time>2026-05-04T12:21:00Z</time></trkpt><trkpt lat="41.272983139733356" lon="14.546070163478303"><ele>216.0</ele><time>2026-05-04T12:21:01Z</time></trkpt><trkpt lat="41.272854662467246" lon="14.545809703043249"><ele>216.0</ele><time>2026-05-04T12:21:02Z</time></trkpt><trkpt lat="41.27272496461612" lon="14.545582680177487"><ele>216.0</ele><time>2026-05-04T12:21:03Z</time></trkpt><trkpt lat="41.27259511768471" lon="14.545353575287727"><ele>216.0</ele><time>2026-05-04T12:21:04Z</time></trkpt><trkpt lat="41.272466479306715" lon="14.545122770772789"><ele>215.33333333333331</ele><time>2026-05-04T12:21:05Z</time></trkpt><trkpt lat="41.272337820977796" lon="14.544905503649343"><ele>214.66666666666666</ele><time>2026-05-04T12:21:06Z</time></trkpt><trkpt lat="41.27221917388409" lon="14.544703884835888"><ele>214.0</ele><time>2026-05-04T12:21:07Z</time></trkpt><trkpt lat="41.27210748877583" lon="14.544500013708891"><ele>212.66666666666666</ele><time>2026-05-04T12:21:08Z</time></trkpt><trkpt lat="41.27199680720071" lon="14.544279793020772"><ele>211.33333333333331</ele><time>2026-05-04T12:21:09Z</time></trkpt><trkpt lat="41.27188858874141" lon="14.54405611472635"><ele>210.0</ele><time>2026-05-04T12:21:10Z</time></trkpt><trkpt lat="41.27178029001551" lon="14.543824333093426"><ele>209.33333333333331</ele><time>2026-05-04T12:21:11Z</time></trkpt><trkpt lat="41.271663037387746" lon="14.543606174457885"><ele>208.66666666666666</ele><time>2026-05-04T12:21:12Z</time></trkpt><trkpt lat="41.2715756595859" lon="14.543395062608928"><ele>208.0</ele><time>2026-05-04T12:21:13Z</time></trkpt><trkpt lat="41.27147874897884" lon="14.543203086702995"><ele>206.0</ele><time>2026-05-04T12:21:14Z</time></trkpt><trkpt lat="41.27138962592432" lon="14.543023065111893"><ele>204.0</ele><time>2026-05-04T12:21:15Z</time></trkpt><trkpt lat="41.2713083949525" lon="14.542848254677624"><ele>202.0</ele><time>2026-05-04T12:21:16Z</time></trkpt><trkpt lat="41.27126587313076" lon="14.54263951338105"><ele>201.0</ele><time>2026-05-04T12:21:17Z</time></trkpt><trkpt lat="41.271230424518556" lon="14.542403325624843"><ele>200.0</ele><time>2026-05-04T12:21:18Z</time></trkpt><trkpt lat="41.27120112375565" lon="14.54214539241993"><ele>199.0</ele><time>2026-05-04T12:21:19Z</time></trkpt><trkpt lat="41.27116695506227" lon="14.541875450130998"><ele>198.0</ele><time>2026-05-04T12:21:20Z</time></trkpt><trkpt lat="41.271132654593934" lon="14.541598884023506"><ele>197.0</ele><time>2026-05-04T12:21:21Z</time></trkpt><trkpt lat="41.271082893198226" lon="14.541304300277483"><ele>196.0</ele><time>2026-05-04T12:21:22Z</time></trkpt><trkpt lat="41.27105084848757" lon="14.541032837251198"><ele>195.66666666666666</ele><time>2026-05-04T12:21:23Z</time></trkpt><trkpt lat="41.27101434689041" lon="14.540800163541041"><ele>195.33333333333331</ele><time>2026-05-04T12:21:24Z</time></trkpt><trkpt lat="41.27096829348652" lon="14.540564254536783"><ele>195.0</ele><time>2026-05-04T12:21:25Z</time></trkpt><trkpt lat="41.2708879360722" lon="14.540336860270337"><ele>195.0</ele><time>2026-05-04T12:21:26Z</time></trkpt><trkpt lat="41.27077313844687" lon="14.540108220790032"><ele>195.0</ele><time>2026-05-04T12:21:27Z</time></trkpt><trkpt lat="41.270636668145265" lon="14.539872969422852"><ele>195.0</ele><time>2026-05-04T12:21:28Z</time></trkpt><trkpt lat="41.27050775658762" lon="14.539645896605048"><ele>195.33333333333331</ele><time>2026-05-04T12:21:29Z</time></trkpt><trkpt lat="41.27039383535399" lon="14.53944018065692"><ele>195.66666666666666</ele><time>2026-05-04T12:21:30Z</time></trkpt><trkpt lat="41.270294059148185" lon="14.539250398140668"><ele>196.0</ele><time>2026-05-04T12:21:31Z</time></trkpt><trkpt lat="41.27019908683365" lon="14.53907585415897"><ele>196.0</ele><time>2026-05-04T12:21:32Z</time></trkpt><trkpt lat="41.270103594884446" lon="14.538928259336519"><ele>196.0</ele><time>2026-05-04T12:21:33Z</time></trkpt><trkpt lat="41.26999992266233" lon="14.538798909921525"><ele>196.0</ele><time>2026-05-04T12:21:34Z</time></trkpt><trkpt lat="41.26987352754078" lon="14.538663656739555"><ele>197.66666666666666</ele><time>2026-05-04T12:21:35Z</time></trkpt><trkpt lat="41.26971904646753" lon="14.538532808434775"><ele>199.33333333333331</ele><time>2026-05-04T12:21:36Z</time></trkpt><trkpt lat="41.269545143258625" lon="14.538387168045912"><ele>201.0</ele><time>2026-05-04T12:21:37Z</time></trkpt><trkpt lat="41.269369803593385" lon="14.538222733213454"><ele>201.0</ele><time>2026-05-04T12:21:38Z</time></trkpt><trkpt lat="41.26918991962836" lon="14.538066815772147"><ele>201.0</ele><time>2026-05-04T12:21:39Z</time></trkpt><trkpt lat="41.26902909122555" lon="14.537918014265886"><ele>201.0</ele><time>2026-05-04T12:21:40Z</time></trkpt><trkpt lat="41.2688754401493" lon="14.537825522517297"><ele>203.0</ele><time>2026-05-04T12:21:41Z</time></trkpt><trkpt lat="41.26873078029833" lon="14.537757637583299"><ele>205.0</ele><time>2026-05-04T12:21:42Z</time></trkpt><trkpt lat="41.26860702472847" lon="14.537712249168061"><ele>207.0</ele><time>2026-05-04T12:21:43Z</time></trkpt><trkpt lat="41.2684860316924" lon="14.537649378332182"><ele>209.0</ele><time>2026-05-04T12:21:44Z</time></trkpt><trkpt lat="41.268388910145504" lon="14.537530356755758"><ele>209.0</ele><time>2026-05-04T12:21:45Z</time></trkpt><trkpt lat="41.26834440206713" lon="14.537366886773027"><ele>209.0</ele><time>2026-05-04T12:21:46Z</time></trkpt><trkpt lat="41.26834586155592" lon="14.537158312291245"><ele>209.0</ele><time>2026-05-04T12:21:47Z</time></trkpt><trkpt lat="41.26832219331982" lon="14.536945295599285"><ele>209.0</ele><time>2026-05-04T12:21:48Z</time></trkpt><trkpt lat="41.26830674026365" lon="14.536713286810341"><ele>208.0</ele><time>2026-05-04T12:21:49Z</time></trkpt><trkpt lat="41.268266400186484" lon="14.536495712227094"><ele>207.0</ele><time>2026-05-04T12:21:50Z</time></trkpt><trkpt lat="41.268254935783" lon="14.536246771742277"><ele>206.0</ele><time>2026-05-04T12:21:51Z</time></trkpt><trkpt lat="41.26823157707306" lon="14.535999767211356"><ele>205.66666666666669</ele><time>2026-05-04T12:21:52Z</time></trkpt><trkpt lat="41.268193202493634" lon="14.535742570402375"><ele>205.33333333333331</ele><time>2026-05-04T12:21:53Z</time></trkpt><trkpt lat="41.26816549478405" lon="14.535469527047473"><ele>205.0</ele><time>2026-05-04T12:21:54Z</time></trkpt><trkpt lat="41.26813582528206" lon="14.535192131959793"><ele>205.0</ele><time>2026-05-04T12:21:55Z</time></trkpt><trkpt lat="41.2681185483291" lon="14.534905499443603"><ele>205.0</ele><time>2026-05-04T12:21:56Z</time></trkpt><trkpt lat="41.26806343629303" lon="14.534609037259193"><ele>205.0</ele><time>2026-05-04T12:21:57Z</time></trkpt><trkpt lat="41.26802146155307" lon="14.534317602982775"><ele>205.0</ele><time>2026-05-04T12:21:58Z</time></trkpt><trkpt lat="41.26799634350732" lon="14.534038357212996"><ele>205.0</ele><time>2026-05-04T12:21:59Z</time></trkpt><trkpt lat="41.26795891835627" lon="14.533786331336154"><ele>205.0</ele><time>2026-05-04T12:22:00Z</time></trkpt><trkpt lat="41.267912346656146" lon="14.533554536151465"><ele>204.0</ele><time>2026-05-04T12:22:01Z</time></trkpt><trkpt lat="41.2678910392902" lon="14.533335389034784"><ele>203.0</ele><time>2026-05-04T12:22:02Z</time></trkpt><trkpt lat="41.2678699276886" lon="14.533129193770204"><ele>202.0</ele><time>2026-05-04T12:22:03Z</time></trkpt><trkpt lat="41.26784095746208" lon="14.532958833470426"><ele>201.25</ele><time>2026-05-04T12:22:04Z</time></trkpt><trkpt lat="41.267782869466174" lon="14.532823306542754"><ele>200.5</ele><time>2026-05-04T12:22:05Z</time></trkpt><trkpt lat="41.267692179618976" lon="14.532722892266515"><ele>199.75</ele><time>2026-05-04T12:22:06Z</time></trkpt><trkpt lat="41.2675578608968" lon="14.532647944726062"><ele>199.0</ele><time>2026-05-04T12:22:07Z</time></trkpt><trkpt lat="41.26738634223768" lon="14.532594789230346"><ele>199.33333333333331</ele><time>2026-05-04T12:22:08Z</time></trkpt><trkpt lat="41.26719838089694" lon="14.532514929194573"><ele>199.66666666666669</ele><time>2026-05-04T12:22:09Z</time></trkpt><trkpt lat="41.26704111800072" lon="14.532433710278648"><ele>200.0</ele><time>2026-05-04T12:22:10Z</time></trkpt><trkpt lat="41.26691387013155" lon="14.532342877991207"><ele>200.0</ele><time>2026-05-04T12:22:11Z</time></trkpt><trkpt lat="41.26678672283442" lon="14.532209980872418"><ele>200.0</ele><time>2026-05-04T12:22:12Z</time></trkpt><trkpt lat="41.26669784212" lon="14.532019834162266"><ele>200.0</ele><time>2026-05-04T12:22:13Z</time></trkpt><trkpt lat="41.26661656726269" lon="14.531791227588135"><ele>197.5</ele><time>2026-05-04T12:22:14Z</time></trkpt><trkpt lat="41.26651619106156" lon="14.531505618861587"><ele>195.0</ele><time>2026-05-04T12:22:15Z</time></trkpt><trkpt lat="41.266416175308855" lon="14.531221035121684"><ele>194.5</ele><time>2026-05-04T12:22:16Z</time></trkpt><trkpt lat="41.26631549553068" lon="14.530934561842852"><ele>194.0</ele><time>2026-05-04T12:22:17Z</time></trkpt><trkpt lat="41.266207352870275" lon="14.53062685392555"><ele>193.0</ele><time>2026-05-04T12:22:18Z</time></trkpt><trkpt lat="41.2660792346128" lon="14.530328313697709"><ele>192.0</ele><time>2026-05-04T12:22:19Z</time></trkpt><trkpt lat="41.265958128776894" lon="14.530039590384188"><ele>192.0</ele><time>2026-05-04T12:22:20Z</time></trkpt><trkpt lat="41.26582742647283" lon="14.529770644213551"><ele>192.0</ele><time>2026-05-04T12:22:21Z</time></trkpt><trkpt lat="41.265687805557555" lon="14.529519238162592"><ele>192.0</ele><time>2026-05-04T12:22:22Z</time></trkpt><trkpt lat="41.26553716696519" lon="14.529241375422568"><ele>192.0</ele><time>2026-05-04T12:22:23Z</time></trkpt><trkpt lat="41.26541599859193" lon="14.528990617583258"><ele>192.0</ele><time>2026-05-04T12:22:24Z</time></trkpt><trkpt lat="41.26530280017795" lon="14.528780422196458"><ele>192.0</ele><time>2026-05-04T12:22:25Z</time></trkpt><trkpt lat="41.265200636542815" lon="14.528591944506504"><ele>192.0</ele><time>2026-05-04T12:22:26Z</time></trkpt><trkpt lat="41.26510516861508" lon="14.528415461988365"><ele>191.66666666666666</ele><time>2026-05-04T12:22:27Z</time></trkpt><trkpt lat="41.2650145358456" lon="14.528244165479101"><ele>191.33333333333331</ele><time>2026-05-04T12:22:28Z</time></trkpt><trkpt lat="41.26492315401264" lon="14.528072506713388"><ele>191.0</ele><time>2026-05-04T12:22:29Z</time></trkpt><trkpt lat="41.26482775175575" lon="14.527894171198271"><ele>190.33333333333331</ele><time>2026-05-04T12:22:30Z</time></trkpt><trkpt lat="41.2647112111962" lon="14.527738493540507"><ele>189.66666666666666</ele><time>2026-05-04T12:22:31Z</time></trkpt><trkpt lat="41.264614433595014" lon="14.527562434373175"><ele>189.0</ele><time>2026-05-04T12:22:32Z</time></trkpt><trkpt lat="41.26452065692785" lon="14.52738141922162"><ele>189.0</ele><time>2026-05-04T12:22:33Z</time></trkpt><trkpt lat="41.26441688681662" lon="14.527197352590937"><ele>189.0</ele><time>2026-05-04T12:22:34Z</time></trkpt><trkpt lat="41.26434182897686" lon="14.526986127004083"><ele>189.0</ele><time>2026-05-04T12:22:35Z</time></trkpt><trkpt lat="41.26423873524592" lon="14.52679339005507"><ele>188.66666666666666</ele><time>2026-05-04T12:22:36Z</time></trkpt><trkpt lat="41.264131451402726" lon="14.526593021720494"><ele>188.33333333333331</ele><time>2026-05-04T12:22:37Z</time></trkpt><trkpt lat="41.264026988699484" lon="14.526397677018062"><ele>188.0</ele><time>2026-05-04T12:22:38Z</time></trkpt><trkpt lat="41.26391931772432" lon="14.526196142238827"><ele>187.66666666666666</ele><time>2026-05-04T12:22:39Z</time></trkpt><trkpt lat="41.263816159034945" lon="14.526002688763848"><ele>187.33333333333334</ele><time>2026-05-04T12:22:40Z</time></trkpt><trkpt lat="41.263714851493376" lon="14.525808714304228"><ele>187.0</ele><time>2026-05-04T12:22:41Z</time></trkpt><trkpt lat="41.26361892469099" lon="14.525625042513473"><ele>187.0</ele><time>2026-05-04T12:22:42Z</time></trkpt><trkpt lat="41.26352078854312" lon="14.525441216010856"><ele>187.0</ele><time>2026-05-04T12:22:43Z</time></trkpt><trkpt lat="41.26342428416032" lon="14.525266014328599"><ele>187.0</ele><time>2026-05-04T12:22:44Z</time></trkpt><trkpt lat="41.263328485689826" lon="14.525095810931774"><ele>186.75</ele><time>2026-05-04T12:22:45Z</time></trkpt><trkpt lat="41.263242976298" lon="14.524932816131344"><ele>186.5</ele><time>2026-05-04T12:22:46Z</time></trkpt><trkpt lat="41.26315909414025" lon="14.524774671978612"><ele>186.25</ele><time>2026-05-04T12:22:47Z</time></trkpt><trkpt lat="41.26309345489786" lon="14.524651447564636"><ele>186.0</ele><time>2026-05-04T12:22:48Z</time></trkpt><trkpt lat="41.26304308253754" lon="14.524556883718837"><ele>186.33333333333334</ele><time>2026-05-04T12:22:49Z</time></trkpt><trkpt lat="41.26299892818587" lon="14.524473992979187"><ele>186.66666666666666</ele><time>2026-05-04T12:22:50Z</time></trkpt><trkpt lat="41.26295993302553" lon="14.524400787507583"><ele>187.0</ele><time>2026-05-04T12:22:51Z</time></trkpt><trkpt lat="41.26289555676142" lon="14.524280421402905"><ele>187.33333333333331</ele><time>2026-05-04T12:22:53Z</time></trkpt><trkpt lat="41.26284841771572" lon="14.524192984580084"><ele>187.66666666666666</ele><time>2026-05-04T12:22:54Z</time></trkpt><trkpt lat="41.26277312595441" lon="14.524084050078658"><ele>188.0</ele><time>2026-05-04T12:22:55Z</time></trkpt><trkpt lat="41.26271723312796" lon="14.523959232487297"><ele>188.0</ele><time>2026-05-04T12:22:56Z</time></trkpt><trkpt lat="41.26264840227158" lon="14.523828912534105"><ele>188.0</ele><time>2026-05-04T12:22:57Z</time></trkpt><trkpt lat="41.262576715501616" lon="14.523695387419885"><ele>188.0</ele><time>2026-05-04T12:22:58Z</time></trkpt><trkpt lat="41.26250169859318" lon="14.523558113548665"><ele>188.0</ele><time>2026-05-04T12:22:59Z</time></trkpt><trkpt lat="41.26241727413267" lon="14.523406107806537"><ele>188.0</ele><time>2026-05-04T12:23:00Z</time></trkpt><trkpt lat="41.26233597150485" lon="14.5232468929469"><ele>188.0</ele><time>2026-05-04T12:23:01Z</time></trkpt><trkpt lat="41.26224275899886" lon="14.523091790747507"><ele>188.0</ele><time>2026-05-04T12:23:02Z</time></trkpt><trkpt lat="41.26217194718349" lon="14.522933468555467"><ele>188.0</ele><time>2026-05-04T12:23:03Z</time></trkpt><trkpt lat="41.26208180534332" lon="14.522788253726567"><ele>187.75</ele><time>2026-05-04T12:23:04Z</time></trkpt><trkpt lat="41.26200292874578" lon="14.522625796537213"><ele>187.5</ele><time>2026-05-04T12:23:05Z</time></trkpt><trkpt lat="41.261931938138744" lon="14.522488338505974"><ele>187.25</ele><time>2026-05-04T12:23:06Z</time></trkpt><trkpt lat="41.261869365756176" lon="14.52236645586615"><ele>187.0</ele><time>2026-05-04T12:23:07Z</time></trkpt><trkpt lat="41.261816578387915" lon="14.52225448921605"><ele>187.0</ele><time>2026-05-04T12:23:08Z</time></trkpt><trkpt lat="41.26178550086505" lon="14.522143307487246"><ele>187.0</ele><time>2026-05-04T12:23:10Z</time></trkpt><trkpt lat="41.261927332094444" lon="14.52211771813496"><ele>187.0</ele><time>2026-05-04T12:23:12Z</time></trkpt><trkpt lat="41.2620475240074" lon="14.522061706077462"><ele>187.0</ele><time>2026-05-04T12:23:13Z</time></trkpt><trkpt lat="41.26218420918505" lon="14.521997009352216"><ele>186.5</ele><time>2026-05-04T12:23:14Z</time></trkpt><trkpt lat="41.26231114840318" lon="14.521915337190974"><ele>186.0</ele><time>2026-05-04T12:23:15Z</time></trkpt><trkpt lat="41.2624086545492" lon="14.521815956464538"><ele>185.5</ele><time>2026-05-04T12:23:16Z</time></trkpt><trkpt lat="41.262496679690344" lon="14.521720427183885"><ele>185.0</ele><time>2026-05-04T12:23:17Z</time></trkpt><trkpt lat="41.262576791241194" lon="14.521603435395857"><ele>185.0</ele><time>2026-05-04T12:23:18Z</time></trkpt><trkpt lat="41.26265766321183" lon="14.521414212618332"><ele>185.0</ele><time>2026-05-04T12:23:19Z</time></trkpt><trkpt lat="41.262730559742465" lon="14.521209454457136"><ele>185.0</ele><time>2026-05-04T12:23:20Z</time></trkpt><trkpt lat="41.26280369874204" lon="14.521007354974437"><ele>184.75</ele><time>2026-05-04T12:23:21Z</time></trkpt><trkpt lat="41.26287166685985" lon="14.520835974552389"><ele>184.5</ele><time>2026-05-04T12:23:22Z</time></trkpt><trkpt lat="41.2629376683774" lon="14.520689359348196"><ele>184.25</ele><time>2026-05-04T12:23:23Z</time></trkpt><trkpt lat="41.26301353868174" lon="14.520550806674622"><ele>184.0</ele><time>2026-05-04T12:23:24Z</time></trkpt><trkpt lat="41.263100204915006" lon="14.520421124808989"><ele>184.33333333333334</ele><time>2026-05-04T12:23:25Z</time></trkpt><trkpt lat="41.263201782169325" lon="14.52027663897719"><ele>184.66666666666666</ele><time>2026-05-04T12:23:26Z</time></trkpt><trkpt lat="41.26331125691073" lon="14.52012503274922"><ele>185.0</ele><time>2026-05-04T12:23:27Z</time></trkpt><trkpt lat="41.263419088050426" lon="14.519963708739512"><ele>185.0</ele><time>2026-05-04T12:23:28Z</time></trkpt><trkpt lat="41.26350185048192" lon="14.519778361085763"><ele>185.0</ele><time>2026-05-04T12:23:29Z</time></trkpt><trkpt lat="41.263591551660234" lon="14.519591081722211"><ele>185.0</ele><time>2026-05-04T12:23:30Z</time></trkpt><trkpt lat="41.26369750391511" lon="14.51940042398878"><ele>184.33333333333331</ele><time>2026-05-04T12:23:31Z</time></trkpt><trkpt lat="41.263782236898116" lon="14.519203681991288"><ele>183.66666666666666</ele><time>2026-05-04T12:23:32Z</time></trkpt><trkpt lat="41.26385427658981" lon="14.51900906638221"><ele>183.0</ele><time>2026-05-04T12:23:33Z</time></trkpt><trkpt lat="41.26391297401217" lon="14.518789729714635"><ele>182.66666666666666</ele><time>2026-05-04T12:23:34Z</time></trkpt><trkpt lat="41.26395235651308" lon="14.518551579429129"><ele>182.33333333333331</ele><time>2026-05-04T12:23:35Z</time></trkpt><trkpt lat="41.26398153137715" lon="14.518301231741397"><ele>182.0</ele><time>2026-05-04T12:23:36Z</time></trkpt><trkpt lat="41.263983403372514" lon="14.518044177627619"><ele>181.66666666666666</ele><time>2026-05-04T12:23:37Z</time></trkpt><trkpt lat="41.263998113973614" lon="14.517792963149745"><ele>181.33333333333334</ele><time>2026-05-04T12:23:38Z</time></trkpt><trkpt lat="41.264025836390054" lon="14.517557499264806"><ele>181.0</ele><time>2026-05-04T12:23:39Z</time></trkpt><trkpt lat="41.26403744470445" lon="14.517316340530076"><ele>181.0</ele><time>2026-05-04T12:23:40Z</time></trkpt><trkpt lat="41.26404420722058" lon="14.517090879111592"><ele>181.0</ele><time>2026-05-04T12:23:41Z</time></trkpt><trkpt lat="41.26403689787303" lon="14.516888890241466"><ele>181.0</ele><time>2026-05-04T12:23:42Z</time></trkpt><trkpt lat="41.26403844576683" lon="14.516693553894418"><ele>181.0</ele><time>2026-05-04T12:23:43Z</time></trkpt><trkpt lat="41.26406049208363" lon="14.516508527557008"><ele>181.0</ele><time>2026-05-04T12:23:44Z</time></trkpt><trkpt lat="41.264093396120394" lon="14.516298283466282"><ele>181.0</ele><time>2026-05-04T12:23:45Z</time></trkpt><trkpt lat="41.26413870087378" lon="14.516081683351393"><ele>181.0</ele><time>2026-05-04T12:23:46Z</time></trkpt><trkpt lat="41.264195442320585" lon="14.515916414285737"><ele>181.0</ele><time>2026-05-04T12:23:47Z</time></trkpt><trkpt lat="41.26425789330665" lon="14.515780791679532"><ele>181.0</ele><time>2026-05-04T12:23:48Z</time></trkpt><trkpt lat="41.26435610905434" lon="14.515646544025664"><ele>181.0</ele><time>2026-05-04T12:23:49Z</time></trkpt><trkpt lat="41.26441024350058" lon="14.515511564172726"><ele>181.25</ele><time>2026-05-04T12:23:50Z</time></trkpt><trkpt lat="41.2644454024715" lon="14.515355060917937"><ele>181.5</ele><time>2026-05-04T12:23:51Z</time></trkpt><trkpt lat="41.26444132400882" lon="14.515171836753122"><ele>181.75</ele><time>2026-05-04T12:23:52Z</time></trkpt><trkpt lat="41.264425740254225" lon="14.515016058499825"><ele>182.0</ele><time>2026-05-04T12:23:53Z</time></trkpt><trkpt lat="41.264362560257666" lon="14.51485862999025"><ele>182.0</ele><time>2026-05-04T12:23:54Z</time></trkpt><trkpt lat="41.2642646558694" lon="14.514695311864811"><ele>182.0</ele><time>2026-05-04T12:23:55Z</time></trkpt><trkpt lat="41.26416372235268" lon="14.51447481946273"><ele>182.0</ele><time>2026-05-04T12:23:56Z</time></trkpt><trkpt lat="41.26404814148997" lon="14.514261704218962"><ele>182.33333333333331</ele><time>2026-05-04T12:23:57Z</time></trkpt><trkpt lat="41.263933954283864" lon="14.514052063398127"><ele>182.66666666666666</ele><time>2026-05-04T12:23:58Z</time></trkpt><trkpt lat="41.26381831122285" lon="14.513840932377082"><ele>183.0</ele><time>2026-05-04T12:23:59Z</time></trkpt><trkpt lat="41.26369892619325" lon="14.513622969566336"><ele>183.0</ele><time>2026-05-04T12:24:00Z</time></trkpt><trkpt lat="41.26357010986513" lon="14.513387787958964"><ele>183.0</ele><time>2026-05-04T12:24:01Z</time></trkpt><trkpt lat="41.26342080939684" lon="14.513148310215756"><ele>182.66666666666666</ele><time>2026-05-04T12:24:02Z</time></trkpt><trkpt lat="41.263304446281346" lon="14.512890967976492"><ele>182.33333333333331</ele><time>2026-05-04T12:24:03Z</time></trkpt><trkpt lat="41.26319769234145" lon="14.512681608104828"><ele>182.0</ele><time>2026-05-04T12:24:04Z</time></trkpt><trkpt lat="41.263095999626884" lon="14.51249244859127"><ele>182.75</ele><time>2026-05-04T12:24:05Z</time></trkpt><trkpt lat="41.26300684590408" lon="14.512332966355144"><ele>183.5</ele><time>2026-05-04T12:24:06Z</time></trkpt><trkpt lat="41.262927743778285" lon="14.512194326026025"><ele>184.25</ele><time>2026-05-04T12:24:07Z</time></trkpt><trkpt lat="41.262857663355916" lon="14.512074326706081"><ele>185.0</ele><time>2026-05-04T12:24:08Z</time></trkpt><trkpt lat="41.26278800592791" lon="14.511988295539933"><ele>185.0</ele><time>2026-05-04T12:24:09Z</time></trkpt><trkpt lat="41.2627403510312" lon="14.511879297262153"><ele>185.0</ele><time>2026-05-04T12:24:11Z</time></trkpt><trkpt lat="41.262602263876964" lon="14.511907000305552"><ele>185.0</ele><time>2026-05-04T12:24:17Z</time></trkpt><trkpt lat="41.26252817505319" lon="14.511988374043538"><ele>185.0</ele><time>2026-05-04T12:24:18Z</time></trkpt><trkpt lat="41.26244891761332" lon="14.512083758919314"><ele>185.0</ele><time>2026-05-04T12:24:19Z</time></trkpt><trkpt lat="41.262357869022" lon="14.512188688186276"><ele>186.0</ele><time>2026-05-04T12:24:20Z</time></trkpt><trkpt lat="41.2622579862086" lon="14.512309901639851"><ele>187.0</ele><time>2026-05-04T12:24:21Z</time></trkpt><trkpt lat="41.262142836314204" lon="14.51243020116268"><ele>188.0</ele><time>2026-05-04T12:24:22Z</time></trkpt><trkpt lat="41.2620229560946" lon="14.512546652154295"><ele>189.0</ele><time>2026-05-04T12:24:23Z</time></trkpt><trkpt lat="41.2618914735154" lon="14.512664081592646"><ele>189.0</ele><time>2026-05-04T12:24:24Z</time></trkpt><trkpt lat="41.261749145471036" lon="14.512785035200768"><ele>189.0</ele><time>2026-05-04T12:24:25Z</time></trkpt><trkpt lat="41.26161478218904" lon="14.512878937870582"><ele>189.0</ele><time>2026-05-04T12:24:26Z</time></trkpt><trkpt lat="41.26146494131902" lon="14.51293548331977"><ele>189.0</ele><time>2026-05-04T12:24:27Z</time></trkpt><trkpt lat="41.26130796758426" lon="14.512961841817194"><ele>189.0</ele><time>2026-05-04T12:24:28Z</time></trkpt><trkpt lat="41.26113348354678" lon="14.51297515237077"><ele>189.0</ele><time>2026-05-04T12:24:29Z</time></trkpt><trkpt lat="41.26095364415704" lon="14.512993033373462"><ele>189.0</ele><time>2026-05-04T12:24:30Z</time></trkpt><trkpt lat="41.260771637986224" lon="14.513020336954524"><ele>189.0</ele><time>2026-05-04T12:24:31Z</time></trkpt><trkpt lat="41.26058908492422" lon="14.513045710148901"><ele>189.0</ele><time>2026-05-04T12:24:32Z</time></trkpt><trkpt lat="41.26039336141103" lon="14.51307422717627"><ele>191.0</ele><time>2026-05-04T12:24:33Z</time></trkpt><trkpt lat="41.260204248241344" lon="14.513102842799437"><ele>193.0</ele><time>2026-05-04T12:24:34Z</time></trkpt><trkpt lat="41.26001485336468" lon="14.513145197586699"><ele>195.0</ele><time>2026-05-04T12:24:35Z</time></trkpt><trkpt lat="41.25983204235435" lon="14.513229432693414"><ele>200.33333333333331</ele><time>2026-05-04T12:24:36Z</time></trkpt><trkpt lat="41.259662671384575" lon="14.513364599791954"><ele>205.66666666666666</ele><time>2026-05-04T12:24:37Z</time></trkpt><trkpt lat="41.25952075651515" lon="14.513498375588854"><ele>211.0</ele><time>2026-05-04T12:24:38Z</time></trkpt><trkpt lat="41.25937137668618" lon="14.513629269293677"><ele>205.66666666666666</ele><time>2026-05-04T12:24:39Z</time></trkpt><trkpt lat="41.25922661924254" lon="14.51375071693238"><ele>200.33333333333331</ele><time>2026-05-04T12:24:40Z</time></trkpt><trkpt lat="41.25910227629333" lon="14.513854998886632"><ele>195.0</ele><time>2026-05-04T12:24:41Z</time></trkpt><trkpt lat="41.258968311894904" lon="14.51396069002922"><ele>197.0</ele><time>2026-05-04T12:24:42Z</time></trkpt><trkpt lat="41.258834119287144" lon="14.514050926470933"><ele>199.0</ele><time>2026-05-04T12:24:43Z</time></trkpt><trkpt lat="41.25868260120239" lon="14.514142215119918"><ele>201.0</ele><time>2026-05-04T12:24:44Z</time></trkpt><trkpt lat="41.258569637780056" lon="14.514208777494405"><ele>203.0</ele><time>2026-05-04T12:24:45Z</time></trkpt><trkpt lat="41.258447646616005" lon="14.51429976136658"><ele>203.0</ele><time>2026-05-04T12:24:46Z</time></trkpt><trkpt lat="41.2583210039526" lon="14.514406090602227"><ele>203.0</ele><time>2026-05-04T12:24:47Z</time></trkpt><trkpt lat="41.25818876498233" lon="14.514535017453644"><ele>203.0</ele><time>2026-05-04T12:24:48Z</time></trkpt><trkpt lat="41.25803098729492" lon="14.514689348103696"><ele>202.66666666666669</ele><time>2026-05-04T12:24:49Z</time></trkpt><trkpt lat="41.257873875676395" lon="14.514850899459537"><ele>202.33333333333331</ele><time>2026-05-04T12:24:50Z</time></trkpt><trkpt lat="41.25768792683854" lon="14.515008310098052"><ele>202.0</ele><time>2026-05-04T12:24:51Z</time></trkpt><trkpt lat="41.257500244168185" lon="14.515176868345042"><ele>202.0</ele><time>2026-05-04T12:24:52Z</time></trkpt><trkpt lat="41.25733681349464" lon="14.515334380789112"><ele>202.0</ele><time>2026-05-04T12:24:53Z</time></trkpt><trkpt lat="41.25718394599632" lon="14.515481064335672"><ele>202.0</ele><time>2026-05-04T12:24:54Z</time></trkpt><trkpt lat="41.25702819756779" lon="14.515618361511503"><ele>202.0</ele><time>2026-05-04T12:24:55Z</time></trkpt><trkpt lat="41.25689123273219" lon="14.515740310995874"><ele>202.0</ele><time>2026-05-04T12:24:56Z</time></trkpt><trkpt lat="41.256779131779396" lon="14.51584105685979"><ele>202.0</ele><time>2026-05-04T12:24:57Z</time></trkpt><trkpt lat="41.25669154459934" lon="14.515913540700877"><ele>202.0</ele><time>2026-05-04T12:24:58Z</time></trkpt><trkpt lat="41.2566255710838" lon="14.515960613203893"><ele>202.0</ele><time>2026-05-04T12:24:59Z</time></trkpt><trkpt lat="41.25649557159114" lon="14.515927772198326"><ele>202.0</ele><time>2026-05-04T12:25:02Z</time></trkpt><trkpt lat="41.2563803865894" lon="14.515860361754658"><ele>202.0</ele><time>2026-05-04T12:25:03Z</time></trkpt><trkpt lat="41.256262182486886" lon="14.515782688786823"><ele>202.0</ele><time>2026-05-04T12:25:04Z</time></trkpt><trkpt lat="41.25611217379857" lon="14.515736357316449"><ele>204.0</ele><time>2026-05-04T12:25:05Z</time></trkpt><trkpt lat="41.255958490578564" lon="14.51573093343726"><ele>206.0</ele><time>2026-05-04T12:25:06Z</time></trkpt><trkpt lat="41.2557895499916" lon="14.51580304923827"><ele>208.0</ele><time>2026-05-04T12:25:07Z</time></trkpt><trkpt lat="41.25561715726362" lon="14.515910104227268"><ele>210.5</ele><time>2026-05-04T12:25:08Z</time></trkpt><trkpt lat="41.255452463989734" lon="14.515964114489881"><ele>213.0</ele><time>2026-05-04T12:25:09Z</time></trkpt><trkpt lat="41.25534239954613" lon="14.515987087832052"><ele>215.5</ele><time>2026-05-04T12:25:10Z</time></trkpt><trkpt lat="41.255207704656044" lon="14.515967331028317"><ele>218.0</ele><time>2026-05-04T12:25:11Z</time></trkpt><trkpt lat="41.255065208558776" lon="14.515956736646057"><ele>218.0</ele><time>2026-05-04T12:25:12Z</time></trkpt><trkpt lat="41.25491826529073" lon="14.515920102105332"><ele>218.0</ele><time>2026-05-04T12:25:13Z</time></trkpt><trkpt lat="41.254784742351205" lon="14.515843561561432"><ele>218.0</ele><time>2026-05-04T12:25:14Z</time></trkpt><trkpt lat="41.25463221857809" lon="14.515733471551412"><ele>219.0</ele><time>2026-05-04T12:25:15Z</time></trkpt><trkpt lat="41.25445483133344" lon="14.515602117068234"><ele>220.0</ele><time>2026-05-04T12:25:16Z</time></trkpt><trkpt lat="41.254261212310645" lon="14.515463266822653"><ele>221.0</ele><time>2026-05-04T12:25:17Z</time></trkpt><trkpt lat="41.254070135949334" lon="14.51532623995577"><ele>228.0</ele><time>2026-05-04T12:25:18Z</time></trkpt><trkpt lat="41.25387227121014" lon="14.515183224195919"><ele>235.0</ele><time>2026-05-04T12:25:19Z</time></trkpt><trkpt lat="41.25366065101205" lon="14.515031764887988"><ele>235.0</ele><time>2026-05-04T12:25:20Z</time></trkpt><trkpt lat="41.25345117922397" lon="14.51489732922294"><ele>235.0</ele><time>2026-05-04T12:25:21Z</time></trkpt><trkpt lat="41.25324920404601" lon="14.514763622158382"><ele>236.0</ele><time>2026-05-04T12:25:22Z</time></trkpt><trkpt lat="41.25303135928659" lon="14.514642255956375"><ele>237.0</ele><time>2026-05-04T12:25:23Z</time></trkpt><trkpt lat="41.25283403734758" lon="14.514567091407013"><ele>238.0</ele><time>2026-05-04T12:25:24Z</time></trkpt><trkpt lat="41.25264447001897" lon="14.5145190015236"><ele>238.0</ele><time>2026-05-04T12:25:25Z</time></trkpt><trkpt lat="41.2524798360063" lon="14.514470009494127"><ele>238.0</ele><time>2026-05-04T12:25:26Z</time></trkpt><trkpt lat="41.25235153354662" lon="14.514365253533478"><ele>238.0</ele><time>2026-05-04T12:25:27Z</time></trkpt><trkpt lat="41.252246554254654" lon="14.514240235092583"><ele>238.0</ele><time>2026-05-04T12:25:28Z</time></trkpt><trkpt lat="41.252120755149264" lon="14.514098861430508"><ele>238.0</ele><time>2026-05-04T12:25:29Z</time></trkpt><trkpt lat="41.251982074254535" lon="14.513945020089922"><ele>238.0</ele><time>2026-05-04T12:25:30Z</time></trkpt><trkpt lat="41.251832742796054" lon="14.513777231204536"><ele>237.33333333333331</ele><time>2026-05-04T12:25:31Z</time></trkpt><trkpt lat="41.25166599966539" lon="14.513611786751648"><ele>236.66666666666669</ele><time>2026-05-04T12:25:32Z</time></trkpt><trkpt lat="41.25152062959135" lon="14.513442094542803"><ele>236.0</ele><time>2026-05-04T12:25:33Z</time></trkpt><trkpt lat="41.25136247071205" lon="14.513284318599863"><ele>234.33333333333334</ele><time>2026-05-04T12:25:34Z</time></trkpt><trkpt lat="41.25117812630494" lon="14.51315249603215"><ele>232.66666666666669</ele><time>2026-05-04T12:25:35Z</time></trkpt><trkpt lat="41.250953484326665" lon="14.513050970639197"><ele>231.0</ele><time>2026-05-04T12:25:36Z</time></trkpt><trkpt lat="41.25077039866487" lon="14.512953760899215"><ele>226.66666666666669</ele><time>2026-05-04T12:25:37Z</time></trkpt><trkpt lat="41.25059375868017" lon="14.512854757494427"><ele>222.33333333333334</ele><time>2026-05-04T12:25:38Z</time></trkpt><trkpt lat="41.250423598301616" lon="14.512754860987421"><ele>218.0</ele><time>2026-05-04T12:25:39Z</time></trkpt><trkpt lat="41.25026815946858" lon="14.512663356089167"><ele>218.0</ele><time>2026-05-04T12:25:40Z</time></trkpt><trkpt lat="41.25011208340834" lon="14.512577804273398"><ele>218.0</ele><time>2026-05-04T12:25:41Z</time></trkpt><trkpt lat="41.2499702215116" lon="14.512496839560225"><ele>218.0</ele><time>2026-05-04T12:25:42Z</time></trkpt><trkpt lat="41.249830655459675" lon="14.512468703214894"><ele>216.33333333333334</ele><time>2026-05-04T12:25:43Z</time></trkpt><trkpt lat="41.249673078294734" lon="14.512496612201035"><ele>214.66666666666669</ele><time>2026-05-04T12:25:44Z</time></trkpt><trkpt lat="41.24950656477261" lon="14.512542340727297"><ele>213.0</ele><time>2026-05-04T12:25:45Z</time></trkpt><trkpt lat="41.249342707069104" lon="14.512485794463824"><ele>213.0</ele><time>2026-05-04T12:25:46Z</time></trkpt><trkpt lat="41.24917039353499" lon="14.51238347363918"><ele>213.0</ele><time>2026-05-04T12:25:47Z</time></trkpt><trkpt lat="41.24897249368186" lon="14.51226016675273"><ele>213.0</ele><time>2026-05-04T12:25:48Z</time></trkpt><trkpt lat="41.24877571973583" lon="14.512158302339635"><ele>207.66666666666669</ele><time>2026-05-04T12:25:49Z</time></trkpt><trkpt lat="41.24860961461177" lon="14.512043848558532"><ele>202.33333333333334</ele><time>2026-05-04T12:25:50Z</time></trkpt><trkpt lat="41.24844917728786" lon="14.511939472138533"><ele>197.0</ele><time>2026-05-04T12:25:51Z</time></trkpt><trkpt lat="41.248287477098586" lon="14.511880010832092"><ele>197.0</ele><time>2026-05-04T12:25:52Z</time></trkpt><trkpt lat="41.24812144747028" lon="14.511875754064963"><ele>197.0</ele><time>2026-05-04T12:25:53Z</time></trkpt><trkpt lat="41.247976754947445" lon="14.511961056356647"><ele>197.0</ele><time>2026-05-04T12:25:54Z</time></trkpt><trkpt lat="41.24783957176559" lon="14.51209051599909"><ele>197.0</ele><time>2026-05-04T12:25:55Z</time></trkpt><trkpt lat="41.24768669128887" lon="14.51223451839514"><ele>197.0</ele><time>2026-05-04T12:25:56Z</time></trkpt><trkpt lat="41.247580073798076" lon="14.512403717559346"><ele>197.0</ele><time>2026-05-04T12:25:57Z</time></trkpt><trkpt lat="41.24747323008013" lon="14.512509926376943"><ele>197.0</ele><time>2026-05-04T12:25:58Z</time></trkpt><trkpt lat="41.24739329824088" lon="14.512560078291227"><ele>197.0</ele><time>2026-05-04T12:25:59Z</time></trkpt><trkpt lat="41.24730618154537" lon="14.512570130213675"><ele>197.0</ele><time>2026-05-04T12:26:00Z</time></trkpt><trkpt lat="41.24723397560888" lon="14.51249083151535"><ele>197.0</ele><time>2026-05-04T12:26:01Z</time></trkpt><trkpt lat="41.24723819643826" lon="14.51234027385472"><ele>197.0</ele><time>2026-05-04T12:26:02Z</time></trkpt><trkpt lat="41.24730739836661" lon="14.51221929170016"><ele>197.0</ele><time>2026-05-04T12:26:03Z</time></trkpt><trkpt lat="41.2473699843063" lon="14.512082897888934"><ele>197.0</ele><time>2026-05-04T12:26:04Z</time></trkpt><trkpt lat="41.247485683777704" lon="14.511888237003195"><ele>197.0</ele><time>2026-05-04T12:26:05Z</time></trkpt><trkpt lat="41.2475656785121" lon="14.511743314469447"><ele>197.0</ele><time>2026-05-04T12:26:06Z</time></trkpt><trkpt lat="41.247624741335905" lon="14.511607151234875"><ele>195.0</ele><time>2026-05-04T12:26:07Z</time></trkpt><trkpt lat="41.247648105396316" lon="14.511493465940353"><ele>193.0</ele><time>2026-05-04T12:26:08Z</time></trkpt><trkpt lat="41.2476524636209" lon="14.511399785407026"><ele>191.0</ele><time>2026-05-04T12:26:09Z</time></trkpt><trkpt lat="41.24751763325433" lon="14.511351766713279"><ele>189.0</ele><time>2026-05-04T12:26:10Z</time></trkpt><trkpt lat="41.24740849329192" lon="14.51137312803432"><ele>187.0</ele><time>2026-05-04T12:26:11Z</time></trkpt><trkpt lat="41.247286141043446" lon="14.511433256025857"><ele>182.66666666666669</ele><time>2026-05-04T12:26:12Z</time></trkpt><trkpt lat="41.24715240188869" lon="14.511510783201484"><ele>178.33333333333334</ele><time>2026-05-04T12:26:13Z</time></trkpt><trkpt lat="41.24700803688979" lon="14.511606613131839"><ele>174.0</ele><time>2026-05-04T12:26:14Z</time></trkpt><trkpt lat="41.24687702705773" lon="14.511765171144878"><ele>174.0</ele><time>2026-05-04T12:26:15Z</time></trkpt><trkpt lat="41.246768188235535" lon="14.511925880828864"><ele>174.0</ele><time>2026-05-04T12:26:16Z</time></trkpt><trkpt lat="41.24665437898292" lon="14.512036560742528"><ele>174.0</ele><time>2026-05-04T12:26:17Z</time></trkpt><trkpt lat="41.24651791849709" lon="14.512084271131014"><ele>174.0</ele><time>2026-05-04T12:26:18Z</time></trkpt><trkpt lat="41.24635547218992" lon="14.512053800936116"><ele>171.66666666666666</ele><time>2026-05-04T12:26:19Z</time></trkpt><trkpt lat="41.24616886626443" lon="14.512005185068046"><ele>169.33333333333331</ele><time>2026-05-04T12:26:20Z</time></trkpt><trkpt lat="41.24599363460647" lon="14.51199243088694"><ele>167.0</ele><time>2026-05-04T12:26:21Z</time></trkpt><trkpt lat="41.24583332525741" lon="14.511997224364587"><ele>167.0</ele><time>2026-05-04T12:26:22Z</time></trkpt><trkpt lat="41.24567999203191" lon="14.51204554637488"><ele>167.0</ele><time>2026-05-04T12:26:23Z</time></trkpt><trkpt lat="41.2455200448669" lon="14.512108687371644"><ele>167.0</ele><time>2026-05-04T12:26:24Z</time></trkpt><trkpt lat="41.245366916409516" lon="14.512163951649232"><ele>166.0</ele><time>2026-05-04T12:26:25Z</time></trkpt><trkpt lat="41.24522282728373" lon="14.512200036470954"><ele>165.0</ele><time>2026-05-04T12:26:26Z</time></trkpt><trkpt lat="41.24508662345963" lon="14.512211681943208"><ele>164.0</ele><time>2026-05-04T12:26:27Z</time></trkpt><trkpt lat="41.244983671292914" lon="14.512140761387249"><ele>163.0</ele><time>2026-05-04T12:26:28Z</time></trkpt><trkpt lat="41.24492298080563" lon="14.512046206198788"><ele>162.5</ele><time>2026-05-04T12:26:29Z</time></trkpt><trkpt lat="41.24490096515587" lon="14.511942070409688"><ele>162.0</ele><time>2026-05-04T12:26:30Z</time></trkpt><trkpt lat="41.24494247098629" lon="14.511794176089433"><ele>161.5</ele><time>2026-05-04T12:26:32Z</time></trkpt><trkpt lat="41.24499202658316" lon="14.511733103819648"><ele>161.0</ele><time>2026-05-04T12:26:33Z</time></trkpt><trkpt lat="41.24504368261592" lon="14.511631040047206"><ele>160.5</ele><time>2026-05-04T12:26:35Z</time></trkpt><trkpt lat="41.244995578244946" lon="14.51172961355738"><ele>160.0</ele><time>2026-05-04T12:26:38Z</time></trkpt><trkpt lat="41.24490454673897" lon="14.511772053562522"><ele>160.0</ele><time>2026-05-04T12:26:39Z</time></trkpt><trkpt lat="41.24486515483701" lon="14.511934115295768"><ele>160.0</ele><time>2026-05-04T12:26:40Z</time></trkpt><trkpt lat="41.24485135345447" lon="14.512041384262348"><ele>160.0</ele><time>2026-05-04T12:26:41Z</time></trkpt><trkpt lat="41.24481847273176" lon="14.512115204971185"><ele>160.0</ele><time>2026-05-04T12:26:42Z</time></trkpt><trkpt lat="41.244745282467534" lon="14.512167095682239"><ele>160.0</ele><time>2026-05-04T12:26:43Z</time></trkpt><trkpt lat="41.24466645433823" lon="14.512156000444216"><ele>160.0</ele><time>2026-05-04T12:26:44Z</time></trkpt><trkpt lat="41.244607973069805" lon="14.512059708182704"><ele>159.75</ele><time>2026-05-04T12:26:45Z</time></trkpt><trkpt lat="41.244496892454926" lon="14.511943935486427"><ele>159.5</ele><time>2026-05-04T12:26:46Z</time></trkpt><trkpt lat="41.244371333123915" lon="14.511846689044518"><ele>159.25</ele><time>2026-05-04T12:26:47Z</time></trkpt><trkpt lat="41.244234989743575" lon="14.511768378310661"><ele>159.0</ele><time>2026-05-04T12:26:48Z</time></trkpt><trkpt lat="41.244114471757214" lon="14.511653957353968"><ele>159.0</ele><time>2026-05-04T12:26:49Z</time></trkpt><trkpt lat="41.24398373882597" lon="14.51154496063323"><ele>159.0</ele><time>2026-05-04T12:26:50Z</time></trkpt><trkpt lat="41.243855199545244" lon="14.51142483557254"><ele>159.0</ele><time>2026-05-04T12:26:51Z</time></trkpt><trkpt lat="41.2437245395503" lon="14.511302507363265"><ele>159.66666666666666</ele><time>2026-05-04T12:26:52Z</time></trkpt><trkpt lat="41.24358749536735" lon="14.511182683748"><ele>160.33333333333331</ele><time>2026-05-04T12:26:53Z</time></trkpt><trkpt lat="41.24344222004885" lon="14.511073587191545"><ele>161.0</ele><time>2026-05-04T12:26:54Z</time></trkpt><trkpt lat="41.24332372575011" lon="14.510961375958608"><ele>161.0</ele><time>2026-05-04T12:26:55Z</time></trkpt><trkpt lat="41.24319877256737" lon="14.510850343468089"><ele>161.0</ele><time>2026-05-04T12:26:56Z</time></trkpt><trkpt lat="41.24306544016889" lon="14.510740278649626"><ele>161.0</ele><time>2026-05-04T12:26:57Z</time></trkpt><trkpt lat="41.242934561253726" lon="14.510660826721205"><ele>161.25</ele><time>2026-05-04T12:26:58Z</time></trkpt><trkpt lat="41.24279982432628" lon="14.510618400853419"><ele>161.5</ele><time>2026-05-04T12:26:59Z</time></trkpt><trkpt lat="41.24267013329552" lon="14.510584092054486"><ele>161.75</ele><time>2026-05-04T12:27:00.001Z</time></trkpt><trkpt lat="41.242531853802745" lon="14.510552641782057"><ele>162.0</ele><time>2026-05-04T12:27:01.001Z</time></trkpt><trkpt lat="41.24239028810017" lon="14.510504465043587"><ele>158.75</ele><time>2026-05-04T12:27:02.001Z</time></trkpt><trkpt lat="41.24225671740636" lon="14.510494081517862"><ele>155.5</ele><time>2026-05-04T12:27:03.001Z</time></trkpt><trkpt lat="41.24211727261666" lon="14.510450914572917"><ele>152.25</ele><time>2026-05-04T12:27:04.001Z</time></trkpt><trkpt lat="41.241977818800265" lon="14.510423588688003"><ele>149.0</ele><time>2026-05-04T12:27:05.001Z</time></trkpt><trkpt lat="41.241850625472445" lon="14.510374432057612"><ele>149.0</ele><time>2026-05-04T12:27:06.001Z</time></trkpt><trkpt lat="41.24171591906222" lon="14.510306096361605"><ele>149.0</ele><time>2026-05-04T12:27:07.001Z</time></trkpt><trkpt lat="41.2415907406526" lon="14.510304592720468"><ele>149.0</ele><time>2026-05-04T12:27:08.001Z</time></trkpt><trkpt lat="41.24146107011246" lon="14.510319525477689"><ele>149.0</ele><time>2026-05-04T12:27:09.001Z</time></trkpt><trkpt lat="41.24133272732089" lon="14.510375219478744"><ele>146.33333333333331</ele><time>2026-05-04T12:27:10.001Z</time></trkpt><trkpt lat="41.24119196341177" lon="14.510454719834097"><ele>143.66666666666666</ele><time>2026-05-04T12:27:11.001Z</time></trkpt><trkpt lat="41.24104463277596" lon="14.510564216089612"><ele>141.0</ele><time>2026-05-04T12:27:12.001Z</time></trkpt><trkpt lat="41.24089867830321" lon="14.510709880572131"><ele>141.0</ele><time>2026-05-04T12:27:13.001Z</time></trkpt><trkpt lat="41.24072080896008" lon="14.510801141465313"><ele>141.0</ele><time>2026-05-04T12:27:14.001Z</time></trkpt><trkpt lat="41.240552649000435" lon="14.51092313019214"><ele>141.0</ele><time>2026-05-04T12:27:15Z</time></trkpt><trkpt lat="41.240397603694156" lon="14.510986699034385"><ele>142.2</ele><time>2026-05-04T12:27:16Z</time></trkpt><trkpt lat="41.24027781117169" lon="14.511034170781079"><ele>143.39999999999998</ele><time>2026-05-04T12:27:17Z</time></trkpt><trkpt lat="41.24017843767722" lon="14.511046707639517"><ele>144.6</ele><time>2026-05-04T12:27:18Z</time></trkpt><trkpt lat="41.24008792334027" lon="14.511012333282434"><ele>145.79999999999998</ele><time>2026-05-04T12:27:19Z</time></trkpt><trkpt lat="41.2399795634558" lon="14.510959435957641"><ele>147.0</ele><time>2026-05-04T12:27:20Z</time></trkpt><trkpt lat="41.239872147589175" lon="14.510919213028716"><ele>144.0</ele><time>2026-05-04T12:27:21Z</time></trkpt><trkpt lat="41.23974801975307" lon="14.510907788525046"><ele>141.0</ele><time>2026-05-04T12:27:22Z</time></trkpt><trkpt lat="41.239609873707636" lon="14.510891715122726"><ele>138.0</ele><time>2026-05-04T12:27:23Z</time></trkpt><trkpt lat="41.23946971526615" lon="14.510848187336459"><ele>135.0</ele><time>2026-05-04T12:27:24Z</time></trkpt><trkpt lat="41.23932676354074" lon="14.510813976101227"><ele>135.0</ele><time>2026-05-04T12:27:25Z</time></trkpt><trkpt lat="41.23917343285246" lon="14.51075934419955"><ele>135.0</ele><time>2026-05-04T12:27:26Z</time></trkpt><trkpt lat="41.239021914010834" lon="14.510701802826734"><ele>135.0</ele><time>2026-05-04T12:27:27Z</time></trkpt><trkpt lat="41.23888313743088" lon="14.510647391501136"><ele>134.5</ele><time>2026-05-04T12:27:28Z</time></trkpt><trkpt lat="41.23875104711847" lon="14.510578008128144"><ele>134.0</ele><time>2026-05-04T12:27:29Z</time></trkpt><trkpt lat="41.23862714329311" lon="14.510496833918042"><ele>133.5</ele><time>2026-05-04T12:27:30Z</time></trkpt><trkpt lat="41.238499422857494" lon="14.510409322816713"><ele>133.0</ele><time>2026-05-04T12:27:31Z</time></trkpt><trkpt lat="41.23838326625094" lon="14.510369263945947"><ele>133.0</ele><time>2026-05-04T12:27:32Z</time></trkpt><trkpt lat="41.23827160896534" lon="14.510340895857823"><ele>133.0</ele><time>2026-05-04T12:27:33Z</time></trkpt><trkpt lat="41.23815387140402" lon="14.51034640255329"><ele>133.0</ele><time>2026-05-04T12:27:34Z</time></trkpt><trkpt lat="41.238041586073045" lon="14.510322794738633"><ele>133.0</ele><time>2026-05-04T12:27:35Z</time></trkpt><trkpt lat="41.237935520267264" lon="14.510288747333695"><ele>128.5</ele><time>2026-05-04T12:27:36Z</time></trkpt><trkpt lat="41.23782913988186" lon="14.510202318481028"><ele>124.0</ele><time>2026-05-04T12:27:37Z</time></trkpt><trkpt lat="41.23770688098672" lon="14.510097564008396"><ele>119.5</ele><time>2026-05-04T12:27:38Z</time></trkpt><trkpt lat="41.237588307231086" lon="14.50997030901223"><ele>115.0</ele><time>2026-05-04T12:27:39Z</time></trkpt><trkpt lat="41.23746284171007" lon="14.509872642687824"><ele>115.0</ele><time>2026-05-04T12:27:40Z</time></trkpt><trkpt lat="41.23735987836458" lon="14.509776395811974"><ele>115.0</ele><time>2026-05-04T12:27:41Z</time></trkpt><trkpt lat="41.237237851677726" lon="14.509728135952413"><ele>115.0</ele><time>2026-05-04T12:27:42Z</time></trkpt><trkpt lat="41.23711451529041" lon="14.509718874789842"><ele>115.0</ele><time>2026-05-04T12:27:43Z</time></trkpt><trkpt lat="41.23700786533325" lon="14.509726187970491"><ele>114.6</ele><time>2026-05-04T12:27:44Z</time></trkpt><trkpt lat="41.236944707605026" lon="14.509749298593508"><ele>114.2</ele><time>2026-05-04T12:27:45Z</time></trkpt><trkpt lat="41.23687041600427" lon="14.509740205822068"><ele>113.80000000000001</ele><time>2026-05-04T12:27:47Z</time></trkpt><trkpt lat="41.23682858569769" lon="14.509607684452954"><ele>113.4</ele><time>2026-05-04T12:27:48Z</time></trkpt><trkpt lat="41.236749518994884" lon="14.509502282138978"><ele>113.0</ele><time>2026-05-04T12:27:49Z</time></trkpt><trkpt lat="41.23665302289383" lon="14.509408209330624"><ele>113.0</ele><time>2026-05-04T12:27:50Z</time></trkpt><trkpt lat="41.23653812610077" lon="14.509315128529696"><ele>113.0</ele><time>2026-05-04T12:27:51Z</time></trkpt><trkpt lat="41.23641161945245" lon="14.50919483216911"><ele>113.0</ele><time>2026-05-04T12:27:52Z</time></trkpt><trkpt lat="41.23625915195055" lon="14.509115736021567"><ele>111.25</ele><time>2026-05-04T12:27:53Z</time></trkpt><trkpt lat="41.236116156655385" lon="14.509035103887541"><ele>109.5</ele><time>2026-05-04T12:27:54Z</time></trkpt><trkpt lat="41.23598087565517" lon="14.509001714148086"><ele>107.75</ele><time>2026-05-04T12:27:55Z</time></trkpt><trkpt lat="41.2358609090181" lon="14.509005624711278"><ele>106.0</ele><time>2026-05-04T12:27:56Z</time></trkpt><trkpt lat="41.23574687078933" lon="14.509026906264756"><ele>104.0</ele><time>2026-05-04T12:27:57Z</time></trkpt><trkpt lat="41.23561642759048" lon="14.509042641857897"><ele>102.0</ele><time>2026-05-04T12:27:58Z</time></trkpt><trkpt lat="41.23551305273988" lon="14.509003627441944"><ele>100.0</ele><time>2026-05-04T12:27:59Z</time></trkpt><trkpt lat="41.2354411611799" lon="14.508949062211402"><ele>98.0</ele><time>2026-05-04T12:28:00Z</time></trkpt><trkpt lat="41.23537922492334" lon="14.508855476654249"><ele>96.0</ele><time>2026-05-04T12:28:01Z</time></trkpt><trkpt lat="41.23532320248874" lon="14.508746069855787"><ele>96.75</ele><time>2026-05-04T12:28:02Z</time></trkpt><trkpt lat="41.23525602330283" lon="14.508601389952416"><ele>97.5</ele><time>2026-05-04T12:28:03Z</time></trkpt><trkpt lat="41.23518912272182" lon="14.508441747109075"><ele>98.25</ele><time>2026-05-04T12:28:04Z</time></trkpt><trkpt lat="41.23513048175066" lon="14.508268965849743"><ele>99.0</ele><time>2026-05-04T12:28:05Z</time></trkpt><trkpt lat="41.23508362641498" lon="14.50808334679081"><ele>98.5</ele><time>2026-05-04T12:28:06Z</time></trkpt><trkpt lat="41.23503871284775" lon="14.507894658199092"><ele>98.0</ele><time>2026-05-04T12:28:07Z</time></trkpt><trkpt lat="41.23499169603956" lon="14.507709026631826"><ele>97.5</ele><time>2026-05-04T12:28:08Z</time></trkpt><trkpt lat="41.23494410544447" lon="14.50752956194154"><ele>97.0</ele><time>2026-05-04T12:28:09Z</time></trkpt><trkpt lat="41.23489274254582" lon="14.507350334177774"><ele>97.0</ele><time>2026-05-04T12:28:10Z</time></trkpt><trkpt lat="41.23483982152311" lon="14.507186735053336"><ele>97.0</ele><time>2026-05-04T12:28:11Z</time></trkpt><trkpt lat="41.23476464829941" lon="14.50704110305583"><ele>97.0</ele><time>2026-05-04T12:28:12Z</time></trkpt><trkpt lat="41.234714037488" lon="14.506893028376592"><ele>97.0</ele><time>2026-05-04T12:28:13Z</time></trkpt><trkpt lat="41.23466002029754" lon="14.506772853586105"><ele>94.39999999999999</ele><time>2026-05-04T12:28:14Z</time></trkpt><trkpt lat="41.23460570330746" lon="14.506657987297952"><ele>91.8</ele><time>2026-05-04T12:28:15Z</time></trkpt><trkpt lat="41.234551956620166" lon="14.506590729005506"><ele>89.2</ele><time>2026-05-04T12:28:16Z</time></trkpt><trkpt lat="41.23445303760113" lon="14.506748459889913"><ele>86.6</ele><time>2026-05-04T12:28:22Z</time></trkpt><trkpt lat="41.2344607018983" lon="14.506882011767924"><ele>84.0</ele><time>2026-05-04T12:28:23Z</time></trkpt><trkpt lat="41.23446531992324" lon="14.507031456541315"><ele>84.0</ele><time>2026-05-04T12:28:24Z</time></trkpt><trkpt lat="41.23446534982994" lon="14.50719871981026"><ele>84.0</ele><time>2026-05-04T12:28:25Z</time></trkpt><trkpt lat="41.23446497263861" lon="14.507382324375147"><ele>84.0</ele><time>2026-05-04T12:28:26Z</time></trkpt><trkpt lat="41.234468917620916" lon="14.507571620724795"><ele>84.0</ele><time>2026-05-04T12:28:27Z</time></trkpt><trkpt lat="41.23446849789068" lon="14.50777445732912"><ele>83.66666666666667</ele><time>2026-05-04T12:28:28Z</time></trkpt><trkpt lat="41.234466743087616" lon="14.507986211294789"><ele>83.33333333333334</ele><time>2026-05-04T12:28:29Z</time></trkpt><trkpt lat="41.23447497951886" lon="14.508214365739988"><ele>83.0</ele><time>2026-05-04T12:28:30Z</time></trkpt><trkpt lat="41.23449437017815" lon="14.508453930745523"><ele>83.0</ele><time>2026-05-04T12:28:31Z</time></trkpt><trkpt lat="41.2345612937485" lon="14.508685611210534"><ele>83.0</ele><time>2026-05-04T12:28:32Z</time></trkpt><trkpt lat="41.23461315005101" lon="14.508931245671292"><ele>83.0</ele><time>2026-05-04T12:28:33Z</time></trkpt><trkpt lat="41.2346979775914" lon="14.509169935456534"><ele>82.33333333333334</ele><time>2026-05-04T12:28:34Z</time></trkpt><trkpt lat="41.23478685261719" lon="14.509371782628389"><ele>81.66666666666667</ele><time>2026-05-04T12:28:35Z</time></trkpt><trkpt lat="41.234876717504434" lon="14.509550624032853"><ele>81.0</ele><time>2026-05-04T12:28:36Z</time></trkpt><trkpt lat="41.23494006007081" lon="14.50969826837853"><ele>81.0</ele><time>2026-05-04T12:28:37Z</time></trkpt><trkpt lat="41.23496443595455" lon="14.509821507810267"><ele>81.0</ele><time>2026-05-04T12:28:38Z</time></trkpt><trkpt lat="41.23494088554146" lon="14.509925923434253"><ele>81.0</ele><time>2026-05-04T12:28:39Z</time></trkpt><trkpt lat="41.23487807776676" lon="14.510007585044379"><ele>81.0</ele><time>2026-05-04T12:28:40Z</time></trkpt><trkpt lat="41.2347972335175" lon="14.510059022707862"><ele>81.0</ele><time>2026-05-04T12:28:41Z</time></trkpt><trkpt lat="41.23469683760536" lon="14.510125844602971"><ele>81.0</ele><time>2026-05-04T12:28:42Z</time></trkpt><trkpt lat="41.234591927794476" lon="14.510164810132371"><ele>81.0</ele><time>2026-05-04T12:28:43Z</time></trkpt><trkpt lat="41.23446242251045" lon="14.51020964499579"><ele>81.0</ele><time>2026-05-04T12:28:44Z</time></trkpt><trkpt lat="41.23434011850631" lon="14.510250099332758"><ele>81.0</ele><time>2026-05-04T12:28:45Z</time></trkpt><trkpt lat="41.23424079996324" lon="14.510279716559848"><ele>81.0</ele><time>2026-05-04T12:28:46Z</time></trkpt><trkpt lat="41.23416599625084" lon="14.510333032331255"><ele>81.0</ele><time>2026-05-04T12:28:47Z</time></trkpt><trkpt lat="41.23408679956612" lon="14.510436096481463"><ele>81.0</ele><time>2026-05-04T12:28:48Z</time></trkpt><trkpt lat="41.23400742405916" lon="14.510599906672418"><ele>81.0</ele><time>2026-05-04T12:28:49Z</time></trkpt><trkpt lat="41.23394263678878" lon="14.51080090135762"><ele>82.33333333333333</ele><time>2026-05-04T12:28:50Z</time></trkpt><trkpt lat="41.233874062529" lon="14.510937053143818"><ele>83.66666666666667</ele><time>2026-05-04T12:28:51Z</time></trkpt><trkpt lat="41.233809129873904" lon="14.510985497891424"><ele>85.0</ele><time>2026-05-04T12:28:52Z</time></trkpt><trkpt lat="41.23373481091451" lon="14.5109789519941"><ele>86.33333333333334</ele><time>2026-05-04T12:28:54Z</time></trkpt><trkpt lat="41.233646321167846" lon="14.511024361431174"><ele>87.66666666666667</ele><time>2026-05-04T12:28:56Z</time></trkpt><trkpt lat="41.23357044247559" lon="14.511048661210763"><ele>89.0</ele><time>2026-05-04T12:28:57Z</time></trkpt><trkpt lat="41.233473212805016" lon="14.511086682660283"><ele>89.0</ele><time>2026-05-04T12:28:58Z</time></trkpt><trkpt lat="41.23336472814408" lon="14.511125412333568"><ele>89.0</ele><time>2026-05-04T12:28:59Z</time></trkpt><trkpt lat="41.23324153140637" lon="14.511178810729637"><ele>89.0</ele><time>2026-05-04T12:29:00Z</time></trkpt><trkpt lat="41.233109133910645" lon="14.511257460973127"><ele>89.0</ele><time>2026-05-04T12:29:01Z</time></trkpt><trkpt lat="41.23299599816998" lon="14.51129495863448"><ele>88.80000000000001</ele><time>2026-05-04T12:29:02Z</time></trkpt><trkpt lat="41.23289046360821" lon="14.5113361013759"><ele>88.60000000000001</ele><time>2026-05-04T12:29:03Z</time></trkpt><trkpt lat="41.23279118391484" lon="14.511394059177528"><ele>88.4</ele><time>2026-05-04T12:29:04Z</time></trkpt><trkpt lat="41.232694959205666" lon="14.511420538707522"><ele>88.2</ele><time>2026-05-04T12:29:05Z</time></trkpt><trkpt lat="41.23266547487487" lon="14.511298852742499"><ele>88.0</ele><time>2026-05-04T12:29:06Z</time></trkpt><trkpt lat="41.232562420286584" lon="14.511225535395063"><ele>88.0</ele><time>2026-05-04T12:29:08Z</time></trkpt><trkpt lat="41.23250051555275" lon="14.511151310984891"><ele>88.0</ele><time>2026-05-04T12:29:09Z</time></trkpt><trkpt lat="41.23244492551286" lon="14.51110980052196"><ele>88.0</ele><time>2026-05-04T12:29:10Z</time></trkpt><trkpt lat="41.23232815666476" lon="14.511028931123585"><ele>88.0</ele><time>2026-05-04T12:29:12Z</time></trkpt><trkpt lat="41.232261402150165" lon="14.510954077870185"><ele>88.0</ele><time>2026-05-04T12:29:13Z</time></trkpt><trkpt lat="41.23221101716865" lon="14.51087327398465"><ele>88.0</ele><time>2026-05-04T12:29:14Z</time></trkpt><trkpt lat="41.23221225541888" lon="14.51074208471979"><ele>88.0</ele><time>2026-05-04T12:29:15Z</time></trkpt><trkpt lat="41.23224356825599" lon="14.510605792458637"><ele>88.0</ele><time>2026-05-04T12:29:16Z</time></trkpt><trkpt lat="41.232310731596314" lon="14.51049640143227"><ele>88.0</ele><time>2026-05-04T12:29:17Z</time></trkpt><trkpt lat="41.23240082065437" lon="14.510445126747934"><ele>88.0</ele><time>2026-05-04T12:29:18Z</time></trkpt><trkpt lat="41.23251004590497" lon="14.510446291663978"><ele>88.0</ele><time>2026-05-04T12:29:19Z</time></trkpt><trkpt lat="41.232613860933945" lon="14.510519044525424"><ele>88.0</ele><time>2026-05-04T12:29:20Z</time></trkpt><trkpt lat="41.232690518008795" lon="14.510623096622618"><ele>88.0</ele><time>2026-05-04T12:29:21Z</time></trkpt><trkpt lat="41.23275164979968" lon="14.51076504214829"><ele>88.0</ele><time>2026-05-04T12:29:22Z</time></trkpt><trkpt lat="41.23281979732984" lon="14.510929290469274"><ele>88.0</ele><time>2026-05-04T12:29:23Z</time></trkpt><trkpt lat="41.23282175541443" lon="14.511174473968453"><ele>90.33333333333333</ele><time>2026-05-04T12:29:24Z</time></trkpt><trkpt lat="41.23288754770794" lon="14.511396646465753"><ele>92.66666666666667</ele><time>2026-05-04T12:29:25Z</time></trkpt><trkpt lat="41.232967077052166" lon="14.511641105436782"><ele>95.0</ele><time>2026-05-04T12:29:26Z</time></trkpt><trkpt lat="41.23305742016777" lon="14.511893277183669"><ele>96.5</ele><time>2026-05-04T12:29:27Z</time></trkpt><trkpt lat="41.23316113910641" lon="14.512155512404153"><ele>98.0</ele><time>2026-05-04T12:29:28Z</time></trkpt><trkpt lat="41.23326673784292" lon="14.512431295643685"><ele>98.0</ele><time>2026-05-04T12:29:29Z</time></trkpt><trkpt lat="41.233387438331235" lon="14.512717603183681"><ele>98.0</ele><time>2026-05-04T12:29:30Z</time></trkpt><trkpt lat="41.23351330626617" lon="14.51301058230376"><ele>101.0</ele><time>2026-05-04T12:29:31Z</time></trkpt><trkpt lat="41.23364273309916" lon="14.513313575433417"><ele>104.0</ele><time>2026-05-04T12:29:32Z</time></trkpt><trkpt lat="41.23378978457111" lon="14.513623959530678"><ele>104.0</ele><time>2026-05-04T12:29:33Z</time></trkpt><trkpt lat="41.23395035649335" lon="14.513950238886391"><ele>104.0</ele><time>2026-05-04T12:29:34Z</time></trkpt><trkpt lat="41.23411568184435" lon="14.514300614513894"><ele>108.0</ele><time>2026-05-04T12:29:35Z</time></trkpt><trkpt lat="41.23428208909124" lon="14.514658162561021"><ele>112.0</ele><time>2026-05-04T12:29:36Z</time></trkpt><trkpt lat="41.23443215769276" lon="14.51503173063073"><ele>115.0</ele><time>2026-05-04T12:29:37Z</time></trkpt><trkpt lat="41.23456165259779" lon="14.51541166425621"><ele>118.0</ele><time>2026-05-04T12:29:38Z</time></trkpt><trkpt lat="41.23466243081361" lon="14.515784120881515"><ele>112.0</ele><time>2026-05-04T12:29:39Z</time></trkpt><trkpt lat="41.234845105273884" lon="14.516465022868305"><ele>112.0</ele><time>2026-05-04T12:29:41Z</time></trkpt><trkpt lat="41.2349155384449" lon="14.516805856712736"><ele>112.0</ele><time>2026-05-04T12:29:42Z</time></trkpt><trkpt lat="41.23498151849951" lon="14.517143077210443"><ele>113.0</ele><time>2026-05-04T12:29:43Z</time></trkpt><trkpt lat="41.235028978416516" lon="14.517486326039693"><ele>114.0</ele><time>2026-05-04T12:29:44Z</time></trkpt><trkpt lat="41.23507245694677" lon="14.517821266087292"><ele>115.5</ele><time>2026-05-04T12:29:45Z</time></trkpt><trkpt lat="41.23510646902879" lon="14.518160368186374"><ele>117.0</ele><time>2026-05-04T12:29:46Z</time></trkpt><trkpt lat="41.23512544803015" lon="14.518516574048922"><ele>120.0</ele><time>2026-05-04T12:29:47Z</time></trkpt><trkpt lat="41.23514137974704" lon="14.518873627543838"><ele>123.0</ele><time>2026-05-04T12:29:48Z</time></trkpt><trkpt lat="41.23514249416894" lon="14.519237701223405"><ele>123.0</ele><time>2026-05-04T12:29:49Z</time></trkpt><trkpt lat="41.23512475553486" lon="14.519610040102238"><ele>123.0</ele><time>2026-05-04T12:29:50Z</time></trkpt><trkpt lat="41.235099393233455" lon="14.519981627968294"><ele>123.0</ele><time>2026-05-04T12:29:51Z</time></trkpt><trkpt lat="41.23507728026193" lon="14.520355056289283"><ele>123.0</ele><time>2026-05-04T12:29:52Z</time></trkpt><trkpt lat="41.23504133369421" lon="14.520731494422702"><ele>123.5</ele><time>2026-05-04T12:29:53Z</time></trkpt><trkpt lat="41.23498335975154" lon="14.521111670766404"><ele>124.0</ele><time>2026-05-04T12:29:54Z</time></trkpt><trkpt lat="41.23491087672812" lon="14.521484883292208"><ele>122.0</ele><time>2026-05-04T12:29:55Z</time></trkpt><trkpt lat="41.23482830942839" lon="14.521859479728224"><ele>120.0</ele><time>2026-05-04T12:29:56Z</time></trkpt><trkpt lat="41.234724174517105" lon="14.522224815527927"><ele>118.5</ele><time>2026-05-04T12:29:57Z</time></trkpt><trkpt lat="41.234629964911456" lon="14.522597230865609"><ele>117.0</ele><time>2026-05-04T12:29:58Z</time></trkpt><trkpt lat="41.23449800883944" lon="14.522956781566915"><ele>116.5</ele><time>2026-05-04T12:29:59Z</time></trkpt><trkpt lat="41.23436708947163" lon="14.523317460448407"><ele>116.0</ele><time>2026-05-04T12:30:00Z</time></trkpt><trkpt lat="41.23424104112758" lon="14.523674076469769"><ele>116.0</ele><time>2026-05-04T12:30:01Z</time></trkpt><trkpt lat="41.23408679286383" lon="14.523982924107743"><ele>116.0</ele><time>2026-05-04T12:30:02Z</time></trkpt><trkpt lat="41.23395806129439" lon="14.524284869869517"><ele>117.5</ele><time>2026-05-04T12:30:03Z</time></trkpt><trkpt lat="41.233806532788776" lon="14.524552904648631"><ele>119.0</ele><time>2026-05-04T12:30:04Z</time></trkpt><trkpt lat="41.23365296098036" lon="14.524804955117709"><ele>119.0</ele><time>2026-05-04T12:30:05Z</time></trkpt><trkpt lat="41.23350180415602" lon="14.52504711520129"><ele>119.0</ele><time>2026-05-04T12:30:06Z</time></trkpt><trkpt lat="41.23335103467703" lon="14.525282604219905"><ele>120.5</ele><time>2026-05-04T12:30:07Z</time></trkpt><trkpt lat="41.23319652220098" lon="14.525510525593887"><ele>122.0</ele><time>2026-05-04T12:30:08Z</time></trkpt><trkpt lat="41.23304225269544" lon="14.525717611952338"><ele>122.0</ele><time>2026-05-04T12:30:09Z</time></trkpt><trkpt lat="41.232882953115244" lon="14.525917194810201"><ele>122.0</ele><time>2026-05-04T12:30:10Z</time></trkpt><trkpt lat="41.23274357560099" lon="14.526106132905838"><ele>122.0</ele><time>2026-05-04T12:30:11Z</time></trkpt><trkpt lat="41.2326076813658" lon="14.526268114586662"><ele>121.66666666666666</ele><time>2026-05-04T12:30:12Z</time></trkpt><trkpt lat="41.232483703165684" lon="14.526421243599957"><ele>121.33333333333334</ele><time>2026-05-04T12:30:13Z</time></trkpt><trkpt lat="41.23237404478004" lon="14.526560421154304"><ele>121.0</ele><time>2026-05-04T12:30:14Z</time></trkpt><trkpt lat="41.23227016956294" lon="14.52669039508842"><ele>121.0</ele><time>2026-05-04T12:30:15Z</time></trkpt><trkpt lat="41.23217611229211" lon="14.526810048706757"><ele>121.0</ele><time>2026-05-04T12:30:16Z</time></trkpt><trkpt lat="41.2320762267259" lon="14.526932322179839"><ele>121.0</ele><time>2026-05-04T12:30:17Z</time></trkpt><trkpt lat="41.231975410294964" lon="14.527061392584239"><ele>121.0</ele><time>2026-05-04T12:30:18Z</time></trkpt><trkpt lat="41.23187049820856" lon="14.52718783164937"><ele>119.25</ele><time>2026-05-04T12:30:19Z</time></trkpt><trkpt lat="41.231769712445406" lon="14.527316096499238"><ele>117.5</ele><time>2026-05-04T12:30:20Z</time></trkpt><trkpt lat="41.23166391746652" lon="14.52745314239215"><ele>115.75</ele><time>2026-05-04T12:30:21Z</time></trkpt><trkpt lat="41.231560124648425" lon="14.527583865753758"><ele>114.0</ele><time>2026-05-04T12:30:22Z</time></trkpt><trkpt lat="41.23145405219617" lon="14.527715244139374"><ele>114.0</ele><time>2026-05-04T12:30:23Z</time></trkpt><trkpt lat="41.23135021639095" lon="14.527848846939504"><ele>114.0</ele><time>2026-05-04T12:30:24Z</time></trkpt><trkpt lat="41.23124207833561" lon="14.527989165602264"><ele>114.0</ele><time>2026-05-04T12:30:25Z</time></trkpt><trkpt lat="41.23112280634304" lon="14.528148433225489"><ele>113.33333333333334</ele><time>2026-05-04T12:30:26Z</time></trkpt><trkpt lat="41.23098415104602" lon="14.528319861939059"><ele>112.66666666666667</ele><time>2026-05-04T12:30:27Z</time></trkpt><trkpt lat="41.23084405113429" lon="14.52851175178908"><ele>112.0</ele><time>2026-05-04T12:30:28Z</time></trkpt><trkpt lat="41.23069448008556" lon="14.528714421628663"><ele>112.0</ele><time>2026-05-04T12:30:29Z</time></trkpt><trkpt lat="41.23053028645838" lon="14.52892955066282"><ele>112.0</ele><time>2026-05-04T12:30:30Z</time></trkpt><trkpt lat="41.23036263203341" lon="14.5291468589964"><ele>112.0</ele><time>2026-05-04T12:30:31Z</time></trkpt><trkpt lat="41.23018327522404" lon="14.529381969408778"><ele>112.0</ele><time>2026-05-04T12:30:32Z</time></trkpt><trkpt lat="41.22998670322596" lon="14.529635961876746"><ele>111.5</ele><time>2026-05-04T12:30:33Z</time></trkpt><trkpt lat="41.2297925328087" lon="14.529885790532836"><ele>111.0</ele><time>2026-05-04T12:30:34Z</time></trkpt><trkpt lat="41.22966250072329" lon="14.53008904349758"><ele>111.0</ele><time>2026-05-04T12:30:35Z</time></trkpt><trkpt lat="41.2294926681137" lon="14.53032079296463"><ele>111.0</ele><time>2026-05-04T12:30:36Z</time></trkpt><trkpt lat="41.229368638620016" lon="14.530480170370872"><ele>111.0</ele><time>2026-05-04T12:30:37Z</time></trkpt><trkpt lat="41.22923054450076" lon="14.530691274720255"><ele>111.0</ele><time>2026-05-04T12:30:38Z</time></trkpt><trkpt lat="41.229104137379984" lon="14.530903261194352"><ele>111.0</ele><time>2026-05-04T12:30:39Z</time></trkpt><trkpt lat="41.22897283697197" lon="14.531165454496215"><ele>111.0</ele><time>2026-05-04T12:30:40Z</time></trkpt><trkpt lat="41.22880831215112" lon="14.531485829824808"><ele>111.0</ele><time>2026-05-04T12:30:41Z</time></trkpt><trkpt lat="41.22863369993371" lon="14.53183365405052"><ele>111.0</ele><time>2026-05-04T12:30:42Z</time></trkpt><trkpt lat="41.228453295024494" lon="14.532198760824121"><ele>111.5</ele><time>2026-05-04T12:30:43Z</time></trkpt><trkpt lat="41.22826500518436" lon="14.532603313755924"><ele>112.0</ele><time>2026-05-04T12:30:44Z</time></trkpt><trkpt lat="41.22806077476044" lon="14.53300352721493"><ele>115.0</ele><time>2026-05-04T12:30:45Z</time></trkpt><trkpt lat="41.22784729244109" lon="14.533401397547765"><ele>118.0</ele><time>2026-05-04T12:30:46Z</time></trkpt><trkpt lat="41.22764857329464" lon="14.533754990670241"><ele>118.0</ele><time>2026-05-04T12:30:47Z</time></trkpt><trkpt lat="41.2274569769135" lon="14.534080627645976"><ele>118.0</ele><time>2026-05-04T12:30:48Z</time></trkpt><trkpt lat="41.22726686199553" lon="14.53437010252502"><ele>118.0</ele><time>2026-05-04T12:30:48.999Z</time></trkpt><trkpt lat="41.22708089344748" lon="14.534627250586336"><ele>118.0</ele><time>2026-05-04T12:30:49.999Z</time></trkpt><trkpt lat="41.226885804127825" lon="14.534855735706328"><ele>118.0</ele><time>2026-05-04T12:30:50.999Z</time></trkpt><trkpt lat="41.226697071163215" lon="14.535065401196912"><ele>118.0</ele><time>2026-05-04T12:30:51.999Z</time></trkpt><trkpt lat="41.226517536912404" lon="14.535260065275073"><ele>116.33333333333334</ele><time>2026-05-04T12:30:52.999Z</time></trkpt><trkpt lat="41.22633998127675" lon="14.535441701071004"><ele>114.66666666666666</ele><time>2026-05-04T12:30:53.999Z</time></trkpt><trkpt lat="41.2261601108549" lon="14.535606517424293"><ele>113.0</ele><time>2026-05-04T12:30:54.999Z</time></trkpt><trkpt lat="41.225977349794775" lon="14.535751762170998"><ele>113.0</ele><time>2026-05-04T12:30:55.999Z</time></trkpt><trkpt lat="41.225797843545635" lon="14.535877996289422"><ele>113.0</ele><time>2026-05-04T12:30:56.999Z</time></trkpt><trkpt lat="41.22561075531896" lon="14.535998468950954"><ele>113.0</ele><time>2026-05-04T12:30:57.999Z</time></trkpt><trkpt lat="41.22541682588032" lon="14.536078581548965"><ele>113.0</ele><time>2026-05-04T12:30:58.999Z</time></trkpt><trkpt lat="41.225232718181225" lon="14.536184781165595"><ele>113.0</ele><time>2026-05-04T12:30:59.999Z</time></trkpt><trkpt lat="41.22505740562266" lon="14.536286942202947"><ele>113.0</ele><time>2026-05-04T12:31:00.999Z</time></trkpt><trkpt lat="41.22487414227406" lon="14.536377547042294"><ele>108.66666666666666</ele><time>2026-05-04T12:31:01.999Z</time></trkpt><trkpt lat="41.224696377535146" lon="14.536466902626952"><ele>104.33333333333334</ele><time>2026-05-04T12:31:02.999Z</time></trkpt><trkpt lat="41.22450724010016" lon="14.536556279404138"><ele>100.0</ele><time>2026-05-04T12:31:03.999Z</time></trkpt><trkpt lat="41.224316213299836" lon="14.536655150682735"><ele>100.0</ele><time>2026-05-04T12:31:04.999Z</time></trkpt><trkpt lat="41.2241312246112" lon="14.536745829809421"><ele>100.0</ele><time>2026-05-04T12:31:05.999Z</time></trkpt><trkpt lat="41.223945481860355" lon="14.536837570752349"><ele>100.0</ele><time>2026-05-04T12:31:06.999Z</time></trkpt><trkpt lat="41.223760087209364" lon="14.536933320135287"><ele>98.0</ele><time>2026-05-04T12:31:07.999Z</time></trkpt><trkpt lat="41.223573602752744" lon="14.537029366396519"><ele>96.0</ele><time>2026-05-04T12:31:08.999Z</time></trkpt><trkpt lat="41.22338713021045" lon="14.537123296090458"><ele>94.0</ele><time>2026-05-04T12:31:09.999Z</time></trkpt><trkpt lat="41.22319281861633" lon="14.537221728451115"><ele>87.0</ele><time>2026-05-04T12:31:10.999Z</time></trkpt><trkpt lat="41.222990995711235" lon="14.537316836042802"><ele>80.0</ele><time>2026-05-04T12:31:12Z</time></trkpt><trkpt lat="41.22278587403157" lon="14.537419841603738"><ele>73.0</ele><time>2026-05-04T12:31:13Z</time></trkpt><trkpt lat="41.22257945004482" lon="14.537532913654303"><ele>73.0</ele><time>2026-05-04T12:31:14Z</time></trkpt><trkpt lat="41.222365012907346" lon="14.537644873364895"><ele>73.0</ele><time>2026-05-04T12:31:15Z</time></trkpt><trkpt lat="41.22214809280162" lon="14.537755281899901"><ele>76.0</ele><time>2026-05-04T12:31:16Z</time></trkpt><trkpt lat="41.22193057044172" lon="14.537862152142058"><ele>79.0</ele><time>2026-05-04T12:31:17Z</time></trkpt><trkpt lat="41.22171576558333" lon="14.53796575678163"><ele>81.5</ele><time>2026-05-04T12:31:18Z</time></trkpt><trkpt lat="41.22149695208471" lon="14.538058680579134"><ele>84.0</ele><time>2026-05-04T12:31:19Z</time></trkpt><trkpt lat="41.22128407143709" lon="14.5381538960403"><ele>86.33333333333333</ele><time>2026-05-04T12:31:20Z</time></trkpt><trkpt lat="41.22108548171296" lon="14.538245620210997"><ele>88.66666666666666</ele><time>2026-05-04T12:31:21Z</time></trkpt><trkpt lat="41.220897691573555" lon="14.53833860588259"><ele>91.0</ele><time>2026-05-04T12:31:22Z</time></trkpt><trkpt lat="41.22070520661429" lon="14.538438628768695"><ele>92.0</ele><time>2026-05-04T12:31:23Z</time></trkpt><trkpt lat="41.22049900475804" lon="14.538539007911288"><ele>93.0</ele><time>2026-05-04T12:31:24Z</time></trkpt><trkpt lat="41.220279814478396" lon="14.538661482505011"><ele>94.0</ele><time>2026-05-04T12:31:25Z</time></trkpt><trkpt lat="41.220053657152896" lon="14.538785624992363"><ele>95.0</ele><time>2026-05-04T12:31:26Z</time></trkpt><trkpt lat="41.21983700534643" lon="14.538908560147474"><ele>89.0</ele><time>2026-05-04T12:31:27Z</time></trkpt><trkpt lat="41.219627376459755" lon="14.539049089961765"><ele>83.0</ele><time>2026-05-04T12:31:28Z</time></trkpt><trkpt lat="41.21943064185424" lon="14.539191680826"><ele>83.0</ele><time>2026-05-04T12:31:29Z</time></trkpt><trkpt lat="41.21923385187745" lon="14.539343166404926"><ele>83.0</ele><time>2026-05-04T12:31:30Z</time></trkpt><trkpt lat="41.21903253530189" lon="14.539517498540837"><ele>79.0</ele><time>2026-05-04T12:31:31Z</time></trkpt><trkpt lat="41.21881794298453" lon="14.539700028417682"><ele>75.0</ele><time>2026-05-04T12:31:32Z</time></trkpt><trkpt lat="41.218598420490245" lon="14.539901496572117"><ele>75.0</ele><time>2026-05-04T12:31:33Z</time></trkpt><trkpt lat="41.21837346849413" lon="14.540105241628181"><ele>75.0</ele><time>2026-05-04T12:31:34Z</time></trkpt><trkpt lat="41.21815102550668" lon="14.540316725233133"><ele>72.0</ele><time>2026-05-04T12:31:35Z</time></trkpt><trkpt lat="41.21793488327266" lon="14.54054050054648"><ele>69.0</ele><time>2026-05-04T12:31:36Z</time></trkpt><trkpt lat="41.21772225387849" lon="14.540744440653782"><ele>69.0</ele><time>2026-05-04T12:31:37Z</time></trkpt><trkpt lat="41.217531291729635" lon="14.540934929703393"><ele>69.0</ele><time>2026-05-04T12:31:38Z</time></trkpt><trkpt lat="41.21732848954515" lon="14.541127836826455"><ele>66.5</ele><time>2026-05-04T12:31:39Z</time></trkpt><trkpt lat="41.21712199348932" lon="14.541331390594275"><ele>64.0</ele><time>2026-05-04T12:31:40Z</time></trkpt><trkpt lat="41.216922572833326" lon="14.541534223953946"><ele>64.0</ele><time>2026-05-04T12:31:41Z</time></trkpt><trkpt lat="41.21672104117465" lon="14.541745028127432"><ele>64.0</ele><time>2026-05-04T12:31:42Z</time></trkpt><trkpt lat="41.21651359230543" lon="14.54196800143074"><ele>63.5</ele><time>2026-05-04T12:31:43Z</time></trkpt><trkpt lat="41.216290387660656" lon="14.542180663132028"><ele>63.0</ele><time>2026-05-04T12:31:44Z</time></trkpt><trkpt lat="41.21606734335767" lon="14.542386024491575"><ele>63.0</ele><time>2026-05-04T12:31:45Z</time></trkpt><trkpt lat="41.21585481452132" lon="14.54259510169481"><ele>63.0</ele><time>2026-05-04T12:31:46Z</time></trkpt><trkpt lat="41.21563773708226" lon="14.542814004697263"><ele>62.0</ele><time>2026-05-04T12:31:47Z</time></trkpt><trkpt lat="41.21540817610566" lon="14.543026586798339"><ele>61.0</ele><time>2026-05-04T12:31:48Z</time></trkpt><trkpt lat="41.2151908241659" lon="14.54322442199366"><ele>61.0</ele><time>2026-05-04T12:31:49Z</time></trkpt><trkpt lat="41.21499154295879" lon="14.543410665027471"><ele>61.0</ele><time>2026-05-04T12:31:50Z</time></trkpt><trkpt lat="41.214805713956636" lon="14.543589768944507"><ele>61.0</ele><time>2026-05-04T12:31:51Z</time></trkpt><trkpt lat="41.21462005306446" lon="14.543766245596665"><ele>61.0</ele><time>2026-05-04T12:31:52Z</time></trkpt><trkpt lat="41.21443663905304" lon="14.543944116733194"><ele>61.0</ele><time>2026-05-04T12:31:53Z</time></trkpt><trkpt lat="41.21425830359615" lon="14.54411945491926"><ele>61.0</ele><time>2026-05-04T12:31:54Z</time></trkpt><trkpt lat="41.21408837739308" lon="14.544282461245459"><ele>61.0</ele><time>2026-05-04T12:31:55Z</time></trkpt><trkpt lat="41.21393132218231" lon="14.544438388599332"><ele>59.666666666666664</ele><time>2026-05-04T12:31:56Z</time></trkpt><trkpt lat="41.21378603899394" lon="14.544592451628327"><ele>58.33333333333333</ele><time>2026-05-04T12:31:57Z</time></trkpt><trkpt lat="41.21365353656499" lon="14.544744570954396"><ele>57.0</ele><time>2026-05-04T12:31:58Z</time></trkpt><trkpt lat="41.21352406651102" lon="14.544905512156246"><ele>57.0</ele><time>2026-05-04T12:31:59Z</time></trkpt><trkpt lat="41.213400106803505" lon="14.54506907171484"><ele>57.0</ele><time>2026-05-04T12:32:00Z</time></trkpt><trkpt lat="41.213281335786746" lon="14.545228840848063"><ele>57.0</ele><time>2026-05-04T12:32:01Z</time></trkpt><trkpt lat="41.21316388020292" lon="14.545384864502287"><ele>55.33333333333333</ele><time>2026-05-04T12:32:02Z</time></trkpt><trkpt lat="41.213061476664826" lon="14.545539452108391"><ele>53.666666666666664</ele><time>2026-05-04T12:32:03Z</time></trkpt><trkpt lat="41.21295125800304" lon="14.545704846320833"><ele>52.0</ele><time>2026-05-04T12:32:04Z</time></trkpt><trkpt lat="41.212848086106504" lon="14.545871767738829"><ele>52.0</ele><time>2026-05-04T12:32:05Z</time></trkpt><trkpt lat="41.212759061975724" lon="14.546026346952432"><ele>52.0</ele><time>2026-05-04T12:32:06Z</time></trkpt><trkpt lat="41.21266760565034" lon="14.546184582707705"><ele>52.0</ele><time>2026-05-04T12:32:07Z</time></trkpt><trkpt lat="41.21258369629029" lon="14.546343015677282"><ele>52.0</ele><time>2026-05-04T12:32:08Z</time></trkpt><trkpt lat="41.212488738185876" lon="14.546529075649593"><ele>52.666666666666664</ele><time>2026-05-04T12:32:09Z</time></trkpt><trkpt lat="41.212403218640496" lon="14.546710872013945"><ele>53.33333333333333</ele><time>2026-05-04T12:32:10Z</time></trkpt><trkpt lat="41.212323456878515" lon="14.546889561506573"><ele>54.0</ele><time>2026-05-04T12:32:11Z</time></trkpt><trkpt lat="41.21223290055558" lon="14.547075053015655"><ele>54.0</ele><time>2026-05-04T12:32:12Z</time></trkpt><trkpt lat="41.21215150981632" lon="14.5472582574556"><ele>54.0</ele><time>2026-05-04T12:32:13Z</time></trkpt><trkpt lat="41.212081430602254" lon="14.547453461564087"><ele>54.0</ele><time>2026-05-04T12:32:14Z</time></trkpt><trkpt lat="41.212020969358086" lon="14.547645210817656"><ele>54.0</ele><time>2026-05-04T12:32:15Z</time></trkpt><trkpt lat="41.211962076639566" lon="14.547829933882685"><ele>54.0</ele><time>2026-05-04T12:32:16Z</time></trkpt><trkpt lat="41.21190125125528" lon="14.548013886296514"><ele>54.0</ele><time>2026-05-04T12:32:17Z</time></trkpt><trkpt lat="41.21184505120274" lon="14.548194868113368"><ele>54.0</ele><time>2026-05-04T12:32:18Z</time></trkpt><trkpt lat="41.211792526200384" lon="14.548369783891657"><ele>54.0</ele><time>2026-05-04T12:32:19Z</time></trkpt><trkpt lat="41.211739140456565" lon="14.548542920409163"><ele>54.0</ele><time>2026-05-04T12:32:20Z</time></trkpt><trkpt lat="41.211683700321494" lon="14.548721237644333"><ele>54.0</ele><time>2026-05-04T12:32:21Z</time></trkpt><trkpt lat="41.211629031419136" lon="14.548899881326623"><ele>54.0</ele><time>2026-05-04T12:32:22Z</time></trkpt><trkpt lat="41.21157699532268" lon="14.549073565232545"><ele>54.0</ele><time>2026-05-04T12:32:23Z</time></trkpt><trkpt lat="41.21152513262284" lon="14.5492459486893"><ele>54.0</ele><time>2026-05-04T12:32:24Z</time></trkpt><trkpt lat="41.211472946824365" lon="14.549413083676521"><ele>54.0</ele><time>2026-05-04T12:32:25Z</time></trkpt><trkpt lat="41.211420643084935" lon="14.549589754084302"><ele>54.0</ele><time>2026-05-04T12:32:26Z</time></trkpt><trkpt lat="41.211370883976315" lon="14.54976024363483"><ele>54.25</ele><time>2026-05-04T12:32:27Z</time></trkpt><trkpt lat="41.21132262439969" lon="14.549927046599155"><ele>54.5</ele><time>2026-05-04T12:32:27.999Z</time></trkpt><trkpt lat="41.211276203710646" lon="14.550089626816328"><ele>54.75</ele><time>2026-05-04T12:32:28.999Z</time></trkpt><trkpt lat="41.21122687814453" lon="14.55025095497698"><ele>55.0</ele><time>2026-05-04T12:32:29.999Z</time></trkpt><trkpt lat="41.2111792024624" lon="14.550409592428553"><ele>55.5</ele><time>2026-05-04T12:32:30.999Z</time></trkpt><trkpt lat="41.21113406777231" lon="14.550564486695517"><ele>56.0</ele><time>2026-05-04T12:32:31.999Z</time></trkpt><trkpt lat="41.21109166031253" lon="14.55070934669918"><ele>56.5</ele><time>2026-05-04T12:32:32.999Z</time></trkpt><trkpt lat="41.211048096380864" lon="14.550850377355228"><ele>57.0</ele><time>2026-05-04T12:32:33.999Z</time></trkpt><trkpt lat="41.21100829234074" lon="14.550991239592006"><ele>57.0</ele><time>2026-05-04T12:32:34.999Z</time></trkpt><trkpt lat="41.210966342275746" lon="14.55113181455467"><ele>57.0</ele><time>2026-05-04T12:32:35.999Z</time></trkpt><trkpt lat="41.210921792868085" lon="14.551274489002738"><ele>57.0</ele><time>2026-05-04T12:32:36.999Z</time></trkpt><trkpt lat="41.21088034950314" lon="14.551425785559221"><ele>57.0</ele><time>2026-05-04T12:32:37.999Z</time></trkpt><trkpt lat="41.21083211041845" lon="14.551585212046978"><ele>57.25</ele><time>2026-05-04T12:32:38.999Z</time></trkpt><trkpt lat="41.21078385542007" lon="14.551756481919892"><ele>57.5</ele><time>2026-05-04T12:32:39.999Z</time></trkpt><trkpt lat="41.21073465007024" lon="14.551928685993436"><ele>57.75</ele><time>2026-05-04T12:32:40.999Z</time></trkpt><trkpt lat="41.210684421165894" lon="14.552107969299144"><ele>58.0</ele><time>2026-05-04T12:32:41.999Z</time></trkpt><trkpt lat="41.2106299529381" lon="14.552295405991678"><ele>58.0</ele><time>2026-05-04T12:32:42.999Z</time></trkpt><trkpt lat="41.210567651677614" lon="14.552482036980608"><ele>58.0</ele><time>2026-05-04T12:32:43.999Z</time></trkpt><trkpt lat="41.21051594865408" lon="14.552686368643217"><ele>58.0</ele><time>2026-05-04T12:32:44.999Z</time></trkpt><trkpt lat="41.21045565940248" lon="14.552884689573636"><ele>60.0</ele><time>2026-05-04T12:32:45.999Z</time></trkpt><trkpt lat="41.21039842170333" lon="14.553094456653062"><ele>62.0</ele><time>2026-05-04T12:32:46.999Z</time></trkpt><trkpt lat="41.2103299575797" lon="14.55329742432302"><ele>64.0</ele><time>2026-05-04T12:32:47.999Z</time></trkpt><trkpt lat="41.21027050383638" lon="14.55352322951416"><ele>66.33333333333333</ele><time>2026-05-04T12:32:48.999Z</time></trkpt><trkpt lat="41.210205894667986" lon="14.553741658653589"><ele>68.66666666666667</ele><time>2026-05-04T12:32:49.999Z</time></trkpt><trkpt lat="41.21014179263421" lon="14.553962493106138"><ele>71.0</ele><time>2026-05-04T12:32:50.999Z</time></trkpt><trkpt lat="41.210067756333444" lon="14.554185736411382"><ele>71.0</ele><time>2026-05-04T12:32:51.999Z</time></trkpt><trkpt lat="41.209998249265794" lon="14.554417020660814"><ele>71.0</ele><time>2026-05-04T12:32:52.999Z</time></trkpt><trkpt lat="41.20993206613022" lon="14.554648999837376"><ele>71.0</ele><time>2026-05-04T12:32:53.999Z</time></trkpt><trkpt lat="41.20986321468466" lon="14.554880018450945"><ele>71.33333333333334</ele><time>2026-05-04T12:32:54.999Z</time></trkpt><trkpt lat="41.20978928603445" lon="14.555113915108677"><ele>71.66666666666667</ele><time>2026-05-04T12:32:55.999Z</time></trkpt><trkpt lat="41.20971833425046" lon="14.555355137108476"><ele>72.0</ele><time>2026-05-04T12:32:56.999Z</time></trkpt><trkpt lat="41.209649215311096" lon="14.555597630872885"><ele>72.0</ele><time>2026-05-04T12:32:57.999Z</time></trkpt><trkpt lat="41.20957690396288" lon="14.555847096169146"><ele>72.0</ele><time>2026-05-04T12:32:58.999Z</time></trkpt><trkpt lat="41.20949900152777" lon="14.556095196346964"><ele>72.0</ele><time>2026-05-04T12:32:59.999Z</time></trkpt><trkpt lat="41.20942329017216" lon="14.556349283817587"><ele>73.33333333333333</ele><time>2026-05-04T12:33:00.999Z</time></trkpt><trkpt lat="41.20934906750797" lon="14.556612990599097"><ele>74.66666666666666</ele><time>2026-05-04T12:33:01.999Z</time></trkpt><trkpt lat="41.20927012912465" lon="14.556875755799764"><ele>76.0</ele><time>2026-05-04T12:33:02.999Z</time></trkpt><trkpt lat="41.209191730017935" lon="14.55713963329581"><ele>76.0</ele><time>2026-05-04T12:33:03.999Z</time></trkpt><trkpt lat="41.2091116958094" lon="14.55741385268443"><ele>76.0</ele><time>2026-05-04T12:33:04.999Z</time></trkpt><trkpt lat="41.209035264597446" lon="14.557679060895914"><ele>76.0</ele><time>2026-05-04T12:33:05.999Z</time></trkpt><trkpt lat="41.20895451216528" lon="14.55795150945878"><ele>72.66666666666666</ele><time>2026-05-04T12:33:06.999Z</time></trkpt><trkpt lat="41.20887359312556" lon="14.558220454432915"><ele>69.33333333333333</ele><time>2026-05-04T12:33:07.999Z</time></trkpt><trkpt lat="41.20879226224917" lon="14.558494580277136"><ele>66.0</ele><time>2026-05-04T12:33:08.999Z</time></trkpt><trkpt lat="41.2087076924566" lon="14.558767390899916"><ele>66.0</ele><time>2026-05-04T12:33:09.999Z</time></trkpt><trkpt lat="41.2086243836199" lon="14.559044907182697"><ele>66.0</ele><time>2026-05-04T12:33:10.999Z</time></trkpt><trkpt lat="41.208543938470235" lon="14.559322921630601"><ele>66.0</ele><time>2026-05-04T12:33:11.999Z</time></trkpt><trkpt lat="41.2084614614023" lon="14.559603047730599"><ele>67.0</ele><time>2026-05-04T12:33:12.999Z</time></trkpt><trkpt lat="41.208394641656184" lon="14.559880479140551"><ele>68.0</ele><time>2026-05-04T12:33:13.999Z</time></trkpt><trkpt lat="41.208332793488665" lon="14.560170756346327"><ele>69.0</ele><time>2026-05-04T12:33:14.999Z</time></trkpt><trkpt lat="41.208277396263476" lon="14.560459351777716"><ele>69.5</ele><time>2026-05-04T12:33:15.999Z</time></trkpt><trkpt lat="41.20822429755983" lon="14.560749514893844"><ele>70.0</ele><time>2026-05-04T12:33:16.999Z</time></trkpt><trkpt lat="41.208170492442164" lon="14.561042332971022"><ele>67.0</ele><time>2026-05-04T12:33:18Z</time></trkpt><trkpt lat="41.20812796266141" lon="14.561348359791944"><ele>64.0</ele><time>2026-05-04T12:33:19Z</time></trkpt><trkpt lat="41.20809418487478" lon="14.561651963992798"><ele>64.0</ele><time>2026-05-04T12:33:20Z</time></trkpt><trkpt lat="41.20807082781291" lon="14.561955889361425"><ele>64.0</ele><time>2026-05-04T12:33:21Z</time></trkpt><trkpt lat="41.20805459969632" lon="14.56225473747605"><ele>66.5</ele><time>2026-05-04T12:33:22Z</time></trkpt><trkpt lat="41.20804210575722" lon="14.562559862639159"><ele>69.0</ele><time>2026-05-04T12:33:23Z</time></trkpt><trkpt lat="41.20804058302132" lon="14.562865298085693"><ele>70.5</ele><time>2026-05-04T12:33:24Z</time></trkpt><trkpt lat="41.20804012886049" lon="14.563173370202392"><ele>72.0</ele><time>2026-05-04T12:33:25Z</time></trkpt><trkpt lat="41.208051074160835" lon="14.563474658513332"><ele>73.0</ele><time>2026-05-04T12:33:26Z</time></trkpt><trkpt lat="41.20806234131729" lon="14.563780978573982"><ele>74.0</ele><time>2026-05-04T12:33:27Z</time></trkpt><trkpt lat="41.20807864493596" lon="14.56408637288077"><ele>74.0</ele><time>2026-05-04T12:33:28Z</time></trkpt><trkpt lat="41.208096846348326" lon="14.564399401365645"><ele>74.0</ele><time>2026-05-04T12:33:29Z</time></trkpt><trkpt lat="41.20811369410351" lon="14.56471161337664"><ele>73.0</ele><time>2026-05-04T12:33:30Z</time></trkpt><trkpt lat="41.20812998830003" lon="14.565028268113927"><ele>72.0</ele><time>2026-05-04T12:33:31Z</time></trkpt><trkpt lat="41.208151426213576" lon="14.565349884242648"><ele>80.5</ele><time>2026-05-04T12:33:32Z</time></trkpt><trkpt lat="41.20817502232822" lon="14.565675743512179"><ele>89.0</ele><time>2026-05-04T12:33:33Z</time></trkpt><trkpt lat="41.20819554154501" lon="14.566005051494022"><ele>85.5</ele><time>2026-05-04T12:33:34Z</time></trkpt><trkpt lat="41.208217312756375" lon="14.5663346012335"><ele>82.0</ele><time>2026-05-04T12:33:35Z</time></trkpt><trkpt lat="41.20824632755851" lon="14.56666850415137"><ele>82.0</ele><time>2026-05-04T12:33:36Z</time></trkpt><trkpt lat="41.20826825006565" lon="14.567002482241369"><ele>82.0</ele><time>2026-05-04T12:33:37Z</time></trkpt><trkpt lat="41.20829012167881" lon="14.567334600237535"><ele>78.0</ele><time>2026-05-04T12:33:38Z</time></trkpt><trkpt lat="41.20831245815444" lon="14.567663933692197"><ele>74.0</ele><time>2026-05-04T12:33:39Z</time></trkpt><trkpt lat="41.20833230256496" lon="14.567995451692425"><ele>72.0</ele><time>2026-05-04T12:33:40Z</time></trkpt><trkpt lat="41.20834908741859" lon="14.568318010511918"><ele>70.0</ele><time>2026-05-04T12:33:41Z</time></trkpt><trkpt lat="41.208367913097604" lon="14.568640378946753"><ele>65.0</ele><time>2026-05-04T12:33:42Z</time></trkpt><trkpt lat="41.20838703244737" lon="14.56897461986825"><ele>60.0</ele><time>2026-05-04T12:33:43Z</time></trkpt><trkpt lat="41.208401899185525" lon="14.569307838992898"><ele>57.5</ele><time>2026-05-04T12:33:44Z</time></trkpt><trkpt lat="41.20841587679867" lon="14.569630599570075"><ele>55.0</ele><time>2026-05-04T12:33:45Z</time></trkpt><trkpt lat="41.20843441531351" lon="14.569966628805131"><ele>55.0</ele><time>2026-05-04T12:33:46Z</time></trkpt><trkpt lat="41.20845908534579" lon="14.570293472886233"><ele>55.0</ele><time>2026-05-04T12:33:47Z</time></trkpt><trkpt lat="41.208483013172405" lon="14.570624246431084"><ele>53.5</ele><time>2026-05-04T12:33:48Z</time></trkpt><trkpt lat="41.20849753143751" lon="14.570952729351118"><ele>52.0</ele><time>2026-05-04T12:33:49Z</time></trkpt><trkpt lat="41.20852852729397" lon="14.571271259059364"><ele>52.0</ele><time>2026-05-04T12:33:50Z</time></trkpt><trkpt lat="41.2085448167103" lon="14.571600186906613"><ele>52.0</ele><time>2026-05-04T12:33:51Z</time></trkpt><trkpt lat="41.20855830715718" lon="14.571928857267054"><ele>54.5</ele><time>2026-05-04T12:33:52Z</time></trkpt><trkpt lat="41.208577098756265" lon="14.57225676522572"><ele>57.0</ele><time>2026-05-04T12:33:53Z</time></trkpt><trkpt lat="41.2085985691933" lon="14.57258721044525"><ele>59.0</ele><time>2026-05-04T12:33:54Z</time></trkpt><trkpt lat="41.20861538009912" lon="14.572922196043665"><ele>61.0</ele><time>2026-05-04T12:33:55Z</time></trkpt><trkpt lat="41.20863910740147" lon="14.573234371644713"><ele>61.0</ele><time>2026-05-04T12:33:56Z</time></trkpt><trkpt lat="41.20865484040592" lon="14.573535999370556"><ele>61.0</ele><time>2026-05-04T12:33:57Z</time></trkpt><trkpt lat="41.208653023430934" lon="14.57380677118572"><ele>61.0</ele><time>2026-05-04T12:33:58Z</time></trkpt><trkpt lat="41.208669324164106" lon="14.574069032851659"><ele>63.666666666666664</ele><time>2026-05-04T12:33:59Z</time></trkpt><trkpt lat="41.20868168794378" lon="14.574315380063588"><ele>66.33333333333333</ele><time>2026-05-04T12:34:00Z</time></trkpt><trkpt lat="41.20868258823236" lon="14.574559084308108"><ele>69.0</ele><time>2026-05-04T12:34:01Z</time></trkpt><trkpt lat="41.20864689459" lon="14.57475422307699"><ele>70.75</ele><time>2026-05-04T12:34:02Z</time></trkpt><trkpt lat="41.208559732505854" lon="14.574896003176969"><ele>72.5</ele><time>2026-05-04T12:34:03Z</time></trkpt><trkpt lat="41.20843894866521" lon="14.574970191825718"><ele>74.25</ele><time>2026-05-04T12:34:04Z</time></trkpt><trkpt lat="41.20832411527658" lon="14.574984444935914"><ele>76.0</ele><time>2026-05-04T12:34:05Z</time></trkpt><trkpt lat="41.20822691502392" lon="14.574929384087456"><ele>77.4</ele><time>2026-05-04T12:34:06Z</time></trkpt><trkpt lat="41.20815687395707" lon="14.574830919339545"><ele>78.8</ele><time>2026-05-04T12:34:07Z</time></trkpt><trkpt lat="41.208098132673406" lon="14.574724107649493"><ele>80.2</ele><time>2026-05-04T12:34:08Z</time></trkpt><trkpt lat="41.20803184465296" lon="14.574626995727053"><ele>81.60000000000001</ele><time>2026-05-04T12:34:09Z</time></trkpt><trkpt lat="41.20795954358387" lon="14.574539223795"><ele>83.0</ele><time>2026-05-04T12:34:10Z</time></trkpt><trkpt lat="41.2078884212301" lon="14.574465595820815"><ele>83.0</ele><time>2026-05-04T12:34:11Z</time></trkpt><trkpt lat="41.207817398205314" lon="14.57439753438962"><ele>83.0</ele><time>2026-05-04T12:34:12Z</time></trkpt><trkpt lat="41.20771618239524" lon="14.57431984334879"><ele>83.0</ele><time>2026-05-04T12:34:13Z</time></trkpt><trkpt lat="41.207590048934804" lon="14.574191267269278"><ele>83.0</ele><time>2026-05-04T12:34:14Z</time></trkpt><trkpt lat="41.20740444383078" lon="14.57401803335049"><ele>82.33333333333334</ele><time>2026-05-04T12:34:15Z</time></trkpt><trkpt lat="41.20725005005785" lon="14.573864552678774"><ele>81.66666666666667</ele><time>2026-05-04T12:34:16Z</time></trkpt><trkpt lat="41.20707085224633" lon="14.573688575920789"><ele>81.0</ele><time>2026-05-04T12:34:17Z</time></trkpt><trkpt lat="41.2069117642297" lon="14.57351972277414"><ele>81.0</ele><time>2026-05-04T12:34:18Z</time></trkpt><trkpt lat="41.206803876735655" lon="14.573394275007418"><ele>81.0</ele><time>2026-05-04T12:34:19Z</time></trkpt><trkpt lat="41.206746181923705" lon="14.57334278899265"><ele>81.0</ele><time>2026-05-04T12:34:20Z</time></trkpt><trkpt lat="41.20669906598516" lon="14.573417968900296"><ele>81.0</ele><time>2026-05-04T12:34:22Z</time></trkpt><trkpt lat="41.20673554719761" lon="14.573505416610415"><ele>81.0</ele><time>2026-05-04T12:34:25Z</time></trkpt><trkpt lat="41.20678382221365" lon="14.573578811194295"><ele>81.0</ele><time>2026-05-04T12:34:26Z</time></trkpt><trkpt lat="41.20688605382865" lon="14.57367271026726"><ele>82.5</ele><time>2026-05-04T12:34:27Z</time></trkpt><trkpt lat="41.20699965878044" lon="14.573769242054865"><ele>84.0</ele><time>2026-05-04T12:34:28Z</time></trkpt><trkpt lat="41.207104226037195" lon="14.573909553072431"><ele>85.5</ele><time>2026-05-04T12:34:29Z</time></trkpt><trkpt lat="41.20717703021068" lon="14.57400970044373"><ele>87.0</ele><time>2026-05-04T12:34:30Z</time></trkpt><trkpt lat="41.20719434160236" lon="14.574143765947573"><ele>87.0</ele><time>2026-05-04T12:34:32Z</time></trkpt><trkpt lat="41.207213736843926" lon="14.574021524178791"><ele>87.0</ele><time>2026-05-04T12:34:37Z</time></trkpt><trkpt lat="41.20713193423223" lon="14.573917560239591"><ele>87.0</ele><time>2026-05-04T12:34:38Z</time></trkpt><trkpt lat="41.20704411676248" lon="14.573834522648704"><ele>87.0</ele><time>2026-05-04T12:34:39Z</time></trkpt><trkpt lat="41.20696928565272" lon="14.573754402509191"><ele>87.0</ele><time>2026-05-04T12:34:40Z</time></trkpt><trkpt lat="41.20691046913447" lon="14.573703889835407"><ele>85.8</ele><time>2026-05-04T12:34:41Z</time></trkpt><trkpt lat="41.20681700146046" lon="14.573591441698852"><ele>84.6</ele><time>2026-05-04T12:34:43Z</time></trkpt><trkpt lat="41.20671899444406" lon="14.573492862534971"><ele>83.39999999999999</ele><time>2026-05-04T12:34:45Z</time></trkpt><trkpt lat="41.206646569915755" lon="14.573429970689443"><ele>82.19999999999999</ele><time>2026-05-04T12:34:46Z</time></trkpt><trkpt lat="41.2065548217194" lon="14.57336674816479"><ele>81.0</ele><time>2026-05-04T12:34:47Z</time></trkpt><trkpt lat="41.206511238454304" lon="14.573304475151899"><ele>82.4</ele><time>2026-05-04T12:34:48Z</time></trkpt><trkpt lat="41.20639208217165" lon="14.57331937035951"><ele>83.8</ele><time>2026-05-04T12:34:51.999Z</time></trkpt><trkpt lat="41.20628369695333" lon="14.573378615508778"><ele>85.2</ele><time>2026-05-04T12:34:52.999Z</time></trkpt><trkpt lat="41.206191758520916" lon="14.573410041457297"><ele>86.60000000000001</ele><time>2026-05-04T12:34:53.999Z</time></trkpt><trkpt lat="41.20607814203217" lon="14.573428113113335"><ele>88.0</ele><time>2026-05-04T12:34:54.999Z</time></trkpt><trkpt lat="41.20596674856172" lon="14.573496968258139"><ele>88.0</ele><time>2026-05-04T12:34:55.999Z</time></trkpt><trkpt lat="41.20581394304407" lon="14.573585059872217"><ele>88.0</ele><time>2026-05-04T12:34:56.999Z</time></trkpt><trkpt lat="41.20568693352522" lon="14.573628539388384"><ele>88.0</ele><time>2026-05-04T12:34:57.999Z</time></trkpt><trkpt lat="41.205607672439676" lon="14.573661963137194"><ele>88.0</ele><time>2026-05-04T12:34:58.999Z</time></trkpt><trkpt lat="41.205442019099756" lon="14.573769653926735"><ele>91.5</ele><time>2026-05-04T12:35:00.999Z</time></trkpt><trkpt lat="41.20528201180852" lon="14.573858011509353"><ele>95.0</ele><time>2026-05-04T12:35:01.999Z</time></trkpt><trkpt lat="41.20516080258658" lon="14.573918920691515"><ele>98.5</ele><time>2026-05-04T12:35:02.999Z</time></trkpt><trkpt lat="41.205047202379994" lon="14.57396671456256"><ele>102.0</ele><time>2026-05-04T12:35:03.999Z</time></trkpt><trkpt lat="41.204942119988665" lon="14.574010675010214"><ele>102.0</ele><time>2026-05-04T12:35:04.999Z</time></trkpt><trkpt lat="41.204866993545274" lon="14.574036408159285"><ele>102.0</ele><time>2026-05-04T12:35:05.999Z</time></trkpt><trkpt lat="41.20479013909473" lon="14.574043258041058"><ele>102.0</ele><time>2026-05-04T12:35:06.999Z</time></trkpt><trkpt lat="41.20469604079409" lon="14.57401773575058"><ele>102.0</ele><time>2026-05-04T12:35:07.999Z</time></trkpt><trkpt lat="41.20461256970866" lon="14.57399114951732"><ele>102.0</ele><time>2026-05-04T12:35:08.999Z</time></trkpt><trkpt lat="41.204511650745594" lon="14.573949423162592"><ele>102.0</ele><time>2026-05-04T12:35:09.999Z</time></trkpt><trkpt lat="41.20439620157742" lon="14.57392449855264"><ele>102.8</ele><time>2026-05-04T12:35:10.999Z</time></trkpt><trkpt lat="41.204285027366765" lon="14.573921107724088"><ele>103.6</ele><time>2026-05-04T12:35:11.999Z</time></trkpt><trkpt lat="41.20418641428381" lon="14.573924250414349"><ele>104.39999999999999</ele><time>2026-05-04T12:35:12.999Z</time></trkpt><trkpt lat="41.204088584327685" lon="14.573939521174529"><ele>105.19999999999999</ele><time>2026-05-04T12:35:13.999Z</time></trkpt><trkpt lat="41.204003501578626" lon="14.573963290195115"><ele>106.0</ele><time>2026-05-04T12:35:14.999Z</time></trkpt><trkpt lat="41.20388115993238" lon="14.573983583944015"><ele>108.75</ele><time>2026-05-04T12:35:15.999Z</time></trkpt><trkpt lat="41.20376772565761" lon="14.574014300332973"><ele>111.5</ele><time>2026-05-04T12:35:16.999Z</time></trkpt><trkpt lat="41.203652722196985" lon="14.574049408570453"><ele>114.25</ele><time>2026-05-04T12:35:17.999Z</time></trkpt><trkpt lat="41.20354834740557" lon="14.574103046836624"><ele>117.0</ele><time>2026-05-04T12:35:18.999Z</time></trkpt><trkpt lat="41.203439351345814" lon="14.574143939910575"><ele>117.0</ele><time>2026-05-04T12:35:19.999Z</time></trkpt><trkpt lat="41.20333495814632" lon="14.574196076099533"><ele>116.99999999999999</ele><time>2026-05-04T12:35:20.999Z</time></trkpt><trkpt lat="41.20324602599659" lon="14.57423612278666"><ele>116.99999999999999</ele><time>2026-05-04T12:35:21.999Z</time></trkpt><trkpt lat="41.203175239900176" lon="14.57427093857135"><ele>117.0</ele><time>2026-05-04T12:35:22.999Z</time></trkpt><trkpt lat="41.20307720946321" lon="14.574295886581394"><ele>117.0</ele><time>2026-05-04T12:35:25Z</time></trkpt><trkpt lat="41.203050172955415" lon="14.574427165763378"><ele>118.19999999999999</ele><time>2026-05-04T12:35:29Z</time></trkpt><trkpt lat="41.203109294586646" lon="14.57454030753317"><ele>119.39999999999999</ele><time>2026-05-04T12:35:30Z</time></trkpt><trkpt lat="41.20314967846221" lon="14.574634341159593"><ele>120.60000000000001</ele><time>2026-05-04T12:35:31Z</time></trkpt><trkpt lat="41.20320476586602" lon="14.574751503757572"><ele>121.80000000000001</ele><time>2026-05-04T12:35:32Z</time></trkpt><trkpt lat="41.203260640792095" lon="14.574868627478239"><ele>123.0</ele><time>2026-05-04T12:35:33Z</time></trkpt><trkpt lat="41.203318407753" lon="14.57501378718479"><ele>123.0</ele><time>2026-05-04T12:35:34Z</time></trkpt><trkpt lat="41.20338306595843" lon="14.575167602683967"><ele>123.0</ele><time>2026-05-04T12:35:35Z</time></trkpt><trkpt lat="41.203451612160464" lon="14.57532510397733"><ele>123.0</ele><time>2026-05-04T12:35:36Z</time></trkpt><trkpt lat="41.20354265112131" lon="14.575505563356291"><ele>123.0</ele><time>2026-05-04T12:35:37Z</time></trkpt><trkpt lat="41.20362229658777" lon="14.575691705283964"><ele>125.0</ele><time>2026-05-04T12:35:38Z</time></trkpt><trkpt lat="41.20372924862791" lon="14.57589203193211"><ele>127.0</ele><time>2026-05-04T12:35:39Z</time></trkpt><trkpt lat="41.203835966437865" lon="14.576109241299761"><ele>129.0</ele><time>2026-05-04T12:35:40Z</time></trkpt><trkpt lat="41.20394520079015" lon="14.576320015561013"><ele>127.33333333333334</ele><time>2026-05-04T12:35:41Z</time></trkpt><trkpt lat="41.20404997136385" lon="14.576543233531156"><ele>125.66666666666667</ele><time>2026-05-04T12:35:42Z</time></trkpt><trkpt lat="41.204187101438" lon="14.576780672171168"><ele>124.0</ele><time>2026-05-04T12:35:43Z</time></trkpt><trkpt lat="41.20430417933486" lon="14.577014446098064"><ele>126.5</ele><time>2026-05-04T12:35:44Z</time></trkpt><trkpt lat="41.20442602239028" lon="14.57727828259636"><ele>129.0</ele><time>2026-05-04T12:35:45Z</time></trkpt><trkpt lat="41.204523374609145" lon="14.577562720043558"><ele>130.0</ele><time>2026-05-04T12:35:46Z</time></trkpt><trkpt lat="41.20459405662052" lon="14.577863604910313"><ele>131.0</ele><time>2026-05-04T12:35:47Z</time></trkpt><trkpt lat="41.20465528028831" lon="14.578169926805344"><ele>131.0</ele><time>2026-05-04T12:35:48Z</time></trkpt><trkpt lat="41.204722895956245" lon="14.578470409549094"><ele>131.0</ele><time>2026-05-04T12:35:49Z</time></trkpt><trkpt lat="41.20479869662512" lon="14.578747555193024"><ele>127.0</ele><time>2026-05-04T12:35:50Z</time></trkpt><trkpt lat="41.2048718079791" lon="14.579016121743152"><ele>123.0</ele><time>2026-05-04T12:35:51Z</time></trkpt><trkpt lat="41.20494236016497" lon="14.579301226818226"><ele>119.0</ele><time>2026-05-04T12:35:52Z</time></trkpt><trkpt lat="41.205142799337686" lon="14.57984454448502"><ele>118.5</ele><time>2026-05-04T12:35:53Z</time></trkpt><trkpt lat="41.205246695129546" lon="14.58019848112354"><ele>118.0</ele><time>2026-05-04T12:35:54Z</time></trkpt><trkpt lat="41.2053518436278" lon="14.580529254760641"><ele>119.0</ele><time>2026-05-04T12:35:55Z</time></trkpt><trkpt lat="41.205445174122566" lon="14.580833467360748"><ele>120.0</ele><time>2026-05-04T12:35:56Z</time></trkpt><trkpt lat="41.20553342701042" lon="14.581129369599322"><ele>121.0</ele><time>2026-05-04T12:35:57Z</time></trkpt><trkpt lat="41.20561914881443" lon="14.581427324220156"><ele>122.0</ele><time>2026-05-04T12:35:58Z</time></trkpt><trkpt lat="41.205689643532374" lon="14.581742513005565"><ele>119.5</ele><time>2026-05-04T12:35:59Z</time></trkpt><trkpt lat="41.20573691566642" lon="14.582041234863176"><ele>117.0</ele><time>2026-05-04T12:36:00Z</time></trkpt><trkpt lat="41.20577434829002" lon="14.582331232297614"><ele>117.0</ele><time>2026-05-04T12:36:01Z</time></trkpt><trkpt lat="41.20581298819844" lon="14.582633669062517"><ele>117.0</ele><time>2026-05-04T12:36:02Z</time></trkpt><trkpt lat="41.20585396105379" lon="14.582911916358135"><ele>117.0</ele><time>2026-05-04T12:36:03Z</time></trkpt><trkpt lat="41.205910703946714" lon="14.583163847994859"><ele>116.0</ele><time>2026-05-04T12:36:04Z</time></trkpt><trkpt lat="41.20599227278606" lon="14.583392032320328"><ele>115.0</ele><time>2026-05-04T12:36:05Z</time></trkpt><trkpt lat="41.206137801241674" lon="14.583599037200273"><ele>114.0</ele><time>2026-05-04T12:36:06Z</time></trkpt><trkpt lat="41.20628844037414" lon="14.583812392996931"><ele>112.33333333333334</ele><time>2026-05-04T12:36:07Z</time></trkpt><trkpt lat="41.206428759560495" lon="14.584000182858663"><ele>110.66666666666667</ele><time>2026-05-04T12:36:08Z</time></trkpt><trkpt lat="41.206535813944576" lon="14.584173854263227"><ele>109.0</ele><time>2026-05-04T12:36:09Z</time></trkpt><trkpt lat="41.20660962032238" lon="14.584370203595736"><ele>104.33333333333334</ele><time>2026-05-04T12:36:10Z</time></trkpt><trkpt lat="41.20665762968773" lon="14.584614088867646"><ele>99.66666666666667</ele><time>2026-05-04T12:36:11Z</time></trkpt><trkpt lat="41.20667410835318" lon="14.584904409353081"><ele>95.0</ele><time>2026-05-04T12:36:12Z</time></trkpt><trkpt lat="41.20670709367796" lon="14.58520281671678"><ele>93.33333333333334</ele><time>2026-05-04T12:36:13Z</time></trkpt><trkpt lat="41.20673766984441" lon="14.585504964394714"><ele>91.66666666666667</ele><time>2026-05-04T12:36:14Z</time></trkpt><trkpt lat="41.20675666530406" lon="14.58579144334316"><ele>90.0</ele><time>2026-05-04T12:36:15Z</time></trkpt><trkpt lat="41.20674285854463" lon="14.586091886658073"><ele>86.5</ele><time>2026-05-04T12:36:16Z</time></trkpt><trkpt lat="41.20672169920831" lon="14.586388410274902"><ele>83.0</ele><time>2026-05-04T12:36:17Z</time></trkpt><trkpt lat="41.206691469007055" lon="14.58672946304622"><ele>83.5</ele><time>2026-05-04T12:36:18Z</time></trkpt><trkpt lat="41.20668353151275" lon="14.5870922996238"><ele>84.0</ele><time>2026-05-04T12:36:19Z</time></trkpt><trkpt lat="41.20672136560218" lon="14.587481246622444"><ele>85.5</ele><time>2026-05-04T12:36:20Z</time></trkpt><trkpt lat="41.206761715904705" lon="14.587860553827465"><ele>87.0</ele><time>2026-05-04T12:36:21Z</time></trkpt><trkpt lat="41.206787950942505" lon="14.588240760055777"><ele>87.0</ele><time>2026-05-04T12:36:22Z</time></trkpt><trkpt lat="41.20679408601964" lon="14.58862574562913"><ele>87.0</ele><time>2026-05-04T12:36:23Z</time></trkpt><trkpt lat="41.20680021837946" lon="14.5889698389425"><ele>87.5</ele><time>2026-05-04T12:36:24Z</time></trkpt><trkpt lat="41.20678417785439" lon="14.589289821385908"><ele>88.0</ele><time>2026-05-04T12:36:25Z</time></trkpt><trkpt lat="41.20677506037557" lon="14.589591086796377"><ele>88.33333333333333</ele><time>2026-05-04T12:36:26Z</time></trkpt><trkpt lat="41.20676203907206" lon="14.589880651886746"><ele>88.66666666666667</ele><time>2026-05-04T12:36:27Z</time></trkpt><trkpt lat="41.20674431326595" lon="14.590146737668185"><ele>89.0</ele><time>2026-05-04T12:36:28Z</time></trkpt><trkpt lat="41.20671444909674" lon="14.590409215751247"><ele>89.0</ele><time>2026-05-04T12:36:29Z</time></trkpt><trkpt lat="41.20665883299598" lon="14.590685095131994"><ele>89.0</ele><time>2026-05-04T12:36:29.999Z</time></trkpt><trkpt lat="41.20661184527214" lon="14.59095870973439"><ele>89.0</ele><time>2026-05-04T12:36:30.999Z</time></trkpt><trkpt lat="41.20657365165757" lon="14.591208937144373"><ele>87.33333333333334</ele><time>2026-05-04T12:36:31.999Z</time></trkpt><trkpt lat="41.206536435198785" lon="14.591439992576467"><ele>85.66666666666667</ele><time>2026-05-04T12:36:32.999Z</time></trkpt><trkpt lat="41.20650927825714" lon="14.591672809940244"><ele>84.0</ele><time>2026-05-04T12:36:33.999Z</time></trkpt><trkpt lat="41.20649639471692" lon="14.591923923471231"><ele>83.66666666666667</ele><time>2026-05-04T12:36:34.999Z</time></trkpt><trkpt lat="41.206498676025504" lon="14.59219434311907"><ele>83.33333333333334</ele><time>2026-05-04T12:36:35.999Z</time></trkpt><trkpt lat="41.20652174682307" lon="14.592474214163788"><ele>83.0</ele><time>2026-05-04T12:36:36.999Z</time></trkpt><trkpt lat="41.206538703540716" lon="14.59274986243703"><ele>80.66666666666667</ele><time>2026-05-04T12:36:37.999Z</time></trkpt><trkpt lat="41.20654792898732" lon="14.5930221953575"><ele>78.33333333333333</ele><time>2026-05-04T12:36:38.999Z</time></trkpt><trkpt lat="41.20653435491245" lon="14.593267019921706"><ele>76.0</ele><time>2026-05-04T12:36:39.999Z</time></trkpt><trkpt lat="41.206523672926316" lon="14.59349777946353"><ele>75.0</ele><time>2026-05-04T12:36:40.999Z</time></trkpt><trkpt lat="41.206512717037846" lon="14.593727893783427"><ele>74.0</ele><time>2026-05-04T12:36:41.999Z</time></trkpt><trkpt lat="41.20649566665143" lon="14.593942751933653"><ele>73.0</ele><time>2026-05-04T12:36:42.999Z</time></trkpt><trkpt lat="41.20645881082882" lon="14.594140613935643"><ele>78.33333333333333</ele><time>2026-05-04T12:36:43.999Z</time></trkpt><trkpt lat="41.20637497812382" lon="14.594318458897552"><ele>83.66666666666667</ele><time>2026-05-04T12:36:44.999Z</time></trkpt><trkpt lat="41.206278107586215" lon="14.594513814022736"><ele>89.0</ele><time>2026-05-04T12:36:45.999Z</time></trkpt><trkpt lat="41.20616748023631" lon="14.594740601627802"><ele>89.0</ele><time>2026-05-04T12:36:46.999Z</time></trkpt><trkpt lat="41.20605763240588" lon="14.594999416294804"><ele>89.0</ele><time>2026-05-04T12:36:47.999Z</time></trkpt><trkpt lat="41.20596791847304" lon="14.595247006433128"><ele>89.0</ele><time>2026-05-04T12:36:48.999Z</time></trkpt><trkpt lat="41.20592727238145" lon="14.595479050971859"><ele>90.33333333333334</ele><time>2026-05-04T12:36:49.999Z</time></trkpt><trkpt lat="41.205922971885926" lon="14.595732169960383"><ele>91.66666666666667</ele><time>2026-05-04T12:36:50.999Z</time></trkpt><trkpt lat="41.20594336486821" lon="14.595997709212252"><ele>93.0</ele><time>2026-05-04T12:36:51.999Z</time></trkpt><trkpt lat="41.20593558178078" lon="14.596217826656064"><ele>94.0</ele><time>2026-05-04T12:36:52.999Z</time></trkpt><trkpt lat="41.205872053821594" lon="14.59637553888538"><ele>95.0</ele><time>2026-05-04T12:36:53.999Z</time></trkpt><trkpt lat="41.205780697945144" lon="14.59647219874088"><ele>96.0</ele><time>2026-05-04T12:36:54.999Z</time></trkpt><trkpt lat="41.20566138736145" lon="14.596495806170648"><ele>97.0</ele><time>2026-05-04T12:36:55.999Z</time></trkpt><trkpt lat="41.205527332407854" lon="14.596458360450406"><ele>105.66666666666667</ele><time>2026-05-04T12:36:56.999Z</time></trkpt><trkpt lat="41.20540513551604" lon="14.596377017710665"><ele>114.33333333333334</ele><time>2026-05-04T12:36:57.999Z</time></trkpt><trkpt lat="41.205298085669995" lon="14.596235772384457"><ele>123.0</ele><time>2026-05-04T12:36:58.999Z</time></trkpt><trkpt lat="41.205211347575" lon="14.596031550545238"><ele>123.0</ele><time>2026-05-04T12:36:59.999Z</time></trkpt><trkpt lat="41.20514111321397" lon="14.595778038866253"><ele>123.0</ele><time>2026-05-04T12:37:00.999Z</time></trkpt><trkpt lat="41.205102943358334" lon="14.595517877070568"><ele>123.0</ele><time>2026-05-04T12:37:01.999Z</time></trkpt><trkpt lat="41.205072050720304" lon="14.595249157272631"><ele>122.66666666666666</ele><time>2026-05-04T12:37:02.999Z</time></trkpt><trkpt lat="41.20503282238331" lon="14.594971324913159"><ele>122.33333333333333</ele><time>2026-05-04T12:37:03.999Z</time></trkpt><trkpt lat="41.20499879471268" lon="14.594696739336477"><ele>122.0</ele><time>2026-05-04T12:37:04.999Z</time></trkpt><trkpt lat="41.204992746186775" lon="14.594466398963693"><ele>121.33333333333333</ele><time>2026-05-04T12:37:05.999Z</time></trkpt><trkpt lat="41.204979119146195" lon="14.594249845184113"><ele>120.66666666666666</ele><time>2026-05-04T12:37:06.999Z</time></trkpt><trkpt lat="41.204920324966395" lon="14.594013763355528"><ele>120.0</ele><time>2026-05-04T12:37:07.999Z</time></trkpt><trkpt lat="41.20480831157924" lon="14.59379123244571"><ele>129.33333333333334</ele><time>2026-05-04T12:37:08.999Z</time></trkpt><trkpt lat="41.204689984739574" lon="14.593597982444809"><ele>138.66666666666669</ele><time>2026-05-04T12:37:09.999Z</time></trkpt><trkpt lat="41.204581683131" lon="14.593432207841841"><ele>148.0</ele><time>2026-05-04T12:37:10.999Z</time></trkpt><trkpt lat="41.20453951283395" lon="14.59320078914641"><ele>148.0</ele><time>2026-05-04T12:37:11.999Z</time></trkpt><trkpt lat="41.20450471184146" lon="14.592908975419522"><ele>148.0</ele><time>2026-05-04T12:37:12.999Z</time></trkpt><trkpt lat="41.20447953613165" lon="14.592588863797596"><ele>147.5</ele><time>2026-05-04T12:37:13.999Z</time></trkpt><trkpt lat="41.20443674383695" lon="14.592270841350425"><ele>147.0</ele><time>2026-05-04T12:37:14.999Z</time></trkpt><trkpt lat="41.2043868666702" lon="14.591956042501671"><ele>145.5</ele><time>2026-05-04T12:37:15.999Z</time></trkpt><trkpt lat="41.20433037526344" lon="14.591631613576377"><ele>144.0</ele><time>2026-05-04T12:37:16.999Z</time></trkpt><trkpt lat="41.20424154176597" lon="14.591304828224876"><ele>144.0</ele><time>2026-05-04T12:37:17.999Z</time></trkpt><trkpt lat="41.20412742580123" lon="14.590973229231453"><ele>144.0</ele><time>2026-05-04T12:37:18.999Z</time></trkpt><trkpt lat="41.204019321642086" lon="14.590647443967843"><ele>154.5</ele><time>2026-05-04T12:37:19.999Z</time></trkpt><trkpt lat="41.203926340911835" lon="14.590357048977452"><ele>165.0</ele><time>2026-05-04T12:37:20.999Z</time></trkpt><trkpt lat="41.203833331274964" lon="14.590066763049478"><ele>165.0</ele><time>2026-05-04T12:37:21.999Z</time></trkpt><trkpt lat="41.20372871487949" lon="14.589755090618768"><ele>165.0</ele><time>2026-05-04T12:37:22.999Z</time></trkpt><trkpt lat="41.20363814793614" lon="14.58945536829764"><ele>163.33333333333334</ele><time>2026-05-04T12:37:23.999Z</time></trkpt><trkpt lat="41.20357564626134" lon="14.589194451823964"><ele>161.66666666666669</ele><time>2026-05-04T12:37:24.999Z</time></trkpt><trkpt lat="41.203538919325894" lon="14.588965456992184"><ele>160.0</ele><time>2026-05-04T12:37:25.999Z</time></trkpt><trkpt lat="41.20354670452424" lon="14.58871904052069"><ele>160.33333333333334</ele><time>2026-05-04T12:37:26.999Z</time></trkpt><trkpt lat="41.20357474824129" lon="14.588470948210318"><ele>160.66666666666666</ele><time>2026-05-04T12:37:27.999Z</time></trkpt><trkpt lat="41.203596926398006" lon="14.588232951508022"><ele>161.0</ele><time>2026-05-04T12:37:28.999Z</time></trkpt><trkpt lat="41.203559877429065" lon="14.588001743955742"><ele>160.0</ele><time>2026-05-04T12:37:30Z</time></trkpt><trkpt lat="41.2034589947589" lon="14.58777823100038"><ele>159.0</ele><time>2026-05-04T12:37:31Z</time></trkpt><trkpt lat="41.20332066576979" lon="14.587550935878355"><ele>158.0</ele><time>2026-05-04T12:37:32Z</time></trkpt><trkpt lat="41.20316602298391" lon="14.587331612036852"><ele>167.0</ele><time>2026-05-04T12:37:33Z</time></trkpt><trkpt lat="41.20299903294485" lon="14.587085554309564"><ele>176.0</ele><time>2026-05-04T12:37:34Z</time></trkpt><trkpt lat="41.202867894440516" lon="14.586820395813499"><ele>176.0</ele><time>2026-05-04T12:37:35Z</time></trkpt><trkpt lat="41.20278919699964" lon="14.58657552927452"><ele>176.0</ele><time>2026-05-04T12:37:36Z</time></trkpt><trkpt lat="41.202726162607604" lon="14.586350178568471"><ele>176.0</ele><time>2026-05-04T12:37:37Z</time></trkpt><trkpt lat="41.20263502806129" lon="14.586114748424585"><ele>174.0</ele><time>2026-05-04T12:37:38Z</time></trkpt><trkpt lat="41.20250982031868" lon="14.585879405734198"><ele>172.0</ele><time>2026-05-04T12:37:39Z</time></trkpt><trkpt lat="41.202371638295986" lon="14.585679244310462"><ele>170.0</ele><time>2026-05-04T12:37:40Z</time></trkpt><trkpt lat="41.20220381071697" lon="14.585528968892488"><ele>173.0</ele><time>2026-05-04T12:37:41Z</time></trkpt><trkpt lat="41.202057027374124" lon="14.585358339822086"><ele>176.0</ele><time>2026-05-04T12:37:42Z</time></trkpt><trkpt lat="41.2019559505128" lon="14.585144046649198"><ele>179.0</ele><time>2026-05-04T12:37:43Z</time></trkpt><trkpt lat="41.20185526540559" lon="14.584878535071864"><ele>179.0</ele><time>2026-05-04T12:37:44Z</time></trkpt><trkpt lat="41.201751432319476" lon="14.584606981802072"><ele>179.0</ele><time>2026-05-04T12:37:45Z</time></trkpt><trkpt lat="41.20163733310986" lon="14.584342396882628"><ele>180.66666666666666</ele><time>2026-05-04T12:37:46Z</time></trkpt><trkpt lat="41.20152019398953" lon="14.584088340115137"><ele>182.33333333333334</ele><time>2026-05-04T12:37:47Z</time></trkpt><trkpt lat="41.20138545242857" lon="14.583872707483629"><ele>184.0</ele><time>2026-05-04T12:37:48Z</time></trkpt><trkpt lat="41.20129082466995" lon="14.583678557128591"><ele>184.0</ele><time>2026-05-04T12:37:49Z</time></trkpt><trkpt lat="41.201230655859874" lon="14.583499836968727"><ele>184.0</ele><time>2026-05-04T12:37:50Z</time></trkpt><trkpt lat="41.20120737945726" lon="14.583266721072134"><ele>184.0</ele><time>2026-05-04T12:37:51Z</time></trkpt><trkpt lat="41.201296099684136" lon="14.583007063072403"><ele>184.0</ele><time>2026-05-04T12:37:52Z</time></trkpt><trkpt lat="41.201302256074754" lon="14.582746075449597"><ele>184.0</ele><time>2026-05-04T12:37:53Z</time></trkpt><trkpt lat="41.20132101515192" lon="14.582494367992997"><ele>184.0</ele><time>2026-05-04T12:37:54Z</time></trkpt><trkpt lat="41.201337494126896" lon="14.582247113865076"><ele>184.33333333333334</ele><time>2026-05-04T12:37:55Z</time></trkpt><trkpt lat="41.2013342736018" lon="14.581986267504142"><ele>184.66666666666666</ele><time>2026-05-04T12:37:56Z</time></trkpt><trkpt lat="41.2013040411654" lon="14.581707813625222"><ele>185.0</ele><time>2026-05-04T12:37:57Z</time></trkpt><trkpt lat="41.201273647110426" lon="14.58146167307971"><ele>185.0</ele><time>2026-05-04T12:37:58Z</time></trkpt><trkpt lat="41.20125378655585" lon="14.581264215461264"><ele>185.0</ele><time>2026-05-04T12:37:59Z</time></trkpt><trkpt lat="41.20121773100084" lon="14.581124603733473"><ele>185.0</ele><time>2026-05-04T12:38:00Z</time></trkpt><trkpt lat="41.20114960379394" lon="14.581043849828491"><ele>185.0</ele><time>2026-05-04T12:38:01Z</time></trkpt><trkpt lat="41.20104523621319" lon="14.581027738894065"><ele>185.0</ele><time>2026-05-04T12:38:02Z</time></trkpt><trkpt lat="41.200963516267116" lon="14.58110930373008"><ele>185.0</ele><time>2026-05-04T12:38:03Z</time></trkpt><trkpt lat="41.200903550757" lon="14.581246636101808"><ele>185.0</ele><time>2026-05-04T12:38:04Z</time></trkpt><trkpt lat="41.20085591786197" lon="14.581436682962451"><ele>185.0</ele><time>2026-05-04T12:38:05Z</time></trkpt><trkpt lat="41.200820616812365" lon="14.581700562071367"><ele>185.0</ele><time>2026-05-04T12:38:06Z</time></trkpt><trkpt lat="41.20079968066539" lon="14.581977697389375"><ele>185.0</ele><time>2026-05-04T12:38:07Z</time></trkpt><trkpt lat="41.200791945127484" lon="14.58225894741275"><ele>185.0</ele><time>2026-05-04T12:38:08Z</time></trkpt><trkpt lat="41.20074886599945" lon="14.582554715852233"><ele>184.66666666666666</ele><time>2026-05-04T12:38:09Z</time></trkpt><trkpt lat="41.200695149467144" lon="14.582813707832386"><ele>184.33333333333334</ele><time>2026-05-04T12:38:10Z</time></trkpt><trkpt lat="41.20061351969896" lon="14.583061704230873"><ele>184.0</ele><time>2026-05-04T12:38:11Z</time></trkpt><trkpt lat="41.20049355784287" lon="14.583333218920572"><ele>189.66666666666669</ele><time>2026-05-04T12:38:12Z</time></trkpt><trkpt lat="41.200406278679246" lon="14.583571695855444"><ele>195.33333333333334</ele><time>2026-05-04T12:38:13Z</time></trkpt><trkpt lat="41.20038744622708" lon="14.583777804828753"><ele>201.0</ele><time>2026-05-04T12:38:14Z</time></trkpt><trkpt lat="41.200416663850355" lon="14.583998272570797"><ele>200.66666666666669</ele><time>2026-05-04T12:38:15Z</time></trkpt><trkpt lat="41.20048925285185" lon="14.584235901465869"><ele>200.33333333333334</ele><time>2026-05-04T12:38:16Z</time></trkpt><trkpt lat="41.20062789738722" lon="14.5845049650466"><ele>200.0</ele><time>2026-05-04T12:38:17Z</time></trkpt><trkpt lat="41.20073184553258" lon="14.584805501247013"><ele>200.0</ele><time>2026-05-04T12:38:18Z</time></trkpt><trkpt lat="41.20080756641148" lon="14.585093546390219"><ele>200.0</ele><time>2026-05-04T12:38:19Z</time></trkpt><trkpt lat="41.200862432029226" lon="14.585348258297236"><ele>200.0</ele><time>2026-05-04T12:38:20Z</time></trkpt><trkpt lat="41.200920024677366" lon="14.585632794964855"><ele>205.5</ele><time>2026-05-04T12:38:21Z</time></trkpt><trkpt lat="41.20098883160887" lon="14.585919472535904"><ele>211.0</ele><time>2026-05-04T12:38:22Z</time></trkpt><trkpt lat="41.20107115068607" lon="14.586219229215464"><ele>214.66666666666666</ele><time>2026-05-04T12:38:23Z</time></trkpt><trkpt lat="41.20116826590364" lon="14.586513921323874"><ele>218.33333333333331</ele><time>2026-05-04T12:38:24Z</time></trkpt><trkpt lat="41.20125994769257" lon="14.586758447989286"><ele>222.0</ele><time>2026-05-04T12:38:25Z</time></trkpt><trkpt lat="41.20135465595439" lon="14.586943981175745"><ele>224.39999999999998</ele><time>2026-05-04T12:38:26Z</time></trkpt><trkpt lat="41.201443034990795" lon="14.587089113336047"><ele>226.79999999999998</ele><time>2026-05-04T12:38:27Z</time></trkpt><trkpt lat="41.201507759860895" lon="14.58720712545861"><ele>229.2</ele><time>2026-05-04T12:38:28Z</time></trkpt><trkpt lat="41.20155037063905" lon="14.587327737430392"><ele>231.6</ele><time>2026-05-04T12:38:29Z</time></trkpt><trkpt lat="41.20149724375104" lon="14.587416488306586"><ele>234.0</ele><time>2026-05-04T12:38:30Z</time></trkpt><trkpt lat="41.20140221066884" lon="14.587479112692662"><ele>234.0</ele><time>2026-05-04T12:38:31Z</time></trkpt><trkpt lat="41.201290237424715" lon="14.587437030837991"><ele>234.0</ele><time>2026-05-04T12:38:32Z</time></trkpt><trkpt lat="41.20121111077569" lon="14.587323779858435"><ele>234.0</ele><time>2026-05-04T12:38:33Z</time></trkpt><trkpt lat="41.201145883366024" lon="14.587141541090364"><ele>234.0</ele><time>2026-05-04T12:38:33.999Z</time></trkpt><trkpt lat="41.20106675336016" lon="14.586950349195169"><ele>230.0</ele><time>2026-05-04T12:38:34.999Z</time></trkpt><trkpt lat="41.20095523903514" lon="14.586762165951201"><ele>226.0</ele><time>2026-05-04T12:38:35.999Z</time></trkpt><trkpt lat="41.20081331089894" lon="14.586544410374719"><ele>222.0</ele><time>2026-05-04T12:38:36.999Z</time></trkpt><trkpt lat="41.200673246800925" lon="14.586315553508717"><ele>229.5</ele><time>2026-05-04T12:38:37.999Z</time></trkpt><trkpt lat="41.20051205470418" lon="14.586081189197543"><ele>237.0</ele><time>2026-05-04T12:38:38.999Z</time></trkpt><trkpt lat="41.200350558320814" lon="14.585864776734434"><ele>237.0</ele><time>2026-05-04T12:38:39.999Z</time></trkpt><trkpt lat="41.20016221112216" lon="14.585647153883206"><ele>237.0</ele><time>2026-05-04T12:38:40.999Z</time></trkpt><trkpt lat="41.19996716646463" lon="14.585427286357145"><ele>246.0</ele><time>2026-05-04T12:38:41.999Z</time></trkpt><trkpt lat="41.19976755719253" lon="14.585188686466319"><ele>255.0</ele><time>2026-05-04T12:38:42.999Z</time></trkpt><trkpt lat="41.19956298899249" lon="14.584937949740015"><ele>255.0</ele><time>2026-05-04T12:38:43.999Z</time></trkpt><trkpt lat="41.19936362687759" lon="14.584669591876867"><ele>255.0</ele><time>2026-05-04T12:38:44.999Z</time></trkpt><trkpt lat="41.19917214683237" lon="14.584380217478273"><ele>264.0</ele><time>2026-05-04T12:38:45.999Z</time></trkpt><trkpt lat="41.19900539537603" lon="14.584114085496704"><ele>273.0</ele><time>2026-05-04T12:38:46.999Z</time></trkpt><trkpt lat="41.19883202576932" lon="14.583887666770199"><ele>273.0</ele><time>2026-05-04T12:38:47.999Z</time></trkpt><trkpt lat="41.1986470058467" lon="14.583683438130702"><ele>273.0</ele><time>2026-05-04T12:38:48.999Z</time></trkpt><trkpt lat="41.198439101709184" lon="14.583487858026174"><ele>274.5</ele><time>2026-05-04T12:38:49.999Z</time></trkpt><trkpt lat="41.19822394804302" lon="14.583287617536094"><ele>276.0</ele><time>2026-05-04T12:38:50.999Z</time></trkpt><trkpt lat="41.19798560735782" lon="14.583104156554855"><ele>276.0</ele><time>2026-05-04T12:38:51.999Z</time></trkpt><trkpt lat="41.197745589057575" lon="14.582926921010886"><ele>276.0</ele><time>2026-05-04T12:38:52.999Z</time></trkpt><trkpt lat="41.19754220532039" lon="14.58277579719588"><ele>272.3333333333333</ele><time>2026-05-04T12:38:53.999Z</time></trkpt><trkpt lat="41.19736061371585" lon="14.582656944806972"><ele>268.66666666666663</ele><time>2026-05-04T12:38:54.999Z</time></trkpt><trkpt lat="41.1972059319691" lon="14.582562984998987"><ele>265.0</ele><time>2026-05-04T12:38:55.999Z</time></trkpt><trkpt lat="41.19705958028723" lon="14.58250853613136"><ele>265.0</ele><time>2026-05-04T12:38:56.999Z</time></trkpt><trkpt lat="41.196924063678836" lon="14.582499675889173"><ele>265.0</ele><time>2026-05-04T12:38:57.999Z</time></trkpt><trkpt lat="41.19681712427286" lon="14.582486882260913"><ele>265.0</ele><time>2026-05-04T12:38:58.999Z</time></trkpt><trkpt lat="41.196721021959576" lon="14.582404893803018"><ele>265.0</ele><time>2026-05-04T12:38:59.999Z</time></trkpt><trkpt lat="41.19663592132668" lon="14.582249029032722"><ele>265.0</ele><time>2026-05-04T12:39:00.999Z</time></trkpt><trkpt lat="41.196557081870985" lon="14.582112801666582"><ele>265.0</ele><time>2026-05-04T12:39:01.999Z</time></trkpt><trkpt lat="41.19649838708312" lon="14.582051339909363"><ele>265.0</ele><time>2026-05-04T12:39:02.999Z</time></trkpt><trkpt lat="41.19643316452591" lon="14.582042359422015"><ele>265.0</ele><time>2026-05-04T12:39:03.999Z</time></trkpt><trkpt lat="41.196369635278934" lon="14.582118449526043"><ele>265.0</ele><time>2026-05-04T12:39:04.999Z</time></trkpt><trkpt lat="41.19633637655466" lon="14.58224635973728"><ele>265.0</ele><time>2026-05-04T12:39:05.999Z</time></trkpt><trkpt lat="41.196357336625994" lon="14.582418141329807"><ele>265.0</ele><time>2026-05-04T12:39:06.999Z</time></trkpt><trkpt lat="41.196431521264046" lon="14.582592692506477"><ele>265.0</ele><time>2026-05-04T12:39:07.999Z</time></trkpt><trkpt lat="41.196545145691935" lon="14.582752684204717"><ele>265.0</ele><time>2026-05-04T12:39:08.999Z</time></trkpt><trkpt lat="41.19669215553645" lon="14.582857721644679"><ele>274.3333333333333</ele><time>2026-05-04T12:39:09.999Z</time></trkpt><trkpt lat="41.19685649168107" lon="14.58293780497613"><ele>283.6666666666667</ele><time>2026-05-04T12:39:10.999Z</time></trkpt><trkpt lat="41.197000971509446" lon="14.583043952639585"><ele>293.0</ele><time>2026-05-04T12:39:11.999Z</time></trkpt><trkpt lat="41.197118784861466" lon="14.583228160599186"><ele>293.0</ele><time>2026-05-04T12:39:12.999Z</time></trkpt><trkpt lat="41.19724993172667" lon="14.58345838482465"><ele>293.0</ele><time>2026-05-04T12:39:13.999Z</time></trkpt><trkpt lat="41.19739583664935" lon="14.583676986355284"><ele>293.0</ele><time>2026-05-04T12:39:14.999Z</time></trkpt><trkpt lat="41.1975645754886" lon="14.583879668870326"><ele>299.5</ele><time>2026-05-04T12:39:15.999Z</time></trkpt><trkpt lat="41.19776259156635" lon="14.58408045772558"><ele>306.0</ele><time>2026-05-04T12:39:16.999Z</time></trkpt><trkpt lat="41.19794665351114" lon="14.58428683828411"><ele>306.0</ele><time>2026-05-04T12:39:17.999Z</time></trkpt><trkpt lat="41.19807751230372" lon="14.584512794530653"><ele>306.0</ele><time>2026-05-04T12:39:18.999Z</time></trkpt><trkpt lat="41.19817754642786" lon="14.584772802213557"><ele>306.0</ele><time>2026-05-04T12:39:19.999Z</time></trkpt><trkpt lat="41.19824840370059" lon="14.585088028714106"><ele>307.6666666666667</ele><time>2026-05-04T12:39:20.999Z</time></trkpt><trkpt lat="41.19826876940565" lon="14.585365713717792"><ele>309.33333333333337</ele><time>2026-05-04T12:39:21.999Z</time></trkpt><trkpt lat="41.19825168336053" lon="14.585639342308646"><ele>311.0</ele><time>2026-05-04T12:39:22.999Z</time></trkpt><trkpt lat="41.19820258160165" lon="14.585912428156535"><ele>311.0</ele><time>2026-05-04T12:39:23.999Z</time></trkpt><trkpt lat="41.19817788173238" lon="14.586145502177954"><ele>311.0</ele><time>2026-05-04T12:39:24.999Z</time></trkpt><trkpt lat="41.19822393473312" lon="14.586332469930197"><ele>311.0</ele><time>2026-05-04T12:39:25.999Z</time></trkpt><trkpt lat="41.198314945391" lon="14.586522531198575"><ele>321.5</ele><time>2026-05-04T12:39:26.999Z</time></trkpt><trkpt lat="41.198477325318876" lon="14.586726881130126"><ele>332.0</ele><time>2026-05-04T12:39:27.999Z</time></trkpt><trkpt lat="41.19863057045847" lon="14.586968240404657"><ele>345.0</ele><time>2026-05-04T12:39:28.999Z</time></trkpt><trkpt lat="41.198750411853126" lon="14.587259763426438"><ele>358.0</ele><time>2026-05-04T12:39:29.999Z</time></trkpt><trkpt lat="41.19884694156079" lon="14.587587162082619"><ele>368.5</ele><time>2026-05-04T12:39:30.999Z</time></trkpt><trkpt lat="41.19895230144757" lon="14.587902678250256"><ele>379.0</ele><time>2026-05-04T12:39:31.999Z</time></trkpt><trkpt lat="41.1990342992551" lon="14.588290687191055"><ele>362.5</ele><time>2026-05-04T12:39:32.999Z</time></trkpt><trkpt lat="41.19909266337572" lon="14.588709498066812"><ele>346.0</ele><time>2026-05-04T12:39:33.999Z</time></trkpt><trkpt lat="41.199137936142755" lon="14.589136168041287"><ele>346.0</ele><time>2026-05-04T12:39:34.999Z</time></trkpt><trkpt lat="41.19915817829284" lon="14.589464643734052"><ele>346.0</ele><time>2026-05-04T12:39:36Z</time></trkpt><trkpt lat="41.19921444843139" lon="14.589783068102882"><ele>351.66666666666663</ele><time>2026-05-04T12:39:37Z</time></trkpt><trkpt lat="41.19929176679828" lon="14.590058998942606"><ele>357.3333333333333</ele><time>2026-05-04T12:39:38Z</time></trkpt><trkpt lat="41.19935428784184" lon="14.590283705750567"><ele>363.0</ele><time>2026-05-04T12:39:39Z</time></trkpt><trkpt lat="41.199421755704165" lon="14.590422563456395"><ele>366.2</ele><time>2026-05-04T12:39:40Z</time></trkpt><trkpt lat="41.19945240841995" lon="14.590513385209997"><ele>369.4</ele><time>2026-05-04T12:39:41Z</time></trkpt><trkpt lat="41.1994185852285" lon="14.590591148802309"><ele>372.59999999999997</ele><time>2026-05-04T12:39:42Z</time></trkpt><trkpt lat="41.19932223472244" lon="14.590633113999564"><ele>375.79999999999995</ele><time>2026-05-04T12:39:43Z</time></trkpt><trkpt lat="41.19921207493042" lon="14.590582382540502"><ele>379.0</ele><time>2026-05-04T12:39:44Z</time></trkpt><trkpt lat="41.19915305226106" lon="14.590447047007975"><ele>373.66666666666663</ele><time>2026-05-04T12:39:45Z</time></trkpt><trkpt lat="41.199123942687926" lon="14.59027793671345"><ele>368.3333333333333</ele><time>2026-05-04T12:39:46Z</time></trkpt><trkpt lat="41.199058202807336" lon="14.59008472187515"><ele>363.0</ele><time>2026-05-04T12:39:47Z</time></trkpt><trkpt lat="41.19896943843393" lon="14.589868606788128"><ele>374.66666666666663</ele><time>2026-05-04T12:39:48Z</time></trkpt><trkpt lat="41.19888152040864" lon="14.589651784067547"><ele>386.3333333333333</ele><time>2026-05-04T12:39:49Z</time></trkpt><trkpt lat="41.19877375256157" lon="14.589381919357393"><ele>398.0</ele><time>2026-05-04T12:39:50Z</time></trkpt><trkpt lat="41.198656186996885" lon="14.589118495390991"><ele>398.0</ele><time>2026-05-04T12:39:51Z</time></trkpt><trkpt lat="41.19852759808281" lon="14.58882824794419"><ele>398.0</ele><time>2026-05-04T12:39:52Z</time></trkpt><trkpt lat="41.19840350738398" lon="14.588518955005462"><ele>388.5</ele><time>2026-05-04T12:39:53Z</time></trkpt><trkpt lat="41.198268990269064" lon="14.588204274094604"><ele>379.0</ele><time>2026-05-04T12:39:54Z</time></trkpt><trkpt lat="41.19812296534761" lon="14.587919292591268"><ele>391.0</ele><time>2026-05-04T12:39:55Z</time></trkpt><trkpt lat="41.197923724049716" lon="14.587632486889246"><ele>403.0</ele><time>2026-05-04T12:39:56Z</time></trkpt><trkpt lat="41.197729196969725" lon="14.587337025420734"><ele>403.0</ele><time>2026-05-04T12:39:57Z</time></trkpt><trkpt lat="41.197539376333026" lon="14.587080268432096"><ele>403.0</ele><time>2026-05-04T12:39:58Z</time></trkpt><trkpt lat="41.19736826827936" lon="14.58684039920976"><ele>408.6666666666667</ele><time>2026-05-04T12:39:59Z</time></trkpt><trkpt lat="41.19720642784115" lon="14.586626624546803"><ele>414.33333333333337</ele><time>2026-05-04T12:40:00Z</time></trkpt><trkpt lat="41.19707006508093" lon="14.58642404770401"><ele>420.0</ele><time>2026-05-04T12:40:01Z</time></trkpt><trkpt lat="41.1969721018884" lon="14.586236142153524"><ele>414.8</ele><time>2026-05-04T12:40:02Z</time></trkpt><trkpt lat="41.196925865638605" lon="14.586072464377722"><ele>409.6</ele><time>2026-05-04T12:40:03Z</time></trkpt><trkpt lat="41.196890039426755" lon="14.585965855294923"><ele>404.4</ele><time>2026-05-04T12:40:04Z</time></trkpt><trkpt lat="41.196815968941046" lon="14.585922984027427"><ele>399.2</ele><time>2026-05-04T12:40:05Z</time></trkpt><trkpt lat="41.19671931771338" lon="14.585958855358001"><ele>394.0</ele><time>2026-05-04T12:40:06Z</time></trkpt><trkpt lat="41.196654706210616" lon="14.586074984918826"><ele>400.5</ele><time>2026-05-04T12:40:07Z</time></trkpt><trkpt lat="41.196673512979935" lon="14.586232254645466"><ele>407.0</ele><time>2026-05-04T12:40:08Z</time></trkpt><trkpt lat="41.19675972371096" lon="14.586378671009648"><ele>413.5</ele><time>2026-05-04T12:40:09Z</time></trkpt><trkpt lat="41.19687169524007" lon="14.58654494651539"><ele>420.0</ele><time>2026-05-04T12:40:10Z</time></trkpt><trkpt lat="41.19697699252514" lon="14.586752005649517"><ele>420.0</ele><time>2026-05-04T12:40:11Z</time></trkpt><trkpt lat="41.19708487391808" lon="14.587001323188128"><ele>420.0</ele><time>2026-05-04T12:40:12Z</time></trkpt><trkpt lat="41.19719826148091" lon="14.587260611240694"><ele>420.0</ele><time>2026-05-04T12:40:13Z</time></trkpt><trkpt lat="41.19733304006109" lon="14.587540295998963"><ele>427.5</ele><time>2026-05-04T12:40:14Z</time></trkpt><trkpt lat="41.19747859843865" lon="14.587846848862977"><ele>435.0</ele><time>2026-05-04T12:40:15Z</time></trkpt><trkpt lat="41.19760748819529" lon="14.588171295294277"><ele>435.0</ele><time>2026-05-04T12:40:16Z</time></trkpt><trkpt lat="41.19773514257631" lon="14.588513017075845"><ele>435.0</ele><time>2026-05-04T12:40:17Z</time></trkpt><trkpt lat="41.19784756341141" lon="14.588884253981153"><ele>445.5</ele><time>2026-05-04T12:40:18Z</time></trkpt><trkpt lat="41.19794506783811" lon="14.589283052497787"><ele>456.0</ele><time>2026-05-04T12:40:19Z</time></trkpt><trkpt lat="41.198004414835715" lon="14.589730355828747"><ele>463.5</ele><time>2026-05-04T12:40:20Z</time></trkpt><trkpt lat="41.19807153311551" lon="14.590153714560875"><ele>471.0</ele><time>2026-05-04T12:40:21Z</time></trkpt><trkpt lat="41.19816307047899" lon="14.590573227571378"><ele>455.5</ele><time>2026-05-04T12:40:22Z</time></trkpt><trkpt lat="41.198238200387124" lon="14.590948397408756"><ele>440.0</ele><time>2026-05-04T12:40:23Z</time></trkpt><trkpt lat="41.19829121586818" lon="14.591334501862294"><ele>440.0</ele><time>2026-05-04T12:40:24Z</time></trkpt><trkpt lat="41.198309093027575" lon="14.591699503837782"><ele>440.0</ele><time>2026-05-04T12:40:25Z</time></trkpt><trkpt lat="41.1983164525483" lon="14.592069586842449"><ele>443.5</ele><time>2026-05-04T12:40:26Z</time></trkpt><trkpt lat="41.19829976587886" lon="14.592448479442757"><ele>447.0</ele><time>2026-05-04T12:40:27Z</time></trkpt><trkpt lat="41.19829493573909" lon="14.592847080314938"><ele>450.0</ele><time>2026-05-04T12:40:28Z</time></trkpt><trkpt lat="41.19828093523516" lon="14.593270519335254"><ele>453.0</ele><time>2026-05-04T12:40:29Z</time></trkpt><trkpt lat="41.198275689384985" lon="14.593680580917008"><ele>454.0</ele><time>2026-05-04T12:40:30Z</time></trkpt><trkpt lat="41.19826956006086" lon="14.594075678442461"><ele>455.0</ele><time>2026-05-04T12:40:31Z</time></trkpt><trkpt lat="41.198246008482066" lon="14.594483980159726"><ele>455.0</ele><time>2026-05-04T12:40:32Z</time></trkpt><trkpt lat="41.19819182027541" lon="14.594895652524732"><ele>455.0</ele><time>2026-05-04T12:40:33Z</time></trkpt><trkpt lat="41.198133603743074" lon="14.595257755324143"><ele>488.0</ele><time>2026-05-04T12:40:34Z</time></trkpt><trkpt lat="41.198096168339845" lon="14.595582338126556"><ele>521.0</ele><time>2026-05-04T12:40:35Z</time></trkpt><trkpt lat="41.19806346414023" lon="14.59587750894021"><ele>521.0</ele><time>2026-05-04T12:40:36Z</time></trkpt><trkpt lat="41.198020531988355" lon="14.596157405048162"><ele>521.0</ele><time>2026-05-04T12:40:37Z</time></trkpt><trkpt lat="41.19798108732079" lon="14.596418381495512"><ele>521.0</ele><time>2026-05-04T12:40:38Z</time></trkpt><trkpt lat="41.19793841487197" lon="14.596635338304095"><ele>518.6</ele><time>2026-05-04T12:40:39Z</time></trkpt><trkpt lat="41.197917416928156" lon="14.596824612410234"><ele>516.2</ele><time>2026-05-04T12:40:40Z</time></trkpt><trkpt lat="41.1979207448312" lon="14.596975870543114"><ele>513.8</ele><time>2026-05-04T12:40:41Z</time></trkpt><trkpt lat="41.19790166845403" lon="14.597086878560681"><ele>511.4</ele><time>2026-05-04T12:40:42Z</time></trkpt><trkpt lat="41.19784411998897" lon="14.59715514744775"><ele>509.0</ele><time>2026-05-04T12:40:43Z</time></trkpt><trkpt lat="41.19775430078605" lon="14.597125127073456"><ele>509.0</ele><time>2026-05-04T12:40:44Z</time></trkpt><trkpt lat="41.19769496674506" lon="14.597006288664424"><ele>509.0</ele><time>2026-05-04T12:40:45Z</time></trkpt><trkpt lat="41.19773440328864" lon="14.596829925706531"><ele>509.0</ele><time>2026-05-04T12:40:46Z</time></trkpt><trkpt lat="41.19780170729003" lon="14.59665663606954"><ele>509.0</ele><time>2026-05-04T12:40:47Z</time></trkpt><trkpt lat="41.19787117453629" lon="14.596456413484658"><ele>509.0</ele><time>2026-05-04T12:40:47.999Z</time></trkpt><trkpt lat="41.19789324559571" lon="14.596222969735043"><ele>509.0</ele><time>2026-05-04T12:40:48.999Z</time></trkpt><trkpt lat="41.19789154673233" lon="14.59593706166424"><ele>509.0</ele><time>2026-05-04T12:40:49.999Z</time></trkpt><trkpt lat="41.19784950572571" lon="14.595656940090985"><ele>515.0</ele><time>2026-05-04T12:40:50.999Z</time></trkpt><trkpt lat="41.19782459833951" lon="14.595347353310991"><ele>521.0</ele><time>2026-05-04T12:40:51.999Z</time></trkpt><trkpt lat="41.19780035084834" lon="14.595008344052898"><ele>522.0</ele><time>2026-05-04T12:40:52.999Z</time></trkpt><trkpt lat="41.19778791555454" lon="14.594655339399836"><ele>523.0</ele><time>2026-05-04T12:40:53.999Z</time></trkpt><trkpt lat="41.19776586199958" lon="14.59429542817214"><ele>523.0</ele><time>2026-05-04T12:40:54.999Z</time></trkpt><trkpt lat="41.19769216544305" lon="14.59398593416486"><ele>523.0</ele><time>2026-05-04T12:40:55.999Z</time></trkpt><trkpt lat="41.19761573453292" lon="14.593678858330243"><ele>517.0</ele><time>2026-05-04T12:40:56.999Z</time></trkpt><trkpt lat="41.19750473207254" lon="14.593391119475575"><ele>511.0</ele><time>2026-05-04T12:40:57.999Z</time></trkpt><trkpt lat="41.19738535697764" lon="14.59308693081909"><ele>543.5</ele><time>2026-05-04T12:40:58.999Z</time></trkpt><trkpt lat="41.19729742899698" lon="14.592733737262101"><ele>576.0</ele><time>2026-05-04T12:40:59.999Z</time></trkpt><trkpt lat="41.19723105618311" lon="14.592336913511819"><ele>569.5</ele><time>2026-05-04T12:41:00.999Z</time></trkpt><trkpt lat="41.19714125415136" lon="14.591928763285827"><ele>563.0</ele><time>2026-05-04T12:41:01.999Z</time></trkpt><trkpt lat="41.19707078188627" lon="14.591584212508284"><ele>563.0</ele><time>2026-05-04T12:41:02.999Z</time></trkpt><trkpt lat="41.196983255177145" lon="14.591248606718137"><ele>563.0</ele><time>2026-05-04T12:41:03.999Z</time></trkpt><trkpt lat="41.19687577980257" lon="14.59091263050241"><ele>556.5</ele><time>2026-05-04T12:41:04.999Z</time></trkpt><trkpt lat="41.19672565546102" lon="14.590576660324762"><ele>550.0</ele><time>2026-05-04T12:41:05.999Z</time></trkpt><trkpt lat="41.196582424636716" lon="14.590251491367228"><ele>556.3333333333334</ele><time>2026-05-04T12:41:06.999Z</time></trkpt><trkpt lat="41.19646262323903" lon="14.589984952414172"><ele>562.6666666666666</ele><time>2026-05-04T12:41:07.999Z</time></trkpt><trkpt lat="41.19634897420602" lon="14.589751624271628"><ele>569.0</ele><time>2026-05-04T12:41:08.999Z</time></trkpt><trkpt lat="41.196229190021754" lon="14.589558762829592"><ele>557.0</ele><time>2026-05-04T12:41:09.999Z</time></trkpt><trkpt lat="41.196068770654506" lon="14.589392696356585"><ele>545.0</ele><time>2026-05-04T12:41:10.999Z</time></trkpt><trkpt lat="41.19588512397888" lon="14.58930093643711"><ele>533.0</ele><time>2026-05-04T12:41:11.999Z</time></trkpt><trkpt lat="41.19569223155541" lon="14.58926849708915"><ele>529.3333333333333</ele><time>2026-05-04T12:41:12.999Z</time></trkpt><trkpt lat="41.19551501390927" lon="14.589315287147977"><ele>525.6666666666666</ele><time>2026-05-04T12:41:13.999Z</time></trkpt><trkpt lat="41.19534567804601" lon="14.58943097241709"><ele>522.0</ele><time>2026-05-04T12:41:14.999Z</time></trkpt><trkpt lat="41.19518034206787" lon="14.589598923898862"><ele>521.6666666666666</ele><time>2026-05-04T12:41:15.999Z</time></trkpt><trkpt lat="41.195017134116405" lon="14.589792971318923"><ele>521.3333333333333</ele><time>2026-05-04T12:41:16.999Z</time></trkpt><trkpt lat="41.1948519973103" lon="14.590006523080639"><ele>521.0</ele><time>2026-05-04T12:41:17.999Z</time></trkpt><trkpt lat="41.1946927716602" lon="14.590236206247464"><ele>539.5</ele><time>2026-05-04T12:41:18.999Z</time></trkpt><trkpt lat="41.19454531257742" lon="14.590476992553237"><ele>558.0</ele><time>2026-05-04T12:41:19.999Z</time></trkpt><trkpt lat="41.19440210967952" lon="14.590724622575127"><ele>558.0</ele><time>2026-05-04T12:41:20.999Z</time></trkpt><trkpt lat="41.19425504855402" lon="14.590968466933607"><ele>558.0</ele><time>2026-05-04T12:41:21.999Z</time></trkpt><trkpt lat="41.19411914194479" lon="14.5911633357314"><ele>558.0</ele><time>2026-05-04T12:41:22.999Z</time></trkpt><trkpt lat="41.19399010244493" lon="14.591325058722381"><ele>558.0</ele><time>2026-05-04T12:41:23.999Z</time></trkpt><trkpt lat="41.19388307215004" lon="14.591472312455705"><ele>558.0</ele><time>2026-05-04T12:41:24.999Z</time></trkpt><trkpt lat="41.19378716909286" lon="14.591600482749417"><ele>558.0</ele><time>2026-05-04T12:41:25.999Z</time></trkpt><trkpt lat="41.19369857140773" lon="14.59171038812091"><ele>558.0</ele><time>2026-05-04T12:41:26.999Z</time></trkpt><trkpt lat="41.19363351878015" lon="14.591793877477606"><ele>558.0</ele><time>2026-05-04T12:41:27.999Z</time></trkpt><trkpt lat="41.193564942685065" lon="14.591891453939468"><ele>558.0</ele><time>2026-05-04T12:41:29.999Z</time></trkpt><trkpt lat="41.19351556693641" lon="14.592070582289244"><ele>558.0</ele><time>2026-05-04T12:47:57.999Z</time></trkpt><trkpt lat="41.19347082461818" lon="14.59214762409453"><ele>558.0</ele><time>2026-05-04T12:47:58.999Z</time></trkpt><trkpt lat="41.19341442684994" lon="14.592230373986705"><ele>558.0</ele><time>2026-05-04T12:47:59.999Z</time></trkpt><trkpt lat="41.19335658036801" lon="14.5923095122479"><ele>560.6</ele><time>2026-05-04T12:48:00.999Z</time></trkpt><trkpt lat="41.193290269847786" lon="14.59240130427425"><ele>563.1999999999999</ele><time>2026-05-04T12:48:01.999Z</time></trkpt><trkpt lat="41.193225834423465" lon="14.59249258375567"><ele>565.8</ele><time>2026-05-04T12:48:02.999Z</time></trkpt><trkpt lat="41.19311272796159" lon="14.592545327015626"><ele>568.4</ele><time>2026-05-04T12:48:03.999Z</time></trkpt><trkpt lat="41.19303312652867" lon="14.592632867719162"><ele>571.0</ele><time>2026-05-04T12:48:04.999Z</time></trkpt><trkpt lat="41.19292800669603" lon="14.592702677848557"><ele>571.0</ele><time>2026-05-04T12:48:05.999Z</time></trkpt><trkpt lat="41.19282178616355" lon="14.592766816331476"><ele>571.0</ele><time>2026-05-04T12:48:06.999Z</time></trkpt><trkpt lat="41.19271367124196" lon="14.592839010371023"><ele>571.0</ele><time>2026-05-04T12:48:07.999Z</time></trkpt><trkpt lat="41.19258945185377" lon="14.592895845878054"><ele>571.0</ele><time>2026-05-04T12:48:08.999Z</time></trkpt><trkpt lat="41.19247729627032" lon="14.59296859338606"><ele>572.0</ele><time>2026-05-04T12:48:09.999Z</time></trkpt><trkpt lat="41.19236347769816" lon="14.593055634978453"><ele>573.0</ele><time>2026-05-04T12:48:10.999Z</time></trkpt><trkpt lat="41.192259126675545" lon="14.593155779615483"><ele>574.0</ele><time>2026-05-04T12:48:11.999Z</time></trkpt><trkpt lat="41.192164076643685" lon="14.593268532359227"><ele>575.0</ele><time>2026-05-04T12:48:12.999Z</time></trkpt><trkpt lat="41.19208236248432" lon="14.59340327397072"><ele>575.0</ele><time>2026-05-04T12:48:13.999Z</time></trkpt><trkpt lat="41.19200421198335" lon="14.593541105337852"><ele>575.0</ele><time>2026-05-04T12:48:14.999Z</time></trkpt><trkpt lat="41.19192904521618" lon="14.593699055338703"><ele>575.0</ele><time>2026-05-04T12:48:15.999Z</time></trkpt><trkpt lat="41.1918751753411" lon="14.59391446017632"><ele>575.0</ele><time>2026-05-04T12:48:16.999Z</time></trkpt><trkpt lat="41.19183344553814" lon="14.594107940390415"><ele>581.6666666666666</ele><time>2026-05-04T12:48:17.999Z</time></trkpt><trkpt lat="41.191812809237675" lon="14.594308558231601"><ele>588.3333333333334</ele><time>2026-05-04T12:48:18.999Z</time></trkpt><trkpt lat="41.191815044619744" lon="14.59452113120776"><ele>595.0</ele><time>2026-05-04T12:48:19.999Z</time></trkpt><trkpt lat="41.19184943408656" lon="14.594734798015471"><ele>598.3333333333334</ele><time>2026-05-04T12:48:20.999Z</time></trkpt><trkpt lat="41.19189254215161" lon="14.594964273381308"><ele>601.6666666666666</ele><time>2026-05-04T12:48:21.999Z</time></trkpt><trkpt lat="41.191926614997065" lon="14.59519943847851"><ele>605.0</ele><time>2026-05-04T12:48:22.999Z</time></trkpt><trkpt lat="41.19194838684773" lon="14.595433867056341"><ele>607.0</ele><time>2026-05-04T12:48:23.999Z</time></trkpt><trkpt lat="41.19196548658574" lon="14.595662076606477"><ele>609.0</ele><time>2026-05-04T12:48:24.999Z</time></trkpt><trkpt lat="41.19197741692604" lon="14.595892212085094"><ele>611.0</ele><time>2026-05-04T12:48:25.999Z</time></trkpt><trkpt lat="41.19196070613652" lon="14.596132286457674"><ele>614.6666666666666</ele><time>2026-05-04T12:48:26.999Z</time></trkpt><trkpt lat="41.191967628985694" lon="14.596388970285831"><ele>618.3333333333334</ele><time>2026-05-04T12:48:27.999Z</time></trkpt><trkpt lat="41.19197022045981" lon="14.5966358720127"><ele>622.0</ele><time>2026-05-04T12:48:28.999Z</time></trkpt><trkpt lat="41.191970197503984" lon="14.596860843261624"><ele>627.75</ele><time>2026-05-04T12:48:29.999Z</time></trkpt><trkpt lat="41.191930928582686" lon="14.597032842700388"><ele>633.5</ele><time>2026-05-04T12:48:30.999Z</time></trkpt><trkpt lat="41.19188214373858" lon="14.597181110445467"><ele>639.25</ele><time>2026-05-04T12:48:31.999Z</time></trkpt><trkpt lat="41.191810339081606" lon="14.597286990056638"><ele>645.0</ele><time>2026-05-04T12:48:32.999Z</time></trkpt><trkpt lat="41.191707879930874" lon="14.597352271364288"><ele>645.0</ele><time>2026-05-04T12:48:33.999Z</time></trkpt><trkpt lat="41.191583985238005" lon="14.597356152027453"><ele>645.0</ele><time>2026-05-04T12:48:34.999Z</time></trkpt><trkpt lat="41.19142368902643" lon="14.597323592573359"><ele>645.0</ele><time>2026-05-04T12:48:35.999Z</time></trkpt><trkpt lat="41.191290473072286" lon="14.597322337173017"><ele>645.0</ele><time>2026-05-04T12:48:36.999Z</time></trkpt><trkpt lat="41.19115073856035" lon="14.597360553918014"><ele>642.3333333333334</ele><time>2026-05-04T12:48:37.999Z</time></trkpt><trkpt lat="41.19101098436929" lon="14.597452252770575"><ele>639.6666666666667</ele><time>2026-05-04T12:48:38.999Z</time></trkpt><trkpt lat="41.19087121051058" lon="14.597591773971159"><ele>637.0</ele><time>2026-05-04T12:48:39.999Z</time></trkpt><trkpt lat="41.19073138289722" lon="14.59773233245103"><ele>642.6666666666667</ele><time>2026-05-04T12:48:40.999Z</time></trkpt><trkpt lat="41.19058677776944" lon="14.597879653272207"><ele>648.3333333333334</ele><time>2026-05-04T12:48:41.999Z</time></trkpt><trkpt lat="41.19044841099428" lon="14.598042666562"><ele>654.0</ele><time>2026-05-04T12:48:42.999Z</time></trkpt><trkpt lat="41.19033634100458" lon="14.59823639632518"><ele>654.0</ele><time>2026-05-04T12:48:43.999Z</time></trkpt><trkpt lat="41.19024797724256" lon="14.598453690696454"><ele>654.0</ele><time>2026-05-04T12:48:44.999Z</time></trkpt><trkpt lat="41.19016194484831" lon="14.59869701248719"><ele>654.0</ele><time>2026-05-04T12:48:46Z</time></trkpt><trkpt lat="41.19006547367304" lon="14.598904253102944"><ele>654.6666666666666</ele><time>2026-05-04T12:48:47Z</time></trkpt><trkpt lat="41.18994443233181" lon="14.599093519557922"><ele>655.3333333333333</ele><time>2026-05-04T12:48:48Z</time></trkpt><trkpt lat="41.189810566060515" lon="14.599270313649246"><ele>656.0</ele><time>2026-05-04T12:48:49Z</time></trkpt><trkpt lat="41.189674866677535" lon="14.599450285120732"><ele>658.0</ele><time>2026-05-04T12:48:50Z</time></trkpt><trkpt lat="41.189562173698555" lon="14.59964649271438"><ele>660.0</ele><time>2026-05-04T12:48:51Z</time></trkpt><trkpt lat="41.18948215203851" lon="14.599875816803435"><ele>662.0</ele><time>2026-05-04T12:48:52Z</time></trkpt><trkpt lat="41.18941981336164" lon="14.600113084233712"><ele>663.3333333333333</ele><time>2026-05-04T12:48:53Z</time></trkpt><trkpt lat="41.1893597933984" lon="14.600357074795646"><ele>664.6666666666666</ele><time>2026-05-04T12:48:54Z</time></trkpt><trkpt lat="41.189309453153506" lon="14.600603108350423"><ele>666.0</ele><time>2026-05-04T12:48:55Z</time></trkpt><trkpt lat="41.18928112590045" lon="14.600857928773488"><ele>666.0</ele><time>2026-05-04T12:48:56Z</time></trkpt><trkpt lat="41.189292878155264" lon="14.601133504155664"><ele>666.0</ele><time>2026-05-04T12:48:57Z</time></trkpt><trkpt lat="41.189307382958305" lon="14.601414614152548"><ele>666.0</ele><time>2026-05-04T12:48:58Z</time></trkpt><trkpt lat="41.189319598563245" lon="14.601703447025017"><ele>667.6666666666666</ele><time>2026-05-04T12:48:59Z</time></trkpt><trkpt lat="41.18932042919897" lon="14.601982504023418"><ele>669.3333333333333</ele><time>2026-05-04T12:49:00Z</time></trkpt><trkpt lat="41.18931554695561" lon="14.60222613017468"><ele>671.0</ele><time>2026-05-04T12:49:01Z</time></trkpt><trkpt lat="41.18928752145298" lon="14.60244386095241"><ele>672.6666666666666</ele><time>2026-05-04T12:49:02Z</time></trkpt><trkpt lat="41.18923995585422" lon="14.602683827984102"><ele>674.3333333333334</ele><time>2026-05-04T12:49:03Z</time></trkpt><trkpt lat="41.189176430556074" lon="14.602926206749657"><ele>676.0</ele><time>2026-05-04T12:49:04Z</time></trkpt><trkpt lat="41.18910791213713" lon="14.60317831640903"><ele>676.0</ele><time>2026-05-04T12:49:05Z</time></trkpt><trkpt lat="41.18902727508243" lon="14.60342947250341"><ele>676.0</ele><time>2026-05-04T12:49:06Z</time></trkpt><trkpt lat="41.188929054712816" lon="14.603676414544266"><ele>676.0</ele><time>2026-05-04T12:49:07Z</time></trkpt><trkpt lat="41.18882981319312" lon="14.603884082513387"><ele>677.0</ele><time>2026-05-04T12:49:08Z</time></trkpt><trkpt lat="41.18875271472552" lon="14.604105760379959"><ele>678.0</ele><time>2026-05-04T12:49:09Z</time></trkpt><trkpt lat="41.188715391465756" lon="14.604364238009621"><ele>679.0</ele><time>2026-05-04T12:49:10Z</time></trkpt><trkpt lat="41.188707913056966" lon="14.604638092693547"><ele>679.0</ele><time>2026-05-04T12:49:11Z</time></trkpt><trkpt lat="41.18867368814083" lon="14.604915575118103"><ele>679.0</ele><time>2026-05-04T12:49:12Z</time></trkpt><trkpt lat="41.18865026277287" lon="14.605220373720186"><ele>679.0</ele><time>2026-05-04T12:49:13Z</time></trkpt><trkpt lat="41.188594247525515" lon="14.60552035668214"><ele>676.0</ele><time>2026-05-04T12:49:14Z</time></trkpt><trkpt lat="41.18851582015489" lon="14.605816320694545"><ele>673.0</ele><time>2026-05-04T12:49:15Z</time></trkpt><trkpt lat="41.18843373350691" lon="14.60611212621875"><ele>670.5</ele><time>2026-05-04T12:49:16Z</time></trkpt><trkpt lat="41.1883608352094" lon="14.606410692292542"><ele>668.0</ele><time>2026-05-04T12:49:17Z</time></trkpt><trkpt lat="41.18829319256927" lon="14.606703210348376"><ele>668.0</ele><time>2026-05-04T12:49:18Z</time></trkpt><trkpt lat="41.188234381786295" lon="14.606974355132976"><ele>668.0</ele><time>2026-05-04T12:49:19Z</time></trkpt><trkpt lat="41.18817110268682" lon="14.607193858348387"><ele>668.0</ele><time>2026-05-04T12:49:20Z</time></trkpt><trkpt lat="41.1880740477269" lon="14.607372705793827"><ele>667.6666666666666</ele><time>2026-05-04T12:49:21Z</time></trkpt><trkpt lat="41.1879373538227" lon="14.607499368990789"><ele>667.3333333333334</ele><time>2026-05-04T12:49:22Z</time></trkpt><trkpt lat="41.18778921429366" lon="14.607575093726092"><ele>667.0</ele><time>2026-05-04T12:49:23Z</time></trkpt><trkpt lat="41.187624934787664" lon="14.607545377403293"><ele>667.0</ele><time>2026-05-04T12:49:24Z</time></trkpt><trkpt lat="41.187470886410814" lon="14.607477098941102"><ele>667.0</ele><time>2026-05-04T12:49:25Z</time></trkpt><trkpt lat="41.18730847977509" lon="14.607417256129"><ele>667.0</ele><time>2026-05-04T12:49:26Z</time></trkpt><trkpt lat="41.18715655611266" lon="14.607414279116135"><ele>668.0</ele><time>2026-05-04T12:49:27Z</time></trkpt><trkpt lat="41.18701270013766" lon="14.607492200639893"><ele>669.0</ele><time>2026-05-04T12:49:28Z</time></trkpt><trkpt lat="41.18687080816658" lon="14.607649967860993"><ele>670.0</ele><time>2026-05-04T12:49:29Z</time></trkpt><trkpt lat="41.18672500208617" lon="14.607839351358896"><ele>670.0</ele><time>2026-05-04T12:49:30Z</time></trkpt><trkpt lat="41.18658492571064" lon="14.60801379658692"><ele>670.0</ele><time>2026-05-04T12:49:30.999Z</time></trkpt><trkpt lat="41.18651036710084" lon="14.608187717973303"><ele>670.0</ele><time>2026-05-04T12:49:31.999Z</time></trkpt><trkpt lat="41.18643806063204" lon="14.608442471771964"><ele>682.3333333333334</ele><time>2026-05-04T12:49:32.999Z</time></trkpt><trkpt lat="41.186391964926436" lon="14.608724712178104"><ele>694.6666666666666</ele><time>2026-05-04T12:49:33.999Z</time></trkpt><trkpt lat="41.1863624466055" lon="14.609024174342625"><ele>707.0</ele><time>2026-05-04T12:49:34.999Z</time></trkpt><trkpt lat="41.18632332447288" lon="14.609320856376034"><ele>708.0</ele><time>2026-05-04T12:49:35.999Z</time></trkpt><trkpt lat="41.18626032853106" lon="14.60961104883491"><ele>709.0</ele><time>2026-05-04T12:49:36.999Z</time></trkpt><trkpt lat="41.186169545826985" lon="14.609890297271196"><ele>709.0</ele><time>2026-05-04T12:49:37.999Z</time></trkpt><trkpt lat="41.18606359189539" lon="14.610167451877407"><ele>709.0</ele><time>2026-05-04T12:49:38.999Z</time></trkpt><trkpt lat="41.18596244249155" lon="14.610458594813732"><ele>707.5</ele><time>2026-05-04T12:49:39.999Z</time></trkpt><trkpt lat="41.18587043675" lon="14.610773525684063"><ele>706.0</ele><time>2026-05-04T12:49:40.999Z</time></trkpt><trkpt lat="41.185777125672764" lon="14.611095902021066"><ele>704.0</ele><time>2026-05-04T12:49:41.999Z</time></trkpt><trkpt lat="41.18570815178228" lon="14.611438816313722"><ele>702.0</ele><time>2026-05-04T12:49:42.999Z</time></trkpt><trkpt lat="41.185633871951076" lon="14.611793206046212"><ele>720.5</ele><time>2026-05-04T12:49:43.999Z</time></trkpt><trkpt lat="41.18556620472001" lon="14.612138780149147"><ele>739.0</ele><time>2026-05-04T12:49:44.999Z</time></trkpt><trkpt lat="41.185510415258044" lon="14.61249204245971"><ele>738.5</ele><time>2026-05-04T12:49:45.999Z</time></trkpt><trkpt lat="41.18545086468737" lon="14.61282610403876"><ele>738.0</ele><time>2026-05-04T12:49:46.999Z</time></trkpt><trkpt lat="41.18536360881372" lon="14.613125610149964"><ele>738.0</ele><time>2026-05-04T12:49:47.999Z</time></trkpt><trkpt lat="41.18525857320737" lon="14.613364972217962"><ele>738.0</ele><time>2026-05-04T12:49:48.999Z</time></trkpt><trkpt lat="41.185194965010794" lon="14.6135996106216"><ele>738.0</ele><time>2026-05-04T12:49:49.999Z</time></trkpt><trkpt lat="41.18517975285916" lon="14.613863192880505"><ele>739.6666666666666</ele><time>2026-05-04T12:49:50.999Z</time></trkpt><trkpt lat="41.18519064650963" lon="14.614153104048613"><ele>741.3333333333333</ele><time>2026-05-04T12:49:51.999Z</time></trkpt><trkpt lat="41.185222465996404" lon="14.614455574944492"><ele>743.0</ele><time>2026-05-04T12:49:52.999Z</time></trkpt><trkpt lat="41.18524341658466" lon="14.614757244423892"><ele>748.5</ele><time>2026-05-04T12:49:53.999Z</time></trkpt><trkpt lat="41.18523775368652" lon="14.615083697088195"><ele>754.0</ele><time>2026-05-04T12:49:54.999Z</time></trkpt><trkpt lat="41.18522320801819" lon="14.615414999024454"><ele>752.6666666666667</ele><time>2026-05-04T12:49:55.999Z</time></trkpt><trkpt lat="41.18517441717754" lon="14.615726141159364"><ele>751.3333333333334</ele><time>2026-05-04T12:49:56.999Z</time></trkpt><trkpt lat="41.185113652595554" lon="14.615991644603817"><ele>750.0</ele><time>2026-05-04T12:49:57.999Z</time></trkpt><trkpt lat="41.18501983397401" lon="14.616227608677159"><ele>750.0</ele><time>2026-05-04T12:49:58.999Z</time></trkpt><trkpt lat="41.18489891766888" lon="14.616443905702244"><ele>750.0</ele><time>2026-05-04T12:49:59.999Z</time></trkpt><trkpt lat="41.18474712671013" lon="14.6166455773569"><ele>750.0</ele><time>2026-05-04T12:50:00.999Z</time></trkpt><trkpt lat="41.18457896769641" lon="14.616820821354073"><ele>755.6666666666666</ele><time>2026-05-04T12:50:01.999Z</time></trkpt><trkpt lat="41.18440522121457" lon="14.616959152052086"><ele>761.3333333333333</ele><time>2026-05-04T12:50:02.999Z</time></trkpt><trkpt lat="41.18421120047561" lon="14.617084418542001"><ele>767.0</ele><time>2026-05-04T12:50:03.999Z</time></trkpt><trkpt lat="41.18399511460977" lon="14.617184882086992"><ele>775.6666666666666</ele><time>2026-05-04T12:50:04.999Z</time></trkpt><trkpt lat="41.183766870047805" lon="14.617285605595756"><ele>784.3333333333333</ele><time>2026-05-04T12:50:05.999Z</time></trkpt><trkpt lat="41.18357544310195" lon="14.617385687035052"><ele>793.0</ele><time>2026-05-04T12:50:06.999Z</time></trkpt><trkpt lat="41.183413541528964" lon="14.617462581288246"><ele>793.0</ele><time>2026-05-04T12:50:07.999Z</time></trkpt><trkpt lat="41.18325960855046" lon="14.617486116472211"><ele>793.0</ele><time>2026-05-04T12:50:08.999Z</time></trkpt><trkpt lat="41.18311848146389" lon="14.617485173622354"><ele>793.0</ele><time>2026-05-04T12:50:09.999Z</time></trkpt><trkpt lat="41.182993011289845" lon="14.61749158790771"><ele>793.0</ele><time>2026-05-04T12:50:10.999Z</time></trkpt><trkpt lat="41.18290140459316" lon="14.617574360782143"><ele>799.0</ele><time>2026-05-04T12:50:11.999Z</time></trkpt><trkpt lat="41.18284510858386" lon="14.617697110865768"><ele>805.0</ele><time>2026-05-04T12:50:12.999Z</time></trkpt><trkpt lat="41.18284368615029" lon="14.617869400716064"><ele>811.0</ele><time>2026-05-04T12:50:13.999Z</time></trkpt><trkpt lat="41.18285781394332" lon="14.618040965971064"><ele>817.0</ele><time>2026-05-04T12:50:14.999Z</time></trkpt><trkpt lat="41.18290356064854" lon="14.618211147559347"><ele>817.0</ele><time>2026-05-04T12:50:15.999Z</time></trkpt><trkpt lat="41.1829369112339" lon="14.618372054026565"><ele>817.0</ele><time>2026-05-04T12:50:16.999Z</time></trkpt><trkpt lat="41.18296611956019" lon="14.618532805047762"><ele>817.0</ele><time>2026-05-04T12:50:17.999Z</time></trkpt><trkpt lat="41.18297477083748" lon="14.618741401061978"><ele>817.0</ele><time>2026-05-04T12:50:18.999Z</time></trkpt><trkpt lat="41.182998880177735" lon="14.619008412531542"><ele>817.25</ele><time>2026-05-04T12:50:19.999Z</time></trkpt><trkpt lat="41.1829931888344" lon="14.61918061086381"><ele>817.5</ele><time>2026-05-04T12:50:20.999Z</time></trkpt><trkpt lat="41.182980348544056" lon="14.619337452533477"><ele>817.75</ele><time>2026-05-04T12:50:21.999Z</time></trkpt><trkpt lat="41.18297097782989" lon="14.619524235249662"><ele>818.0</ele><time>2026-05-04T12:50:22.999Z</time></trkpt><trkpt lat="41.182958139673076" lon="14.61973463196059"><ele>818.0</ele><time>2026-05-04T12:50:23.999Z</time></trkpt><trkpt lat="41.18294088173189" lon="14.619957598919685"><ele>818.0</ele><time>2026-05-04T12:50:24.999Z</time></trkpt><trkpt lat="41.182925476841696" lon="14.620186003668644"><ele>818.0</ele><time>2026-05-04T12:50:25.999Z</time></trkpt><trkpt lat="41.18291707417616" lon="14.62042426656987"><ele>817.6666666666667</ele><time>2026-05-04T12:50:26.999Z</time></trkpt><trkpt lat="41.18290223274834" lon="14.620671434458567"><ele>817.3333333333333</ele><time>2026-05-04T12:50:27.999Z</time></trkpt><trkpt lat="41.18288561187073" lon="14.620921973140252"><ele>817.0</ele><time>2026-05-04T12:50:28.999Z</time></trkpt><trkpt lat="41.182870583035225" lon="14.621189354960043"><ele>817.0</ele><time>2026-05-04T12:50:29.999Z</time></trkpt><trkpt lat="41.182852086294545" lon="14.621453324067915"><ele>817.0</ele><time>2026-05-04T12:50:30.999Z</time></trkpt><trkpt lat="41.18283277417573" lon="14.621719213659388"><ele>817.0</ele><time>2026-05-04T12:50:31.999Z</time></trkpt><trkpt lat="41.18281166392497" lon="14.62199341264336"><ele>816.3333333333333</ele><time>2026-05-04T12:50:32.999Z</time></trkpt><trkpt lat="41.1827883663138" lon="14.622259270670659"><ele>815.6666666666667</ele><time>2026-05-04T12:50:33.999Z</time></trkpt><trkpt lat="41.182772644012125" lon="14.622540101313312"><ele>815.0</ele><time>2026-05-04T12:50:34.999Z</time></trkpt><trkpt lat="41.1827524047839" lon="14.6228249211939"><ele>813.0</ele><time>2026-05-04T12:50:35.999Z</time></trkpt><trkpt lat="41.18272068551703" lon="14.62311831139679"><ele>811.0</ele><time>2026-05-04T12:50:36.999Z</time></trkpt><trkpt lat="41.182688787843816" lon="14.623410864300752"><ele>809.0</ele><time>2026-05-04T12:50:37.999Z</time></trkpt><trkpt lat="41.182663903518346" lon="14.623690231875644"><ele>807.3333333333334</ele><time>2026-05-04T12:50:38.999Z</time></trkpt><trkpt lat="41.18263667178363" lon="14.6239704638432"><ele>805.6666666666667</ele><time>2026-05-04T12:50:39.999Z</time></trkpt><trkpt lat="41.182610227900014" lon="14.624266038030012"><ele>804.0</ele><time>2026-05-04T12:50:40.999Z</time></trkpt><trkpt lat="41.18257840587026" lon="14.624571103011833"><ele>801.5</ele><time>2026-05-04T12:50:41.999Z</time></trkpt><trkpt lat="41.18253876857941" lon="14.624887854496155"><ele>799.0</ele><time>2026-05-04T12:50:42.998Z</time></trkpt><trkpt lat="41.18248405191536" lon="14.625185422294596"><ele>797.3333333333333</ele><time>2026-05-04T12:50:43.998Z</time></trkpt><trkpt lat="41.18241726598103" lon="14.625455751491412"><ele>795.6666666666667</ele><time>2026-05-04T12:50:44.998Z</time></trkpt><trkpt lat="41.18234069586852" lon="14.625719053505392"><ele>794.0</ele><time>2026-05-04T12:50:45.998Z</time></trkpt><trkpt lat="41.18226747016903" lon="14.62596649137747"><ele>793.6666666666667</ele><time>2026-05-04T12:50:46.998Z</time></trkpt><trkpt lat="41.18219445746993" lon="14.62619970485116"><ele>793.3333333333333</ele><time>2026-05-04T12:50:47.998Z</time></trkpt><trkpt lat="41.18212738702249" lon="14.626411312423018"><ele>793.0</ele><time>2026-05-04T12:50:48.998Z</time></trkpt><trkpt lat="41.18206910989" lon="14.626602646805196"><ele>793.0</ele><time>2026-05-04T12:50:49.998Z</time></trkpt><trkpt lat="41.18201422841114" lon="14.626765219259015"><ele>793.0</ele><time>2026-05-04T12:50:50.998Z</time></trkpt><trkpt lat="41.181972299664494" lon="14.626900517674635"><ele>793.0</ele><time>2026-05-04T12:50:51.999Z</time></trkpt><trkpt lat="41.18193503308677" lon="14.627015348698182"><ele>793.0</ele><time>2026-05-04T12:50:52.999Z</time></trkpt><trkpt lat="41.181881697030825" lon="14.627107436509688"><ele>793.0</ele><time>2026-05-04T12:50:53.999Z</time></trkpt><trkpt lat="41.181806715548035" lon="14.627178835317958"><ele>794.5</ele><time>2026-05-04T12:50:54.999Z</time></trkpt><trkpt lat="41.181700907711644" lon="14.627230913012111"><ele>796.0</ele><time>2026-05-04T12:50:55.999Z</time></trkpt><trkpt lat="41.181566683044394" lon="14.627288100788284"><ele>797.5</ele><time>2026-05-04T12:50:56.999Z</time></trkpt><trkpt lat="41.18142650870497" lon="14.627358100998238"><ele>799.0</ele><time>2026-05-04T12:50:57.999Z</time></trkpt><trkpt lat="41.18129270179151" lon="14.627443486703099"><ele>799.0</ele><time>2026-05-04T12:50:58.999Z</time></trkpt><trkpt lat="41.18115973854156" lon="14.627543742740137"><ele>799.0</ele><time>2026-05-04T12:50:59.999Z</time></trkpt><trkpt lat="41.18102778015243" lon="14.62765801726748"><ele>799.0</ele><time>2026-05-04T12:51:00.999Z</time></trkpt><trkpt lat="41.18087974743811" lon="14.627756872468995"><ele>794.0</ele><time>2026-05-04T12:51:01.999Z</time></trkpt><trkpt lat="41.180724174857644" lon="14.627835566662858"><ele>789.0</ele><time>2026-05-04T12:51:02.999Z</time></trkpt><trkpt lat="41.1805633574895" lon="14.627921208031628"><ele>784.0</ele><time>2026-05-04T12:51:03.999Z</time></trkpt><trkpt lat="41.18040337590571" lon="14.628011412759484"><ele>784.0</ele><time>2026-05-04T12:51:04.999Z</time></trkpt><trkpt lat="41.180248099276476" lon="14.628087806615685"><ele>784.0</ele><time>2026-05-04T12:51:05.999Z</time></trkpt><trkpt lat="41.180095113524146" lon="14.62817120028648"><ele>784.0</ele><time>2026-05-04T12:51:06.999Z</time></trkpt><trkpt lat="41.17993953573568" lon="14.62825893355401"><ele>787.0</ele><time>2026-05-04T12:51:07.999Z</time></trkpt><trkpt lat="41.17979710611282" lon="14.628342002491362"><ele>790.0</ele><time>2026-05-04T12:51:08.999Z</time></trkpt><trkpt lat="41.17960128070231" lon="14.628340259573955"><ele>793.0</ele><time>2026-05-04T12:51:09.999Z</time></trkpt><trkpt lat="41.179405818713526" lon="14.628366965917134"><ele>793.0</ele><time>2026-05-04T12:51:10.999Z</time></trkpt><trkpt lat="41.179197507007466" lon="14.628417158380271"><ele>793.0</ele><time>2026-05-04T12:51:11.999Z</time></trkpt><trkpt lat="41.17902443695231" lon="14.628449065381288"><ele>793.0</ele><time>2026-05-04T12:51:12.999Z</time></trkpt><trkpt lat="41.178862977410745" lon="14.628471857885925"><ele>795.6666666666666</ele><time>2026-05-04T12:51:13.999Z</time></trkpt><trkpt lat="41.17868728354446" lon="14.628491819551838"><ele>798.3333333333333</ele><time>2026-05-04T12:51:14.999Z</time></trkpt><trkpt lat="41.17850667728777" lon="14.628500108811611"><ele>801.0</ele><time>2026-05-04T12:51:15.999Z</time></trkpt><trkpt lat="41.17831639570281" lon="14.6285068846003"><ele>801.6666666666667</ele><time>2026-05-04T12:51:16.999Z</time></trkpt><trkpt lat="41.178127344391505" lon="14.628532793258813"><ele>802.3333333333334</ele><time>2026-05-04T12:51:17.999Z</time></trkpt><trkpt lat="41.17793942227216" lon="14.628563159551767"><ele>803.0</ele><time>2026-05-04T12:51:18.999Z</time></trkpt><trkpt lat="41.17774521611117" lon="14.628581040442889"><ele>803.0</ele><time>2026-05-04T12:51:19.999Z</time></trkpt><trkpt lat="41.17756984502281" lon="14.62856374374132"><ele>803.0</ele><time>2026-05-04T12:51:20.999Z</time></trkpt><trkpt lat="41.17740955660006" lon="14.628557908274344"><ele>803.0</ele><time>2026-05-04T12:51:21.999Z</time></trkpt><trkpt lat="41.1772593830327" lon="14.628547022642271"><ele>802.5</ele><time>2026-05-04T12:51:22.999Z</time></trkpt><trkpt lat="41.177134874184674" lon="14.628518825021462"><ele>802.0</ele><time>2026-05-04T12:51:23.999Z</time></trkpt><trkpt lat="41.17702659923972" lon="14.628478719520546"><ele>801.5</ele><time>2026-05-04T12:51:24.999Z</time></trkpt><trkpt lat="41.176923927319635" lon="14.628405642390652"><ele>801.0</ele><time>2026-05-04T12:51:25.999Z</time></trkpt><trkpt lat="41.1768355358256" lon="14.628302069352262"><ele>801.0</ele><time>2026-05-04T12:51:26.999Z</time></trkpt><trkpt lat="41.17675953169938" lon="14.62823009404304"><ele>801.0</ele><time>2026-05-04T12:51:27.999Z</time></trkpt><trkpt lat="41.17667132155768" lon="14.628213841834427"><ele>801.0</ele><time>2026-05-04T12:51:28.999Z</time></trkpt><trkpt lat="41.176591502582575" lon="14.628253125403972"><ele>801.0</ele><time>2026-05-04T12:51:29.999Z</time></trkpt><trkpt lat="41.176528797484515" lon="14.628330266519855"><ele>801.0</ele><time>2026-05-04T12:51:30.999Z</time></trkpt><trkpt lat="41.176481140009294" lon="14.628442687608247"><ele>796.5</ele><time>2026-05-04T12:51:31.999Z</time></trkpt><trkpt lat="41.17641141929639" lon="14.628570848347659"><ele>792.0</ele><time>2026-05-04T12:51:32.999Z</time></trkpt><trkpt lat="41.17630959291902" lon="14.628688954421504"><ele>787.5</ele><time>2026-05-04T12:51:33.999Z</time></trkpt><trkpt lat="41.17620833137063" lon="14.628773675912246"><ele>783.0</ele><time>2026-05-04T12:51:34.999Z</time></trkpt><trkpt lat="41.17607153167987" lon="14.62886059235217"><ele>783.0</ele><time>2026-05-04T12:51:35.999Z</time></trkpt><trkpt lat="41.17590465453741" lon="14.628941268882148"><ele>783.0</ele><time>2026-05-04T12:51:36.999Z</time></trkpt><trkpt lat="41.17572792427692" lon="14.629010088147028"><ele>783.0</ele><time>2026-05-04T12:51:37.999Z</time></trkpt><trkpt lat="41.17554041768434" lon="14.629076714294861"><ele>785.6666666666667</ele><time>2026-05-04T12:51:38.999Z</time></trkpt><trkpt lat="41.175368280067964" lon="14.629125511616387"><ele>788.3333333333334</ele><time>2026-05-04T12:51:39.999Z</time></trkpt><trkpt lat="41.1752061868208" lon="14.629162567497591"><ele>791.0</ele><time>2026-05-04T12:51:40.999Z</time></trkpt><trkpt lat="41.17503808652268" lon="14.629183670980217"><ele>791.0</ele><time>2026-05-04T12:51:41.999Z</time></trkpt><trkpt lat="41.174860868494086" lon="14.629195023490642"><ele>791.0</ele><time>2026-05-04T12:51:42.999Z</time></trkpt><trkpt lat="41.1746966236823" lon="14.629236743303847"><ele>791.0</ele><time>2026-05-04T12:51:43.999Z</time></trkpt><trkpt lat="41.174517593436256" lon="14.629308999333514"><ele>795.0</ele><time>2026-05-04T12:51:44.999Z</time></trkpt><trkpt lat="41.174319289332175" lon="14.629388823922179"><ele>799.0</ele><time>2026-05-04T12:51:45.999Z</time></trkpt><trkpt lat="41.17410932994017" lon="14.629464703843748"><ele>803.0</ele><time>2026-05-04T12:51:46.999Z</time></trkpt><trkpt lat="41.17389064686304" lon="14.629527198525983"><ele>792.3333333333334</ele><time>2026-05-04T12:51:47.999Z</time></trkpt><trkpt lat="41.17368661885779" lon="14.629587958195287"><ele>781.6666666666667</ele><time>2026-05-04T12:51:48.999Z</time></trkpt><trkpt lat="41.17350341182549" lon="14.629650305757076"><ele>771.0</ele><time>2026-05-04T12:51:49.999Z</time></trkpt><trkpt lat="41.17332258760378" lon="14.629699327716011"><ele>771.6666666666667</ele><time>2026-05-04T12:51:50.999Z</time></trkpt><trkpt lat="41.173143784890875" lon="14.629739172760095"><ele>772.3333333333334</ele><time>2026-05-04T12:51:51.999Z</time></trkpt><trkpt lat="41.17295927733419" lon="14.629753402208225"><ele>773.0</ele><time>2026-05-04T12:51:52.999Z</time></trkpt><trkpt lat="41.17277326729667" lon="14.629746170839784"><ele>773.0</ele><time>2026-05-04T12:51:53.999Z</time></trkpt><trkpt lat="41.17260434564311" lon="14.629729648109665"><ele>773.0</ele><time>2026-05-04T12:51:54.999Z</time></trkpt><trkpt lat="41.17242837987649" lon="14.629740580464635"><ele>773.0</ele><time>2026-05-04T12:51:55.999Z</time></trkpt><trkpt lat="41.172255694489934" lon="14.629782564886083"><ele>774.25</ele><time>2026-05-04T12:51:56.999Z</time></trkpt><trkpt lat="41.17211025995814" lon="14.62985014031824"><ele>775.5</ele><time>2026-05-04T12:51:57.999Z</time></trkpt><trkpt lat="41.17197966904902" lon="14.629923005354286"><ele>776.75</ele><time>2026-05-04T12:51:58.999Z</time></trkpt><trkpt lat="41.171847442900635" lon="14.629965086829754"><ele>778.0</ele><time>2026-05-04T12:51:59.999Z</time></trkpt><trkpt lat="41.17168715421742" lon="14.62998666043535"><ele>781.3333333333333</ele><time>2026-05-04T12:52:00.999Z</time></trkpt><trkpt lat="41.17151596009821" lon="14.63001183773451"><ele>784.6666666666667</ele><time>2026-05-04T12:52:01.999Z</time></trkpt><trkpt lat="41.17134556499201" lon="14.630046194117375"><ele>788.0</ele><time>2026-05-04T12:52:02.999Z</time></trkpt><trkpt lat="41.171184401517046" lon="14.630080818897794"><ele>788.0</ele><time>2026-05-04T12:52:03.999Z</time></trkpt><trkpt lat="41.17104460740231" lon="14.630124257709674"><ele>788.0</ele><time>2026-05-04T12:52:04.999Z</time></trkpt><trkpt lat="41.17089806543118" lon="14.630187170746183"><ele>788.0</ele><time>2026-05-04T12:52:05.999Z</time></trkpt><trkpt lat="41.17076202100913" lon="14.630269393896263"><ele>788.0</ele><time>2026-05-04T12:52:06.999Z</time></trkpt><trkpt lat="41.17063229404178" lon="14.630384025861746"><ele>782.0</ele><time>2026-05-04T12:52:07.999Z</time></trkpt><trkpt lat="41.17048983167603" lon="14.630525690645925"><ele>776.0</ele><time>2026-05-04T12:52:08.999Z</time></trkpt><trkpt lat="41.170338980712295" lon="14.630666251428627"><ele>770.0</ele><time>2026-05-04T12:52:09.999Z</time></trkpt><trkpt lat="41.170159400370395" lon="14.630821387407362"><ele>770.0</ele><time>2026-05-04T12:52:10.999Z</time></trkpt><trkpt lat="41.16999522745334" lon="14.630951750491048"><ele>770.0</ele><time>2026-05-04T12:52:11.999Z</time></trkpt><trkpt lat="41.169841372971256" lon="14.631077292448818"><ele>770.0</ele><time>2026-05-04T12:52:12.999Z</time></trkpt><trkpt lat="41.16969891505589" lon="14.63120026570783"><ele>760.75</ele><time>2026-05-04T12:52:13.999Z</time></trkpt><trkpt lat="41.16957613351828" lon="14.631302725674288"><ele>751.5</ele><time>2026-05-04T12:52:14.999Z</time></trkpt><trkpt lat="41.169473913952544" lon="14.631379453837095"><ele>742.25</ele><time>2026-05-04T12:52:15.999Z</time></trkpt><trkpt lat="41.169384425045415" lon="14.63143439929871"><ele>733.0</ele><time>2026-05-04T12:52:16.999Z</time></trkpt><trkpt lat="41.169286927225755" lon="14.631449221098967"><ele>733.0</ele><time>2026-05-04T12:52:17.999Z</time></trkpt><trkpt lat="41.169180673576484" lon="14.631408027639534"><ele>733.0</ele><time>2026-05-04T12:52:18.999Z</time></trkpt><trkpt lat="41.16906148921932" lon="14.631353533240643"><ele>733.0</ele><time>2026-05-04T12:52:19.999Z</time></trkpt><trkpt lat="41.1689276582654" lon="14.631296072416689"><ele>733.0</ele><time>2026-05-04T12:52:20.999Z</time></trkpt><trkpt lat="41.168808787850324" lon="14.631259957475715"><ele>736.0</ele><time>2026-05-04T12:52:21.999Z</time></trkpt><trkpt lat="41.168712353754536" lon="14.631230705993184"><ele>739.0</ele><time>2026-05-04T12:52:22.999Z</time></trkpt><trkpt lat="41.16861666033787" lon="14.631205656683537"><ele>742.0</ele><time>2026-05-04T12:52:23.999Z</time></trkpt><trkpt lat="41.16850971967853" lon="14.631161059486656"><ele>745.0</ele><time>2026-05-04T12:52:24.999Z</time></trkpt><trkpt lat="41.168414703444874" lon="14.631060929397039"><ele>748.0</ele><time>2026-05-04T12:52:25.999Z</time></trkpt><trkpt lat="41.168316706958784" lon="14.630943596054863"><ele>748.0</ele><time>2026-05-04T12:52:26.999Z</time></trkpt><trkpt lat="41.16820136061994" lon="14.630828361717773"><ele>748.0</ele><time>2026-05-04T12:52:27.999Z</time></trkpt><trkpt lat="41.16807699582179" lon="14.63071309706787"><ele>748.0</ele><time>2026-05-04T12:52:28.999Z</time></trkpt><trkpt lat="41.16795385236181" lon="14.630586222515426"><ele>745.5</ele><time>2026-05-04T12:52:29.999Z</time></trkpt><trkpt lat="41.167850246691636" lon="14.63044398435063"><ele>743.0</ele><time>2026-05-04T12:52:30.999Z</time></trkpt><trkpt lat="41.16777675402534" lon="14.630309985718522"><ele>740.5</ele><time>2026-05-04T12:52:31.999Z</time></trkpt><trkpt lat="41.167736269379475" lon="14.63020251034342"><ele>738.0</ele><time>2026-05-04T12:52:32.999Z</time></trkpt><trkpt lat="41.16773093677903" lon="14.630030007898766"><ele>738.0</ele><time>2026-05-04T12:52:34.999Z</time></trkpt><trkpt lat="41.16775219467193" lon="14.6299173145072"><ele>738.0</ele><time>2026-05-04T12:52:35.999Z</time></trkpt><trkpt lat="41.167771984685366" lon="14.629805523171026"><ele>738.0</ele><time>2026-05-04T12:52:36.999Z</time></trkpt><trkpt lat="41.167789815970664" lon="14.629678698994585"><ele>738.0</ele><time>2026-05-04T12:52:37.998Z</time></trkpt><trkpt lat="41.167802181706946" lon="14.629550175835778"><ele>738.0</ele><time>2026-05-04T12:52:38.998Z</time></trkpt><trkpt lat="41.16781025088658" lon="14.629404866933376"><ele>739.8</ele><time>2026-05-04T12:52:39.998Z</time></trkpt><trkpt lat="41.16782784701992" lon="14.629271921518226"><ele>741.5999999999999</ele><time>2026-05-04T12:52:40.998Z</time></trkpt><trkpt lat="41.16787124747967" lon="14.629142005248301"><ele>743.4000000000001</ele><time>2026-05-04T12:52:41.998Z</time></trkpt><trkpt lat="41.167932189590076" lon="14.629038926514955"><ele>745.2</ele><time>2026-05-04T12:52:42.998Z</time></trkpt><trkpt lat="41.167997086555204" lon="14.628967694408047"><ele>747.0</ele><time>2026-05-04T12:52:43.998Z</time></trkpt><trkpt lat="41.16801263364556" lon="14.628829266847994"><ele>747.0</ele><time>2026-05-04T12:52:45.998Z</time></trkpt><trkpt lat="41.1679578312766" lon="14.62877422669506"><ele>747.0</ele><time>2026-05-04T12:52:46.998Z</time></trkpt><trkpt lat="41.167870701835675" lon="14.628786351356526"><ele>747.0</ele><time>2026-05-04T12:52:47.998Z</time></trkpt><trkpt lat="41.16775102888639" lon="14.628834458040522"><ele>747.0</ele><time>2026-05-04T12:52:48.998Z</time></trkpt><trkpt lat="41.16764288683282" lon="14.628893177918705"><ele>747.0</ele><time>2026-05-04T12:52:49.998Z</time></trkpt><trkpt lat="41.16756094855272" lon="14.628942842886985"><ele>747.0</ele><time>2026-05-04T12:52:50.998Z</time></trkpt><trkpt lat="41.167486586416096" lon="14.628970678579476"><ele>747.0</ele><time>2026-05-04T12:52:51.998Z</time></trkpt><trkpt lat="41.167400553650346" lon="14.628962413490038"><ele>747.0</ele><time>2026-05-04T12:52:52.998Z</time></trkpt><trkpt lat="41.16729502348852" lon="14.62894659001952"><ele>747.0</ele><time>2026-05-04T12:52:53.998Z</time></trkpt><trkpt lat="41.167175021131335" lon="14.628944270107793"><ele>747.0</ele><time>2026-05-04T12:52:54.998Z</time></trkpt><trkpt lat="41.167059775556076" lon="14.628966034604924"><ele>746.5</ele><time>2026-05-04T12:52:55.998Z</time></trkpt><trkpt lat="41.16693729295787" lon="14.629013650539395"><ele>746.0</ele><time>2026-05-04T12:52:56.998Z</time></trkpt><trkpt lat="41.16682324345857" lon="14.629039743500673"><ele>745.5</ele><time>2026-05-04T12:52:57.999Z</time></trkpt><trkpt lat="41.16671449146994" lon="14.629017036040153"><ele>745.0</ele><time>2026-05-04T12:52:58.999Z</time></trkpt><trkpt lat="41.166594629852945" lon="14.628960247025727"><ele>747.4</ele><time>2026-05-04T12:52:59.999Z</time></trkpt><trkpt lat="41.16648619664901" lon="14.628906943879072"><ele>749.8</ele><time>2026-05-04T12:53:00.999Z</time></trkpt><trkpt lat="41.16639657658484" lon="14.628885437119568"><ele>752.2</ele><time>2026-05-04T12:53:01.999Z</time></trkpt><trkpt lat="41.166302307142224" lon="14.628917214872564"><ele>754.6</ele><time>2026-05-04T12:53:02.999Z</time></trkpt><trkpt lat="41.166191089379495" lon="14.628975185535312"><ele>757.0</ele><time>2026-05-04T12:53:03.999Z</time></trkpt><trkpt lat="41.16607054515476" lon="14.629052488352242"><ele>757.0</ele><time>2026-05-04T12:53:04.999Z</time></trkpt><trkpt lat="41.16595115858457" lon="14.62914305229625"><ele>757.0</ele><time>2026-05-04T12:53:05.999Z</time></trkpt><trkpt lat="41.165839451106514" lon="14.629281355853047"><ele>757.0</ele><time>2026-05-04T12:53:06.999Z</time></trkpt><trkpt lat="41.165730782452464" lon="14.629407841782452"><ele>757.0</ele><time>2026-05-04T12:53:07.999Z</time></trkpt><trkpt lat="41.165640836752104" lon="14.629487850867866"><ele>758.5</ele><time>2026-05-04T12:53:08.999Z</time></trkpt><trkpt lat="41.16553859543264" lon="14.629502024279924"><ele>760.0</ele><time>2026-05-04T12:53:11.999Z</time></trkpt><trkpt lat="41.16550993886765" lon="14.629404609867223"><ele>761.5</ele><time>2026-05-04T12:53:13.999Z</time></trkpt><trkpt lat="41.16554613258578" lon="14.62932869785105"><ele>763.0</ele><time>2026-05-04T12:53:14.999Z</time></trkpt><trkpt lat="41.16557100648323" lon="14.629250169382772"><ele>764.5</ele><time>2026-05-04T12:53:15.999Z</time></trkpt><trkpt lat="41.165612510313224" lon="14.629123226078883"><ele>766.0</ele><time>2026-05-04T12:53:16.999Z</time></trkpt><trkpt lat="41.16562867274092" lon="14.629000325700382"><ele>766.1999999999999</ele><time>2026-05-04T12:53:17.999Z</time></trkpt><trkpt lat="41.16561957582617" lon="14.628875465624096"><ele>766.4</ele><time>2026-05-04T12:53:18.999Z</time></trkpt><trkpt lat="41.165586205583445" lon="14.628746135719764"><ele>766.6</ele><time>2026-05-04T12:53:19.999Z</time></trkpt><trkpt lat="41.16553689328684" lon="14.628616093873054"><ele>766.8</ele><time>2026-05-04T12:53:20.999Z</time></trkpt><trkpt lat="41.16551729836068" lon="14.628491941978693"><ele>767.0</ele><time>2026-05-04T12:53:21.999Z</time></trkpt><trkpt lat="41.16553571382163" lon="14.628395015088783"><ele>767.0</ele><time>2026-05-04T12:53:22.999Z</time></trkpt><trkpt lat="41.16558269073996" lon="14.628312528634925"><ele>767.0</ele><time>2026-05-04T12:53:23.999Z</time></trkpt><trkpt lat="41.16561622978581" lon="14.628240349560942"><ele>767.0</ele><time>2026-05-04T12:53:24.999Z</time></trkpt><trkpt lat="41.16561018258379" lon="14.628156107445315"><ele>767.0</ele><time>2026-05-04T12:53:25.999Z</time></trkpt><trkpt lat="41.165585862258716" lon="14.62806117436335"><ele>767.0</ele><time>2026-05-04T12:53:26.999Z</time></trkpt><trkpt lat="41.16555129465244" lon="14.627958139207463"><ele>767.0</ele><time>2026-05-04T12:53:27.999Z</time></trkpt><trkpt lat="41.16554321000263" lon="14.62785745560375"><ele>767.0</ele><time>2026-05-04T12:53:28.999Z</time></trkpt><trkpt lat="41.16556301248395" lon="14.627744661855667"><ele>764.0</ele><time>2026-05-04T12:53:29.999Z</time></trkpt><trkpt lat="41.16560585510773" lon="14.627632154228271"><ele>761.0</ele><time>2026-05-04T12:53:30.999Z</time></trkpt><trkpt lat="41.16564525444055" lon="14.627502647980675"><ele>758.0</ele><time>2026-05-04T12:53:31.999Z</time></trkpt><trkpt lat="41.16567786971184" lon="14.627369067473353"><ele>755.0</ele><time>2026-05-04T12:53:32.999Z</time></trkpt><trkpt lat="41.165698375767946" lon="14.627259158982428"><ele>752.0</ele><time>2026-05-04T12:53:33.999Z</time></trkpt><trkpt lat="41.16568292803132" lon="14.627151030249038"><ele>752.0</ele><time>2026-05-04T12:53:36.999Z</time></trkpt><trkpt lat="41.165644760714976" lon="14.627223392386886"><ele>752.0</ele><time>2026-05-04T12:53:38.999Z</time></trkpt><trkpt lat="41.165606265755486" lon="14.62730667851967"><ele>752.0</ele><time>2026-05-04T12:53:39.999Z</time></trkpt><trkpt lat="41.165547394885344" lon="14.62745234502345"><ele>752.0</ele><time>2026-05-04T12:53:40.999Z</time></trkpt><trkpt lat="41.16546650082292" lon="14.627594743751542"><ele>752.0</ele><time>2026-05-04T12:53:41.999Z</time></trkpt><trkpt lat="41.165363068419666" lon="14.627729708731533"><ele>757.0</ele><time>2026-05-04T12:53:42.999Z</time></trkpt><trkpt lat="41.16524409344833" lon="14.627866966004902"><ele>762.0</ele><time>2026-05-04T12:53:43.999Z</time></trkpt><trkpt lat="41.165128378898636" lon="14.628006839106092"><ele>767.0</ele><time>2026-05-04T12:53:44.999Z</time></trkpt><trkpt lat="41.16502745310975" lon="14.628152670205981"><ele>767.0</ele><time>2026-05-04T12:53:45.999Z</time></trkpt><trkpt lat="41.16492323036052" lon="14.628284371906249"><ele>767.0</ele><time>2026-05-04T12:53:46.999Z</time></trkpt><trkpt lat="41.16480715558016" lon="14.628401316503767"><ele>767.0</ele><time>2026-05-04T12:53:47.999Z</time></trkpt><trkpt lat="41.16466576785579" lon="14.628507463568448"><ele>765.3333333333333</ele><time>2026-05-04T12:53:48.999Z</time></trkpt><trkpt lat="41.16451148383231" lon="14.628631194467417"><ele>763.6666666666666</ele><time>2026-05-04T12:53:49.998Z</time></trkpt><trkpt lat="41.1643675738701" lon="14.628750258071335"><ele>762.0</ele><time>2026-05-04T12:53:50.998Z</time></trkpt><trkpt lat="41.16423657211458" lon="14.628864451998389"><ele>762.0</ele><time>2026-05-04T12:53:51.998Z</time></trkpt><trkpt lat="41.16411429355888" lon="14.628967472480076"><ele>762.0</ele><time>2026-05-04T12:53:52.998Z</time></trkpt><trkpt lat="41.16399703162563" lon="14.629048841721817"><ele>762.0</ele><time>2026-05-04T12:53:53.998Z</time></trkpt><trkpt lat="41.16386579990283" lon="14.62912447729102"><ele>762.0</ele><time>2026-05-04T12:53:54.998Z</time></trkpt><trkpt lat="41.16372965171438" lon="14.629199197939576"><ele>761.0</ele><time>2026-05-04T12:53:55.998Z</time></trkpt><trkpt lat="41.16360635832496" lon="14.629274644631408"><ele>760.0</ele><time>2026-05-04T12:53:56.997Z</time></trkpt><trkpt lat="41.163489117595326" lon="14.629378350475488"><ele>759.0</ele><time>2026-05-04T12:53:57.997Z</time></trkpt><trkpt lat="41.16337575631669" lon="14.629487579291116"><ele>758.0</ele><time>2026-05-04T12:53:58.997Z</time></trkpt><trkpt lat="41.16327239343482" lon="14.629565553211375"><ele>753.2</ele><time>2026-05-04T12:53:59.997Z</time></trkpt><trkpt lat="41.163175931823396" lon="14.629635636461106"><ele>748.4</ele><time>2026-05-04T12:54:00.997Z</time></trkpt><trkpt lat="41.163084421898496" lon="14.629726412000785"><ele>743.6</ele><time>2026-05-04T12:54:01.997Z</time></trkpt><trkpt lat="41.16299699154577" lon="14.629816055781129"><ele>738.8000000000001</ele><time>2026-05-04T12:54:02.997Z</time></trkpt><trkpt lat="41.16291362357579" lon="14.629916162535945"><ele>734.0</ele><time>2026-05-04T12:54:03.997Z</time></trkpt><trkpt lat="41.16281209406032" lon="14.630008713213519"><ele>734.0</ele><time>2026-05-04T12:54:04.997Z</time></trkpt><trkpt lat="41.16270265694267" lon="14.630099517947531"><ele>734.0</ele><time>2026-05-04T12:54:05.997Z</time></trkpt><trkpt lat="41.162586141401796" lon="14.630188023216645"><ele>734.0</ele><time>2026-05-04T12:54:06.996Z</time></trkpt><trkpt lat="41.16243618556914" lon="14.630281039969946"><ele>734.0</ele><time>2026-05-04T12:54:07.996Z</time></trkpt><trkpt lat="41.16216005119675" lon="14.63039169250576"><ele>731.0</ele><time>2026-05-04T12:54:08.996Z</time></trkpt><trkpt lat="41.16196875853692" lon="14.630504855954042"><ele>728.0</ele><time>2026-05-04T12:54:09.996Z</time></trkpt><trkpt lat="41.16182806027579" lon="14.63061615805323"><ele>725.0</ele><time>2026-05-04T12:54:10.996Z</time></trkpt><trkpt lat="41.16168935088429" lon="14.630724863007938"><ele>717.3333333333333</ele><time>2026-05-04T12:54:11.996Z</time></trkpt><trkpt lat="41.16151015222272" lon="14.630731766382336"><ele>709.6666666666666</ele><time>2026-05-04T12:54:12.996Z</time></trkpt><trkpt lat="41.16136801795206" lon="14.630810625518865"><ele>702.0</ele><time>2026-05-04T12:54:13.996Z</time></trkpt><trkpt lat="41.16123838897817" lon="14.630870226139264"><ele>702.0</ele><time>2026-05-04T12:54:14.996Z</time></trkpt><trkpt lat="41.16111278725485" lon="14.630920720354812"><ele>702.0</ele><time>2026-05-04T12:54:15.996Z</time></trkpt><trkpt lat="41.1609663661751" lon="14.630968401941038"><ele>702.0</ele><time>2026-05-04T12:54:16.996Z</time></trkpt><trkpt lat="41.16081227554535" lon="14.63101282877104"><ele>702.0</ele><time>2026-05-04T12:54:17.996Z</time></trkpt><trkpt lat="41.160663540433184" lon="14.63111340354537"><ele>701.3333333333334</ele><time>2026-05-04T12:54:18.996Z</time></trkpt><trkpt lat="41.1605182062318" lon="14.631237453910602"><ele>700.6666666666667</ele><time>2026-05-04T12:54:19.996Z</time></trkpt><trkpt lat="41.16040371297258" lon="14.631352367562846"><ele>700.0</ele><time>2026-05-04T12:54:20.996Z</time></trkpt><trkpt lat="41.16029864752125" lon="14.631462022899038"><ele>700.0</ele><time>2026-05-04T12:54:21.996Z</time></trkpt><trkpt lat="41.16020292786333" lon="14.631557281337136"><ele>700.0</ele><time>2026-05-04T12:54:22.996Z</time></trkpt><trkpt lat="41.16011572757445" lon="14.631634858315929"><ele>700.0</ele><time>2026-05-04T12:54:23.996Z</time></trkpt><trkpt lat="41.160056303074406" lon="14.631745530945715"><ele>700.0</ele><time>2026-05-04T12:54:24.996Z</time></trkpt><trkpt lat="41.15994748167747" lon="14.631783750968594"><ele>700.0</ele><time>2026-05-04T12:54:25.996Z</time></trkpt><trkpt lat="41.15981800838002" lon="14.631801542290654"><ele>696.25</ele><time>2026-05-04T12:54:26.996Z</time></trkpt><trkpt lat="41.15970625117905" lon="14.631820204835083"><ele>692.5</ele><time>2026-05-04T12:54:27.996Z</time></trkpt><trkpt lat="41.15959365787059" lon="14.631849553612556"><ele>688.75</ele><time>2026-05-04T12:54:28.996Z</time></trkpt><trkpt lat="41.15948674667011" lon="14.631903806593755"><ele>685.0</ele><time>2026-05-04T12:54:29.996Z</time></trkpt><trkpt lat="41.15937044006228" lon="14.631984934848623"><ele>685.0</ele><time>2026-05-04T12:54:30.996Z</time></trkpt><trkpt lat="41.15927388593273" lon="14.632100835336809"><ele>685.0</ele><time>2026-05-04T12:54:31.996Z</time></trkpt><trkpt lat="41.15920599157832" lon="14.632234527567654"><ele>685.0</ele><time>2026-05-04T12:54:32.995Z</time></trkpt><trkpt lat="41.15916961562355" lon="14.632377127513415"><ele>685.0</ele><time>2026-05-04T12:54:33.995Z</time></trkpt><trkpt lat="41.159163024176166" lon="14.632521590443746"><ele>685.0</ele><time>2026-05-04T12:54:34.995Z</time></trkpt><trkpt lat="41.15918421698658" lon="14.632655437633463"><ele>685.0</ele><time>2026-05-04T12:54:35.995Z</time></trkpt><trkpt lat="41.159186946938604" lon="14.632776310562518"><ele>685.0</ele><time>2026-05-04T12:54:36.995Z</time></trkpt><trkpt lat="41.15918200547737" lon="14.632868340944524"><ele>685.0</ele><time>2026-05-04T12:54:37.995Z</time></trkpt><trkpt lat="41.159092720059455" lon="14.632972561128074"><ele>685.0</ele><time>2026-05-04T12:54:39.995Z</time></trkpt><trkpt lat="41.15900719014217" lon="14.632991917351243"><ele>683.2</ele><time>2026-05-04T12:54:40.995Z</time></trkpt><trkpt lat="41.15890888921357" lon="14.632975267553778"><ele>681.4</ele><time>2026-05-04T12:54:41.995Z</time></trkpt><trkpt lat="41.158813556335026" lon="14.632921224317814"><ele>679.5999999999999</ele><time>2026-05-04T12:54:42.995Z</time></trkpt><trkpt lat="41.15873144701655" lon="14.632824351903327"><ele>677.8</ele><time>2026-05-04T12:54:43.995Z</time></trkpt><trkpt lat="41.15864025868314" lon="14.632737294312557"><ele>676.0</ele><time>2026-05-04T12:54:44.995Z</time></trkpt><trkpt lat="41.15855498093198" lon="14.632683307079763"><ele>676.0</ele><time>2026-05-04T12:54:45.995Z</time></trkpt><trkpt lat="41.15849265394202" lon="14.632602187767075"><ele>676.0</ele><time>2026-05-04T12:54:46.995Z</time></trkpt><trkpt lat="41.15842485519993" lon="14.6325452522207"><ele>676.0</ele><time>2026-05-04T12:54:47.995Z</time></trkpt><trkpt lat="41.15835488117482" lon="14.632506116492955"><ele>676.0</ele><time>2026-05-04T12:54:48.995Z</time></trkpt><trkpt lat="41.158295780321026" lon="14.63244924384695"><ele>676.0</ele><time>2026-05-04T12:54:49.995Z</time></trkpt><trkpt lat="41.15821166462464" lon="14.632399743449547"><ele>676.0</ele><time>2026-05-04T12:54:50.995Z</time></trkpt><trkpt lat="41.15811140116221" lon="14.632369326780172"><ele>673.4</ele><time>2026-05-04T12:54:51.995Z</time></trkpt><trkpt lat="41.15801037403577" lon="14.632379689817233"><ele>670.8</ele><time>2026-05-04T12:54:52.995Z</time></trkpt><trkpt lat="41.157914086586395" lon="14.632402078864837"><ele>668.1999999999999</ele><time>2026-05-04T12:54:53.995Z</time></trkpt><trkpt lat="41.15780926615148" lon="14.632446063992136"><ele>665.5999999999999</ele><time>2026-05-04T12:54:54.995Z</time></trkpt><trkpt lat="41.157686336071215" lon="14.632505041951138"><ele>663.0</ele><time>2026-05-04T12:54:55.995Z</time></trkpt><trkpt lat="41.15756575025795" lon="14.63259160963028"><ele>663.0</ele><time>2026-05-04T12:54:56.995Z</time></trkpt><trkpt lat="41.1574086392091" lon="14.632644000562255"><ele>663.0</ele><time>2026-05-04T12:54:57.995Z</time></trkpt><trkpt lat="41.157279936064704" lon="14.632699384656478"><ele>663.0</ele><time>2026-05-04T12:54:58.995Z</time></trkpt><trkpt lat="41.157166668876904" lon="14.632753973493017"><ele>663.0</ele><time>2026-05-04T12:54:59.995Z</time></trkpt><trkpt lat="41.157034862441456" lon="14.632801441963984"><ele>656.25</ele><time>2026-05-04T12:55:00.995Z</time></trkpt><trkpt lat="41.15690312073149" lon="14.632842041529289"><ele>649.5</ele><time>2026-05-04T12:55:01.995Z</time></trkpt><trkpt lat="41.15676886776477" lon="14.632844184596284"><ele>642.75</ele><time>2026-05-04T12:55:02.995Z</time></trkpt><trkpt lat="41.156648539982505" lon="14.632834158622806"><ele>636.0</ele><time>2026-05-04T12:55:03.996Z</time></trkpt><trkpt lat="41.15652821732515" lon="14.63280047247274"><ele>634.0</ele><time>2026-05-04T12:55:04.996Z</time></trkpt><trkpt lat="41.156414947874374" lon="14.632763141668601"><ele>632.0</ele><time>2026-05-04T12:55:05.996Z</time></trkpt><trkpt lat="41.15631574686999" lon="14.632746137356152"><ele>630.0</ele><time>2026-05-04T12:55:06.997Z</time></trkpt><trkpt lat="41.15620674964407" lon="14.632713935997863"><ele>628.0</ele><time>2026-05-04T12:55:07.997Z</time></trkpt><trkpt lat="41.15611462556184" lon="14.63277526110774"><ele>626.0</ele><time>2026-05-04T12:55:08.997Z</time></trkpt><trkpt lat="41.155991697358694" lon="14.632846957213697"><ele>626.0</ele><time>2026-05-04T12:55:09.997Z</time></trkpt><trkpt lat="41.155853538070325" lon="14.63290653961178"><ele>626.0</ele><time>2026-05-04T12:55:10.997Z</time></trkpt><trkpt lat="41.15571462239677" lon="14.632932391412265"><ele>626.0</ele><time>2026-05-04T12:55:11.998Z</time></trkpt><trkpt lat="41.155572207297965" lon="14.632950794044513"><ele>626.0</ele><time>2026-05-04T12:55:12.998Z</time></trkpt><trkpt lat="41.155450057732835" lon="14.632975855275875"><ele>623.75</ele><time>2026-05-04T12:55:13.998Z</time></trkpt><trkpt lat="41.15532275613878" lon="14.633007111890212"><ele>621.5</ele><time>2026-05-04T12:55:14.998Z</time></trkpt><trkpt lat="41.1551926204613" lon="14.63306990816144"><ele>619.25</ele><time>2026-05-04T12:55:15.998Z</time></trkpt><trkpt lat="41.15507283616472" lon="14.633148459286724"><ele>617.0</ele><time>2026-05-04T12:55:16.998Z</time></trkpt><trkpt lat="41.154951590697365" lon="14.633224751210143"><ele>608.75</ele><time>2026-05-04T12:55:17.998Z</time></trkpt><trkpt lat="41.1548265338296" lon="14.633301867704484"><ele>600.5</ele><time>2026-05-04T12:55:18.999Z</time></trkpt><trkpt lat="41.154692476677845" lon="14.633401047690967"><ele>592.25</ele><time>2026-05-04T12:55:19.999Z</time></trkpt><trkpt lat="41.154572887075595" lon="14.633462857900387"><ele>584.0</ele><time>2026-05-04T12:55:20.999Z</time></trkpt><trkpt lat="41.15443694257591" lon="14.633518598372914"><ele>584.0</ele><time>2026-05-04T12:55:21.999Z</time></trkpt><trkpt lat="41.154288604649615" lon="14.633577693282595"><ele>584.0</ele><time>2026-05-04T12:55:22.999Z</time></trkpt><trkpt lat="41.15415806683676" lon="14.633642236813788"><ele>584.0</ele><time>2026-05-04T12:55:23.999Z</time></trkpt><trkpt lat="41.15407581328687" lon="14.63371559411405"><ele>584.0</ele><time>2026-05-04T12:55:24.999Z</time></trkpt><trkpt lat="41.15400273195791" lon="14.633827055866474"><ele>578.25</ele><time>2026-05-04T12:55:25.999Z</time></trkpt><trkpt lat="41.15398112290384" lon="14.633921905274564"><ele>572.5</ele><time>2026-05-04T12:55:26.999Z</time></trkpt><trkpt lat="41.15395714050259" lon="14.63407896023403"><ele>566.75</ele><time>2026-05-04T12:55:27.999Z</time></trkpt><trkpt lat="41.15393519136662" lon="14.634277468968493"><ele>561.0</ele><time>2026-05-04T12:55:28.999Z</time></trkpt><trkpt lat="41.153914935206444" lon="14.634469765526067"><ele>559.5</ele><time>2026-05-04T12:55:29.999Z</time></trkpt><trkpt lat="41.15390471604693" lon="14.634625983636116"><ele>558.0</ele><time>2026-05-04T12:55:30.999Z</time></trkpt><trkpt lat="41.15392388405981" lon="14.634748962746375"><ele>556.5</ele><time>2026-05-04T12:55:31.999Z</time></trkpt><trkpt lat="41.1539399588524" lon="14.634830526666967"><ele>555.0</ele><time>2026-05-04T12:55:32.999Z</time></trkpt><trkpt lat="41.153878401520636" lon="14.634906542319932"><ele>553.5</ele><time>2026-05-04T12:55:34.999Z</time></trkpt><trkpt lat="41.15382360821244" lon="14.634829237346757"><ele>552.0</ele><time>2026-05-04T12:55:35.999Z</time></trkpt><trkpt lat="41.153843365760416" lon="14.634722816583674"><ele>552.0</ele><time>2026-05-04T12:55:36.999Z</time></trkpt><trkpt lat="41.15381945674453" lon="14.634579260318192"><ele>552.0</ele><time>2026-05-04T12:55:37.999Z</time></trkpt><trkpt lat="41.15377254903917" lon="14.634392307021429"><ele>552.0</ele><time>2026-05-04T12:55:39Z</time></trkpt><trkpt lat="41.15372261253215" lon="14.63419862355961"><ele>552.0</ele><time>2026-05-04T12:55:40Z</time></trkpt><trkpt lat="41.153680090908736" lon="14.634024817631767"><ele>551.4</ele><time>2026-05-04T12:55:41Z</time></trkpt><trkpt lat="41.15364022450212" lon="14.63385843218096"><ele>550.8000000000001</ele><time>2026-05-04T12:55:42Z</time></trkpt><trkpt lat="41.15361660271002" lon="14.633712656803832"><ele>550.2</ele><time>2026-05-04T12:55:43Z</time></trkpt><trkpt lat="41.1536179644961" lon="14.633589431283495"><ele>549.6</ele><time>2026-05-04T12:55:44Z</time></trkpt><trkpt lat="41.153634190450575" lon="14.63348818013563"><ele>549.0</ele><time>2026-05-04T12:55:45Z</time></trkpt><trkpt lat="41.15370657549258" lon="14.633376703323517"><ele>549.0</ele><time>2026-05-04T12:55:46Z</time></trkpt><trkpt lat="41.15380738381732" lon="14.63326197137178"><ele>549.0</ele><time>2026-05-04T12:55:47Z</time></trkpt><trkpt lat="41.15393226204487" lon="14.63314535269043"><ele>549.0</ele><time>2026-05-04T12:55:48Z</time></trkpt><trkpt lat="41.154041574251394" lon="14.633065787262623"><ele>549.0</ele><time>2026-05-04T12:55:49Z</time></trkpt><trkpt lat="41.154137550288176" lon="14.633000382762733"><ele>549.4</ele><time>2026-05-04T12:55:50Z</time></trkpt><trkpt lat="41.15421804778095" lon="14.63294593225197"><ele>549.8</ele><time>2026-05-04T12:55:51Z</time></trkpt><trkpt lat="41.154283822345796" lon="14.632908792411323"><ele>550.2</ele><time>2026-05-04T12:55:52Z</time></trkpt><trkpt lat="41.154339634208476" lon="14.632800730056427"><ele>550.6</ele><time>2026-05-04T12:55:53Z</time></trkpt><trkpt lat="41.15429959782271" lon="14.632660091139051"><ele>551.0</ele><time>2026-05-04T12:55:54Z</time></trkpt><trkpt lat="41.15415935572717" lon="14.63270554388182"><ele>551.0</ele><time>2026-05-04T12:55:55Z</time></trkpt><trkpt lat="41.15404821625643" lon="14.632781066950217"><ele>551.0</ele><time>2026-05-04T12:55:57Z</time></trkpt><trkpt lat="41.153933109015966" lon="14.632827684965712"><ele>551.0</ele><time>2026-05-04T12:55:58Z</time></trkpt><trkpt lat="41.15379663130574" lon="14.63288681681113"><ele>551.0</ele><time>2026-05-04T12:55:59Z</time></trkpt><trkpt lat="41.153635950534294" lon="14.632965536504448"><ele>550.5</ele><time>2026-05-04T12:56:00Z</time></trkpt><trkpt lat="41.15350071885208" lon="14.63303664301378"><ele>550.0</ele><time>2026-05-04T12:56:01Z</time></trkpt><trkpt lat="41.15337185307538" lon="14.63311078517725"><ele>549.5</ele><time>2026-05-04T12:56:02Z</time></trkpt><trkpt lat="41.15324537647056" lon="14.633195243614779"><ele>549.0</ele><time>2026-05-04T12:56:03Z</time></trkpt><trkpt lat="41.15314291970918" lon="14.633283838579647"><ele>542.0</ele><time>2026-05-04T12:56:04Z</time></trkpt><trkpt lat="41.15307377513536" lon="14.633371185781437"><ele>535.0</ele><time>2026-05-04T12:56:05Z</time></trkpt><trkpt lat="41.15303417584717" lon="14.63344596313656"><ele>528.0</ele><time>2026-05-04T12:56:06Z</time></trkpt><trkpt lat="41.15298786954192" lon="14.633572241874456"><ele>521.0</ele><time>2026-05-04T12:56:07Z</time></trkpt><trkpt lat="41.152941712185175" lon="14.633730653252384"><ele>514.0</ele><time>2026-05-04T12:56:08Z</time></trkpt><trkpt lat="41.15291618188227" lon="14.633932282992884"><ele>514.0</ele><time>2026-05-04T12:56:09Z</time></trkpt><trkpt lat="41.15291469505996" lon="14.634145716246207"><ele>514.0</ele><time>2026-05-04T12:56:10Z</time></trkpt><trkpt lat="41.15290607513023" lon="14.63433760472643"><ele>514.0</ele><time>2026-05-04T12:56:11Z</time></trkpt><trkpt lat="41.1529061619571" lon="14.634515017175513"><ele>514.0</ele><time>2026-05-04T12:56:12Z</time></trkpt><trkpt lat="41.152922920859965" lon="14.63466831618403"><ele>512.0</ele><time>2026-05-04T12:56:13Z</time></trkpt><trkpt lat="41.15295269160485" lon="14.634794930550973"><ele>510.0</ele><time>2026-05-04T12:56:14Z</time></trkpt><trkpt lat="41.15298396328615" lon="14.63489792100421"><ele>508.0</ele><time>2026-05-04T12:56:15Z</time></trkpt><trkpt lat="41.15292236342335" lon="14.63499253950384"><ele>506.0</ele><time>2026-05-04T12:56:17Z</time></trkpt><trkpt lat="41.15287762467093" lon="14.634794338960399"><ele>504.0</ele><time>2026-05-04T12:56:19Z</time></trkpt><trkpt lat="41.152834594302526" lon="14.63463047718847"><ele>507.33333333333337</ele><time>2026-05-04T12:56:20Z</time></trkpt><trkpt lat="41.15276421467418" lon="14.634467665348215"><ele>510.6666666666667</ele><time>2026-05-04T12:56:21Z</time></trkpt><trkpt lat="41.15271098085355" lon="14.634270735379523"><ele>514.0</ele><time>2026-05-04T12:56:22Z</time></trkpt><trkpt lat="41.152643898219665" lon="14.63406443265274"><ele>514.0</ele><time>2026-05-04T12:56:23Z</time></trkpt><trkpt lat="41.152583913467055" lon="14.633872960791836"><ele>514.0</ele><time>2026-05-04T12:56:24Z</time></trkpt><trkpt lat="41.152535887177706" lon="14.633702583268198"><ele>514.0</ele><time>2026-05-04T12:56:25Z</time></trkpt><trkpt lat="41.15249790924271" lon="14.633547124152816"><ele>514.0</ele><time>2026-05-04T12:56:26Z</time></trkpt><trkpt lat="41.152473802366075" lon="14.633403979280445"><ele>514.0</ele><time>2026-05-04T12:56:27Z</time></trkpt><trkpt lat="41.15247745677609" lon="14.633280289297305"><ele>514.0</ele><time>2026-05-04T12:56:28Z</time></trkpt><trkpt lat="41.15252528827039" lon="14.633184784222461"><ele>514.0</ele><time>2026-05-04T12:56:29Z</time></trkpt><trkpt lat="41.1525940428921" lon="14.63306028072196"><ele>514.0</ele><time>2026-05-04T12:56:30Z</time></trkpt><trkpt lat="41.15270099489712" lon="14.63291276355749"><ele>509.5</ele><time>2026-05-04T12:56:31Z</time></trkpt><trkpt lat="41.15281530051986" lon="14.632773694651442"><ele>505.0</ele><time>2026-05-04T12:56:32Z</time></trkpt><trkpt lat="41.15290907141679" lon="14.632659374891363"><ele>500.5</ele><time>2026-05-04T12:56:33Z</time></trkpt><trkpt lat="41.153008126710915" lon="14.632551968852468"><ele>496.0</ele><time>2026-05-04T12:56:34Z</time></trkpt><trkpt lat="41.15311102754062" lon="14.632471181664686"><ele>501.0</ele><time>2026-05-04T12:56:35Z</time></trkpt><trkpt lat="41.15321218108991" lon="14.632414613296115"><ele>506.0</ele><time>2026-05-04T12:56:36Z</time></trkpt><trkpt lat="41.15332671884419" lon="14.63238779861993"><ele>511.0</ele><time>2026-05-04T12:56:37Z</time></trkpt><trkpt lat="41.15341991781466" lon="14.632344027720016"><ele>516.0</ele><time>2026-05-04T12:56:38Z</time></trkpt><trkpt lat="41.15348258088169" lon="14.632303537044976"><ele>521.0</ele><time>2026-05-04T12:56:40Z</time></trkpt><trkpt lat="41.1534399408052" lon="14.632198240978356"><ele>521.0</ele><time>2026-05-04T12:56:40.999Z</time></trkpt><trkpt lat="41.153326815134896" lon="14.632163332959662"><ele>521.0</ele><time>2026-05-04T12:56:42.999Z</time></trkpt><trkpt lat="41.15320571124171" lon="14.632226314622581"><ele>521.0</ele><time>2026-05-04T12:56:43.999Z</time></trkpt><trkpt lat="41.15307732142924" lon="14.632263050076268"><ele>521.0</ele><time>2026-05-04T12:56:44.999Z</time></trkpt><trkpt lat="41.152930608213" lon="14.632308832846805"><ele>512.6666666666666</ele><time>2026-05-04T12:56:45.999Z</time></trkpt><trkpt lat="41.15277330023955" lon="14.63238199950045"><ele>504.33333333333337</ele><time>2026-05-04T12:56:46.999Z</time></trkpt><trkpt lat="41.15262258717538" lon="14.632421553144086"><ele>496.0</ele><time>2026-05-04T12:56:47.999Z</time></trkpt><trkpt lat="41.152481080605654" lon="14.632489736916149"><ele>486.6666666666667</ele><time>2026-05-04T12:56:48.999Z</time></trkpt><trkpt lat="41.15233827730398" lon="14.632553553959"><ele>477.33333333333337</ele><time>2026-05-04T12:56:49.999Z</time></trkpt><trkpt lat="41.152192689370096" lon="14.632616276779073"><ele>468.0</ele><time>2026-05-04T12:56:50.999Z</time></trkpt><trkpt lat="41.152050102634156" lon="14.632670800306128"><ele>468.0</ele><time>2026-05-04T12:56:51.999Z</time></trkpt><trkpt lat="41.15191746098737" lon="14.632718391391485"><ele>468.0</ele><time>2026-05-04T12:56:52.999Z</time></trkpt><trkpt lat="41.15178195751902" lon="14.632754215540178"><ele>468.0</ele><time>2026-05-04T12:56:53.999Z</time></trkpt><trkpt lat="41.1516610519592" lon="14.632777059206372"><ele>468.0</ele><time>2026-05-04T12:56:54.999Z</time></trkpt><trkpt lat="41.15157581041526" lon="14.632820325840973"><ele>463.6666666666667</ele><time>2026-05-04T12:56:55.999Z</time></trkpt><trkpt lat="41.15152249530018" lon="14.632874341745012"><ele>459.33333333333337</ele><time>2026-05-04T12:56:56.999Z</time></trkpt><trkpt lat="41.15145988916264" lon="14.63297115625003"><ele>455.0</ele><time>2026-05-04T12:56:57.999Z</time></trkpt><trkpt lat="41.15146519111767" lon="14.63310087724731"><ele>450.6666666666667</ele><time>2026-05-04T12:56:58.999Z</time></trkpt><trkpt lat="41.15149504231771" lon="14.63323908791251"><ele>446.33333333333337</ele><time>2026-05-04T12:56:59.999Z</time></trkpt><trkpt lat="41.151503765005394" lon="14.633324747568485"><ele>442.0</ele><time>2026-05-04T12:57:00.999Z</time></trkpt><trkpt lat="41.15143928900636" lon="14.633357880455426"><ele>442.00000000000006</ele><time>2026-05-04T12:57:02.999Z</time></trkpt><trkpt lat="41.15139063395624" lon="14.633278427222546"><ele>442.0</ele><time>2026-05-04T12:57:03.999Z</time></trkpt><trkpt lat="41.1513662131716" lon="14.633117021284052"><ele>442.0</ele><time>2026-05-04T12:57:04.999Z</time></trkpt><trkpt lat="41.151362280321585" lon="14.633008153630552"><ele>442.0</ele><time>2026-05-04T12:57:05.999Z</time></trkpt><trkpt lat="41.15134766719173" lon="14.632922918102878"><ele>442.00000000000006</ele><time>2026-05-04T12:57:06.999Z</time></trkpt><trkpt lat="41.15137601627332" lon="14.632844507304108"><ele>442.0</ele><time>2026-05-04T12:57:07.999Z</time></trkpt><trkpt lat="41.15122371153726" lon="14.632793853342958"><ele>442.0</ele><time>2026-05-04T12:57:11Z</time></trkpt><trkpt lat="41.15117860416115" lon="14.632983757134074"><ele>442.0</ele><time>2026-05-04T12:57:12Z</time></trkpt><trkpt lat="41.15117942234433" lon="14.63311530475774"><ele>442.0</ele><time>2026-05-04T12:57:13Z</time></trkpt><trkpt lat="41.15118940098611" lon="14.633289256262554"><ele>442.0</ele><time>2026-05-04T12:57:14Z</time></trkpt><trkpt lat="41.15120156811452" lon="14.633393300946002"><ele>442.0</ele><time>2026-05-04T12:57:15Z</time></trkpt><trkpt lat="41.15123928479419" lon="14.633544409271632"><ele>442.0</ele><time>2026-05-04T12:57:17Z</time></trkpt><trkpt lat="41.15121716455669" lon="14.63363220585998"><ele>442.0</ele><time>2026-05-04T12:57:19Z</time></trkpt><trkpt lat="41.151135774879535" lon="14.63347850758421"><ele>442.0</ele><time>2026-05-04T12:57:21Z</time></trkpt><trkpt lat="41.15109315736296" lon="14.633327504313835"><ele>442.0</ele><time>2026-05-04T12:57:22Z</time></trkpt><trkpt lat="41.151044144612115" lon="14.633150644194776"><ele>442.00000000000006</ele><time>2026-05-04T12:57:23Z</time></trkpt><trkpt lat="41.15101717076398" lon="14.633038203439982"><ele>442.00000000000006</ele><time>2026-05-04T12:57:24Z</time></trkpt><trkpt lat="41.15100395696122" lon="14.632868726178367"><ele>442.0</ele><time>2026-05-04T12:57:26Z</time></trkpt><trkpt lat="41.15101612315373" lon="14.632763249818067"><ele>442.0</ele><time>2026-05-04T12:57:27Z</time></trkpt><trkpt lat="41.151050435393586" lon="14.632672377982487"><ele>442.0</ele><time>2026-05-04T12:57:28Z</time></trkpt><trkpt lat="41.15107972897769" lon="14.632582988019742"><ele>442.00000000000006</ele><time>2026-05-04T12:57:29Z</time></trkpt><trkpt lat="41.1510750067344" lon="14.632491383525636"><ele>442.00000000000006</ele><time>2026-05-04T12:57:30Z</time></trkpt><trkpt lat="41.15100504831453" lon="14.632410381992164"><ele>442.0</ele><time>2026-05-04T12:57:32Z</time></trkpt><trkpt lat="41.15090139656502" lon="14.632512286575931"><ele>442.0</ele><time>2026-05-04T12:57:34Z</time></trkpt><trkpt lat="41.15087759004504" lon="14.63265034238613"><ele>442.0</ele><time>2026-05-04T12:57:35Z</time></trkpt><trkpt lat="41.150840078680226" lon="14.632804126615833"><ele>442.00000000000006</ele><time>2026-05-04T12:57:36Z</time></trkpt><trkpt lat="41.150816084060864" lon="14.63294689521395"><ele>442.00000000000006</ele><time>2026-05-04T12:57:37Z</time></trkpt><trkpt lat="41.150803328629976" lon="14.633079294013596"><ele>442.0</ele><time>2026-05-04T12:57:38Z</time></trkpt><trkpt lat="41.15080432006337" lon="14.633206146363321"><ele>442.0</ele><time>2026-05-04T12:57:39Z</time></trkpt><trkpt lat="41.150816689130394" lon="14.6333208096085"><ele>442.0</ele><time>2026-05-04T12:57:40Z</time></trkpt><trkpt lat="41.150833035126766" lon="14.633417983767016"><ele>442.00000000000006</ele><time>2026-05-04T12:57:41Z</time></trkpt><trkpt lat="41.1507751329154" lon="14.633452602644779"><ele>442.00000000000006</ele><time>2026-05-04T12:57:43Z</time></trkpt><trkpt lat="41.150746471643544" lon="14.633311918435492"><ele>442.0</ele><time>2026-05-04T12:57:45Z</time></trkpt><trkpt lat="41.15072456345105" lon="14.633152508907292"><ele>442.0</ele><time>2026-05-04T12:57:46Z</time></trkpt><trkpt lat="41.15070729332" lon="14.63300106697912"><ele>442.0</ele><time>2026-05-04T12:57:47Z</time></trkpt><trkpt lat="41.15071222774444" lon="14.632857179882578"><ele>442.00000000000006</ele><time>2026-05-04T12:57:48Z</time></trkpt><trkpt lat="41.15068220473731" lon="14.632711789711424"><ele>442.00000000000006</ele><time>2026-05-04T12:57:49Z</time></trkpt><trkpt lat="41.150695226930665" lon="14.632577870788069"><ele>442.0</ele><time>2026-05-04T12:57:50Z</time></trkpt><trkpt lat="41.150677515958826" lon="14.632491436202473"><ele>442.0</ele><time>2026-05-04T12:57:51Z</time></trkpt><trkpt lat="41.15067397170705" lon="14.632404728536097"><ele>442.20000000000005</ele><time>2026-05-04T12:57:52Z</time></trkpt><trkpt lat="41.15058143356153" lon="14.632381540641111"><ele>442.40000000000003</ele><time>2026-05-04T12:57:54Z</time></trkpt><trkpt lat="41.150538878574466" lon="14.632491836476238"><ele>442.59999999999997</ele><time>2026-05-04T12:57:56Z</time></trkpt><trkpt lat="41.150563088932245" lon="14.632653499627429"><ele>442.79999999999995</ele><time>2026-05-04T12:57:58Z</time></trkpt><trkpt lat="41.15055776257836" lon="14.632748088613987"><ele>443.0</ele><time>2026-05-04T12:57:59Z</time></trkpt><trkpt lat="41.15054972242695" lon="14.632884944625442"><ele>443.0</ele><time>2026-05-04T12:58:01Z</time></trkpt><trkpt lat="41.150546438595335" lon="14.632997722503802"><ele>442.99999999999994</ele><time>2026-05-04T12:58:03Z</time></trkpt><trkpt lat="41.15053880280785" lon="14.633096717539528"><ele>442.99999999999994</ele><time>2026-05-04T12:58:04Z</time></trkpt><trkpt lat="41.15053141178318" lon="14.633220077866383"><ele>443.0</ele><time>2026-05-04T12:58:05Z</time></trkpt><trkpt lat="41.15052133901114" lon="14.633358117716169"><ele>443.0</ele><time>2026-05-04T12:58:06Z</time></trkpt><trkpt lat="41.15051140894161" lon="14.633498714962757"><ele>437.25</ele><time>2026-05-04T12:58:07Z</time></trkpt><trkpt lat="41.15049998483429" lon="14.633658747225088"><ele>431.5</ele><time>2026-05-04T12:58:08Z</time></trkpt><trkpt lat="41.15049647260573" lon="14.633838109746952"><ele>425.75</ele><time>2026-05-04T12:58:09Z</time></trkpt><trkpt lat="41.150474828794266" lon="14.634019978398422"><ele>420.0</ele><time>2026-05-04T12:58:10Z</time></trkpt><trkpt lat="41.150423222495384" lon="14.634186312024227"><ele>420.0</ele><time>2026-05-04T12:58:11Z</time></trkpt><trkpt lat="41.15038778126076" lon="14.634357078305868"><ele>420.0</ele><time>2026-05-04T12:58:12Z</time></trkpt><trkpt lat="41.15032571569476" lon="14.634528122351941"><ele>420.0</ele><time>2026-05-04T12:58:13Z</time></trkpt><trkpt lat="41.15025736906991" lon="14.634691177185145"><ele>420.0</ele><time>2026-05-04T12:58:14Z</time></trkpt><trkpt lat="41.15021007056017" lon="14.634855974519361"><ele>417.25</ele><time>2026-05-04T12:58:15Z</time></trkpt><trkpt lat="41.15019138432267" lon="14.635020088033093"><ele>414.5</ele><time>2026-05-04T12:58:16Z</time></trkpt><trkpt lat="41.15020520429852" lon="14.63518757849966"><ele>411.75</ele><time>2026-05-04T12:58:17Z</time></trkpt><trkpt lat="41.15024744668443" lon="14.635365846440793"><ele>409.0</ele><time>2026-05-04T12:58:18Z</time></trkpt><trkpt lat="41.15023709106031" lon="14.63548806254718"><ele>406.0</ele><time>2026-05-04T12:58:19Z</time></trkpt><trkpt lat="41.150245925065256" lon="14.635670976665835"><ele>403.0</ele><time>2026-05-04T12:58:20Z</time></trkpt><trkpt lat="41.150186704479125" lon="14.635812232320827"><ele>400.0</ele><time>2026-05-04T12:58:21Z</time></trkpt><trkpt lat="41.15011783696993" lon="14.635931564419058"><ele>397.0</ele><time>2026-05-04T12:58:22Z</time></trkpt><trkpt lat="41.15006225675522" lon="14.636061986401208"><ele>397.6</ele><time>2026-05-04T12:58:23Z</time></trkpt><trkpt lat="41.14999108365326" lon="14.636179802800338"><ele>398.20000000000005</ele><time>2026-05-04T12:58:24Z</time></trkpt><trkpt lat="41.14991562840977" lon="14.636310747553678"><ele>398.8</ele><time>2026-05-04T12:58:25Z</time></trkpt><trkpt lat="41.14986655399731" lon="14.636417534959937"><ele>399.4</ele><time>2026-05-04T12:58:26Z</time></trkpt><trkpt lat="41.14983606174574" lon="14.636502111658773"><ele>400.0</ele><time>2026-05-04T12:58:27Z</time></trkpt><trkpt lat="41.14990641047112" lon="14.636531031833114"><ele>397.0</ele><time>2026-05-04T12:58:31Z</time></trkpt><trkpt lat="41.15001276032811" lon="14.636375269412122"><ele>394.0</ele><time>2026-05-04T12:58:33Z</time></trkpt><trkpt lat="41.15006163980588" lon="14.636297004673859"><ele>391.0</ele><time>2026-05-04T12:58:34Z</time></trkpt><trkpt lat="41.15013134702113" lon="14.636263254005941"><ele>388.0</ele><time>2026-05-04T12:58:35Z</time></trkpt><trkpt lat="41.1502628108709" lon="14.636283662188555"><ele>385.0</ele><time>2026-05-04T12:58:37Z</time></trkpt><trkpt lat="41.15031310175091" lon="14.636371043657515"><ele>385.0</ele><time>2026-05-04T12:58:38Z</time></trkpt><trkpt lat="41.15033811926248" lon="14.63649790058848"><ele>385.0</ele><time>2026-05-04T12:58:39Z</time></trkpt><trkpt lat="41.15033916200586" lon="14.636661412520196"><ele>385.0</ele><time>2026-05-04T12:58:40Z</time></trkpt><trkpt lat="41.15034496232831" lon="14.636855353720055"><ele>385.0</ele><time>2026-05-04T12:58:40.999Z</time></trkpt><trkpt lat="41.1503648413286" lon="14.637100004264932"><ele>383.0</ele><time>2026-05-04T12:58:41.999Z</time></trkpt><trkpt lat="41.150406747910516" lon="14.63729178955944"><ele>381.0</ele><time>2026-05-04T12:58:42.999Z</time></trkpt><trkpt lat="41.150471793597724" lon="14.637460880029115"><ele>379.0</ele><time>2026-05-04T12:58:43.999Z</time></trkpt><trkpt lat="41.1505096141032" lon="14.637609227144829"><ele>377.0</ele><time>2026-05-04T12:58:44.999Z</time></trkpt><trkpt lat="41.15050653818602" lon="14.637763732615573"><ele>374.75</ele><time>2026-05-04T12:58:45.999Z</time></trkpt><trkpt lat="41.15051878016974" lon="14.637926685192316"><ele>372.5</ele><time>2026-05-04T12:58:46.999Z</time></trkpt><trkpt lat="41.150496016421556" lon="14.63812592530698"><ele>370.25</ele><time>2026-05-04T12:58:47.999Z</time></trkpt><trkpt lat="41.15044811003367" lon="14.638330175696582"><ele>368.0</ele><time>2026-05-04T12:58:48.999Z</time></trkpt><trkpt lat="41.150423495346494" lon="14.638508302716048"><ele>365.25</ele><time>2026-05-04T12:58:49.999Z</time></trkpt><trkpt lat="41.15037498840748" lon="14.638676363154218"><ele>362.5</ele><time>2026-05-04T12:58:50.999Z</time></trkpt><trkpt lat="41.15033134924613" lon="14.638838191898882"><ele>359.75</ele><time>2026-05-04T12:58:51.999Z</time></trkpt><trkpt lat="41.15030541050104" lon="14.638996820346273"><ele>357.0</ele><time>2026-05-04T12:58:52.999Z</time></trkpt><trkpt lat="41.15026960957448" lon="14.639137590236341"><ele>357.0</ele><time>2026-05-04T12:58:53.999Z</time></trkpt><trkpt lat="41.15021104674993" lon="14.63930581082034"><ele>357.0</ele><time>2026-05-04T12:58:54.999Z</time></trkpt><trkpt lat="41.150131106692655" lon="14.639450723534258"><ele>357.0</ele><time>2026-05-04T12:58:55.999Z</time></trkpt><trkpt lat="41.15008671737505" lon="14.639557394844754"><ele>357.0</ele><time>2026-05-04T12:58:56.999Z</time></trkpt><trkpt lat="41.15003384514712" lon="14.639645257894221"><ele>356.0</ele><time>2026-05-04T12:58:57.999Z</time></trkpt><trkpt lat="41.1499577862646" lon="14.639717898119923"><ele>355.0</ele><time>2026-05-04T12:58:59.999Z</time></trkpt><trkpt lat="41.14982600273377" lon="14.639679795412642"><ele>354.0</ele><time>2026-05-04T12:59:01.999Z</time></trkpt><trkpt lat="41.14964683172748" lon="14.639692861846148"><ele>353.0</ele><time>2026-05-04T12:59:03.999Z</time></trkpt><trkpt lat="41.14956066005072" lon="14.63970015744299"><ele>353.0</ele><time>2026-05-04T12:59:04.999Z</time></trkpt><trkpt lat="41.14946568637884" lon="14.63971256156901"><ele>353.0</ele><time>2026-05-04T12:59:05.999Z</time></trkpt><trkpt lat="41.14935878534176" lon="14.639736287497794"><ele>353.0</ele><time>2026-05-04T12:59:06.999Z</time></trkpt><trkpt lat="41.14925810268279" lon="14.639753002216038"><ele>353.0</ele><time>2026-05-04T12:59:07.999Z</time></trkpt><trkpt lat="41.14915865212021" lon="14.639763956992017"><ele>353.0</ele><time>2026-05-04T12:59:08.999Z</time></trkpt><trkpt lat="41.14906278530185" lon="14.639788970363249"><ele>352.2</ele><time>2026-05-04T12:59:09.999Z</time></trkpt><trkpt lat="41.14900257688295" lon="14.639820261742523"><ele>351.4</ele><time>2026-05-04T12:59:10.999Z</time></trkpt><trkpt lat="41.148924508094815" lon="14.639894662518865"><ele>350.59999999999997</ele><time>2026-05-04T12:59:11.999Z</time></trkpt><trkpt lat="41.14886568639469" lon="14.640011228068493"><ele>349.79999999999995</ele><time>2026-05-04T12:59:12.999Z</time></trkpt><trkpt lat="41.148816358178074" lon="14.64016626717199"><ele>349.0</ele><time>2026-05-04T12:59:13.999Z</time></trkpt><trkpt lat="41.148753756412454" lon="14.640334095382446"><ele>349.0</ele><time>2026-05-04T12:59:14.999Z</time></trkpt><trkpt lat="41.14868127418318" lon="14.640462207506808"><ele>349.0</ele><time>2026-05-04T12:59:16Z</time></trkpt><trkpt lat="41.148597630225005" lon="14.640555474940184"><ele>349.0</ele><time>2026-05-04T12:59:17Z</time></trkpt><trkpt lat="41.148529144797806" lon="14.640627475946312"><ele>349.0</ele><time>2026-05-04T12:59:18Z</time></trkpt><trkpt lat="41.148472644073614" lon="14.64069111103085"><ele>349.0</ele><time>2026-05-04T12:59:19Z</time></trkpt><trkpt lat="41.14839557115534" lon="14.640698075770041"><ele>349.0</ele><time>2026-05-04T12:59:21Z</time></trkpt><trkpt lat="41.14832819145718" lon="14.640699692179146"><ele>349.0</ele><time>2026-05-04T12:59:23Z</time></trkpt><trkpt lat="41.1482618208019" lon="14.640709954225231"><ele>349.0</ele><time>2026-05-04T12:59:24Z</time></trkpt><trkpt lat="41.148196345809694" lon="14.640756064746846"><ele>349.0</ele><time>2026-05-04T12:59:25Z</time></trkpt><trkpt lat="41.14811350009668" lon="14.640856025476475"><ele>349.0</ele><time>2026-05-04T12:59:27Z</time></trkpt><trkpt lat="41.14806223315423" lon="14.640915808448998"><ele>349.0</ele><time>2026-05-04T13:00:12Z</time></trkpt><trkpt lat="41.1479901418157" lon="14.640992354119247"><ele>349.5</ele><time>2026-05-04T13:00:15Z</time></trkpt><trkpt lat="41.14793027806016" lon="14.6410197822828"><ele>350.0</ele><time>2026-05-04T13:00:42.999Z</time></trkpt><trkpt lat="41.14787570252996" lon="14.641062350992879"><ele>350.5</ele><time>2026-05-04T13:00:45.999Z</time></trkpt><trkpt lat="41.14781092760879" lon="14.641140183594354"><ele>351.0</ele><time>2026-05-04T13:00:51.999Z</time></trkpt><trkpt lat="41.14775333610033" lon="14.64126418423469"><ele>351.5</ele><time>2026-05-04T13:00:53.999Z</time></trkpt><trkpt lat="41.1477165749032" lon="14.64137523867749"><ele>352.0</ele><time>2026-05-04T13:00:55.999Z</time></trkpt><trkpt lat="41.147688722012276" lon="14.641467522844236"><ele>348.75</ele><time>2026-05-04T13:00:56.999Z</time></trkpt><trkpt lat="41.14761649319235" lon="14.641589939983284"><ele>345.5</ele><time>2026-05-04T13:00:58.999Z</time></trkpt><trkpt lat="41.147591386019435" lon="14.641686499093181"><ele>342.25</ele><time>2026-05-04T13:01:08.999Z</time></trkpt><trkpt lat="41.1477595185401" lon="14.641800996796048"><ele>339.0</ele><time>2026-05-04T13:01:10.999Z</time></trkpt><trkpt lat="41.1478420618338" lon="14.641836243856995"><ele>339.0</ele><time>2026-05-04T13:01:11.999Z</time></trkpt><trkpt lat="41.14793154377009" lon="14.641891160046448"><ele>339.0</ele><time>2026-05-04T13:01:12.999Z</time></trkpt><trkpt lat="41.148016948704495" lon="14.641938489241666"><ele>339.0</ele><time>2026-05-04T13:01:13.999Z</time></trkpt><trkpt lat="41.14808431158476" lon="14.64198892949066"><ele>339.0</ele><time>2026-05-04T13:01:14.999Z</time></trkpt><trkpt lat="41.1481392812729" lon="14.64205173808185"><ele>339.0</ele><time>2026-05-04T13:01:15.999Z</time></trkpt><trkpt lat="41.14819323886727" lon="14.64210775533621"><ele>339.0</ele><time>2026-05-04T13:01:16.999Z</time></trkpt><trkpt lat="41.14821310672252" lon="14.642190793750032"><ele>337.6</ele><time>2026-05-04T13:01:17.999Z</time></trkpt><trkpt lat="41.14821191346661" lon="14.642285843839389"><ele>336.2</ele><time>2026-05-04T13:01:18.999Z</time></trkpt><trkpt lat="41.14818209917183" lon="14.642398417090043"><ele>334.8</ele><time>2026-05-04T13:01:19.999Z</time></trkpt><trkpt lat="41.14812695046997" lon="14.642506644745445"><ele>333.40000000000003</ele><time>2026-05-04T13:01:20.999Z</time></trkpt><trkpt lat="41.148074343602744" lon="14.642587272693769"><ele>332.0</ele><time>2026-05-04T13:01:22Z</time></trkpt><trkpt lat="41.147979449988114" lon="14.642681033832579"><ele>332.0</ele><time>2026-05-04T13:01:23Z</time></trkpt><trkpt lat="41.147868643529414" lon="14.642766845645726"><ele>332.0</ele><time>2026-05-04T13:01:24Z</time></trkpt><trkpt lat="41.14774172496139" lon="14.64282818867269"><ele>332.0</ele><time>2026-05-04T13:01:25Z</time></trkpt><trkpt lat="41.1475876723952" lon="14.64285108783028"><ele>332.0</ele><time>2026-05-04T13:01:26Z</time></trkpt><trkpt lat="41.14741299795169" lon="14.642868057090327"><ele>329.25</ele><time>2026-05-04T13:01:27Z</time></trkpt><trkpt lat="41.147258933840234" lon="14.642896971490023"><ele>326.5</ele><time>2026-05-04T13:01:28Z</time></trkpt><trkpt lat="41.14712216486979" lon="14.642891693152265"><ele>323.75</ele><time>2026-05-04T13:01:29Z</time></trkpt><trkpt lat="41.1469974090467" lon="14.64291652698632"><ele>321.0</ele><time>2026-05-04T13:01:30Z</time></trkpt><trkpt lat="41.14689788843681" lon="14.642945143074138"><ele>321.0</ele><time>2026-05-04T13:01:31Z</time></trkpt><trkpt lat="41.14682415649964" lon="14.643011462100715"><ele>321.0</ele><time>2026-05-04T13:01:32Z</time></trkpt><trkpt lat="41.14670026657967" lon="14.642999663552747"><ele>321.0</ele><time>2026-05-04T13:01:33Z</time></trkpt><trkpt lat="41.14662569951394" lon="14.642943583112023"><ele>321.0</ele><time>2026-05-04T13:01:34Z</time></trkpt><trkpt lat="41.14653564113075" lon="14.642863413859047"><ele>321.0</ele><time>2026-05-04T13:01:35Z</time></trkpt><trkpt lat="41.14638742552457" lon="14.64276677391826"><ele>320.6666666666667</ele><time>2026-05-04T13:01:36Z</time></trkpt><trkpt lat="41.146258496819584" lon="14.642703848062414"><ele>320.33333333333337</ele><time>2026-05-04T13:01:37Z</time></trkpt><trkpt lat="41.146122109580844" lon="14.642653631947733"><ele>320.0</ele><time>2026-05-04T13:01:38Z</time></trkpt><trkpt lat="41.145956942389375" lon="14.642564845276937"><ele>320.0</ele><time>2026-05-04T13:01:39Z</time></trkpt><trkpt lat="41.145841897608825" lon="14.642533370823182"><ele>320.0</ele><time>2026-05-04T13:01:40Z</time></trkpt><trkpt lat="41.14572532726589" lon="14.642519035878928"><ele>320.0</ele><time>2026-05-04T13:01:41Z</time></trkpt><trkpt lat="41.145613628962046" lon="14.642513737456161"><ele>320.0</ele><time>2026-05-04T13:01:42Z</time></trkpt><trkpt lat="41.14549562710111" lon="14.642519487340005"><ele>318.25</ele><time>2026-05-04T13:01:43Z</time></trkpt><trkpt lat="41.14538575841923" lon="14.642525403167463"><ele>316.5</ele><time>2026-05-04T13:01:44Z</time></trkpt><trkpt lat="41.14529463974647" lon="14.642508270287067"><ele>314.75</ele><time>2026-05-04T13:01:45Z</time></trkpt><trkpt lat="41.14515511237477" lon="14.642489509335467"><ele>313.0</ele><time>2026-05-04T13:01:46Z</time></trkpt><trkpt lat="41.145001545849595" lon="14.642457004496075"><ele>309.5</ele><time>2026-05-04T13:01:47Z</time></trkpt><trkpt lat="41.14486777544546" lon="14.642419176207518"><ele>306.0</ele><time>2026-05-04T13:01:48Z</time></trkpt><trkpt lat="41.144744958021555" lon="14.6423854389658"><ele>302.5</ele><time>2026-05-04T13:01:49Z</time></trkpt><trkpt lat="41.14462995735183" lon="14.642363191158491"><ele>299.0</ele><time>2026-05-04T13:01:50Z</time></trkpt><trkpt lat="41.14450809356543" lon="14.642370440565063"><ele>299.0</ele><time>2026-05-04T13:01:51Z</time></trkpt><trkpt lat="41.144397354501216" lon="14.642377798619147"><ele>299.0</ele><time>2026-05-04T13:01:52Z</time></trkpt><trkpt lat="41.14428465924916" lon="14.642364004513441"><ele>299.0</ele><time>2026-05-04T13:01:53Z</time></trkpt><trkpt lat="41.144158089087384" lon="14.642277031771787"><ele>299.0</ele><time>2026-05-04T13:01:54Z</time></trkpt><trkpt lat="41.14403628168259" lon="14.642194789858742"><ele>297.59999999999997</ele><time>2026-05-04T13:01:55Z</time></trkpt><trkpt lat="41.14392175717017" lon="14.642117862093944"><ele>296.2</ele><time>2026-05-04T13:01:56Z</time></trkpt><trkpt lat="41.14383267130942" lon="14.642025890195336"><ele>294.79999999999995</ele><time>2026-05-04T13:01:57Z</time></trkpt><trkpt lat="41.14375429295649" lon="14.64197106058914"><ele>293.4</ele><time>2026-05-04T13:01:58Z</time></trkpt><trkpt lat="41.14368923785317" lon="14.64196846445197"><ele>292.0</ele><time>2026-05-04T13:01:59Z</time></trkpt><trkpt lat="41.14362767670692" lon="14.64199309405629"><ele>292.0</ele><time>2026-05-04T13:02:00Z</time></trkpt><trkpt lat="41.14357152433108" lon="14.642048295233636"><ele>292.0</ele><time>2026-05-04T13:02:01Z</time></trkpt><trkpt lat="41.143526411090875" lon="14.642108642431536"><ele>292.0</ele><time>2026-05-04T13:02:02Z</time></trkpt><trkpt lat="41.143471790973265" lon="14.64216573903841"><ele>292.0</ele><time>2026-05-04T13:02:03Z</time></trkpt><trkpt lat="41.14341256188974" lon="14.642215412796585"><ele>292.0</ele><time>2026-05-04T13:02:04Z</time></trkpt><trkpt lat="41.143347767706835" lon="14.642256533249443"><ele>292.0</ele><time>2026-05-04T13:02:05Z</time></trkpt><trkpt lat="41.14328796668217" lon="14.642309175542199"><ele>292.0</ele><time>2026-05-04T13:02:06Z</time></trkpt><trkpt lat="41.143223799598594" lon="14.64236410214987"><ele>294.3333333333333</ele><time>2026-05-04T13:02:07Z</time></trkpt><trkpt lat="41.14316094720261" lon="14.642414000400517"><ele>296.66666666666663</ele><time>2026-05-04T13:02:08Z</time></trkpt><trkpt lat="41.143087437066505" lon="14.64246253201992"><ele>299.0</ele><time>2026-05-04T13:02:09Z</time></trkpt><trkpt lat="41.14300491296934" lon="14.642490830812193"><ele>301.3333333333333</ele><time>2026-05-04T13:02:10Z</time></trkpt><trkpt lat="41.14292062121341" lon="14.642499917256755"><ele>303.6666666666667</ele><time>2026-05-04T13:02:11Z</time></trkpt><trkpt lat="41.142836945797214" lon="14.642488560016387"><ele>306.0</ele><time>2026-05-04T13:02:12Z</time></trkpt><trkpt lat="41.14275138798282" lon="14.64248207767314"><ele>306.0</ele><time>2026-05-04T13:02:13Z</time></trkpt><trkpt lat="41.14268320274769" lon="14.642482519376111"><ele>306.0</ele><time>2026-05-04T13:02:14Z</time></trkpt><trkpt lat="41.14261907612432" lon="14.642484107492702"><ele>306.0</ele><time>2026-05-04T13:02:15Z</time></trkpt><trkpt lat="41.14254731266265" lon="14.642484442165841"><ele>306.0</ele><time>2026-05-04T13:02:16Z</time></trkpt><trkpt lat="41.14247612065203" lon="14.642485897883656"><ele>306.0</ele><time>2026-05-04T13:02:17Z</time></trkpt><trkpt lat="41.14240091396561" lon="14.642465707351647"><ele>306.0</ele><time>2026-05-04T13:02:18Z</time></trkpt><trkpt lat="41.142289140771226" lon="14.642471901772513"><ele>310.20000000000005</ele><time>2026-05-04T13:02:19Z</time></trkpt><trkpt lat="41.14216786058888" lon="14.642490182563096"><ele>314.40000000000003</ele><time>2026-05-04T13:02:20Z</time></trkpt><trkpt lat="41.14205886363513" lon="14.642523979410827"><ele>318.6</ele><time>2026-05-04T13:02:21Z</time></trkpt><trkpt lat="41.14195184069471" lon="14.642537206687923"><ele>322.8</ele><time>2026-05-04T13:02:22Z</time></trkpt><trkpt lat="41.14185209757039" lon="14.642579438476707"><ele>327.0</ele><time>2026-05-04T13:02:23Z</time></trkpt><trkpt lat="41.141783814478096" lon="14.642638210581717"><ele>327.0</ele><time>2026-05-04T13:02:24Z</time></trkpt><trkpt lat="41.1417053256009" lon="14.64269377750694"><ele>327.0</ele><time>2026-05-04T13:02:25Z</time></trkpt><trkpt lat="41.14159759802559" lon="14.642758244522813"><ele>327.0</ele><time>2026-05-04T13:02:26Z</time></trkpt><trkpt lat="41.141472585230524" lon="14.642839032099007"><ele>327.0</ele><time>2026-05-04T13:02:27Z</time></trkpt><trkpt lat="41.141373598691516" lon="14.642895170547604"><ele>328.5</ele><time>2026-05-04T13:02:28Z</time></trkpt><trkpt lat="41.141285399020056" lon="14.642952722383729"><ele>330.0</ele><time>2026-05-04T13:02:29Z</time></trkpt><trkpt lat="41.14120407223355" lon="14.642996744686146"><ele>331.5</ele><time>2026-05-04T13:02:30Z</time></trkpt><trkpt lat="41.14112838620211" lon="14.64301945295205"><ele>333.0</ele><time>2026-05-04T13:02:31Z</time></trkpt><trkpt lat="41.14104490076695" lon="14.643039907183567"><ele>334.5</ele><time>2026-05-04T13:02:32Z</time></trkpt><trkpt lat="41.14095146330762" lon="14.643040177631361"><ele>336.0</ele><time>2026-05-04T13:02:33Z</time></trkpt><trkpt lat="41.14082102615587" lon="14.643020099073219"><ele>338.6666666666667</ele><time>2026-05-04T13:02:34Z</time></trkpt><trkpt lat="41.14067535333744" lon="14.642990404628282"><ele>341.33333333333337</ele><time>2026-05-04T13:02:35Z</time></trkpt><trkpt lat="41.14052278423742" lon="14.642957165476957"><ele>344.0</ele><time>2026-05-04T13:02:36Z</time></trkpt><trkpt lat="41.14034875464716" lon="14.642940348922028"><ele>344.0</ele><time>2026-05-04T13:02:37Z</time></trkpt><trkpt lat="41.14015371870543" lon="14.642923144140418"><ele>344.0</ele><time>2026-05-04T13:02:38Z</time></trkpt><trkpt lat="41.13996266026317" lon="14.642894724872308"><ele>344.0</ele><time>2026-05-04T13:02:39Z</time></trkpt><trkpt lat="41.13976739229037" lon="14.642866790866398"><ele>349.33333333333337</ele><time>2026-05-04T13:02:40Z</time></trkpt><trkpt lat="41.13956509339502" lon="14.642841643294558"><ele>354.6666666666667</ele><time>2026-05-04T13:02:41Z</time></trkpt><trkpt lat="41.139361987174844" lon="14.642819038956265"><ele>360.0</ele><time>2026-05-04T13:02:42Z</time></trkpt><trkpt lat="41.13917135519933" lon="14.642799958880152"><ele>362.25</ele><time>2026-05-04T13:02:43Z</time></trkpt><trkpt lat="41.13901098940546" lon="14.642765357876666"><ele>364.5</ele><time>2026-05-04T13:02:44Z</time></trkpt><trkpt lat="41.138872058615725" lon="14.642700104552562"><ele>366.75</ele><time>2026-05-04T13:02:45Z</time></trkpt><trkpt lat="41.13874494784481" lon="14.642635189406445"><ele>369.0</ele><time>2026-05-04T13:02:46Z</time></trkpt><trkpt lat="41.1386102291865" lon="14.642629717254037"><ele>369.0</ele><time>2026-05-04T13:02:47Z</time></trkpt><trkpt lat="41.13847508287298" lon="14.642681200832142"><ele>369.0</ele><time>2026-05-04T13:02:48Z</time></trkpt><trkpt lat="41.13831695679124" lon="14.64280081456732"><ele>369.0</ele><time>2026-05-04T13:02:49Z</time></trkpt><trkpt lat="41.13816823569218" lon="14.64288545384261"><ele>371.75</ele><time>2026-05-04T13:02:50Z</time></trkpt><trkpt lat="41.13803203963164" lon="14.642943970787119"><ele>374.5</ele><time>2026-05-04T13:02:51Z</time></trkpt><trkpt lat="41.13792130422946" lon="14.642959282091935"><ele>377.25</ele><time>2026-05-04T13:02:52Z</time></trkpt><trkpt lat="41.13782493123484" lon="14.642876030053085"><ele>380.0</ele><time>2026-05-04T13:02:53Z</time></trkpt><trkpt lat="41.13770336213971" lon="14.642762999829822"><ele>380.6666666666667</ele><time>2026-05-04T13:02:54Z</time></trkpt><trkpt lat="41.137545239817065" lon="14.64265474517043"><ele>381.3333333333333</ele><time>2026-05-04T13:02:55Z</time></trkpt><trkpt lat="41.137396698170406" lon="14.642573139942117"><ele>382.0</ele><time>2026-05-04T13:02:56Z</time></trkpt><trkpt lat="41.1372551715917" lon="14.642481573670144"><ele>387.3333333333333</ele><time>2026-05-04T13:02:57Z</time></trkpt><trkpt lat="41.13712697192157" lon="14.642364532329417"><ele>392.66666666666663</ele><time>2026-05-04T13:02:58Z</time></trkpt><trkpt lat="41.13700555127531" lon="14.642254613474327"><ele>398.0</ele><time>2026-05-04T13:02:58.999Z</time></trkpt><trkpt lat="41.136858229507915" lon="14.642180898398408"><ele>398.0</ele><time>2026-05-04T13:02:59.999Z</time></trkpt><trkpt lat="41.136708857775076" lon="14.642131395664522"><ele>398.0</ele><time>2026-05-04T13:03:00.999Z</time></trkpt><trkpt lat="41.13655884401115" lon="14.64210620434289"><ele>398.0</ele><time>2026-05-04T13:03:01.999Z</time></trkpt><trkpt lat="41.136395343920945" lon="14.642141429150028"><ele>402.0</ele><time>2026-05-04T13:03:02.999Z</time></trkpt><trkpt lat="41.13622245874295" lon="14.64218895217492"><ele>406.0</ele><time>2026-05-04T13:03:03.999Z</time></trkpt><trkpt lat="41.1360759831378" lon="14.642167198683662"><ele>410.0</ele><time>2026-05-04T13:03:04.999Z</time></trkpt><trkpt lat="41.135941061500134" lon="14.642138451326895"><ele>409.99999999999994</ele><time>2026-05-04T13:03:05.999Z</time></trkpt><trkpt lat="41.13583389454884" lon="14.642129275057846"><ele>410.0</ele><time>2026-05-04T13:03:06.999Z</time></trkpt><trkpt lat="41.13575976419099" lon="14.64211202298051"><ele>410.0</ele><time>2026-05-04T13:03:07.999Z</time></trkpt><trkpt lat="41.135673064835295" lon="14.642122860877564"><ele>410.0</ele><time>2026-05-04T13:03:11.999Z</time></trkpt><trkpt lat="41.135642834553344" lon="14.642256905757431"><ele>409.99999999999994</ele><time>2026-05-04T13:03:12.999Z</time></trkpt><trkpt lat="41.135635838946335" lon="14.64235307346753"><ele>410.0</ele><time>2026-05-04T13:03:13.999Z</time></trkpt><trkpt lat="41.135645883039885" lon="14.642446871383358"><ele>410.0</ele><time>2026-05-04T13:03:14.999Z</time></trkpt><trkpt lat="41.135711772464326" lon="14.642543682667387"><ele>410.0</ele><time>2026-05-04T13:03:15.999Z</time></trkpt><trkpt lat="41.1358012386033" lon="14.642603209333762"><ele>410.0</ele><time>2026-05-04T13:03:16.999Z</time></trkpt><trkpt lat="41.13590130434301" lon="14.642618595278401"><ele>410.0</ele><time>2026-05-04T13:03:17.999Z</time></trkpt><trkpt lat="41.13601250255199" lon="14.64262374409141"><ele>410.0</ele><time>2026-05-04T13:03:18.999Z</time></trkpt><trkpt lat="41.13607934900412" lon="14.642683707125395"><ele>411.75</ele><time>2026-05-04T13:03:19.999Z</time></trkpt><trkpt lat="41.13610400876817" lon="14.642809774093848"><ele>413.5</ele><time>2026-05-04T13:03:20.999Z</time></trkpt><trkpt lat="41.13606408746353" lon="14.64295984105696"><ele>415.25</ele><time>2026-05-04T13:03:21.999Z</time></trkpt><trkpt lat="41.136026294941594" lon="14.643136556030509"><ele>417.0</ele><time>2026-05-04T13:03:22.999Z</time></trkpt><trkpt lat="41.136016531227995" lon="14.64331557174059"><ele>417.0</ele><time>2026-05-04T13:03:23.999Z</time></trkpt><trkpt lat="41.13602031877302" lon="14.643517263181046"><ele>417.0</ele><time>2026-05-04T13:03:24.999Z</time></trkpt><trkpt lat="41.136037475195835" lon="14.643772936370791"><ele>417.0</ele><time>2026-05-04T13:03:25.999Z</time></trkpt><trkpt lat="41.13606375816659" lon="14.64409154823217"><ele>422.5</ele><time>2026-05-04T13:03:26.999Z</time></trkpt><trkpt lat="41.136117854549546" lon="14.644402139345168"><ele>428.0</ele><time>2026-05-04T13:03:28Z</time></trkpt><trkpt lat="41.1361538868835" lon="14.644723341915354"><ele>428.3333333333333</ele><time>2026-05-04T13:03:29Z</time></trkpt><trkpt lat="41.13616569118162" lon="14.644989981183992"><ele>428.66666666666663</ele><time>2026-05-04T13:03:30Z</time></trkpt><trkpt lat="41.13617364212976" lon="14.645219117224606"><ele>429.0</ele><time>2026-05-04T13:03:31Z</time></trkpt><trkpt lat="41.13621864882895" lon="14.645420169804776"><ele>425.5</ele><time>2026-05-04T13:03:32Z</time></trkpt><trkpt lat="41.13627640950714" lon="14.64556239550063"><ele>422.0</ele><time>2026-05-04T13:03:33Z</time></trkpt><trkpt lat="41.136342943099734" lon="14.645661767524148"><ele>418.5</ele><time>2026-05-04T13:03:34Z</time></trkpt><trkpt lat="41.13634747743483" lon="14.645756428303514"><ele>415.0</ele><time>2026-05-04T13:03:35Z</time></trkpt><trkpt lat="41.136169199678555" lon="14.645780767636085"><ele>415.0</ele><time>2026-05-04T13:03:37Z</time></trkpt><trkpt lat="41.1360777280433" lon="14.645693352530921"><ele>415.0</ele><time>2026-05-04T13:03:38Z</time></trkpt><trkpt lat="41.135966859185864" lon="14.645590644177004"><ele>415.0</ele><time>2026-05-04T13:03:39Z</time></trkpt><trkpt lat="41.135853685108124" lon="14.645469244683554"><ele>415.0</ele><time>2026-05-04T13:03:40Z</time></trkpt><trkpt lat="41.135729937783296" lon="14.645354394993147"><ele>419.0</ele><time>2026-05-04T13:03:41Z</time></trkpt><trkpt lat="41.13561640105586" lon="14.645297979318944"><ele>423.0</ele><time>2026-05-04T13:03:42Z</time></trkpt><trkpt lat="41.135498424411466" lon="14.645277471989935"><ele>427.0</ele><time>2026-05-04T13:03:43Z</time></trkpt><trkpt lat="41.135361930785486" lon="14.645317344133137"><ele>431.0</ele><time>2026-05-04T13:03:44Z</time></trkpt><trkpt lat="41.13524517213316" lon="14.645453938352372"><ele>431.0</ele><time>2026-05-04T13:03:45Z</time></trkpt><trkpt lat="41.135135491277005" lon="14.6456096093366"><ele>431.0</ele><time>2026-05-04T13:03:46Z</time></trkpt><trkpt lat="41.135063682780675" lon="14.645782479329586"><ele>431.0</ele><time>2026-05-04T13:03:47Z</time></trkpt><trkpt lat="41.13501238903965" lon="14.645930819996906"><ele>431.0</ele><time>2026-05-04T13:03:48Z</time></trkpt><trkpt lat="41.13497773108663" lon="14.646067034266393"><ele>430.5</ele><time>2026-05-04T13:03:49Z</time></trkpt><trkpt lat="41.13484297553193" lon="14.646033186629536"><ele>430.0</ele><time>2026-05-04T13:03:50Z</time></trkpt><trkpt lat="41.13474585727902" lon="14.645984623029182"><ele>429.5</ele><time>2026-05-04T13:03:51Z</time></trkpt><trkpt lat="41.13465750690832" lon="14.645889324142539"><ele>429.0</ele><time>2026-05-04T13:03:52Z</time></trkpt><trkpt lat="41.134556485459846" lon="14.645763265068686"><ele>429.0</ele><time>2026-05-04T13:03:53Z</time></trkpt><trkpt lat="41.134425497185845" lon="14.64559453657357"><ele>429.0</ele><time>2026-05-04T13:03:54Z</time></trkpt><trkpt lat="41.134301979673985" lon="14.645433192736666"><ele>429.0</ele><time>2026-05-04T13:03:55Z</time></trkpt><trkpt lat="41.13419566554013" lon="14.64529320791772"><ele>431.0</ele><time>2026-05-04T13:03:56Z</time></trkpt><trkpt lat="41.134079515110244" lon="14.645151280120546"><ele>433.0</ele><time>2026-05-04T13:03:57Z</time></trkpt><trkpt lat="41.13396363847663" lon="14.645019975703736"><ele>435.0</ele><time>2026-05-04T13:03:58Z</time></trkpt><trkpt lat="41.133831480688585" lon="14.644910757825128"><ele>435.0</ele><time>2026-05-04T13:03:59Z</time></trkpt><trkpt lat="41.133691116790416" lon="14.64480548487664"><ele>435.0</ele><time>2026-05-04T13:04:00Z</time></trkpt><trkpt lat="41.13354017464219" lon="14.644698193418442"><ele>435.0</ele><time>2026-05-04T13:04:01Z</time></trkpt><trkpt lat="41.1333855509044" lon="14.644577727194596"><ele>439.66666666666663</ele><time>2026-05-04T13:04:02Z</time></trkpt><trkpt lat="41.133227019070425" lon="14.64445787478005"><ele>444.3333333333333</ele><time>2026-05-04T13:04:03Z</time></trkpt><trkpt lat="41.13306953547734" lon="14.644385791999621"><ele>449.0</ele><time>2026-05-04T13:04:04Z</time></trkpt><trkpt lat="41.132930044337016" lon="14.644308695774845"><ele>449.3333333333333</ele><time>2026-05-04T13:04:05Z</time></trkpt><trkpt lat="41.13277672897754" lon="14.644281340943724"><ele>449.66666666666663</ele><time>2026-05-04T13:04:06Z</time></trkpt><trkpt lat="41.13260801171792" lon="14.644278566924731"><ele>450.0</ele><time>2026-05-04T13:04:07Z</time></trkpt><trkpt lat="41.13244148097193" lon="14.644299265596933"><ele>450.5</ele><time>2026-05-04T13:04:08Z</time></trkpt><trkpt lat="41.132280209532055" lon="14.64433274957245"><ele>451.0</ele><time>2026-05-04T13:04:09Z</time></trkpt><trkpt lat="41.13214427060797" lon="14.6443130923735"><ele>451.5</ele><time>2026-05-04T13:04:10Z</time></trkpt><trkpt lat="41.13199714333674" lon="14.64428355580721"><ele>452.0</ele><time>2026-05-04T13:04:11Z</time></trkpt><trkpt lat="41.131872109277786" lon="14.644251492943432"><ele>452.0</ele><time>2026-05-04T13:04:12Z</time></trkpt><trkpt lat="41.131741971567735" lon="14.644208539906057"><ele>452.0</ele><time>2026-05-04T13:04:13Z</time></trkpt><trkpt lat="41.131602516383104" lon="14.644167257944781"><ele>452.0</ele><time>2026-05-04T13:04:14Z</time></trkpt><trkpt lat="41.13144429755841" lon="14.644139852530197"><ele>452.0</ele><time>2026-05-04T13:04:15Z</time></trkpt><trkpt lat="41.131280246353995" lon="14.644084523507821"><ele>454.25</ele><time>2026-05-04T13:04:16Z</time></trkpt><trkpt lat="41.131128825408" lon="14.644036898941948"><ele>456.5</ele><time>2026-05-04T13:04:17Z</time></trkpt><trkpt lat="41.130995103055405" lon="14.644022199639501"><ele>458.75</ele><time>2026-05-04T13:04:18Z</time></trkpt><trkpt lat="41.13088641440168" lon="14.644046138632433"><ele>461.0</ele><time>2026-05-04T13:04:19Z</time></trkpt><trkpt lat="41.13079823990384" lon="14.64412322704086"><ele>461.0</ele><time>2026-05-04T13:04:20Z</time></trkpt><trkpt lat="41.13075340382996" lon="14.644243293070607"><ele>461.0</ele><time>2026-05-04T13:04:21Z</time></trkpt><trkpt lat="41.130725199590586" lon="14.644405541625899"><ele>461.0</ele><time>2026-05-04T13:04:22Z</time></trkpt><trkpt lat="41.13072237184622" lon="14.64461811887441"><ele>461.0</ele><time>2026-05-04T13:04:23Z</time></trkpt><trkpt lat="41.130750718713685" lon="14.644870579874254"><ele>460.0</ele><time>2026-05-04T13:04:24Z</time></trkpt><trkpt lat="41.130756926974605" lon="14.645065325312792"><ele>459.0</ele><time>2026-05-04T13:04:25Z</time></trkpt><trkpt lat="41.13074539608301" lon="14.645201524277482"><ele>458.0</ele><time>2026-05-04T13:04:26Z</time></trkpt><trkpt lat="41.13067428903643" lon="14.645292720589644"><ele>457.0</ele><time>2026-05-04T13:04:27Z</time></trkpt><trkpt lat="41.13055123879894" lon="14.645300227765881"><ele>462.6666666666667</ele><time>2026-05-04T13:04:28Z</time></trkpt><trkpt lat="41.130417192547306" lon="14.6452840452359"><ele>468.33333333333337</ele><time>2026-05-04T13:04:29Z</time></trkpt><trkpt lat="41.130247305374" lon="14.645283867255147"><ele>474.0</ele><time>2026-05-04T13:04:30Z</time></trkpt><trkpt lat="41.130036372904556" lon="14.64526495393077"><ele>476.0</ele><time>2026-05-04T13:04:31Z</time></trkpt><trkpt lat="41.12988026372878" lon="14.645279236808253"><ele>478.0</ele><time>2026-05-04T13:04:32Z</time></trkpt><trkpt lat="41.12975464375692" lon="14.645346479291597"><ele>480.0</ele><time>2026-05-04T13:04:33Z</time></trkpt><trkpt lat="41.129638648335636" lon="14.645437567422869"><ele>482.0</ele><time>2026-05-04T13:04:34Z</time></trkpt><trkpt lat="41.12951972890688" lon="14.645453478756"><ele>479.75</ele><time>2026-05-04T13:04:35Z</time></trkpt><trkpt lat="41.12937631257561" lon="14.645426264584966"><ele>477.5</ele><time>2026-05-04T13:04:36Z</time></trkpt><trkpt lat="41.12922986265425" lon="14.64541345229366"><ele>475.25</ele><time>2026-05-04T13:04:37Z</time></trkpt><trkpt lat="41.129125554862725" lon="14.645389825243416"><ele>473.0</ele><time>2026-05-04T13:04:38Z</time></trkpt><trkpt lat="41.12902169778558" lon="14.645386754399269"><ele>473.0</ele><time>2026-05-04T13:04:39Z</time></trkpt><trkpt lat="41.12891685583925" lon="14.645392630813381"><ele>472.99999999999994</ele><time>2026-05-04T13:04:40Z</time></trkpt><trkpt lat="41.1288118043017" lon="14.645410991192522"><ele>472.99999999999994</ele><time>2026-05-04T13:04:41Z</time></trkpt><trkpt lat="41.128708554344215" lon="14.645441071570307"><ele>473.0</ele><time>2026-05-04T13:04:42Z</time></trkpt><trkpt lat="41.128603356031796" lon="14.645488247377523"><ele>473.0</ele><time>2026-05-04T13:04:43Z</time></trkpt><trkpt lat="41.12849932607924" lon="14.64554639739349"><ele>473.0</ele><time>2026-05-04T13:04:44Z</time></trkpt><trkpt lat="41.12839423892356" lon="14.645607866444303"><ele>472.99999999999994</ele><time>2026-05-04T13:04:45Z</time></trkpt><trkpt lat="41.12828545685264" lon="14.645667315886158"><ele>472.99999999999994</ele><time>2026-05-04T13:04:46Z</time></trkpt><trkpt lat="41.12819158921917" lon="14.645708386616468"><ele>473.0</ele><time>2026-05-04T13:04:47Z</time></trkpt><trkpt lat="41.12809265590672" lon="14.645741838786954"><ele>473.0</ele><time>2026-05-04T13:04:48Z</time></trkpt><trkpt lat="41.12799322672122" lon="14.64575739812704"><ele>474.4</ele><time>2026-05-04T13:04:49Z</time></trkpt><trkpt lat="41.12788782983628" lon="14.645769832424696"><ele>475.79999999999995</ele><time>2026-05-04T13:04:50Z</time></trkpt><trkpt lat="41.12779274305017" lon="14.645780457166754"><ele>477.2</ele><time>2026-05-04T13:04:51Z</time></trkpt><trkpt lat="41.12771712012" lon="14.645784579273954"><ele>478.6</ele><time>2026-05-04T13:04:52Z</time></trkpt><trkpt lat="41.127627335170494" lon="14.64580032159076"><ele>480.0</ele><time>2026-05-04T13:04:53Z</time></trkpt><trkpt lat="41.12753166508996" lon="14.645814328643992"><ele>480.0</ele><time>2026-05-04T13:04:54Z</time></trkpt><trkpt lat="41.127425423453495" lon="14.645818002423413"><ele>480.0</ele><time>2026-05-04T13:04:54.999Z</time></trkpt><trkpt lat="41.127310145198216" lon="14.645753521262515"><ele>480.0</ele><time>2026-05-04T13:04:55.999Z</time></trkpt><trkpt lat="41.12717527169044" lon="14.645711470977703"><ele>480.0</ele><time>2026-05-04T13:04:56.999Z</time></trkpt><trkpt lat="41.127018733559105" lon="14.645666324867738"><ele>480.0</ele><time>2026-05-04T13:04:57.999Z</time></trkpt><trkpt lat="41.12684572537476" lon="14.645611340277737"><ele>480.0</ele><time>2026-05-04T13:04:58.999Z</time></trkpt><trkpt lat="41.12667474752864" lon="14.645557639899279"><ele>480.0</ele><time>2026-05-04T13:04:59.999Z</time></trkpt><trkpt lat="41.126489931171136" lon="14.645523323537008"><ele>481.75</ele><time>2026-05-04T13:05:00.999Z</time></trkpt><trkpt lat="41.1263314795257" lon="14.645505003764457"><ele>483.5</ele><time>2026-05-04T13:05:01.999Z</time></trkpt><trkpt lat="41.12619074350021" lon="14.645508593267266"><ele>485.25</ele><time>2026-05-04T13:05:02.999Z</time></trkpt><trkpt lat="41.12605734573092" lon="14.645540383102432"><ele>487.0</ele><time>2026-05-04T13:05:03.999Z</time></trkpt><trkpt lat="41.125932566384655" lon="14.645619631119237"><ele>487.0</ele><time>2026-05-04T13:05:04.999Z</time></trkpt><trkpt lat="41.12582432806314" lon="14.64574182985228"><ele>487.0</ele><time>2026-05-04T13:05:05.999Z</time></trkpt><trkpt lat="41.12574130321165" lon="14.645855796068606"><ele>487.0</ele><time>2026-05-04T13:05:06.999Z</time></trkpt><trkpt lat="41.125678818230845" lon="14.645979376178975"><ele>487.0</ele><time>2026-05-04T13:05:07.999Z</time></trkpt><trkpt lat="41.12559117074992" lon="14.64605149381918"><ele>488.5</ele><time>2026-05-04T13:05:08.999Z</time></trkpt><trkpt lat="41.12547168649664" lon="14.64608928899061"><ele>490.0</ele><time>2026-05-04T13:05:09.999Z</time></trkpt><trkpt lat="41.12534873704946" lon="14.646061071135737"><ele>491.5</ele><time>2026-05-04T13:05:10.999Z</time></trkpt><trkpt lat="41.12522005336945" lon="14.646053411180217"><ele>493.0</ele><time>2026-05-04T13:05:11.999Z</time></trkpt><trkpt lat="41.12510671789662" lon="14.646039230434953"><ele>493.0</ele><time>2026-05-04T13:05:12.999Z</time></trkpt><trkpt lat="41.1250094139951" lon="14.645944195916467"><ele>493.0</ele><time>2026-05-04T13:05:13.999Z</time></trkpt><trkpt lat="41.12489796077675" lon="14.645871637342594"><ele>493.0</ele><time>2026-05-04T13:05:14.999Z</time></trkpt><trkpt lat="41.124797165663104" lon="14.645793245150376"><ele>493.0</ele><time>2026-05-04T13:05:15.999Z</time></trkpt><trkpt lat="41.124691120787055" lon="14.645728711501175"><ele>493.25</ele><time>2026-05-04T13:05:16.999Z</time></trkpt><trkpt lat="41.124590953934245" lon="14.645674978731881"><ele>493.5</ele><time>2026-05-04T13:05:17.999Z</time></trkpt><trkpt lat="41.124474761410006" lon="14.645622910181332"><ele>493.75</ele><time>2026-05-04T13:05:18.999Z</time></trkpt><trkpt lat="41.12435632643945" lon="14.645585931835495"><ele>494.0</ele><time>2026-05-04T13:05:19.999Z</time></trkpt><trkpt lat="41.1242228078033" lon="14.64557317470937"><ele>494.0</ele><time>2026-05-04T13:05:20.999Z</time></trkpt><trkpt lat="41.12409409450813" lon="14.645588176223592"><ele>494.0</ele><time>2026-05-04T13:05:21.999Z</time></trkpt><trkpt lat="41.12396813654361" lon="14.645626806889704"><ele>494.0</ele><time>2026-05-04T13:05:22.999Z</time></trkpt><trkpt lat="41.12384113264097" lon="14.645694726111039"><ele>494.0</ele><time>2026-05-04T13:05:23.999Z</time></trkpt><trkpt lat="41.1237212230395" lon="14.645777231863"><ele>497.5</ele><time>2026-05-04T13:05:24.999Z</time></trkpt><trkpt lat="41.12360893747056" lon="14.645868868776704"><ele>501.0</ele><time>2026-05-04T13:05:25.999Z</time></trkpt><trkpt lat="41.123493856953516" lon="14.645950190889346"><ele>504.5</ele><time>2026-05-04T13:05:26.999Z</time></trkpt><trkpt lat="41.12337553362047" lon="14.645998053761854"><ele>508.0</ele><time>2026-05-04T13:05:27.999Z</time></trkpt><trkpt lat="41.1232583952432" lon="14.646054614396252"><ele>507.5</ele><time>2026-05-04T13:05:28.999Z</time></trkpt><trkpt lat="41.12314566025862" lon="14.646132746768089"><ele>507.0</ele><time>2026-05-04T13:05:29.999Z</time></trkpt><trkpt lat="41.12305449975879" lon="14.64623302035345"><ele>506.5</ele><time>2026-05-04T13:05:30.999Z</time></trkpt><trkpt lat="41.122962478234136" lon="14.646338421320674"><ele>506.0</ele><time>2026-05-04T13:05:31.999Z</time></trkpt><trkpt lat="41.12289318738261" lon="14.646449354084206"><ele>506.0</ele><time>2026-05-04T13:05:32.999Z</time></trkpt><trkpt lat="41.12282881376704" lon="14.646568775191767"><ele>506.0</ele><time>2026-05-04T13:05:34Z</time></trkpt><trkpt lat="41.12277266812211" lon="14.646670113726122"><ele>506.0</ele><time>2026-05-04T13:05:35Z</time></trkpt><trkpt lat="41.12271120860129" lon="14.646762129113784"><ele>506.0</ele><time>2026-05-04T13:05:36Z</time></trkpt><trkpt lat="41.12262111769158" lon="14.646828110495857"><ele>506.0</ele><time>2026-05-04T13:05:37Z</time></trkpt><trkpt lat="41.12251050005024" lon="14.646863828100676"><ele>506.0</ele><time>2026-05-04T13:05:38Z</time></trkpt><trkpt lat="41.122395905783094" lon="14.646862863665968"><ele>506.0</ele><time>2026-05-04T13:05:39Z</time></trkpt><trkpt lat="41.1222846635934" lon="14.646818493918348"><ele>506.0</ele><time>2026-05-04T13:05:40Z</time></trkpt><trkpt lat="41.12217449460232" lon="14.646749147776891"><ele>506.0</ele><time>2026-05-04T13:05:41Z</time></trkpt><trkpt lat="41.12207178981455" lon="14.646676477012019"><ele>506.0</ele><time>2026-05-04T13:05:42Z</time></trkpt><trkpt lat="41.12194442876098" lon="14.64660380032943"><ele>506.0</ele><time>2026-05-04T13:05:43Z</time></trkpt><trkpt lat="41.121764797261434" lon="14.646564720373329"><ele>506.0</ele><time>2026-05-04T13:05:44Z</time></trkpt><trkpt lat="41.121560854690706" lon="14.64651957544097"><ele>507.0</ele><time>2026-05-04T13:05:45Z</time></trkpt><trkpt lat="41.121343207741596" lon="14.646473755031936"><ele>508.0</ele><time>2026-05-04T13:05:46Z</time></trkpt><trkpt lat="41.121101752104515" lon="14.646421661409004"><ele>508.0</ele><time>2026-05-04T13:05:47Z</time></trkpt><trkpt lat="41.12088736149128" lon="14.646378548079866"><ele>508.0</ele><time>2026-05-04T13:05:48Z</time></trkpt><trkpt lat="41.120680839953366" lon="14.646373914252365"><ele>508.0</ele><time>2026-05-04T13:05:49Z</time></trkpt><trkpt lat="41.12045025896846" lon="14.646378205712296"><ele>509.0</ele><time>2026-05-04T13:05:50Z</time></trkpt><trkpt lat="41.12019618670118" lon="14.64640390139299"><ele>510.0</ele><time>2026-05-04T13:05:51Z</time></trkpt><trkpt lat="41.119929926589286" lon="14.64639906735301"><ele>516.0</ele><time>2026-05-04T13:05:52Z</time></trkpt><trkpt lat="41.11968208437991" lon="14.646420738131766"><ele>522.0</ele><time>2026-05-04T13:05:53Z</time></trkpt><trkpt lat="41.11946543102503" lon="14.646442459532066"><ele>522.0</ele><time>2026-05-04T13:05:54Z</time></trkpt><trkpt lat="41.1192800964207" lon="14.646441937497931"><ele>522.0</ele><time>2026-05-04T13:05:55Z</time></trkpt><trkpt lat="41.119124483316554" lon="14.646466613698122"><ele>522.0</ele><time>2026-05-04T13:05:56Z</time></trkpt><trkpt lat="41.11899269334705" lon="14.646539484715055"><ele>520.3333333333334</ele><time>2026-05-04T13:05:57Z</time></trkpt><trkpt lat="41.118884898349" lon="14.646698899752002"><ele>518.6666666666667</ele><time>2026-05-04T13:05:58Z</time></trkpt><trkpt lat="41.11877487734946" lon="14.64688772383653"><ele>517.0</ele><time>2026-05-04T13:05:59Z</time></trkpt><trkpt lat="41.1186878009352" lon="14.647062910866088"><ele>517.0</ele><time>2026-05-04T13:06:00Z</time></trkpt><trkpt lat="41.11857374177998" lon="14.647192888335574"><ele>517.0</ele><time>2026-05-04T13:06:01Z</time></trkpt><trkpt lat="41.11844942428201" lon="14.647274164831597"><ele>517.0</ele><time>2026-05-04T13:06:02Z</time></trkpt><trkpt lat="41.11831735396678" lon="14.647332858047001"><ele>517.0</ele><time>2026-05-04T13:06:03Z</time></trkpt><trkpt lat="41.11817037934539" lon="14.647357070478575"><ele>518.3333333333334</ele><time>2026-05-04T13:06:04Z</time></trkpt><trkpt lat="41.118011823726484" lon="14.647331167798727"><ele>519.6666666666666</ele><time>2026-05-04T13:06:05Z</time></trkpt><trkpt lat="41.11782084049756" lon="14.647312250413695"><ele>521.0</ele><time>2026-05-04T13:06:06Z</time></trkpt><trkpt lat="41.11763450406069" lon="14.64727454156813"><ele>521.0</ele><time>2026-05-04T13:06:07Z</time></trkpt><trkpt lat="41.117481254826885" lon="14.6473319670017"><ele>521.0</ele><time>2026-05-04T13:06:08Z</time></trkpt><trkpt lat="41.11728699522044" lon="14.647412707211032"><ele>521.0</ele><time>2026-05-04T13:06:09Z</time></trkpt><trkpt lat="41.117028676777444" lon="14.647477457968886"><ele>523.3333333333333</ele><time>2026-05-04T13:06:10Z</time></trkpt><trkpt lat="41.11682191958561" lon="14.647557182443313"><ele>525.6666666666666</ele><time>2026-05-04T13:06:11Z</time></trkpt><trkpt lat="41.116656669519514" lon="14.647624873090665"><ele>528.0</ele><time>2026-05-04T13:06:12Z</time></trkpt><trkpt lat="41.11651941640958" lon="14.647666446506697"><ele>528.0</ele><time>2026-05-04T13:06:13Z</time></trkpt><trkpt lat="41.116392225470044" lon="14.647676525892745"><ele>528.0</ele><time>2026-05-04T13:06:14Z</time></trkpt><trkpt lat="41.11628874955039" lon="14.647610564302802"><ele>528.0</ele><time>2026-05-04T13:06:15Z</time></trkpt><trkpt lat="41.11619148588133" lon="14.647494595897674"><ele>528.0</ele><time>2026-05-04T13:06:16Z</time></trkpt><trkpt lat="41.11604954044832" lon="14.647361137455588"><ele>528.0</ele><time>2026-05-04T13:06:17Z</time></trkpt><trkpt lat="41.1158966881111" lon="14.647269715170895"><ele>528.0</ele><time>2026-05-04T13:06:18Z</time></trkpt><trkpt lat="41.11575362486815" lon="14.647186104730702"><ele>528.0</ele><time>2026-05-04T13:06:19Z</time></trkpt><trkpt lat="41.11565412262525" lon="14.647073198328922"><ele>530.0</ele><time>2026-05-04T13:06:20Z</time></trkpt><trkpt lat="41.11558846704597" lon="14.646915996655785"><ele>532.0</ele><time>2026-05-04T13:06:21Z</time></trkpt><trkpt lat="41.11550181696191" lon="14.646714289434827"><ele>534.0</ele><time>2026-05-04T13:06:22Z</time></trkpt><trkpt lat="41.115374974603924" lon="14.646562551718684"><ele>534.0</ele><time>2026-05-04T13:06:23Z</time></trkpt><trkpt lat="41.115247496062196" lon="14.646409267786032"><ele>534.0</ele><time>2026-05-04T13:06:24Z</time></trkpt><trkpt lat="41.11510914777427" lon="14.646318794989257"><ele>534.0</ele><time>2026-05-04T13:06:25Z</time></trkpt><trkpt lat="41.114959791145495" lon="14.646261912192"><ele>532.25</ele><time>2026-05-04T13:06:26Z</time></trkpt><trkpt lat="41.11480257382617" lon="14.646245076147853"><ele>530.5</ele><time>2026-05-04T13:06:27Z</time></trkpt><trkpt lat="41.114672010176236" lon="14.646281291830746"><ele>528.75</ele><time>2026-05-04T13:06:28Z</time></trkpt><trkpt lat="41.114554979460095" lon="14.64630966519956"><ele>527.0</ele><time>2026-05-04T13:06:29Z</time></trkpt><trkpt lat="41.114443183996315" lon="14.646293676745907"><ele>527.0</ele><time>2026-05-04T13:06:30Z</time></trkpt><trkpt lat="41.11435253418523" lon="14.64621584435873"><ele>527.0</ele><time>2026-05-04T13:06:31Z</time></trkpt><trkpt lat="41.114327182316764" lon="14.646055771916835"><ele>527.0</ele><time>2026-05-04T13:06:32Z</time></trkpt><trkpt lat="41.11428033563966" lon="14.645859040396996"><ele>527.0</ele><time>2026-05-04T13:06:33Z</time></trkpt><trkpt lat="41.114234050818744" lon="14.645625639631357"><ele>531.6666666666666</ele><time>2026-05-04T13:06:34Z</time></trkpt><trkpt lat="41.11417489607038" lon="14.645405378868215"><ele>536.3333333333334</ele><time>2026-05-04T13:06:35Z</time></trkpt><trkpt lat="41.11409870235395" lon="14.645236377889837"><ele>541.0</ele><time>2026-05-04T13:06:36Z</time></trkpt><trkpt lat="41.11398643596047" lon="14.64509326490259"><ele>543.6666666666667</ele><time>2026-05-04T13:06:37Z</time></trkpt><trkpt lat="41.11383178176779" lon="14.644975712129096"><ele>546.3333333333334</ele><time>2026-05-04T13:06:38Z</time></trkpt><trkpt lat="41.11365310873226" lon="14.64486808033991"><ele>549.0</ele><time>2026-05-04T13:06:39Z</time></trkpt><trkpt lat="41.11349952041606" lon="14.644807008101136"><ele>549.0</ele><time>2026-05-04T13:06:40Z</time></trkpt><trkpt lat="41.113349178174246" lon="14.644792310094724"><ele>549.0</ele><time>2026-05-04T13:06:41Z</time></trkpt><trkpt lat="41.11317879135722" lon="14.644854886204577"><ele>549.0</ele><time>2026-05-04T13:06:42Z</time></trkpt><trkpt lat="41.11302606457314" lon="14.644965589757975"><ele>547.0</ele><time>2026-05-04T13:06:43Z</time></trkpt><trkpt lat="41.112907795814166" lon="14.645066493275186"><ele>545.0</ele><time>2026-05-04T13:06:44Z</time></trkpt><trkpt lat="41.112793820739" lon="14.645180380571679"><ele>543.0</ele><time>2026-05-04T13:06:45Z</time></trkpt><trkpt lat="41.11266370929509" lon="14.645298832331543"><ele>541.0</ele><time>2026-05-04T13:06:46Z</time></trkpt><trkpt lat="41.11252662324781" lon="14.645416348439907"><ele>541.0</ele><time>2026-05-04T13:06:47Z</time></trkpt><trkpt lat="41.11241242110617" lon="14.645500810877545"><ele>541.0</ele><time>2026-05-04T13:06:48Z</time></trkpt><trkpt lat="41.11226103690308" lon="14.645620473385694"><ele>541.0</ele><time>2026-05-04T13:06:49Z</time></trkpt><trkpt lat="41.11212453517125" lon="14.645708306804039"><ele>542.25</ele><time>2026-05-04T13:06:50Z</time></trkpt><trkpt lat="41.112005447686236" lon="14.645672554352206"><ele>543.5</ele><time>2026-05-04T13:06:51Z</time></trkpt><trkpt lat="41.111918099723994" lon="14.645586898150905"><ele>544.75</ele><time>2026-05-04T13:06:52Z</time></trkpt><trkpt lat="41.11181417322381" lon="14.645476275174662"><ele>546.0</ele><time>2026-05-04T13:06:53Z</time></trkpt><trkpt lat="41.1117036358302" lon="14.645305959890651"><ele>547.6666666666666</ele><time>2026-05-04T13:06:54Z</time></trkpt><trkpt lat="41.111587093885674" lon="14.64509189434995"><ele>549.3333333333333</ele><time>2026-05-04T13:06:55Z</time></trkpt><trkpt lat="41.111473884740604" lon="14.644885931728652"><ele>551.0</ele><time>2026-05-04T13:06:56Z</time></trkpt><trkpt lat="41.111370125523415" lon="14.644717304419821"><ele>551.0</ele><time>2026-05-04T13:06:57Z</time></trkpt><trkpt lat="41.11125305124462" lon="14.644584208496983"><ele>551.0</ele><time>2026-05-04T13:06:57.999Z</time></trkpt><trkpt lat="41.11113224971034" lon="14.644476247294769"><ele>551.0</ele><time>2026-05-04T13:06:58.999Z</time></trkpt><trkpt lat="41.11100849838593" lon="14.64439009980467"><ele>551.0</ele><time>2026-05-04T13:06:59.999Z</time></trkpt><trkpt lat="41.11089865469237" lon="14.644324929731123"><ele>553.8</ele><time>2026-05-04T13:07:00.999Z</time></trkpt><trkpt lat="41.11079719969122" lon="14.644266552952969"><ele>556.6</ele><time>2026-05-04T13:07:01.999Z</time></trkpt><trkpt lat="41.110703514994135" lon="14.644239368446906"><ele>559.4</ele><time>2026-05-04T13:07:02.999Z</time></trkpt><trkpt lat="41.11061500364243" lon="14.644215043830739"><ele>562.2</ele><time>2026-05-04T13:07:03.999Z</time></trkpt><trkpt lat="41.1105348264272" lon="14.644159993135865"><ele>565.0</ele><time>2026-05-04T13:07:04.999Z</time></trkpt><trkpt lat="41.110433073222936" lon="14.644115756284743"><ele>565.0</ele><time>2026-05-04T13:07:05.999Z</time></trkpt><trkpt lat="41.1103148886527" lon="14.644070462267464"><ele>565.0</ele><time>2026-05-04T13:07:06.999Z</time></trkpt><trkpt lat="41.11019465400974" lon="14.644029668669104"><ele>565.0</ele><time>2026-05-04T13:07:07.999Z</time></trkpt><trkpt lat="41.11008148473902" lon="14.64401470857697"><ele>565.0</ele><time>2026-05-04T13:07:08.999Z</time></trkpt><trkpt lat="41.10997291834636" lon="14.643979906183935"><ele>568.0</ele><time>2026-05-04T13:07:09.999Z</time></trkpt><trkpt lat="41.1098585722385" lon="14.643963522614923"><ele>571.0</ele><time>2026-05-04T13:07:10.999Z</time></trkpt><trkpt lat="41.109744005948855" lon="14.644019134979319"><ele>574.0</ele><time>2026-05-04T13:07:11.999Z</time></trkpt><trkpt lat="41.10962455445444" lon="14.644114693027083"><ele>577.0</ele><time>2026-05-04T13:07:12.999Z</time></trkpt><trkpt lat="41.109494189114336" lon="14.644243754088283"><ele>577.0</ele><time>2026-05-04T13:07:13.999Z</time></trkpt><trkpt lat="41.10932490488317" lon="14.644395329719483"><ele>577.0</ele><time>2026-05-04T13:07:14.999Z</time></trkpt><trkpt lat="41.109108136028524" lon="14.64461592579736"><ele>579.0</ele><time>2026-05-04T13:07:15.999Z</time></trkpt><trkpt lat="41.10895348062773" lon="14.644734984111992"><ele>581.0</ele><time>2026-05-04T13:07:16.999Z</time></trkpt><trkpt lat="41.10880630954309" lon="14.644852271477461"><ele>583.0</ele><time>2026-05-04T13:07:17.999Z</time></trkpt><trkpt lat="41.108643048125266" lon="14.645036829858634"><ele>583.0</ele><time>2026-05-04T13:07:18.999Z</time></trkpt><trkpt lat="41.10847380389539" lon="14.645234163997197"><ele>583.0</ele><time>2026-05-04T13:07:19.999Z</time></trkpt><trkpt lat="41.10836081151562" lon="14.645400469350497"><ele>583.0</ele><time>2026-05-04T13:07:20.999Z</time></trkpt><trkpt lat="41.10827914983" lon="14.64550610425127"><ele>581.75</ele><time>2026-05-04T13:07:21.999Z</time></trkpt><trkpt lat="41.10818705366024" lon="14.64555696088476"><ele>580.5</ele><time>2026-05-04T13:07:22.999Z</time></trkpt><trkpt lat="41.10808432771523" lon="14.645524983348217"><ele>579.25</ele><time>2026-05-04T13:07:23.999Z</time></trkpt><trkpt lat="41.10800415779191" lon="14.645424590550002"><ele>578.0</ele><time>2026-05-04T13:07:24.999Z</time></trkpt><trkpt lat="41.10796350952833" lon="14.645223986644838"><ele>578.0</ele><time>2026-05-04T13:07:25.999Z</time></trkpt><trkpt lat="41.10788030064944" lon="14.64501483346033"><ele>578.0</ele><time>2026-05-04T13:07:26.999Z</time></trkpt><trkpt lat="41.10779689118316" lon="14.644825625013892"><ele>578.0</ele><time>2026-05-04T13:07:27.999Z</time></trkpt><trkpt lat="41.10768801025785" lon="14.644708155577657"><ele>578.0</ele><time>2026-05-04T13:07:28.999Z</time></trkpt><trkpt lat="41.10753673238948" lon="14.64466970387616"><ele>578.0</ele><time>2026-05-04T13:07:29.999Z</time></trkpt><trkpt lat="41.10737503246057" lon="14.644688831012518"><ele>578.0</ele><time>2026-05-04T13:07:30.999Z</time></trkpt><trkpt lat="41.107198814334325" lon="14.644768102495739"><ele>578.3333333333333</ele><time>2026-05-04T13:07:31.999Z</time></trkpt><trkpt lat="41.10704316870483" lon="14.644850885620054"><ele>578.6666666666666</ele><time>2026-05-04T13:07:32.999Z</time></trkpt><trkpt lat="41.10691098414273" lon="14.644868308351505"><ele>579.0</ele><time>2026-05-04T13:07:33.999Z</time></trkpt><trkpt lat="41.106754332954374" lon="14.644815540777538"><ele>579.0</ele><time>2026-05-04T13:07:34.999Z</time></trkpt><trkpt lat="41.1066236459274" lon="14.644747533460068"><ele>579.0</ele><time>2026-05-04T13:07:35.999Z</time></trkpt><trkpt lat="41.10652050415333" lon="14.644670852533364"><ele>579.0</ele><time>2026-05-04T13:07:36.999Z</time></trkpt><trkpt lat="41.10642807245829" lon="14.644578976603517"><ele>579.0</ele><time>2026-05-04T13:07:37.999Z</time></trkpt><trkpt lat="41.10636025028606" lon="14.644522177146394"><ele>578.4</ele><time>2026-05-04T13:07:38.999Z</time></trkpt><trkpt lat="41.10630691663319" lon="14.644416269080125"><ele>577.8</ele><time>2026-05-04T13:07:40Z</time></trkpt><trkpt lat="41.106262234469156" lon="14.644314905448612"><ele>577.2</ele><time>2026-05-04T13:07:41Z</time></trkpt><trkpt lat="41.10622479934377" lon="14.644168817346763"><ele>576.6</ele><time>2026-05-04T13:07:42Z</time></trkpt><trkpt lat="41.106180435258494" lon="14.643983402434563"><ele>576.0</ele><time>2026-05-04T13:07:43Z</time></trkpt><trkpt lat="41.106122909894516" lon="14.643779012935397"><ele>581.3333333333334</ele><time>2026-05-04T13:07:44Z</time></trkpt><trkpt lat="41.10606544325214" lon="14.643592383955365"><ele>586.6666666666667</ele><time>2026-05-04T13:07:45Z</time></trkpt><trkpt lat="41.1059897611803" lon="14.643433583974913"><ele>592.0</ele><time>2026-05-04T13:07:46Z</time></trkpt><trkpt lat="41.10585914007436" lon="14.643318712502897"><ele>587.5</ele><time>2026-05-04T13:07:47Z</time></trkpt><trkpt lat="41.10562505687843" lon="14.643230058903232"><ele>583.0</ele><time>2026-05-04T13:07:48Z</time></trkpt><trkpt lat="41.10539563371877" lon="14.643125289115066"><ele>583.0</ele><time>2026-05-04T13:07:49Z</time></trkpt><trkpt lat="41.105178012926295" lon="14.642996174420297"><ele>583.0</ele><time>2026-05-04T13:07:50Z</time></trkpt><trkpt lat="41.104959169486946" lon="14.642869425961626"><ele>589.0</ele><time>2026-05-04T13:07:51Z</time></trkpt><trkpt lat="41.104748799397605" lon="14.642722328579824"><ele>595.0</ele><time>2026-05-04T13:07:52Z</time></trkpt><trkpt lat="41.104521380613456" lon="14.642571996308222"><ele>595.0</ele><time>2026-05-04T13:07:53Z</time></trkpt><trkpt lat="41.10431620828603" lon="14.642461477533866"><ele>595.0</ele><time>2026-05-04T13:07:54Z</time></trkpt><trkpt lat="41.10413055655702" lon="14.642358656895954"><ele>595.0</ele><time>2026-05-04T13:07:55Z</time></trkpt><trkpt lat="41.10398123049738" lon="14.642279382305407"><ele>593.6666666666667</ele><time>2026-05-04T13:07:56Z</time></trkpt><trkpt lat="41.10381361188364" lon="14.642211684696267"><ele>592.3333333333334</ele><time>2026-05-04T13:07:57Z</time></trkpt><trkpt lat="41.103645710452994" lon="14.642192867779675"><ele>591.0</ele><time>2026-05-04T13:07:58Z</time></trkpt><trkpt lat="41.103473065594" lon="14.642207463432781"><ele>591.0</ele><time>2026-05-04T13:07:59Z</time></trkpt><trkpt lat="41.10332030918194" lon="14.642266058869804"><ele>591.0</ele><time>2026-05-04T13:08:00Z</time></trkpt><trkpt lat="41.103190749656456" lon="14.64235458480614"><ele>591.0</ele><time>2026-05-04T13:08:01Z</time></trkpt><trkpt lat="41.10307398888329" lon="14.642424229849524"><ele>591.0</ele><time>2026-05-04T13:08:02Z</time></trkpt><trkpt lat="41.10296061423186" lon="14.642425442026799"><ele>587.3333333333334</ele><time>2026-05-04T13:08:03Z</time></trkpt><trkpt lat="41.10287119561793" lon="14.64231837288998"><ele>583.6666666666667</ele><time>2026-05-04T13:08:04Z</time></trkpt><trkpt lat="41.10276160363176" lon="14.642195879245357"><ele>580.0</ele><time>2026-05-04T13:08:05Z</time></trkpt><trkpt lat="41.102622486537165" lon="14.642022797564298"><ele>581.3333333333334</ele><time>2026-05-04T13:08:06Z</time></trkpt><trkpt lat="41.10252668004472" lon="14.641851581585346"><ele>582.6666666666666</ele><time>2026-05-04T13:08:07Z</time></trkpt><trkpt lat="41.10244329619019" lon="14.641662102033846"><ele>584.0</ele><time>2026-05-04T13:08:08Z</time></trkpt><trkpt lat="41.10235861365134" lon="14.641486135479973"><ele>584.0</ele><time>2026-05-04T13:08:09Z</time></trkpt><trkpt lat="41.10228480435989" lon="14.641333663138889"><ele>584.0</ele><time>2026-05-04T13:08:10Z</time></trkpt><trkpt lat="41.10220481779213" lon="14.641225443822503"><ele>584.0</ele><time>2026-05-04T13:08:11Z</time></trkpt><trkpt lat="41.10207544315618" lon="14.641159793998971"><ele>584.0</ele><time>2026-05-04T13:08:12Z</time></trkpt><trkpt lat="41.101921093049135" lon="14.641169329433065"><ele>584.0</ele><time>2026-05-04T13:08:13Z</time></trkpt><trkpt lat="41.10175487990017" lon="14.641235709371028"><ele>584.0</ele><time>2026-05-04T13:08:14Z</time></trkpt><trkpt lat="41.10156820228354" lon="14.641331602314178"><ele>584.0</ele><time>2026-05-04T13:08:15Z</time></trkpt><trkpt lat="41.10139678416059" lon="14.64141442254727"><ele>582.5</ele><time>2026-05-04T13:08:16Z</time></trkpt><trkpt lat="41.10125130300356" lon="14.641463510036186"><ele>581.0</ele><time>2026-05-04T13:08:17Z</time></trkpt><trkpt lat="41.101117905680105" lon="14.641490607851285"><ele>579.5</ele><time>2026-05-04T13:08:18Z</time></trkpt><trkpt lat="41.10099505451616" lon="14.641494282650966"><ele>578.0</ele><time>2026-05-04T13:08:19Z</time></trkpt><trkpt lat="41.10089445319661" lon="14.641438656990067"><ele>578.0</ele><time>2026-05-04T13:08:20Z</time></trkpt><trkpt lat="41.10081644883297" lon="14.641321712146691"><ele>578.0</ele><time>2026-05-04T13:08:21Z</time></trkpt><trkpt lat="41.100803298224776" lon="14.641140326654943"><ele>578.0</ele><time>2026-05-04T13:08:22Z</time></trkpt><trkpt lat="41.10083497331986" lon="14.64098875271849"><ele>578.0</ele><time>2026-05-04T13:08:23Z</time></trkpt><trkpt lat="41.100891312658725" lon="14.64077162289611"><ele>580.3333333333333</ele><time>2026-05-04T13:08:24Z</time></trkpt><trkpt lat="41.100989036705194" lon="14.640541121364866"><ele>582.6666666666666</ele><time>2026-05-04T13:08:25Z</time></trkpt><trkpt lat="41.10106935635449" lon="14.640301388054674"><ele>585.0</ele><time>2026-05-04T13:08:26Z</time></trkpt><trkpt lat="41.10109941076326" lon="14.640081130243413"><ele>585.0</ele><time>2026-05-04T13:08:27Z</time></trkpt><trkpt lat="41.10108607214967" lon="14.639858720698257"><ele>585.0</ele><time>2026-05-04T13:08:28Z</time></trkpt><trkpt lat="41.10103976863198" lon="14.639656444469695"><ele>585.0</ele><time>2026-05-04T13:08:29Z</time></trkpt><trkpt lat="41.10095223535647" lon="14.639487601050636"><ele>586.0</ele><time>2026-05-04T13:08:30Z</time></trkpt><trkpt lat="41.10085687487551" lon="14.639346780307669"><ele>587.0</ele><time>2026-05-04T13:08:31Z</time></trkpt><trkpt lat="41.10073733670258" lon="14.639219390173167"><ele>588.0</ele><time>2026-05-04T13:08:32Z</time></trkpt><trkpt lat="41.10058469088433" lon="14.639135373344056"><ele>588.0</ele><time>2026-05-04T13:08:33Z</time></trkpt><trkpt lat="41.10041742226755" lon="14.63910430337236"><ele>588.0</ele><time>2026-05-04T13:08:34Z</time></trkpt><trkpt lat="41.10023844690565" lon="14.639121624986997"><ele>588.0</ele><time>2026-05-04T13:08:35Z</time></trkpt><trkpt lat="41.09991273784536" lon="14.639344060674972"><ele>586.5</ele><time>2026-05-04T13:08:37Z</time></trkpt><trkpt lat="41.09975752026018" lon="14.639548337718802"><ele>585.0</ele><time>2026-05-04T13:08:38Z</time></trkpt><trkpt lat="41.099596257808386" lon="14.639789769108802"><ele>585.0</ele><time>2026-05-04T13:08:39Z</time></trkpt><trkpt lat="41.09943040669744" lon="14.640034922501057"><ele>585.0</ele><time>2026-05-04T13:08:40Z</time></trkpt><trkpt lat="41.09926788480543" lon="14.640254399049974"><ele>582.6666666666666</ele><time>2026-05-04T13:08:41Z</time></trkpt><trkpt lat="41.09911472629845" lon="14.640442099462629"><ele>580.3333333333333</ele><time>2026-05-04T13:08:42Z</time></trkpt><trkpt lat="41.098965585606024" lon="14.640576621198049"><ele>578.0</ele><time>2026-05-04T13:08:43Z</time></trkpt><trkpt lat="41.098804178870644" lon="14.640622100789322"><ele>578.0</ele><time>2026-05-04T13:08:44Z</time></trkpt><trkpt lat="41.09861411713331" lon="14.640688189108495"><ele>578.0</ele><time>2026-05-04T13:08:45Z</time></trkpt><trkpt lat="41.0983832181307" lon="14.64071437646558"><ele>578.0</ele><time>2026-05-04T13:08:46Z</time></trkpt><trkpt lat="41.09815105721808" lon="14.64075908046699"><ele>577.6666666666666</ele><time>2026-05-04T13:08:47Z</time></trkpt><trkpt lat="41.09794715669434" lon="14.640802578381546"><ele>577.3333333333334</ele><time>2026-05-04T13:08:48Z</time></trkpt><trkpt lat="41.09776554888902" lon="14.640837349961298"><ele>577.0</ele><time>2026-05-04T13:08:49Z</time></trkpt><trkpt lat="41.09760579176922" lon="14.640865404649594"><ele>577.0</ele><time>2026-05-04T13:08:50Z</time></trkpt><trkpt lat="41.097458678847445" lon="14.640869901255677"><ele>577.0</ele><time>2026-05-04T13:08:51Z</time></trkpt><trkpt lat="41.097303990882224" lon="14.640839874435521"><ele>577.0</ele><time>2026-05-04T13:08:52Z</time></trkpt><trkpt lat="41.09713293154109" lon="14.64080641090354"><ele>575.25</ele><time>2026-05-04T13:08:53Z</time></trkpt><trkpt lat="41.09696236004063" lon="14.640782725425911"><ele>573.5</ele><time>2026-05-04T13:08:54Z</time></trkpt><trkpt lat="41.096839483420396" lon="14.64074145715096"><ele>571.75</ele><time>2026-05-04T13:08:55Z</time></trkpt><trkpt lat="41.09674682008337" lon="14.640719698234406"><ele>570.0</ele><time>2026-05-04T13:08:56Z</time></trkpt><trkpt lat="41.09668997345526" lon="14.640634081572493"><ele>570.0</ele><time>2026-05-04T13:08:57Z</time></trkpt><trkpt lat="41.096694232071826" lon="14.640518990947868"><ele>570.0</ele><time>2026-05-04T13:08:58Z</time></trkpt><trkpt lat="41.096772951801455" lon="14.640418082928967"><ele>570.0</ele><time>2026-05-04T13:08:59Z</time></trkpt><trkpt lat="41.09689081487387" lon="14.640324017593453"><ele>570.0</ele><time>2026-05-04T13:09:00Z</time></trkpt><trkpt lat="41.096972827401046" lon="14.640187793577397"><ele>568.25</ele><time>2026-05-04T13:09:01Z</time></trkpt><trkpt lat="41.097020250789846" lon="14.640041501054114"><ele>566.5</ele><time>2026-05-04T13:09:02Z</time></trkpt><trkpt lat="41.09702125511767" lon="14.6398411314112"><ele>564.75</ele><time>2026-05-04T13:09:03Z</time></trkpt><trkpt lat="41.09698448491369" lon="14.639668781091869"><ele>563.0</ele><time>2026-05-04T13:09:04Z</time></trkpt><trkpt lat="41.09693436566603" lon="14.639553141352408"><ele>563.0</ele><time>2026-05-04T13:09:05Z</time></trkpt><trkpt lat="41.09684381366048" lon="14.639508391806034"><ele>563.0</ele><time>2026-05-04T13:09:06Z</time></trkpt><trkpt lat="41.09672669946407" lon="14.639510802168509"><ele>563.0</ele><time>2026-05-04T13:09:07Z</time></trkpt><trkpt lat="41.096589296492915" lon="14.639589857844971"><ele>563.0</ele><time>2026-05-04T13:09:08Z</time></trkpt><trkpt lat="41.096398359576966" lon="14.639709002639949"><ele>557.0</ele><time>2026-05-04T13:09:09Z</time></trkpt><trkpt lat="41.096183279691054" lon="14.639818033895347"><ele>551.0</ele><time>2026-05-04T13:09:10Z</time></trkpt><trkpt lat="41.095937102089074" lon="14.63992909607938"><ele>545.5</ele><time>2026-05-04T13:09:10.999Z</time></trkpt><trkpt lat="41.09569783198724" lon="14.64004615507563"><ele>540.0</ele><time>2026-05-04T13:09:11.999Z</time></trkpt><trkpt lat="41.09548276499767" lon="14.640168835448288"><ele>541.6666666666666</ele><time>2026-05-04T13:09:12.999Z</time></trkpt><trkpt lat="41.095279927210335" lon="14.64030702679003"><ele>543.3333333333333</ele><time>2026-05-04T13:09:13.999Z</time></trkpt><trkpt lat="41.09508938472975" lon="14.640445372038297"><ele>545.0</ele><time>2026-05-04T13:09:14.999Z</time></trkpt><trkpt lat="41.094895738267944" lon="14.640562698262793"><ele>540.3333333333333</ele><time>2026-05-04T13:09:15.999Z</time></trkpt><trkpt lat="41.09471667474173" lon="14.640683101925731"><ele>535.6666666666666</ele><time>2026-05-04T13:09:16.999Z</time></trkpt><trkpt lat="41.09456691679221" lon="14.640815198439702"><ele>531.0</ele><time>2026-05-04T13:09:17.999Z</time></trkpt><trkpt lat="41.094446917912904" lon="14.640956380488364"><ele>531.0</ele><time>2026-05-04T13:09:18.999Z</time></trkpt><trkpt lat="41.094373876969364" lon="14.641056709564614"><ele>531.0</ele><time>2026-05-04T13:09:19.999Z</time></trkpt><trkpt lat="41.09429149543117" lon="14.641106079672372"><ele>531.0</ele><time>2026-05-04T13:09:20.999Z</time></trkpt><trkpt lat="41.09420351037318" lon="14.641094828463691"><ele>531.0</ele><time>2026-05-04T13:09:21.999Z</time></trkpt><trkpt lat="41.09413348466797" lon="14.641008648264862"><ele>531.0</ele><time>2026-05-04T13:09:22.999Z</time></trkpt><trkpt lat="41.09414363406632" lon="14.640838406267829"><ele>531.0</ele><time>2026-05-04T13:09:23.999Z</time></trkpt><trkpt lat="41.094103681032564" lon="14.640641073671024"><ele>531.0</ele><time>2026-05-04T13:09:24.999Z</time></trkpt><trkpt lat="41.09403969852163" lon="14.64041883418044"><ele>531.0</ele><time>2026-05-04T13:09:25.999Z</time></trkpt><trkpt lat="41.09399554766556" lon="14.64023970678907"><ele>528.4</ele><time>2026-05-04T13:09:26.999Z</time></trkpt><trkpt lat="41.093952160946664" lon="14.640080656440682"><ele>525.8</ele><time>2026-05-04T13:09:27.999Z</time></trkpt><trkpt lat="41.09390594936614" lon="14.639942058046069"><ele>523.1999999999999</ele><time>2026-05-04T13:09:28.999Z</time></trkpt><trkpt lat="41.09384015976006" lon="14.639841945733234"><ele>520.6</ele><time>2026-05-04T13:09:29.999Z</time></trkpt><trkpt lat="41.093763236535686" lon="14.639770368522344"><ele>518.0</ele><time>2026-05-04T13:09:30.999Z</time></trkpt><trkpt lat="41.093673763237305" lon="14.639743014690374"><ele>518.0</ele><time>2026-05-04T13:09:31.999Z</time></trkpt><trkpt lat="41.09356869265956" lon="14.63974467220351"><ele>518.0</ele><time>2026-05-04T13:09:32.999Z</time></trkpt><trkpt lat="41.093451444615106" lon="14.639787190121526"><ele>518.0</ele><time>2026-05-04T13:09:33.999Z</time></trkpt><trkpt lat="41.093301408641096" lon="14.639799679077603"><ele>518.0</ele><time>2026-05-04T13:09:34.999Z</time></trkpt><trkpt lat="41.09310334312335" lon="14.639829935126134"><ele>515.0</ele><time>2026-05-04T13:09:35.999Z</time></trkpt><trkpt lat="41.092873206006324" lon="14.63986144483133"><ele>512.0</ele><time>2026-05-04T13:09:36.999Z</time></trkpt><trkpt lat="41.09262536167141" lon="14.639865969791279"><ele>511.0</ele><time>2026-05-04T13:09:37.999Z</time></trkpt><trkpt lat="41.09238244328143" lon="14.639858458703394"><ele>510.0</ele><time>2026-05-04T13:09:38.999Z</time></trkpt><trkpt lat="41.092210914609566" lon="14.639888762929678"><ele>509.0</ele><time>2026-05-04T13:09:39.999Z</time></trkpt><trkpt lat="41.0920323982939" lon="14.639893672260541"><ele>509.0</ele><time>2026-05-04T13:09:40.999Z</time></trkpt><trkpt lat="41.09186353584303" lon="14.639825053123802"><ele>509.0</ele><time>2026-05-04T13:09:41.999Z</time></trkpt><trkpt lat="41.09170831907163" lon="14.63979769027884"><ele>509.0</ele><time>2026-05-04T13:09:42.999Z</time></trkpt><trkpt lat="41.09156243392702" lon="14.639824012356948"><ele>507.66666666666663</ele><time>2026-05-04T13:09:43.999Z</time></trkpt><trkpt lat="41.09137333140851" lon="14.63990405612121"><ele>506.33333333333337</ele><time>2026-05-04T13:09:44.999Z</time></trkpt><trkpt lat="41.09120482575073" lon="14.639950001858171"><ele>505.0</ele><time>2026-05-04T13:09:46Z</time></trkpt><trkpt lat="41.09108640335656" lon="14.639915370831535"><ele>505.0</ele><time>2026-05-04T13:09:47Z</time></trkpt><trkpt lat="41.09096867733901" lon="14.639827394807588"><ele>505.0</ele><time>2026-05-04T13:09:48Z</time></trkpt><trkpt lat="41.09077259500202" lon="14.639777075967519"><ele>505.0</ele><time>2026-05-04T13:09:49Z</time></trkpt><trkpt lat="41.09055601860753" lon="14.63972161908356"><ele>503.0</ele><time>2026-05-04T13:09:50Z</time></trkpt><trkpt lat="41.090325103703044" lon="14.639691031015769"><ele>501.0</ele><time>2026-05-04T13:09:51Z</time></trkpt><trkpt lat="41.09013258459621" lon="14.639649538833876"><ele>499.0</ele><time>2026-05-04T13:09:52Z</time></trkpt><trkpt lat="41.08995953657536" lon="14.639596546793134"><ele>498.25</ele><time>2026-05-04T13:09:53Z</time></trkpt><trkpt lat="41.08980922643622" lon="14.639540086301611"><ele>497.5</ele><time>2026-05-04T13:09:54Z</time></trkpt><trkpt lat="41.08966174121504" lon="14.639497178869021"><ele>496.75</ele><time>2026-05-04T13:09:55Z</time></trkpt><trkpt lat="41.089526309655945" lon="14.639469743277346"><ele>496.0</ele><time>2026-05-04T13:09:56Z</time></trkpt><trkpt lat="41.08942438400927" lon="14.639462600461107"><ele>495.1666666666667</ele><time>2026-05-04T13:09:57Z</time></trkpt><trkpt lat="41.08934234027778" lon="14.63949674259743"><ele>494.33333333333337</ele><time>2026-05-04T13:09:58Z</time></trkpt><trkpt lat="41.08926426714834" lon="14.639540236041045"><ele>493.5</ele><time>2026-05-04T13:09:59Z</time></trkpt><trkpt lat="41.08917827011568" lon="14.639562242519267"><ele>492.66666666666663</ele><time>2026-05-04T13:10:00Z</time></trkpt><trkpt lat="41.089098683395534" lon="14.639541690232708"><ele>491.8333333333333</ele><time>2026-05-04T13:10:01Z</time></trkpt><trkpt lat="41.089032065397596" lon="14.6395081840451"><ele>491.0</ele><time>2026-05-04T13:10:02Z</time></trkpt><trkpt lat="41.08894312147217" lon="14.639465756808745"><ele>490.4</ele><time>2026-05-04T13:10:03Z</time></trkpt><trkpt lat="41.088867108461514" lon="14.63938777574011"><ele>489.8</ele><time>2026-05-04T13:10:04Z</time></trkpt><trkpt lat="41.0887918092228" lon="14.639295403016675"><ele>489.19999999999993</ele><time>2026-05-04T13:10:05Z</time></trkpt><trkpt lat="41.08870762962522" lon="14.63922158971736"><ele>488.59999999999997</ele><time>2026-05-04T13:10:06Z</time></trkpt><trkpt lat="41.08862574438649" lon="14.63916448519038"><ele>488.0</ele><time>2026-05-04T13:10:07Z</time></trkpt><trkpt lat="41.088537869372324" lon="14.639122513373456"><ele>488.0</ele><time>2026-05-04T13:10:08Z</time></trkpt><trkpt lat="41.088432469271766" lon="14.63908416399035"><ele>488.0</ele><time>2026-05-04T13:10:09Z</time></trkpt><trkpt lat="41.088305225184584" lon="14.63906077456199"><ele>488.0</ele><time>2026-05-04T13:10:10Z</time></trkpt><trkpt lat="41.088165101408634" lon="14.639028756539062"><ele>488.0</ele><time>2026-05-04T13:10:11Z</time></trkpt><trkpt lat="41.08806246021832" lon="14.639005898441743"><ele>484.75</ele><time>2026-05-04T13:10:12Z</time></trkpt><trkpt lat="41.087939154286424" lon="14.638976548359693"><ele>481.5</ele><time>2026-05-04T13:10:13Z</time></trkpt><trkpt lat="41.08782905313645" lon="14.638930367679988"><ele>478.25</ele><time>2026-05-04T13:10:14Z</time></trkpt><trkpt lat="41.08770725849535" lon="14.638912563086501"><ele>475.0</ele><time>2026-05-04T13:10:15Z</time></trkpt><trkpt lat="41.08757570293714" lon="14.638932076925249"><ele>475.0</ele><time>2026-05-04T13:10:16Z</time></trkpt><trkpt lat="41.08745813127665" lon="14.638943933568832"><ele>475.0</ele><time>2026-05-04T13:10:17Z</time></trkpt><trkpt lat="41.08733930277385" lon="14.638960499674605"><ele>475.0</ele><time>2026-05-04T13:10:18Z</time></trkpt><trkpt lat="41.0872237159348" lon="14.638970934038653"><ele>475.0</ele><time>2026-05-04T13:10:19Z</time></trkpt><trkpt lat="41.08711322355128" lon="14.63897738794545"><ele>472.25</ele><time>2026-05-04T13:10:20Z</time></trkpt><trkpt lat="41.08699743136938" lon="14.638982555095543"><ele>469.5</ele><time>2026-05-04T13:10:21Z</time></trkpt><trkpt lat="41.0868709982868" lon="14.638982667317299"><ele>466.75</ele><time>2026-05-04T13:10:22Z</time></trkpt><trkpt lat="41.08673895730137" lon="14.638964051677085"><ele>464.0</ele><time>2026-05-04T13:10:23Z</time></trkpt><trkpt lat="41.08660481995107" lon="14.638878303619792"><ele>461.75</ele><time>2026-05-04T13:10:24Z</time></trkpt><trkpt lat="41.086462956250074" lon="14.63884226342447"><ele>459.5</ele><time>2026-05-04T13:10:25Z</time></trkpt><trkpt lat="41.08632585291535" lon="14.638811232638028"><ele>457.25</ele><time>2026-05-04T13:10:26Z</time></trkpt><trkpt lat="41.08619378236915" lon="14.638786176356971"><ele>455.0</ele><time>2026-05-04T13:10:27Z</time></trkpt><trkpt lat="41.08607673133485" lon="14.638755495930427"><ele>455.0</ele><time>2026-05-04T13:10:28Z</time></trkpt><trkpt lat="41.08596008167749" lon="14.638676133930383"><ele>455.0</ele><time>2026-05-04T13:10:29Z</time></trkpt><trkpt lat="41.08584203676746" lon="14.638617605343569"><ele>455.0</ele><time>2026-05-04T13:10:30Z</time></trkpt><trkpt lat="41.085745947353786" lon="14.638547309095541"><ele>455.0</ele><time>2026-05-04T13:10:31Z</time></trkpt><trkpt lat="41.08563935590647" lon="14.638510152307061"><ele>452.25</ele><time>2026-05-04T13:10:32Z</time></trkpt><trkpt lat="41.085534710460834" lon="14.638481388992055"><ele>449.5</ele><time>2026-05-04T13:10:33Z</time></trkpt><trkpt lat="41.085431274141285" lon="14.638491513951355"><ele>446.75</ele><time>2026-05-04T13:10:34Z</time></trkpt><trkpt lat="41.085343381814766" lon="14.638511855886364"><ele>444.0</ele><time>2026-05-04T13:10:35Z</time></trkpt><trkpt lat="41.08519745037785" lon="14.638568370974467"><ele>444.0</ele><time>2026-05-04T13:10:36Z</time></trkpt><trkpt lat="41.085081647786716" lon="14.63858799697048"><ele>444.0</ele><time>2026-05-04T13:10:37Z</time></trkpt><trkpt lat="41.08496723648032" lon="14.638613676221908"><ele>444.0</ele><time>2026-05-04T13:10:38Z</time></trkpt><trkpt lat="41.08483968220948" lon="14.63864285456509"><ele>444.0</ele><time>2026-05-04T13:10:39Z</time></trkpt><trkpt lat="41.08471227055008" lon="14.63865324753759"><ele>441.25</ele><time>2026-05-04T13:10:40Z</time></trkpt><trkpt lat="41.08457586559365" lon="14.638637373430821"><ele>438.5</ele><time>2026-05-04T13:10:41Z</time></trkpt><trkpt lat="41.084449110029205" lon="14.638623114507897"><ele>435.75</ele><time>2026-05-04T13:10:42Z</time></trkpt><trkpt lat="41.084322743077294" lon="14.638624531576491"><ele>433.0</ele><time>2026-05-04T13:10:43Z</time></trkpt><trkpt lat="41.0842065652366" lon="14.638636224772986"><ele>433.00000000000006</ele><time>2026-05-04T13:10:44Z</time></trkpt><trkpt lat="41.08410462382307" lon="14.638661696568425"><ele>433.0</ele><time>2026-05-04T13:10:45Z</time></trkpt><trkpt lat="41.084023100335045" lon="14.638698174681002"><ele>433.0</ele><time>2026-05-04T13:10:46Z</time></trkpt><trkpt lat="41.08394841411047" lon="14.638721720276372"><ele>433.0</ele><time>2026-05-04T13:10:47Z</time></trkpt><trkpt lat="41.08386005189436" lon="14.638701609245484"><ele>433.00000000000006</ele><time>2026-05-04T13:10:48Z</time></trkpt><trkpt lat="41.08379810515716" lon="14.638647699942203"><ele>433.0</ele><time>2026-05-04T13:10:49Z</time></trkpt><trkpt lat="41.08373356104736" lon="14.638568264317145"><ele>430.0</ele><time>2026-05-04T13:10:50Z</time></trkpt><trkpt lat="41.0836661685357" lon="14.63850563470204"><ele>426.99999999999994</ele><time>2026-05-04T13:10:51Z</time></trkpt><trkpt lat="41.08360039469704" lon="14.638458758572211"><ele>424.0</ele><time>2026-05-04T13:10:52Z</time></trkpt><trkpt lat="41.08353431515115" lon="14.638415095204081"><ele>421.0</ele><time>2026-05-04T13:10:53Z</time></trkpt><trkpt lat="41.08347157566365" lon="14.638331525095802"><ele>418.0</ele><time>2026-05-04T13:10:54Z</time></trkpt><trkpt lat="41.08343259127757" lon="14.638166653188554"><ele>418.0</ele><time>2026-05-04T13:10:55Z</time></trkpt><trkpt lat="41.08334435653366" lon="14.638066169534833"><ele>418.0</ele><time>2026-05-04T13:10:56Z</time></trkpt><trkpt lat="41.08323765127874" lon="14.637964142731661"><ele>418.0</ele><time>2026-05-04T13:10:57Z</time></trkpt><trkpt lat="41.08310535491999" lon="14.637829322672395"><ele>418.0</ele><time>2026-05-04T13:10:58Z</time></trkpt><trkpt lat="41.08293228863671" lon="14.637655210265017"><ele>413.6666666666667</ele><time>2026-05-04T13:10:59Z</time></trkpt><trkpt lat="41.08277816793039" lon="14.637522332380373"><ele>409.33333333333337</ele><time>2026-05-04T13:11:00Z</time></trkpt><trkpt lat="41.08268584521019" lon="14.63737575295228"><ele>405.0</ele><time>2026-05-04T13:11:01Z</time></trkpt><trkpt lat="41.082658036024434" lon="14.637193500723656"><ele>405.0</ele><time>2026-05-04T13:11:02Z</time></trkpt><trkpt lat="41.082589332771036" lon="14.637070476584595"><ele>405.0</ele><time>2026-05-04T13:11:03Z</time></trkpt><trkpt lat="41.08248676754639" lon="14.636947231342054"><ele>405.0</ele><time>2026-05-04T13:11:04Z</time></trkpt><trkpt lat="41.082322338343104" lon="14.636827586297718"><ele>405.0</ele><time>2026-05-04T13:11:05Z</time></trkpt><trkpt lat="41.08218479515902" lon="14.636723595299598"><ele>402.25</ele><time>2026-05-04T13:11:06Z</time></trkpt><trkpt lat="41.08210268260671" lon="14.636598277571617"><ele>399.5</ele><time>2026-05-04T13:11:07Z</time></trkpt><trkpt lat="41.08203609969535" lon="14.63644100682534"><ele>396.75</ele><time>2026-05-04T13:11:08Z</time></trkpt><trkpt lat="41.0819510369041" lon="14.636311743052216"><ele>394.0</ele><time>2026-05-04T13:11:09Z</time></trkpt><trkpt lat="41.08188663161317" lon="14.636200954993539"><ele>392.79999999999995</ele><time>2026-05-04T13:11:10Z</time></trkpt><trkpt lat="41.081850554618406" lon="14.63610050389464"><ele>391.59999999999997</ele><time>2026-05-04T13:11:11Z</time></trkpt><trkpt lat="41.08180622775996" lon="14.63596954796544"><ele>390.4</ele><time>2026-05-04T13:11:12Z</time></trkpt><trkpt lat="41.08175717630133" lon="14.635819386184517"><ele>389.2</ele><time>2026-05-04T13:11:13Z</time></trkpt><trkpt lat="41.081714462569025" lon="14.635719609155718"><ele>388.0</ele><time>2026-05-04T13:11:14Z</time></trkpt><trkpt lat="41.08162763113434" lon="14.635678611760007"><ele>386.25</ele><time>2026-05-04T13:11:15Z</time></trkpt><trkpt lat="41.081489324823075" lon="14.635733556748164"><ele>384.5</ele><time>2026-05-04T13:11:16Z</time></trkpt><trkpt lat="41.08135331093837" lon="14.63579916046322"><ele>382.75</ele><time>2026-05-04T13:11:17Z</time></trkpt><trkpt lat="41.08122965396751" lon="14.635836589658146"><ele>381.0</ele><time>2026-05-04T13:11:18Z</time></trkpt><trkpt lat="41.081161269904754" lon="14.63586240365827"><ele>381.0</ele><time>2026-05-04T13:11:19Z</time></trkpt><trkpt lat="41.08122028265229" lon="14.635728560537885"><ele>381.0</ele><time>2026-05-04T13:11:26Z</time></trkpt><trkpt lat="41.08127718303107" lon="14.63557879761044"><ele>381.0</ele><time>2026-05-04T13:11:28Z</time></trkpt><trkpt lat="41.08131612199492" lon="14.635499155193056"><ele>381.0</ele><time>2026-05-04T13:11:29Z</time></trkpt><trkpt lat="41.081371849036465" lon="14.635401703578635"><ele>381.0</ele><time>2026-05-04T13:11:30Z</time></trkpt><trkpt lat="41.08141750839506" lon="14.63532085804337"><ele>380.4</ele><time>2026-05-04T13:11:31Z</time></trkpt><trkpt lat="41.08145180454428" lon="14.635199687562846"><ele>379.8</ele><time>2026-05-04T13:11:33Z</time></trkpt><trkpt lat="41.081396309619166" lon="14.63510390306248"><ele>379.2</ele><time>2026-05-04T13:11:34Z</time></trkpt><trkpt lat="41.08129297602669" lon="14.635059553941147"><ele>378.59999999999997</ele><time>2026-05-04T13:11:35Z</time></trkpt><trkpt lat="41.081245372117486" lon="14.634960617996876"><ele>378.0</ele><time>2026-05-04T13:11:36Z</time></trkpt><trkpt lat="41.081243855427694" lon="14.634870889870015"><ele>378.0</ele><time>2026-05-04T13:11:37Z</time></trkpt><trkpt lat="41.08123837687961" lon="14.634716078996963"><ele>378.0</ele><time>2026-05-04T13:11:39Z</time></trkpt><trkpt lat="41.081236209108674" lon="14.634610979410791"><ele>378.0</ele><time>2026-05-04T13:11:40Z</time></trkpt><trkpt lat="41.08123009061268" lon="14.63450090246628"><ele>378.0</ele><time>2026-05-04T13:11:41Z</time></trkpt><trkpt lat="41.081198548392855" lon="14.634375511546926"><ele>378.0</ele><time>2026-05-04T13:11:42Z</time></trkpt><trkpt lat="41.081172955429196" lon="14.634264405785881"><ele>380.25</ele><time>2026-05-04T13:11:43Z</time></trkpt><trkpt lat="41.08116087392717" lon="14.634156487119043"><ele>382.5</ele><time>2026-05-04T13:11:44Z</time></trkpt><trkpt lat="41.08112123996939" lon="14.634024917614427"><ele>384.75</ele><time>2026-05-04T13:11:45Z</time></trkpt><trkpt lat="41.0810372913726" lon="14.633868866305503"><ele>387.0</ele><time>2026-05-04T13:11:46Z</time></trkpt><trkpt lat="41.080974702375336" lon="14.633712699357979"><ele>387.20000000000005</ele><time>2026-05-04T13:11:47Z</time></trkpt><trkpt lat="41.08092582397003" lon="14.633606152613053"><ele>387.4</ele><time>2026-05-04T13:11:48Z</time></trkpt><trkpt lat="41.08086594738609" lon="14.633509431966885"><ele>387.6</ele><time>2026-05-04T13:11:49Z</time></trkpt><trkpt lat="41.08078516176548" lon="14.63339708033236"><ele>387.79999999999995</ele><time>2026-05-04T13:11:50Z</time></trkpt><trkpt lat="41.08072520450993" lon="14.633263498937257"><ele>388.0</ele><time>2026-05-04T13:11:51Z</time></trkpt><trkpt lat="41.080665721939624" lon="14.633128878126119"><ele>388.0</ele><time>2026-05-04T13:11:52Z</time></trkpt><trkpt lat="41.08060452439329" lon="14.632968774869955"><ele>388.0</ele><time>2026-05-04T13:11:53Z</time></trkpt><trkpt lat="41.080545231688326" lon="14.632813773211268"><ele>388.0</ele><time>2026-05-04T13:11:54Z</time></trkpt><trkpt lat="41.080475716336636" lon="14.63263397244633"><ele>388.0</ele><time>2026-05-04T13:11:55Z</time></trkpt><trkpt lat="41.080401635761056" lon="14.632458998862171"><ele>391.6666666666667</ele><time>2026-05-04T13:11:56Z</time></trkpt><trkpt lat="41.08033725559056" lon="14.63227363307599"><ele>395.33333333333337</ele><time>2026-05-04T13:11:57Z</time></trkpt><trkpt lat="41.08024986949547" lon="14.632059119560948"><ele>399.0</ele><time>2026-05-04T13:11:58Z</time></trkpt><trkpt lat="41.08016511711199" lon="14.631880674447316"><ele>401.5</ele><time>2026-05-04T13:11:59Z</time></trkpt><trkpt lat="41.08012292808716" lon="14.63172843674568"><ele>404.0</ele><time>2026-05-04T13:12:00Z</time></trkpt><trkpt lat="41.080078218200825" lon="14.631563116085603"><ele>406.5</ele><time>2026-05-04T13:12:01Z</time></trkpt><trkpt lat="41.08004895064629" lon="14.631353860727003"><ele>409.0</ele><time>2026-05-04T13:12:02Z</time></trkpt><trkpt lat="41.0800275856817" lon="14.631181551037663"><ele>410.79999999999995</ele><time>2026-05-04T13:12:03Z</time></trkpt><trkpt lat="41.08000487111321" lon="14.631080361061537"><ele>412.59999999999997</ele><time>2026-05-04T13:12:04Z</time></trkpt><trkpt lat="41.08001308166811" lon="14.630958509255695"><ele>414.4</ele><time>2026-05-04T13:12:06Z</time></trkpt><trkpt lat="41.080108636493236" lon="14.630834736614146"><ele>416.2</ele><time>2026-05-04T13:12:08Z</time></trkpt><trkpt lat="41.08015745133863" lon="14.630758577611775"><ele>418.0</ele><time>2026-05-04T13:12:09Z</time></trkpt><trkpt lat="41.080206397447654" lon="14.630687014173102"><ele>418.0</ele><time>2026-05-04T13:12:10Z</time></trkpt><trkpt lat="41.08027886640301" lon="14.630634157241502"><ele>418.0</ele><time>2026-05-04T13:12:11Z</time></trkpt><trkpt lat="41.08033385932585" lon="14.630532760705426"><ele>418.0</ele><time>2026-05-04T13:12:12Z</time></trkpt><trkpt lat="41.0804200121728" lon="14.630422473311365"><ele>418.0</ele><time>2026-05-04T13:12:13Z</time></trkpt><trkpt lat="41.080504825521594" lon="14.630366012085213"><ele>418.0</ele><time>2026-05-04T13:12:14Z</time></trkpt><trkpt lat="41.080569448803566" lon="14.630308930232752"><ele>418.0</ele><time>2026-05-04T13:12:15Z</time></trkpt><trkpt lat="41.08063835914141" lon="14.630233934938264"><ele>418.0</ele><time>2026-05-04T13:12:16Z</time></trkpt><trkpt lat="41.08071382686178" lon="14.630105104767715"><ele>418.0</ele><time>2026-05-04T13:12:18Z</time></trkpt><trkpt lat="41.080730140605304" lon="14.6300167441759"><ele>418.0</ele><time>2026-05-04T13:12:19Z</time></trkpt><trkpt lat="41.0807077786858" lon="14.629876859035406"><ele>418.0</ele><time>2026-05-04T13:12:21Z</time></trkpt><trkpt lat="41.08070122419602" lon="14.629764779884455"><ele>418.0</ele><time>2026-05-04T13:12:23Z</time></trkpt><trkpt lat="41.08063558998102" lon="14.629695781275345"><ele>418.0</ele><time>2026-05-04T13:12:24Z</time></trkpt><trkpt lat="41.08057318200642" lon="14.62958265899495"><ele>418.0</ele><time>2026-05-04T13:12:25Z</time></trkpt><trkpt lat="41.08051821059316" lon="14.629451617758402"><ele>418.0</ele><time>2026-05-04T13:12:26Z</time></trkpt><trkpt lat="41.08048909612919" lon="14.629315040855426"><ele>418.0</ele><time>2026-05-04T13:12:27Z</time></trkpt><trkpt lat="41.08048083561942" lon="14.629181596231838"><ele>417.4</ele><time>2026-05-04T13:12:28Z</time></trkpt><trkpt lat="41.080491141168444" lon="14.629037756648284"><ele>416.79999999999995</ele><time>2026-05-04T13:12:29Z</time></trkpt><trkpt lat="41.08052172663658" lon="14.628908775705261"><ele>416.2</ele><time>2026-05-04T13:12:30Z</time></trkpt><trkpt lat="41.080561167123484" lon="14.628789528741272"><ele>415.6</ele><time>2026-05-04T13:12:31Z</time></trkpt><trkpt lat="41.080587725080484" lon="14.628665217219638"><ele>415.0</ele><time>2026-05-04T13:12:32Z</time></trkpt><trkpt lat="41.080626112270515" lon="14.628559977927582"><ele>414.2</ele><time>2026-05-04T13:12:33Z</time></trkpt><trkpt lat="41.08061499194281" lon="14.628444320807484"><ele>413.4</ele><time>2026-05-04T13:12:34Z</time></trkpt><trkpt lat="41.080564302213084" lon="14.628347692773284"><ele>412.6</ele><time>2026-05-04T13:12:35Z</time></trkpt><trkpt lat="41.08049987483076" lon="14.628256767519314"><ele>411.8</ele><time>2026-05-04T13:12:36Z</time></trkpt><trkpt lat="41.080402367834054" lon="14.628189936967365"><ele>411.0</ele><time>2026-05-04T13:12:37Z</time></trkpt><trkpt lat="41.08033926931263" lon="14.628064069452947"><ele>411.0</ele><time>2026-05-04T13:12:38Z</time></trkpt><trkpt lat="41.08027253531252" lon="14.627898821431751"><ele>411.0</ele><time>2026-05-04T13:12:39Z</time></trkpt><trkpt lat="41.08021762590573" lon="14.627774538643934"><ele>411.0</ele><time>2026-05-04T13:12:40Z</time></trkpt><trkpt lat="41.080160665360445" lon="14.627656969599512"><ele>411.0</ele><time>2026-05-04T13:12:42Z</time></trkpt><trkpt lat="41.08011440592728" lon="14.62756609393862"><ele>411.0</ele><time>2026-05-04T13:12:44Z</time></trkpt><trkpt lat="41.08006336753508" lon="14.627494980325618"><ele>410.4</ele><time>2026-05-04T13:12:45Z</time></trkpt><trkpt lat="41.07999229763434" lon="14.627337197775997"><ele>409.8</ele><time>2026-05-04T13:12:46Z</time></trkpt><trkpt lat="41.079925673844016" lon="14.62724823269635"><ele>409.2</ele><time>2026-05-04T13:12:47Z</time></trkpt><trkpt lat="41.07989577227773" lon="14.627142874315368"><ele>408.59999999999997</ele><time>2026-05-04T13:12:48Z</time></trkpt><trkpt lat="41.07984389424975" lon="14.627011588064176"><ele>408.0</ele><time>2026-05-04T13:12:50Z</time></trkpt><trkpt lat="41.07980598397114" lon="14.626898330965904"><ele>407.75</ele><time>2026-05-04T13:12:51Z</time></trkpt><trkpt lat="41.079759780817476" lon="14.62673823683475"><ele>407.5</ele><time>2026-05-04T13:12:52Z</time></trkpt><trkpt lat="41.079720182011044" lon="14.626554863875299"><ele>407.25</ele><time>2026-05-04T13:12:53Z</time></trkpt><trkpt lat="41.079682361675275" lon="14.626350339304034"><ele>407.0</ele><time>2026-05-04T13:12:54Z</time></trkpt><trkpt lat="41.07963063869177" lon="14.626106885017055"><ele>405.0</ele><time>2026-05-04T13:12:55Z</time></trkpt><trkpt lat="41.07958981629467" lon="14.625863915721926"><ele>403.0</ele><time>2026-05-04T13:12:56Z</time></trkpt><trkpt lat="41.07955449406406" lon="14.625658747015535"><ele>401.0</ele><time>2026-05-04T13:12:57Z</time></trkpt><trkpt lat="41.07952204688139" lon="14.625479763866837"><ele>401.66666666666663</ele><time>2026-05-04T13:12:58Z</time></trkpt><trkpt lat="41.07947480065719" lon="14.62527921561485"><ele>402.33333333333337</ele><time>2026-05-04T13:12:59Z</time></trkpt><trkpt lat="41.079413060548255" lon="14.62510442230999"><ele>403.0</ele><time>2026-05-04T13:13:00Z</time></trkpt><trkpt lat="41.07932153624667" lon="14.624945102769248"><ele>403.0</ele><time>2026-05-04T13:13:01Z</time></trkpt><trkpt lat="41.07921163094224" lon="14.624821925301854"><ele>403.0</ele><time>2026-05-04T13:13:02Z</time></trkpt><trkpt lat="41.07912390126782" lon="14.624710309385112"><ele>403.0</ele><time>2026-05-04T13:13:03Z</time></trkpt><trkpt lat="41.07906732718104" lon="14.624623608533994"><ele>403.0</ele><time>2026-05-04T13:13:04Z</time></trkpt><trkpt lat="41.079041766482526" lon="14.62452701180009"><ele>403.0</ele><time>2026-05-04T13:13:05Z</time></trkpt><trkpt lat="41.079073557286044" lon="14.62438824833708"><ele>398.5</ele><time>2026-05-04T13:13:06Z</time></trkpt><trkpt lat="41.07907630211361" lon="14.6242076973023"><ele>394.0</ele><time>2026-05-04T13:13:07Z</time></trkpt><trkpt lat="41.079062454158425" lon="14.624026433669417"><ele>389.5</ele><time>2026-05-04T13:13:08Z</time></trkpt><trkpt lat="41.07904318537233" lon="14.623849076425403"><ele>385.0</ele><time>2026-05-04T13:13:09Z</time></trkpt><trkpt lat="41.07901505365621" lon="14.623672464362857"><ele>385.5</ele><time>2026-05-04T13:13:10Z</time></trkpt><trkpt lat="41.07896553722631" lon="14.62349150936704"><ele>386.0</ele><time>2026-05-04T13:13:11Z</time></trkpt><trkpt lat="41.078956117272" lon="14.623329120403907"><ele>386.5</ele><time>2026-05-04T13:13:12Z</time></trkpt><trkpt lat="41.07891513547547" lon="14.623171970082934"><ele>387.0</ele><time>2026-05-04T13:13:13Z</time></trkpt><trkpt lat="41.078880670393325" lon="14.623012186856476"><ele>387.0</ele><time>2026-05-04T13:13:14Z</time></trkpt><trkpt lat="41.07881904550069" lon="14.622900676407529"><ele>387.0</ele><time>2026-05-04T13:13:15Z</time></trkpt><trkpt lat="41.07874741410698" lon="14.62279174503246"><ele>387.0</ele><time>2026-05-04T13:13:16Z</time></trkpt><trkpt lat="41.078663416311706" lon="14.622651518474552"><ele>387.0</ele><time>2026-05-04T13:13:17Z</time></trkpt><trkpt lat="41.07857672862576" lon="14.622512603986452"><ele>388.40000000000003</ele><time>2026-05-04T13:13:18Z</time></trkpt><trkpt lat="41.07849868818605" lon="14.622374404204873"><ele>389.8</ele><time>2026-05-04T13:13:19Z</time></trkpt><trkpt lat="41.0784272477668" lon="14.622234371220857"><ele>391.2</ele><time>2026-05-04T13:13:20Z</time></trkpt><trkpt lat="41.0783680703456" lon="14.62211777472657"><ele>392.6</ele><time>2026-05-04T13:13:21Z</time></trkpt><trkpt lat="41.07833523348172" lon="14.622043275881706"><ele>394.0</ele><time>2026-05-04T13:13:22Z</time></trkpt><trkpt lat="41.07829163634409" lon="14.621952345370175"><ele>387.6666666666667</ele><time>2026-05-04T13:13:23Z</time></trkpt><trkpt lat="41.07821545511547" lon="14.621835717678938"><ele>381.33333333333337</ele><time>2026-05-04T13:13:24Z</time></trkpt><trkpt lat="41.07809968680524" lon="14.621649318396676"><ele>375.0</ele><time>2026-05-04T13:13:25Z</time></trkpt><trkpt lat="41.07799481220123" lon="14.62148644795984"><ele>375.0</ele><time>2026-05-04T13:13:26Z</time></trkpt><trkpt lat="41.07785748999236" lon="14.621311514925754"><ele>375.0</ele><time>2026-05-04T13:13:27Z</time></trkpt><trkpt lat="41.07769256108743" lon="14.621151763655266"><ele>375.0</ele><time>2026-05-04T13:13:28Z</time></trkpt><trkpt lat="41.07754637077119" lon="14.620976867934262"><ele>370.6666666666667</ele><time>2026-05-04T13:13:29Z</time></trkpt><trkpt lat="41.07739525112381" lon="14.620833484078217"><ele>366.33333333333337</ele><time>2026-05-04T13:13:30Z</time></trkpt><trkpt lat="41.07725128661733" lon="14.620713427362395"><ele>362.0</ele><time>2026-05-04T13:13:31Z</time></trkpt><trkpt lat="41.07712410352074" lon="14.620602103716903"><ele>362.0</ele><time>2026-05-04T13:13:32Z</time></trkpt><trkpt lat="41.07702471385877" lon="14.620496930339154"><ele>362.0</ele><time>2026-05-04T13:13:33Z</time></trkpt><trkpt lat="41.07695005760154" lon="14.620405286107705"><ele>362.0</ele><time>2026-05-04T13:13:34Z</time></trkpt><trkpt lat="41.07688908669323" lon="14.6203305067214"><ele>362.0</ele><time>2026-05-04T13:13:35Z</time></trkpt><trkpt lat="41.07679658954826" lon="14.620233681256778"><ele>362.0</ele><time>2026-05-04T13:13:36Z</time></trkpt><trkpt lat="41.07667135477926" lon="14.620070214077595"><ele>362.20000000000005</ele><time>2026-05-04T13:13:38Z</time></trkpt><trkpt lat="41.07663697729706" lon="14.61997191401887"><ele>362.4</ele><time>2026-05-04T13:13:39Z</time></trkpt><trkpt lat="41.07658803619599" lon="14.619877541639765"><ele>362.6</ele><time>2026-05-04T13:13:40Z</time></trkpt><trkpt lat="41.07655583174691" lon="14.619747601887369"><ele>362.79999999999995</ele><time>2026-05-04T13:13:41Z</time></trkpt><trkpt lat="41.076513815868964" lon="14.619608337426566"><ele>363.0</ele><time>2026-05-04T13:13:42Z</time></trkpt><trkpt lat="41.076447647835444" lon="14.619505513599451"><ele>359.25</ele><time>2026-05-04T13:13:43Z</time></trkpt><trkpt lat="41.07641935111697" lon="14.619407218345968"><ele>355.5</ele><time>2026-05-04T13:13:44Z</time></trkpt><trkpt lat="41.076365024152196" lon="14.619314012358714"><ele>351.75</ele><time>2026-05-04T13:13:45Z</time></trkpt><trkpt lat="41.07627078216013" lon="14.619137671168321"><ele>348.0</ele><time>2026-05-04T13:13:46Z</time></trkpt><trkpt lat="41.07615483910802" lon="14.619069435494092"><ele>348.0</ele><time>2026-05-04T13:13:47Z</time></trkpt><trkpt lat="41.07605942861168" lon="14.618979319980763"><ele>348.0</ele><time>2026-05-04T13:13:48Z</time></trkpt><trkpt lat="41.075989715156574" lon="14.61890255241687"><ele>348.0</ele><time>2026-05-04T13:13:49Z</time></trkpt><trkpt lat="41.0759344752981" lon="14.618825895389266"><ele>348.0</ele><time>2026-05-04T13:13:50Z</time></trkpt><trkpt lat="41.07588343748162" lon="14.61877245975584"><ele>348.0</ele><time>2026-05-04T13:13:51Z</time></trkpt><trkpt lat="41.075767814323314" lon="14.618683269309281"><ele>346.4</ele><time>2026-05-04T13:13:53Z</time></trkpt><trkpt lat="41.075650102398335" lon="14.618589339763592"><ele>344.79999999999995</ele><time>2026-05-04T13:13:54Z</time></trkpt><trkpt lat="41.07557858191517" lon="14.618541251739256"><ele>343.2</ele><time>2026-05-04T13:13:55Z</time></trkpt><trkpt lat="41.07549112954288" lon="14.618465706376792"><ele>341.6</ele><time>2026-05-04T13:13:57Z</time></trkpt><trkpt lat="41.07545810542247" lon="14.618381475094953"><ele>340.0</ele><time>2026-05-04T13:13:58Z</time></trkpt><trkpt lat="41.07540765428545" lon="14.618262110876858"><ele>340.0</ele><time>2026-05-04T13:13:59Z</time></trkpt><trkpt lat="41.075342106671236" lon="14.618146574997015"><ele>340.0</ele><time>2026-05-04T13:14:00Z</time></trkpt><trkpt lat="41.07527388010594" lon="14.618034104007856"><ele>340.0</ele><time>2026-05-04T13:14:01Z</time></trkpt><trkpt lat="41.07521304585626" lon="14.61794659296423"><ele>340.0</ele><time>2026-05-04T13:14:02Z</time></trkpt><trkpt lat="41.07513043820404" lon="14.617903509505405"><ele>340.0</ele><time>2026-05-04T13:14:03Z</time></trkpt><trkpt lat="41.0750712573837" lon="14.617819349185734"><ele>339.4</ele><time>2026-05-04T13:14:04Z</time></trkpt><trkpt lat="41.075015161719776" lon="14.617734647216881"><ele>338.8</ele><time>2026-05-04T13:14:05Z</time></trkpt><trkpt lat="41.07496447182646" lon="14.617612578065929"><ele>338.20000000000005</ele><time>2026-05-04T13:14:06Z</time></trkpt><trkpt lat="41.074918926737105" lon="14.617493480980416"><ele>337.6</ele><time>2026-05-04T13:14:07Z</time></trkpt><trkpt lat="41.07487201122688" lon="14.617392691606998"><ele>337.0</ele><time>2026-05-04T13:14:08Z</time></trkpt><trkpt lat="41.074818565586746" lon="14.617302517256144"><ele>335.0</ele><time>2026-05-04T13:14:09Z</time></trkpt><trkpt lat="41.07475469864424" lon="14.617213706037663"><ele>333.0</ele><time>2026-05-04T13:14:10Z</time></trkpt><trkpt lat="41.07469607586773" lon="14.617132298653226"><ele>331.0</ele><time>2026-05-04T13:14:11Z</time></trkpt><trkpt lat="41.074639996827536" lon="14.617059430592771"><ele>329.0</ele><time>2026-05-04T13:14:12Z</time></trkpt><trkpt lat="41.074580536832116" lon="14.616985244426619"><ele>327.0</ele><time>2026-05-04T13:14:13Z</time></trkpt><trkpt lat="41.07452642804446" lon="14.616921000969468"><ele>325.0</ele><time>2026-05-04T13:14:14Z</time></trkpt><trkpt lat="41.07446872087024" lon="14.616855308627171"><ele>324.8</ele><time>2026-05-04T13:14:15Z</time></trkpt><trkpt lat="41.07440981695483" lon="14.616769514574118"><ele>324.6</ele><time>2026-05-04T13:14:16Z</time></trkpt><trkpt lat="41.074345712247414" lon="14.616724603920877"><ele>324.4</ele><time>2026-05-04T13:14:17Z</time></trkpt><trkpt lat="41.074268200388474" lon="14.616650685431509"><ele>324.2</ele><time>2026-05-04T13:14:18Z</time></trkpt><trkpt lat="41.07420162082772" lon="14.616556010322753"><ele>324.0</ele><time>2026-05-04T13:14:19Z</time></trkpt><trkpt lat="41.07415164830379" lon="14.616427820188813"><ele>321.25</ele><time>2026-05-04T13:14:20Z</time></trkpt><trkpt lat="41.074073603144726" lon="14.616267393140584"><ele>318.5</ele><time>2026-05-04T13:14:21Z</time></trkpt><trkpt lat="41.07403190720633" lon="14.616159463733652"><ele>315.75</ele><time>2026-05-04T13:14:22Z</time></trkpt><trkpt lat="41.07397984112899" lon="14.61602360245993"><ele>313.0</ele><time>2026-05-04T13:14:23Z</time></trkpt><trkpt lat="41.07392369419643" lon="14.615860189188632"><ele>313.0</ele><time>2026-05-04T13:14:24Z</time></trkpt><trkpt lat="41.073875451334196" lon="14.61571811066396"><ele>313.0</ele><time>2026-05-04T13:14:25Z</time></trkpt><trkpt lat="41.07384612828538" lon="14.615617580533819"><ele>313.0</ele><time>2026-05-04T13:14:26Z</time></trkpt><trkpt lat="41.07380241433708" lon="14.615508473337561"><ele>313.0</ele><time>2026-05-04T13:14:27Z</time></trkpt><trkpt lat="41.07372589009554" lon="14.615442919372073"><ele>313.0</ele><time>2026-05-04T13:14:28Z</time></trkpt><trkpt lat="41.073681190747486" lon="14.61536861539475"><ele>313.2</ele><time>2026-05-04T13:14:29Z</time></trkpt><trkpt lat="41.0735920585332" lon="14.61528498377489"><ele>313.4</ele><time>2026-05-04T13:14:31Z</time></trkpt><trkpt lat="41.07353571422158" lon="14.615216327126754"><ele>313.59999999999997</ele><time>2026-05-04T13:14:32Z</time></trkpt><trkpt lat="41.073473490784" lon="14.61513396261024"><ele>313.8</ele><time>2026-05-04T13:14:33Z</time></trkpt><trkpt lat="41.07340351799317" lon="14.61501543923967"><ele>314.0</ele><time>2026-05-04T13:14:34Z</time></trkpt><trkpt lat="41.073322714219984" lon="14.61485260310205"><ele>310.6666666666667</ele><time>2026-05-04T13:14:35Z</time></trkpt><trkpt lat="41.07323612107574" lon="14.614636158006501"><ele>307.3333333333333</ele><time>2026-05-04T13:14:36Z</time></trkpt><trkpt lat="41.07317852934199" lon="14.614441234597233"><ele>304.0</ele><time>2026-05-04T13:14:37Z</time></trkpt><trkpt lat="41.073135568241796" lon="14.614228571333173"><ele>304.0</ele><time>2026-05-04T13:14:38Z</time></trkpt><trkpt lat="41.07310230417171" lon="14.614040703756793"><ele>304.0</ele><time>2026-05-04T13:14:39Z</time></trkpt><trkpt lat="41.073074092444976" lon="14.613872640481482"><ele>304.0</ele><time>2026-05-04T13:14:40Z</time></trkpt><trkpt lat="41.073052588592525" lon="14.613697833448494"><ele>304.0</ele><time>2026-05-04T13:14:41Z</time></trkpt><trkpt lat="41.07303542854258" lon="14.613511077052896"><ele>304.3333333333333</ele><time>2026-05-04T13:14:42Z</time></trkpt><trkpt lat="41.07301786596152" lon="14.613304192465732"><ele>304.6666666666667</ele><time>2026-05-04T13:14:43Z</time></trkpt><trkpt lat="41.07299241374917" lon="14.613079301748842"><ele>305.0</ele><time>2026-05-04T13:14:44Z</time></trkpt><trkpt lat="41.07295919304659" lon="14.612828286002415"><ele>305.6666666666667</ele><time>2026-05-04T13:14:45Z</time></trkpt><trkpt lat="41.07291702650832" lon="14.612558759855997"><ele>306.3333333333333</ele><time>2026-05-04T13:14:46Z</time></trkpt><trkpt lat="41.07286744336585" lon="14.612306711420661"><ele>307.0</ele><time>2026-05-04T13:14:47Z</time></trkpt><trkpt lat="41.07280775449137" lon="14.61208239788408"><ele>307.66666666666663</ele><time>2026-05-04T13:14:48Z</time></trkpt><trkpt lat="41.07271782226435" lon="14.611852359032925"><ele>308.3333333333333</ele><time>2026-05-04T13:14:49Z</time></trkpt><trkpt lat="41.0725993782191" lon="14.611635082980452"><ele>309.0</ele><time>2026-05-04T13:14:50Z</time></trkpt><trkpt lat="41.07250503183699" lon="14.61140325750931"><ele>305.75</ele><time>2026-05-04T13:14:51Z</time></trkpt><trkpt lat="41.07241317536505" lon="14.61121159313257"><ele>302.5</ele><time>2026-05-04T13:14:52Z</time></trkpt><trkpt lat="41.07231461606196" lon="14.611067752152614"><ele>299.25</ele><time>2026-05-04T13:14:53Z</time></trkpt><trkpt lat="41.07224294651327" lon="14.610940371981593"><ele>296.0</ele><time>2026-05-04T13:14:54Z</time></trkpt><trkpt lat="41.072138948210274" lon="14.61086619454024"><ele>296.0</ele><time>2026-05-04T13:14:55Z</time></trkpt><trkpt lat="41.07200959991067" lon="14.610866225494561"><ele>296.0</ele><time>2026-05-04T13:14:56Z</time></trkpt><trkpt lat="41.07189526928762" lon="14.610857036382987"><ele>296.0</ele><time>2026-05-04T13:14:57Z</time></trkpt><trkpt lat="41.071799387181" lon="14.610869927150699"><ele>296.0</ele><time>2026-05-04T13:14:58Z</time></trkpt><trkpt lat="41.07163132259965" lon="14.610887831991093"><ele>294.5</ele><time>2026-05-04T13:15:00Z</time></trkpt><trkpt lat="41.0715463933222" lon="14.610875313177614"><ele>293.0</ele><time>2026-05-04T13:15:01Z</time></trkpt><trkpt lat="41.071470368284565" lon="14.610862861656884"><ele>291.5</ele><time>2026-05-04T13:15:02Z</time></trkpt><trkpt lat="41.07139363797567" lon="14.610815120860122"><ele>290.0</ele><time>2026-05-04T13:15:03Z</time></trkpt><trkpt lat="41.07133585511815" lon="14.610748587590214"><ele>288.5</ele><time>2026-05-04T13:15:04Z</time></trkpt><trkpt lat="41.07126656140439" lon="14.610626225660457"><ele>287.0</ele><time>2026-05-04T13:15:05Z</time></trkpt><trkpt lat="41.07116687310848" lon="14.610497083930648"><ele>287.0</ele><time>2026-05-04T13:15:06Z</time></trkpt><trkpt lat="41.071033306765884" lon="14.610392095333308"><ele>287.0</ele><time>2026-05-04T13:15:07Z</time></trkpt><trkpt lat="41.07087919295009" lon="14.610296332937402"><ele>287.0</ele><time>2026-05-04T13:15:08Z</time></trkpt><trkpt lat="41.07073442211687" lon="14.61015086583109"><ele>284.33333333333337</ele><time>2026-05-04T13:15:09Z</time></trkpt><trkpt lat="41.0706039847944" lon="14.60996979367593"><ele>281.6666666666667</ele><time>2026-05-04T13:15:10Z</time></trkpt><trkpt lat="41.07049502866367" lon="14.609778085198803"><ele>279.0</ele><time>2026-05-04T13:15:11Z</time></trkpt><trkpt lat="41.07038803566351" lon="14.609562333800135"><ele>278.3333333333333</ele><time>2026-05-04T13:15:12Z</time></trkpt><trkpt lat="41.070265383101706" lon="14.609345217541835"><ele>277.66666666666663</ele><time>2026-05-04T13:15:13Z</time></trkpt><trkpt lat="41.07012733725574" lon="14.609178596767876"><ele>277.0</ele><time>2026-05-04T13:15:14Z</time></trkpt><trkpt lat="41.06999830806959" lon="14.609018691780975"><ele>275.66666666666663</ele><time>2026-05-04T13:15:15Z</time></trkpt><trkpt lat="41.06984395207654" lon="14.608895413115825"><ele>274.3333333333333</ele><time>2026-05-04T13:15:16Z</time></trkpt><trkpt lat="41.06966908226375" lon="14.608776886473748"><ele>273.0</ele><time>2026-05-04T13:15:17Z</time></trkpt><trkpt lat="41.069488872594356" lon="14.608666826109268"><ele>272.6666666666667</ele><time>2026-05-04T13:15:18Z</time></trkpt><trkpt lat="41.069305086954515" lon="14.60856479285385"><ele>272.33333333333337</ele><time>2026-05-04T13:15:19Z</time></trkpt><trkpt lat="41.06912451170476" lon="14.608475857961315"><ele>272.0</ele><time>2026-05-04T13:15:20Z</time></trkpt><trkpt lat="41.068955317909705" lon="14.608407953948923"><ele>271.33333333333337</ele><time>2026-05-04T13:15:21Z</time></trkpt><trkpt lat="41.06879329293339" lon="14.608337321158702"><ele>270.6666666666667</ele><time>2026-05-04T13:15:22Z</time></trkpt><trkpt lat="41.06864634125183" lon="14.608271111980622"><ele>270.0</ele><time>2026-05-04T13:15:23Z</time></trkpt><trkpt lat="41.068505327560715" lon="14.60820918311003"><ele>270.0</ele><time>2026-05-04T13:15:24Z</time></trkpt><trkpt lat="41.06836628100398" lon="14.608150600525684"><ele>270.0</ele><time>2026-05-04T13:15:25Z</time></trkpt><trkpt lat="41.0682402037912" lon="14.608117526820994"><ele>270.0</ele><time>2026-05-04T13:15:26Z</time></trkpt><trkpt lat="41.06814137228756" lon="14.608065001870083"><ele>270.0</ele><time>2026-05-04T13:15:27Z</time></trkpt><trkpt lat="41.068078039401776" lon="14.608038795816762"><ele>270.0</ele><time>2026-05-04T13:15:28Z</time></trkpt><trkpt lat="41.06799716208383" lon="14.608006208387424"><ele>269.3333333333333</ele><time>2026-05-04T13:15:30Z</time></trkpt><trkpt lat="41.06784530375539" lon="14.607874835634851"><ele>268.66666666666663</ele><time>2026-05-04T13:15:32Z</time></trkpt><trkpt lat="41.06776798767938" lon="14.607719583607743"><ele>268.0</ele><time>2026-05-04T13:15:33Z</time></trkpt><trkpt lat="41.06769897602561" lon="14.607562623576323"><ele>268.0</ele><time>2026-05-04T13:15:34Z</time></trkpt><trkpt lat="41.067658057212995" lon="14.607368279203035"><ele>268.0</ele><time>2026-05-04T13:15:35Z</time></trkpt><trkpt lat="41.067631067322665" lon="14.607111516048874"><ele>268.0</ele><time>2026-05-04T13:15:36Z</time></trkpt><trkpt lat="41.067599173910715" lon="14.606856839165186"><ele>268.0</ele><time>2026-05-04T13:15:37Z</time></trkpt><trkpt lat="41.06758678891136" lon="14.606596470964002"><ele>268.0</ele><time>2026-05-04T13:15:38Z</time></trkpt><trkpt lat="41.06758757076436" lon="14.606319908113738"><ele>268.0</ele><time>2026-05-04T13:15:39Z</time></trkpt><trkpt lat="41.067639235670065" lon="14.605997332182161"><ele>268.0</ele><time>2026-05-04T13:15:40Z</time></trkpt><trkpt lat="41.06767019344698" lon="14.60568541973915"><ele>268.0</ele><time>2026-05-04T13:15:41Z</time></trkpt><trkpt lat="41.06772332152794" lon="14.60538412881358"><ele>268.0</ele><time>2026-05-04T13:15:42Z</time></trkpt><trkpt lat="41.06773527987112" lon="14.605057560015872"><ele>268.0</ele><time>2026-05-04T13:15:43Z</time></trkpt><trkpt lat="41.06773660986328" lon="14.60470565014588"><ele>267.5</ele><time>2026-05-04T13:15:44Z</time></trkpt><trkpt lat="41.067733035795634" lon="14.60436187606874"><ele>267.0</ele><time>2026-05-04T13:15:45Z</time></trkpt><trkpt lat="41.06772921914132" lon="14.603994769706121"><ele>266.0</ele><time>2026-05-04T13:15:46Z</time></trkpt><trkpt lat="41.06771441397375" lon="14.603660718998194"><ele>265.0</ele><time>2026-05-04T13:15:47Z</time></trkpt><trkpt lat="41.067757894591836" lon="14.603361316400212"><ele>265.0</ele><time>2026-05-04T13:15:48Z</time></trkpt><trkpt lat="41.06781444220503" lon="14.603059164761229"><ele>265.0</ele><time>2026-05-04T13:15:49Z</time></trkpt><trkpt lat="41.06788158269522" lon="14.602747739926716"><ele>264.5</ele><time>2026-05-04T13:15:50Z</time></trkpt><trkpt lat="41.06796108191566" lon="14.602429878349895"><ele>264.0</ele><time>2026-05-04T13:15:51Z</time></trkpt><trkpt lat="41.06804910423309" lon="14.602095753743022"><ele>263.5</ele><time>2026-05-04T13:15:52Z</time></trkpt><trkpt lat="41.0681390925523" lon="14.6017541663105"><ele>263.0</ele><time>2026-05-04T13:15:53Z</time></trkpt><trkpt lat="41.06820449919803" lon="14.601368271560657"><ele>263.5</ele><time>2026-05-04T13:15:54Z</time></trkpt><trkpt lat="41.06831177016972" lon="14.600987149655884"><ele>264.0</ele><time>2026-05-04T13:15:55Z</time></trkpt><trkpt lat="41.068424871684606" lon="14.600580123621915"><ele>264.5</ele><time>2026-05-04T13:15:56Z</time></trkpt><trkpt lat="41.06853882025759" lon="14.600180542631527"><ele>265.0</ele><time>2026-05-04T13:15:57Z</time></trkpt><trkpt lat="41.0686596003462" lon="14.59982794114774"><ele>264.0</ele><time>2026-05-04T13:15:57.999Z</time></trkpt><trkpt lat="41.0687511073093" lon="14.599487547938773"><ele>263.0</ele><time>2026-05-04T13:15:58.999Z</time></trkpt><trkpt lat="41.06883306556441" lon="14.599171954677496"><ele>263.0</ele><time>2026-05-04T13:15:59.999Z</time></trkpt><trkpt lat="41.06888934248908" lon="14.598879494735643"><ele>263.0</ele><time>2026-05-04T13:16:00.999Z</time></trkpt><trkpt lat="41.06895917972551" lon="14.598622469184171"><ele>263.0</ele><time>2026-05-04T13:16:01.999Z</time></trkpt><trkpt lat="41.069017151830685" lon="14.598407989095326"><ele>263.0</ele><time>2026-05-04T13:16:02.999Z</time></trkpt><trkpt lat="41.06906145823968" lon="14.598248509641575"><ele>263.0</ele><time>2026-05-04T13:16:04Z</time></trkpt><trkpt lat="41.069120317272414" lon="14.598132050761015"><ele>263.0</ele><time>2026-05-04T13:16:05Z</time></trkpt><trkpt lat="41.06915976167504" lon="14.598040382586312"><ele>263.0</ele><time>2026-05-04T13:16:06Z</time></trkpt><trkpt lat="41.06910380627231" lon="14.59788135257758"><ele>263.0</ele><time>2026-05-04T13:16:08Z</time></trkpt><trkpt lat="41.069007158592875" lon="14.597790623680957"><ele>262.6666666666667</ele><time>2026-05-04T13:16:09Z</time></trkpt><trkpt lat="41.068907500203956" lon="14.597684257935404"><ele>262.3333333333333</ele><time>2026-05-04T13:16:10Z</time></trkpt><trkpt lat="41.068870078471264" lon="14.597494598983419"><ele>262.0</ele><time>2026-05-04T13:16:11Z</time></trkpt><trkpt lat="41.068862300463046" lon="14.597262208510518"><ele>262.0</ele><time>2026-05-04T13:16:12Z</time></trkpt><trkpt lat="41.06881210209413" lon="14.597017604715582"><ele>262.0</ele><time>2026-05-04T13:16:13Z</time></trkpt><trkpt lat="41.06876335464566" lon="14.59678007088076"><ele>262.0</ele><time>2026-05-04T13:16:14Z</time></trkpt><trkpt lat="41.06871398961526" lon="14.596539514272125"><ele>261.66666666666663</ele><time>2026-05-04T13:16:15Z</time></trkpt><trkpt lat="41.06866215383377" lon="14.596286222457122"><ele>261.3333333333333</ele><time>2026-05-04T13:16:16Z</time></trkpt><trkpt lat="41.068613586411075" lon="14.596041019160994"><ele>261.0</ele><time>2026-05-04T13:16:17Z</time></trkpt><trkpt lat="41.06857165034407" lon="14.595807473062647"><ele>261.0</ele><time>2026-05-04T13:16:18Z</time></trkpt><trkpt lat="41.06853398200002" lon="14.595571567866411"><ele>261.0</ele><time>2026-05-04T13:16:19Z</time></trkpt><trkpt lat="41.06848543927569" lon="14.595319745505575"><ele>261.0</ele><time>2026-05-04T13:16:20Z</time></trkpt><trkpt lat="41.068437567885084" lon="14.595103984862188"><ele>261.0</ele><time>2026-05-04T13:16:21Z</time></trkpt><trkpt lat="41.06839340436472" lon="14.594917419014266"><ele>261.0</ele><time>2026-05-04T13:16:22Z</time></trkpt><trkpt lat="41.068348280478865" lon="14.59473271947867"><ele>261.0</ele><time>2026-05-04T13:16:23Z</time></trkpt><trkpt lat="41.06829671735428" lon="14.594538757225449"><ele>261.0</ele><time>2026-05-04T13:16:24Z</time></trkpt><trkpt lat="41.06824012695835" lon="14.594338269539733"><ele>260.75</ele><time>2026-05-04T13:16:25Z</time></trkpt><trkpt lat="41.068184725816366" lon="14.59415617782365"><ele>260.5</ele><time>2026-05-04T13:16:26Z</time></trkpt><trkpt lat="41.068111362524704" lon="14.593976410248656"><ele>260.25</ele><time>2026-05-04T13:16:27Z</time></trkpt><trkpt lat="41.0680633003052" lon="14.593811510713383"><ele>260.0</ele><time>2026-05-04T13:16:28Z</time></trkpt><trkpt lat="41.068029486822105" lon="14.593733893985277"><ele>260.0</ele><time>2026-05-04T13:16:29Z</time></trkpt><trkpt lat="41.067999693363994" lon="14.593657749353246"><ele>260.0</ele><time>2026-05-04T13:16:31Z</time></trkpt><trkpt lat="41.06796728655536" lon="14.593552497861323"><ele>260.0</ele><time>2026-05-04T13:16:32Z</time></trkpt><trkpt lat="41.06790992085752" lon="14.593416915079487"><ele>260.0</ele><time>2026-05-04T13:16:33Z</time></trkpt><trkpt lat="41.06783702992782" lon="14.593252075279993"><ele>260.0</ele><time>2026-05-04T13:16:34Z</time></trkpt><trkpt lat="41.06776973078479" lon="14.593076507463882"><ele>260.0</ele><time>2026-05-04T13:16:35Z</time></trkpt><trkpt lat="41.06769731843154" lon="14.59288078691172"><ele>260.0</ele><time>2026-05-04T13:16:36Z</time></trkpt><trkpt lat="41.06761733642301" lon="14.592672274478934"><ele>260.0</ele><time>2026-05-04T13:16:37Z</time></trkpt><trkpt lat="41.06753932857597" lon="14.592459630271932"><ele>259.33333333333337</ele><time>2026-05-04T13:16:38Z</time></trkpt><trkpt lat="41.067456023460224" lon="14.592252980332809"><ele>258.6666666666667</ele><time>2026-05-04T13:16:39Z</time></trkpt><trkpt lat="41.06739616020488" lon="14.592072213484013"><ele>258.0</ele><time>2026-05-04T13:16:40Z</time></trkpt><trkpt lat="41.06734765940527" lon="14.591901163998076"><ele>258.0</ele><time>2026-05-04T13:16:41Z</time></trkpt><trkpt lat="41.067301167262244" lon="14.591720697818124"><ele>258.0</ele><time>2026-05-04T13:16:42Z</time></trkpt><trkpt lat="41.067254689866886" lon="14.59152264983847"><ele>258.0</ele><time>2026-05-04T13:16:43Z</time></trkpt><trkpt lat="41.06720804934495" lon="14.591310634219235"><ele>258.3333333333333</ele><time>2026-05-04T13:16:44Z</time></trkpt><trkpt lat="41.0671601660885" lon="14.591080648257389"><ele>258.66666666666663</ele><time>2026-05-04T13:16:45Z</time></trkpt><trkpt lat="41.067117702247444" lon="14.590854348396771"><ele>259.0</ele><time>2026-05-04T13:16:46Z</time></trkpt><trkpt lat="41.06707073669912" lon="14.590608888364814"><ele>259.0</ele><time>2026-05-04T13:16:47Z</time></trkpt><trkpt lat="41.06702307965224" lon="14.59035953513203"><ele>259.0</ele><time>2026-05-04T13:16:48Z</time></trkpt><trkpt lat="41.0669748775712" lon="14.590110544708004"><ele>259.0</ele><time>2026-05-04T13:16:49Z</time></trkpt><trkpt lat="41.06693320779142" lon="14.589855782001345"><ele>259.0</ele><time>2026-05-04T13:16:50Z</time></trkpt><trkpt lat="41.06688659391238" lon="14.589595950185041"><ele>259.0</ele><time>2026-05-04T13:16:51Z</time></trkpt><trkpt lat="41.066857787040334" lon="14.58932018641666"><ele>259.0</ele><time>2026-05-04T13:16:52Z</time></trkpt><trkpt lat="41.066807083924566" lon="14.58908120154869"><ele>259.0</ele><time>2026-05-04T13:16:53Z</time></trkpt><trkpt lat="41.06676979124074" lon="14.588866791284719"><ele>259.0</ele><time>2026-05-04T13:16:54Z</time></trkpt><trkpt lat="41.06675311484761" lon="14.588664212822534"><ele>259.0</ele><time>2026-05-04T13:16:55Z</time></trkpt><trkpt lat="41.06672529705788" lon="14.588494603440443"><ele>259.0</ele><time>2026-05-04T13:16:56Z</time></trkpt><trkpt lat="41.06668929847437" lon="14.588336252385957"><ele>259.0</ele><time>2026-05-04T13:16:57Z</time></trkpt><trkpt lat="41.06666739508458" lon="14.588171960127422"><ele>259.0</ele><time>2026-05-04T13:16:58Z</time></trkpt><trkpt lat="41.06663618053034" lon="14.587993353031754"><ele>259.0</ele><time>2026-05-04T13:16:59Z</time></trkpt><trkpt lat="41.06659660560319" lon="14.587809033636827"><ele>259.25</ele><time>2026-05-04T13:17:00Z</time></trkpt><trkpt lat="41.06655217378426" lon="14.587639252239091"><ele>259.5</ele><time>2026-05-04T13:17:01Z</time></trkpt><trkpt lat="41.06651983671809" lon="14.5874717824893"><ele>259.75</ele><time>2026-05-04T13:17:02Z</time></trkpt><trkpt lat="41.066457147489764" lon="14.58729871751305"><ele>260.0</ele><time>2026-05-04T13:17:03Z</time></trkpt><trkpt lat="41.06638982014678" lon="14.587120928057642"><ele>260.0</ele><time>2026-05-04T13:17:04Z</time></trkpt><trkpt lat="41.066302567297726" lon="14.586953258231702"><ele>260.0</ele><time>2026-05-04T13:17:05Z</time></trkpt><trkpt lat="41.06620843403339" lon="14.586779334308666"><ele>260.0</ele><time>2026-05-04T13:17:06Z</time></trkpt><trkpt lat="41.06610988083221" lon="14.586598504509018"><ele>260.0</ele><time>2026-05-04T13:17:07Z</time></trkpt><trkpt lat="41.06602391714159" lon="14.58642764844094"><ele>260.0</ele><time>2026-05-04T13:17:08Z</time></trkpt><trkpt lat="41.06592994756771" lon="14.586241060911062"><ele>260.0</ele><time>2026-05-04T13:17:09Z</time></trkpt><trkpt lat="41.0658384252" lon="14.58603910949972"><ele>259.0</ele><time>2026-05-04T13:17:10Z</time></trkpt><trkpt lat="41.06570602508331" lon="14.585879701748008"><ele>258.0</ele><time>2026-05-04T13:17:11Z</time></trkpt><trkpt lat="41.06557180822406" lon="14.585707065504382"><ele>257.0</ele><time>2026-05-04T13:17:12Z</time></trkpt><trkpt lat="41.06543786909182" lon="14.585537677055331"><ele>257.0</ele><time>2026-05-04T13:17:13Z</time></trkpt><trkpt lat="41.06530808781404" lon="14.58535818010476"><ele>257.0</ele><time>2026-05-04T13:17:14Z</time></trkpt><trkpt lat="41.065197310754705" lon="14.58519030057832"><ele>257.0</ele><time>2026-05-04T13:17:15Z</time></trkpt><trkpt lat="41.06510589514782" lon="14.585022168886127"><ele>257.33333333333337</ele><time>2026-05-04T13:17:16Z</time></trkpt><trkpt lat="41.06502361814207" lon="14.584834226376328"><ele>257.6666666666667</ele><time>2026-05-04T13:17:17Z</time></trkpt><trkpt lat="41.06496082136463" lon="14.584622192091148"><ele>258.0</ele><time>2026-05-04T13:17:18Z</time></trkpt><trkpt lat="41.06492567298061" lon="14.58438593528332"><ele>255.66666666666669</ele><time>2026-05-04T13:17:19Z</time></trkpt><trkpt lat="41.06489467614684" lon="14.584152209982912"><ele>253.33333333333334</ele><time>2026-05-04T13:17:20Z</time></trkpt><trkpt lat="41.06487011397172" lon="14.583921657235864"><ele>251.0</ele><time>2026-05-04T13:17:21Z</time></trkpt><trkpt lat="41.06485247623417" lon="14.583716805450997"><ele>251.0</ele><time>2026-05-04T13:17:22Z</time></trkpt><trkpt lat="41.06485310829484" lon="14.583533790850096"><ele>251.0</ele><time>2026-05-04T13:17:23Z</time></trkpt><trkpt lat="41.064849863378065" lon="14.583357383972798"><ele>251.0</ele><time>2026-05-04T13:17:24Z</time></trkpt><trkpt lat="41.06484458471744" lon="14.583194957330651"><ele>251.0</ele><time>2026-05-04T13:17:25Z</time></trkpt><trkpt lat="41.06486921064262" lon="14.583042058780228"><ele>251.0</ele><time>2026-05-04T13:17:26Z</time></trkpt><trkpt lat="41.064900160876014" lon="14.582908310443294"><ele>251.00000000000003</ele><time>2026-05-04T13:17:27Z</time></trkpt><trkpt lat="41.06496707251449" lon="14.582810166616406"><ele>251.00000000000003</ele><time>2026-05-04T13:17:28Z</time></trkpt><trkpt lat="41.06504906185741" lon="14.582700854999459"><ele>251.0</ele><time>2026-05-04T13:17:29Z</time></trkpt><trkpt lat="41.065137389284125" lon="14.58262428462561"><ele>251.0</ele><time>2026-05-04T13:17:30Z</time></trkpt><trkpt lat="41.06522682480321" lon="14.582509525828097"><ele>251.20000000000002</ele><time>2026-05-04T13:17:31Z</time></trkpt><trkpt lat="41.06527662430433" lon="14.582417267222265"><ele>251.40000000000003</ele><time>2026-05-04T13:17:32Z</time></trkpt><trkpt lat="41.06529348277077" lon="14.582285281895324"><ele>251.6</ele><time>2026-05-04T13:17:33Z</time></trkpt><trkpt lat="41.065286936731766" lon="14.582145899360581"><ele>251.8</ele><time>2026-05-04T13:17:34Z</time></trkpt><trkpt lat="41.065203620159444" lon="14.581994419860935"><ele>252.0</ele><time>2026-05-04T13:17:35Z</time></trkpt><trkpt lat="41.06513950829258" lon="14.58181187267903"><ele>251.0</ele><time>2026-05-04T13:17:36Z</time></trkpt><trkpt lat="41.0650583445873" lon="14.581637666009575"><ele>250.0</ele><time>2026-05-04T13:17:37Z</time></trkpt><trkpt lat="41.06497197864414" lon="14.581419815377354"><ele>249.0</ele><time>2026-05-04T13:17:38Z</time></trkpt><trkpt lat="41.06490314499524" lon="14.581194682232757"><ele>248.33333333333331</ele><time>2026-05-04T13:17:39Z</time></trkpt><trkpt lat="41.064824682593375" lon="14.580990968444432"><ele>247.66666666666666</ele><time>2026-05-04T13:17:40Z</time></trkpt><trkpt lat="41.06473884566928" lon="14.580771549963137"><ele>247.0</ele><time>2026-05-04T13:17:41Z</time></trkpt><trkpt lat="41.06466341568061" lon="14.580588914955676"><ele>247.0</ele><time>2026-05-04T13:17:41.999Z</time></trkpt><trkpt lat="41.06459322347951" lon="14.580411282544352"><ele>247.0</ele><time>2026-05-04T13:17:42.999Z</time></trkpt><trkpt lat="41.06451984585714" lon="14.580233938053846"><ele>247.0</ele><time>2026-05-04T13:17:43.999Z</time></trkpt><trkpt lat="41.06445053637655" lon="14.58004882928502"><ele>246.75</ele><time>2026-05-04T13:17:44.999Z</time></trkpt><trkpt lat="41.06438627973153" lon="14.579860320149134"><ele>246.5</ele><time>2026-05-04T13:17:45.999Z</time></trkpt><trkpt lat="41.064352838927746" lon="14.579674147175348"><ele>246.25</ele><time>2026-05-04T13:17:46.999Z</time></trkpt><trkpt lat="41.06430309862966" lon="14.579523714465536"><ele>246.0</ele><time>2026-05-04T13:17:47.999Z</time></trkpt><trkpt lat="41.064267249683674" lon="14.579376228862827"><ele>246.0</ele><time>2026-05-04T13:17:48.999Z</time></trkpt><trkpt lat="41.064215981299704" lon="14.579239089988175"><ele>246.00000000000003</ele><time>2026-05-04T13:17:49.999Z</time></trkpt><trkpt lat="41.06415101140375" lon="14.579142652900968"><ele>246.00000000000003</ele><time>2026-05-04T13:17:50.999Z</time></trkpt><trkpt lat="41.06411055533466" lon="14.5790423046259"><ele>246.0</ele><time>2026-05-04T13:17:51.999Z</time></trkpt><trkpt lat="41.06406241943051" lon="14.578912896479165"><ele>246.0</ele><time>2026-05-04T13:17:52.999Z</time></trkpt><trkpt lat="41.064028648698546" lon="14.57877663084595"><ele>248.0</ele><time>2026-05-04T13:17:53.999Z</time></trkpt><trkpt lat="41.06401092399759" lon="14.578641975932292"><ele>250.0</ele><time>2026-05-04T13:17:54.999Z</time></trkpt><trkpt lat="41.06401939099422" lon="14.57850996280495"><ele>252.0</ele><time>2026-05-04T13:17:55.999Z</time></trkpt><trkpt lat="41.0640269140208" lon="14.578350240599072"><ele>254.0</ele><time>2026-05-04T13:17:56.999Z</time></trkpt><trkpt lat="41.06405270499614" lon="14.578183153005822"><ele>254.0</ele><time>2026-05-04T13:17:57.999Z</time></trkpt><trkpt lat="41.06406278911895" lon="14.578009187124405"><ele>254.0</ele><time>2026-05-04T13:17:58.999Z</time></trkpt><trkpt lat="41.06409623025551" lon="14.5778385301676"><ele>254.0</ele><time>2026-05-04T13:17:59.999Z</time></trkpt><trkpt lat="41.06413587360354" lon="14.577648884654284"><ele>254.0</ele><time>2026-05-04T13:18:00.999Z</time></trkpt><trkpt lat="41.064170121745974" lon="14.57741972891399"><ele>251.66666666666669</ele><time>2026-05-04T13:18:01.999Z</time></trkpt><trkpt lat="41.06419400171819" lon="14.577152539559913"><ele>249.33333333333331</ele><time>2026-05-04T13:18:02.999Z</time></trkpt><trkpt lat="41.06420552982264" lon="14.576947936114609"><ele>247.0</ele><time>2026-05-04T13:18:03.999Z</time></trkpt><trkpt lat="41.064208559818645" lon="14.576807636751939"><ele>247.0</ele><time>2026-05-04T13:18:04.999Z</time></trkpt><trkpt lat="41.06420666089255" lon="14.576716536040008"><ele>247.0</ele><time>2026-05-04T13:18:05.999Z</time></trkpt><trkpt lat="41.064186288358194" lon="14.576573361644662"><ele>247.0</ele><time>2026-05-04T13:18:08.999Z</time></trkpt><trkpt lat="41.06408143935678" lon="14.57645768011442"><ele>247.0</ele><time>2026-05-04T13:18:10Z</time></trkpt><trkpt lat="41.064016149935114" lon="14.576350759527855"><ele>247.0</ele><time>2026-05-04T13:18:11Z</time></trkpt><trkpt lat="41.06393994632709" lon="14.576217687968938"><ele>248.66666666666666</ele><time>2026-05-04T13:18:12Z</time></trkpt><trkpt lat="41.06384614295545" lon="14.576070383606448"><ele>250.33333333333331</ele><time>2026-05-04T13:18:13Z</time></trkpt><trkpt lat="41.06374732614055" lon="14.575926254054284"><ele>252.0</ele><time>2026-05-04T13:18:14Z</time></trkpt><trkpt lat="41.06363577232775" lon="14.575776242178259"><ele>252.0</ele><time>2026-05-04T13:18:15Z</time></trkpt><trkpt lat="41.06355076736802" lon="14.575598290879572"><ele>252.0</ele><time>2026-05-04T13:18:16Z</time></trkpt><trkpt lat="41.06345584161783" lon="14.575425454265897"><ele>252.0</ele><time>2026-05-04T13:18:17Z</time></trkpt><trkpt lat="41.06337855864403" lon="14.57526368808132"><ele>251.25</ele><time>2026-05-04T13:18:18Z</time></trkpt><trkpt lat="41.0633199950536" lon="14.575107201436454"><ele>250.5</ele><time>2026-05-04T13:18:19Z</time></trkpt><trkpt lat="41.06326310386988" lon="14.574932363561171"><ele>249.75</ele><time>2026-05-04T13:18:20Z</time></trkpt><trkpt lat="41.06320564558647" lon="14.574740487990594"><ele>249.0</ele><time>2026-05-04T13:18:21Z</time></trkpt><trkpt lat="41.063149327465624" lon="14.574554834716599"><ele>250.0</ele><time>2026-05-04T13:18:22Z</time></trkpt><trkpt lat="41.06310821840464" lon="14.574365693367877"><ele>251.0</ele><time>2026-05-04T13:18:23Z</time></trkpt><trkpt lat="41.06307107881512" lon="14.574178704269594"><ele>252.0</ele><time>2026-05-04T13:18:24Z</time></trkpt><trkpt lat="41.063021282853896" lon="14.57401631966173"><ele>253.0</ele><time>2026-05-04T13:18:25Z</time></trkpt><trkpt lat="41.06298449151642" lon="14.573863114902192"><ele>253.0</ele><time>2026-05-04T13:18:26Z</time></trkpt><trkpt lat="41.06293545578403" lon="14.573723500840105"><ele>253.0</ele><time>2026-05-04T13:18:27Z</time></trkpt><trkpt lat="41.06289727790966" lon="14.573600399720492"><ele>253.0</ele><time>2026-05-04T13:18:28Z</time></trkpt><trkpt lat="41.062868812946704" lon="14.573478998847424"><ele>253.0</ele><time>2026-05-04T13:18:29Z</time></trkpt><trkpt lat="41.06285707558991" lon="14.573361094424083"><ele>253.0</ele><time>2026-05-04T13:18:30Z</time></trkpt><trkpt lat="41.0628348236492" lon="14.57325104459369"><ele>253.0</ele><time>2026-05-04T13:18:31Z</time></trkpt><trkpt lat="41.06280976197915" lon="14.57314559642805"><ele>253.0</ele><time>2026-05-04T13:18:32Z</time></trkpt><trkpt lat="41.062784507058915" lon="14.573033512304459"><ele>253.0</ele><time>2026-05-04T13:18:33Z</time></trkpt><trkpt lat="41.062762247473664" lon="14.572932463589652"><ele>253.0</ele><time>2026-05-04T13:18:34Z</time></trkpt><trkpt lat="41.06273565454922" lon="14.572811743361205"><ele>253.0</ele><time>2026-05-04T13:18:35Z</time></trkpt><trkpt lat="41.06270337129908" lon="14.572662091346768"><ele>252.25</ele><time>2026-05-04T13:18:36Z</time></trkpt><trkpt lat="41.062671880103096" lon="14.572506575200137"><ele>251.5</ele><time>2026-05-04T13:18:37Z</time></trkpt><trkpt lat="41.06263872140253" lon="14.572337417927729"><ele>250.75</ele><time>2026-05-04T13:18:38Z</time></trkpt><trkpt lat="41.06259981717538" lon="14.572148422881384"><ele>250.0</ele><time>2026-05-04T13:18:39Z</time></trkpt><trkpt lat="41.06255590186014" lon="14.571946641326162"><ele>249.66666666666666</ele><time>2026-05-04T13:18:40Z</time></trkpt><trkpt lat="41.062501233050384" lon="14.571747312306098"><ele>249.33333333333331</ele><time>2026-05-04T13:18:41Z</time></trkpt><trkpt lat="41.06243980939839" lon="14.57154955253975"><ele>249.0</ele><time>2026-05-04T13:18:42Z</time></trkpt><trkpt lat="41.06238255137283" lon="14.571371890358996"><ele>249.25</ele><time>2026-05-04T13:18:43Z</time></trkpt><trkpt lat="41.06232516014347" lon="14.571194321902484"><ele>249.5</ele><time>2026-05-04T13:18:44Z</time></trkpt><trkpt lat="41.06226580498196" lon="14.571022011402135"><ele>249.75</ele><time>2026-05-04T13:18:45Z</time></trkpt><trkpt lat="41.06220871431438" lon="14.570871525414058"><ele>250.0</ele><time>2026-05-04T13:18:46Z</time></trkpt><trkpt lat="41.062154480020695" lon="14.570731687989408"><ele>250.0</ele><time>2026-05-04T13:18:47Z</time></trkpt><trkpt lat="41.062119440664674" lon="14.570630086163174"><ele>250.0</ele><time>2026-05-04T13:18:48Z</time></trkpt><trkpt lat="41.0620935792469" lon="14.570489757858658"><ele>250.0</ele><time>2026-05-04T13:18:50Z</time></trkpt><trkpt lat="41.0620892182208" lon="14.570342095415231"><ele>250.0</ele><time>2026-05-04T13:18:51Z</time></trkpt><trkpt lat="41.06210030755382" lon="14.570166404327013"><ele>250.0</ele><time>2026-05-04T13:18:52Z</time></trkpt><trkpt lat="41.062121596290936" lon="14.569795476958843"><ele>249.66666666666666</ele><time>2026-05-04T13:18:54Z</time></trkpt><trkpt lat="41.06213735447225" lon="14.569580937849635"><ele>249.33333333333331</ele><time>2026-05-04T13:18:55Z</time></trkpt><trkpt lat="41.06215650839665" lon="14.56938466479392"><ele>249.0</ele><time>2026-05-04T13:18:56Z</time></trkpt><trkpt lat="41.062177676510814" lon="14.569201843799537"><ele>248.39999999999998</ele><time>2026-05-04T13:18:57Z</time></trkpt><trkpt lat="41.06219092586544" lon="14.569035785248877"><ele>247.79999999999998</ele><time>2026-05-04T13:18:58Z</time></trkpt><trkpt lat="41.06220153086004" lon="14.568882899602329"><ele>247.20000000000002</ele><time>2026-05-04T13:18:59Z</time></trkpt><trkpt lat="41.06221728867981" lon="14.568745416705523"><ele>246.60000000000002</ele><time>2026-05-04T13:19:00Z</time></trkpt><trkpt lat="41.06223073239281" lon="14.568639490928373"><ele>246.0</ele><time>2026-05-04T13:19:01Z</time></trkpt><trkpt lat="41.06224081522445" lon="14.568532231631945"><ele>246.0</ele><time>2026-05-04T13:19:02Z</time></trkpt><trkpt lat="41.06224638513418" lon="14.56840023080496"><ele>246.0</ele><time>2026-05-04T13:19:04Z</time></trkpt><trkpt lat="41.06226394553357" lon="14.568304197664256"><ele>246.0</ele><time>2026-05-04T13:19:06Z</time></trkpt><trkpt lat="41.06216529281658" lon="14.568254242710282"><ele>246.0</ele><time>2026-05-04T13:19:07Z</time></trkpt><trkpt lat="41.0621169699387" lon="14.568191330319062"><ele>246.0</ele><time>2026-05-04T13:19:08Z</time></trkpt><trkpt lat="41.06206072656741" lon="14.568094772394684"><ele>246.0</ele><time>2026-05-04T13:19:09Z</time></trkpt><trkpt lat="41.06198807384745" lon="14.567977841846563"><ele>246.0</ele><time>2026-05-04T13:19:10Z</time></trkpt><trkpt lat="41.061917548112405" lon="14.567864334580396"><ele>246.0</ele><time>2026-05-04T13:19:11Z</time></trkpt><trkpt lat="41.06182846743738" lon="14.567732962212384"><ele>246.0</ele><time>2026-05-04T13:19:12Z</time></trkpt><trkpt lat="41.06174095371567" lon="14.567604559429238"><ele>246.0</ele><time>2026-05-04T13:19:13Z</time></trkpt><trkpt lat="41.061665216640364" lon="14.567490438281682"><ele>246.66666666666669</ele><time>2026-05-04T13:19:14Z</time></trkpt><trkpt lat="41.061559211069905" lon="14.567356643555117"><ele>247.33333333333334</ele><time>2026-05-04T13:19:15Z</time></trkpt><trkpt lat="41.06146898258618" lon="14.56716466622079"><ele>248.0</ele><time>2026-05-04T13:19:16Z</time></trkpt><trkpt lat="41.06140451333675" lon="14.567003510498706"><ele>249.75</ele><time>2026-05-04T13:19:17Z</time></trkpt><trkpt lat="41.061358297266416" lon="14.56686613481948"><ele>251.5</ele><time>2026-05-04T13:19:18Z</time></trkpt><trkpt lat="41.06132306312956" lon="14.566747430500072"><ele>253.25</ele><time>2026-05-04T13:19:19Z</time></trkpt><trkpt lat="41.06124180142897" lon="14.566507773004782"><ele>255.0</ele><time>2026-05-04T13:19:21Z</time></trkpt><trkpt lat="41.06120521377349" lon="14.566409728554632"><ele>255.0</ele><time>2026-05-04T13:19:22Z</time></trkpt><trkpt lat="41.06114731410053" lon="14.566318961185532"><ele>255.0</ele><time>2026-05-04T13:19:23Z</time></trkpt><trkpt lat="41.06106720754448" lon="14.566196436135835"><ele>255.0</ele><time>2026-05-04T13:19:24Z</time></trkpt><trkpt lat="41.060985121000776" lon="14.566064044321436"><ele>255.0</ele><time>2026-05-04T13:19:25Z</time></trkpt><trkpt lat="41.060925002735665" lon="14.565952983276052"><ele>255.0</ele><time>2026-05-04T13:19:25.999Z</time></trkpt><trkpt lat="41.06088805847438" lon="14.565884105741764"><ele>255.6</ele><time>2026-05-04T13:19:26.999Z</time></trkpt><trkpt lat="41.06083520860873" lon="14.565748902805405"><ele>256.2</ele><time>2026-05-04T13:19:28.999Z</time></trkpt><trkpt lat="41.06081758170402" lon="14.565615516384314"><ele>256.8</ele><time>2026-05-04T13:19:30.999Z</time></trkpt><trkpt lat="41.06077686989498" lon="14.565482637907087"><ele>257.4</ele><time>2026-05-04T13:19:32.999Z</time></trkpt><trkpt lat="41.0607502742606" lon="14.565354670073917"><ele>258.0</ele><time>2026-05-04T13:19:34.999Z</time></trkpt><trkpt lat="41.06072675994087" lon="14.565215386999506"><ele>258.2</ele><time>2026-05-04T13:19:36.999Z</time></trkpt><trkpt lat="41.06069500954493" lon="14.565085117914185"><ele>258.4</ele><time>2026-05-04T13:19:38.999Z</time></trkpt><trkpt lat="41.06067511010212" lon="14.564928404870109"><ele>258.59999999999997</ele><time>2026-05-04T13:19:40.999Z</time></trkpt><trkpt lat="41.060659877106524" lon="14.564839481813772"><ele>258.8</ele><time>2026-05-04T13:19:41.999Z</time></trkpt><trkpt lat="41.060641462445204" lon="14.564688179061816"><ele>259.0</ele><time>2026-05-04T13:19:43.999Z</time></trkpt><trkpt lat="41.06062153067396" lon="14.564548458180655"><ele>259.16666666666663</ele><time>2026-05-04T13:19:45.999Z</time></trkpt><trkpt lat="41.06060147131082" lon="14.564401205743112"><ele>259.3333333333333</ele><time>2026-05-04T13:19:47.999Z</time></trkpt><trkpt lat="41.060593201309764" lon="14.56428612635755"><ele>259.5</ele><time>2026-05-04T13:19:49.999Z</time></trkpt><trkpt lat="41.060574206326095" lon="14.56418031380968"><ele>259.6666666666667</ele><time>2026-05-04T13:19:51.999Z</time></trkpt><trkpt lat="41.06055756307252" lon="14.564093168169553"><ele>259.83333333333337</ele><time>2026-05-04T13:19:53.999Z</time></trkpt><trkpt lat="41.060591557739684" lon="14.563989725938347"><ele>260.0</ele><time>2026-05-04T13:19:56.999Z</time></trkpt><trkpt lat="41.06073998592088" lon="14.56392095571458"><ele>260.25</ele><time>2026-05-04T13:19:58.999Z</time></trkpt><trkpt lat="41.06084383628241" lon="14.56385526177378"><ele>260.5</ele><time>2026-05-04T13:19:59.999Z</time></trkpt><trkpt lat="41.06096227457935" lon="14.563781714520436"><ele>260.75</ele><time>2026-05-04T13:20:00.999Z</time></trkpt><trkpt lat="41.06110286341076" lon="14.563701161859147"><ele>261.0</ele><time>2026-05-04T13:20:01.999Z</time></trkpt><trkpt lat="41.0612517662523" lon="14.563615399335864"><ele>261.0</ele><time>2026-05-04T13:20:02.999Z</time></trkpt><trkpt lat="41.06140937125606" lon="14.563520499018589"><ele>261.0</ele><time>2026-05-04T13:20:03.999Z</time></trkpt><trkpt lat="41.061550113604355" lon="14.563435752338242"><ele>261.0</ele><time>2026-05-04T13:20:04.999Z</time></trkpt><trkpt lat="41.06167217872551" lon="14.563362113194648"><ele>261.0</ele><time>2026-05-04T13:20:05.999Z</time></trkpt><trkpt lat="41.06178133206059" lon="14.563293708603487"><ele>261.0</ele><time>2026-05-04T13:20:06.999Z</time></trkpt><trkpt lat="41.06188167271071" lon="14.563230361922763"><ele>261.0</ele><time>2026-05-04T13:20:07.999Z</time></trkpt><trkpt lat="41.061963418728894" lon="14.563176245415894"><ele>261.0</ele><time>2026-05-04T13:20:08.999Z</time></trkpt><trkpt lat="41.06203285520131" lon="14.563121427669499"><ele>261.0</ele><time>2026-05-04T13:20:09.999Z</time></trkpt><trkpt lat="41.06211383243906" lon="14.56308630140822"><ele>261.0</ele><time>2026-05-04T13:20:10.999Z</time></trkpt><trkpt lat="41.062200128597205" lon="14.563032618577223"><ele>261.0</ele><time>2026-05-04T13:20:11.999Z</time></trkpt><trkpt lat="41.06230972967722" lon="14.562963092983601"><ele>261.0</ele><time>2026-05-04T13:20:12.999Z</time></trkpt><trkpt lat="41.06239493127947" lon="14.562909191377365"><ele>261.0</ele><time>2026-05-04T13:20:13.999Z</time></trkpt><trkpt lat="41.0624691843629" lon="14.562851219837162"><ele>261.0</ele><time>2026-05-04T13:20:14.999Z</time></trkpt><trkpt lat="41.0625371763239" lon="14.562795933704242"><ele>260.8</ele><time>2026-05-04T13:20:16Z</time></trkpt><trkpt lat="41.06262192736636" lon="14.562764492005082"><ele>260.6</ele><time>2026-05-04T13:20:17Z</time></trkpt><trkpt lat="41.062717513663834" lon="14.562702443342506"><ele>260.4</ele><time>2026-05-04T13:20:18Z</time></trkpt><trkpt lat="41.062820399281364" lon="14.562635695538354"><ele>260.2</ele><time>2026-05-04T13:20:19Z</time></trkpt><trkpt lat="41.06292783937133" lon="14.562541606840716"><ele>260.0</ele><time>2026-05-04T13:20:20Z</time></trkpt><trkpt lat="41.06302658446796" lon="14.5624825370874"><ele>260.0</ele><time>2026-05-04T13:20:21Z</time></trkpt><trkpt lat="41.06310669134866" lon="14.56243830746426"><ele>260.0</ele><time>2026-05-04T13:20:22Z</time></trkpt><trkpt lat="41.063169237523404" lon="14.562391769979495"><ele>260.0</ele><time>2026-05-04T13:20:23Z</time></trkpt><trkpt lat="41.063244370180286" lon="14.56236320751252"><ele>260.0</ele><time>2026-05-04T13:20:25Z</time></trkpt><trkpt lat="41.06332406198234" lon="14.562301040230416"><ele>260.0</ele><time>2026-05-04T13:20:28Z</time></trkpt><trkpt lat="41.06336260464875" lon="14.56212280608499"><ele>260.1666666666667</ele><time>2026-05-04T13:20:31Z</time></trkpt><trkpt lat="41.063331598169576" lon="14.562030032355926"><ele>260.33333333333337</ele><time>2026-05-04T13:20:32Z</time></trkpt><trkpt lat="41.063298844248386" lon="14.561936523751859"><ele>260.5</ele><time>2026-05-04T13:20:33Z</time></trkpt><trkpt lat="41.06327184716853" lon="14.561860870891927"><ele>260.6666666666667</ele><time>2026-05-04T13:20:34Z</time></trkpt><trkpt lat="41.06323266639154" lon="14.561701718080917"><ele>260.8333333333333</ele><time>2026-05-04T13:20:36Z</time></trkpt><trkpt lat="41.06319107424322" lon="14.561622956057901"><ele>261.0</ele><time>2026-05-04T13:20:37Z</time></trkpt><trkpt lat="41.063160499238926" lon="14.561516663729805"><ele>261.1666666666667</ele><time>2026-05-04T13:20:38Z</time></trkpt><trkpt lat="41.06314114537049" lon="14.561402673234427"><ele>261.3333333333333</ele><time>2026-05-04T13:20:39Z</time></trkpt><trkpt lat="41.06310637495363" lon="14.561295707984732"><ele>261.5</ele><time>2026-05-04T13:20:40Z</time></trkpt><trkpt lat="41.06306911505211" lon="14.561188295734844"><ele>261.66666666666663</ele><time>2026-05-04T13:20:41Z</time></trkpt><trkpt lat="41.063032120330945" lon="14.561086400455132"><ele>261.8333333333333</ele><time>2026-05-04T13:20:42Z</time></trkpt><trkpt lat="41.06299483248192" lon="14.560983697853949"><ele>262.0</ele><time>2026-05-04T13:20:43Z</time></trkpt><trkpt lat="41.062948430482045" lon="14.560859254579547"><ele>262.0</ele><time>2026-05-04T13:20:44Z</time></trkpt><trkpt lat="41.06289224575683" lon="14.560711645673242"><ele>262.0</ele><time>2026-05-04T13:20:45Z</time></trkpt><trkpt lat="41.062829236147095" lon="14.560565460499232"><ele>262.0</ele><time>2026-05-04T13:20:46Z</time></trkpt><trkpt lat="41.06276568905577" lon="14.560415906247181"><ele>262.0</ele><time>2026-05-04T13:20:47Z</time></trkpt><trkpt lat="41.062694210591495" lon="14.56024217146989"><ele>262.3333333333333</ele><time>2026-05-04T13:20:48Z</time></trkpt><trkpt lat="41.06261743548993" lon="14.56005556269181"><ele>262.6666666666667</ele><time>2026-05-04T13:20:49Z</time></trkpt><trkpt lat="41.06253906569453" lon="14.559867331264304"><ele>263.0</ele><time>2026-05-04T13:20:50Z</time></trkpt><trkpt lat="41.06246045486441" lon="14.559716897981064"><ele>263.0</ele><time>2026-05-04T13:20:51Z</time></trkpt><trkpt lat="41.06240509635458" lon="14.55957906811481"><ele>263.0</ele><time>2026-05-04T13:20:52Z</time></trkpt><trkpt lat="41.06235426592127" lon="14.559446480201629"><ele>263.0</ele><time>2026-05-04T13:20:53Z</time></trkpt><trkpt lat="41.06230024723842" lon="14.5593540065928"><ele>263.0</ele><time>2026-05-04T13:20:54Z</time></trkpt><trkpt lat="41.06225680161132" lon="14.55928357804879"><ele>263.0</ele><time>2026-05-04T13:20:55Z</time></trkpt><trkpt lat="41.062216038877516" lon="14.559198895647258"><ele>263.0</ele><time>2026-05-04T13:20:57Z</time></trkpt><trkpt lat="41.06214030421446" lon="14.559067044839392"><ele>263.0</ele><time>2026-05-04T13:21:02Z</time></trkpt><trkpt lat="41.06211021396744" lon="14.558947581508335"><ele>263.0</ele><time>2026-05-04T13:21:03Z</time></trkpt><trkpt lat="41.06208138774399" lon="14.558811141241867"><ele>263.0</ele><time>2026-05-04T13:21:04Z</time></trkpt><trkpt lat="41.062036449768634" lon="14.558667697001864"><ele>263.0</ele><time>2026-05-04T13:21:05Z</time></trkpt><trkpt lat="41.06198917056955" lon="14.558532167843673"><ele>263.1666666666667</ele><time>2026-05-04T13:21:06Z</time></trkpt><trkpt lat="41.06195281712104" lon="14.558411506162978"><ele>263.33333333333337</ele><time>2026-05-04T13:21:07Z</time></trkpt><trkpt lat="41.061925153976425" lon="14.55830685139499"><ele>263.5</ele><time>2026-05-04T13:21:08Z</time></trkpt><trkpt lat="41.06189959014443" lon="14.558208290337856"><ele>263.6666666666667</ele><time>2026-05-04T13:21:09Z</time></trkpt><trkpt lat="41.06187944495309" lon="14.558125181132873"><ele>263.8333333333333</ele><time>2026-05-04T13:21:10Z</time></trkpt><trkpt lat="41.06185546387574" lon="14.558038980555565"><ele>264.0</ele><time>2026-05-04T13:21:11Z</time></trkpt><trkpt lat="41.06182375414724" lon="14.557943380720303"><ele>264.2857142857143</ele><time>2026-05-04T13:21:12Z</time></trkpt><trkpt lat="41.06179459545804" lon="14.557856495621158"><ele>264.57142857142856</ele><time>2026-05-04T13:21:13Z</time></trkpt><trkpt lat="41.06178588616675" lon="14.557764157902211"><ele>264.8571428571429</ele><time>2026-05-04T13:21:14Z</time></trkpt><trkpt lat="41.06176174846595" lon="14.557678004022351"><ele>265.1428571428571</ele><time>2026-05-04T13:21:15Z</time></trkpt><trkpt lat="41.061739479759204" lon="14.557578967517907"><ele>265.42857142857144</ele><time>2026-05-04T13:21:16Z</time></trkpt><trkpt lat="41.06171443183453" lon="14.55749623977198"><ele>265.7142857142857</ele><time>2026-05-04T13:21:17Z</time></trkpt><trkpt lat="41.06169170378113" lon="14.557415248573744"><ele>266.0</ele><time>2026-05-04T13:21:18Z</time></trkpt><trkpt lat="41.06165587530202" lon="14.557285618474923"><ele>266.0</ele><time>2026-05-04T13:21:20Z</time></trkpt><trkpt lat="41.06160428170524" lon="14.557149743034751"><ele>266.0</ele><time>2026-05-04T13:21:22Z</time></trkpt><trkpt lat="41.06156960778364" lon="14.556994860684238"><ele>266.0</ele><time>2026-05-04T13:21:24Z</time></trkpt><trkpt lat="41.061541673571604" lon="14.556913078480278"><ele>266.0</ele><time>2026-05-04T13:21:25Z</time></trkpt><trkpt lat="41.06149652178207" lon="14.556769701593762"><ele>266.0</ele><time>2026-05-04T13:21:27Z</time></trkpt><trkpt lat="41.06146939520977" lon="14.55666196149774"><ele>266.0</ele><time>2026-05-04T13:21:29Z</time></trkpt><trkpt lat="41.06146937147541" lon="14.556569679058942"><ele>266.0</ele><time>2026-05-04T13:21:30Z</time></trkpt><trkpt lat="41.061422160944225" lon="14.556468057496453"><ele>266.0</ele><time>2026-05-04T13:21:32Z</time></trkpt><trkpt lat="41.06139313309014" lon="14.556355852044229"><ele>266.0</ele><time>2026-05-04T13:21:34Z</time></trkpt><trkpt lat="41.0613511403292" lon="14.556240831580661"><ele>266.0</ele><time>2026-05-04T13:21:36Z</time></trkpt><trkpt lat="41.06133936225219" lon="14.556133715192404"><ele>266.0</ele><time>2026-05-04T13:21:39Z</time></trkpt><trkpt lat="41.06128609150964" lon="14.556012326989432"><ele>266.40000000000003</ele><time>2026-05-04T13:21:41Z</time></trkpt><trkpt lat="41.06124331629794" lon="14.55592246304573"><ele>266.8</ele><time>2026-05-04T13:21:42Z</time></trkpt><trkpt lat="41.061193807145045" lon="14.555823397824598"><ele>267.20000000000005</ele><time>2026-05-04T13:21:43Z</time></trkpt><trkpt lat="41.06114038625066" lon="14.555723086887554"><ele>267.6</ele><time>2026-05-04T13:21:44Z</time></trkpt><trkpt lat="41.061074245664265" lon="14.555622632868413"><ele>268.0</ele><time>2026-05-04T13:21:45Z</time></trkpt><trkpt lat="41.061014654273535" lon="14.55552650005452"><ele>268.0</ele><time>2026-05-04T13:21:46Z</time></trkpt><trkpt lat="41.06095441172408" lon="14.555424366885765"><ele>268.0</ele><time>2026-05-04T13:21:47Z</time></trkpt><trkpt lat="41.060902649244305" lon="14.555308481669076"><ele>268.0</ele><time>2026-05-04T13:21:48Z</time></trkpt><trkpt lat="41.060865039961186" lon="14.555204265120251"><ele>268.0</ele><time>2026-05-04T13:21:49Z</time></trkpt><trkpt lat="41.06081169855503" lon="14.555099300006932"><ele>268.0</ele><time>2026-05-04T13:21:50Z</time></trkpt><trkpt lat="41.06079876701329" lon="14.554973092198889"><ele>268.4</ele><time>2026-05-04T13:21:51Z</time></trkpt><trkpt lat="41.06076543710597" lon="14.554856071653562"><ele>268.8</ele><time>2026-05-04T13:21:52Z</time></trkpt><trkpt lat="41.06076953014188" lon="14.554720964171876"><ele>269.2</ele><time>2026-05-04T13:21:53Z</time></trkpt><trkpt lat="41.06078478262035" lon="14.554601063330576"><ele>269.6</ele><time>2026-05-04T13:21:54Z</time></trkpt><trkpt lat="41.06079322544999" lon="14.554504708142224"><ele>270.0</ele><time>2026-05-04T13:21:55Z</time></trkpt><trkpt lat="41.060759576015315" lon="14.554330178093345"><ele>270.3333333333333</ele><time>2026-05-04T13:21:57Z</time></trkpt><trkpt lat="41.06072585506277" lon="14.554247608491309"><ele>270.6666666666667</ele><time>2026-05-04T13:21:58Z</time></trkpt><trkpt lat="41.06069674478105" lon="14.554147049603788"><ele>271.0</ele><time>2026-05-04T13:21:59Z</time></trkpt><trkpt lat="41.060614841316095" lon="14.55407412278497"><ele>271.33333333333337</ele><time>2026-05-04T13:22:01Z</time></trkpt><trkpt lat="41.060544182934336" lon="14.554068422053565"><ele>271.6666666666667</ele><time>2026-05-04T13:22:02Z</time></trkpt><trkpt lat="41.060471999109325" lon="14.554070291275062"><ele>272.0</ele><time>2026-05-04T13:22:03Z</time></trkpt><trkpt lat="41.06037342582423" lon="14.554059132437434"><ele>272.0</ele><time>2026-05-04T13:22:05Z</time></trkpt><trkpt lat="41.060299270578" lon="14.554099626923009"><ele>272.0</ele><time>2026-05-04T13:22:06Z</time></trkpt><trkpt lat="41.06016700645207" lon="14.55418221610963"><ele>272.0</ele><time>2026-05-04T13:22:07Z</time></trkpt><trkpt lat="41.060098617719035" lon="14.554230780156448"><ele>272.0</ele><time>2026-05-04T13:22:08Z</time></trkpt><trkpt lat="41.060032674507354" lon="14.554270012893632"><ele>272.0</ele><time>2026-05-04T13:22:09Z</time></trkpt><trkpt lat="41.05999149084347" lon="14.554204743474275"><ele>272.0</ele><time>2026-05-04T13:22:11Z</time></trkpt><trkpt lat="41.05995325140529" lon="14.554127531729355"><ele>271.5</ele><time>2026-05-04T13:22:12Z</time></trkpt><trkpt lat="41.059922233169985" lon="14.553952258251968"><ele>271.0</ele><time>2026-05-04T13:22:13Z</time></trkpt><trkpt lat="41.05988636287104" lon="14.553773184012925"><ele>270.5</ele><time>2026-05-04T13:22:14Z</time></trkpt><trkpt lat="41.05983011150736" lon="14.553601282315508"><ele>270.0</ele><time>2026-05-04T13:22:15Z</time></trkpt><trkpt lat="41.05980615354376" lon="14.553471182245724"><ele>270.0</ele><time>2026-05-04T13:22:16Z</time></trkpt><trkpt lat="41.059780665723025" lon="14.553355090234758"><ele>270.0</ele><time>2026-05-04T13:22:17Z</time></trkpt><trkpt lat="41.05976266238122" lon="14.553249064203346"><ele>270.0</ele><time>2026-05-04T13:22:18Z</time></trkpt><trkpt lat="41.05975879511765" lon="14.553160408194843"><ele>270.0</ele><time>2026-05-04T13:22:19Z</time></trkpt><trkpt lat="41.05979690897492" lon="14.55307453883857"><ele>270.0</ele><time>2026-05-04T13:22:20Z</time></trkpt><trkpt lat="41.059851538324665" lon="14.552942256453273"><ele>270.0</ele><time>2026-05-04T13:22:21Z</time></trkpt><trkpt lat="41.05988129661115" lon="14.552820775023097"><ele>270.4</ele><time>2026-05-04T13:22:22Z</time></trkpt><trkpt lat="41.0598773839062" lon="14.552718531529685"><ele>270.8</ele><time>2026-05-04T13:22:23Z</time></trkpt><trkpt lat="41.059879979940774" lon="14.552607264044523"><ele>271.2</ele><time>2026-05-04T13:22:24Z</time></trkpt><trkpt lat="41.05985112248112" lon="14.552480316810293"><ele>271.6</ele><time>2026-05-04T13:22:25Z</time></trkpt><trkpt lat="41.05978894150045" lon="14.552337178978934"><ele>272.0</ele><time>2026-05-04T13:22:26Z</time></trkpt><trkpt lat="41.059710291785535" lon="14.552213589478772"><ele>272.0</ele><time>2026-05-04T13:22:27Z</time></trkpt><trkpt lat="41.05965425018513" lon="14.55212371082046"><ele>272.0</ele><time>2026-05-04T13:22:28Z</time></trkpt><trkpt lat="41.05959313180231" lon="14.552030482718552"><ele>272.0</ele><time>2026-05-04T13:22:30Z</time></trkpt><trkpt lat="41.05968448319624" lon="14.55203715822595"><ele>272.0</ele><time>2026-05-04T13:22:33Z</time></trkpt><trkpt lat="41.059746995935015" lon="14.55200086328196"><ele>272.0</ele><time>2026-05-04T13:22:34Z</time></trkpt><trkpt lat="41.059823746761424" lon="14.551965862058108"><ele>272.0</ele><time>2026-05-04T13:22:35Z</time></trkpt><trkpt lat="41.059928000978715" lon="14.551920671969125"><ele>273.2</ele><time>2026-05-04T13:22:36Z</time></trkpt><trkpt lat="41.060066680530404" lon="14.551853522944807"><ele>274.4</ele><time>2026-05-04T13:22:37Z</time></trkpt><trkpt lat="41.06017904665418" lon="14.551815710088697"><ele>275.6</ele><time>2026-05-04T13:22:38Z</time></trkpt><trkpt lat="41.060255325734545" lon="14.551773548442162"><ele>276.8</ele><time>2026-05-04T13:22:39Z</time></trkpt><trkpt lat="41.0603206571943" lon="14.551740407870305"><ele>278.0</ele><time>2026-05-04T13:22:40Z</time></trkpt><trkpt lat="41.06040230255911" lon="14.551726037706732"><ele>278.0</ele><time>2026-05-04T13:22:42Z</time></trkpt><trkpt lat="41.060394858966596" lon="14.551811735752441"><ele>278.0</ele><time>2026-05-04T13:22:43Z</time></trkpt><trkpt lat="41.060429378149884" lon="14.551907108982517"><ele>278.0</ele><time>2026-05-04T13:22:44Z</time></trkpt><trkpt lat="41.06046917330792" lon="14.552064870232748"><ele>278.0</ele><time>2026-05-04T13:22:45Z</time></trkpt><trkpt lat="41.060462818619804" lon="14.552232978535267"><ele>278.0</ele><time>2026-05-04T13:22:46Z</time></trkpt><trkpt lat="41.06045466037605" lon="14.552426386888854"><ele>277.0</ele><time>2026-05-04T13:22:47Z</time></trkpt><trkpt lat="41.060463473628204" lon="14.5525882394841"><ele>276.0</ele><time>2026-05-04T13:22:48Z</time></trkpt><trkpt lat="41.06048935044061" lon="14.552743266967823"><ele>275.0</ele><time>2026-05-04T13:22:49Z</time></trkpt><trkpt lat="41.06047381616287" lon="14.552902398544742"><ele>274.0</ele><time>2026-05-04T13:22:50Z</time></trkpt><trkpt lat="41.060498325542845" lon="14.55308161744309"><ele>273.5</ele><time>2026-05-04T13:22:51Z</time></trkpt><trkpt lat="41.06050623425462" lon="14.553269545671355"><ele>273.0</ele><time>2026-05-04T13:22:52Z</time></trkpt><trkpt lat="41.06050893436292" lon="14.553429794327839"><ele>272.5</ele><time>2026-05-04T13:22:53Z</time></trkpt><trkpt lat="41.060513921630715" lon="14.55357472658807"><ele>272.0</ele><time>2026-05-04T13:22:54Z</time></trkpt><trkpt lat="41.06052729819966" lon="14.553684178328565"><ele>272.0</ele><time>2026-05-04T13:22:55Z</time></trkpt><trkpt lat="41.06054145575312" lon="14.553793221653434"><ele>272.0</ele><time>2026-05-04T13:22:56Z</time></trkpt><trkpt lat="41.06055966051422" lon="14.553898590361264"><ele>272.0</ele><time>2026-05-04T13:22:57Z</time></trkpt><trkpt lat="41.06055535246177" lon="14.553987703354816"><ele>272.0</ele><time>2026-05-04T13:22:58Z</time></trkpt><trkpt lat="41.060618679839614" lon="14.554017569854144"><ele>272.0</ele><time>2026-05-04T13:23:00Z</time></trkpt><trkpt lat="41.06068917902096" lon="14.553908123350807"><ele>272.0</ele><time>2026-05-04T13:23:02Z</time></trkpt><trkpt lat="41.06075988944205" lon="14.55381766990071"><ele>272.5</ele><time>2026-05-04T13:23:03Z</time></trkpt><trkpt lat="41.06084278342241" lon="14.553688782481597"><ele>273.0</ele><time>2026-05-04T13:23:04Z</time></trkpt><trkpt lat="41.060946350771616" lon="14.553568966266708"><ele>273.5</ele><time>2026-05-04T13:23:05Z</time></trkpt><trkpt lat="41.06105423330303" lon="14.553438316784018"><ele>274.0</ele><time>2026-05-04T13:23:06Z</time></trkpt><trkpt lat="41.06115064739159" lon="14.553307115877052"><ele>274.0</ele><time>2026-05-04T13:23:07Z</time></trkpt><trkpt lat="41.061250175249185" lon="14.553175423779287"><ele>274.0</ele><time>2026-05-04T13:23:08Z</time></trkpt><trkpt lat="41.061349898938836" lon="14.55302192792206"><ele>274.0</ele><time>2026-05-04T13:23:09Z</time></trkpt><trkpt lat="41.061444283941434" lon="14.552890471788883"><ele>274.0</ele><time>2026-05-04T13:23:10Z</time></trkpt><trkpt lat="41.06151826712402" lon="14.552778291029169"><ele>274.0</ele><time>2026-05-04T13:23:11Z</time></trkpt><trkpt lat="41.061587250008444" lon="14.552701569604773"><ele>274.0</ele><time>2026-05-04T13:23:12Z</time></trkpt><trkpt lat="41.061641533424975" lon="14.552604771530646"><ele>274.0</ele><time>2026-05-04T13:23:13Z</time></trkpt><trkpt lat="41.061691576546345" lon="14.552550990776748"><ele>274.0</ele><time>2026-05-04T13:23:14Z</time></trkpt><trkpt lat="41.06181775247141" lon="14.55265175838627"><ele>274.0</ele><time>2026-05-04T13:23:18Z</time></trkpt><trkpt lat="41.06187660691916" lon="14.5527505171728"><ele>274.0</ele><time>2026-05-04T13:23:19Z</time></trkpt><trkpt lat="41.061989065973314" lon="14.552938547089092"><ele>274.0</ele><time>2026-05-04T13:23:20Z</time></trkpt><trkpt lat="41.062094763416766" lon="14.55312093717952"><ele>274.0</ele><time>2026-05-04T13:23:21Z</time></trkpt><trkpt lat="41.06213900871321" lon="14.553218814528853"><ele>274.0</ele><time>2026-05-04T13:23:22Z</time></trkpt><trkpt lat="41.06220301958932" lon="14.553346920834802"><ele>274.0</ele><time>2026-05-04T13:23:24Z</time></trkpt><trkpt lat="41.06205996311275" lon="14.553542291319575"><ele>274.0</ele><time>2026-05-04T13:23:27Z</time></trkpt><trkpt lat="41.06198183276534" lon="14.553621512059445"><ele>274.0</ele><time>2026-05-04T13:23:28Z</time></trkpt><trkpt lat="41.06191212642791" lon="14.55370985468661"><ele>274.0</ele><time>2026-05-04T13:23:29Z</time></trkpt><trkpt lat="41.06189428549695" lon="14.553866163826319"><ele>273.25</ele><time>2026-05-04T13:23:30Z</time></trkpt><trkpt lat="41.061898297316965" lon="14.554025135840174"><ele>272.5</ele><time>2026-05-04T13:23:31Z</time></trkpt><trkpt lat="41.06191606497023" lon="14.55420727284633"><ele>271.75</ele><time>2026-05-04T13:23:32Z</time></trkpt><trkpt lat="41.061928427101066" lon="14.554379647753937"><ele>271.0</ele><time>2026-05-04T13:23:33Z</time></trkpt><trkpt lat="41.06194912679193" lon="14.554531573802178"><ele>270.8333333333333</ele><time>2026-05-04T13:23:34Z</time></trkpt><trkpt lat="41.06200066918204" lon="14.55462382013284"><ele>270.66666666666663</ele><time>2026-05-04T13:23:35Z</time></trkpt><trkpt lat="41.0620397937677" lon="14.554752822028377"><ele>270.5</ele><time>2026-05-04T13:23:36Z</time></trkpt><trkpt lat="41.062085014370815" lon="14.554864897120726"><ele>270.3333333333333</ele><time>2026-05-04T13:23:37Z</time></trkpt><trkpt lat="41.06212050688935" lon="14.554942875085844"><ele>270.1666666666667</ele><time>2026-05-04T13:23:38Z</time></trkpt><trkpt lat="41.0621880130329" lon="14.555026159732185"><ele>270.0</ele><time>2026-05-04T13:23:40Z</time></trkpt><trkpt lat="41.0622600946302" lon="14.555120675029853"><ele>270.0</ele><time>2026-05-04T13:23:42Z</time></trkpt><trkpt lat="41.0622987235788" lon="14.555222899442231"><ele>270.0</ele><time>2026-05-04T13:23:43Z</time></trkpt><trkpt lat="41.06234934195074" lon="14.555323006302714"><ele>270.0</ele><time>2026-05-04T13:23:44Z</time></trkpt><trkpt lat="41.06240946986769" lon="14.555440807942908"><ele>270.0</ele><time>2026-05-04T13:23:45Z</time></trkpt><trkpt lat="41.06247272490988" lon="14.555563400683617"><ele>270.0</ele><time>2026-05-04T13:23:46Z</time></trkpt><trkpt lat="41.06252611788371" lon="14.555664248702056"><ele>269.75</ele><time>2026-05-04T13:23:47Z</time></trkpt><trkpt lat="41.062605976309605" lon="14.555774985877783"><ele>269.5</ele><time>2026-05-04T13:23:48Z</time></trkpt><trkpt lat="41.06267606277039" lon="14.55596073765997"><ele>269.25</ele><time>2026-05-04T13:23:49Z</time></trkpt><trkpt lat="41.062759781771064" lon="14.556130829812869"><ele>269.0</ele><time>2026-05-04T13:23:50Z</time></trkpt><trkpt lat="41.062852299344264" lon="14.556303526410563"><ele>268.33333333333337</ele><time>2026-05-04T13:23:51Z</time></trkpt><trkpt lat="41.06294742772075" lon="14.556475378315975"><ele>267.6666666666667</ele><time>2026-05-04T13:23:52Z</time></trkpt><trkpt lat="41.063039104696635" lon="14.556650182203859"><ele>267.0</ele><time>2026-05-04T13:23:53Z</time></trkpt><trkpt lat="41.063124954436866" lon="14.55679739098362"><ele>267.0</ele><time>2026-05-04T13:23:54Z</time></trkpt><trkpt lat="41.06320509652571" lon="14.556939959175377"><ele>267.0</ele><time>2026-05-04T13:23:55Z</time></trkpt><trkpt lat="41.06328301097181" lon="14.55709802821532"><ele>267.0</ele><time>2026-05-04T13:23:56Z</time></trkpt><trkpt lat="41.06334864678642" lon="14.557235542971133"><ele>267.0</ele><time>2026-05-04T13:23:57Z</time></trkpt><trkpt lat="41.06341725535264" lon="14.557366408698096"><ele>267.0</ele><time>2026-05-04T13:23:58Z</time></trkpt><trkpt lat="41.06348756904587" lon="14.557470536771701"><ele>267.0</ele><time>2026-05-04T13:23:59Z</time></trkpt><trkpt lat="41.0635583609596" lon="14.557584416201841"><ele>267.0</ele><time>2026-05-04T13:24:00Z</time></trkpt><trkpt lat="41.06362625394151" lon="14.557725588631257"><ele>267.0</ele><time>2026-05-04T13:24:01Z</time></trkpt><trkpt lat="41.06368535554193" lon="14.55786132553111"><ele>266.6</ele><time>2026-05-04T13:24:02Z</time></trkpt><trkpt lat="41.06372567596604" lon="14.55796788624072"><ele>266.2</ele><time>2026-05-04T13:24:03Z</time></trkpt><trkpt lat="41.06376998522333" lon="14.558042841347325"><ele>265.8</ele><time>2026-05-04T13:24:05Z</time></trkpt><trkpt lat="41.06384714096753" lon="14.558133793786652"><ele>265.4</ele><time>2026-05-04T13:24:12Z</time></trkpt><trkpt lat="41.06394874061124" lon="14.558033761714903"><ele>265.0</ele><time>2026-05-04T13:24:13Z</time></trkpt><trkpt lat="41.064047587433734" lon="14.557993173200611"><ele>265.25</ele><time>2026-05-04T13:24:14Z</time></trkpt><trkpt lat="41.06415403598249" lon="14.55795405329444"><ele>265.5</ele><time>2026-05-04T13:24:15Z</time></trkpt><trkpt lat="41.06426535903284" lon="14.557954042905322"><ele>265.75</ele><time>2026-05-04T13:24:16Z</time></trkpt><trkpt lat="41.0643760187822" lon="14.558007817942002"><ele>266.0</ele><time>2026-05-04T13:24:17Z</time></trkpt><trkpt lat="41.0645312269848" lon="14.558069120794103"><ele>266.0</ele><time>2026-05-04T13:24:18Z</time></trkpt><trkpt lat="41.06468557077863" lon="14.55816034381295"><ele>266.0</ele><time>2026-05-04T13:24:19Z</time></trkpt><trkpt lat="41.064815287266214" lon="14.55821017267617"><ele>266.0</ele><time>2026-05-04T13:24:20Z</time></trkpt><trkpt lat="41.064939784335046" lon="14.558211224391227"><ele>266.0</ele><time>2026-05-04T13:24:21Z</time></trkpt><trkpt lat="41.065059431807875" lon="14.55815723509758"><ele>266.6666666666667</ele><time>2026-05-04T13:24:22Z</time></trkpt><trkpt lat="41.06518873999647" lon="14.558100133021233"><ele>267.3333333333333</ele><time>2026-05-04T13:24:23Z</time></trkpt><trkpt lat="41.06535440528021" lon="14.55801718993085"><ele>268.0</ele><time>2026-05-04T13:24:23.999Z</time></trkpt><trkpt lat="41.0655185453317" lon="14.557954882794274"><ele>268.0</ele><time>2026-05-04T13:24:24.999Z</time></trkpt><trkpt lat="41.06567196157986" lon="14.557892909806478"><ele>268.0</ele><time>2026-05-04T13:24:25.999Z</time></trkpt><trkpt lat="41.06583603601679" lon="14.557810563575256"><ele>268.0</ele><time>2026-05-04T13:24:26.999Z</time></trkpt><trkpt lat="41.06599497193515" lon="14.557703485424588"><ele>268.0</ele><time>2026-05-04T13:24:28Z</time></trkpt><trkpt lat="41.06614953328325" lon="14.557549288589879"><ele>268.0</ele><time>2026-05-04T13:24:29Z</time></trkpt><trkpt lat="41.066311958174914" lon="14.557378435724345"><ele>268.0</ele><time>2026-05-04T13:24:30Z</time></trkpt><trkpt lat="41.066491351486164" lon="14.557195991076643"><ele>267.0</ele><time>2026-05-04T13:24:31Z</time></trkpt><trkpt lat="41.06668160157013" lon="14.557040010258168"><ele>266.0</ele><time>2026-05-04T13:24:32Z</time></trkpt><trkpt lat="41.066844734655504" lon="14.556904520780654"><ele>265.0</ele><time>2026-05-04T13:24:33Z</time></trkpt><trkpt lat="41.06700018571731" lon="14.556780725004547"><ele>265.0</ele><time>2026-05-04T13:24:34Z</time></trkpt><trkpt lat="41.06714798504984" lon="14.556666627461762"><ele>265.0</ele><time>2026-05-04T13:24:35Z</time></trkpt><trkpt lat="41.067285022440544" lon="14.556560502000194"><ele>265.0</ele><time>2026-05-04T13:24:36Z</time></trkpt><trkpt lat="41.06740496211156" lon="14.55646683516433"><ele>264.5</ele><time>2026-05-04T13:24:37Z</time></trkpt><trkpt lat="41.067498643692645" lon="14.556392756136857"><ele>264.0</ele><time>2026-05-04T13:24:38Z</time></trkpt><trkpt lat="41.06759180594761" lon="14.556318102981997"><ele>263.5</ele><time>2026-05-04T13:24:39Z</time></trkpt><trkpt lat="41.06768804681267" lon="14.556242599719312"><ele>263.0</ele><time>2026-05-04T13:24:40Z</time></trkpt><trkpt lat="41.067791140486854" lon="14.556160004905129"><ele>263.0</ele><time>2026-05-04T13:24:41Z</time></trkpt><trkpt lat="41.06791465410395" lon="14.55605906480417"><ele>263.0</ele><time>2026-05-04T13:24:42Z</time></trkpt><trkpt lat="41.0680321535612" lon="14.555960356122457"><ele>263.0</ele><time>2026-05-04T13:24:43Z</time></trkpt><trkpt lat="41.06815234014021" lon="14.555858789312664"><ele>263.0</ele><time>2026-05-04T13:24:44Z</time></trkpt><trkpt lat="41.068268363004215" lon="14.555752781882335"><ele>262.75</ele><time>2026-05-04T13:24:45Z</time></trkpt><trkpt lat="41.06836949933204" lon="14.555630563076653"><ele>262.5</ele><time>2026-05-04T13:24:46Z</time></trkpt><trkpt lat="41.06846636155703" lon="14.55550778932968"><ele>262.25</ele><time>2026-05-04T13:24:47Z</time></trkpt><trkpt lat="41.06857451255155" lon="14.555380214961724"><ele>262.0</ele><time>2026-05-04T13:24:48Z</time></trkpt><trkpt lat="41.068685394817464" lon="14.555241386062308"><ele>262.0</ele><time>2026-05-04T13:24:49Z</time></trkpt><trkpt lat="41.068821482235975" lon="14.555070050374821"><ele>262.0</ele><time>2026-05-04T13:24:50Z</time></trkpt><trkpt lat="41.06896361841137" lon="14.554883608423646"><ele>262.0</ele><time>2026-05-04T13:24:51Z</time></trkpt><trkpt lat="41.06913150069696" lon="14.5546601492486"><ele>262.0</ele><time>2026-05-04T13:24:52Z</time></trkpt><trkpt lat="41.06930867392696" lon="14.554425143116854"><ele>262.0</ele><time>2026-05-04T13:24:53Z</time></trkpt><trkpt lat="41.06949353375979" lon="14.55417997853789"><ele>262.0</ele><time>2026-05-04T13:24:54Z</time></trkpt><trkpt lat="41.069685022418035" lon="14.55392602261677"><ele>262.0</ele><time>2026-05-04T13:24:55Z</time></trkpt><trkpt lat="41.06988852709251" lon="14.553658388599995"><ele>262.5</ele><time>2026-05-04T13:24:56Z</time></trkpt><trkpt lat="41.0700845505613" lon="14.553401097467628"><ele>263.0</ele><time>2026-05-04T13:24:57Z</time></trkpt><trkpt lat="41.07025472773435" lon="14.55317527662859"><ele>263.0</ele><time>2026-05-04T13:24:58Z</time></trkpt><trkpt lat="41.07041229477645" lon="14.552965813320695"><ele>263.0</ele><time>2026-05-04T13:24:59Z</time></trkpt><trkpt lat="41.07056564646984" lon="14.552761891413457"><ele>263.0</ele><time>2026-05-04T13:25:00Z</time></trkpt><trkpt lat="41.070724845515166" lon="14.552547332265195"><ele>263.33333333333337</ele><time>2026-05-04T13:25:01Z</time></trkpt><trkpt lat="41.07086215052145" lon="14.552362927753842"><ele>263.6666666666667</ele><time>2026-05-04T13:25:02Z</time></trkpt><trkpt lat="41.07100344852564" lon="14.552171106341145"><ele>264.0</ele><time>2026-05-04T13:25:03Z</time></trkpt><trkpt lat="41.071138537260694" lon="14.551980966543526"><ele>264.0</ele><time>2026-05-04T13:25:04Z</time></trkpt><trkpt lat="41.07128469665374" lon="14.551773312582034"><ele>264.0</ele><time>2026-05-04T13:25:05Z</time></trkpt><trkpt lat="41.071409781691955" lon="14.551586180170183"><ele>264.0</ele><time>2026-05-04T13:25:06Z</time></trkpt><trkpt lat="41.07152706265282" lon="14.551403525133733"><ele>263.6666666666667</ele><time>2026-05-04T13:25:07Z</time></trkpt><trkpt lat="41.07163797523988" lon="14.551223071866753"><ele>263.33333333333337</ele><time>2026-05-04T13:25:08Z</time></trkpt><trkpt lat="41.071743775901865" lon="14.551036579518255"><ele>263.0</ele><time>2026-05-04T13:25:09Z</time></trkpt><trkpt lat="41.07186265055171" lon="14.550820843140121"><ele>263.0</ele><time>2026-05-04T13:25:10Z</time></trkpt><trkpt lat="41.07199420272752" lon="14.550578790785078"><ele>263.0</ele><time>2026-05-04T13:25:11Z</time></trkpt><trkpt lat="41.07213316710143" lon="14.550317970951195"><ele>264.5</ele><time>2026-05-04T13:25:12Z</time></trkpt><trkpt lat="41.072262481778786" lon="14.5500677197975"><ele>266.0</ele><time>2026-05-04T13:25:13Z</time></trkpt><trkpt lat="41.07239758234561" lon="14.549805403917869"><ele>265.5</ele><time>2026-05-04T13:25:14Z</time></trkpt><trkpt lat="41.072534398668175" lon="14.549539000839275"><ele>265.0</ele><time>2026-05-04T13:25:15Z</time></trkpt><trkpt lat="41.072669836329844" lon="14.549274129705225"><ele>265.0</ele><time>2026-05-04T13:25:16Z</time></trkpt><trkpt lat="41.07280100218582" lon="14.549019105439095"><ele>265.0</ele><time>2026-05-04T13:25:17Z</time></trkpt><trkpt lat="41.07293042379562" lon="14.54877120634872"><ele>265.66666666666663</ele><time>2026-05-04T13:25:18Z</time></trkpt><trkpt lat="41.07304778814648" lon="14.548543269783606"><ele>266.3333333333333</ele><time>2026-05-04T13:25:19Z</time></trkpt><trkpt lat="41.07313890727647" lon="14.548325841558128"><ele>267.0</ele><time>2026-05-04T13:25:20Z</time></trkpt><trkpt lat="41.0732578124714" lon="14.548143204018325"><ele>267.0</ele><time>2026-05-04T13:25:21Z</time></trkpt><trkpt lat="41.073364874900825" lon="14.547967807427847"><ele>267.0</ele><time>2026-05-04T13:25:22Z</time></trkpt><trkpt lat="41.07346808772788" lon="14.547828304080252"><ele>267.0</ele><time>2026-05-04T13:25:23Z</time></trkpt><trkpt lat="41.07354829250197" lon="14.547700664147479"><ele>267.0</ele><time>2026-05-04T13:25:24Z</time></trkpt><trkpt lat="41.07364148197711" lon="14.547621771525275"><ele>267.0</ele><time>2026-05-04T13:25:25Z</time></trkpt><trkpt lat="41.073741221576206" lon="14.54755157915518"><ele>267.0</ele><time>2026-05-04T13:25:26Z</time></trkpt><trkpt lat="41.07387144249412" lon="14.547465216787195"><ele>267.0</ele><time>2026-05-04T13:25:27Z</time></trkpt><trkpt lat="41.074024401435885" lon="14.547343291694482"><ele>267.0</ele><time>2026-05-04T13:25:28Z</time></trkpt><trkpt lat="41.07421117485007" lon="14.547226270210555"><ele>266.6666666666667</ele><time>2026-05-04T13:25:29Z</time></trkpt><trkpt lat="41.074383554745886" lon="14.547088208781966"><ele>266.33333333333337</ele><time>2026-05-04T13:25:30Z</time></trkpt><trkpt lat="41.07453942633977" lon="14.54696192342477"><ele>266.0</ele><time>2026-05-04T13:25:31Z</time></trkpt><trkpt lat="41.07468586735979" lon="14.54684535629688"><ele>266.0</ele><time>2026-05-04T13:25:32Z</time></trkpt><trkpt lat="41.07483552885242" lon="14.546725833750196"><ele>266.0</ele><time>2026-05-04T13:25:33Z</time></trkpt><trkpt lat="41.074991591374506" lon="14.546601170086463"><ele>266.0</ele><time>2026-05-04T13:25:34Z</time></trkpt><trkpt lat="41.07513621958869" lon="14.546455723798305"><ele>266.0</ele><time>2026-05-04T13:25:35Z</time></trkpt><trkpt lat="41.075291837951696" lon="14.54632457241685"><ele>266.0</ele><time>2026-05-04T13:25:36Z</time></trkpt><trkpt lat="41.075470136792596" lon="14.54617022028824"><ele>266.0</ele><time>2026-05-04T13:25:37Z</time></trkpt><trkpt lat="41.07566840966311" lon="14.54601415352715"><ele>266.33333333333337</ele><time>2026-05-04T13:25:38Z</time></trkpt><trkpt lat="41.07584008023323" lon="14.545882061333836"><ele>266.6666666666667</ele><time>2026-05-04T13:25:39Z</time></trkpt><trkpt lat="41.076022820939556" lon="14.545781990958329"><ele>267.0</ele><time>2026-05-04T13:25:40Z</time></trkpt><trkpt lat="41.076152776322026" lon="14.545678881541397"><ele>267.0</ele><time>2026-05-04T13:25:41Z</time></trkpt><trkpt lat="41.0762365319997" lon="14.545563962706243"><ele>267.0</ele><time>2026-05-04T13:25:42Z</time></trkpt><trkpt lat="41.07632539326064" lon="14.545505929936144"><ele>267.0</ele><time>2026-05-04T13:25:43Z</time></trkpt><trkpt lat="41.0763896584618" lon="14.545469140218298"><ele>267.0</ele><time>2026-05-04T13:25:44Z</time></trkpt><trkpt lat="41.076405635578105" lon="14.545381183066775"><ele>267.0</ele><time>2026-05-04T13:25:45Z</time></trkpt><trkpt lat="41.07640623428568" lon="14.545261175195202"><ele>267.0</ele><time>2026-05-04T13:25:46Z</time></trkpt><trkpt lat="41.07640208560242" lon="14.545125386640548"><ele>267.0</ele><time>2026-05-04T13:25:47Z</time></trkpt><trkpt lat="41.076424066921646" lon="14.545005315422559"><ele>267.0</ele><time>2026-05-04T13:25:48Z</time></trkpt><trkpt lat="41.076481669865075" lon="14.544897069717754"><ele>267.0</ele><time>2026-05-04T13:25:49Z</time></trkpt><trkpt lat="41.07651805264025" lon="14.544775381615038"><ele>267.0</ele><time>2026-05-04T13:25:50Z</time></trkpt><trkpt lat="41.07655718211842" lon="14.544646579362773"><ele>267.0</ele><time>2026-05-04T13:25:51Z</time></trkpt><trkpt lat="41.076580074578565" lon="14.54451416403235"><ele>267.2</ele><time>2026-05-04T13:25:52Z</time></trkpt><trkpt lat="41.07662640005762" lon="14.544401615805874"><ele>267.4</ele><time>2026-05-04T13:25:53Z</time></trkpt><trkpt lat="41.07665522223924" lon="14.544275061771849"><ele>267.6</ele><time>2026-05-04T13:25:54Z</time></trkpt><trkpt lat="41.076693814303106" lon="14.544148697423793"><ele>267.8</ele><time>2026-05-04T13:25:55Z</time></trkpt><trkpt lat="41.07673514961429" lon="14.54402355423018"><ele>268.0</ele><time>2026-05-04T13:25:56Z</time></trkpt><trkpt lat="41.07677513953272" lon="14.543899178788202"><ele>268.0</ele><time>2026-05-04T13:25:57Z</time></trkpt><trkpt lat="41.07682588150115" lon="14.543782046666047"><ele>268.0</ele><time>2026-05-04T13:25:58Z</time></trkpt><trkpt lat="41.07686207903148" lon="14.543666949733707"><ele>268.0</ele><time>2026-05-04T13:25:59Z</time></trkpt><trkpt lat="41.07689697031088" lon="14.543548897587744"><ele>268.0</ele><time>2026-05-04T13:26:00Z</time></trkpt><trkpt lat="41.07692194803109" lon="14.543438218866507"><ele>268.0</ele><time>2026-05-04T13:26:01Z</time></trkpt><trkpt lat="41.07695559764374" lon="14.543329318925949"><ele>268.4</ele><time>2026-05-04T13:26:02Z</time></trkpt><trkpt lat="41.07699451236118" lon="14.543224798564555"><ele>268.8</ele><time>2026-05-04T13:26:03Z</time></trkpt><trkpt lat="41.07702243794456" lon="14.543136006115871"><ele>269.2</ele><time>2026-05-04T13:26:04Z</time></trkpt><trkpt lat="41.07706745909425" lon="14.542990182940155"><ele>269.6</ele><time>2026-05-04T13:26:06Z</time></trkpt><trkpt lat="41.07710818648632" lon="14.542873152119302"><ele>270.0</ele><time>2026-05-04T13:26:08Z</time></trkpt><trkpt lat="41.07719722244922" lon="14.542688939168025"><ele>270.1666666666667</ele><time>2026-05-04T13:26:14Z</time></trkpt><trkpt lat="41.07725931556782" lon="14.542625490308389"><ele>270.3333333333333</ele><time>2026-05-04T13:26:15Z</time></trkpt><trkpt lat="41.077327015878204" lon="14.542554732735942"><ele>270.5</ele><time>2026-05-04T13:26:16Z</time></trkpt><trkpt lat="41.077401102279296" lon="14.542476086432984"><ele>270.66666666666663</ele><time>2026-05-04T13:26:17Z</time></trkpt><trkpt lat="41.07746642047071" lon="14.542398405365557"><ele>270.8333333333333</ele><time>2026-05-04T13:26:18Z</time></trkpt><trkpt lat="41.07752388389257" lon="14.542316745124934"><ele>271.0</ele><time>2026-05-04T13:26:19Z</time></trkpt><trkpt lat="41.077574670521635" lon="14.542233533519848"><ele>271.2</ele><time>2026-05-04T13:26:20Z</time></trkpt><trkpt lat="41.07762685639314" lon="14.542130588045936"><ele>271.40000000000003</ele><time>2026-05-04T13:26:21Z</time></trkpt><trkpt lat="41.07768270359917" lon="14.542012381458878"><ele>271.6</ele><time>2026-05-04T13:26:22Z</time></trkpt><trkpt lat="41.077723277947015" lon="14.541883930580456"><ele>271.8</ele><time>2026-05-04T13:26:23Z</time></trkpt><trkpt lat="41.07777956913318" lon="14.54177279361466"><ele>272.0</ele><time>2026-05-04T13:26:24Z</time></trkpt><trkpt lat="41.0778195537524" lon="14.541670736363212"><ele>272.2</ele><time>2026-05-04T13:26:25Z</time></trkpt><trkpt lat="41.07786383954764" lon="14.541557700645043"><ele>272.4</ele><time>2026-05-04T13:26:27Z</time></trkpt><trkpt lat="41.077771084871564" lon="14.54144968471109"><ele>272.6</ele><time>2026-05-04T13:26:31Z</time></trkpt><trkpt lat="41.07769475133968" lon="14.541394755202404"><ele>272.8</ele><time>2026-05-04T13:26:31.999Z</time></trkpt><trkpt lat="41.07761525581737" lon="14.541321797652689"><ele>273.0</ele><time>2026-05-04T13:26:32.999Z</time></trkpt><trkpt lat="41.07754608321538" lon="14.541254299053914"><ele>273.0</ele><time>2026-05-04T13:26:35Z</time></trkpt><trkpt lat="41.07767161275719" lon="14.54135898692032"><ele>273.0</ele><time>2026-05-04T13:26:40Z</time></trkpt><trkpt lat="41.07777600264069" lon="14.541446880442642"><ele>273.0</ele><time>2026-05-04T13:26:41Z</time></trkpt><trkpt lat="41.077832286498214" lon="14.541495989637506"><ele>273.0</ele><time>2026-05-04T13:26:43Z</time></trkpt><trkpt lat="41.07791818731545" lon="14.541930044965627"><ele>272.6666666666667</ele><time>2026-05-04T13:26:45Z</time></trkpt><trkpt lat="41.077850342740454" lon="14.542122252081109"><ele>272.33333333333337</ele><time>2026-05-04T13:26:46Z</time></trkpt><trkpt lat="41.07778500338599" lon="14.54231303433328"><ele>272.0</ele><time>2026-05-04T13:26:47Z</time></trkpt><trkpt lat="41.07772876677608" lon="14.542474521243665"><ele>272.0</ele><time>2026-05-04T13:26:48Z</time></trkpt><trkpt lat="41.077669553573045" lon="14.54264132460926"><ele>272.0</ele><time>2026-05-04T13:26:49Z</time></trkpt><trkpt lat="41.07761390406101" lon="14.542792905185383"><ele>272.0</ele><time>2026-05-04T13:26:50Z</time></trkpt><trkpt lat="41.07756204367675" lon="14.542895594459237"><ele>272.0</ele><time>2026-05-04T13:26:51Z</time></trkpt><trkpt lat="41.07751427239829" lon="14.542982983049646"><ele>272.0</ele><time>2026-05-04T13:26:52Z</time></trkpt><trkpt lat="41.077498212781926" lon="14.543092684460934"><ele>271.0</ele><time>2026-05-04T13:26:54Z</time></trkpt><trkpt lat="41.07705971642845" lon="14.542805043049484"><ele>270.66666666666663</ele><time>2026-05-04T13:26:55Z</time></trkpt><trkpt lat="41.07699998938598" lon="14.543007477575498"><ele>270.3333333333333</ele><time>2026-05-04T13:26:57Z</time></trkpt><trkpt lat="41.07696408255265" lon="14.54319335907695"><ele>270.0</ele><time>2026-05-04T13:26:58Z</time></trkpt><trkpt lat="41.07691025285162" lon="14.54338645894739"><ele>270.0</ele><time>2026-05-04T13:26:59Z</time></trkpt><trkpt lat="41.07684265649175" lon="14.543604096215256"><ele>270.0</ele><time>2026-05-04T13:27:00Z</time></trkpt><trkpt lat="41.07676861486891" lon="14.543844935312189"><ele>270.0</ele><time>2026-05-04T13:27:01Z</time></trkpt><trkpt lat="41.07669133161423" lon="14.544098141156237"><ele>269.3333333333333</ele><time>2026-05-04T13:27:02Z</time></trkpt><trkpt lat="41.07661512932077" lon="14.544347990302855"><ele>268.66666666666663</ele><time>2026-05-04T13:27:03Z</time></trkpt><trkpt lat="41.076542097721614" lon="14.544574323674379"><ele>268.0</ele><time>2026-05-04T13:27:04Z</time></trkpt><trkpt lat="41.07648113360478" lon="14.54478719863057"><ele>267.75</ele><time>2026-05-04T13:27:05Z</time></trkpt><trkpt lat="41.07643149171305" lon="14.544997392699688"><ele>267.5</ele><time>2026-05-04T13:27:06Z</time></trkpt><trkpt lat="41.07638402706161" lon="14.545174507114222"><ele>267.25</ele><time>2026-05-04T13:27:07Z</time></trkpt><trkpt lat="41.07634622186989" lon="14.54532522330161"><ele>267.0</ele><time>2026-05-04T13:27:08Z</time></trkpt><trkpt lat="41.0762385684084" lon="14.54544798256218"><ele>267.0</ele><time>2026-05-04T13:27:09Z</time></trkpt><trkpt lat="41.07614661850085" lon="14.54554953125168"><ele>267.0</ele><time>2026-05-04T13:27:10Z</time></trkpt><trkpt lat="41.07605251316875" lon="14.545657501630194"><ele>267.0</ele><time>2026-05-04T13:27:11Z</time></trkpt><trkpt lat="41.075953345783354" lon="14.545783554708548"><ele>267.0</ele><time>2026-05-04T13:27:12Z</time></trkpt><trkpt lat="41.075797325538865" lon="14.545909501124745"><ele>267.0</ele><time>2026-05-04T13:27:13Z</time></trkpt><trkpt lat="41.075621135058356" lon="14.546049213908422"><ele>267.0</ele><time>2026-05-04T13:27:14Z</time></trkpt><trkpt lat="41.07543422401795" lon="14.546222420601676"><ele>267.0</ele><time>2026-05-04T13:27:15Z</time></trkpt><trkpt lat="41.07524477060891" lon="14.546364112205259"><ele>266.6666666666667</ele><time>2026-05-04T13:27:16Z</time></trkpt><trkpt lat="41.07506716444787" lon="14.546479836975939"><ele>266.33333333333337</ele><time>2026-05-04T13:27:17Z</time></trkpt><trkpt lat="41.07492341879858" lon="14.546627423551094"><ele>266.0</ele><time>2026-05-04T13:27:18Z</time></trkpt><trkpt lat="41.07478660394553" lon="14.546737113154482"><ele>266.0</ele><time>2026-05-04T13:27:19Z</time></trkpt><trkpt lat="41.074671993734185" lon="14.546830724443689"><ele>266.0</ele><time>2026-05-04T13:27:20Z</time></trkpt><trkpt lat="41.07457491420309" lon="14.546903882521928"><ele>266.0</ele><time>2026-05-04T13:27:21Z</time></trkpt><trkpt lat="41.07450099807018" lon="14.546941696353578"><ele>266.0</ele><time>2026-05-04T13:27:22Z</time></trkpt><trkpt lat="41.07461204774712" lon="14.547156199403938"><ele>266.0</ele><time>2026-05-04T13:27:28Z</time></trkpt><trkpt lat="41.074703006012314" lon="14.547262394523425"><ele>266.0</ele><time>2026-05-04T13:27:29Z</time></trkpt><trkpt lat="41.07477889865373" lon="14.547322290623347"><ele>266.0</ele><time>2026-05-04T13:27:30Z</time></trkpt><trkpt lat="41.0748576285174" lon="14.54742289060009"><ele>266.0</ele><time>2026-05-04T13:27:31Z</time></trkpt><trkpt lat="41.07493658074416" lon="14.547534175366312"><ele>266.0</ele><time>2026-05-04T13:27:32Z</time></trkpt><trkpt lat="41.075022927264364" lon="14.54765904751479"><ele>265.6666666666667</ele><time>2026-05-04T13:27:33Z</time></trkpt><trkpt lat="41.075095537247684" lon="14.547819782525313"><ele>265.3333333333333</ele><time>2026-05-04T13:27:34Z</time></trkpt><trkpt lat="41.07518576023384" lon="14.54798448955219"><ele>265.0</ele><time>2026-05-04T13:27:35Z</time></trkpt><trkpt lat="41.075290745323294" lon="14.548178085975739"><ele>264.66666666666663</ele><time>2026-05-04T13:27:36Z</time></trkpt><trkpt lat="41.07539277040596" lon="14.548367522154168"><ele>264.3333333333333</ele><time>2026-05-04T13:27:37Z</time></trkpt><trkpt lat="41.075517767271336" lon="14.548560291056125"><ele>264.0</ele><time>2026-05-04T13:27:38Z</time></trkpt><trkpt lat="41.07563544039083" lon="14.548754950163652"><ele>264.0</ele><time>2026-05-04T13:27:39Z</time></trkpt><trkpt lat="41.075749230924586" lon="14.548917558747497"><ele>264.0</ele><time>2026-05-04T13:27:40Z</time></trkpt><trkpt lat="41.07585348044042" lon="14.54906925517763"><ele>264.0</ele><time>2026-05-04T13:27:41Z</time></trkpt><trkpt lat="41.0759580745915" lon="14.549215506462687"><ele>264.0</ele><time>2026-05-04T13:27:42Z</time></trkpt><trkpt lat="41.07605313608904" lon="14.549351774731724"><ele>264.0</ele><time>2026-05-04T13:27:43Z</time></trkpt><trkpt lat="41.07614455596567" lon="14.54948185970412"><ele>264.0</ele><time>2026-05-04T13:27:44Z</time></trkpt><trkpt lat="41.07622066236154" lon="14.54959133196446"><ele>264.0</ele><time>2026-05-04T13:27:45Z</time></trkpt><trkpt lat="41.07627738037717" lon="14.549687032423199"><ele>264.0</ele><time>2026-05-04T13:27:46Z</time></trkpt><trkpt lat="41.076269698260056" lon="14.549778772504906"><ele>264.0</ele><time>2026-05-04T13:27:48Z</time></trkpt><trkpt lat="41.07615643217958" lon="14.54985022623279"><ele>264.0</ele><time>2026-05-04T13:27:50Z</time></trkpt><trkpt lat="41.07605591519296" lon="14.549868793687514"><ele>264.0</ele><time>2026-05-04T13:27:51Z</time></trkpt><trkpt lat="41.075987878641726" lon="14.549875441830064"><ele>264.0</ele><time>2026-05-04T13:27:52Z</time></trkpt><trkpt lat="41.076011760917886" lon="14.55004532534025"><ele>264.0</ele><time>2026-05-04T13:27:55Z</time></trkpt></trkseg></trk></gpx>